<?xml version='1.0' encoding='UTF-8'?><gpx version="1.1" creator="JPX - https://github.com/jenetics/jpx" xmlns="http://www.topografix.com/GPX/1/1"><trk><trkseg><trkpt lat="42.3109412" lon="-7.6334374"><ele>641.0</ele><time>2026-04-25T08:20:42.048Z</time></trkpt><trkpt lat="42.3109667" lon="-7.633264"><ele>641.0</ele><time>2026-04-25T08:20:44.056Z</time></trkpt><trkpt lat="42.3109877" lon="-7.6331632"><ele>641.0</ele><time>2026-04-25T08:20:45.041Z</time></trkpt><trkpt lat="42.3110212" lon="-7.6330448"><ele>641.0</ele><time>2026-04-25T08:20:46.045Z</time></trkpt><trkpt lat="42.3110775" lon="-7.6329134"><ele>641.0</ele><time>2026-04-25T08:20:47.047Z</time></trkpt><trkpt lat="42.31114" lon="-7.6327728"><ele>641.1666666666666</ele><time>2026-04-25T08:20:48.046Z</time></trkpt><trkpt lat="42.3111932" lon="-7.6326534"><ele>641.3333333333333</ele><time>2026-04-25T08:20:49.049Z</time></trkpt><trkpt lat="42.3112409" lon="-7.6325493"><ele>641.5</ele><time>2026-04-25T08:20:50.048Z</time></trkpt><trkpt lat="42.3112798" lon="-7.6324481"><ele>641.6666666666666</ele><time>2026-04-25T08:20:51.04Z</time></trkpt><trkpt lat="42.3113169" lon="-7.6323499"><ele>641.8333333333334</ele><time>2026-04-25T08:20:52.045Z</time></trkpt><trkpt lat="42.3113547" lon="-7.6322539"><ele>642.0</ele><time>2026-04-25T08:20:53.044Z</time></trkpt><trkpt lat="42.3113916" lon="-7.6321595"><ele>644.0</ele><time>2026-04-25T08:20:54.046Z</time></trkpt><trkpt lat="42.3114274" lon="-7.6320677"><ele>646.0</ele><time>2026-04-25T08:20:55.042Z</time></trkpt><trkpt lat="42.3114639" lon="-7.6319778"><ele>648.0</ele><time>2026-04-25T08:20:56.042Z</time></trkpt><trkpt lat="42.3115008" lon="-7.631898"><ele>650.0</ele><time>2026-04-25T08:20:57.055Z</time></trkpt><trkpt lat="42.3115913" lon="-7.6318018"><ele>652.0</ele><time>2026-04-25T08:20:59.042Z</time></trkpt><trkpt lat="42.3117178" lon="-7.6318282"><ele>652.0</ele><time>2026-04-25T08:21:01.039Z</time></trkpt><trkpt lat="42.3117843" lon="-7.6318758"><ele>652.0</ele><time>2026-04-25T08:21:02.041Z</time></trkpt><trkpt lat="42.3118563" lon="-7.6319323"><ele>652.0</ele><time>2026-04-25T08:21:03.046Z</time></trkpt><trkpt lat="42.3119329" lon="-7.6319904"><ele>652.0</ele><time>2026-04-25T08:21:04.05Z</time></trkpt><trkpt lat="42.3120049" lon="-7.6320423"><ele>652.0</ele><time>2026-04-25T08:21:05.046Z</time></trkpt><trkpt lat="42.3120679" lon="-7.6320847"><ele>652.0</ele><time>2026-04-25T08:21:06.04Z</time></trkpt><trkpt lat="42.3121845" lon="-7.6321251"><ele>652.2</ele><time>2026-04-25T08:21:08.046Z</time></trkpt><trkpt lat="42.3122843" lon="-7.6320662"><ele>652.4000000000001</ele><time>2026-04-25T08:21:10.037Z</time></trkpt><trkpt lat="42.3123348" lon="-7.6319056"><ele>652.5999999999999</ele><time>2026-04-25T08:21:12.036Z</time></trkpt><trkpt lat="42.3123526" lon="-7.6318031"><ele>652.8</ele><time>2026-04-25T08:21:13.04Z</time></trkpt><trkpt lat="42.312373" lon="-7.6316914"><ele>653.0</ele><time>2026-04-25T08:21:14.038Z</time></trkpt><trkpt lat="42.3123948" lon="-7.6315726"><ele>654.2</ele><time>2026-04-25T08:21:15.041Z</time></trkpt><trkpt lat="42.3124176" lon="-7.6314458"><ele>655.4</ele><time>2026-04-25T08:21:16.054Z</time></trkpt><trkpt lat="42.3124421" lon="-7.6313099"><ele>656.6</ele><time>2026-04-25T08:21:17.046Z</time></trkpt><trkpt lat="42.3124709" lon="-7.6311662"><ele>657.8000000000001</ele><time>2026-04-25T08:21:18.046Z</time></trkpt><trkpt lat="42.312501" lon="-7.6310203"><ele>659.0</ele><time>2026-04-25T08:21:19.044Z</time></trkpt><trkpt lat="42.3125302" lon="-7.6308769"><ele>660.0</ele><time>2026-04-25T08:21:20.045Z</time></trkpt><trkpt lat="42.3125613" lon="-7.6307362"><ele>661.0</ele><time>2026-04-25T08:21:21.045Z</time></trkpt><trkpt lat="42.3125906" lon="-7.6305972"><ele>662.0</ele><time>2026-04-25T08:21:22.045Z</time></trkpt><trkpt lat="42.3126209" lon="-7.6304608"><ele>663.0</ele><time>2026-04-25T08:21:23.05Z</time></trkpt><trkpt lat="42.3126489" lon="-7.6303269"><ele>664.0</ele><time>2026-04-25T08:21:24.044Z</time></trkpt><trkpt lat="42.3126724" lon="-7.6301947"><ele>664.8000000000001</ele><time>2026-04-25T08:21:25.052Z</time></trkpt><trkpt lat="42.3126926" lon="-7.6300635"><ele>665.6</ele><time>2026-04-25T08:21:26.046Z</time></trkpt><trkpt lat="42.3127135" lon="-7.6299316"><ele>666.4</ele><time>2026-04-25T08:21:27.05Z</time></trkpt><trkpt lat="42.3127384" lon="-7.6297979"><ele>667.2</ele><time>2026-04-25T08:21:28.041Z</time></trkpt><trkpt lat="42.312766" lon="-7.6296607"><ele>668.0</ele><time>2026-04-25T08:21:29.045Z</time></trkpt><trkpt lat="42.312795" lon="-7.6295178"><ele>669.5</ele><time>2026-04-25T08:21:30.047Z</time></trkpt><trkpt lat="42.3128242" lon="-7.6293705"><ele>671.0</ele><time>2026-04-25T08:21:31.042Z</time></trkpt><trkpt lat="42.3128537" lon="-7.6292198"><ele>672.5</ele><time>2026-04-25T08:21:32.045Z</time></trkpt><trkpt lat="42.3128836" lon="-7.6290655"><ele>674.0</ele><time>2026-04-25T08:21:33.043Z</time></trkpt><trkpt lat="42.3129136" lon="-7.6289079"><ele>674.0</ele><time>2026-04-25T08:21:34.044Z</time></trkpt><trkpt lat="42.3129474" lon="-7.6287467"><ele>674.0</ele><time>2026-04-25T08:21:35.042Z</time></trkpt><trkpt lat="42.3129806" lon="-7.6285812"><ele>674.0</ele><time>2026-04-25T08:21:36.043Z</time></trkpt><trkpt lat="42.3130152" lon="-7.6284106"><ele>674.0</ele><time>2026-04-25T08:21:37.043Z</time></trkpt><trkpt lat="42.3130498" lon="-7.6282397"><ele>676.25</ele><time>2026-04-25T08:21:38.049Z</time></trkpt><trkpt lat="42.3130851" lon="-7.6280711"><ele>678.5</ele><time>2026-04-25T08:21:39.049Z</time></trkpt><trkpt lat="42.3131226" lon="-7.6278973"><ele>680.75</ele><time>2026-04-25T08:21:40.051Z</time></trkpt><trkpt lat="42.3131572" lon="-7.6277256"><ele>683.0</ele><time>2026-04-25T08:21:41.053Z</time></trkpt><trkpt lat="42.3131888" lon="-7.627551"><ele>684.5</ele><time>2026-04-25T08:21:42.044Z</time></trkpt><trkpt lat="42.3132223" lon="-7.6273756"><ele>686.0</ele><time>2026-04-25T08:21:43.05Z</time></trkpt><trkpt lat="42.3132562" lon="-7.6272001"><ele>687.5</ele><time>2026-04-25T08:21:44.069Z</time></trkpt><trkpt lat="42.3132898" lon="-7.6270241"><ele>689.0</ele><time>2026-04-25T08:21:45.048Z</time></trkpt><trkpt lat="42.3133234" lon="-7.6268437"><ele>690.75</ele><time>2026-04-25T08:21:46.04Z</time></trkpt><trkpt lat="42.3133588" lon="-7.6266646"><ele>692.5</ele><time>2026-04-25T08:21:47.041Z</time></trkpt><trkpt lat="42.3133964" lon="-7.6264827"><ele>694.25</ele><time>2026-04-25T08:21:48.046Z</time></trkpt><trkpt lat="42.3134328" lon="-7.6263016"><ele>696.0</ele><time>2026-04-25T08:21:49.037Z</time></trkpt><trkpt lat="42.313469" lon="-7.6261208"><ele>697.5</ele><time>2026-04-25T08:21:50.059Z</time></trkpt><trkpt lat="42.3135049" lon="-7.6259403"><ele>699.0</ele><time>2026-04-25T08:21:51.046Z</time></trkpt><trkpt lat="42.3135414" lon="-7.6257587"><ele>700.5</ele><time>2026-04-25T08:21:52.038Z</time></trkpt><trkpt lat="42.3135781" lon="-7.6255776"><ele>702.0</ele><time>2026-04-25T08:21:53.042Z</time></trkpt><trkpt lat="42.3136151" lon="-7.6253932"><ele>703.4000000000001</ele><time>2026-04-25T08:21:54.039Z</time></trkpt><trkpt lat="42.313652" lon="-7.6252143"><ele>704.8000000000001</ele><time>2026-04-25T08:21:55.04Z</time></trkpt><trkpt lat="42.3136815" lon="-7.625057"><ele>706.2</ele><time>2026-04-25T08:21:56.043Z</time></trkpt><trkpt lat="42.3137056" lon="-7.6249242"><ele>707.6</ele><time>2026-04-25T08:21:57.042Z</time></trkpt><trkpt lat="42.3137268" lon="-7.6248133"><ele>709.0</ele><time>2026-04-25T08:21:58.04Z</time></trkpt><trkpt lat="42.3137443" lon="-7.6247306"><ele>709.0000000000001</ele><time>2026-04-25T08:21:59.045Z</time></trkpt><trkpt lat="42.3137608" lon="-7.6246438"><ele>709.0</ele><time>2026-04-25T08:22:01.041Z</time></trkpt><trkpt lat="42.3137707" lon="-7.6245586"><ele>709.0</ele><time>2026-04-25T08:22:05.041Z</time></trkpt><trkpt lat="42.3137881" lon="-7.6244734"><ele>709.0</ele><time>2026-04-25T08:22:26.058Z</time></trkpt><trkpt lat="42.3138074" lon="-7.6243914"><ele>709.0</ele><time>2026-04-25T08:22:27.035Z</time></trkpt><trkpt lat="42.3138285" lon="-7.6242947"><ele>709.0000000000001</ele><time>2026-04-25T08:22:28.065Z</time></trkpt><trkpt lat="42.3138493" lon="-7.6241912"><ele>709.0</ele><time>2026-04-25T08:22:29.044Z</time></trkpt><trkpt lat="42.3138709" lon="-7.6240783"><ele>710.0</ele><time>2026-04-25T08:22:30.05Z</time></trkpt><trkpt lat="42.3138933" lon="-7.6239594"><ele>711.0</ele><time>2026-04-25T08:22:31.042Z</time></trkpt><trkpt lat="42.3139129" lon="-7.6238628"><ele>712.0</ele><time>2026-04-25T08:22:32.041Z</time></trkpt><trkpt lat="42.3139331" lon="-7.623782"><ele>713.0</ele><time>2026-04-25T08:22:33.04Z</time></trkpt><trkpt lat="42.3139709" lon="-7.623654"><ele>714.0</ele><time>2026-04-25T08:22:35.04Z</time></trkpt><trkpt lat="42.313989" lon="-7.6235527"><ele>715.0</ele><time>2026-04-25T08:22:58.046Z</time></trkpt><trkpt lat="42.313933" lon="-7.6234238"><ele>717.4</ele><time>2026-04-25T08:23:01.046Z</time></trkpt><trkpt lat="42.3139078" lon="-7.6232759"><ele>719.8</ele><time>2026-04-25T08:23:03.041Z</time></trkpt><trkpt lat="42.3139064" lon="-7.6231484"><ele>722.2</ele><time>2026-04-25T08:23:05.045Z</time></trkpt><trkpt lat="42.3139008" lon="-7.6230436"><ele>724.6</ele><time>2026-04-25T08:23:07.048Z</time></trkpt><trkpt lat="42.3138464" lon="-7.6229703"><ele>727.0</ele><time>2026-04-25T08:23:09.06Z</time></trkpt><trkpt lat="42.3137528" lon="-7.6229133"><ele>727.3333333333334</ele><time>2026-04-25T08:23:11.042Z</time></trkpt><trkpt lat="42.3137007" lon="-7.6228574"><ele>727.6666666666667</ele><time>2026-04-25T08:23:12.043Z</time></trkpt><trkpt lat="42.3136494" lon="-7.6227843"><ele>728.0</ele><time>2026-04-25T08:23:13.042Z</time></trkpt><trkpt lat="42.3136134" lon="-7.6226906"><ele>728.3333333333334</ele><time>2026-04-25T08:23:14.043Z</time></trkpt><trkpt lat="42.3135836" lon="-7.6225979"><ele>728.6666666666666</ele><time>2026-04-25T08:23:15.057Z</time></trkpt><trkpt lat="42.3135548" lon="-7.622496"><ele>729.0</ele><time>2026-04-25T08:23:16.041Z</time></trkpt><trkpt lat="42.3135392" lon="-7.6223942"><ele>731.5</ele><time>2026-04-25T08:23:17.042Z</time></trkpt><trkpt lat="42.3135243" lon="-7.6223013"><ele>734.0</ele><time>2026-04-25T08:23:18.048Z</time></trkpt><trkpt lat="42.3135144" lon="-7.6222067"><ele>736.5</ele><time>2026-04-25T08:23:19.045Z</time></trkpt><trkpt lat="42.3134984" lon="-7.6221164"><ele>739.0</ele><time>2026-04-25T08:23:20.047Z</time></trkpt><trkpt lat="42.3134884" lon="-7.6220036"><ele>741.5</ele><time>2026-04-25T08:23:21.041Z</time></trkpt><trkpt lat="42.3134794" lon="-7.6218607"><ele>744.0</ele><time>2026-04-25T08:23:22.035Z</time></trkpt><trkpt lat="42.3134792" lon="-7.6217338"><ele>745.4285714285714</ele><time>2026-04-25T08:23:23.041Z</time></trkpt><trkpt lat="42.3134783" lon="-7.62163"><ele>746.8571428571429</ele><time>2026-04-25T08:23:24.043Z</time></trkpt><trkpt lat="42.3134901" lon="-7.6215346"><ele>748.2857142857142</ele><time>2026-04-25T08:23:25.04Z</time></trkpt><trkpt lat="42.3135208" lon="-7.6214552"><ele>749.7142857142858</ele><time>2026-04-25T08:23:26.039Z</time></trkpt><trkpt lat="42.3135591" lon="-7.6213806"><ele>751.1428571428571</ele><time>2026-04-25T08:23:27.038Z</time></trkpt><trkpt lat="42.3136019" lon="-7.6213124"><ele>752.5714285714286</ele><time>2026-04-25T08:23:28.045Z</time></trkpt><trkpt lat="42.3136708" lon="-7.6212438"><ele>754.0</ele><time>2026-04-25T08:23:29.042Z</time></trkpt><trkpt lat="42.3137548" lon="-7.6211468"><ele>755.4000000000001</ele><time>2026-04-25T08:23:30.041Z</time></trkpt><trkpt lat="42.3138302" lon="-7.6210656"><ele>756.8</ele><time>2026-04-25T08:23:31.039Z</time></trkpt><trkpt lat="42.3138937" lon="-7.6209905"><ele>758.2</ele><time>2026-04-25T08:23:32.043Z</time></trkpt><trkpt lat="42.3139396" lon="-7.6208975"><ele>759.5999999999999</ele><time>2026-04-25T08:23:33.051Z</time></trkpt><trkpt lat="42.3139804" lon="-7.6207766"><ele>761.0</ele><time>2026-04-25T08:23:34.037Z</time></trkpt><trkpt lat="42.3140197" lon="-7.6206452"><ele>762.1999999999999</ele><time>2026-04-25T08:23:35.036Z</time></trkpt><trkpt lat="42.3140569" lon="-7.6205131"><ele>763.4</ele><time>2026-04-25T08:23:36.047Z</time></trkpt><trkpt lat="42.3140937" lon="-7.6203727"><ele>764.6</ele><time>2026-04-25T08:23:37.039Z</time></trkpt><trkpt lat="42.3141304" lon="-7.620248"><ele>765.8</ele><time>2026-04-25T08:23:38.039Z</time></trkpt><trkpt lat="42.3141534" lon="-7.6201251"><ele>767.0</ele><time>2026-04-25T08:23:39.036Z</time></trkpt><trkpt lat="42.3141956" lon="-7.619986"><ele>768.6666666666666</ele><time>2026-04-25T08:23:40.043Z</time></trkpt><trkpt lat="42.3142321" lon="-7.6198629"><ele>770.3333333333333</ele><time>2026-04-25T08:23:41.041Z</time></trkpt><trkpt lat="42.3142599" lon="-7.6197545"><ele>772.0</ele><time>2026-04-25T08:23:42.037Z</time></trkpt><trkpt lat="42.314276" lon="-7.6196651"><ele>773.6666666666666</ele><time>2026-04-25T08:23:43.038Z</time></trkpt><trkpt lat="42.3142809" lon="-7.619564"><ele>775.3333333333334</ele><time>2026-04-25T08:23:44.041Z</time></trkpt><trkpt lat="42.3142802" lon="-7.6194493"><ele>777.0</ele><time>2026-04-25T08:23:45.039Z</time></trkpt><trkpt lat="42.3142646" lon="-7.6193228"><ele>779.1666666666666</ele><time>2026-04-25T08:23:46.038Z</time></trkpt><trkpt lat="42.31425" lon="-7.6192063"><ele>781.3333333333333</ele><time>2026-04-25T08:23:47.041Z</time></trkpt><trkpt lat="42.3142287" lon="-7.6191194"><ele>783.5</ele><time>2026-04-25T08:23:48.042Z</time></trkpt><trkpt lat="42.3141505" lon="-7.6190111"><ele>785.6666666666666</ele><time>2026-04-25T08:23:50.04Z</time></trkpt><trkpt lat="42.3140831" lon="-7.6189682"><ele>787.8333333333333</ele><time>2026-04-25T08:23:51.044Z</time></trkpt><trkpt lat="42.3139856" lon="-7.6189497"><ele>790.0</ele><time>2026-04-25T08:23:52.045Z</time></trkpt><trkpt lat="42.313879" lon="-7.6189217"><ele>790.5</ele><time>2026-04-25T08:23:53.04Z</time></trkpt><trkpt lat="42.3137653" lon="-7.6188849"><ele>791.0</ele><time>2026-04-25T08:23:54.041Z</time></trkpt><trkpt lat="42.3136398" lon="-7.6188614"><ele>791.5</ele><time>2026-04-25T08:23:55.041Z</time></trkpt><trkpt lat="42.3135091" lon="-7.6188335"><ele>792.0</ele><time>2026-04-25T08:23:56.043Z</time></trkpt><trkpt lat="42.313383" lon="-7.6188152"><ele>792.0</ele><time>2026-04-25T08:23:57.04Z</time></trkpt><trkpt lat="42.3132362" lon="-7.6188113"><ele>792.0</ele><time>2026-04-25T08:23:58.047Z</time></trkpt><trkpt lat="42.3131092" lon="-7.6188001"><ele>792.0</ele><time>2026-04-25T08:23:59.038Z</time></trkpt><trkpt lat="42.313003" lon="-7.6187811"><ele>792.0</ele><time>2026-04-25T08:24:00.037Z</time></trkpt><trkpt lat="42.3129168" lon="-7.6187637"><ele>792.6666666666666</ele><time>2026-04-25T08:24:01.04Z</time></trkpt><trkpt lat="42.3128519" lon="-7.6187485"><ele>793.3333333333333</ele><time>2026-04-25T08:24:02.042Z</time></trkpt><trkpt lat="42.3127755" lon="-7.6186965"><ele>794.0</ele><time>2026-04-25T08:24:04.038Z</time></trkpt><trkpt lat="42.3127941" lon="-7.6186055"><ele>794.6666666666666</ele><time>2026-04-25T08:24:09.04Z</time></trkpt><trkpt lat="42.3128836" lon="-7.6185372"><ele>795.3333333333333</ele><time>2026-04-25T08:24:11.04Z</time></trkpt><trkpt lat="42.3129583" lon="-7.6185047"><ele>796.0</ele><time>2026-04-25T08:24:12.04Z</time></trkpt><trkpt lat="42.3130575" lon="-7.6184675"><ele>798.8</ele><time>2026-04-25T08:24:13.037Z</time></trkpt><trkpt lat="42.3131577" lon="-7.6184305"><ele>801.5999999999999</ele><time>2026-04-25T08:24:14.046Z</time></trkpt><trkpt lat="42.3132672" lon="-7.6183943"><ele>804.4</ele><time>2026-04-25T08:24:15.038Z</time></trkpt><trkpt lat="42.3133721" lon="-7.6183463"><ele>807.2</ele><time>2026-04-25T08:24:16.034Z</time></trkpt><trkpt lat="42.313464" lon="-7.6183018"><ele>810.0</ele><time>2026-04-25T08:24:17.037Z</time></trkpt><trkpt lat="42.3135444" lon="-7.6182422"><ele>810.0</ele><time>2026-04-25T08:24:18.036Z</time></trkpt><trkpt lat="42.3136442" lon="-7.6181691"><ele>810.0</ele><time>2026-04-25T08:24:19.038Z</time></trkpt><trkpt lat="42.3137518" lon="-7.6180708"><ele>810.0</ele><time>2026-04-25T08:24:20.04Z</time></trkpt><trkpt lat="42.3138435" lon="-7.6179851"><ele>810.0</ele><time>2026-04-25T08:24:21.042Z</time></trkpt><trkpt lat="42.3139355" lon="-7.6178948"><ele>813.6</ele><time>2026-04-25T08:24:22.043Z</time></trkpt><trkpt lat="42.3140318" lon="-7.6177889"><ele>817.2</ele><time>2026-04-25T08:24:23.038Z</time></trkpt><trkpt lat="42.314125" lon="-7.6177016"><ele>820.8</ele><time>2026-04-25T08:24:24.036Z</time></trkpt><trkpt lat="42.3142187" lon="-7.6176285"><ele>824.4</ele><time>2026-04-25T08:24:25.038Z</time></trkpt><trkpt lat="42.3142971" lon="-7.617543"><ele>828.0</ele><time>2026-04-25T08:24:26.046Z</time></trkpt><trkpt lat="42.3143632" lon="-7.617478"><ele>828.0</ele><time>2026-04-25T08:24:27.039Z</time></trkpt><trkpt lat="42.3144295" lon="-7.6174361"><ele>828.0</ele><time>2026-04-25T08:24:28.039Z</time></trkpt><trkpt lat="42.3144958" lon="-7.6174218"><ele>828.0</ele><time>2026-04-25T08:24:29.051Z</time></trkpt><trkpt lat="42.3145618" lon="-7.617413"><ele>828.0</ele><time>2026-04-25T08:24:30.041Z</time></trkpt><trkpt lat="42.3146324" lon="-7.6174377"><ele>828.0</ele><time>2026-04-25T08:24:31.041Z</time></trkpt><trkpt lat="42.3147168" lon="-7.6174759"><ele>828.0</ele><time>2026-04-25T08:24:32.039Z</time></trkpt><trkpt lat="42.3148259" lon="-7.6175075"><ele>829.0</ele><time>2026-04-25T08:24:33.038Z</time></trkpt><trkpt lat="42.3149325" lon="-7.6175364"><ele>830.0</ele><time>2026-04-25T08:24:34.037Z</time></trkpt><trkpt lat="42.31502" lon="-7.6175514"><ele>831.0</ele><time>2026-04-25T08:24:35.041Z</time></trkpt><trkpt lat="42.3150944" lon="-7.6175622"><ele>832.0</ele><time>2026-04-25T08:24:36.04Z</time></trkpt><trkpt lat="42.3151523" lon="-7.6175229"><ele>833.0</ele><time>2026-04-25T08:24:38.052Z</time></trkpt><trkpt lat="42.3151164" lon="-7.6174338"><ele>834.0</ele><time>2026-04-25T08:24:40.036Z</time></trkpt><trkpt lat="42.3150264" lon="-7.6173122"><ele>834.0</ele><time>2026-04-25T08:24:42.033Z</time></trkpt><trkpt lat="42.3149825" lon="-7.6172316"><ele>834.0</ele><time>2026-04-25T08:24:43.034Z</time></trkpt><trkpt lat="42.3149432" lon="-7.6171575"><ele>834.0</ele><time>2026-04-25T08:24:44.043Z</time></trkpt><trkpt lat="42.3149001" lon="-7.6170738"><ele>834.0</ele><time>2026-04-25T08:24:45.04Z</time></trkpt><trkpt lat="42.3148648" lon="-7.6170009"><ele>834.0</ele><time>2026-04-25T08:24:46.039Z</time></trkpt><trkpt lat="42.3148382" lon="-7.6168799"><ele>834.0</ele><time>2026-04-25T08:24:48.038Z</time></trkpt><trkpt lat="42.3148824" lon="-7.6167706"><ele>838.4000000000001</ele><time>2026-04-25T08:24:50.041Z</time></trkpt><trkpt lat="42.3149669" lon="-7.6166997"><ele>842.8</ele><time>2026-04-25T08:24:52.038Z</time></trkpt><trkpt lat="42.3150889" lon="-7.6166425"><ele>847.1999999999999</ele><time>2026-04-25T08:24:54.045Z</time></trkpt><trkpt lat="42.3151564" lon="-7.6166119"><ele>851.5999999999999</ele><time>2026-04-25T08:24:55.039Z</time></trkpt><trkpt lat="42.3152284" lon="-7.6165747"><ele>856.0</ele><time>2026-04-25T08:24:56.041Z</time></trkpt><trkpt lat="42.3152998" lon="-7.6165361"><ele>855.9999999999999</ele><time>2026-04-25T08:24:57.037Z</time></trkpt><trkpt lat="42.3153707" lon="-7.6164913"><ele>856.0</ele><time>2026-04-25T08:24:58.039Z</time></trkpt><trkpt lat="42.3154436" lon="-7.616438"><ele>856.0</ele><time>2026-04-25T08:24:59.038Z</time></trkpt><trkpt lat="42.3155175" lon="-7.6163822"><ele>856.0</ele><time>2026-04-25T08:25:00.075Z</time></trkpt><trkpt lat="42.3155909" lon="-7.6163136"><ele>855.9999999999999</ele><time>2026-04-25T08:25:01.045Z</time></trkpt><trkpt lat="42.3156576" lon="-7.616229"><ele>856.0</ele><time>2026-04-25T08:25:02.034Z</time></trkpt><trkpt lat="42.3157178" lon="-7.6161281"><ele>860.5999999999999</ele><time>2026-04-25T08:25:03.042Z</time></trkpt><trkpt lat="42.31577" lon="-7.6160193"><ele>865.1999999999999</ele><time>2026-04-25T08:25:04.048Z</time></trkpt><trkpt lat="42.315832" lon="-7.6159041"><ele>869.8000000000001</ele><time>2026-04-25T08:25:05.041Z</time></trkpt><trkpt lat="42.3159067" lon="-7.6157881"><ele>874.4000000000001</ele><time>2026-04-25T08:25:06.042Z</time></trkpt><trkpt lat="42.3159866" lon="-7.6156722"><ele>879.0</ele><time>2026-04-25T08:25:07.041Z</time></trkpt><trkpt lat="42.3160636" lon="-7.6155633"><ele>879.0</ele><time>2026-04-25T08:25:08.037Z</time></trkpt><trkpt lat="42.3161395" lon="-7.6154609"><ele>879.0000000000001</ele><time>2026-04-25T08:25:09.05Z</time></trkpt><trkpt lat="42.3162041" lon="-7.6153687"><ele>879.0000000000001</ele><time>2026-04-25T08:25:10.041Z</time></trkpt><trkpt lat="42.3162558" lon="-7.6152821"><ele>879.0</ele><time>2026-04-25T08:25:11.038Z</time></trkpt><trkpt lat="42.3163069" lon="-7.6151934"><ele>879.0</ele><time>2026-04-25T08:25:12.041Z</time></trkpt><trkpt lat="42.3163589" lon="-7.6151018"><ele>882.4000000000001</ele><time>2026-04-25T08:25:13.04Z</time></trkpt><trkpt lat="42.3164163" lon="-7.6149916"><ele>885.8000000000001</ele><time>2026-04-25T08:25:14.044Z</time></trkpt><trkpt lat="42.3164674" lon="-7.6148779"><ele>889.1999999999999</ele><time>2026-04-25T08:25:15.041Z</time></trkpt><trkpt lat="42.3165221" lon="-7.6147697"><ele>892.5999999999999</ele><time>2026-04-25T08:25:16.049Z</time></trkpt><trkpt lat="42.3165815" lon="-7.6146591"><ele>896.0</ele><time>2026-04-25T08:25:17.044Z</time></trkpt><trkpt lat="42.3166515" lon="-7.6145574"><ele>896.0</ele><time>2026-04-25T08:25:18.038Z</time></trkpt><trkpt lat="42.3167284" lon="-7.6145"><ele>895.9999999999999</ele><time>2026-04-25T08:25:19.041Z</time></trkpt><trkpt lat="42.3168154" lon="-7.6144489"><ele>895.9999999999999</ele><time>2026-04-25T08:25:20.043Z</time></trkpt><trkpt lat="42.3169057" lon="-7.6143972"><ele>896.0</ele><time>2026-04-25T08:25:21.037Z</time></trkpt><trkpt lat="42.3169834" lon="-7.6143512"><ele>896.0</ele><time>2026-04-25T08:25:22.041Z</time></trkpt><trkpt lat="42.3170555" lon="-7.6142807"><ele>899.3333333333334</ele><time>2026-04-25T08:25:23.046Z</time></trkpt><trkpt lat="42.3171264" lon="-7.6141888"><ele>902.6666666666667</ele><time>2026-04-25T08:25:24.034Z</time></trkpt><trkpt lat="42.3172045" lon="-7.6140882"><ele>906.0</ele><time>2026-04-25T08:25:25.041Z</time></trkpt><trkpt lat="42.31727" lon="-7.6140008"><ele>909.3333333333333</ele><time>2026-04-25T08:25:26.042Z</time></trkpt><trkpt lat="42.3173291" lon="-7.613946"><ele>912.6666666666666</ele><time>2026-04-25T08:25:27.037Z</time></trkpt><trkpt lat="42.317404" lon="-7.6139145"><ele>916.0</ele><time>2026-04-25T08:25:28.034Z</time></trkpt><trkpt lat="42.3174886" lon="-7.6138749"><ele>916.0</ele><time>2026-04-25T08:25:29.037Z</time></trkpt><trkpt lat="42.3175677" lon="-7.6138359"><ele>915.9999999999999</ele><time>2026-04-25T08:25:30.036Z</time></trkpt><trkpt lat="42.3176449" lon="-7.6137479"><ele>915.9999999999999</ele><time>2026-04-25T08:25:32.041Z</time></trkpt><trkpt lat="42.3176867" lon="-7.6135849"><ele>916.0</ele><time>2026-04-25T08:25:34.036Z</time></trkpt><trkpt lat="42.3177257" lon="-7.613504"><ele>916.0</ele><time>2026-04-25T08:25:35.038Z</time></trkpt><trkpt lat="42.3177723" lon="-7.6134339"><ele>918.5714285714286</ele><time>2026-04-25T08:25:36.041Z</time></trkpt><trkpt lat="42.3178235" lon="-7.6133757"><ele>921.1428571428571</ele><time>2026-04-25T08:25:37.041Z</time></trkpt><trkpt lat="42.3178759" lon="-7.6133203"><ele>923.7142857142857</ele><time>2026-04-25T08:25:38.047Z</time></trkpt><trkpt lat="42.3179406" lon="-7.6132721"><ele>926.2857142857142</ele><time>2026-04-25T08:25:39.038Z</time></trkpt><trkpt lat="42.3180073" lon="-7.6132098"><ele>928.8571428571429</ele><time>2026-04-25T08:25:40.041Z</time></trkpt><trkpt lat="42.3180802" lon="-7.6131457"><ele>931.4285714285713</ele><time>2026-04-25T08:25:41.036Z</time></trkpt><trkpt lat="42.3181362" lon="-7.6130972"><ele>933.9999999999999</ele><time>2026-04-25T08:25:42.035Z</time></trkpt><trkpt lat="42.3182268" lon="-7.6130748"><ele>936.2</ele><time>2026-04-25T08:25:44.037Z</time></trkpt><trkpt lat="42.3183104" lon="-7.6131974"><ele>938.4000000000001</ele><time>2026-04-25T08:25:46.038Z</time></trkpt><trkpt lat="42.3183303" lon="-7.613312"><ele>940.6</ele><time>2026-04-25T08:25:47.044Z</time></trkpt><trkpt lat="42.3183368" lon="-7.6134408"><ele>942.8</ele><time>2026-04-25T08:25:48.045Z</time></trkpt><trkpt lat="42.3183377" lon="-7.6135788"><ele>945.0</ele><time>2026-04-25T08:25:49.046Z</time></trkpt><trkpt lat="42.318339" lon="-7.613725"><ele>945.0</ele><time>2026-04-25T08:25:50.036Z</time></trkpt><trkpt lat="42.3183453" lon="-7.6138694"><ele>945.0</ele><time>2026-04-25T08:25:51.039Z</time></trkpt><trkpt lat="42.3183579" lon="-7.6140227"><ele>945.0</ele><time>2026-04-25T08:25:52.05Z</time></trkpt><trkpt lat="42.3183704" lon="-7.6141817"><ele>945.0</ele><time>2026-04-25T08:25:53.044Z</time></trkpt><trkpt lat="42.3183942" lon="-7.6143573"><ele>944.2</ele><time>2026-04-25T08:25:54.04Z</time></trkpt><trkpt lat="42.3184242" lon="-7.614504"><ele>943.4</ele><time>2026-04-25T08:25:55.038Z</time></trkpt><trkpt lat="42.3184558" lon="-7.6146367"><ele>942.5999999999999</ele><time>2026-04-25T08:25:56.043Z</time></trkpt><trkpt lat="42.3184869" lon="-7.6147647"><ele>941.8</ele><time>2026-04-25T08:25:57.046Z</time></trkpt><trkpt lat="42.3185346" lon="-7.6148725"><ele>941.0</ele><time>2026-04-25T08:25:58.042Z</time></trkpt><trkpt lat="42.3185992" lon="-7.6149651"><ele>941.0</ele><time>2026-04-25T08:25:59.041Z</time></trkpt><trkpt lat="42.318678" lon="-7.615038"><ele>940.9999999999999</ele><time>2026-04-25T08:26:00.04Z</time></trkpt><trkpt lat="42.3187629" lon="-7.6150855"><ele>940.9999999999999</ele><time>2026-04-25T08:26:01.038Z</time></trkpt><trkpt lat="42.3188537" lon="-7.6151107"><ele>941.0</ele><time>2026-04-25T08:26:02.043Z</time></trkpt><trkpt lat="42.3189519" lon="-7.6151218"><ele>941.0</ele><time>2026-04-25T08:26:03.039Z</time></trkpt><trkpt lat="42.3190511" lon="-7.6151108"><ele>945.5999999999999</ele><time>2026-04-25T08:26:04.041Z</time></trkpt><trkpt lat="42.3191394" lon="-7.6150819"><ele>950.1999999999999</ele><time>2026-04-25T08:26:05.041Z</time></trkpt><trkpt lat="42.3192274" lon="-7.6150361"><ele>954.8000000000001</ele><time>2026-04-25T08:26:06.043Z</time></trkpt><trkpt lat="42.3193244" lon="-7.6149785"><ele>959.4000000000001</ele><time>2026-04-25T08:26:07.04Z</time></trkpt><trkpt lat="42.31943" lon="-7.6149144"><ele>964.0</ele><time>2026-04-25T08:26:08.04Z</time></trkpt><trkpt lat="42.3195396" lon="-7.6148597"><ele>964.0</ele><time>2026-04-25T08:26:09.037Z</time></trkpt><trkpt lat="42.3196533" lon="-7.6148149"><ele>964.0</ele><time>2026-04-25T08:26:10.04Z</time></trkpt><trkpt lat="42.3197705" lon="-7.6147859"><ele>964.0</ele><time>2026-04-25T08:26:11.041Z</time></trkpt><trkpt lat="42.3198903" lon="-7.6147759"><ele>964.0</ele><time>2026-04-25T08:26:12.037Z</time></trkpt><trkpt lat="42.3200124" lon="-7.6147817"><ele>967.0</ele><time>2026-04-25T08:26:13.037Z</time></trkpt><trkpt lat="42.3201378" lon="-7.6147989"><ele>970.0</ele><time>2026-04-25T08:26:14.044Z</time></trkpt><trkpt lat="42.3202643" lon="-7.6148182"><ele>973.0</ele><time>2026-04-25T08:26:15.047Z</time></trkpt><trkpt lat="42.3203675" lon="-7.6148271"><ele>976.0</ele><time>2026-04-25T08:26:16.049Z</time></trkpt><trkpt lat="42.320461" lon="-7.6148299"><ele>975.9999999999999</ele><time>2026-04-25T08:26:17.042Z</time></trkpt><trkpt lat="42.3205438" lon="-7.6148336"><ele>976.0</ele><time>2026-04-25T08:26:18.046Z</time></trkpt><trkpt lat="42.3206103" lon="-7.614852"><ele>976.0</ele><time>2026-04-25T08:26:19.055Z</time></trkpt><trkpt lat="42.3206739" lon="-7.61487"><ele>976.0</ele><time>2026-04-25T08:26:21.045Z</time></trkpt><trkpt lat="42.3207112" lon="-7.614798"><ele>975.9999999999999</ele><time>2026-04-25T08:26:55.041Z</time></trkpt><trkpt lat="42.320691" lon="-7.6146689"><ele>976.0</ele><time>2026-04-25T08:26:57.034Z</time></trkpt><trkpt lat="42.3206724" lon="-7.6145105"><ele>981.6666666666666</ele><time>2026-04-25T08:26:59.038Z</time></trkpt><trkpt lat="42.3206621" lon="-7.6144191"><ele>987.3333333333333</ele><time>2026-04-25T08:27:00.037Z</time></trkpt><trkpt lat="42.3206491" lon="-7.6143217"><ele>993.0</ele><time>2026-04-25T08:27:01.035Z</time></trkpt><trkpt lat="42.320635" lon="-7.6142138"><ele>998.6666666666667</ele><time>2026-04-25T08:27:02.033Z</time></trkpt><trkpt lat="42.3206156" lon="-7.6140987"><ele>1004.3333333333334</ele><time>2026-04-25T08:27:03.034Z</time></trkpt><trkpt lat="42.320601" lon="-7.6140087"><ele>1010.0</ele><time>2026-04-25T08:27:04.031Z</time></trkpt><trkpt lat="42.3206032" lon="-7.6138755"><ele>1010.0</ele><time>2026-04-25T08:27:06.039Z</time></trkpt><trkpt lat="42.3206691" lon="-7.613809"><ele>1010.0</ele><time>2026-04-25T08:27:08.037Z</time></trkpt><trkpt lat="42.3207997" lon="-7.6137695"><ele>1010.0</ele><time>2026-04-25T08:27:10.046Z</time></trkpt><trkpt lat="42.3208844" lon="-7.6137482"><ele>1010.0</ele><time>2026-04-25T08:27:11.036Z</time></trkpt><trkpt lat="42.3209764" lon="-7.6137229"><ele>1010.0</ele><time>2026-04-25T08:27:12.04Z</time></trkpt><trkpt lat="42.3210695" lon="-7.6136959"><ele>1010.0</ele><time>2026-04-25T08:27:13.034Z</time></trkpt><trkpt lat="42.3211687" lon="-7.6136649"><ele>1010.0</ele><time>2026-04-25T08:27:14.041Z</time></trkpt><trkpt lat="42.3212737" lon="-7.613634"><ele>1010.0</ele><time>2026-04-25T08:27:15.038Z</time></trkpt><trkpt lat="42.3213653" lon="-7.6136054"><ele>1010.0</ele><time>2026-04-25T08:27:16.041Z</time></trkpt><trkpt lat="42.3214317" lon="-7.6135758"><ele>1010.0</ele><time>2026-04-25T08:27:17.036Z</time></trkpt><trkpt lat="42.3215163" lon="-7.613501"><ele>1014.1666666666667</ele><time>2026-04-25T08:27:19.033Z</time></trkpt><trkpt lat="42.3215648" lon="-7.6133649"><ele>1018.3333333333334</ele><time>2026-04-25T08:27:21.033Z</time></trkpt><trkpt lat="42.3215755" lon="-7.6132731"><ele>1022.5</ele><time>2026-04-25T08:27:22.037Z</time></trkpt><trkpt lat="42.3215753" lon="-7.6131688"><ele>1026.6666666666667</ele><time>2026-04-25T08:27:23.042Z</time></trkpt><trkpt lat="42.3215717" lon="-7.6130553"><ele>1030.8333333333333</ele><time>2026-04-25T08:27:24.038Z</time></trkpt><trkpt lat="42.3215614" lon="-7.612934"><ele>1035.0</ele><time>2026-04-25T08:27:25.038Z</time></trkpt><trkpt lat="42.3215359" lon="-7.6128025"><ele>1034.0</ele><time>2026-04-25T08:27:26.037Z</time></trkpt><trkpt lat="42.3214884" lon="-7.6126714"><ele>1033.0</ele><time>2026-04-25T08:27:27.037Z</time></trkpt><trkpt lat="42.3214136" lon="-7.6125326"><ele>1032.0</ele><time>2026-04-25T08:27:28.034Z</time></trkpt><trkpt lat="42.3213255" lon="-7.6123996"><ele>1031.0</ele><time>2026-04-25T08:27:29.036Z</time></trkpt><trkpt lat="42.3212321" lon="-7.6122563"><ele>1031.0</ele><time>2026-04-25T08:27:30.038Z</time></trkpt><trkpt lat="42.321136" lon="-7.612113"><ele>1031.0</ele><time>2026-04-25T08:27:31.033Z</time></trkpt><trkpt lat="42.3210519" lon="-7.6119793"><ele>1031.0</ele><time>2026-04-25T08:27:32.036Z</time></trkpt><trkpt lat="42.3209768" lon="-7.6118449"><ele>1031.0</ele><time>2026-04-25T08:27:33.043Z</time></trkpt><trkpt lat="42.3209135" lon="-7.6117095"><ele>1033.75</ele><time>2026-04-25T08:27:34.034Z</time></trkpt><trkpt lat="42.3208539" lon="-7.6115816"><ele>1036.5</ele><time>2026-04-25T08:27:35.038Z</time></trkpt><trkpt lat="42.3208267" lon="-7.6114424"><ele>1039.25</ele><time>2026-04-25T08:27:36.036Z</time></trkpt><trkpt lat="42.3208009" lon="-7.611275"><ele>1042.0</ele><time>2026-04-25T08:27:37.032Z</time></trkpt><trkpt lat="42.3207717" lon="-7.6111201"><ele>1044.0</ele><time>2026-04-25T08:27:38.039Z</time></trkpt><trkpt lat="42.3207405" lon="-7.6109845"><ele>1046.0</ele><time>2026-04-25T08:27:39.04Z</time></trkpt><trkpt lat="42.3206963" lon="-7.6108556"><ele>1048.0</ele><time>2026-04-25T08:27:40.042Z</time></trkpt><trkpt lat="42.3206314" lon="-7.6107169"><ele>1050.0</ele><time>2026-04-25T08:27:41.061Z</time></trkpt><trkpt lat="42.3205441" lon="-7.6105692"><ele>1048.0</ele><time>2026-04-25T08:27:42.036Z</time></trkpt><trkpt lat="42.3204418" lon="-7.6104102"><ele>1046.0</ele><time>2026-04-25T08:27:43.038Z</time></trkpt><trkpt lat="42.3203482" lon="-7.6102625"><ele>1044.0</ele><time>2026-04-25T08:27:44.04Z</time></trkpt><trkpt lat="42.3202572" lon="-7.6101049"><ele>1042.0</ele><time>2026-04-25T08:27:45.039Z</time></trkpt><trkpt lat="42.3201676" lon="-7.6099375"><ele>1042.0</ele><time>2026-04-25T08:27:46.045Z</time></trkpt><trkpt lat="42.3200773" lon="-7.6097686"><ele>1042.0</ele><time>2026-04-25T08:27:47.045Z</time></trkpt><trkpt lat="42.319989" lon="-7.6095852"><ele>1042.0</ele><time>2026-04-25T08:27:48.036Z</time></trkpt><trkpt lat="42.3199102" lon="-7.6094035"><ele>1042.25</ele><time>2026-04-25T08:27:49.043Z</time></trkpt><trkpt lat="42.3198396" lon="-7.6092327"><ele>1042.5</ele><time>2026-04-25T08:27:50.04Z</time></trkpt><trkpt lat="42.319777" lon="-7.6090787"><ele>1042.75</ele><time>2026-04-25T08:27:51.042Z</time></trkpt><trkpt lat="42.3197232" lon="-7.6089448"><ele>1043.0</ele><time>2026-04-25T08:27:52.039Z</time></trkpt><trkpt lat="42.3196792" lon="-7.6088333"><ele>1043.0</ele><time>2026-04-25T08:27:53.038Z</time></trkpt><trkpt lat="42.3196504" lon="-7.6087398"><ele>1043.0</ele><time>2026-04-25T08:27:54.032Z</time></trkpt><trkpt lat="42.319651" lon="-7.6085863"><ele>1043.0</ele><time>2026-04-25T08:27:56.036Z</time></trkpt><trkpt lat="42.3196866" lon="-7.6084846"><ele>1043.0</ele><time>2026-04-25T08:27:58.051Z</time></trkpt><trkpt lat="42.3197318" lon="-7.6084072"><ele>1043.0</ele><time>2026-04-25T08:28:40.044Z</time></trkpt><trkpt lat="42.3198153" lon="-7.6083687"><ele>1043.0</ele><time>2026-04-25T08:28:42.045Z</time></trkpt><trkpt lat="42.3199571" lon="-7.6084242"><ele>1044.5</ele><time>2026-04-25T08:28:44.036Z</time></trkpt><trkpt lat="42.3200523" lon="-7.6084902"><ele>1046.0</ele><time>2026-04-25T08:28:45.04Z</time></trkpt><trkpt lat="42.3201683" lon="-7.6085675"><ele>1047.5</ele><time>2026-04-25T08:28:46.039Z</time></trkpt><trkpt lat="42.3202834" lon="-7.6086458"><ele>1049.0</ele><time>2026-04-25T08:28:47.036Z</time></trkpt><trkpt lat="42.3203902" lon="-7.6087172"><ele>1049.0</ele><time>2026-04-25T08:28:48.035Z</time></trkpt><trkpt lat="42.3204952" lon="-7.6087853"><ele>1049.0</ele><time>2026-04-25T08:28:49.039Z</time></trkpt><trkpt lat="42.3206084" lon="-7.6088549"><ele>1049.0</ele><time>2026-04-25T08:28:50.037Z</time></trkpt><trkpt lat="42.3207194" lon="-7.6089245"><ele>1049.0</ele><time>2026-04-25T08:28:51.042Z</time></trkpt><trkpt lat="42.3208171" lon="-7.6089897"><ele>1052.0</ele><time>2026-04-25T08:28:52.044Z</time></trkpt><trkpt lat="42.3209132" lon="-7.6090641"><ele>1055.0</ele><time>2026-04-25T08:28:53.036Z</time></trkpt><trkpt lat="42.3210089" lon="-7.6091535"><ele>1058.0</ele><time>2026-04-25T08:28:54.043Z</time></trkpt><trkpt lat="42.3210955" lon="-7.6092656"><ele>1061.0</ele><time>2026-04-25T08:28:55.038Z</time></trkpt><trkpt lat="42.3211732" lon="-7.6093987"><ele>1059.75</ele><time>2026-04-25T08:28:56.034Z</time></trkpt><trkpt lat="42.3212444" lon="-7.6095311"><ele>1058.5</ele><time>2026-04-25T08:28:57.039Z</time></trkpt><trkpt lat="42.3213061" lon="-7.6096523"><ele>1057.25</ele><time>2026-04-25T08:28:58.041Z</time></trkpt><trkpt lat="42.3213706" lon="-7.609772"><ele>1056.0</ele><time>2026-04-25T08:28:59.04Z</time></trkpt><trkpt lat="42.3214354" lon="-7.6098991"><ele>1059.2</ele><time>2026-04-25T08:29:00.042Z</time></trkpt><trkpt lat="42.321497" lon="-7.6100265"><ele>1062.3999999999999</ele><time>2026-04-25T08:29:01.038Z</time></trkpt><trkpt lat="42.3215545" lon="-7.6101261"><ele>1065.6</ele><time>2026-04-25T08:29:02.039Z</time></trkpt><trkpt lat="42.3216088" lon="-7.6102164"><ele>1068.8</ele><time>2026-04-25T08:29:03.036Z</time></trkpt><trkpt lat="42.3216606" lon="-7.6103071"><ele>1072.0</ele><time>2026-04-25T08:29:04.04Z</time></trkpt><trkpt lat="42.3217103" lon="-7.6103846"><ele>1072.0</ele><time>2026-04-25T08:29:05.036Z</time></trkpt><trkpt lat="42.3217608" lon="-7.610515"><ele>1072.0</ele><time>2026-04-25T08:29:07.043Z</time></trkpt><trkpt lat="42.3217846" lon="-7.6106571"><ele>1072.0</ele><time>2026-04-25T08:29:09.048Z</time></trkpt><trkpt lat="42.3218069" lon="-7.6107774"><ele>1072.0</ele><time>2026-04-25T08:29:10.042Z</time></trkpt><trkpt lat="42.3218215" lon="-7.6109014"><ele>1072.0</ele><time>2026-04-25T08:29:11.033Z</time></trkpt><trkpt lat="42.321846" lon="-7.611012"><ele>1072.0</ele><time>2026-04-25T08:29:12.039Z</time></trkpt><trkpt lat="42.3218844" lon="-7.6111115"><ele>1072.0</ele><time>2026-04-25T08:29:13.033Z</time></trkpt><trkpt lat="42.3219478" lon="-7.6112202"><ele>1072.0</ele><time>2026-04-25T08:29:14.052Z</time></trkpt><trkpt lat="42.3220282" lon="-7.6113512"><ele>1072.0</ele><time>2026-04-25T08:29:15.036Z</time></trkpt><trkpt lat="42.3221035" lon="-7.6114619"><ele>1072.0</ele><time>2026-04-25T08:29:16.042Z</time></trkpt><trkpt lat="42.3221705" lon="-7.6115759"><ele>1073.0</ele><time>2026-04-25T08:29:17.034Z</time></trkpt><trkpt lat="42.3222348" lon="-7.6116778"><ele>1074.0</ele><time>2026-04-25T08:29:18.042Z</time></trkpt><trkpt lat="42.3222959" lon="-7.611757"><ele>1075.0</ele><time>2026-04-25T08:29:19.035Z</time></trkpt><trkpt lat="42.3223555" lon="-7.611824"><ele>1076.0</ele><time>2026-04-25T08:29:20.038Z</time></trkpt><trkpt lat="42.3224066" lon="-7.611876"><ele>1077.0</ele><time>2026-04-25T08:29:21.034Z</time></trkpt><trkpt lat="42.3225058" lon="-7.6119757"><ele>1078.0</ele><time>2026-04-25T08:29:23.042Z</time></trkpt><trkpt lat="42.3225688" lon="-7.6120276"><ele>1076.8333333333333</ele><time>2026-04-25T08:29:24.038Z</time></trkpt><trkpt lat="42.3226336" lon="-7.6120601"><ele>1075.6666666666665</ele><time>2026-04-25T08:29:25.036Z</time></trkpt><trkpt lat="42.3227183" lon="-7.6120811"><ele>1074.5</ele><time>2026-04-25T08:29:26.041Z</time></trkpt><trkpt lat="42.3227979" lon="-7.6120899"><ele>1073.3333333333333</ele><time>2026-04-25T08:29:27.037Z</time></trkpt><trkpt lat="42.3228753" lon="-7.612103"><ele>1072.1666666666667</ele><time>2026-04-25T08:29:28.047Z</time></trkpt><trkpt lat="42.3229665" lon="-7.6121276"><ele>1071.0</ele><time>2026-04-25T08:29:29.037Z</time></trkpt><trkpt lat="42.3230777" lon="-7.6121649"><ele>1071.0</ele><time>2026-04-25T08:29:30.034Z</time></trkpt><trkpt lat="42.3231887" lon="-7.6121995"><ele>1071.0</ele><time>2026-04-25T08:29:31.045Z</time></trkpt><trkpt lat="42.3233042" lon="-7.6122352"><ele>1071.0</ele><time>2026-04-25T08:29:32.047Z</time></trkpt><trkpt lat="42.3234066" lon="-7.6122662"><ele>1071.0</ele><time>2026-04-25T08:29:33.037Z</time></trkpt><trkpt lat="42.3235167" lon="-7.6123009"><ele>1071.0</ele><time>2026-04-25T08:29:34.035Z</time></trkpt><trkpt lat="42.3236354" lon="-7.612339"><ele>1071.0</ele><time>2026-04-25T08:29:35.034Z</time></trkpt><trkpt lat="42.3237441" lon="-7.6123742"><ele>1071.0</ele><time>2026-04-25T08:29:36.033Z</time></trkpt><trkpt lat="42.3238387" lon="-7.6124071"><ele>1071.0</ele><time>2026-04-25T08:29:37.038Z</time></trkpt><trkpt lat="42.3239289" lon="-7.6124338"><ele>1071.0</ele><time>2026-04-25T08:29:38.045Z</time></trkpt><trkpt lat="42.3240292" lon="-7.6124603"><ele>1071.8</ele><time>2026-04-25T08:29:39.035Z</time></trkpt><trkpt lat="42.3241302" lon="-7.6124751"><ele>1072.6</ele><time>2026-04-25T08:29:40.049Z</time></trkpt><trkpt lat="42.3242357" lon="-7.6124666"><ele>1073.4</ele><time>2026-04-25T08:29:41.036Z</time></trkpt><trkpt lat="42.3243503" lon="-7.6124483"><ele>1074.2</ele><time>2026-04-25T08:29:42.048Z</time></trkpt><trkpt lat="42.3244665" lon="-7.612423"><ele>1075.0</ele><time>2026-04-25T08:29:43.046Z</time></trkpt><trkpt lat="42.3245784" lon="-7.6124006"><ele>1075.0</ele><time>2026-04-25T08:29:44.048Z</time></trkpt><trkpt lat="42.3246865" lon="-7.6123768"><ele>1075.0</ele><time>2026-04-25T08:29:45.043Z</time></trkpt><trkpt lat="42.3247963" lon="-7.61236"><ele>1075.0</ele><time>2026-04-25T08:29:46.057Z</time></trkpt><trkpt lat="42.3249092" lon="-7.6123484"><ele>1075.0</ele><time>2026-04-25T08:29:47.031Z</time></trkpt><trkpt lat="42.3250291" lon="-7.6123384"><ele>1076.25</ele><time>2026-04-25T08:29:48.04Z</time></trkpt><trkpt lat="42.3251573" lon="-7.6123321"><ele>1077.5</ele><time>2026-04-25T08:29:49.04Z</time></trkpt><trkpt lat="42.3252779" lon="-7.6123279"><ele>1078.75</ele><time>2026-04-25T08:29:50.035Z</time></trkpt><trkpt lat="42.3253868" lon="-7.61232"><ele>1080.0</ele><time>2026-04-25T08:29:51.037Z</time></trkpt><trkpt lat="42.3254925" lon="-7.6123118"><ele>1081.6</ele><time>2026-04-25T08:29:52.036Z</time></trkpt><trkpt lat="42.3255884" lon="-7.6123093"><ele>1083.2</ele><time>2026-04-25T08:29:53.036Z</time></trkpt><trkpt lat="42.3256883" lon="-7.6123254"><ele>1084.8</ele><time>2026-04-25T08:29:54.04Z</time></trkpt><trkpt lat="42.3257959" lon="-7.612353"><ele>1086.4</ele><time>2026-04-25T08:29:55.043Z</time></trkpt><trkpt lat="42.3259024" lon="-7.6123827"><ele>1088.0</ele><time>2026-04-25T08:29:56.036Z</time></trkpt><trkpt lat="42.3259947" lon="-7.6124108"><ele>1088.0</ele><time>2026-04-25T08:29:57.053Z</time></trkpt><trkpt lat="42.3260757" lon="-7.6124371"><ele>1088.0</ele><time>2026-04-25T08:29:58.039Z</time></trkpt><trkpt lat="42.326159" lon="-7.6124641"><ele>1088.0</ele><time>2026-04-25T08:29:59.049Z</time></trkpt><trkpt lat="42.32625" lon="-7.6124991"><ele>1088.0</ele><time>2026-04-25T08:30:00.044Z</time></trkpt><trkpt lat="42.3263434" lon="-7.6125399"><ele>1088.0</ele><time>2026-04-25T08:30:01.04Z</time></trkpt><trkpt lat="42.3264183" lon="-7.6125785"><ele>1088.0</ele><time>2026-04-25T08:30:02.045Z</time></trkpt><trkpt lat="42.3264781" lon="-7.6126141"><ele>1087.4</ele><time>2026-04-25T08:30:03.041Z</time></trkpt><trkpt lat="42.3265985" lon="-7.6126944"><ele>1086.8</ele><time>2026-04-25T08:30:05.043Z</time></trkpt><trkpt lat="42.3266792" lon="-7.6127516"><ele>1086.2</ele><time>2026-04-25T08:30:06.036Z</time></trkpt><trkpt lat="42.326763" lon="-7.6128092"><ele>1085.6</ele><time>2026-04-25T08:30:07.043Z</time></trkpt><trkpt lat="42.3268338" lon="-7.6128467"><ele>1085.0</ele><time>2026-04-25T08:30:08.044Z</time></trkpt><trkpt lat="42.3269089" lon="-7.6128783"><ele>1085.0</ele><time>2026-04-25T08:30:09.056Z</time></trkpt><trkpt lat="42.3269914" lon="-7.6129126"><ele>1085.0</ele><time>2026-04-25T08:30:10.043Z</time></trkpt><trkpt lat="42.3270655" lon="-7.6129461"><ele>1085.0</ele><time>2026-04-25T08:30:11.039Z</time></trkpt><trkpt lat="42.3271447" lon="-7.6129807"><ele>1085.0</ele><time>2026-04-25T08:30:12.042Z</time></trkpt><trkpt lat="42.3272224" lon="-7.6130115"><ele>1085.0</ele><time>2026-04-25T08:30:13.044Z</time></trkpt><trkpt lat="42.3272865" lon="-7.6130359"><ele>1085.0</ele><time>2026-04-25T08:30:14.042Z</time></trkpt><trkpt lat="42.3274021" lon="-7.6130655"><ele>1086.4</ele><time>2026-04-25T08:30:16.043Z</time></trkpt><trkpt lat="42.3275112" lon="-7.6130654"><ele>1087.8</ele><time>2026-04-25T08:30:18.061Z</time></trkpt><trkpt lat="42.3276013" lon="-7.6130668"><ele>1089.2</ele><time>2026-04-25T08:30:20.042Z</time></trkpt><trkpt lat="42.3277118" lon="-7.6130684"><ele>1090.6</ele><time>2026-04-25T08:30:22.044Z</time></trkpt><trkpt lat="42.3278345" lon="-7.6130803"><ele>1092.0</ele><time>2026-04-25T08:30:24.041Z</time></trkpt><trkpt lat="42.3278976" lon="-7.6130925"><ele>1092.0</ele><time>2026-04-25T08:30:25.033Z</time></trkpt><trkpt lat="42.3279634" lon="-7.6131409"><ele>1092.0</ele><time>2026-04-25T08:30:26.036Z</time></trkpt><trkpt lat="42.3280177" lon="-7.613192"><ele>1092.0</ele><time>2026-04-25T08:30:27.052Z</time></trkpt><trkpt lat="42.3280705" lon="-7.6132502"><ele>1092.0</ele><time>2026-04-25T08:30:28.04Z</time></trkpt><trkpt lat="42.3281268" lon="-7.6133124"><ele>1092.0</ele><time>2026-04-25T08:30:29.034Z</time></trkpt><trkpt lat="42.3281872" lon="-7.6133907"><ele>1092.0</ele><time>2026-04-25T08:30:30.035Z</time></trkpt><trkpt lat="42.3282522" lon="-7.6134604"><ele>1092.0</ele><time>2026-04-25T08:30:31.039Z</time></trkpt><trkpt lat="42.3283141" lon="-7.6135138"><ele>1091.3333333333333</ele><time>2026-04-25T08:30:32.041Z</time></trkpt><trkpt lat="42.3283739" lon="-7.6135575"><ele>1090.6666666666667</ele><time>2026-04-25T08:30:33.048Z</time></trkpt><trkpt lat="42.3284887" lon="-7.6136418"><ele>1090.0</ele><time>2026-04-25T08:30:35.033Z</time></trkpt><trkpt lat="42.3285442" lon="-7.6136859"><ele>1089.3333333333335</ele><time>2026-04-25T08:30:36.037Z</time></trkpt><trkpt lat="42.3286464" lon="-7.6137641"><ele>1088.6666666666667</ele><time>2026-04-25T08:30:38.048Z</time></trkpt><trkpt lat="42.3287059" lon="-7.6138054"><ele>1088.0</ele><time>2026-04-25T08:30:39.036Z</time></trkpt><trkpt lat="42.3288171" lon="-7.613866"><ele>1088.0</ele><time>2026-04-25T08:30:41.036Z</time></trkpt><trkpt lat="42.3288914" lon="-7.6139002"><ele>1088.0</ele><time>2026-04-25T08:30:42.034Z</time></trkpt><trkpt lat="42.3289816" lon="-7.6139393"><ele>1088.0</ele><time>2026-04-25T08:30:43.036Z</time></trkpt><trkpt lat="42.3290719" lon="-7.6139813"><ele>1088.0</ele><time>2026-04-25T08:30:44.04Z</time></trkpt><trkpt lat="42.3291469" lon="-7.6140143"><ele>1088.0</ele><time>2026-04-25T08:30:45.034Z</time></trkpt><trkpt lat="42.3292151" lon="-7.6140378"><ele>1088.0</ele><time>2026-04-25T08:30:46.045Z</time></trkpt><trkpt lat="42.3292899" lon="-7.6140532"><ele>1089.3333333333335</ele><time>2026-04-25T08:30:47.032Z</time></trkpt><trkpt lat="42.3293706" lon="-7.6140571"><ele>1090.6666666666667</ele><time>2026-04-25T08:30:48.034Z</time></trkpt><trkpt lat="42.3294541" lon="-7.6140566"><ele>1092.0</ele><time>2026-04-25T08:30:49.037Z</time></trkpt><trkpt lat="42.3295237" lon="-7.6140681"><ele>1093.3333333333333</ele><time>2026-04-25T08:30:50.035Z</time></trkpt><trkpt lat="42.3295914" lon="-7.6140953"><ele>1094.6666666666665</ele><time>2026-04-25T08:30:51.042Z</time></trkpt><trkpt lat="42.3296686" lon="-7.6141278"><ele>1096.0</ele><time>2026-04-25T08:30:52.039Z</time></trkpt><trkpt lat="42.3297504" lon="-7.614181"><ele>1095.6666666666665</ele><time>2026-04-25T08:30:53.033Z</time></trkpt><trkpt lat="42.329822" lon="-7.6142334"><ele>1095.3333333333333</ele><time>2026-04-25T08:30:54.034Z</time></trkpt><trkpt lat="42.329894" lon="-7.6142938"><ele>1095.0</ele><time>2026-04-25T08:30:55.039Z</time></trkpt><trkpt lat="42.3299567" lon="-7.6143582"><ele>1094.6666666666667</ele><time>2026-04-25T08:30:56.044Z</time></trkpt><trkpt lat="42.3300204" lon="-7.6144286"><ele>1094.3333333333335</ele><time>2026-04-25T08:30:57.036Z</time></trkpt><trkpt lat="42.3300769" lon="-7.614494"><ele>1094.0</ele><time>2026-04-25T08:30:58.037Z</time></trkpt><trkpt lat="42.3301243" lon="-7.6145664"><ele>1094.0</ele><time>2026-04-25T08:30:59.032Z</time></trkpt><trkpt lat="42.3301737" lon="-7.6146404"><ele>1094.0</ele><time>2026-04-25T08:31:00.034Z</time></trkpt><trkpt lat="42.3302275" lon="-7.6147274"><ele>1094.0</ele><time>2026-04-25T08:31:01.041Z</time></trkpt><trkpt lat="42.3302942" lon="-7.614822"><ele>1094.0</ele><time>2026-04-25T08:31:02.032Z</time></trkpt><trkpt lat="42.3303644" lon="-7.6149073"><ele>1094.0</ele><time>2026-04-25T08:31:03.037Z</time></trkpt><trkpt lat="42.3304295" lon="-7.6149893"><ele>1094.0</ele><time>2026-04-25T08:31:04.033Z</time></trkpt><trkpt lat="42.3304955" lon="-7.6150701"><ele>1094.0</ele><time>2026-04-25T08:31:05.034Z</time></trkpt><trkpt lat="42.3305519" lon="-7.6151535"><ele>1094.0</ele><time>2026-04-25T08:31:06.036Z</time></trkpt><trkpt lat="42.3306052" lon="-7.615244"><ele>1094.0</ele><time>2026-04-25T08:31:07.033Z</time></trkpt><trkpt lat="42.3306564" lon="-7.6153386"><ele>1094.0</ele><time>2026-04-25T08:31:08.039Z</time></trkpt><trkpt lat="42.3307113" lon="-7.6154425"><ele>1094.0</ele><time>2026-04-25T08:31:09.036Z</time></trkpt><trkpt lat="42.3307604" lon="-7.6155413"><ele>1094.0</ele><time>2026-04-25T08:31:10.033Z</time></trkpt><trkpt lat="42.3308118" lon="-7.6156243"><ele>1093.1666666666667</ele><time>2026-04-25T08:31:11.036Z</time></trkpt><trkpt lat="42.3308645" lon="-7.6156945"><ele>1092.3333333333335</ele><time>2026-04-25T08:31:12.04Z</time></trkpt><trkpt lat="42.3309187" lon="-7.61577"><ele>1091.5</ele><time>2026-04-25T08:31:13.034Z</time></trkpt><trkpt lat="42.330985" lon="-7.6158183"><ele>1090.6666666666667</ele><time>2026-04-25T08:31:14.046Z</time></trkpt><trkpt lat="42.3310494" lon="-7.6158641"><ele>1089.8333333333333</ele><time>2026-04-25T08:31:15.043Z</time></trkpt><trkpt lat="42.331121" lon="-7.6158902"><ele>1089.0</ele><time>2026-04-25T08:31:16.03Z</time></trkpt><trkpt lat="42.3312049" lon="-7.6159064"><ele>1089.0</ele><time>2026-04-25T08:31:17.034Z</time></trkpt><trkpt lat="42.3312828" lon="-7.6159014"><ele>1089.0</ele><time>2026-04-25T08:31:18.045Z</time></trkpt><trkpt lat="42.3313671" lon="-7.6158964"><ele>1089.0</ele><time>2026-04-25T08:31:19.04Z</time></trkpt><trkpt lat="42.331451" lon="-7.6159006"><ele>1089.0</ele><time>2026-04-25T08:31:20.042Z</time></trkpt><trkpt lat="42.3315308" lon="-7.615931"><ele>1089.0</ele><time>2026-04-25T08:31:21.037Z</time></trkpt><trkpt lat="42.3316157" lon="-7.6159784"><ele>1089.0</ele><time>2026-04-25T08:31:22.036Z</time></trkpt><trkpt lat="42.3317086" lon="-7.6160325"><ele>1090.2</ele><time>2026-04-25T08:31:23.034Z</time></trkpt><trkpt lat="42.3317913" lon="-7.6160667"><ele>1091.4</ele><time>2026-04-25T08:31:24.038Z</time></trkpt><trkpt lat="42.3318677" lon="-7.616087"><ele>1092.6</ele><time>2026-04-25T08:31:25.038Z</time></trkpt><trkpt lat="42.3319586" lon="-7.6161043"><ele>1093.8</ele><time>2026-04-25T08:31:26.041Z</time></trkpt><trkpt lat="42.3320641" lon="-7.6161249"><ele>1095.0</ele><time>2026-04-25T08:31:27.034Z</time></trkpt><trkpt lat="42.3321625" lon="-7.6161379"><ele>1096.0</ele><time>2026-04-25T08:31:28.036Z</time></trkpt><trkpt lat="42.3322653" lon="-7.6161489"><ele>1097.0</ele><time>2026-04-25T08:31:29.028Z</time></trkpt><trkpt lat="42.3323726" lon="-7.6161563"><ele>1098.0</ele><time>2026-04-25T08:31:30.032Z</time></trkpt><trkpt lat="42.3324757" lon="-7.6161508"><ele>1099.0</ele><time>2026-04-25T08:31:31.033Z</time></trkpt><trkpt lat="42.3325817" lon="-7.6161349"><ele>1100.0</ele><time>2026-04-25T08:31:32.032Z</time></trkpt><trkpt lat="42.3326798" lon="-7.6161205"><ele>1100.0</ele><time>2026-04-25T08:31:33.029Z</time></trkpt><trkpt lat="42.3327855" lon="-7.6161112"><ele>1100.0</ele><time>2026-04-25T08:31:34.046Z</time></trkpt><trkpt lat="42.3328937" lon="-7.616109"><ele>1100.0</ele><time>2026-04-25T08:31:35.031Z</time></trkpt><trkpt lat="42.3329875" lon="-7.6161088"><ele>1100.0</ele><time>2026-04-25T08:31:36.041Z</time></trkpt><trkpt lat="42.3330648" lon="-7.6161219"><ele>1100.0</ele><time>2026-04-25T08:31:37.034Z</time></trkpt><trkpt lat="42.3331377" lon="-7.616126"><ele>1099.8333333333335</ele><time>2026-04-25T08:31:38.033Z</time></trkpt><trkpt lat="42.333214" lon="-7.6161272"><ele>1099.6666666666667</ele><time>2026-04-25T08:31:39.038Z</time></trkpt><trkpt lat="42.3332797" lon="-7.6161135"><ele>1099.5</ele><time>2026-04-25T08:31:40.034Z</time></trkpt><trkpt lat="42.3333501" lon="-7.6160933"><ele>1099.3333333333333</ele><time>2026-04-25T08:31:41.041Z</time></trkpt><trkpt lat="42.333413" lon="-7.61607"><ele>1099.1666666666665</ele><time>2026-04-25T08:31:42.043Z</time></trkpt><trkpt lat="42.3335223" lon="-7.6160317"><ele>1099.0</ele><time>2026-04-25T08:31:44.032Z</time></trkpt><trkpt lat="42.3336016" lon="-7.6160523"><ele>1097.6000000000001</ele><time>2026-04-25T08:31:46.037Z</time></trkpt><trkpt lat="42.3336562" lon="-7.6161906"><ele>1096.2</ele><time>2026-04-25T08:31:48.041Z</time></trkpt><trkpt lat="42.3336905" lon="-7.6162788"><ele>1094.8000000000002</ele><time>2026-04-25T08:31:49.036Z</time></trkpt><trkpt lat="42.3337305" lon="-7.6163826"><ele>1093.4</ele><time>2026-04-25T08:31:50.038Z</time></trkpt><trkpt lat="42.3337635" lon="-7.6165018"><ele>1092.0</ele><time>2026-04-25T08:31:51.034Z</time></trkpt><trkpt lat="42.3337841" lon="-7.6166181"><ele>1092.0</ele><time>2026-04-25T08:31:52.037Z</time></trkpt><trkpt lat="42.333804" lon="-7.6167443"><ele>1092.0</ele><time>2026-04-25T08:31:53.035Z</time></trkpt><trkpt lat="42.3338206" lon="-7.6168607"><ele>1092.0</ele><time>2026-04-25T08:31:54.034Z</time></trkpt><trkpt lat="42.3338353" lon="-7.6169624"><ele>1092.0</ele><time>2026-04-25T08:31:55.029Z</time></trkpt><trkpt lat="42.3338488" lon="-7.6170534"><ele>1092.0</ele><time>2026-04-25T08:31:56.033Z</time></trkpt><trkpt lat="42.3338892" lon="-7.617196"><ele>1092.0</ele><time>2026-04-25T08:31:58.032Z</time></trkpt><trkpt lat="42.3339867" lon="-7.617251"><ele>1093.1666666666667</ele><time>2026-04-25T08:32:00.032Z</time></trkpt><trkpt lat="42.3340668" lon="-7.6172528"><ele>1094.3333333333333</ele><time>2026-04-25T08:32:01.036Z</time></trkpt><trkpt lat="42.3341532" lon="-7.6172447"><ele>1095.5</ele><time>2026-04-25T08:32:02.036Z</time></trkpt><trkpt lat="42.3342383" lon="-7.6172203"><ele>1096.6666666666665</ele><time>2026-04-25T08:32:03.037Z</time></trkpt><trkpt lat="42.3343158" lon="-7.6171849"><ele>1097.8333333333333</ele><time>2026-04-25T08:32:04.037Z</time></trkpt><trkpt lat="42.3343848" lon="-7.6171586"><ele>1099.0</ele><time>2026-04-25T08:32:05.043Z</time></trkpt><trkpt lat="42.3344516" lon="-7.6171686"><ele>1099.0</ele><time>2026-04-25T08:32:06.039Z</time></trkpt><trkpt lat="42.3345312" lon="-7.6172013"><ele>1099.0</ele><time>2026-04-25T08:32:07.035Z</time></trkpt><trkpt lat="42.3346266" lon="-7.6172487"><ele>1099.0</ele><time>2026-04-25T08:32:08.051Z</time></trkpt><trkpt lat="42.334739" lon="-7.6173037"><ele>1099.0</ele><time>2026-04-25T08:32:09.043Z</time></trkpt><trkpt lat="42.3348629" lon="-7.6173545"><ele>1099.0</ele><time>2026-04-25T08:32:10.036Z</time></trkpt><trkpt lat="42.3349672" lon="-7.6173979"><ele>1100.6000000000001</ele><time>2026-04-25T08:32:11.036Z</time></trkpt><trkpt lat="42.3350627" lon="-7.6174319"><ele>1102.2</ele><time>2026-04-25T08:32:12.037Z</time></trkpt><trkpt lat="42.3351627" lon="-7.6174517"><ele>1103.8000000000002</ele><time>2026-04-25T08:32:13.035Z</time></trkpt><trkpt lat="42.3352563" lon="-7.6174555"><ele>1105.4</ele><time>2026-04-25T08:32:14.045Z</time></trkpt><trkpt lat="42.3353464" lon="-7.6174565"><ele>1107.0</ele><time>2026-04-25T08:32:15.042Z</time></trkpt><trkpt lat="42.3354277" lon="-7.6174745"><ele>1107.0</ele><time>2026-04-25T08:32:16.034Z</time></trkpt><trkpt lat="42.3355127" lon="-7.6174959"><ele>1107.0</ele><time>2026-04-25T08:32:17.041Z</time></trkpt><trkpt lat="42.3356024" lon="-7.6175617"><ele>1107.0</ele><time>2026-04-25T08:32:18.037Z</time></trkpt><trkpt lat="42.3356872" lon="-7.6176132"><ele>1107.0</ele><time>2026-04-25T08:32:19.04Z</time></trkpt><trkpt lat="42.3357649" lon="-7.6176443"><ele>1107.0</ele><time>2026-04-25T08:32:20.037Z</time></trkpt><trkpt lat="42.3358454" lon="-7.6176541"><ele>1107.0</ele><time>2026-04-25T08:32:21.035Z</time></trkpt><trkpt lat="42.3359399" lon="-7.6176448"><ele>1107.4</ele><time>2026-04-25T08:32:22.034Z</time></trkpt><trkpt lat="42.336048" lon="-7.6176292"><ele>1107.8000000000002</ele><time>2026-04-25T08:32:23.035Z</time></trkpt><trkpt lat="42.3361395" lon="-7.6176202"><ele>1108.2</ele><time>2026-04-25T08:32:24.04Z</time></trkpt><trkpt lat="42.3362173" lon="-7.6176333"><ele>1108.6000000000001</ele><time>2026-04-25T08:32:25.035Z</time></trkpt><trkpt lat="42.3362941" lon="-7.6176749"><ele>1109.0</ele><time>2026-04-25T08:32:26.037Z</time></trkpt><trkpt lat="42.3363829" lon="-7.6177253"><ele>1110.4</ele><time>2026-04-25T08:32:27.038Z</time></trkpt><trkpt lat="42.3364801" lon="-7.6177953"><ele>1111.8000000000002</ele><time>2026-04-25T08:32:28.035Z</time></trkpt><trkpt lat="42.3365611" lon="-7.617848"><ele>1113.1999999999998</ele><time>2026-04-25T08:32:29.05Z</time></trkpt><trkpt lat="42.3366266" lon="-7.6178752"><ele>1114.6</ele><time>2026-04-25T08:32:30.038Z</time></trkpt><trkpt lat="42.3367451" lon="-7.617856"><ele>1116.0</ele><time>2026-04-25T08:32:32.038Z</time></trkpt><trkpt lat="42.3368176" lon="-7.6178275"><ele>1116.0</ele><time>2026-04-25T08:32:33.031Z</time></trkpt><trkpt lat="42.3368785" lon="-7.6177913"><ele>1116.0</ele><time>2026-04-25T08:32:34.036Z</time></trkpt><trkpt lat="42.3369675" lon="-7.6176711"><ele>1116.0</ele><time>2026-04-25T08:32:36.033Z</time></trkpt><trkpt lat="42.3370141" lon="-7.6175811"><ele>1116.0</ele><time>2026-04-25T08:32:37.035Z</time></trkpt><trkpt lat="42.3370693" lon="-7.6174726"><ele>1116.0</ele><time>2026-04-25T08:32:38.041Z</time></trkpt><trkpt lat="42.3371151" lon="-7.6173752"><ele>1116.0</ele><time>2026-04-25T08:32:39.035Z</time></trkpt><trkpt lat="42.3371579" lon="-7.6172963"><ele>1116.0</ele><time>2026-04-25T08:32:40.033Z</time></trkpt><trkpt lat="42.337202" lon="-7.617216"><ele>1116.0</ele><time>2026-04-25T08:32:41.038Z</time></trkpt><trkpt lat="42.3372565" lon="-7.6171127"><ele>1116.0</ele><time>2026-04-25T08:32:42.037Z</time></trkpt><trkpt lat="42.337312" lon="-7.6170122"><ele>1116.0</ele><time>2026-04-25T08:32:43.037Z</time></trkpt><trkpt lat="42.3373616" lon="-7.616907"><ele>1116.0</ele><time>2026-04-25T08:32:44.041Z</time></trkpt><trkpt lat="42.3373992" lon="-7.6167897"><ele>1117.8</ele><time>2026-04-25T08:32:45.036Z</time></trkpt><trkpt lat="42.3374305" lon="-7.616659"><ele>1119.6</ele><time>2026-04-25T08:32:46.047Z</time></trkpt><trkpt lat="42.3374621" lon="-7.6165287"><ele>1121.4</ele><time>2026-04-25T08:32:47.035Z</time></trkpt><trkpt lat="42.3374894" lon="-7.6164126"><ele>1123.2</ele><time>2026-04-25T08:32:48.046Z</time></trkpt><trkpt lat="42.3375266" lon="-7.6162991"><ele>1125.0</ele><time>2026-04-25T08:32:49.033Z</time></trkpt><trkpt lat="42.3375711" lon="-7.6161928"><ele>1127.0</ele><time>2026-04-25T08:32:50.045Z</time></trkpt><trkpt lat="42.3376177" lon="-7.6160739"><ele>1129.0</ele><time>2026-04-25T08:32:51.032Z</time></trkpt><trkpt lat="42.3376558" lon="-7.6159373"><ele>1131.0</ele><time>2026-04-25T08:32:52.038Z</time></trkpt><trkpt lat="42.3376881" lon="-7.6157988"><ele>1133.0</ele><time>2026-04-25T08:32:53.038Z</time></trkpt><trkpt lat="42.3377125" lon="-7.6156822"><ele>1135.0</ele><time>2026-04-25T08:32:54.035Z</time></trkpt><trkpt lat="42.3377261" lon="-7.6155687"><ele>1135.0</ele><time>2026-04-25T08:32:55.05Z</time></trkpt><trkpt lat="42.3377331" lon="-7.6154535"><ele>1135.0</ele><time>2026-04-25T08:32:56.039Z</time></trkpt><trkpt lat="42.3377377" lon="-7.6153408"><ele>1135.0</ele><time>2026-04-25T08:32:57.04Z</time></trkpt><trkpt lat="42.3377396" lon="-7.6152282"><ele>1135.0</ele><time>2026-04-25T08:32:58.037Z</time></trkpt><trkpt lat="42.337743" lon="-7.6151185"><ele>1135.0</ele><time>2026-04-25T08:32:59.034Z</time></trkpt><trkpt lat="42.3377483" lon="-7.6150024"><ele>1135.0</ele><time>2026-04-25T08:33:00.036Z</time></trkpt><trkpt lat="42.337743" lon="-7.6148869"><ele>1137.0</ele><time>2026-04-25T08:33:01.034Z</time></trkpt><trkpt lat="42.3377238" lon="-7.6147806"><ele>1139.0</ele><time>2026-04-25T08:33:02.043Z</time></trkpt><trkpt lat="42.3376867" lon="-7.6146776"><ele>1141.0</ele><time>2026-04-25T08:33:03.043Z</time></trkpt><trkpt lat="42.3376519" lon="-7.6145819"><ele>1143.0</ele><time>2026-04-25T08:33:04.035Z</time></trkpt><trkpt lat="42.3375863" lon="-7.6144715"><ele>1145.0</ele><time>2026-04-25T08:33:06.043Z</time></trkpt><trkpt lat="42.3375643" lon="-7.6143817"><ele>1147.0</ele><time>2026-04-25T08:33:09.043Z</time></trkpt><trkpt lat="42.3376291" lon="-7.6144112"><ele>1147.0</ele><time>2026-04-25T08:33:40.037Z</time></trkpt><trkpt lat="42.337725" lon="-7.6144868"><ele>1147.0</ele><time>2026-04-25T08:33:42.037Z</time></trkpt><trkpt lat="42.3378004" lon="-7.6145374"><ele>1147.0</ele><time>2026-04-25T08:33:43.035Z</time></trkpt><trkpt lat="42.3378948" lon="-7.6145826"><ele>1147.0</ele><time>2026-04-25T08:33:44.032Z</time></trkpt><trkpt lat="42.3379998" lon="-7.6146062"><ele>1147.0</ele><time>2026-04-25T08:33:45.032Z</time></trkpt><trkpt lat="42.3381409" lon="-7.6146121"><ele>1147.6666666666665</ele><time>2026-04-25T08:33:46.034Z</time></trkpt><trkpt lat="42.3383107" lon="-7.6146075"><ele>1148.3333333333333</ele><time>2026-04-25T08:33:47.036Z</time></trkpt><trkpt lat="42.3384984" lon="-7.6146014"><ele>1149.0</ele><time>2026-04-25T08:33:48.039Z</time></trkpt><trkpt lat="42.3386924" lon="-7.6145978"><ele>1148.0</ele><time>2026-04-25T08:33:49.03Z</time></trkpt><trkpt lat="42.3388957" lon="-7.6145921"><ele>1147.0</ele><time>2026-04-25T08:33:50.045Z</time></trkpt><trkpt lat="42.3391009" lon="-7.6145837"><ele>1146.0</ele><time>2026-04-25T08:33:51.031Z</time></trkpt><trkpt lat="42.3392925" lon="-7.6145757"><ele>1146.0</ele><time>2026-04-25T08:33:52.032Z</time></trkpt><trkpt lat="42.3394704" lon="-7.6145732"><ele>1146.0</ele><time>2026-04-25T08:33:53.033Z</time></trkpt><trkpt lat="42.3396355" lon="-7.6145844"><ele>1146.0</ele><time>2026-04-25T08:33:54.034Z</time></trkpt><trkpt lat="42.339787" lon="-7.614614"><ele>1146.6666666666667</ele><time>2026-04-25T08:33:55.031Z</time></trkpt><trkpt lat="42.3399379" lon="-7.6146781"><ele>1147.3333333333335</ele><time>2026-04-25T08:33:56.033Z</time></trkpt><trkpt lat="42.3400985" lon="-7.6147702"><ele>1148.0</ele><time>2026-04-25T08:33:57.032Z</time></trkpt><trkpt lat="42.3402743" lon="-7.6148786"><ele>1148.0</ele><time>2026-04-25T08:33:58.032Z</time></trkpt><trkpt lat="42.3404663" lon="-7.6149916"><ele>1148.0</ele><time>2026-04-25T08:33:59.038Z</time></trkpt><trkpt lat="42.3406681" lon="-7.615096"><ele>1148.0</ele><time>2026-04-25T08:34:00.037Z</time></trkpt><trkpt lat="42.3408823" lon="-7.6151959"><ele>1151.5</ele><time>2026-04-25T08:34:01.033Z</time></trkpt><trkpt lat="42.3411071" lon="-7.6152976"><ele>1155.0</ele><time>2026-04-25T08:34:02.03Z</time></trkpt><trkpt lat="42.3413427" lon="-7.6153996"><ele>1148.5</ele><time>2026-04-25T08:34:03.03Z</time></trkpt><trkpt lat="42.3415859" lon="-7.615502"><ele>1142.0</ele><time>2026-04-25T08:34:04.039Z</time></trkpt><trkpt lat="42.3418367" lon="-7.6156082"><ele>1142.0</ele><time>2026-04-25T08:34:05.037Z</time></trkpt><trkpt lat="42.3420833" lon="-7.6157175"><ele>1142.0</ele><time>2026-04-25T08:34:06.034Z</time></trkpt><trkpt lat="42.3423146" lon="-7.6158263"><ele>1145.5</ele><time>2026-04-25T08:34:07.036Z</time></trkpt><trkpt lat="42.3425405" lon="-7.615943"><ele>1149.0</ele><time>2026-04-25T08:34:08.033Z</time></trkpt><trkpt lat="42.3427508" lon="-7.6160665"><ele>1148.0</ele><time>2026-04-25T08:34:09.039Z</time></trkpt><trkpt lat="42.342955" lon="-7.6162008"><ele>1147.0</ele><time>2026-04-25T08:34:10.047Z</time></trkpt><trkpt lat="42.3431471" lon="-7.6163323"><ele>1146.0</ele><time>2026-04-25T08:34:11.034Z</time></trkpt><trkpt lat="42.3433365" lon="-7.6164607"><ele>1146.0</ele><time>2026-04-25T08:34:12.034Z</time></trkpt><trkpt lat="42.3435157" lon="-7.616567"><ele>1146.0</ele><time>2026-04-25T08:34:13.033Z</time></trkpt><trkpt lat="42.3436874" lon="-7.6166476"><ele>1146.0</ele><time>2026-04-25T08:34:14.038Z</time></trkpt><trkpt lat="42.3438713" lon="-7.6167214"><ele>1149.3333333333333</ele><time>2026-04-25T08:34:15.036Z</time></trkpt><trkpt lat="42.3440595" lon="-7.6167888"><ele>1152.6666666666665</ele><time>2026-04-25T08:34:16.042Z</time></trkpt><trkpt lat="42.3442358" lon="-7.6168482"><ele>1156.0</ele><time>2026-04-25T08:34:17.033Z</time></trkpt><trkpt lat="42.3444075" lon="-7.6168975"><ele>1156.0</ele><time>2026-04-25T08:34:18.037Z</time></trkpt><trkpt lat="42.3445712" lon="-7.6169316"><ele>1156.0</ele><time>2026-04-25T08:34:19.034Z</time></trkpt><trkpt lat="42.3447265" lon="-7.6169429"><ele>1156.0</ele><time>2026-04-25T08:34:20.034Z</time></trkpt><trkpt lat="42.3448721" lon="-7.6169245"><ele>1157.0</ele><time>2026-04-25T08:34:21.032Z</time></trkpt><trkpt lat="42.3450275" lon="-7.6168835"><ele>1158.0</ele><time>2026-04-25T08:34:22.034Z</time></trkpt><trkpt lat="42.3451936" lon="-7.6168334"><ele>1159.0</ele><time>2026-04-25T08:34:23.038Z</time></trkpt><trkpt lat="42.3453498" lon="-7.6167928"><ele>1159.0</ele><time>2026-04-25T08:34:24.028Z</time></trkpt><trkpt lat="42.3454945" lon="-7.6167744"><ele>1159.0</ele><time>2026-04-25T08:34:25.037Z</time></trkpt><trkpt lat="42.3456295" lon="-7.6167944"><ele>1159.0</ele><time>2026-04-25T08:34:26.032Z</time></trkpt><trkpt lat="42.3457704" lon="-7.6168509"><ele>1159.0</ele><time>2026-04-25T08:34:27.029Z</time></trkpt><trkpt lat="42.3459245" lon="-7.6169322"><ele>1158.3333333333333</ele><time>2026-04-25T08:34:28.038Z</time></trkpt><trkpt lat="42.3460943" lon="-7.6170339"><ele>1157.6666666666667</ele><time>2026-04-25T08:34:29.035Z</time></trkpt><trkpt lat="42.3462794" lon="-7.6171537"><ele>1157.0</ele><time>2026-04-25T08:34:30.036Z</time></trkpt><trkpt lat="42.3464788" lon="-7.6172953"><ele>1157.0</ele><time>2026-04-25T08:34:31.033Z</time></trkpt><trkpt lat="42.346671" lon="-7.6174413"><ele>1157.0</ele><time>2026-04-25T08:34:32.036Z</time></trkpt><trkpt lat="42.3468494" lon="-7.6175823"><ele>1157.0</ele><time>2026-04-25T08:34:33.029Z</time></trkpt><trkpt lat="42.3470257" lon="-7.6177268"><ele>1154.3333333333335</ele><time>2026-04-25T08:34:34.038Z</time></trkpt><trkpt lat="42.3472058" lon="-7.6178718"><ele>1151.6666666666667</ele><time>2026-04-25T08:34:35.032Z</time></trkpt><trkpt lat="42.347394" lon="-7.6180172"><ele>1149.0</ele><time>2026-04-25T08:34:36.03Z</time></trkpt><trkpt lat="42.347593" lon="-7.6181634"><ele>1149.0</ele><time>2026-04-25T08:34:37.04Z</time></trkpt><trkpt lat="42.347801" lon="-7.6183126"><ele>1149.0</ele><time>2026-04-25T08:34:38.035Z</time></trkpt><trkpt lat="42.3479998" lon="-7.6184524"><ele>1146.0</ele><time>2026-04-25T08:34:39.042Z</time></trkpt><trkpt lat="42.3481908" lon="-7.6185863"><ele>1143.0</ele><time>2026-04-25T08:34:40.027Z</time></trkpt><trkpt lat="42.3483704" lon="-7.6187127"><ele>1140.0</ele><time>2026-04-25T08:34:41.036Z</time></trkpt><trkpt lat="42.3485389" lon="-7.6188383"><ele>1140.0</ele><time>2026-04-25T08:34:42.032Z</time></trkpt><trkpt lat="42.3487016" lon="-7.6189781"><ele>1140.0</ele><time>2026-04-25T08:34:43.032Z</time></trkpt><trkpt lat="42.3488655" lon="-7.61914"><ele>1140.0</ele><time>2026-04-25T08:34:44.033Z</time></trkpt><trkpt lat="42.3490251" lon="-7.6193155"><ele>1140.3333333333333</ele><time>2026-04-25T08:34:45.033Z</time></trkpt><trkpt lat="42.3491826" lon="-7.6194981"><ele>1140.6666666666665</ele><time>2026-04-25T08:34:46.033Z</time></trkpt><trkpt lat="42.3493494" lon="-7.6196861"><ele>1141.0</ele><time>2026-04-25T08:34:47.031Z</time></trkpt><trkpt lat="42.3495276" lon="-7.6198759"><ele>1141.0</ele><time>2026-04-25T08:34:48.035Z</time></trkpt><trkpt lat="42.349706" lon="-7.620064"><ele>1141.0</ele><time>2026-04-25T08:34:49.03Z</time></trkpt><trkpt lat="42.349873" lon="-7.6202398"><ele>1141.0</ele><time>2026-04-25T08:34:50.037Z</time></trkpt><trkpt lat="42.3500289" lon="-7.6203997"><ele>1139.0</ele><time>2026-04-25T08:34:51.04Z</time></trkpt><trkpt lat="42.3501747" lon="-7.6205439"><ele>1137.0</ele><time>2026-04-25T08:34:52.032Z</time></trkpt><trkpt lat="42.3503155" lon="-7.6206661"><ele>1135.0</ele><time>2026-04-25T08:34:53.04Z</time></trkpt><trkpt lat="42.3504563" lon="-7.6207632"><ele>1137.25</ele><time>2026-04-25T08:34:54.035Z</time></trkpt><trkpt lat="42.3505947" lon="-7.6208354"><ele>1139.5</ele><time>2026-04-25T08:34:55.035Z</time></trkpt><trkpt lat="42.3507365" lon="-7.6208927"><ele>1141.75</ele><time>2026-04-25T08:34:56.03Z</time></trkpt><trkpt lat="42.3508847" lon="-7.620943"><ele>1144.0</ele><time>2026-04-25T08:34:57.038Z</time></trkpt><trkpt lat="42.3510238" lon="-7.6209849"><ele>1144.0</ele><time>2026-04-25T08:34:58.035Z</time></trkpt><trkpt lat="42.3511435" lon="-7.6210187"><ele>1144.0</ele><time>2026-04-25T08:34:59.035Z</time></trkpt><trkpt lat="42.3512378" lon="-7.6210444"><ele>1144.0</ele><time>2026-04-25T08:35:00.042Z</time></trkpt><trkpt lat="42.3513128" lon="-7.6210667"><ele>1144.0</ele><time>2026-04-25T08:35:01.035Z</time></trkpt><trkpt lat="42.3513831" lon="-7.6210863"><ele>1144.0</ele><time>2026-04-25T08:35:02.033Z</time></trkpt><trkpt lat="42.3514546" lon="-7.6210965"><ele>1144.0</ele><time>2026-04-25T08:35:03.029Z</time></trkpt><trkpt lat="42.3515298" lon="-7.6211018"><ele>1145.4</ele><time>2026-04-25T08:35:04.036Z</time></trkpt><trkpt lat="42.3516157" lon="-7.6211029"><ele>1146.8000000000002</ele><time>2026-04-25T08:35:05.027Z</time></trkpt><trkpt lat="42.3517092" lon="-7.6211194"><ele>1148.1999999999998</ele><time>2026-04-25T08:35:06.031Z</time></trkpt><trkpt lat="42.351815" lon="-7.6211613"><ele>1149.6</ele><time>2026-04-25T08:35:07.033Z</time></trkpt><trkpt lat="42.3519109" lon="-7.621215"><ele>1151.0</ele><time>2026-04-25T08:35:08.028Z</time></trkpt><trkpt lat="42.3519999" lon="-7.62128"><ele>1148.0</ele><time>2026-04-25T08:35:09.033Z</time></trkpt><trkpt lat="42.3520615" lon="-7.6213816"><ele>1145.0</ele><time>2026-04-25T08:35:10.027Z</time></trkpt><trkpt lat="42.3521071" lon="-7.6214996"><ele>1142.0</ele><time>2026-04-25T08:35:11.032Z</time></trkpt><trkpt lat="42.3521301" lon="-7.6216187"><ele>1139.0</ele><time>2026-04-25T08:35:12.03Z</time></trkpt><trkpt lat="42.3521484" lon="-7.6217422"><ele>1136.0</ele><time>2026-04-25T08:35:13.032Z</time></trkpt><trkpt lat="42.3521514" lon="-7.6218773"><ele>1136.0</ele><time>2026-04-25T08:35:14.032Z</time></trkpt><trkpt lat="42.3521509" lon="-7.6220027"><ele>1136.0</ele><time>2026-04-25T08:35:15.029Z</time></trkpt><trkpt lat="42.3521526" lon="-7.6221195"><ele>1136.0</ele><time>2026-04-25T08:35:16.042Z</time></trkpt><trkpt lat="42.3521523" lon="-7.622226"><ele>1136.0</ele><time>2026-04-25T08:35:17.034Z</time></trkpt><trkpt lat="42.3521534" lon="-7.6223253"><ele>1136.0</ele><time>2026-04-25T08:35:18.028Z</time></trkpt><trkpt lat="42.352175" lon="-7.6224494"><ele>1136.0</ele><time>2026-04-25T08:35:20.04Z</time></trkpt><trkpt lat="42.3522418" lon="-7.6225253"><ele>1135.8333333333335</ele><time>2026-04-25T08:35:22.031Z</time></trkpt><trkpt lat="42.3522986" lon="-7.622597"><ele>1135.6666666666667</ele><time>2026-04-25T08:35:23.06Z</time></trkpt><trkpt lat="42.3523664" lon="-7.6226832"><ele>1135.5</ele><time>2026-04-25T08:35:24.032Z</time></trkpt><trkpt lat="42.352438" lon="-7.6227567"><ele>1135.3333333333333</ele><time>2026-04-25T08:35:25.035Z</time></trkpt><trkpt lat="42.3525025" lon="-7.6227956"><ele>1135.1666666666665</ele><time>2026-04-25T08:35:26.031Z</time></trkpt><trkpt lat="42.3525798" lon="-7.6228158"><ele>1135.0</ele><time>2026-04-25T08:35:27.035Z</time></trkpt><trkpt lat="42.3526752" lon="-7.6228159"><ele>1137.5</ele><time>2026-04-25T08:35:28.032Z</time></trkpt><trkpt lat="42.3527879" lon="-7.6227934"><ele>1140.0</ele><time>2026-04-25T08:35:29.028Z</time></trkpt><trkpt lat="42.3529102" lon="-7.62275"><ele>1142.5</ele><time>2026-04-25T08:35:30.031Z</time></trkpt><trkpt lat="42.3530238" lon="-7.6226973"><ele>1145.0</ele><time>2026-04-25T08:35:31.033Z</time></trkpt><trkpt lat="42.3531444" lon="-7.6226317"><ele>1146.0</ele><time>2026-04-25T08:35:32.033Z</time></trkpt><trkpt lat="42.353268" lon="-7.622566"><ele>1147.0</ele><time>2026-04-25T08:35:33.036Z</time></trkpt><trkpt lat="42.353397" lon="-7.6225232"><ele>1148.0</ele><time>2026-04-25T08:35:34.03Z</time></trkpt><trkpt lat="42.3534973" lon="-7.6224965"><ele>1149.0</ele><time>2026-04-25T08:35:35.036Z</time></trkpt><trkpt lat="42.3535654" lon="-7.6224854"><ele>1150.0</ele><time>2026-04-25T08:35:36.035Z</time></trkpt><trkpt lat="42.3536579" lon="-7.6224757"><ele>1150.0</ele><time>2026-04-25T08:35:38.032Z</time></trkpt><trkpt lat="42.3537835" lon="-7.6224231"><ele>1150.0</ele><time>2026-04-25T08:35:40.031Z</time></trkpt><trkpt lat="42.3539051" lon="-7.6223872"><ele>1150.0</ele><time>2026-04-25T08:35:42.033Z</time></trkpt><trkpt lat="42.353985" lon="-7.6223261"><ele>1150.0</ele><time>2026-04-25T08:35:44.034Z</time></trkpt><trkpt lat="42.3540451" lon="-7.6222852"><ele>1150.0</ele><time>2026-04-25T08:35:46.039Z</time></trkpt><trkpt lat="42.3539772" lon="-7.6223166"><ele>1150.0</ele><time>2026-04-25T08:36:33.035Z</time></trkpt><trkpt lat="42.3538849" lon="-7.6223723"><ele>1150.0</ele><time>2026-04-25T08:36:35.035Z</time></trkpt><trkpt lat="42.3538089" lon="-7.6224135"><ele>1150.0</ele><time>2026-04-25T08:36:36.038Z</time></trkpt><trkpt lat="42.3537024" lon="-7.6224587"><ele>1150.0</ele><time>2026-04-25T08:36:38.046Z</time></trkpt><trkpt lat="42.3536326" lon="-7.6224355"><ele>1150.0</ele><time>2026-04-25T08:36:40.036Z</time></trkpt><trkpt lat="42.3535203" lon="-7.6223814"><ele>1150.0</ele><time>2026-04-25T08:36:42.031Z</time></trkpt><trkpt lat="42.3533916" lon="-7.6223426"><ele>1150.0</ele><time>2026-04-25T08:36:44.043Z</time></trkpt><trkpt lat="42.3533286" lon="-7.6223209"><ele>1150.0</ele><time>2026-04-25T08:36:45.036Z</time></trkpt><trkpt lat="42.3532582" lon="-7.6222859"><ele>1150.0</ele><time>2026-04-25T08:36:47.034Z</time></trkpt><trkpt lat="42.3531707" lon="-7.6222119"><ele>1150.0</ele><time>2026-04-25T08:36:49.033Z</time></trkpt><trkpt lat="42.3531058" lon="-7.6221473"><ele>1150.0</ele><time>2026-04-25T08:36:50.042Z</time></trkpt><trkpt lat="42.353064" lon="-7.6220795"><ele>1150.0</ele><time>2026-04-25T08:36:51.031Z</time></trkpt><trkpt lat="42.3530415" lon="-7.6219971"><ele>1150.0</ele><time>2026-04-25T08:36:52.028Z</time></trkpt><trkpt lat="42.3530245" lon="-7.6219067"><ele>1150.0</ele><time>2026-04-25T08:36:53.034Z</time></trkpt><trkpt lat="42.3530049" lon="-7.6218129"><ele>1150.0</ele><time>2026-04-25T08:36:54.035Z</time></trkpt><trkpt lat="42.3529938" lon="-7.6217019"><ele>1150.0</ele><time>2026-04-25T08:36:55.03Z</time></trkpt><trkpt lat="42.3529835" lon="-7.6215653"><ele>1150.2</ele><time>2026-04-25T08:36:56.032Z</time></trkpt><trkpt lat="42.352975" lon="-7.6214292"><ele>1150.4</ele><time>2026-04-25T08:36:57.04Z</time></trkpt><trkpt lat="42.3529719" lon="-7.6213115"><ele>1150.6</ele><time>2026-04-25T08:36:58.038Z</time></trkpt><trkpt lat="42.352969" lon="-7.6212003"><ele>1150.8</ele><time>2026-04-25T08:36:59.027Z</time></trkpt><trkpt lat="42.3529603" lon="-7.6210773"><ele>1151.0</ele><time>2026-04-25T08:37:00.031Z</time></trkpt><trkpt lat="42.3529368" lon="-7.6209595"><ele>1153.5</ele><time>2026-04-25T08:37:01.037Z</time></trkpt><trkpt lat="42.3528985" lon="-7.6208245"><ele>1156.0</ele><time>2026-04-25T08:37:02.035Z</time></trkpt><trkpt lat="42.3528559" lon="-7.6206862"><ele>1158.5</ele><time>2026-04-25T08:37:03.033Z</time></trkpt><trkpt lat="42.3528026" lon="-7.620547"><ele>1161.0</ele><time>2026-04-25T08:37:04.034Z</time></trkpt><trkpt lat="42.3527373" lon="-7.620403"><ele>1163.8</ele><time>2026-04-25T08:37:05.037Z</time></trkpt><trkpt lat="42.3526729" lon="-7.6202622"><ele>1166.6</ele><time>2026-04-25T08:37:06.034Z</time></trkpt><trkpt lat="42.3526158" lon="-7.620134"><ele>1169.4</ele><time>2026-04-25T08:37:07.028Z</time></trkpt><trkpt lat="42.3525864" lon="-7.6200071"><ele>1172.2</ele><time>2026-04-25T08:37:08.035Z</time></trkpt><trkpt lat="42.3525627" lon="-7.6198948"><ele>1175.0</ele><time>2026-04-25T08:37:09.029Z</time></trkpt><trkpt lat="42.3525639" lon="-7.6197935"><ele>1175.0</ele><time>2026-04-25T08:37:10.038Z</time></trkpt><trkpt lat="42.352566" lon="-7.6196982"><ele>1175.0</ele><time>2026-04-25T08:37:11.035Z</time></trkpt><trkpt lat="42.3525848" lon="-7.6195929"><ele>1175.0</ele><time>2026-04-25T08:37:13.032Z</time></trkpt><trkpt lat="42.3526592" lon="-7.6196051"><ele>1175.0</ele><time>2026-04-25T08:37:16.032Z</time></trkpt><trkpt lat="42.3527383" lon="-7.6197367"><ele>1175.0</ele><time>2026-04-25T08:37:18.038Z</time></trkpt><trkpt lat="42.3527985" lon="-7.6198262"><ele>1175.0</ele><time>2026-04-25T08:37:19.031Z</time></trkpt><trkpt lat="42.3528648" lon="-7.6198978"><ele>1175.0</ele><time>2026-04-25T08:37:20.031Z</time></trkpt><trkpt lat="42.3529456" lon="-7.6199572"><ele>1175.0</ele><time>2026-04-25T08:37:21.03Z</time></trkpt><trkpt lat="42.3530353" lon="-7.6200043"><ele>1175.0</ele><time>2026-04-25T08:37:22.028Z</time></trkpt><trkpt lat="42.3531336" lon="-7.6200474"><ele>1175.0</ele><time>2026-04-25T08:37:23.032Z</time></trkpt><trkpt lat="42.3532383" lon="-7.6200926"><ele>1175.0</ele><time>2026-04-25T08:37:24.029Z</time></trkpt><trkpt lat="42.3533298" lon="-7.6201351"><ele>1176.0</ele><time>2026-04-25T08:37:25.027Z</time></trkpt><trkpt lat="42.3534015" lon="-7.6201774"><ele>1177.0</ele><time>2026-04-25T08:37:26.031Z</time></trkpt><trkpt lat="42.3534588" lon="-7.6202438"><ele>1178.0</ele><time>2026-04-25T08:37:27.036Z</time></trkpt><trkpt lat="42.3535119" lon="-7.6203216"><ele>1179.0</ele><time>2026-04-25T08:37:28.028Z</time></trkpt><trkpt lat="42.3535835" lon="-7.6204132"><ele>1180.0</ele><time>2026-04-25T08:37:29.029Z</time></trkpt><trkpt lat="42.3536439" lon="-7.6204731"><ele>1181.0</ele><time>2026-04-25T08:37:30.034Z</time></trkpt><trkpt lat="42.353741" lon="-7.6205339"><ele>1181.0</ele><time>2026-04-25T08:37:32.031Z</time></trkpt><trkpt lat="42.353814" lon="-7.6205249"><ele>1181.0</ele><time>2026-04-25T08:37:34.036Z</time></trkpt><trkpt lat="42.3538188" lon="-7.6204037"><ele>1181.0</ele><time>2026-04-25T08:37:37.04Z</time></trkpt><trkpt lat="42.353792" lon="-7.6203219"><ele>1181.0</ele><time>2026-04-25T08:37:38.033Z</time></trkpt><trkpt lat="42.3537609" lon="-7.6202295"><ele>1181.0</ele><time>2026-04-25T08:37:39.035Z</time></trkpt><trkpt lat="42.3537306" lon="-7.6201191"><ele>1181.0</ele><time>2026-04-25T08:37:40.028Z</time></trkpt><trkpt lat="42.3537058" lon="-7.6200036"><ele>1183.3999999999999</ele><time>2026-04-25T08:37:41.047Z</time></trkpt><trkpt lat="42.3536829" lon="-7.6198764"><ele>1185.8</ele><time>2026-04-25T08:37:42.032Z</time></trkpt><trkpt lat="42.3536563" lon="-7.6197462"><ele>1188.1999999999998</ele><time>2026-04-25T08:37:43.032Z</time></trkpt><trkpt lat="42.3536287" lon="-7.6196198"><ele>1190.6</ele><time>2026-04-25T08:37:44.031Z</time></trkpt><trkpt lat="42.353594" lon="-7.619491"><ele>1193.0</ele><time>2026-04-25T08:37:45.031Z</time></trkpt><trkpt lat="42.3535616" lon="-7.6193554"><ele>1195.0</ele><time>2026-04-25T08:37:46.032Z</time></trkpt><trkpt lat="42.3535343" lon="-7.6192195"><ele>1197.0</ele><time>2026-04-25T08:37:47.031Z</time></trkpt><trkpt lat="42.353513" lon="-7.6191077"><ele>1199.0</ele><time>2026-04-25T08:37:48.035Z</time></trkpt><trkpt lat="42.3535034" lon="-7.6190193"><ele>1201.0</ele><time>2026-04-25T08:37:49.033Z</time></trkpt><trkpt lat="42.3535123" lon="-7.6189032"><ele>1203.0</ele><time>2026-04-25T08:37:50.03Z</time></trkpt><trkpt lat="42.353528" lon="-7.6187862"><ele>1205.0</ele><time>2026-04-25T08:37:51.032Z</time></trkpt><trkpt lat="42.3535413" lon="-7.6186639"><ele>1206.2</ele><time>2026-04-25T08:37:52.032Z</time></trkpt><trkpt lat="42.3535458" lon="-7.6185445"><ele>1207.4</ele><time>2026-04-25T08:37:53.038Z</time></trkpt><trkpt lat="42.3535508" lon="-7.6184253"><ele>1208.6</ele><time>2026-04-25T08:37:54.028Z</time></trkpt><trkpt lat="42.3535418" lon="-7.6183082"><ele>1209.8</ele><time>2026-04-25T08:37:55.033Z</time></trkpt><trkpt lat="42.3535376" lon="-7.6181677"><ele>1211.0</ele><time>2026-04-25T08:37:56.027Z</time></trkpt><trkpt lat="42.3535386" lon="-7.6180308"><ele>1211.0</ele><time>2026-04-25T08:37:57.035Z</time></trkpt><trkpt lat="42.3535437" lon="-7.6179245"><ele>1211.0</ele><time>2026-04-25T08:37:58.03Z</time></trkpt><trkpt lat="42.3535488" lon="-7.6178299"><ele>1211.0</ele><time>2026-04-25T08:37:59.03Z</time></trkpt><trkpt lat="42.3535369" lon="-7.6177425"><ele>1211.0</ele><time>2026-04-25T08:38:00.027Z</time></trkpt><trkpt lat="42.3535163" lon="-7.6176438"><ele>1211.0</ele><time>2026-04-25T08:38:01.031Z</time></trkpt><trkpt lat="42.3534988" lon="-7.6175506"><ele>1211.0</ele><time>2026-04-25T08:38:02.035Z</time></trkpt><trkpt lat="42.3534937" lon="-7.6174529"><ele>1211.0</ele><time>2026-04-25T08:38:03.035Z</time></trkpt><trkpt lat="42.3534999" lon="-7.6173392"><ele>1212.5</ele><time>2026-04-25T08:38:04.027Z</time></trkpt><trkpt lat="42.3535077" lon="-7.6172308"><ele>1214.0</ele><time>2026-04-25T08:38:05.033Z</time></trkpt><trkpt lat="42.3535155" lon="-7.6171425"><ele>1215.5</ele><time>2026-04-25T08:38:06.034Z</time></trkpt><trkpt lat="42.3535249" lon="-7.6170487"><ele>1217.0</ele><time>2026-04-25T08:38:07.027Z</time></trkpt><trkpt lat="42.3535359" lon="-7.616947"><ele>1218.5</ele><time>2026-04-25T08:38:08.033Z</time></trkpt><trkpt lat="42.3535284" lon="-7.6168302"><ele>1220.0</ele><time>2026-04-25T08:38:09.03Z</time></trkpt><trkpt lat="42.3535143" lon="-7.616697"><ele>1221.5</ele><time>2026-04-25T08:38:10.024Z</time></trkpt><trkpt lat="42.3534932" lon="-7.6165575"><ele>1223.0</ele><time>2026-04-25T08:38:11.033Z</time></trkpt><trkpt lat="42.353476" lon="-7.6164402"><ele>1224.5</ele><time>2026-04-25T08:38:12.036Z</time></trkpt><trkpt lat="42.3534621" lon="-7.6163363"><ele>1226.0</ele><time>2026-04-25T08:38:13.043Z</time></trkpt><trkpt lat="42.3534507" lon="-7.6162256"><ele>1227.5</ele><time>2026-04-25T08:38:14.028Z</time></trkpt><trkpt lat="42.3534472" lon="-7.6161046"><ele>1229.0</ele><time>2026-04-25T08:38:15.034Z</time></trkpt><trkpt lat="42.3534507" lon="-7.6159798"><ele>1229.6666666666667</ele><time>2026-04-25T08:38:16.033Z</time></trkpt><trkpt lat="42.3534638" lon="-7.6158566"><ele>1230.3333333333335</ele><time>2026-04-25T08:38:17.033Z</time></trkpt><trkpt lat="42.3534722" lon="-7.6157383"><ele>1231.0</ele><time>2026-04-25T08:38:18.031Z</time></trkpt><trkpt lat="42.3534994" lon="-7.61563"><ele>1231.6666666666667</ele><time>2026-04-25T08:38:19.024Z</time></trkpt><trkpt lat="42.3535333" lon="-7.6155323"><ele>1232.3333333333333</ele><time>2026-04-25T08:38:20.037Z</time></trkpt><trkpt lat="42.35357" lon="-7.615427"><ele>1233.0</ele><time>2026-04-25T08:38:21.037Z</time></trkpt><trkpt lat="42.3536078" lon="-7.6153112"><ele>1233.8</ele><time>2026-04-25T08:38:22.033Z</time></trkpt><trkpt lat="42.3536465" lon="-7.6151984"><ele>1234.6</ele><time>2026-04-25T08:38:23.028Z</time></trkpt><trkpt lat="42.3537005" lon="-7.6150986"><ele>1235.4</ele><time>2026-04-25T08:38:24.037Z</time></trkpt><trkpt lat="42.3537564" lon="-7.614998"><ele>1236.2</ele><time>2026-04-25T08:38:25.028Z</time></trkpt><trkpt lat="42.3538099" lon="-7.6148926"><ele>1237.0</ele><time>2026-04-25T08:38:26.036Z</time></trkpt><trkpt lat="42.3538551" lon="-7.6147752"><ele>1238.6</ele><time>2026-04-25T08:38:27.03Z</time></trkpt><trkpt lat="42.3539009" lon="-7.6146513"><ele>1240.2</ele><time>2026-04-25T08:38:28.033Z</time></trkpt><trkpt lat="42.3539508" lon="-7.6145192"><ele>1241.8</ele><time>2026-04-25T08:38:29.035Z</time></trkpt><trkpt lat="42.35401" lon="-7.6143863"><ele>1243.4</ele><time>2026-04-25T08:38:30.032Z</time></trkpt><trkpt lat="42.3540713" lon="-7.6142568"><ele>1245.0</ele><time>2026-04-25T08:38:31.031Z</time></trkpt><trkpt lat="42.3541312" lon="-7.6141279"><ele>1245.8</ele><time>2026-04-25T08:38:32.03Z</time></trkpt><trkpt lat="42.3541863" lon="-7.6140027"><ele>1246.6</ele><time>2026-04-25T08:38:33.036Z</time></trkpt><trkpt lat="42.3542431" lon="-7.6138755"><ele>1247.4</ele><time>2026-04-25T08:38:34.032Z</time></trkpt><trkpt lat="42.3543054" lon="-7.6137382"><ele>1248.2</ele><time>2026-04-25T08:38:35.028Z</time></trkpt><trkpt lat="42.3543638" lon="-7.613609"><ele>1249.0</ele><time>2026-04-25T08:38:36.033Z</time></trkpt><trkpt lat="42.3544215" lon="-7.6134852"><ele>1249.6666666666665</ele><time>2026-04-25T08:38:37.034Z</time></trkpt><trkpt lat="42.3544681" lon="-7.6133755"><ele>1250.3333333333333</ele><time>2026-04-25T08:38:38.032Z</time></trkpt><trkpt lat="42.3545086" lon="-7.6132835"><ele>1251.0</ele><time>2026-04-25T08:38:39.033Z</time></trkpt><trkpt lat="42.3545568" lon="-7.6132018"><ele>1251.6666666666667</ele><time>2026-04-25T08:38:40.031Z</time></trkpt><trkpt lat="42.3545994" lon="-7.6131105"><ele>1252.3333333333335</ele><time>2026-04-25T08:38:41.034Z</time></trkpt><trkpt lat="42.3546562" lon="-7.613004"><ele>1253.0</ele><time>2026-04-25T08:38:42.033Z</time></trkpt><trkpt lat="42.3547217" lon="-7.6128856"><ele>1254.6</ele><time>2026-04-25T08:38:43.052Z</time></trkpt><trkpt lat="42.3547858" lon="-7.6127787"><ele>1256.1999999999998</ele><time>2026-04-25T08:38:44.034Z</time></trkpt><trkpt lat="42.3548499" lon="-7.6126791"><ele>1257.8</ele><time>2026-04-25T08:38:45.032Z</time></trkpt><trkpt lat="42.3549185" lon="-7.612576"><ele>1259.3999999999999</ele><time>2026-04-25T08:38:46.037Z</time></trkpt><trkpt lat="42.354991" lon="-7.6124666"><ele>1261.0</ele><time>2026-04-25T08:38:47.03Z</time></trkpt><trkpt lat="42.3550499" lon="-7.6123641"><ele>1261.0</ele><time>2026-04-25T08:38:48.053Z</time></trkpt><trkpt lat="42.3551077" lon="-7.6122601"><ele>1261.0</ele><time>2026-04-25T08:38:49.029Z</time></trkpt><trkpt lat="42.3551644" lon="-7.6121536"><ele>1261.0</ele><time>2026-04-25T08:38:50.031Z</time></trkpt><trkpt lat="42.3552163" lon="-7.6120445"><ele>1261.0</ele><time>2026-04-25T08:38:51.03Z</time></trkpt><trkpt lat="42.3552626" lon="-7.611949"><ele>1261.0</ele><time>2026-04-25T08:38:52.03Z</time></trkpt><trkpt lat="42.3553128" lon="-7.6118463"><ele>1260.3999999999999</ele><time>2026-04-25T08:38:53.035Z</time></trkpt><trkpt lat="42.3553697" lon="-7.6117375"><ele>1259.8</ele><time>2026-04-25T08:38:54.035Z</time></trkpt><trkpt lat="42.3554327" lon="-7.6116263"><ele>1259.1999999999998</ele><time>2026-04-25T08:38:55.035Z</time></trkpt><trkpt lat="42.3554874" lon="-7.611531"><ele>1258.6</ele><time>2026-04-25T08:38:56.033Z</time></trkpt><trkpt lat="42.3555245" lon="-7.6114531"><ele>1258.0</ele><time>2026-04-25T08:38:57.05Z</time></trkpt><trkpt lat="42.355541" lon="-7.6113021"><ele>1258.0</ele><time>2026-04-25T08:38:59.037Z</time></trkpt><trkpt lat="42.3555207" lon="-7.6112158"><ele>1258.0</ele><time>2026-04-25T08:39:00.034Z</time></trkpt><trkpt lat="42.3554799" lon="-7.6111169"><ele>1258.0</ele><time>2026-04-25T08:39:01.035Z</time></trkpt><trkpt lat="42.3554228" lon="-7.6110098"><ele>1258.0</ele><time>2026-04-25T08:39:02.035Z</time></trkpt><trkpt lat="42.3553524" lon="-7.6108925"><ele>1258.0</ele><time>2026-04-25T08:39:03.032Z</time></trkpt><trkpt lat="42.3552788" lon="-7.6107821"><ele>1258.4</ele><time>2026-04-25T08:39:04.033Z</time></trkpt><trkpt lat="42.3552035" lon="-7.6106859"><ele>1258.8</ele><time>2026-04-25T08:39:05.037Z</time></trkpt><trkpt lat="42.3551224" lon="-7.6106047"><ele>1259.2</ele><time>2026-04-25T08:39:06.036Z</time></trkpt><trkpt lat="42.3550355" lon="-7.6105273"><ele>1259.6</ele><time>2026-04-25T08:39:07.046Z</time></trkpt><trkpt lat="42.354944" lon="-7.6104474"><ele>1260.0</ele><time>2026-04-25T08:39:08.033Z</time></trkpt><trkpt lat="42.3548467" lon="-7.6103667"><ele>1260.0</ele><time>2026-04-25T08:39:09.034Z</time></trkpt><trkpt lat="42.3547407" lon="-7.6102932"><ele>1260.0</ele><time>2026-04-25T08:39:10.038Z</time></trkpt><trkpt lat="42.3546281" lon="-7.6102263"><ele>1260.0</ele><time>2026-04-25T08:39:11.032Z</time></trkpt><trkpt lat="42.3545096" lon="-7.6101684"><ele>1260.0</ele><time>2026-04-25T08:39:12.037Z</time></trkpt><trkpt lat="42.3543874" lon="-7.6101204"><ele>1262.0</ele><time>2026-04-25T08:39:13.038Z</time></trkpt><trkpt lat="42.3542637" lon="-7.6100778"><ele>1264.0</ele><time>2026-04-25T08:39:14.037Z</time></trkpt><trkpt lat="42.3541399" lon="-7.6100386"><ele>1266.0</ele><time>2026-04-25T08:39:15.036Z</time></trkpt><trkpt lat="42.3540163" lon="-7.6100026"><ele>1268.0</ele><time>2026-04-25T08:39:16.033Z</time></trkpt><trkpt lat="42.3538921" lon="-7.6099655"><ele>1268.75</ele><time>2026-04-25T08:39:17.036Z</time></trkpt><trkpt lat="42.3537663" lon="-7.6099246"><ele>1269.5</ele><time>2026-04-25T08:39:18.033Z</time></trkpt><trkpt lat="42.3536412" lon="-7.6098798"><ele>1270.25</ele><time>2026-04-25T08:39:19.047Z</time></trkpt><trkpt lat="42.3535189" lon="-7.6098306"><ele>1271.0</ele><time>2026-04-25T08:39:20.038Z</time></trkpt><trkpt lat="42.3534004" lon="-7.6097757"><ele>1271.0</ele><time>2026-04-25T08:39:21.035Z</time></trkpt><trkpt lat="42.3532863" lon="-7.6097116"><ele>1271.0</ele><time>2026-04-25T08:39:22.033Z</time></trkpt><trkpt lat="42.3531827" lon="-7.6096292"><ele>1271.0</ele><time>2026-04-25T08:39:23.038Z</time></trkpt><trkpt lat="42.3530895" lon="-7.6095414"><ele>1271.0</ele><time>2026-04-25T08:39:24.042Z</time></trkpt><trkpt lat="42.3530028" lon="-7.6094562"><ele>1273.0</ele><time>2026-04-25T08:39:25.037Z</time></trkpt><trkpt lat="42.3529162" lon="-7.6093621"><ele>1275.0</ele><time>2026-04-25T08:39:26.034Z</time></trkpt><trkpt lat="42.3528408" lon="-7.6092678"><ele>1277.0</ele><time>2026-04-25T08:39:27.03Z</time></trkpt><trkpt lat="42.3527767" lon="-7.6091736"><ele>1279.0</ele><time>2026-04-25T08:39:28.041Z</time></trkpt><trkpt lat="42.3527277" lon="-7.609074"><ele>1281.0</ele><time>2026-04-25T08:39:29.039Z</time></trkpt><trkpt lat="42.3526793" lon="-7.6089733"><ele>1281.0</ele><time>2026-04-25T08:39:30.052Z</time></trkpt><trkpt lat="42.3526601" lon="-7.60885"><ele>1281.0</ele><time>2026-04-25T08:39:31.034Z</time></trkpt><trkpt lat="42.3526376" lon="-7.6087202"><ele>1281.0</ele><time>2026-04-25T08:39:32.038Z</time></trkpt><trkpt lat="42.3526026" lon="-7.6086079"><ele>1281.0</ele><time>2026-04-25T08:39:33.033Z</time></trkpt><trkpt lat="42.3525534" lon="-7.6085043"><ele>1281.0</ele><time>2026-04-25T08:39:34.036Z</time></trkpt><trkpt lat="42.3524875" lon="-7.6084041"><ele>1280.8</ele><time>2026-04-25T08:39:35.038Z</time></trkpt><trkpt lat="42.352411" lon="-7.6082971"><ele>1280.6</ele><time>2026-04-25T08:39:36.035Z</time></trkpt><trkpt lat="42.3523307" lon="-7.608193"><ele>1280.4</ele><time>2026-04-25T08:39:37.046Z</time></trkpt><trkpt lat="42.3522543" lon="-7.608087"><ele>1280.2</ele><time>2026-04-25T08:39:38.033Z</time></trkpt><trkpt lat="42.3521824" lon="-7.6079888"><ele>1280.0</ele><time>2026-04-25T08:39:39.037Z</time></trkpt><trkpt lat="42.3521098" lon="-7.6079011"><ele>1278.2</ele><time>2026-04-25T08:39:40.037Z</time></trkpt><trkpt lat="42.3520371" lon="-7.6078131"><ele>1276.4</ele><time>2026-04-25T08:39:41.032Z</time></trkpt><trkpt lat="42.3519439" lon="-7.6077317"><ele>1274.6</ele><time>2026-04-25T08:39:42.039Z</time></trkpt><trkpt lat="42.3518479" lon="-7.6076539"><ele>1272.8</ele><time>2026-04-25T08:39:43.045Z</time></trkpt><trkpt lat="42.3517568" lon="-7.607585"><ele>1271.0</ele><time>2026-04-25T08:39:44.038Z</time></trkpt><trkpt lat="42.3516814" lon="-7.6075313"><ele>1271.0</ele><time>2026-04-25T08:39:45.035Z</time></trkpt><trkpt lat="42.3516075" lon="-7.6074799"><ele>1271.0</ele><time>2026-04-25T08:39:46.041Z</time></trkpt><trkpt lat="42.3515187" lon="-7.6074306"><ele>1271.0</ele><time>2026-04-25T08:39:47.035Z</time></trkpt><trkpt lat="42.3514328" lon="-7.6073851"><ele>1271.0</ele><time>2026-04-25T08:39:48.037Z</time></trkpt><trkpt lat="42.3513448" lon="-7.6073545"><ele>1271.0</ele><time>2026-04-25T08:39:49.04Z</time></trkpt><trkpt lat="42.351261" lon="-7.6073197"><ele>1272.0</ele><time>2026-04-25T08:39:50.033Z</time></trkpt><trkpt lat="42.3511758" lon="-7.6072862"><ele>1273.0</ele><time>2026-04-25T08:39:51.039Z</time></trkpt><trkpt lat="42.3510835" lon="-7.6072543"><ele>1274.0</ele><time>2026-04-25T08:39:52.03Z</time></trkpt><trkpt lat="42.3509887" lon="-7.6072247"><ele>1275.0</ele><time>2026-04-25T08:39:53.042Z</time></trkpt><trkpt lat="42.3509054" lon="-7.6071987"><ele>1276.0</ele><time>2026-04-25T08:39:54.037Z</time></trkpt><trkpt lat="42.3508439" lon="-7.6071615"><ele>1277.0</ele><time>2026-04-25T08:39:55.039Z</time></trkpt><trkpt lat="42.3507763" lon="-7.6070216"><ele>1274.8333333333335</ele><time>2026-04-25T08:39:57.032Z</time></trkpt><trkpt lat="42.3507507" lon="-7.6069082"><ele>1272.6666666666667</ele><time>2026-04-25T08:39:58.035Z</time></trkpt><trkpt lat="42.3507285" lon="-7.6067951"><ele>1270.5</ele><time>2026-04-25T08:39:59.038Z</time></trkpt><trkpt lat="42.3507052" lon="-7.6066937"><ele>1268.3333333333333</ele><time>2026-04-25T08:40:00.034Z</time></trkpt><trkpt lat="42.3506742" lon="-7.6066046"><ele>1266.1666666666665</ele><time>2026-04-25T08:40:01.035Z</time></trkpt><trkpt lat="42.3506418" lon="-7.606524"><ele>1264.0</ele><time>2026-04-25T08:40:02.035Z</time></trkpt><trkpt lat="42.3506063" lon="-7.6064487"><ele>1264.0</ele><time>2026-04-25T08:40:03.033Z</time></trkpt><trkpt lat="42.350563" lon="-7.6063716"><ele>1264.0</ele><time>2026-04-25T08:40:04.043Z</time></trkpt><trkpt lat="42.35051" lon="-7.6062894"><ele>1264.0</ele><time>2026-04-25T08:40:05.043Z</time></trkpt><trkpt lat="42.3504526" lon="-7.6062042"><ele>1264.0</ele><time>2026-04-25T08:40:06.032Z</time></trkpt><trkpt lat="42.3503999" lon="-7.6061291"><ele>1264.0</ele><time>2026-04-25T08:40:07.041Z</time></trkpt><trkpt lat="42.3503488" lon="-7.6060651"><ele>1264.0</ele><time>2026-04-25T08:40:08.036Z</time></trkpt><trkpt lat="42.3502975" lon="-7.6060078"><ele>1263.3333333333333</ele><time>2026-04-25T08:40:09.035Z</time></trkpt><trkpt lat="42.3502424" lon="-7.6059543"><ele>1262.6666666666665</ele><time>2026-04-25T08:40:10.045Z</time></trkpt><trkpt lat="42.350188" lon="-7.6059067"><ele>1262.0</ele><time>2026-04-25T08:40:11.033Z</time></trkpt><trkpt lat="42.3500744" lon="-7.6058438"><ele>1261.3333333333333</ele><time>2026-04-25T08:40:13.029Z</time></trkpt><trkpt lat="42.3500013" lon="-7.6058106"><ele>1260.6666666666667</ele><time>2026-04-25T08:40:14.035Z</time></trkpt><trkpt lat="42.3499218" lon="-7.6057793"><ele>1260.0</ele><time>2026-04-25T08:40:15.042Z</time></trkpt><trkpt lat="42.3498477" lon="-7.6057627"><ele>1260.0</ele><time>2026-04-25T08:40:16.03Z</time></trkpt><trkpt lat="42.3497338" lon="-7.6057626"><ele>1260.0</ele><time>2026-04-25T08:40:18.035Z</time></trkpt><trkpt lat="42.3496691" lon="-7.6057494"><ele>1260.0</ele><time>2026-04-25T08:40:20.037Z</time></trkpt><trkpt lat="42.3497213" lon="-7.6056655"><ele>1260.0</ele><time>2026-04-25T08:41:03.032Z</time></trkpt><trkpt lat="42.3498307" lon="-7.6056388"><ele>1260.0</ele><time>2026-04-25T08:41:05.033Z</time></trkpt><trkpt lat="42.3499033" lon="-7.6056151"><ele>1260.0</ele><time>2026-04-25T08:41:06.028Z</time></trkpt><trkpt lat="42.3499726" lon="-7.6055928"><ele>1260.0</ele><time>2026-04-25T08:41:07.032Z</time></trkpt><trkpt lat="42.3500377" lon="-7.605573"><ele>1260.0</ele><time>2026-04-25T08:41:08.033Z</time></trkpt><trkpt lat="42.3501072" lon="-7.6055667"><ele>1260.0</ele><time>2026-04-25T08:41:09.041Z</time></trkpt><trkpt lat="42.3501861" lon="-7.6055679"><ele>1260.0</ele><time>2026-04-25T08:41:10.037Z</time></trkpt><trkpt lat="42.3502665" lon="-7.6055748"><ele>1260.0</ele><time>2026-04-25T08:41:11.032Z</time></trkpt><trkpt lat="42.350352" lon="-7.605591"><ele>1260.0</ele><time>2026-04-25T08:41:12.038Z</time></trkpt><trkpt lat="42.3504364" lon="-7.6056078"><ele>1260.0</ele><time>2026-04-25T08:41:13.036Z</time></trkpt><trkpt lat="42.3505177" lon="-7.6056213"><ele>1260.0</ele><time>2026-04-25T08:41:14.036Z</time></trkpt><trkpt lat="42.3506005" lon="-7.6056383"><ele>1260.0</ele><time>2026-04-25T08:41:15.038Z</time></trkpt><trkpt lat="42.3506842" lon="-7.605661"><ele>1260.0</ele><time>2026-04-25T08:41:16.032Z</time></trkpt><trkpt lat="42.3507697" lon="-7.605689"><ele>1260.0</ele><time>2026-04-25T08:41:17.038Z</time></trkpt><trkpt lat="42.3508616" lon="-7.6057217"><ele>1260.0</ele><time>2026-04-25T08:41:18.036Z</time></trkpt><trkpt lat="42.3509487" lon="-7.6057534"><ele>1257.5</ele><time>2026-04-25T08:41:19.039Z</time></trkpt><trkpt lat="42.3510295" lon="-7.6057921"><ele>1255.0</ele><time>2026-04-25T08:41:20.039Z</time></trkpt><trkpt lat="42.3511055" lon="-7.6058388"><ele>1252.5</ele><time>2026-04-25T08:41:21.043Z</time></trkpt><trkpt lat="42.3511804" lon="-7.6058936"><ele>1250.0</ele><time>2026-04-25T08:41:22.037Z</time></trkpt><trkpt lat="42.3512433" lon="-7.6059423"><ele>1247.5</ele><time>2026-04-25T08:41:23.04Z</time></trkpt><trkpt lat="42.3513557" lon="-7.605989"><ele>1245.0</ele><time>2026-04-25T08:41:25.04Z</time></trkpt><trkpt lat="42.3514683" lon="-7.6059337"><ele>1243.5</ele><time>2026-04-25T08:41:27.037Z</time></trkpt><trkpt lat="42.3515397" lon="-7.6058774"><ele>1242.0</ele><time>2026-04-25T08:41:28.036Z</time></trkpt><trkpt lat="42.3516114" lon="-7.6058307"><ele>1240.5</ele><time>2026-04-25T08:41:29.032Z</time></trkpt><trkpt lat="42.3516812" lon="-7.6057951"><ele>1239.0</ele><time>2026-04-25T08:41:30.033Z</time></trkpt><trkpt lat="42.3517467" lon="-7.6057616"><ele>1237.5</ele><time>2026-04-25T08:41:31.033Z</time></trkpt><trkpt lat="42.3518133" lon="-7.6057266"><ele>1236.0</ele><time>2026-04-25T08:41:32.035Z</time></trkpt><trkpt lat="42.351895" lon="-7.6056863"><ele>1236.0</ele><time>2026-04-25T08:41:33.039Z</time></trkpt><trkpt lat="42.3519729" lon="-7.6056487"><ele>1236.0</ele><time>2026-04-25T08:41:34.029Z</time></trkpt><trkpt lat="42.3520455" lon="-7.6056245"><ele>1236.0</ele><time>2026-04-25T08:41:35.039Z</time></trkpt><trkpt lat="42.3521357" lon="-7.6056121"><ele>1236.0</ele><time>2026-04-25T08:41:36.031Z</time></trkpt><trkpt lat="42.3522378" lon="-7.605609"><ele>1236.0</ele><time>2026-04-25T08:41:37.029Z</time></trkpt><trkpt lat="42.3523347" lon="-7.6056147"><ele>1236.0</ele><time>2026-04-25T08:41:38.036Z</time></trkpt><trkpt lat="42.3524249" lon="-7.6056258"><ele>1235.4285714285716</ele><time>2026-04-25T08:41:39.033Z</time></trkpt><trkpt lat="42.352509" lon="-7.6056429"><ele>1234.857142857143</ele><time>2026-04-25T08:41:40.031Z</time></trkpt><trkpt lat="42.3525869" lon="-7.6056657"><ele>1234.2857142857142</ele><time>2026-04-25T08:41:41.035Z</time></trkpt><trkpt lat="42.3526613" lon="-7.6056871"><ele>1233.7142857142858</ele><time>2026-04-25T08:41:42.034Z</time></trkpt><trkpt lat="42.3527296" lon="-7.605706"><ele>1233.142857142857</ele><time>2026-04-25T08:41:43.031Z</time></trkpt><trkpt lat="42.352793" lon="-7.605698"><ele>1232.5714285714287</ele><time>2026-04-25T08:41:44.034Z</time></trkpt><trkpt lat="42.3528543" lon="-7.6056666"><ele>1232.0</ele><time>2026-04-25T08:41:45.031Z</time></trkpt><trkpt lat="42.352932" lon="-7.6056259"><ele>1232.0</ele><time>2026-04-25T08:41:46.035Z</time></trkpt><trkpt lat="42.3530072" lon="-7.6055871"><ele>1232.0</ele><time>2026-04-25T08:41:47.034Z</time></trkpt><trkpt lat="42.3530876" lon="-7.6055423"><ele>1232.0</ele><time>2026-04-25T08:41:48.042Z</time></trkpt><trkpt lat="42.3531743" lon="-7.6055017"><ele>1232.0</ele><time>2026-04-25T08:41:49.032Z</time></trkpt><trkpt lat="42.3532683" lon="-7.6054627"><ele>1232.0</ele><time>2026-04-25T08:41:50.034Z</time></trkpt><trkpt lat="42.3533663" lon="-7.6054278"><ele>1231.4</ele><time>2026-04-25T08:41:51.035Z</time></trkpt><trkpt lat="42.3534592" lon="-7.605405"><ele>1230.8000000000002</ele><time>2026-04-25T08:41:52.035Z</time></trkpt><trkpt lat="42.3535511" lon="-7.6053894"><ele>1230.2</ele><time>2026-04-25T08:41:53.028Z</time></trkpt><trkpt lat="42.3536431" lon="-7.6053718"><ele>1229.6000000000001</ele><time>2026-04-25T08:41:54.029Z</time></trkpt><trkpt lat="42.353734" lon="-7.6053537"><ele>1229.0</ele><time>2026-04-25T08:41:55.033Z</time></trkpt><trkpt lat="42.3538319" lon="-7.6053138"><ele>1223.0</ele><time>2026-04-25T08:41:56.029Z</time></trkpt><trkpt lat="42.353942" lon="-7.6052631"><ele>1217.0</ele><time>2026-04-25T08:41:57.032Z</time></trkpt><trkpt lat="42.3540493" lon="-7.6052215"><ele>1211.0</ele><time>2026-04-25T08:41:58.031Z</time></trkpt><trkpt lat="42.3541546" lon="-7.6051957"><ele>1205.0</ele><time>2026-04-25T08:41:59.031Z</time></trkpt><trkpt lat="42.3542691" lon="-7.6051785"><ele>1205.0</ele><time>2026-04-25T08:42:00.032Z</time></trkpt><trkpt lat="42.3543766" lon="-7.6051647"><ele>1205.0</ele><time>2026-04-25T08:42:01.035Z</time></trkpt><trkpt lat="42.3544739" lon="-7.6051531"><ele>1205.0</ele><time>2026-04-25T08:42:02.027Z</time></trkpt><trkpt lat="42.3545631" lon="-7.6051469"><ele>1205.0</ele><time>2026-04-25T08:42:03.034Z</time></trkpt><trkpt lat="42.3546553" lon="-7.605141"><ele>1205.0</ele><time>2026-04-25T08:42:04.031Z</time></trkpt><trkpt lat="42.3547498" lon="-7.6051421"><ele>1204.0</ele><time>2026-04-25T08:42:05.028Z</time></trkpt><trkpt lat="42.354835" lon="-7.6051413"><ele>1203.0</ele><time>2026-04-25T08:42:06.033Z</time></trkpt><trkpt lat="42.3549134" lon="-7.6051334"><ele>1202.0</ele><time>2026-04-25T08:42:07.042Z</time></trkpt><trkpt lat="42.3549908" lon="-7.6051231"><ele>1201.0</ele><time>2026-04-25T08:42:08.033Z</time></trkpt><trkpt lat="42.3550689" lon="-7.6050994"><ele>1200.0</ele><time>2026-04-25T08:42:09.033Z</time></trkpt><trkpt lat="42.3551576" lon="-7.6050656"><ele>1199.0</ele><time>2026-04-25T08:42:10.031Z</time></trkpt><trkpt lat="42.3552358" lon="-7.6050224"><ele>1199.0</ele><time>2026-04-25T08:42:11.035Z</time></trkpt><trkpt lat="42.3553075" lon="-7.6049785"><ele>1199.0</ele><time>2026-04-25T08:42:12.031Z</time></trkpt><trkpt lat="42.3553797" lon="-7.6049337"><ele>1199.0</ele><time>2026-04-25T08:42:13.032Z</time></trkpt><trkpt lat="42.355463" lon="-7.6048807"><ele>1199.0</ele><time>2026-04-25T08:42:14.032Z</time></trkpt><trkpt lat="42.3555615" lon="-7.6048214"><ele>1199.0</ele><time>2026-04-25T08:42:15.031Z</time></trkpt><trkpt lat="42.3556569" lon="-7.6047662"><ele>1197.2</ele><time>2026-04-25T08:42:16.036Z</time></trkpt><trkpt lat="42.3557498" lon="-7.6047114"><ele>1195.4</ele><time>2026-04-25T08:42:17.041Z</time></trkpt><trkpt lat="42.3558398" lon="-7.6046555"><ele>1193.6</ele><time>2026-04-25T08:42:18.041Z</time></trkpt><trkpt lat="42.3559257" lon="-7.6045945"><ele>1191.8</ele><time>2026-04-25T08:42:19.033Z</time></trkpt><trkpt lat="42.356004" lon="-7.6045442"><ele>1190.0</ele><time>2026-04-25T08:42:20.039Z</time></trkpt><trkpt lat="42.3560764" lon="-7.6045045"><ele>1188.3333333333335</ele><time>2026-04-25T08:42:21.032Z</time></trkpt><trkpt lat="42.3561399" lon="-7.604468"><ele>1186.6666666666667</ele><time>2026-04-25T08:42:22.035Z</time></trkpt><trkpt lat="42.356204" lon="-7.6044288"><ele>1185.0</ele><time>2026-04-25T08:42:23.035Z</time></trkpt><trkpt lat="42.3562595" lon="-7.6043649"><ele>1183.3333333333333</ele><time>2026-04-25T08:42:24.04Z</time></trkpt><trkpt lat="42.3563188" lon="-7.6042933"><ele>1181.6666666666665</ele><time>2026-04-25T08:42:25.04Z</time></trkpt><trkpt lat="42.356367" lon="-7.604175"><ele>1180.0</ele><time>2026-04-25T08:42:26.036Z</time></trkpt><trkpt lat="42.3564087" lon="-7.6040669"><ele>1179.6</ele><time>2026-04-25T08:42:27.042Z</time></trkpt><trkpt lat="42.3564562" lon="-7.6039465"><ele>1179.2</ele><time>2026-04-25T08:42:28.042Z</time></trkpt><trkpt lat="42.3564943" lon="-7.6038212"><ele>1178.8</ele><time>2026-04-25T08:42:29.031Z</time></trkpt><trkpt lat="42.3565158" lon="-7.6037053"><ele>1178.4</ele><time>2026-04-25T08:42:30.035Z</time></trkpt><trkpt lat="42.3565343" lon="-7.6035973"><ele>1178.0</ele><time>2026-04-25T08:42:31.031Z</time></trkpt><trkpt lat="42.3565757" lon="-7.6034541"><ele>1176.8</ele><time>2026-04-25T08:42:33.037Z</time></trkpt><trkpt lat="42.3566228" lon="-7.6033444"><ele>1175.6</ele><time>2026-04-25T08:42:35.045Z</time></trkpt><trkpt lat="42.3566643" lon="-7.6032498"><ele>1174.4</ele><time>2026-04-25T08:42:37.032Z</time></trkpt><trkpt lat="42.3567349" lon="-7.6031841"><ele>1173.2</ele><time>2026-04-25T08:42:39.043Z</time></trkpt><trkpt lat="42.3568083" lon="-7.6031088"><ele>1172.0</ele><time>2026-04-25T08:42:41.045Z</time></trkpt><trkpt lat="42.3569008" lon="-7.6030338"><ele>1172.0</ele><time>2026-04-25T08:42:43.047Z</time></trkpt><trkpt lat="42.3570222" lon="-7.602975"><ele>1172.0</ele><time>2026-04-25T08:42:45.046Z</time></trkpt><trkpt lat="42.3571436" lon="-7.6029553"><ele>1172.0</ele><time>2026-04-25T08:42:47.041Z</time></trkpt><trkpt lat="42.3572129" lon="-7.6029413"><ele>1172.0</ele><time>2026-04-25T08:42:48.045Z</time></trkpt><trkpt lat="42.3572826" lon="-7.6029112"><ele>1172.0</ele><time>2026-04-25T08:42:49.045Z</time></trkpt><trkpt lat="42.3573464" lon="-7.6028682"><ele>1170.0</ele><time>2026-04-25T08:42:50.034Z</time></trkpt><trkpt lat="42.3574063" lon="-7.6028179"><ele>1168.0</ele><time>2026-04-25T08:42:51.037Z</time></trkpt><trkpt lat="42.3574619" lon="-7.6027637"><ele>1166.0</ele><time>2026-04-25T08:42:52.044Z</time></trkpt><trkpt lat="42.357517" lon="-7.6027111"><ele>1164.0</ele><time>2026-04-25T08:42:53.043Z</time></trkpt><trkpt lat="42.3575537" lon="-7.6026391"><ele>1162.0</ele><time>2026-04-25T08:42:54.045Z</time></trkpt><trkpt lat="42.357626" lon="-7.6025084"><ele>1160.0</ele><time>2026-04-25T08:42:56.04Z</time></trkpt><trkpt lat="42.3577021" lon="-7.602387"><ele>1160.0</ele><time>2026-04-25T08:42:58.035Z</time></trkpt><trkpt lat="42.3577495" lon="-7.6023307"><ele>1160.0</ele><time>2026-04-25T08:42:59.051Z</time></trkpt><trkpt lat="42.3577948" lon="-7.6022678"><ele>1160.0</ele><time>2026-04-25T08:43:00.033Z</time></trkpt><trkpt lat="42.3578407" lon="-7.6022083"><ele>1160.0</ele><time>2026-04-25T08:43:01.037Z</time></trkpt><trkpt lat="42.3578715" lon="-7.6021258"><ele>1160.0</ele><time>2026-04-25T08:43:02.038Z</time></trkpt><trkpt lat="42.3578943" lon="-7.602045"><ele>1160.0</ele><time>2026-04-25T08:43:03.037Z</time></trkpt><trkpt lat="42.3579274" lon="-7.6018872"><ele>1160.0</ele><time>2026-04-25T08:43:05.041Z</time></trkpt><trkpt lat="42.3579351" lon="-7.601799"><ele>1159.8</ele><time>2026-04-25T08:43:06.051Z</time></trkpt><trkpt lat="42.3579354" lon="-7.6017086"><ele>1159.6</ele><time>2026-04-25T08:43:07.034Z</time></trkpt><trkpt lat="42.3579145" lon="-7.6015382"><ele>1159.4</ele><time>2026-04-25T08:43:09.038Z</time></trkpt><trkpt lat="42.3578907" lon="-7.6014307"><ele>1159.2</ele><time>2026-04-25T08:43:10.049Z</time></trkpt><trkpt lat="42.357857" lon="-7.6013197"><ele>1159.0</ele><time>2026-04-25T08:43:11.04Z</time></trkpt><trkpt lat="42.3578209" lon="-7.6012091"><ele>1156.4</ele><time>2026-04-25T08:43:12.049Z</time></trkpt><trkpt lat="42.3577792" lon="-7.6010884"><ele>1153.8000000000002</ele><time>2026-04-25T08:43:13.04Z</time></trkpt><trkpt lat="42.357737" lon="-7.6009749"><ele>1151.1999999999998</ele><time>2026-04-25T08:43:14.046Z</time></trkpt><trkpt lat="42.3576916" lon="-7.6008674"><ele>1148.6</ele><time>2026-04-25T08:43:15.035Z</time></trkpt><trkpt lat="42.3576472" lon="-7.6007594"><ele>1146.0</ele><time>2026-04-25T08:43:16.037Z</time></trkpt><trkpt lat="42.3576146" lon="-7.6006481"><ele>1146.0</ele><time>2026-04-25T08:43:17.044Z</time></trkpt><trkpt lat="42.3575916" lon="-7.6005279"><ele>1146.0</ele><time>2026-04-25T08:43:18.048Z</time></trkpt><trkpt lat="42.3575798" lon="-7.600404"><ele>1146.0</ele><time>2026-04-25T08:43:19.045Z</time></trkpt><trkpt lat="42.357574" lon="-7.6002857"><ele>1146.0</ele><time>2026-04-25T08:43:20.044Z</time></trkpt><trkpt lat="42.3575675" lon="-7.6001612"><ele>1146.0</ele><time>2026-04-25T08:43:21.039Z</time></trkpt><trkpt lat="42.3575581" lon="-7.6000254"><ele>1143.8</ele><time>2026-04-25T08:43:22.048Z</time></trkpt><trkpt lat="42.3575489" lon="-7.5998902"><ele>1141.6</ele><time>2026-04-25T08:43:23.041Z</time></trkpt><trkpt lat="42.3575422" lon="-7.5997643"><ele>1139.4</ele><time>2026-04-25T08:43:24.058Z</time></trkpt><trkpt lat="42.3575376" lon="-7.599645"><ele>1137.2</ele><time>2026-04-25T08:43:25.036Z</time></trkpt><trkpt lat="42.3575382" lon="-7.5995278"><ele>1135.0</ele><time>2026-04-25T08:43:26.04Z</time></trkpt><trkpt lat="42.357537" lon="-7.599412"><ele>1133.2</ele><time>2026-04-25T08:43:27.036Z</time></trkpt><trkpt lat="42.3575285" lon="-7.5993026"><ele>1131.4</ele><time>2026-04-25T08:43:28.044Z</time></trkpt><trkpt lat="42.3575125" lon="-7.5992032"><ele>1129.6</ele><time>2026-04-25T08:43:29.046Z</time></trkpt><trkpt lat="42.3574899" lon="-7.599114"><ele>1127.8</ele><time>2026-04-25T08:43:30.039Z</time></trkpt><trkpt lat="42.3574456" lon="-7.5989657"><ele>1126.0</ele><time>2026-04-25T08:43:32.037Z</time></trkpt><trkpt lat="42.3574017" lon="-7.5988041"><ele>1126.0</ele><time>2026-04-25T08:43:34.037Z</time></trkpt><trkpt lat="42.3573788" lon="-7.5987183"><ele>1126.0</ele><time>2026-04-25T08:43:35.041Z</time></trkpt><trkpt lat="42.3573429" lon="-7.5985595"><ele>1126.0</ele><time>2026-04-25T08:43:37.032Z</time></trkpt><trkpt lat="42.3573054" lon="-7.5984257"><ele>1126.0</ele><time>2026-04-25T08:43:39.044Z</time></trkpt><trkpt lat="42.3572661" lon="-7.5982908"><ele>1126.0</ele><time>2026-04-25T08:43:41.05Z</time></trkpt><trkpt lat="42.3572425" lon="-7.5982069"><ele>1125.7142857142858</ele><time>2026-04-25T08:43:42.035Z</time></trkpt><trkpt lat="42.3572136" lon="-7.598113"><ele>1125.4285714285716</ele><time>2026-04-25T08:43:43.041Z</time></trkpt><trkpt lat="42.357181" lon="-7.5980257"><ele>1125.1428571428573</ele><time>2026-04-25T08:43:44.041Z</time></trkpt><trkpt lat="42.3571442" lon="-7.5979492"><ele>1124.857142857143</ele><time>2026-04-25T08:43:45.038Z</time></trkpt><trkpt lat="42.3571008" lon="-7.5978708"><ele>1124.5714285714287</ele><time>2026-04-25T08:43:46.038Z</time></trkpt><trkpt lat="42.3570559" lon="-7.5977992"><ele>1124.2857142857144</ele><time>2026-04-25T08:43:47.034Z</time></trkpt><trkpt lat="42.3570096" lon="-7.5977312"><ele>1124.0</ele><time>2026-04-25T08:43:48.04Z</time></trkpt><trkpt lat="42.3569635" lon="-7.5976678"><ele>1122.1666666666667</ele><time>2026-04-25T08:43:49.041Z</time></trkpt><trkpt lat="42.3569137" lon="-7.5976016"><ele>1120.3333333333335</ele><time>2026-04-25T08:43:50.032Z</time></trkpt><trkpt lat="42.3568625" lon="-7.5975384"><ele>1118.5</ele><time>2026-04-25T08:43:51.044Z</time></trkpt><trkpt lat="42.3568126" lon="-7.5974805"><ele>1116.6666666666667</ele><time>2026-04-25T08:43:52.038Z</time></trkpt><trkpt lat="42.3567127" lon="-7.5973796"><ele>1114.8333333333333</ele><time>2026-04-25T08:43:54.033Z</time></trkpt><trkpt lat="42.3566249" lon="-7.5973033"><ele>1113.0</ele><time>2026-04-25T08:43:56.04Z</time></trkpt><trkpt lat="42.3565268" lon="-7.5972156"><ele>1113.0</ele><time>2026-04-25T08:43:58.04Z</time></trkpt><trkpt lat="42.3564716" lon="-7.5971675"><ele>1113.0</ele><time>2026-04-25T08:43:59.033Z</time></trkpt><trkpt lat="42.3564119" lon="-7.597119"><ele>1113.0</ele><time>2026-04-25T08:44:00.042Z</time></trkpt><trkpt lat="42.3563541" lon="-7.5970737"><ele>1113.0</ele><time>2026-04-25T08:44:01.047Z</time></trkpt><trkpt lat="42.3562933" lon="-7.5970267"><ele>1113.0</ele><time>2026-04-25T08:44:02.042Z</time></trkpt><trkpt lat="42.3562322" lon="-7.5969761"><ele>1113.0</ele><time>2026-04-25T08:44:03.042Z</time></trkpt><trkpt lat="42.3561635" lon="-7.59692"><ele>1113.0</ele><time>2026-04-25T08:44:04.048Z</time></trkpt><trkpt lat="42.3560913" lon="-7.596869"><ele>1110.4285714285713</ele><time>2026-04-25T08:44:05.039Z</time></trkpt><trkpt lat="42.3560187" lon="-7.5968337"><ele>1107.857142857143</ele><time>2026-04-25T08:44:06.032Z</time></trkpt><trkpt lat="42.3559477" lon="-7.5968013"><ele>1105.2857142857142</ele><time>2026-04-25T08:44:07.039Z</time></trkpt><trkpt lat="42.3558738" lon="-7.5967873"><ele>1102.7142857142858</ele><time>2026-04-25T08:44:08.038Z</time></trkpt><trkpt lat="42.3558056" lon="-7.5967824"><ele>1100.142857142857</ele><time>2026-04-25T08:44:09.046Z</time></trkpt><trkpt lat="42.3557299" lon="-7.5967754"><ele>1097.5714285714284</ele><time>2026-04-25T08:44:10.039Z</time></trkpt><trkpt lat="42.3556593" lon="-7.5967719"><ele>1095.0</ele><time>2026-04-25T08:44:11.045Z</time></trkpt><trkpt lat="42.3555822" lon="-7.5967714"><ele>1093.9999999999998</ele><time>2026-04-25T08:44:12.036Z</time></trkpt><trkpt lat="42.3555037" lon="-7.5967794"><ele>1093.0</ele><time>2026-04-25T08:44:13.038Z</time></trkpt><trkpt lat="42.3554332" lon="-7.5968017"><ele>1092.0</ele><time>2026-04-25T08:44:14.042Z</time></trkpt><trkpt lat="42.3553669" lon="-7.5968228"><ele>1091.0</ele><time>2026-04-25T08:44:15.04Z</time></trkpt><trkpt lat="42.3553003" lon="-7.5968428"><ele>1090.0</ele><time>2026-04-25T08:44:16.04Z</time></trkpt><trkpt lat="42.3552285" lon="-7.5968464"><ele>1088.9999999999998</ele><time>2026-04-25T08:44:17.036Z</time></trkpt><trkpt lat="42.3551517" lon="-7.5968233"><ele>1088.0</ele><time>2026-04-25T08:44:18.036Z</time></trkpt><trkpt lat="42.3550774" lon="-7.5967988"><ele>1088.0</ele><time>2026-04-25T08:44:19.041Z</time></trkpt><trkpt lat="42.3550006" lon="-7.5967796"><ele>1088.0</ele><time>2026-04-25T08:44:20.034Z</time></trkpt><trkpt lat="42.3549204" lon="-7.5967642"><ele>1088.0</ele><time>2026-04-25T08:44:21.04Z</time></trkpt><trkpt lat="42.3548292" lon="-7.5967502"><ele>1088.0</ele><time>2026-04-25T08:44:22.037Z</time></trkpt><trkpt lat="42.3547407" lon="-7.596743"><ele>1088.0</ele><time>2026-04-25T08:44:23.034Z</time></trkpt><trkpt lat="42.3546525" lon="-7.5967413"><ele>1088.0</ele><time>2026-04-25T08:44:24.037Z</time></trkpt><trkpt lat="42.3545658" lon="-7.596743"><ele>1085.6</ele><time>2026-04-25T08:44:25.036Z</time></trkpt><trkpt lat="42.3544816" lon="-7.5967455"><ele>1083.1999999999998</ele><time>2026-04-25T08:44:26.039Z</time></trkpt><trkpt lat="42.3543888" lon="-7.5967681"><ele>1080.8</ele><time>2026-04-25T08:44:27.035Z</time></trkpt><trkpt lat="42.3542982" lon="-7.59679"><ele>1078.3999999999999</ele><time>2026-04-25T08:44:28.036Z</time></trkpt><trkpt lat="42.354206" lon="-7.5968076"><ele>1076.0</ele><time>2026-04-25T08:44:29.044Z</time></trkpt><trkpt lat="42.3541181" lon="-7.5968234"><ele>1076.0</ele><time>2026-04-25T08:44:30.044Z</time></trkpt><trkpt lat="42.3540379" lon="-7.5968377"><ele>1076.0</ele><time>2026-04-25T08:44:31.032Z</time></trkpt><trkpt lat="42.3539652" lon="-7.5968562"><ele>1076.0</ele><time>2026-04-25T08:44:32.037Z</time></trkpt><trkpt lat="42.3538974" lon="-7.5968822"><ele>1076.0</ele><time>2026-04-25T08:44:33.04Z</time></trkpt><trkpt lat="42.3538324" lon="-7.5969246"><ele>1076.0</ele><time>2026-04-25T08:44:34.033Z</time></trkpt><trkpt lat="42.3537721" lon="-7.5969861"><ele>1076.0</ele><time>2026-04-25T08:44:35.041Z</time></trkpt><trkpt lat="42.353723" lon="-7.5970528"><ele>1076.0</ele><time>2026-04-25T08:44:36.036Z</time></trkpt><trkpt lat="42.3536764" lon="-7.5971192"><ele>1074.0</ele><time>2026-04-25T08:44:37.038Z</time></trkpt><trkpt lat="42.3536331" lon="-7.5971816"><ele>1072.0</ele><time>2026-04-25T08:44:38.034Z</time></trkpt><trkpt lat="42.353535" lon="-7.5972397"><ele>1070.0</ele><time>2026-04-25T08:44:40.033Z</time></trkpt><trkpt lat="42.3534337" lon="-7.5972378"><ele>1068.0</ele><time>2026-04-25T08:44:42.048Z</time></trkpt><trkpt lat="42.3533645" lon="-7.5972121"><ele>1066.0</ele><time>2026-04-25T08:44:44.036Z</time></trkpt><trkpt lat="42.3533247" lon="-7.5971349"><ele>1064.0</ele><time>2026-04-25T08:44:46.033Z</time></trkpt><trkpt lat="42.3532763" lon="-7.5969977"><ele>1062.8333333333335</ele><time>2026-04-25T08:44:48.04Z</time></trkpt><trkpt lat="42.3532622" lon="-7.5969092"><ele>1061.6666666666667</ele><time>2026-04-25T08:44:49.032Z</time></trkpt><trkpt lat="42.3532518" lon="-7.5968189"><ele>1060.5</ele><time>2026-04-25T08:44:50.039Z</time></trkpt><trkpt lat="42.3532473" lon="-7.5967338"><ele>1059.3333333333333</ele><time>2026-04-25T08:44:51.041Z</time></trkpt><trkpt lat="42.3532613" lon="-7.5966506"><ele>1058.1666666666665</ele><time>2026-04-25T08:44:52.034Z</time></trkpt><trkpt lat="42.3532891" lon="-7.5964912"><ele>1057.0</ele><time>2026-04-25T08:44:54.056Z</time></trkpt><trkpt lat="42.3533045" lon="-7.5963441"><ele>1057.0</ele><time>2026-04-25T08:44:56.04Z</time></trkpt><trkpt lat="42.3533088" lon="-7.5961865"><ele>1057.0</ele><time>2026-04-25T08:44:58.036Z</time></trkpt><trkpt lat="42.3532702" lon="-7.5960327"><ele>1057.0</ele><time>2026-04-25T08:45:00.034Z</time></trkpt><trkpt lat="42.3531982" lon="-7.5959173"><ele>1057.0</ele><time>2026-04-25T08:45:02.034Z</time></trkpt><trkpt lat="42.3531044" lon="-7.5958236"><ele>1051.8</ele><time>2026-04-25T08:45:04.035Z</time></trkpt><trkpt lat="42.3530314" lon="-7.5956753"><ele>1046.6</ele><time>2026-04-25T08:45:06.034Z</time></trkpt><trkpt lat="42.3529997" lon="-7.5955656"><ele>1041.3999999999999</ele><time>2026-04-25T08:45:07.037Z</time></trkpt><trkpt lat="42.352967" lon="-7.5954592"><ele>1036.2</ele><time>2026-04-25T08:45:08.029Z</time></trkpt><trkpt lat="42.3529239" lon="-7.5953555"><ele>1031.0</ele><time>2026-04-25T08:45:09.035Z</time></trkpt><trkpt lat="42.3528569" lon="-7.595252"><ele>1030.75</ele><time>2026-04-25T08:45:10.038Z</time></trkpt><trkpt lat="42.3527839" lon="-7.5951446"><ele>1030.5</ele><time>2026-04-25T08:45:11.032Z</time></trkpt><trkpt lat="42.3526878" lon="-7.5950353"><ele>1030.25</ele><time>2026-04-25T08:45:12.028Z</time></trkpt><trkpt lat="42.3525869" lon="-7.5949238"><ele>1030.0</ele><time>2026-04-25T08:45:13.043Z</time></trkpt><trkpt lat="42.35248" lon="-7.5948191"><ele>1030.0</ele><time>2026-04-25T08:45:14.032Z</time></trkpt><trkpt lat="42.3523912" lon="-7.5947332"><ele>1030.0</ele><time>2026-04-25T08:45:15.028Z</time></trkpt><trkpt lat="42.3523229" lon="-7.5946517"><ele>1030.0</ele><time>2026-04-25T08:45:16.039Z</time></trkpt><trkpt lat="42.3522723" lon="-7.5945681"><ele>1030.0</ele><time>2026-04-25T08:45:17.042Z</time></trkpt><trkpt lat="42.3522352" lon="-7.5944762"><ele>1030.0</ele><time>2026-04-25T08:45:18.036Z</time></trkpt><trkpt lat="42.3521967" lon="-7.5943591"><ele>1030.0</ele><time>2026-04-25T08:45:19.05Z</time></trkpt><trkpt lat="42.3521572" lon="-7.5942262"><ele>1030.0</ele><time>2026-04-25T08:45:20.044Z</time></trkpt><trkpt lat="42.3521224" lon="-7.594107"><ele>1030.0</ele><time>2026-04-25T08:45:21.043Z</time></trkpt><trkpt lat="42.3520885" lon="-7.5940146"><ele>1030.0</ele><time>2026-04-25T08:45:22.038Z</time></trkpt><trkpt lat="42.3520526" lon="-7.5939006"><ele>1030.0</ele><time>2026-04-25T08:45:24.049Z</time></trkpt><trkpt lat="42.3521425" lon="-7.5938679"><ele>1030.0</ele><time>2026-04-25T08:45:27.036Z</time></trkpt><trkpt lat="42.3522235" lon="-7.593886"><ele>1030.0</ele><time>2026-04-25T08:45:28.048Z</time></trkpt><trkpt lat="42.3523293" lon="-7.5939049"><ele>1030.0</ele><time>2026-04-25T08:45:29.041Z</time></trkpt><trkpt lat="42.3524477" lon="-7.5939296"><ele>1030.0</ele><time>2026-04-25T08:45:30.038Z</time></trkpt><trkpt lat="42.3525766" lon="-7.5939562"><ele>1030.0</ele><time>2026-04-25T08:45:31.042Z</time></trkpt><trkpt lat="42.3526984" lon="-7.5939836"><ele>1030.0</ele><time>2026-04-25T08:45:32.038Z</time></trkpt><trkpt lat="42.3528083" lon="-7.594029"><ele>1030.0</ele><time>2026-04-25T08:45:33.042Z</time></trkpt><trkpt lat="42.3529068" lon="-7.5940822"><ele>1030.0</ele><time>2026-04-25T08:45:34.043Z</time></trkpt><trkpt lat="42.3530002" lon="-7.5941328"><ele>1030.0</ele><time>2026-04-25T08:45:35.044Z</time></trkpt><trkpt lat="42.3530923" lon="-7.594175"><ele>1030.0</ele><time>2026-04-25T08:45:36.045Z</time></trkpt><trkpt lat="42.3532011" lon="-7.5942162"><ele>1029.2</ele><time>2026-04-25T08:45:37.061Z</time></trkpt><trkpt lat="42.3533095" lon="-7.5942472"><ele>1028.4</ele><time>2026-04-25T08:45:38.047Z</time></trkpt><trkpt lat="42.3534135" lon="-7.594276"><ele>1027.6</ele><time>2026-04-25T08:45:39.04Z</time></trkpt><trkpt lat="42.3535149" lon="-7.5942957"><ele>1026.8</ele><time>2026-04-25T08:45:40.042Z</time></trkpt><trkpt lat="42.353602" lon="-7.594303"><ele>1026.0</ele><time>2026-04-25T08:45:41.035Z</time></trkpt><trkpt lat="42.3536841" lon="-7.5943086"><ele>1026.0</ele><time>2026-04-25T08:45:42.05Z</time></trkpt><trkpt lat="42.3537575" lon="-7.5942935"><ele>1026.0</ele><time>2026-04-25T08:45:43.037Z</time></trkpt><trkpt lat="42.3538363" lon="-7.5942493"><ele>1026.0</ele><time>2026-04-25T08:45:44.033Z</time></trkpt><trkpt lat="42.3539339" lon="-7.5941737"><ele>1026.0</ele><time>2026-04-25T08:45:45.04Z</time></trkpt><trkpt lat="42.3540213" lon="-7.5940961"><ele>1026.0</ele><time>2026-04-25T08:45:46.038Z</time></trkpt><trkpt lat="42.3540952" lon="-7.5940215"><ele>1026.5</ele><time>2026-04-25T08:45:47.034Z</time></trkpt><trkpt lat="42.3541685" lon="-7.5939645"><ele>1027.0</ele><time>2026-04-25T08:45:48.04Z</time></trkpt><trkpt lat="42.3542307" lon="-7.59391"><ele>1027.5</ele><time>2026-04-25T08:45:49.047Z</time></trkpt><trkpt lat="42.3542851" lon="-7.5938554"><ele>1028.0</ele><time>2026-04-25T08:45:50.039Z</time></trkpt><trkpt lat="42.3543788" lon="-7.5937557"><ele>1028.5</ele><time>2026-04-25T08:45:52.036Z</time></trkpt><trkpt lat="42.3544377" lon="-7.5936834"><ele>1029.0</ele><time>2026-04-25T08:45:53.032Z</time></trkpt><trkpt lat="42.3545067" lon="-7.5936052"><ele>1027.2</ele><time>2026-04-25T08:45:54.034Z</time></trkpt><trkpt lat="42.3545818" lon="-7.5935346"><ele>1025.4</ele><time>2026-04-25T08:45:55.038Z</time></trkpt><trkpt lat="42.3546561" lon="-7.5934634"><ele>1023.6</ele><time>2026-04-25T08:45:56.037Z</time></trkpt><trkpt lat="42.3547323" lon="-7.5934035"><ele>1021.8</ele><time>2026-04-25T08:45:57.039Z</time></trkpt><trkpt lat="42.3548275" lon="-7.5933436"><ele>1020.0</ele><time>2026-04-25T08:45:58.036Z</time></trkpt><trkpt lat="42.3549322" lon="-7.5932963"><ele>1020.0</ele><time>2026-04-25T08:45:59.038Z</time></trkpt><trkpt lat="42.3550348" lon="-7.5932593"><ele>1020.0</ele><time>2026-04-25T08:46:00.037Z</time></trkpt><trkpt lat="42.3551353" lon="-7.5932245"><ele>1020.0</ele><time>2026-04-25T08:46:01.037Z</time></trkpt><trkpt lat="42.3552428" lon="-7.5932181"><ele>1020.0</ele><time>2026-04-25T08:46:02.035Z</time></trkpt><trkpt lat="42.3553463" lon="-7.593211"><ele>1020.0</ele><time>2026-04-25T08:46:03.032Z</time></trkpt><trkpt lat="42.3554463" lon="-7.5932197"><ele>1018.8</ele><time>2026-04-25T08:46:04.044Z</time></trkpt><trkpt lat="42.3555457" lon="-7.5932419"><ele>1017.6</ele><time>2026-04-25T08:46:05.028Z</time></trkpt><trkpt lat="42.3556473" lon="-7.593277"><ele>1016.4000000000001</ele><time>2026-04-25T08:46:06.028Z</time></trkpt><trkpt lat="42.3557361" lon="-7.5933242"><ele>1015.2</ele><time>2026-04-25T08:46:07.029Z</time></trkpt><trkpt lat="42.3558218" lon="-7.5933773"><ele>1014.0</ele><time>2026-04-25T08:46:08.034Z</time></trkpt><trkpt lat="42.355902" lon="-7.5934327"><ele>1014.0</ele><time>2026-04-25T08:46:09.037Z</time></trkpt><trkpt lat="42.3559727" lon="-7.5934925"><ele>1014.0</ele><time>2026-04-25T08:46:10.036Z</time></trkpt><trkpt lat="42.356038" lon="-7.5935422"><ele>1014.0</ele><time>2026-04-25T08:46:11.037Z</time></trkpt><trkpt lat="42.3561088" lon="-7.5935779"><ele>1014.0</ele><time>2026-04-25T08:46:12.034Z</time></trkpt><trkpt lat="42.3561767" lon="-7.5936085"><ele>1014.0</ele><time>2026-04-25T08:46:13.038Z</time></trkpt><trkpt lat="42.3562479" lon="-7.5936303"><ele>1014.0</ele><time>2026-04-25T08:46:14.033Z</time></trkpt><trkpt lat="42.3563214" lon="-7.593624"><ele>1013.2</ele><time>2026-04-25T08:46:15.039Z</time></trkpt><trkpt lat="42.3564017" lon="-7.5935906"><ele>1012.4000000000001</ele><time>2026-04-25T08:46:16.032Z</time></trkpt><trkpt lat="42.3564863" lon="-7.5935413"><ele>1011.6</ele><time>2026-04-25T08:46:17.033Z</time></trkpt><trkpt lat="42.3565858" lon="-7.5935031"><ele>1010.8</ele><time>2026-04-25T08:46:18.033Z</time></trkpt><trkpt lat="42.3566825" lon="-7.5934862"><ele>1010.0</ele><time>2026-04-25T08:46:19.032Z</time></trkpt><trkpt lat="42.3567739" lon="-7.5934697"><ele>1010.0</ele><time>2026-04-25T08:46:20.042Z</time></trkpt><trkpt lat="42.3568562" lon="-7.5934339"><ele>1010.0</ele><time>2026-04-25T08:46:21.032Z</time></trkpt><trkpt lat="42.3569307" lon="-7.5933673"><ele>1010.0</ele><time>2026-04-25T08:46:22.031Z</time></trkpt><trkpt lat="42.3570072" lon="-7.5932772"><ele>1010.0</ele><time>2026-04-25T08:46:23.033Z</time></trkpt><trkpt lat="42.3570936" lon="-7.5931585"><ele>1010.0</ele><time>2026-04-25T08:46:24.029Z</time></trkpt><trkpt lat="42.3571766" lon="-7.5930405"><ele>1008.2</ele><time>2026-04-25T08:46:25.043Z</time></trkpt><trkpt lat="42.3572522" lon="-7.5929355"><ele>1006.4</ele><time>2026-04-25T08:46:26.034Z</time></trkpt><trkpt lat="42.3573279" lon="-7.5928413"><ele>1004.5999999999999</ele><time>2026-04-25T08:46:27.033Z</time></trkpt><trkpt lat="42.357401" lon="-7.592757"><ele>1002.8</ele><time>2026-04-25T08:46:28.047Z</time></trkpt><trkpt lat="42.3574788" lon="-7.5926818"><ele>1001.0</ele><time>2026-04-25T08:46:29.033Z</time></trkpt><trkpt lat="42.3575599" lon="-7.5926249"><ele>1001.0</ele><time>2026-04-25T08:46:30.033Z</time></trkpt><trkpt lat="42.3576657" lon="-7.5925916"><ele>1001.0</ele><time>2026-04-25T08:46:31.032Z</time></trkpt><trkpt lat="42.3577867" lon="-7.5925708"><ele>1001.0</ele><time>2026-04-25T08:46:32.032Z</time></trkpt><trkpt lat="42.3579002" lon="-7.5925476"><ele>1001.0</ele><time>2026-04-25T08:46:33.039Z</time></trkpt><trkpt lat="42.3580168" lon="-7.5925681"><ele>999.5</ele><time>2026-04-25T08:46:34.039Z</time></trkpt><trkpt lat="42.3581381" lon="-7.5926037"><ele>998.0</ele><time>2026-04-25T08:46:35.034Z</time></trkpt><trkpt lat="42.3582628" lon="-7.5926571"><ele>996.5</ele><time>2026-04-25T08:46:36.033Z</time></trkpt><trkpt lat="42.3583726" lon="-7.592727"><ele>995.0</ele><time>2026-04-25T08:46:37.036Z</time></trkpt><trkpt lat="42.3584796" lon="-7.5928141"><ele>1002.5</ele><time>2026-04-25T08:46:38.035Z</time></trkpt><trkpt lat="42.3585861" lon="-7.5929199"><ele>1010.0</ele><time>2026-04-25T08:46:39.036Z</time></trkpt><trkpt lat="42.358683" lon="-7.5930217"><ele>1017.5</ele><time>2026-04-25T08:46:40.05Z</time></trkpt><trkpt lat="42.3587719" lon="-7.5931098"><ele>1025.0</ele><time>2026-04-25T08:46:41.036Z</time></trkpt><trkpt lat="42.3588558" lon="-7.5931865"><ele>1022.2</ele><time>2026-04-25T08:46:42.042Z</time></trkpt><trkpt lat="42.3589404" lon="-7.593236"><ele>1019.4</ele><time>2026-04-25T08:46:43.038Z</time></trkpt><trkpt lat="42.3590328" lon="-7.5932598"><ele>1016.5999999999999</ele><time>2026-04-25T08:46:44.036Z</time></trkpt><trkpt lat="42.3591347" lon="-7.5932676"><ele>1013.8</ele><time>2026-04-25T08:46:45.049Z</time></trkpt><trkpt lat="42.3592244" lon="-7.593263"><ele>1011.0</ele><time>2026-04-25T08:46:46.037Z</time></trkpt><trkpt lat="42.359306" lon="-7.5932591"><ele>1011.0</ele><time>2026-04-25T08:46:47.054Z</time></trkpt><trkpt lat="42.3594026" lon="-7.5932824"><ele>1010.9999999999999</ele><time>2026-04-25T08:46:48.035Z</time></trkpt><trkpt lat="42.3595151" lon="-7.5933118"><ele>1010.9999999999999</ele><time>2026-04-25T08:46:49.034Z</time></trkpt><trkpt lat="42.3596263" lon="-7.5933438"><ele>1011.0</ele><time>2026-04-25T08:46:50.033Z</time></trkpt><trkpt lat="42.3597269" lon="-7.5933782"><ele>1011.0</ele><time>2026-04-25T08:46:51.039Z</time></trkpt><trkpt lat="42.3598252" lon="-7.5934113"><ele>1007.4</ele><time>2026-04-25T08:46:52.045Z</time></trkpt><trkpt lat="42.3599281" lon="-7.5934631"><ele>1003.8</ele><time>2026-04-25T08:46:53.035Z</time></trkpt><trkpt lat="42.3600445" lon="-7.5935267"><ele>1000.1999999999999</ele><time>2026-04-25T08:46:54.037Z</time></trkpt><trkpt lat="42.3601463" lon="-7.5935804"><ele>996.5999999999999</ele><time>2026-04-25T08:46:55.04Z</time></trkpt><trkpt lat="42.3602307" lon="-7.5936231"><ele>993.0</ele><time>2026-04-25T08:46:56.033Z</time></trkpt><trkpt lat="42.3603038" lon="-7.5936607"><ele>991.8333333333334</ele><time>2026-04-25T08:46:57.052Z</time></trkpt><trkpt lat="42.3603766" lon="-7.5936944"><ele>990.6666666666667</ele><time>2026-04-25T08:46:58.033Z</time></trkpt><trkpt lat="42.3604471" lon="-7.5937262"><ele>989.5</ele><time>2026-04-25T08:46:59.034Z</time></trkpt><trkpt lat="42.3605215" lon="-7.593768"><ele>988.3333333333334</ele><time>2026-04-25T08:47:00.042Z</time></trkpt><trkpt lat="42.3606015" lon="-7.5938234"><ele>987.1666666666667</ele><time>2026-04-25T08:47:01.045Z</time></trkpt><trkpt lat="42.3606827" lon="-7.5938961"><ele>986.0</ele><time>2026-04-25T08:47:02.041Z</time></trkpt><trkpt lat="42.3607718" lon="-7.5939782"><ele>986.0</ele><time>2026-04-25T08:47:03.048Z</time></trkpt><trkpt lat="42.3608707" lon="-7.5940858"><ele>986.0</ele><time>2026-04-25T08:47:04.042Z</time></trkpt><trkpt lat="42.3609783" lon="-7.5941978"><ele>986.0</ele><time>2026-04-25T08:47:05.04Z</time></trkpt><trkpt lat="42.361091" lon="-7.5943206"><ele>986.0</ele><time>2026-04-25T08:47:06.042Z</time></trkpt><trkpt lat="42.3611929" lon="-7.5944342"><ele>983.75</ele><time>2026-04-25T08:47:07.054Z</time></trkpt><trkpt lat="42.3612828" lon="-7.5945406"><ele>981.5</ele><time>2026-04-25T08:47:08.039Z</time></trkpt><trkpt lat="42.3613686" lon="-7.594651"><ele>979.25</ele><time>2026-04-25T08:47:09.038Z</time></trkpt><trkpt lat="42.361458" lon="-7.5947672"><ele>977.0</ele><time>2026-04-25T08:47:10.048Z</time></trkpt><trkpt lat="42.3615477" lon="-7.5948873"><ele>977.0</ele><time>2026-04-25T08:47:11.043Z</time></trkpt><trkpt lat="42.3616309" lon="-7.5950019"><ele>977.0</ele><time>2026-04-25T08:47:12.047Z</time></trkpt><trkpt lat="42.3617041" lon="-7.5951163"><ele>977.0</ele><time>2026-04-25T08:47:13.041Z</time></trkpt><trkpt lat="42.3617738" lon="-7.5952269"><ele>977.0</ele><time>2026-04-25T08:47:14.043Z</time></trkpt><trkpt lat="42.3618379" lon="-7.5953475"><ele>977.0</ele><time>2026-04-25T08:47:15.043Z</time></trkpt><trkpt lat="42.3619014" lon="-7.5954654"><ele>979.75</ele><time>2026-04-25T08:47:16.048Z</time></trkpt><trkpt lat="42.3619542" lon="-7.5955948"><ele>982.5</ele><time>2026-04-25T08:47:17.043Z</time></trkpt><trkpt lat="42.3620049" lon="-7.5957262"><ele>985.25</ele><time>2026-04-25T08:47:18.044Z</time></trkpt><trkpt lat="42.3620299" lon="-7.5958888"><ele>988.0</ele><time>2026-04-25T08:47:19.036Z</time></trkpt><trkpt lat="42.3620428" lon="-7.596063"><ele>988.6666666666666</ele><time>2026-04-25T08:47:20.054Z</time></trkpt><trkpt lat="42.3620428" lon="-7.596245"><ele>989.3333333333333</ele><time>2026-04-25T08:47:21.035Z</time></trkpt><trkpt lat="42.36203" lon="-7.5964508"><ele>990.0</ele><time>2026-04-25T08:47:22.037Z</time></trkpt><trkpt lat="42.3620062" lon="-7.5966707"><ele>990.0</ele><time>2026-04-25T08:47:23.034Z</time></trkpt><trkpt lat="42.3619766" lon="-7.5968698"><ele>990.0</ele><time>2026-04-25T08:47:24.033Z</time></trkpt><trkpt lat="42.3619449" lon="-7.5970423"><ele>990.0</ele><time>2026-04-25T08:47:25.038Z</time></trkpt><trkpt lat="42.3619102" lon="-7.5971942"><ele>990.0</ele><time>2026-04-25T08:47:26.058Z</time></trkpt><trkpt lat="42.3618744" lon="-7.5973473"><ele>990.4</ele><time>2026-04-25T08:47:27.033Z</time></trkpt><trkpt lat="42.3618492" lon="-7.5975003"><ele>990.8</ele><time>2026-04-25T08:47:28.034Z</time></trkpt><trkpt lat="42.3618465" lon="-7.5976305"><ele>991.2</ele><time>2026-04-25T08:47:29.038Z</time></trkpt><trkpt lat="42.361868" lon="-7.5977367"><ele>991.6</ele><time>2026-04-25T08:47:30.039Z</time></trkpt><trkpt lat="42.3619119" lon="-7.5978307"><ele>992.0</ele><time>2026-04-25T08:47:31.035Z</time></trkpt><trkpt lat="42.3619806" lon="-7.5979342"><ele>992.0</ele><time>2026-04-25T08:47:32.037Z</time></trkpt><trkpt lat="42.3620513" lon="-7.5980381"><ele>992.0</ele><time>2026-04-25T08:47:33.035Z</time></trkpt><trkpt lat="42.3621488" lon="-7.598133"><ele>992.0</ele><time>2026-04-25T08:47:34.035Z</time></trkpt><trkpt lat="42.362253" lon="-7.5982353"><ele>992.0</ele><time>2026-04-25T08:47:35.05Z</time></trkpt><trkpt lat="42.3623531" lon="-7.5983397"><ele>993.5</ele><time>2026-04-25T08:47:36.039Z</time></trkpt><trkpt lat="42.3624487" lon="-7.5984432"><ele>995.0</ele><time>2026-04-25T08:47:37.036Z</time></trkpt><trkpt lat="42.362553" lon="-7.5985654"><ele>996.5</ele><time>2026-04-25T08:47:38.042Z</time></trkpt><trkpt lat="42.3626406" lon="-7.5986645"><ele>998.0</ele><time>2026-04-25T08:47:39.037Z</time></trkpt><trkpt lat="42.3627142" lon="-7.5987652"><ele>998.0</ele><time>2026-04-25T08:47:40.037Z</time></trkpt><trkpt lat="42.3627766" lon="-7.5988799"><ele>998.0</ele><time>2026-04-25T08:47:41.035Z</time></trkpt><trkpt lat="42.3628414" lon="-7.5989959"><ele>998.0</ele><time>2026-04-25T08:47:42.038Z</time></trkpt><trkpt lat="42.3629143" lon="-7.5991081"><ele>998.0</ele><time>2026-04-25T08:47:43.035Z</time></trkpt><trkpt lat="42.3630219" lon="-7.5992062"><ele>993.0</ele><time>2026-04-25T08:47:44.039Z</time></trkpt><trkpt lat="42.3631297" lon="-7.5993012"><ele>988.0</ele><time>2026-04-25T08:47:45.031Z</time></trkpt><trkpt lat="42.3632289" lon="-7.5993695"><ele>983.0</ele><time>2026-04-25T08:47:46.038Z</time></trkpt><trkpt lat="42.3633245" lon="-7.5994236"><ele>978.0</ele><time>2026-04-25T08:47:47.041Z</time></trkpt><trkpt lat="42.3634288" lon="-7.5994765"><ele>979.2</ele><time>2026-04-25T08:47:48.036Z</time></trkpt><trkpt lat="42.3635359" lon="-7.5995253"><ele>980.4</ele><time>2026-04-25T08:47:49.037Z</time></trkpt><trkpt lat="42.3636384" lon="-7.5995565"><ele>981.6000000000001</ele><time>2026-04-25T08:47:50.037Z</time></trkpt><trkpt lat="42.3637338" lon="-7.5995602"><ele>982.8000000000001</ele><time>2026-04-25T08:47:51.033Z</time></trkpt><trkpt lat="42.3638293" lon="-7.5995389"><ele>984.0</ele><time>2026-04-25T08:47:52.038Z</time></trkpt><trkpt lat="42.3639321" lon="-7.5995106"><ele>981.0</ele><time>2026-04-25T08:47:53.034Z</time></trkpt><trkpt lat="42.364031" lon="-7.5994867"><ele>978.0000000000001</ele><time>2026-04-25T08:47:54.04Z</time></trkpt><trkpt lat="42.3641207" lon="-7.5994633"><ele>975.0000000000001</ele><time>2026-04-25T08:47:55.029Z</time></trkpt><trkpt lat="42.3641883" lon="-7.5994274"><ele>972.0</ele><time>2026-04-25T08:47:56.035Z</time></trkpt><trkpt lat="42.3642476" lon="-7.5993916"><ele>969.0</ele><time>2026-04-25T08:47:57.05Z</time></trkpt><trkpt lat="42.364324" lon="-7.5992655"><ele>969.0</ele><time>2026-04-25T08:47:59.035Z</time></trkpt><trkpt lat="42.3643465" lon="-7.5991499"><ele>969.0</ele><time>2026-04-25T08:48:00.04Z</time></trkpt><trkpt lat="42.3643645" lon="-7.59904"><ele>969.0</ele><time>2026-04-25T08:48:01.038Z</time></trkpt><trkpt lat="42.3643956" lon="-7.5989469"><ele>969.0</ele><time>2026-04-25T08:48:02.038Z</time></trkpt><trkpt lat="42.364437" lon="-7.5988634"><ele>969.0</ele><time>2026-04-25T08:48:03.038Z</time></trkpt><trkpt lat="42.3644819" lon="-7.5987756"><ele>969.0</ele><time>2026-04-25T08:48:04.036Z</time></trkpt><trkpt lat="42.3645526" lon="-7.5987128"><ele>967.6666666666666</ele><time>2026-04-25T08:48:05.037Z</time></trkpt><trkpt lat="42.3646264" lon="-7.5986623"><ele>966.3333333333333</ele><time>2026-04-25T08:48:06.044Z</time></trkpt><trkpt lat="42.364701" lon="-7.5986314"><ele>965.0</ele><time>2026-04-25T08:48:07.037Z</time></trkpt><trkpt lat="42.3647849" lon="-7.598621"><ele>963.6666666666666</ele><time>2026-04-25T08:48:08.044Z</time></trkpt><trkpt lat="42.364867" lon="-7.5986309"><ele>962.3333333333333</ele><time>2026-04-25T08:48:09.038Z</time></trkpt><trkpt lat="42.3649499" lon="-7.5986629"><ele>961.0</ele><time>2026-04-25T08:48:10.033Z</time></trkpt><trkpt lat="42.3650323" lon="-7.5987015"><ele>960.0</ele><time>2026-04-25T08:48:11.036Z</time></trkpt><trkpt lat="42.365091" lon="-7.5987859"><ele>958.9999999999999</ele><time>2026-04-25T08:48:12.037Z</time></trkpt><trkpt lat="42.3651574" lon="-7.5988789"><ele>957.9999999999999</ele><time>2026-04-25T08:48:13.038Z</time></trkpt><trkpt lat="42.3652164" lon="-7.5989899"><ele>957.0</ele><time>2026-04-25T08:48:14.034Z</time></trkpt><trkpt lat="42.3652785" lon="-7.5991021"><ele>956.0</ele><time>2026-04-25T08:48:15.053Z</time></trkpt><trkpt lat="42.3653377" lon="-7.599215"><ele>956.0</ele><time>2026-04-25T08:48:16.037Z</time></trkpt><trkpt lat="42.3653878" lon="-7.5993341"><ele>955.9999999999999</ele><time>2026-04-25T08:48:17.044Z</time></trkpt><trkpt lat="42.3654319" lon="-7.5994456"><ele>955.9999999999999</ele><time>2026-04-25T08:48:18.034Z</time></trkpt><trkpt lat="42.3654722" lon="-7.5995589"><ele>956.0</ele><time>2026-04-25T08:48:19.038Z</time></trkpt><trkpt lat="42.365502" lon="-7.5996647"><ele>956.0</ele><time>2026-04-25T08:48:20.04Z</time></trkpt><trkpt lat="42.3655345" lon="-7.5997712"><ele>952.5000000000001</ele><time>2026-04-25T08:48:21.036Z</time></trkpt><trkpt lat="42.3655604" lon="-7.5998714"><ele>949.0</ele><time>2026-04-25T08:48:22.047Z</time></trkpt><trkpt lat="42.3655766" lon="-7.5999639"><ele>945.5</ele><time>2026-04-25T08:48:23.036Z</time></trkpt><trkpt lat="42.3655936" lon="-7.6000522"><ele>942.0</ele><time>2026-04-25T08:48:24.033Z</time></trkpt><trkpt lat="42.3656077" lon="-7.6001363"><ele>938.5000000000001</ele><time>2026-04-25T08:48:25.038Z</time></trkpt><trkpt lat="42.3656406" lon="-7.6003031"><ele>935.0</ele><time>2026-04-25T08:48:27.045Z</time></trkpt><trkpt lat="42.3656685" lon="-7.6004181"><ele>934.4</ele><time>2026-04-25T08:48:28.036Z</time></trkpt><trkpt lat="42.3657018" lon="-7.6005274"><ele>933.8</ele><time>2026-04-25T08:48:29.038Z</time></trkpt><trkpt lat="42.3657427" lon="-7.6006222"><ele>933.2</ele><time>2026-04-25T08:48:30.036Z</time></trkpt><trkpt lat="42.3657921" lon="-7.6007191"><ele>932.6</ele><time>2026-04-25T08:48:31.035Z</time></trkpt><trkpt lat="42.3658588" lon="-7.6008211"><ele>932.0</ele><time>2026-04-25T08:48:32.038Z</time></trkpt><trkpt lat="42.3659305" lon="-7.6009231"><ele>932.0</ele><time>2026-04-25T08:48:33.046Z</time></trkpt><trkpt lat="42.3659981" lon="-7.6010326"><ele>932.0</ele><time>2026-04-25T08:48:34.039Z</time></trkpt><trkpt lat="42.3660498" lon="-7.6011468"><ele>932.0</ele><time>2026-04-25T08:48:35.05Z</time></trkpt><trkpt lat="42.3660948" lon="-7.6012545"><ele>932.0</ele><time>2026-04-25T08:48:36.037Z</time></trkpt><trkpt lat="42.3661403" lon="-7.6013576"><ele>932.0</ele><time>2026-04-25T08:48:37.037Z</time></trkpt><trkpt lat="42.3661985" lon="-7.6014414"><ele>931.3333333333334</ele><time>2026-04-25T08:48:38.053Z</time></trkpt><trkpt lat="42.3662608" lon="-7.601507"><ele>930.6666666666667</ele><time>2026-04-25T08:48:39.043Z</time></trkpt><trkpt lat="42.3663238" lon="-7.6015501"><ele>930.0</ele><time>2026-04-25T08:48:40.045Z</time></trkpt><trkpt lat="42.3663856" lon="-7.6015812"><ele>929.3333333333333</ele><time>2026-04-25T08:48:41.038Z</time></trkpt><trkpt lat="42.3664772" lon="-7.6016199"><ele>928.6666666666666</ele><time>2026-04-25T08:48:43.048Z</time></trkpt><trkpt lat="42.3665506" lon="-7.6016736"><ele>928.0</ele><time>2026-04-25T08:48:46.038Z</time></trkpt><trkpt lat="42.3666384" lon="-7.6015836"><ele>925.8</ele><time>2026-04-25T08:49:06.051Z</time></trkpt><trkpt lat="42.3666637" lon="-7.6014806"><ele>923.5999999999999</ele><time>2026-04-25T08:49:07.046Z</time></trkpt><trkpt lat="42.3666847" lon="-7.6013464"><ele>921.4000000000001</ele><time>2026-04-25T08:49:08.041Z</time></trkpt><trkpt lat="42.3667073" lon="-7.6011942"><ele>919.2</ele><time>2026-04-25T08:49:09.036Z</time></trkpt><trkpt lat="42.3667325" lon="-7.6010305"><ele>917.0</ele><time>2026-04-25T08:49:10.043Z</time></trkpt><trkpt lat="42.3667623" lon="-7.6008514"><ele>917.0</ele><time>2026-04-25T08:49:11.035Z</time></trkpt><trkpt lat="42.3667949" lon="-7.6006732"><ele>917.0</ele><time>2026-04-25T08:49:12.049Z</time></trkpt><trkpt lat="42.3668253" lon="-7.6005054"><ele>917.0</ele><time>2026-04-25T08:49:13.042Z</time></trkpt><trkpt lat="42.3668548" lon="-7.6003297"><ele>917.0</ele><time>2026-04-25T08:49:14.037Z</time></trkpt><trkpt lat="42.3668815" lon="-7.6001495"><ele>917.5</ele><time>2026-04-25T08:49:15.036Z</time></trkpt><trkpt lat="42.3669082" lon="-7.5999823"><ele>918.0</ele><time>2026-04-25T08:49:16.038Z</time></trkpt><trkpt lat="42.366938" lon="-7.5998214"><ele>918.5</ele><time>2026-04-25T08:49:17.05Z</time></trkpt><trkpt lat="42.3669689" lon="-7.5996579"><ele>919.0</ele><time>2026-04-25T08:49:18.032Z</time></trkpt><trkpt lat="42.366999" lon="-7.5994905"><ele>919.25</ele><time>2026-04-25T08:49:19.037Z</time></trkpt><trkpt lat="42.3670312" lon="-7.5993201"><ele>919.5</ele><time>2026-04-25T08:49:20.043Z</time></trkpt><trkpt lat="42.367065" lon="-7.5991452"><ele>919.75</ele><time>2026-04-25T08:49:21.044Z</time></trkpt><trkpt lat="42.3670992" lon="-7.5989729"><ele>920.0</ele><time>2026-04-25T08:49:22.051Z</time></trkpt><trkpt lat="42.3671298" lon="-7.598813"><ele>920.0</ele><time>2026-04-25T08:49:23.035Z</time></trkpt><trkpt lat="42.367159" lon="-7.5986642"><ele>920.0</ele><time>2026-04-25T08:49:24.04Z</time></trkpt><trkpt lat="42.3671884" lon="-7.5985196"><ele>920.0</ele><time>2026-04-25T08:49:25.041Z</time></trkpt><trkpt lat="42.3672167" lon="-7.5983713"><ele>920.0</ele><time>2026-04-25T08:49:26.04Z</time></trkpt><trkpt lat="42.3672438" lon="-7.5982119"><ele>916.0</ele><time>2026-04-25T08:49:27.04Z</time></trkpt><trkpt lat="42.3672686" lon="-7.5980426"><ele>912.0</ele><time>2026-04-25T08:49:28.045Z</time></trkpt><trkpt lat="42.3672818" lon="-7.5978608"><ele>908.0</ele><time>2026-04-25T08:49:29.049Z</time></trkpt><trkpt lat="42.3672736" lon="-7.5976688"><ele>904.0</ele><time>2026-04-25T08:49:30.04Z</time></trkpt><trkpt lat="42.367243" lon="-7.5974849"><ele>904.0</ele><time>2026-04-25T08:49:31.038Z</time></trkpt><trkpt lat="42.3672013" lon="-7.5973117"><ele>904.0</ele><time>2026-04-25T08:49:32.044Z</time></trkpt><trkpt lat="42.3671565" lon="-7.5971454"><ele>904.0</ele><time>2026-04-25T08:49:33.035Z</time></trkpt><trkpt lat="42.3671097" lon="-7.5969885"><ele>904.0</ele><time>2026-04-25T08:49:34.037Z</time></trkpt><trkpt lat="42.367064" lon="-7.596838"><ele>904.0</ele><time>2026-04-25T08:49:35.037Z</time></trkpt><trkpt lat="42.3670225" lon="-7.5966957"><ele>904.0</ele><time>2026-04-25T08:49:36.04Z</time></trkpt><trkpt lat="42.3669837" lon="-7.5965588"><ele>904.0</ele><time>2026-04-25T08:49:37.039Z</time></trkpt><trkpt lat="42.3669381" lon="-7.5964192"><ele>904.0</ele><time>2026-04-25T08:49:38.044Z</time></trkpt><trkpt lat="42.3668824" lon="-7.5962743"><ele>901.5</ele><time>2026-04-25T08:49:39.04Z</time></trkpt><trkpt lat="42.3668175" lon="-7.5961234"><ele>899.0</ele><time>2026-04-25T08:49:40.039Z</time></trkpt><trkpt lat="42.3667456" lon="-7.5959683"><ele>896.5</ele><time>2026-04-25T08:49:41.051Z</time></trkpt><trkpt lat="42.3666726" lon="-7.5958183"><ele>894.0</ele><time>2026-04-25T08:49:42.036Z</time></trkpt><trkpt lat="42.3665981" lon="-7.595677"><ele>894.0</ele><time>2026-04-25T08:49:43.034Z</time></trkpt><trkpt lat="42.3665233" lon="-7.5955401"><ele>894.0</ele><time>2026-04-25T08:49:44.036Z</time></trkpt><trkpt lat="42.3664496" lon="-7.5953986"><ele>894.0</ele><time>2026-04-25T08:49:45.039Z</time></trkpt><trkpt lat="42.366381" lon="-7.5952544"><ele>894.0</ele><time>2026-04-25T08:49:46.032Z</time></trkpt><trkpt lat="42.3663201" lon="-7.5951074"><ele>892.75</ele><time>2026-04-25T08:49:47.073Z</time></trkpt><trkpt lat="42.3662642" lon="-7.5949523"><ele>891.5</ele><time>2026-04-25T08:49:48.039Z</time></trkpt><trkpt lat="42.3662098" lon="-7.5947869"><ele>890.25</ele><time>2026-04-25T08:49:49.038Z</time></trkpt><trkpt lat="42.3661599" lon="-7.5946204"><ele>889.0</ele><time>2026-04-25T08:49:50.034Z</time></trkpt><trkpt lat="42.3661119" lon="-7.5944552"><ele>886.75</ele><time>2026-04-25T08:49:51.037Z</time></trkpt><trkpt lat="42.3660659" lon="-7.5942912"><ele>884.5</ele><time>2026-04-25T08:49:52.041Z</time></trkpt><trkpt lat="42.3660224" lon="-7.5941292"><ele>882.25</ele><time>2026-04-25T08:49:53.046Z</time></trkpt><trkpt lat="42.3659833" lon="-7.5939683"><ele>880.0</ele><time>2026-04-25T08:49:54.04Z</time></trkpt><trkpt lat="42.3659474" lon="-7.5938096"><ele>877.75</ele><time>2026-04-25T08:49:55.033Z</time></trkpt><trkpt lat="42.3659113" lon="-7.5936532"><ele>875.5</ele><time>2026-04-25T08:49:56.036Z</time></trkpt><trkpt lat="42.3658712" lon="-7.5934944"><ele>873.25</ele><time>2026-04-25T08:49:57.034Z</time></trkpt><trkpt lat="42.3658295" lon="-7.5933324"><ele>871.0</ele><time>2026-04-25T08:49:58.034Z</time></trkpt><trkpt lat="42.3657861" lon="-7.5931712"><ele>871.0</ele><time>2026-04-25T08:49:59.03Z</time></trkpt><trkpt lat="42.3657587" lon="-7.5930127"><ele>871.0</ele><time>2026-04-25T08:50:00.035Z</time></trkpt><trkpt lat="42.3657467" lon="-7.5928523"><ele>871.0</ele><time>2026-04-25T08:50:01.038Z</time></trkpt><trkpt lat="42.3657597" lon="-7.5926955"><ele>871.0</ele><time>2026-04-25T08:50:02.039Z</time></trkpt><trkpt lat="42.3657756" lon="-7.5925399"><ele>870.4</ele><time>2026-04-25T08:50:03.039Z</time></trkpt><trkpt lat="42.3658444" lon="-7.5924171"><ele>869.8</ele><time>2026-04-25T08:50:04.031Z</time></trkpt><trkpt lat="42.3659301" lon="-7.5923146"><ele>869.1999999999999</ele><time>2026-04-25T08:50:05.036Z</time></trkpt><trkpt lat="42.3660198" lon="-7.5922366"><ele>868.5999999999999</ele><time>2026-04-25T08:50:06.036Z</time></trkpt><trkpt lat="42.3661052" lon="-7.5921669"><ele>868.0</ele><time>2026-04-25T08:50:07.042Z</time></trkpt><trkpt lat="42.3661839" lon="-7.5921002"><ele>868.0</ele><time>2026-04-25T08:50:08.046Z</time></trkpt><trkpt lat="42.3662587" lon="-7.5920287"><ele>868.0</ele><time>2026-04-25T08:50:09.036Z</time></trkpt><trkpt lat="42.3663324" lon="-7.5919508"><ele>868.0</ele><time>2026-04-25T08:50:10.031Z</time></trkpt><trkpt lat="42.3664057" lon="-7.5918643"><ele>868.0</ele><time>2026-04-25T08:50:11.033Z</time></trkpt><trkpt lat="42.3664867" lon="-7.5917625"><ele>868.0</ele><time>2026-04-25T08:50:12.035Z</time></trkpt><trkpt lat="42.3665718" lon="-7.5916414"><ele>866.75</ele><time>2026-04-25T08:50:13.033Z</time></trkpt><trkpt lat="42.3666581" lon="-7.5915036"><ele>865.5</ele><time>2026-04-25T08:50:14.047Z</time></trkpt><trkpt lat="42.366743" lon="-7.5913449"><ele>864.25</ele><time>2026-04-25T08:50:15.041Z</time></trkpt><trkpt lat="42.3668252" lon="-7.5911783"><ele>863.0</ele><time>2026-04-25T08:50:16.04Z</time></trkpt><trkpt lat="42.3669076" lon="-7.5910173"><ele>863.0</ele><time>2026-04-25T08:50:17.041Z</time></trkpt><trkpt lat="42.3669906" lon="-7.5908641"><ele>863.0</ele><time>2026-04-25T08:50:18.037Z</time></trkpt><trkpt lat="42.3670724" lon="-7.590719"><ele>863.0</ele><time>2026-04-25T08:50:19.04Z</time></trkpt><trkpt lat="42.3671509" lon="-7.5905782"><ele>863.0</ele><time>2026-04-25T08:50:20.036Z</time></trkpt><trkpt lat="42.3672274" lon="-7.5904425"><ele>858.25</ele><time>2026-04-25T08:50:21.042Z</time></trkpt><trkpt lat="42.3672971" lon="-7.5902977"><ele>853.5</ele><time>2026-04-25T08:50:22.037Z</time></trkpt><trkpt lat="42.3673633" lon="-7.5901445"><ele>848.75</ele><time>2026-04-25T08:50:23.041Z</time></trkpt><trkpt lat="42.367429" lon="-7.5899804"><ele>844.0</ele><time>2026-04-25T08:50:24.034Z</time></trkpt><trkpt lat="42.3674876" lon="-7.5898127"><ele>844.0</ele><time>2026-04-25T08:50:25.04Z</time></trkpt><trkpt lat="42.3675397" lon="-7.5896449"><ele>844.0</ele><time>2026-04-25T08:50:26.038Z</time></trkpt><trkpt lat="42.3675829" lon="-7.5894752"><ele>844.0</ele><time>2026-04-25T08:50:27.033Z</time></trkpt><trkpt lat="42.3676171" lon="-7.5893054"><ele>844.0</ele><time>2026-04-25T08:50:28.039Z</time></trkpt><trkpt lat="42.3676415" lon="-7.5891336"><ele>843.2</ele><time>2026-04-25T08:50:29.042Z</time></trkpt><trkpt lat="42.3676535" lon="-7.5889601"><ele>842.4000000000001</ele><time>2026-04-25T08:50:30.032Z</time></trkpt><trkpt lat="42.3676499" lon="-7.5887984"><ele>841.6</ele><time>2026-04-25T08:50:31.049Z</time></trkpt><trkpt lat="42.3676342" lon="-7.5886721"><ele>840.8</ele><time>2026-04-25T08:50:32.042Z</time></trkpt><trkpt lat="42.3676103" lon="-7.5885793"><ele>840.0</ele><time>2026-04-25T08:50:33.042Z</time></trkpt><trkpt lat="42.3675422" lon="-7.5884798"><ele>838.3333333333334</ele><time>2026-04-25T08:50:35.036Z</time></trkpt><trkpt lat="42.3674743" lon="-7.5883987"><ele>836.6666666666667</ele><time>2026-04-25T08:50:37.037Z</time></trkpt><trkpt lat="42.3674183" lon="-7.588317"><ele>835.0</ele><time>2026-04-25T08:50:39.039Z</time></trkpt><trkpt lat="42.3673704" lon="-7.5882551"><ele>833.3333333333334</ele><time>2026-04-25T08:50:41.042Z</time></trkpt><trkpt lat="42.3674648" lon="-7.5883381"><ele>831.6666666666667</ele><time>2026-04-25T08:50:46.035Z</time></trkpt><trkpt lat="42.3675116" lon="-7.5884019"><ele>830.0</ele><time>2026-04-25T08:50:47.042Z</time></trkpt><trkpt lat="42.3675631" lon="-7.5884765"><ele>830.0000000000001</ele><time>2026-04-25T08:50:48.037Z</time></trkpt><trkpt lat="42.3676082" lon="-7.5885503"><ele>830.0</ele><time>2026-04-25T08:50:49.054Z</time></trkpt><trkpt lat="42.3676831" lon="-7.5886287"><ele>830.0</ele><time>2026-04-25T08:50:51.038Z</time></trkpt><trkpt lat="42.3677737" lon="-7.5886112"><ele>830.0</ele><time>2026-04-25T08:50:53.039Z</time></trkpt><trkpt lat="42.3678561" lon="-7.5885632"><ele>830.0000000000001</ele><time>2026-04-25T08:50:54.034Z</time></trkpt><trkpt lat="42.3679416" lon="-7.5885106"><ele>830.0</ele><time>2026-04-25T08:50:55.035Z</time></trkpt><trkpt lat="42.3680314" lon="-7.5884463"><ele>829.0</ele><time>2026-04-25T08:50:56.037Z</time></trkpt><trkpt lat="42.3681252" lon="-7.5883716"><ele>828.0</ele><time>2026-04-25T08:50:57.035Z</time></trkpt><trkpt lat="42.3682178" lon="-7.5882918"><ele>827.0</ele><time>2026-04-25T08:50:58.039Z</time></trkpt><trkpt lat="42.3683034" lon="-7.5882198"><ele>826.0</ele><time>2026-04-25T08:50:59.041Z</time></trkpt><trkpt lat="42.3683854" lon="-7.5881611"><ele>825.0</ele><time>2026-04-25T08:51:00.038Z</time></trkpt><trkpt lat="42.368462" lon="-7.5881114"><ele>825.0</ele><time>2026-04-25T08:51:01.045Z</time></trkpt><trkpt lat="42.3685376" lon="-7.5880682"><ele>825.0</ele><time>2026-04-25T08:51:02.038Z</time></trkpt><trkpt lat="42.3686105" lon="-7.5880241"><ele>825.0</ele><time>2026-04-25T08:51:03.039Z</time></trkpt><trkpt lat="42.3686808" lon="-7.587974"><ele>825.0</ele><time>2026-04-25T08:51:04.037Z</time></trkpt><trkpt lat="42.3687461" lon="-7.5879142"><ele>825.0</ele><time>2026-04-25T08:51:05.045Z</time></trkpt><trkpt lat="42.3688057" lon="-7.5878418"><ele>825.0</ele><time>2026-04-25T08:51:06.037Z</time></trkpt><trkpt lat="42.3688636" lon="-7.5877622"><ele>822.5</ele><time>2026-04-25T08:51:07.046Z</time></trkpt><trkpt lat="42.3689196" lon="-7.5876761"><ele>820.0</ele><time>2026-04-25T08:51:08.039Z</time></trkpt><trkpt lat="42.3689753" lon="-7.5875917"><ele>817.5</ele><time>2026-04-25T08:51:09.039Z</time></trkpt><trkpt lat="42.3690238" lon="-7.5875016"><ele>815.0</ele><time>2026-04-25T08:51:10.04Z</time></trkpt><trkpt lat="42.3690635" lon="-7.5874057"><ele>812.5</ele><time>2026-04-25T08:51:11.037Z</time></trkpt><trkpt lat="42.3690949" lon="-7.587294"><ele>810.0</ele><time>2026-04-25T08:51:12.041Z</time></trkpt><trkpt lat="42.3691209" lon="-7.5871678"><ele>810.0</ele><time>2026-04-25T08:51:13.038Z</time></trkpt><trkpt lat="42.369139" lon="-7.5870428"><ele>810.0</ele><time>2026-04-25T08:51:14.043Z</time></trkpt><trkpt lat="42.3691502" lon="-7.5869212"><ele>810.0</ele><time>2026-04-25T08:51:15.033Z</time></trkpt><trkpt lat="42.3691594" lon="-7.5868015"><ele>810.0</ele><time>2026-04-25T08:51:16.035Z</time></trkpt><trkpt lat="42.3691741" lon="-7.586683"><ele>810.0</ele><time>2026-04-25T08:51:17.039Z</time></trkpt><trkpt lat="42.3691926" lon="-7.5865651"><ele>808.6</ele><time>2026-04-25T08:51:18.042Z</time></trkpt><trkpt lat="42.36922" lon="-7.5864446"><ele>807.2</ele><time>2026-04-25T08:51:19.032Z</time></trkpt><trkpt lat="42.3692586" lon="-7.5863166"><ele>805.8</ele><time>2026-04-25T08:51:20.038Z</time></trkpt><trkpt lat="42.3692977" lon="-7.586187"><ele>804.4</ele><time>2026-04-25T08:51:21.041Z</time></trkpt><trkpt lat="42.3693576" lon="-7.5860642"><ele>803.0</ele><time>2026-04-25T08:51:22.045Z</time></trkpt><trkpt lat="42.3694258" lon="-7.5859453"><ele>801.5999999999999</ele><time>2026-04-25T08:51:23.036Z</time></trkpt><trkpt lat="42.3694948" lon="-7.5858286"><ele>800.1999999999999</ele><time>2026-04-25T08:51:24.038Z</time></trkpt><trkpt lat="42.3695634" lon="-7.5857105"><ele>798.8</ele><time>2026-04-25T08:51:25.035Z</time></trkpt><trkpt lat="42.3696288" lon="-7.5855902"><ele>797.4</ele><time>2026-04-25T08:51:26.038Z</time></trkpt><trkpt lat="42.3696877" lon="-7.5854666"><ele>796.0</ele><time>2026-04-25T08:51:27.038Z</time></trkpt><trkpt lat="42.3697363" lon="-7.5853491"><ele>793.4999999999999</ele><time>2026-04-25T08:51:28.038Z</time></trkpt><trkpt lat="42.3697797" lon="-7.5852424"><ele>791.0</ele><time>2026-04-25T08:51:29.035Z</time></trkpt><trkpt lat="42.3698031" lon="-7.5851466"><ele>788.5</ele><time>2026-04-25T08:51:30.033Z</time></trkpt><trkpt lat="42.3698582" lon="-7.5850337"><ele>786.0</ele><time>2026-04-25T08:51:32.031Z</time></trkpt><trkpt lat="42.3699511" lon="-7.5850092"><ele>783.4999999999999</ele><time>2026-04-25T08:51:34.032Z</time></trkpt><trkpt lat="42.3700289" lon="-7.5850115"><ele>781.0</ele><time>2026-04-25T08:51:35.05Z</time></trkpt><trkpt lat="42.3701064" lon="-7.5849906"><ele>780.9999999999999</ele><time>2026-04-25T08:51:36.033Z</time></trkpt><trkpt lat="42.3701865" lon="-7.5849611"><ele>781.0</ele><time>2026-04-25T08:51:37.033Z</time></trkpt><trkpt lat="42.3702538" lon="-7.5848776"><ele>781.0</ele><time>2026-04-25T08:51:38.037Z</time></trkpt><trkpt lat="42.3703201" lon="-7.5847831"><ele>781.0</ele><time>2026-04-25T08:51:39.045Z</time></trkpt><trkpt lat="42.3703821" lon="-7.5846947"><ele>780.9999999999999</ele><time>2026-04-25T08:51:40.037Z</time></trkpt><trkpt lat="42.370436" lon="-7.5846116"><ele>781.0</ele><time>2026-04-25T08:51:41.037Z</time></trkpt><trkpt lat="42.3704773" lon="-7.5845135"><ele>779.8333333333333</ele><time>2026-04-25T08:51:42.034Z</time></trkpt><trkpt lat="42.3705246" lon="-7.5844297"><ele>778.6666666666666</ele><time>2026-04-25T08:51:43.034Z</time></trkpt><trkpt lat="42.3705885" lon="-7.5843667"><ele>777.5</ele><time>2026-04-25T08:51:44.035Z</time></trkpt><trkpt lat="42.3706541" lon="-7.5843096"><ele>776.3333333333333</ele><time>2026-04-25T08:51:45.034Z</time></trkpt><trkpt lat="42.3707455" lon="-7.5842957"><ele>775.1666666666666</ele><time>2026-04-25T08:51:46.045Z</time></trkpt><trkpt lat="42.3708509" lon="-7.5842873"><ele>774.0</ele><time>2026-04-25T08:51:47.037Z</time></trkpt><trkpt lat="42.3709484" lon="-7.5842783"><ele>774.0</ele><time>2026-04-25T08:51:48.039Z</time></trkpt><trkpt lat="42.3710455" lon="-7.5842653"><ele>774.0</ele><time>2026-04-25T08:51:49.037Z</time></trkpt><trkpt lat="42.3711428" lon="-7.5842329"><ele>774.0</ele><time>2026-04-25T08:51:50.045Z</time></trkpt><trkpt lat="42.371244" lon="-7.5842002"><ele>774.0</ele><time>2026-04-25T08:51:51.045Z</time></trkpt><trkpt lat="42.3713334" lon="-7.5841422"><ele>774.0</ele><time>2026-04-25T08:51:52.037Z</time></trkpt><trkpt lat="42.3714053" lon="-7.584072"><ele>773.6666666666666</ele><time>2026-04-25T08:51:53.037Z</time></trkpt><trkpt lat="42.3714706" lon="-7.5839951"><ele>773.3333333333333</ele><time>2026-04-25T08:51:54.034Z</time></trkpt><trkpt lat="42.3715335" lon="-7.5839176"><ele>773.0</ele><time>2026-04-25T08:51:55.04Z</time></trkpt><trkpt lat="42.3715968" lon="-7.5838335"><ele>772.6666666666666</ele><time>2026-04-25T08:51:56.038Z</time></trkpt><trkpt lat="42.3716643" lon="-7.5837499"><ele>772.3333333333333</ele><time>2026-04-25T08:51:57.049Z</time></trkpt><trkpt lat="42.3717298" lon="-7.5836671"><ele>772.0</ele><time>2026-04-25T08:51:58.036Z</time></trkpt><trkpt lat="42.3717898" lon="-7.5835951"><ele>771.9999999999999</ele><time>2026-04-25T08:51:59.038Z</time></trkpt><trkpt lat="42.3718409" lon="-7.5835371"><ele>772.0</ele><time>2026-04-25T08:52:00.035Z</time></trkpt><trkpt lat="42.3718958" lon="-7.5834897"><ele>772.0</ele><time>2026-04-25T08:52:01.04Z</time></trkpt><trkpt lat="42.3719586" lon="-7.5834406"><ele>772.0</ele><time>2026-04-25T08:52:02.037Z</time></trkpt><trkpt lat="42.3720123" lon="-7.5833851"><ele>771.9999999999999</ele><time>2026-04-25T08:52:03.04Z</time></trkpt><trkpt lat="42.3720805" lon="-7.583319"><ele>772.0</ele><time>2026-04-25T08:52:05.039Z</time></trkpt><trkpt lat="42.3720247" lon="-7.5834282"><ele>772.0</ele><time>2026-04-25T08:52:10.041Z</time></trkpt><trkpt lat="42.3719485" lon="-7.5834681"><ele>772.0</ele><time>2026-04-25T08:52:12.046Z</time></trkpt><trkpt lat="42.3718866" lon="-7.5835133"><ele>772.0</ele><time>2026-04-25T08:52:14.037Z</time></trkpt><trkpt lat="42.3717724" lon="-7.5836205"><ele>772.0</ele><time>2026-04-25T08:52:16.041Z</time></trkpt><trkpt lat="42.3716938" lon="-7.5837165"><ele>772.0</ele><time>2026-04-25T08:52:17.037Z</time></trkpt><trkpt lat="42.3716035" lon="-7.5838266"><ele>772.4000000000001</ele><time>2026-04-25T08:52:18.03Z</time></trkpt><trkpt lat="42.3715256" lon="-7.5839227"><ele>772.8000000000001</ele><time>2026-04-25T08:52:19.037Z</time></trkpt><trkpt lat="42.3714539" lon="-7.5840056"><ele>773.2</ele><time>2026-04-25T08:52:20.038Z</time></trkpt><trkpt lat="42.3713938" lon="-7.5840706"><ele>773.6</ele><time>2026-04-25T08:52:21.044Z</time></trkpt><trkpt lat="42.3713226" lon="-7.5841548"><ele>774.0</ele><time>2026-04-25T08:52:23.037Z</time></trkpt><trkpt lat="42.371344" lon="-7.5842756"><ele>773.0</ele><time>2026-04-25T08:52:26.036Z</time></trkpt><trkpt lat="42.371448" lon="-7.584358"><ele>772.0</ele><time>2026-04-25T08:52:28.038Z</time></trkpt><trkpt lat="42.3715188" lon="-7.5844015"><ele>771.0</ele><time>2026-04-25T08:52:29.05Z</time></trkpt><trkpt lat="42.3715906" lon="-7.5844459"><ele>770.0</ele><time>2026-04-25T08:52:30.033Z</time></trkpt><trkpt lat="42.371664" lon="-7.5844616"><ele>769.0</ele><time>2026-04-25T08:52:31.04Z</time></trkpt><trkpt lat="42.3717389" lon="-7.5844794"><ele>768.0</ele><time>2026-04-25T08:52:32.039Z</time></trkpt><trkpt lat="42.3717893" lon="-7.5845347"><ele>767.8333333333334</ele><time>2026-04-25T08:52:33.041Z</time></trkpt><trkpt lat="42.3718239" lon="-7.5846202"><ele>767.6666666666666</ele><time>2026-04-25T08:52:34.043Z</time></trkpt><trkpt lat="42.3718567" lon="-7.5847468"><ele>767.5</ele><time>2026-04-25T08:52:35.04Z</time></trkpt><trkpt lat="42.3718896" lon="-7.5848761"><ele>767.3333333333333</ele><time>2026-04-25T08:52:36.045Z</time></trkpt><trkpt lat="42.3719218" lon="-7.5849937"><ele>767.1666666666666</ele><time>2026-04-25T08:52:37.035Z</time></trkpt><trkpt lat="42.3719617" lon="-7.5850861"><ele>767.0</ele><time>2026-04-25T08:52:38.043Z</time></trkpt><trkpt lat="42.3720136" lon="-7.5851541"><ele>767.0</ele><time>2026-04-25T08:52:39.034Z</time></trkpt><trkpt lat="42.3720626" lon="-7.585217"><ele>767.0</ele><time>2026-04-25T08:52:40.041Z</time></trkpt><trkpt lat="42.3721196" lon="-7.5852774"><ele>767.0</ele><time>2026-04-25T08:52:41.038Z</time></trkpt><trkpt lat="42.3721785" lon="-7.5853246"><ele>767.0</ele><time>2026-04-25T08:52:42.032Z</time></trkpt><trkpt lat="42.3722388" lon="-7.5853736"><ele>767.0</ele><time>2026-04-25T08:52:43.038Z</time></trkpt><trkpt lat="42.3722918" lon="-7.58545"><ele>767.0</ele><time>2026-04-25T08:52:44.038Z</time></trkpt><trkpt lat="42.3723492" lon="-7.5855423"><ele>767.0</ele><time>2026-04-25T08:52:45.035Z</time></trkpt><trkpt lat="42.3724091" lon="-7.5856409"><ele>767.1666666666666</ele><time>2026-04-25T08:52:46.044Z</time></trkpt><trkpt lat="42.3724672" lon="-7.5857424"><ele>767.3333333333333</ele><time>2026-04-25T08:52:47.04Z</time></trkpt><trkpt lat="42.3725321" lon="-7.5858408"><ele>767.5</ele><time>2026-04-25T08:52:48.036Z</time></trkpt><trkpt lat="42.372596" lon="-7.5859127"><ele>767.6666666666666</ele><time>2026-04-25T08:52:49.032Z</time></trkpt><trkpt lat="42.3726662" lon="-7.585961"><ele>767.8333333333334</ele><time>2026-04-25T08:52:50.034Z</time></trkpt><trkpt lat="42.3727533" lon="-7.58596"><ele>768.0</ele><time>2026-04-25T08:52:51.032Z</time></trkpt><trkpt lat="42.3728407" lon="-7.5859432"><ele>768.0</ele><time>2026-04-25T08:52:52.038Z</time></trkpt><trkpt lat="42.3729236" lon="-7.5859176"><ele>768.0</ele><time>2026-04-25T08:52:53.039Z</time></trkpt><trkpt lat="42.3730134" lon="-7.5858863"><ele>768.0</ele><time>2026-04-25T08:52:54.038Z</time></trkpt><trkpt lat="42.3731171" lon="-7.5858748"><ele>768.0</ele><time>2026-04-25T08:52:55.056Z</time></trkpt><trkpt lat="42.3732282" lon="-7.585895"><ele>768.0</ele><time>2026-04-25T08:52:56.034Z</time></trkpt><trkpt lat="42.3733362" lon="-7.5859135"><ele>768.5999999999999</ele><time>2026-04-25T08:52:57.04Z</time></trkpt><trkpt lat="42.3734483" lon="-7.5859346"><ele>769.1999999999999</ele><time>2026-04-25T08:52:58.031Z</time></trkpt><trkpt lat="42.3735622" lon="-7.5859622"><ele>769.8</ele><time>2026-04-25T08:52:59.042Z</time></trkpt><trkpt lat="42.3736635" lon="-7.5860025"><ele>770.4</ele><time>2026-04-25T08:53:00.045Z</time></trkpt><trkpt lat="42.3737425" lon="-7.5860527"><ele>771.0</ele><time>2026-04-25T08:53:01.031Z</time></trkpt><trkpt lat="42.3738154" lon="-7.5861031"><ele>771.4285714285714</ele><time>2026-04-25T08:53:02.033Z</time></trkpt><trkpt lat="42.3738721" lon="-7.5861626"><ele>771.8571428571428</ele><time>2026-04-25T08:53:03.043Z</time></trkpt><trkpt lat="42.3739263" lon="-7.5862296"><ele>772.2857142857142</ele><time>2026-04-25T08:53:04.042Z</time></trkpt><trkpt lat="42.3739884" lon="-7.5862945"><ele>772.7142857142858</ele><time>2026-04-25T08:53:05.035Z</time></trkpt><trkpt lat="42.3740544" lon="-7.5863434"><ele>773.1428571428571</ele><time>2026-04-25T08:53:06.038Z</time></trkpt><trkpt lat="42.3741235" lon="-7.5863724"><ele>773.5714285714286</ele><time>2026-04-25T08:53:07.033Z</time></trkpt><trkpt lat="42.374197" lon="-7.586386"><ele>774.0</ele><time>2026-04-25T08:53:08.043Z</time></trkpt><trkpt lat="42.3742795" lon="-7.5863856"><ele>774.0</ele><time>2026-04-25T08:53:09.037Z</time></trkpt><trkpt lat="42.3743676" lon="-7.5863705"><ele>774.0</ele><time>2026-04-25T08:53:10.039Z</time></trkpt><trkpt lat="42.3744454" lon="-7.5863702"><ele>774.0</ele><time>2026-04-25T08:53:11.034Z</time></trkpt><trkpt lat="42.3745176" lon="-7.5864021"><ele>774.0</ele><time>2026-04-25T08:53:12.033Z</time></trkpt><trkpt lat="42.3746015" lon="-7.5864777"><ele>774.0</ele><time>2026-04-25T08:53:13.029Z</time></trkpt><trkpt lat="42.3746888" lon="-7.5865758"><ele>772.6</ele><time>2026-04-25T08:53:14.031Z</time></trkpt><trkpt lat="42.3747757" lon="-7.5866626"><ele>771.2</ele><time>2026-04-25T08:53:15.035Z</time></trkpt><trkpt lat="42.3748581" lon="-7.5867155"><ele>769.8000000000001</ele><time>2026-04-25T08:53:16.033Z</time></trkpt><trkpt lat="42.3749334" lon="-7.5867401"><ele>768.4000000000001</ele><time>2026-04-25T08:53:17.033Z</time></trkpt><trkpt lat="42.3750529" lon="-7.5867137"><ele>767.0</ele><time>2026-04-25T08:53:19.05Z</time></trkpt><trkpt lat="42.3751154" lon="-7.5866522"><ele>767.0</ele><time>2026-04-25T08:53:20.031Z</time></trkpt><trkpt lat="42.3751995" lon="-7.5865733"><ele>767.0</ele><time>2026-04-25T08:53:21.036Z</time></trkpt><trkpt lat="42.375272" lon="-7.5865021"><ele>767.0</ele><time>2026-04-25T08:53:22.035Z</time></trkpt><trkpt lat="42.3753253" lon="-7.5864435"><ele>767.0</ele><time>2026-04-25T08:53:23.04Z</time></trkpt><trkpt lat="42.375361" lon="-7.5863562"><ele>767.0</ele><time>2026-04-25T08:53:24.041Z</time></trkpt><trkpt lat="42.3754018" lon="-7.5862707"><ele>767.0</ele><time>2026-04-25T08:53:25.032Z</time></trkpt><trkpt lat="42.3754433" lon="-7.5861834"><ele>765.2857142857143</ele><time>2026-04-25T08:53:26.046Z</time></trkpt><trkpt lat="42.3754857" lon="-7.5860989"><ele>763.5714285714287</ele><time>2026-04-25T08:53:27.04Z</time></trkpt><trkpt lat="42.3755259" lon="-7.5860161"><ele>761.8571428571429</ele><time>2026-04-25T08:53:28.037Z</time></trkpt><trkpt lat="42.3755619" lon="-7.5859275"><ele>760.1428571428571</ele><time>2026-04-25T08:53:29.036Z</time></trkpt><trkpt lat="42.3755962" lon="-7.5858392"><ele>758.4285714285714</ele><time>2026-04-25T08:53:30.041Z</time></trkpt><trkpt lat="42.3756181" lon="-7.5857544"><ele>756.7142857142857</ele><time>2026-04-25T08:53:31.034Z</time></trkpt><trkpt lat="42.3756576" lon="-7.5856752"><ele>755.0</ele><time>2026-04-25T08:53:32.039Z</time></trkpt><trkpt lat="42.3757144" lon="-7.5855904"><ele>754.8333333333333</ele><time>2026-04-25T08:53:33.04Z</time></trkpt><trkpt lat="42.3757803" lon="-7.585511"><ele>754.6666666666666</ele><time>2026-04-25T08:53:34.038Z</time></trkpt><trkpt lat="42.3758504" lon="-7.5854395"><ele>754.5</ele><time>2026-04-25T08:53:35.035Z</time></trkpt><trkpt lat="42.3759189" lon="-7.5853819"><ele>754.3333333333334</ele><time>2026-04-25T08:53:36.029Z</time></trkpt><trkpt lat="42.3759815" lon="-7.5853279"><ele>754.1666666666667</ele><time>2026-04-25T08:53:37.035Z</time></trkpt><trkpt lat="42.3760417" lon="-7.5852942"><ele>754.0</ele><time>2026-04-25T08:53:38.035Z</time></trkpt><trkpt lat="42.3761424" lon="-7.5852525"><ele>753.3333333333334</ele><time>2026-04-25T08:53:40.045Z</time></trkpt><trkpt lat="42.376222" lon="-7.5852305"><ele>752.6666666666667</ele><time>2026-04-25T08:53:42.043Z</time></trkpt><trkpt lat="42.3763068" lon="-7.5852266"><ele>752.0</ele><time>2026-04-25T08:53:46.037Z</time></trkpt><trkpt lat="42.3763877" lon="-7.5852281"><ele>751.3333333333334</ele><time>2026-04-25T08:53:49.048Z</time></trkpt><trkpt lat="42.3764372" lon="-7.5851294"><ele>750.6666666666666</ele><time>2026-04-25T08:53:53.043Z</time></trkpt><trkpt lat="42.3764424" lon="-7.5850366"><ele>750.0</ele><time>2026-04-25T08:53:55.036Z</time></trkpt><trkpt lat="42.3764406" lon="-7.584939"><ele>750.0</ele><time>2026-04-25T08:53:57.038Z</time></trkpt><trkpt lat="42.3764321" lon="-7.5848352"><ele>750.0</ele><time>2026-04-25T08:54:01.039Z</time></trkpt><trkpt lat="42.3764488" lon="-7.5849621"><ele>750.0</ele><time>2026-04-25T08:54:08.05Z</time></trkpt><trkpt lat="42.3764636" lon="-7.5850542"><ele>750.0</ele><time>2026-04-25T08:54:09.042Z</time></trkpt><trkpt lat="42.3764506" lon="-7.5851521"><ele>750.0</ele><time>2026-04-25T08:54:10.036Z</time></trkpt><trkpt lat="42.3764216" lon="-7.5852758"><ele>750.0</ele><time>2026-04-25T08:54:12.036Z</time></trkpt><trkpt lat="42.376442" lon="-7.5854067"><ele>750.6</ele><time>2026-04-25T08:54:14.038Z</time></trkpt><trkpt lat="42.3764772" lon="-7.5854984"><ele>751.2</ele><time>2026-04-25T08:54:15.043Z</time></trkpt><trkpt lat="42.3765108" lon="-7.5855905"><ele>751.8</ele><time>2026-04-25T08:54:16.037Z</time></trkpt><trkpt lat="42.3765693" lon="-7.5857247"><ele>752.4</ele><time>2026-04-25T08:54:18.035Z</time></trkpt><trkpt lat="42.3766306" lon="-7.5858786"><ele>753.0</ele><time>2026-04-25T08:54:20.039Z</time></trkpt><trkpt lat="42.3766633" lon="-7.5859541"><ele>753.0</ele><time>2026-04-25T08:54:21.04Z</time></trkpt><trkpt lat="42.3767151" lon="-7.5860277"><ele>753.0</ele><time>2026-04-25T08:54:23.039Z</time></trkpt><trkpt lat="42.3767357" lon="-7.5859383"><ele>753.0</ele><time>2026-04-25T08:54:26.044Z</time></trkpt><trkpt lat="42.3766982" lon="-7.5858038"><ele>753.0</ele><time>2026-04-25T08:54:28.037Z</time></trkpt><trkpt lat="42.3766654" lon="-7.5856744"><ele>753.0</ele><time>2026-04-25T08:54:30.036Z</time></trkpt><trkpt lat="42.376664" lon="-7.585577"><ele>753.0</ele><time>2026-04-25T08:54:32.042Z</time></trkpt><trkpt lat="42.3767373" lon="-7.5855192"><ele>753.0</ele><time>2026-04-25T08:54:34.034Z</time></trkpt><trkpt lat="42.3768528" lon="-7.5855022"><ele>753.0</ele><time>2026-04-25T08:54:36.045Z</time></trkpt><trkpt lat="42.3769596" lon="-7.5854666"><ele>753.0</ele><time>2026-04-25T08:54:38.045Z</time></trkpt><trkpt lat="42.377085" lon="-7.5854292"><ele>753.0</ele><time>2026-04-25T08:54:40.034Z</time></trkpt><trkpt lat="42.3771488" lon="-7.5854219"><ele>753.0</ele><time>2026-04-25T08:54:41.033Z</time></trkpt><trkpt lat="42.3772205" lon="-7.585408"><ele>753.0</ele><time>2026-04-25T08:54:42.035Z</time></trkpt><trkpt lat="42.37731" lon="-7.5853849"><ele>753.0</ele><time>2026-04-25T08:54:43.045Z</time></trkpt><trkpt lat="42.3774102" lon="-7.5853617"><ele>753.0</ele><time>2026-04-25T08:54:44.041Z</time></trkpt><trkpt lat="42.3775171" lon="-7.5853335"><ele>753.0</ele><time>2026-04-25T08:54:45.035Z</time></trkpt><trkpt lat="42.3776187" lon="-7.5852884"><ele>753.0</ele><time>2026-04-25T08:54:46.038Z</time></trkpt><trkpt lat="42.3777207" lon="-7.5852371"><ele>752.0</ele><time>2026-04-25T08:54:47.036Z</time></trkpt><trkpt lat="42.3778158" lon="-7.585191"><ele>751.0</ele><time>2026-04-25T08:54:48.047Z</time></trkpt><trkpt lat="42.377904" lon="-7.5851413"><ele>750.0</ele><time>2026-04-25T08:54:49.038Z</time></trkpt><trkpt lat="42.3779829" lon="-7.5850852"><ele>749.0</ele><time>2026-04-25T08:54:50.04Z</time></trkpt><trkpt lat="42.3780466" lon="-7.585025"><ele>748.0</ele><time>2026-04-25T08:54:51.036Z</time></trkpt><trkpt lat="42.378098" lon="-7.584963"><ele>747.0</ele><time>2026-04-25T08:54:52.037Z</time></trkpt><trkpt lat="42.3781759" lon="-7.5848914"><ele>746.7142857142857</ele><time>2026-04-25T08:54:54.043Z</time></trkpt><trkpt lat="42.3782361" lon="-7.584938"><ele>746.4285714285714</ele><time>2026-04-25T08:54:57.037Z</time></trkpt><trkpt lat="42.3782745" lon="-7.5850065"><ele>746.1428571428571</ele><time>2026-04-25T08:54:59.04Z</time></trkpt><trkpt lat="42.3783222" lon="-7.5850976"><ele>745.8571428571429</ele><time>2026-04-25T08:55:01.044Z</time></trkpt><trkpt lat="42.3783594" lon="-7.5852128"><ele>745.5714285714286</ele><time>2026-04-25T08:55:04.039Z</time></trkpt><trkpt lat="42.3783813" lon="-7.5852973"><ele>745.2857142857142</ele><time>2026-04-25T08:55:07.05Z</time></trkpt><trkpt lat="42.378321" lon="-7.5853219"><ele>745.0</ele><time>2026-04-25T08:55:18.041Z</time></trkpt><trkpt lat="42.3783533" lon="-7.5852239"><ele>745.0</ele><time>2026-04-25T08:55:21.031Z</time></trkpt><trkpt lat="42.3783302" lon="-7.585111"><ele>745.0</ele><time>2026-04-25T08:56:59.031Z</time></trkpt><trkpt lat="42.3782759" lon="-7.5850064"><ele>745.0</ele><time>2026-04-25T08:57:01.036Z</time></trkpt><trkpt lat="42.3782327" lon="-7.5849352"><ele>745.0</ele><time>2026-04-25T08:57:03.039Z</time></trkpt><trkpt lat="42.378191" lon="-7.5848667"><ele>745.0</ele><time>2026-04-25T08:57:06.039Z</time></trkpt><trkpt lat="42.3782289" lon="-7.5847734"><ele>745.0</ele><time>2026-04-25T08:57:09.037Z</time></trkpt><trkpt lat="42.3782662" lon="-7.5846998"><ele>745.0</ele><time>2026-04-25T08:57:11.047Z</time></trkpt><trkpt lat="42.3783076" lon="-7.5846232"><ele>745.0</ele><time>2026-04-25T08:57:13.039Z</time></trkpt><trkpt lat="42.3783581" lon="-7.5845491"><ele>745.0</ele><time>2026-04-25T08:57:15.041Z</time></trkpt><trkpt lat="42.3784153" lon="-7.5844915"><ele>745.0</ele><time>2026-04-25T08:57:17.04Z</time></trkpt><trkpt lat="42.378475" lon="-7.5844425"><ele>745.0</ele><time>2026-04-25T08:57:19.04Z</time></trkpt><trkpt lat="42.3785407" lon="-7.5844184"><ele>745.0</ele><time>2026-04-25T08:57:21.04Z</time></trkpt><trkpt lat="42.3786154" lon="-7.5844099"><ele>745.0</ele><time>2026-04-25T08:57:23.04Z</time></trkpt><trkpt lat="42.3787052" lon="-7.5844208"><ele>744.4</ele><time>2026-04-25T08:57:25.043Z</time></trkpt><trkpt lat="42.3788008" lon="-7.5844359"><ele>743.8</ele><time>2026-04-25T08:57:27.04Z</time></trkpt><trkpt lat="42.3789113" lon="-7.5844525"><ele>743.2</ele><time>2026-04-25T08:57:29.04Z</time></trkpt><trkpt lat="42.379004" lon="-7.5844489"><ele>742.6</ele><time>2026-04-25T08:57:31.04Z</time></trkpt><trkpt lat="42.3790803" lon="-7.5844376"><ele>742.0</ele><time>2026-04-25T08:57:33.039Z</time></trkpt><trkpt lat="42.3791597" lon="-7.5844107"><ele>742.0</ele><time>2026-04-25T08:57:35.036Z</time></trkpt><trkpt lat="42.3792354" lon="-7.5843782"><ele>742.0</ele><time>2026-04-25T08:57:38.081Z</time></trkpt><trkpt lat="42.3793274" lon="-7.5843612"><ele>742.0</ele><time>2026-04-25T08:57:39.986Z</time></trkpt><trkpt lat="42.3794474" lon="-7.5843236"><ele>742.0</ele><time>2026-04-25T08:57:42.122Z</time></trkpt><trkpt lat="42.3795421" lon="-7.5843415"><ele>742.0</ele><time>2026-04-25T08:57:44.127Z</time></trkpt><trkpt lat="42.3796124" lon="-7.5843656"><ele>741.6666666666667</ele><time>2026-04-25T08:57:46.039Z</time></trkpt><trkpt lat="42.3796855" lon="-7.5844054"><ele>741.3333333333334</ele><time>2026-04-25T08:57:48.034Z</time></trkpt><trkpt lat="42.3797634" lon="-7.5844408"><ele>741.0</ele><time>2026-04-25T08:57:50.027Z</time></trkpt><trkpt lat="42.3798435" lon="-7.5844944"><ele>740.6666666666666</ele><time>2026-04-25T08:57:51.987Z</time></trkpt><trkpt lat="42.3799202" lon="-7.5845551"><ele>740.3333333333333</ele><time>2026-04-25T08:57:54.083Z</time></trkpt><trkpt lat="42.379984" lon="-7.5846206"><ele>740.0</ele><time>2026-04-25T08:57:56.026Z</time></trkpt><trkpt lat="42.3800816" lon="-7.5846777"><ele>740.0</ele><time>2026-04-25T08:57:58.067Z</time></trkpt><trkpt lat="42.3801495" lon="-7.5847266"><ele>740.0</ele><time>2026-04-25T08:57:59.041Z</time></trkpt><trkpt lat="42.3802065" lon="-7.5847681"><ele>740.0</ele><time>2026-04-25T08:58:00.038Z</time></trkpt><trkpt lat="42.380309" lon="-7.5848235"><ele>740.0</ele><time>2026-04-25T08:58:02.054Z</time></trkpt><trkpt lat="42.3804132" lon="-7.5848767"><ele>740.0</ele><time>2026-04-25T08:58:04.033Z</time></trkpt><trkpt lat="42.3805087" lon="-7.5849253"><ele>738.0</ele><time>2026-04-25T08:58:06.041Z</time></trkpt><trkpt lat="42.3806133" lon="-7.5849689"><ele>736.0</ele><time>2026-04-25T08:58:08.037Z</time></trkpt><trkpt lat="42.3807164" lon="-7.5850045"><ele>734.0</ele><time>2026-04-25T08:58:10.036Z</time></trkpt><trkpt lat="42.3807938" lon="-7.5850322"><ele>732.0</ele><time>2026-04-25T08:58:12.043Z</time></trkpt><trkpt lat="42.3808745" lon="-7.5850584"><ele>730.0</ele><time>2026-04-25T08:58:14.046Z</time></trkpt><trkpt lat="42.3809563" lon="-7.5850944"><ele>730.0</ele><time>2026-04-25T08:58:16.041Z</time></trkpt><trkpt lat="42.3810319" lon="-7.5851569"><ele>730.0</ele><time>2026-04-25T08:58:19.042Z</time></trkpt><trkpt lat="42.3810994" lon="-7.5852388"><ele>730.0</ele><time>2026-04-25T08:58:22.041Z</time></trkpt><trkpt lat="42.3811558" lon="-7.5852869"><ele>730.0</ele><time>2026-04-25T08:58:24.038Z</time></trkpt><trkpt lat="42.3812364" lon="-7.5853412"><ele>730.0</ele><time>2026-04-25T08:58:27.04Z</time></trkpt><trkpt lat="42.381281" lon="-7.585403"><ele>730.0</ele><time>2026-04-25T08:58:29.039Z</time></trkpt><trkpt lat="42.3813262" lon="-7.5854909"><ele>727.2</ele><time>2026-04-25T08:58:31.039Z</time></trkpt><trkpt lat="42.3813814" lon="-7.5855962"><ele>724.4</ele><time>2026-04-25T08:58:33.044Z</time></trkpt><trkpt lat="42.3814503" lon="-7.5856744"><ele>721.5999999999999</ele><time>2026-04-25T08:58:35.041Z</time></trkpt><trkpt lat="42.3815095" lon="-7.5857441"><ele>718.8</ele><time>2026-04-25T08:58:37.04Z</time></trkpt><trkpt lat="42.3815798" lon="-7.5858267"><ele>716.0</ele><time>2026-04-25T08:58:39.035Z</time></trkpt><trkpt lat="42.381659" lon="-7.5859006"><ele>716.0</ele><time>2026-04-25T08:58:42.035Z</time></trkpt><trkpt lat="42.381722" lon="-7.585972"><ele>716.0</ele><time>2026-04-25T08:58:44.045Z</time></trkpt><trkpt lat="42.381804" lon="-7.5860731"><ele>716.0</ele><time>2026-04-25T08:58:46.055Z</time></trkpt><trkpt lat="42.381856" lon="-7.5861412"><ele>716.0</ele><time>2026-04-25T08:58:47.042Z</time></trkpt><trkpt lat="42.3819195" lon="-7.5862309"><ele>716.0</ele><time>2026-04-25T08:58:48.04Z</time></trkpt><trkpt lat="42.3819622" lon="-7.586305"><ele>716.0</ele><time>2026-04-25T08:58:49.042Z</time></trkpt><trkpt lat="42.3820111" lon="-7.586392"><ele>715.0</ele><time>2026-04-25T08:58:50.045Z</time></trkpt><trkpt lat="42.3820824" lon="-7.586467"><ele>714.0</ele><time>2026-04-25T08:58:51.052Z</time></trkpt><trkpt lat="42.3821505" lon="-7.5865339"><ele>713.0</ele><time>2026-04-25T08:58:52.034Z</time></trkpt><trkpt lat="42.3822064" lon="-7.5865929"><ele>712.0</ele><time>2026-04-25T08:58:53.034Z</time></trkpt><trkpt lat="42.3822555" lon="-7.5866475"><ele>711.0</ele><time>2026-04-25T08:58:54.039Z</time></trkpt><trkpt lat="42.3823256" lon="-7.5867691"><ele>710.0</ele><time>2026-04-25T08:58:56.045Z</time></trkpt><trkpt lat="42.3823863" lon="-7.5868957"><ele>710.0</ele><time>2026-04-25T08:58:58.034Z</time></trkpt><trkpt lat="42.382424" lon="-7.5869672"><ele>710.0</ele><time>2026-04-25T08:58:59.038Z</time></trkpt><trkpt lat="42.3825138" lon="-7.5870717"><ele>710.0</ele><time>2026-04-25T08:59:01.045Z</time></trkpt><trkpt lat="42.3826235" lon="-7.5871434"><ele>710.0</ele><time>2026-04-25T08:59:03.045Z</time></trkpt><trkpt lat="42.3826923" lon="-7.5871549"><ele>710.0</ele><time>2026-04-25T08:59:04.038Z</time></trkpt><trkpt lat="42.3827733" lon="-7.5871657"><ele>709.1666666666666</ele><time>2026-04-25T08:59:05.041Z</time></trkpt><trkpt lat="42.3828494" lon="-7.5871732"><ele>708.3333333333333</ele><time>2026-04-25T08:59:06.038Z</time></trkpt><trkpt lat="42.3829261" lon="-7.5871773"><ele>707.5</ele><time>2026-04-25T08:59:07.035Z</time></trkpt><trkpt lat="42.3830053" lon="-7.5871767"><ele>706.6666666666666</ele><time>2026-04-25T08:59:08.04Z</time></trkpt><trkpt lat="42.3830774" lon="-7.5871765"><ele>705.8333333333334</ele><time>2026-04-25T08:59:09.035Z</time></trkpt><trkpt lat="42.3831408" lon="-7.5871757"><ele>705.0</ele><time>2026-04-25T08:59:10.041Z</time></trkpt><trkpt lat="42.3832358" lon="-7.5871492"><ele>705.0</ele><time>2026-04-25T08:59:12.041Z</time></trkpt><trkpt lat="42.3833185" lon="-7.5871235"><ele>705.0</ele><time>2026-04-25T08:59:14.049Z</time></trkpt><trkpt lat="42.3833986" lon="-7.5870285"><ele>705.0</ele><time>2026-04-25T08:59:16.052Z</time></trkpt><trkpt lat="42.3834399" lon="-7.5869476"><ele>705.0</ele><time>2026-04-25T08:59:17.034Z</time></trkpt><trkpt lat="42.3834825" lon="-7.5868526"><ele>705.0</ele><time>2026-04-25T08:59:18.042Z</time></trkpt><trkpt lat="42.3835245" lon="-7.58676"><ele>705.0</ele><time>2026-04-25T08:59:19.045Z</time></trkpt><trkpt lat="42.3835631" lon="-7.5866555"><ele>704.6666666666666</ele><time>2026-04-25T08:59:20.041Z</time></trkpt><trkpt lat="42.3836013" lon="-7.5865513"><ele>704.3333333333334</ele><time>2026-04-25T08:59:21.042Z</time></trkpt><trkpt lat="42.3836291" lon="-7.5864482"><ele>704.0</ele><time>2026-04-25T08:59:22.033Z</time></trkpt><trkpt lat="42.3836485" lon="-7.5863382"><ele>703.6666666666667</ele><time>2026-04-25T08:59:23.059Z</time></trkpt><trkpt lat="42.3836512" lon="-7.586233"><ele>703.3333333333334</ele><time>2026-04-25T08:59:24.037Z</time></trkpt><trkpt lat="42.3836405" lon="-7.5861298"><ele>703.0</ele><time>2026-04-25T08:59:25.047Z</time></trkpt><trkpt lat="42.3836189" lon="-7.5860288"><ele>701.8333333333334</ele><time>2026-04-25T08:59:26.041Z</time></trkpt><trkpt lat="42.383586" lon="-7.5859308"><ele>700.6666666666667</ele><time>2026-04-25T08:59:27.039Z</time></trkpt><trkpt lat="42.3835421" lon="-7.5858373"><ele>699.5</ele><time>2026-04-25T08:59:28.041Z</time></trkpt><trkpt lat="42.3834859" lon="-7.5857501"><ele>698.3333333333334</ele><time>2026-04-25T08:59:29.036Z</time></trkpt><trkpt lat="42.3834184" lon="-7.5856704"><ele>697.1666666666666</ele><time>2026-04-25T08:59:30.041Z</time></trkpt><trkpt lat="42.3833474" lon="-7.585593"><ele>696.0</ele><time>2026-04-25T08:59:31.042Z</time></trkpt><trkpt lat="42.3832777" lon="-7.5855171"><ele>696.0</ele><time>2026-04-25T08:59:32.042Z</time></trkpt><trkpt lat="42.3832005" lon="-7.5854345"><ele>696.0</ele><time>2026-04-25T08:59:33.047Z</time></trkpt><trkpt lat="42.3831272" lon="-7.5853555"><ele>696.0</ele><time>2026-04-25T08:59:34.034Z</time></trkpt><trkpt lat="42.3830575" lon="-7.5852802"><ele>696.0</ele><time>2026-04-25T08:59:35.048Z</time></trkpt><trkpt lat="42.3829922" lon="-7.5852093"><ele>696.0</ele><time>2026-04-25T08:59:36.03Z</time></trkpt><trkpt lat="42.3829331" lon="-7.5851441"><ele>696.0</ele><time>2026-04-25T08:59:37.038Z</time></trkpt><trkpt lat="42.3828702" lon="-7.585077"><ele>695.3333333333334</ele><time>2026-04-25T08:59:38.04Z</time></trkpt><trkpt lat="42.3828116" lon="-7.5850112"><ele>694.6666666666666</ele><time>2026-04-25T08:59:39.041Z</time></trkpt><trkpt lat="42.3827603" lon="-7.5849372"><ele>694.0</ele><time>2026-04-25T08:59:40.039Z</time></trkpt><trkpt lat="42.3827135" lon="-7.584848"><ele>693.3333333333333</ele><time>2026-04-25T08:59:41.038Z</time></trkpt><trkpt lat="42.3826595" lon="-7.5847439"><ele>692.6666666666666</ele><time>2026-04-25T08:59:42.036Z</time></trkpt><trkpt lat="42.3825939" lon="-7.5846585"><ele>692.0</ele><time>2026-04-25T08:59:43.037Z</time></trkpt><trkpt lat="42.3825327" lon="-7.5845873"><ele>691.0</ele><time>2026-04-25T08:59:44.04Z</time></trkpt><trkpt lat="42.3824743" lon="-7.5845122"><ele>690.0</ele><time>2026-04-25T08:59:45.035Z</time></trkpt><trkpt lat="42.3824278" lon="-7.5844418"><ele>689.0</ele><time>2026-04-25T08:59:46.037Z</time></trkpt><trkpt lat="42.3823761" lon="-7.584358"><ele>688.0</ele><time>2026-04-25T08:59:47.041Z</time></trkpt><trkpt lat="42.38233" lon="-7.5842808"><ele>687.0</ele><time>2026-04-25T08:59:48.035Z</time></trkpt><trkpt lat="42.3822893" lon="-7.5842001"><ele>686.0</ele><time>2026-04-25T08:59:49.032Z</time></trkpt><trkpt lat="42.3822614" lon="-7.5841123"><ele>685.0</ele><time>2026-04-25T08:59:50.033Z</time></trkpt><trkpt lat="42.3822439" lon="-7.5840095"><ele>685.0</ele><time>2026-04-25T08:59:51.037Z</time></trkpt><trkpt lat="42.3822319" lon="-7.5839097"><ele>685.0</ele><time>2026-04-25T08:59:52.036Z</time></trkpt><trkpt lat="42.3822175" lon="-7.5838208"><ele>685.0</ele><time>2026-04-25T08:59:53.038Z</time></trkpt><trkpt lat="42.3822124" lon="-7.5836799"><ele>685.0</ele><time>2026-04-25T08:59:55.036Z</time></trkpt><trkpt lat="42.3822807" lon="-7.5835814"><ele>685.0</ele><time>2026-04-25T08:59:57.06Z</time></trkpt><trkpt lat="42.3824085" lon="-7.5835635"><ele>682.4</ele><time>2026-04-25T08:59:59.047Z</time></trkpt><trkpt lat="42.3824992" lon="-7.5835697"><ele>679.8</ele><time>2026-04-25T09:00:00.038Z</time></trkpt><trkpt lat="42.3825967" lon="-7.5835875"><ele>677.2</ele><time>2026-04-25T09:00:01.04Z</time></trkpt><trkpt lat="42.3826795" lon="-7.5835804"><ele>674.6</ele><time>2026-04-25T09:00:02.035Z</time></trkpt><trkpt lat="42.3827607" lon="-7.5835718"><ele>672.0</ele><time>2026-04-25T09:00:03.042Z</time></trkpt><trkpt lat="42.3828578" lon="-7.5835626"><ele>672.0</ele><time>2026-04-25T09:00:04.05Z</time></trkpt><trkpt lat="42.3829545" lon="-7.5836201"><ele>672.0</ele><time>2026-04-25T09:00:05.047Z</time></trkpt><trkpt lat="42.3830581" lon="-7.5836706"><ele>672.0</ele><time>2026-04-25T09:00:06.051Z</time></trkpt><trkpt lat="42.3831537" lon="-7.5837173"><ele>672.0</ele><time>2026-04-25T09:00:07.051Z</time></trkpt><trkpt lat="42.383236" lon="-7.5837743"><ele>672.0</ele><time>2026-04-25T09:00:08.047Z</time></trkpt><trkpt lat="42.3833223" lon="-7.5838257"><ele>672.0</ele><time>2026-04-25T09:00:09.044Z</time></trkpt><trkpt lat="42.383418" lon="-7.5838703"><ele>672.0</ele><time>2026-04-25T09:00:10.038Z</time></trkpt><trkpt lat="42.3835142" lon="-7.5839243"><ele>672.0</ele><time>2026-04-25T09:00:11.036Z</time></trkpt><trkpt lat="42.3836146" lon="-7.5839989"><ele>672.0</ele><time>2026-04-25T09:00:12.035Z</time></trkpt><trkpt lat="42.383718" lon="-7.5840728"><ele>672.0</ele><time>2026-04-25T09:00:13.045Z</time></trkpt><trkpt lat="42.3838129" lon="-7.5841448"><ele>669.2</ele><time>2026-04-25T09:00:14.041Z</time></trkpt><trkpt lat="42.3839103" lon="-7.5841933"><ele>666.4000000000001</ele><time>2026-04-25T09:00:15.045Z</time></trkpt><trkpt lat="42.3840047" lon="-7.5842302"><ele>663.5999999999999</ele><time>2026-04-25T09:00:16.042Z</time></trkpt><trkpt lat="42.3840952" lon="-7.5842649"><ele>660.8</ele><time>2026-04-25T09:00:17.045Z</time></trkpt><trkpt lat="42.3841758" lon="-7.5843062"><ele>658.0</ele><time>2026-04-25T09:00:18.038Z</time></trkpt><trkpt lat="42.3842655" lon="-7.584349"><ele>658.0</ele><time>2026-04-25T09:00:19.046Z</time></trkpt><trkpt lat="42.384356" lon="-7.5844051"><ele>658.0</ele><time>2026-04-25T09:00:20.046Z</time></trkpt><trkpt lat="42.3844346" lon="-7.5844401"><ele>658.0</ele><time>2026-04-25T09:00:21.039Z</time></trkpt><trkpt lat="42.3845038" lon="-7.5844436"><ele>658.0</ele><time>2026-04-25T09:00:22.041Z</time></trkpt><trkpt lat="42.3845744" lon="-7.5844281"><ele>658.0</ele><time>2026-04-25T09:00:23.036Z</time></trkpt><trkpt lat="42.3846689" lon="-7.5843838"><ele>658.0</ele><time>2026-04-25T09:00:24.046Z</time></trkpt><trkpt lat="42.3847882" lon="-7.5843162"><ele>656.5</ele><time>2026-04-25T09:00:25.039Z</time></trkpt><trkpt lat="42.3849192" lon="-7.5842705"><ele>655.0</ele><time>2026-04-25T09:00:26.04Z</time></trkpt><trkpt lat="42.3850636" lon="-7.5842267"><ele>653.5</ele><time>2026-04-25T09:00:27.039Z</time></trkpt><trkpt lat="42.3852166" lon="-7.5842011"><ele>652.0</ele><time>2026-04-25T09:00:28.042Z</time></trkpt><trkpt lat="42.3853947" lon="-7.5841687"><ele>651.0</ele><time>2026-04-25T09:00:29.039Z</time></trkpt><trkpt lat="42.3855803" lon="-7.584129"><ele>650.0</ele><time>2026-04-25T09:00:30.04Z</time></trkpt><trkpt lat="42.3857715" lon="-7.5840768"><ele>649.0</ele><time>2026-04-25T09:00:31.046Z</time></trkpt><trkpt lat="42.3859515" lon="-7.5840328"><ele>649.0</ele><time>2026-04-25T09:00:32.041Z</time></trkpt><trkpt lat="42.386127" lon="-7.5839972"><ele>649.0</ele><time>2026-04-25T09:00:33.037Z</time></trkpt><trkpt lat="42.3862892" lon="-7.5839919"><ele>649.0</ele><time>2026-04-25T09:00:34.044Z</time></trkpt><trkpt lat="42.3864326" lon="-7.5839925"><ele>649.5</ele><time>2026-04-25T09:00:35.04Z</time></trkpt><trkpt lat="42.3865574" lon="-7.584019"><ele>650.0</ele><time>2026-04-25T09:00:36.038Z</time></trkpt><trkpt lat="42.3866726" lon="-7.5840495"><ele>650.5</ele><time>2026-04-25T09:00:37.046Z</time></trkpt><trkpt lat="42.3867785" lon="-7.5840938"><ele>651.0</ele><time>2026-04-25T09:00:38.053Z</time></trkpt><trkpt lat="42.3868838" lon="-7.5841219"><ele>651.0</ele><time>2026-04-25T09:00:39.044Z</time></trkpt><trkpt lat="42.3869871" lon="-7.5841809"><ele>651.0</ele><time>2026-04-25T09:00:40.041Z</time></trkpt><trkpt lat="42.387102" lon="-7.5842486"><ele>651.0</ele><time>2026-04-25T09:00:41.039Z</time></trkpt><trkpt lat="42.3872203" lon="-7.5843102"><ele>651.0</ele><time>2026-04-25T09:00:42.054Z</time></trkpt><trkpt lat="42.3873598" lon="-7.5843594"><ele>650.25</ele><time>2026-04-25T09:00:43.048Z</time></trkpt><trkpt lat="42.3874977" lon="-7.5844004"><ele>649.5</ele><time>2026-04-25T09:00:44.041Z</time></trkpt><trkpt lat="42.3876128" lon="-7.5844383"><ele>648.75</ele><time>2026-04-25T09:00:45.038Z</time></trkpt><trkpt lat="42.3877053" lon="-7.5844809"><ele>648.0</ele><time>2026-04-25T09:00:46.041Z</time></trkpt><trkpt lat="42.3877993" lon="-7.5845366"><ele>649.1666666666666</ele><time>2026-04-25T09:00:47.043Z</time></trkpt><trkpt lat="42.3878776" lon="-7.5845871"><ele>650.3333333333334</ele><time>2026-04-25T09:00:48.049Z</time></trkpt><trkpt lat="42.3879632" lon="-7.5846095"><ele>651.5</ele><time>2026-04-25T09:00:49.042Z</time></trkpt><trkpt lat="42.3880405" lon="-7.5846554"><ele>652.6666666666667</ele><time>2026-04-25T09:00:50.047Z</time></trkpt><trkpt lat="42.388125" lon="-7.5846707"><ele>653.8333333333334</ele><time>2026-04-25T09:00:51.042Z</time></trkpt><trkpt lat="42.388224" lon="-7.584715"><ele>655.0</ele><time>2026-04-25T09:00:53.044Z</time></trkpt><trkpt lat="42.388312" lon="-7.5847699"><ele>652.2</ele><time>2026-04-25T09:00:56.046Z</time></trkpt><trkpt lat="42.3883816" lon="-7.5846917"><ele>649.4</ele><time>2026-04-25T09:00:58.05Z</time></trkpt><trkpt lat="42.3884375" lon="-7.5846004"><ele>646.5999999999999</ele><time>2026-04-25T09:00:59.047Z</time></trkpt><trkpt lat="42.3885019" lon="-7.5845042"><ele>643.8</ele><time>2026-04-25T09:01:00.047Z</time></trkpt><trkpt lat="42.3885904" lon="-7.5843994"><ele>641.0</ele><time>2026-04-25T09:01:01.044Z</time></trkpt><trkpt lat="42.3886605" lon="-7.5843072"><ele>641.0</ele><time>2026-04-25T09:01:02.045Z</time></trkpt><trkpt lat="42.3887198" lon="-7.5842037"><ele>641.0</ele><time>2026-04-25T09:01:03.047Z</time></trkpt><trkpt lat="42.3887672" lon="-7.5840959"><ele>641.0</ele><time>2026-04-25T09:01:04.051Z</time></trkpt><trkpt lat="42.3888098" lon="-7.5839865"><ele>641.0</ele><time>2026-04-25T09:01:05.044Z</time></trkpt><trkpt lat="42.388838" lon="-7.5838854"><ele>641.0</ele><time>2026-04-25T09:01:06.042Z</time></trkpt><trkpt lat="42.3888818" lon="-7.5837631"><ele>639.25</ele><time>2026-04-25T09:01:07.044Z</time></trkpt><trkpt lat="42.3888597" lon="-7.583621"><ele>637.5</ele><time>2026-04-25T09:01:08.045Z</time></trkpt><trkpt lat="42.3888154" lon="-7.5834915"><ele>635.75</ele><time>2026-04-25T09:01:09.038Z</time></trkpt><trkpt lat="42.3887511" lon="-7.583365"><ele>634.0</ele><time>2026-04-25T09:01:10.055Z</time></trkpt><trkpt lat="42.3886529" lon="-7.5832327"><ele>634.0</ele><time>2026-04-25T09:01:11.038Z</time></trkpt><trkpt lat="42.3885443" lon="-7.583107"><ele>634.0</ele><time>2026-04-25T09:01:12.054Z</time></trkpt><trkpt lat="42.3884335" lon="-7.5829922"><ele>634.0</ele><time>2026-04-25T09:01:13.053Z</time></trkpt><trkpt lat="42.388318" lon="-7.5828986"><ele>634.0</ele><time>2026-04-25T09:01:14.046Z</time></trkpt><trkpt lat="42.3881948" lon="-7.5828102"><ele>632.0</ele><time>2026-04-25T09:01:15.038Z</time></trkpt><trkpt lat="42.388068" lon="-7.5827229"><ele>630.0</ele><time>2026-04-25T09:01:16.05Z</time></trkpt><trkpt lat="42.3879386" lon="-7.5826558"><ele>628.0</ele><time>2026-04-25T09:01:17.05Z</time></trkpt><trkpt lat="42.3878147" lon="-7.5825939"><ele>626.0</ele><time>2026-04-25T09:01:18.042Z</time></trkpt><trkpt lat="42.387693" lon="-7.5825479"><ele>625.75</ele><time>2026-04-25T09:01:19.041Z</time></trkpt><trkpt lat="42.3875741" lon="-7.5825105"><ele>625.5</ele><time>2026-04-25T09:01:20.048Z</time></trkpt><trkpt lat="42.3874525" lon="-7.5824881"><ele>625.25</ele><time>2026-04-25T09:01:21.053Z</time></trkpt><trkpt lat="42.3873302" lon="-7.5824736"><ele>625.0</ele><time>2026-04-25T09:01:22.04Z</time></trkpt><trkpt lat="42.3872121" lon="-7.5824569"><ele>625.2</ele><time>2026-04-25T09:01:23.048Z</time></trkpt><trkpt lat="42.3870925" lon="-7.5824364"><ele>625.4</ele><time>2026-04-25T09:01:24.04Z</time></trkpt><trkpt lat="42.3869891" lon="-7.5824088"><ele>625.6</ele><time>2026-04-25T09:01:25.046Z</time></trkpt><trkpt lat="42.3869064" lon="-7.582364"><ele>625.8</ele><time>2026-04-25T09:01:26.038Z</time></trkpt><trkpt lat="42.3868519" lon="-7.5822879"><ele>626.0</ele><time>2026-04-25T09:01:27.045Z</time></trkpt><trkpt lat="42.3868193" lon="-7.5821914"><ele>626.0</ele><time>2026-04-25T09:01:28.05Z</time></trkpt><trkpt lat="42.386852" lon="-7.5820677"><ele>626.0</ele><time>2026-04-25T09:01:29.045Z</time></trkpt><trkpt lat="42.3869167" lon="-7.5819337"><ele>626.0</ele><time>2026-04-25T09:01:30.053Z</time></trkpt><trkpt lat="42.3870006" lon="-7.5817956"><ele>626.0</ele><time>2026-04-25T09:01:31.058Z</time></trkpt><trkpt lat="42.387077" lon="-7.5816369"><ele>626.5</ele><time>2026-04-25T09:01:32.051Z</time></trkpt><trkpt lat="42.3871481" lon="-7.5814735"><ele>627.0</ele><time>2026-04-25T09:01:33.044Z</time></trkpt><trkpt lat="42.387204" lon="-7.5813153"><ele>627.5</ele><time>2026-04-25T09:01:34.037Z</time></trkpt><trkpt lat="42.3872568" lon="-7.5811431"><ele>628.0</ele><time>2026-04-25T09:01:35.049Z</time></trkpt><trkpt lat="42.387313" lon="-7.5809611"><ele>627.0</ele><time>2026-04-25T09:01:36.053Z</time></trkpt><trkpt lat="42.3873618" lon="-7.5807898"><ele>626.0</ele><time>2026-04-25T09:01:37.039Z</time></trkpt><trkpt lat="42.387407" lon="-7.5806353"><ele>625.0</ele><time>2026-04-25T09:01:38.053Z</time></trkpt><trkpt lat="42.387448" lon="-7.5804793"><ele>624.0</ele><time>2026-04-25T09:01:39.056Z</time></trkpt><trkpt lat="42.3875121" lon="-7.5803204"><ele>626.0</ele><time>2026-04-25T09:01:40.046Z</time></trkpt><trkpt lat="42.3875309" lon="-7.5801316"><ele>628.0</ele><time>2026-04-25T09:01:41.045Z</time></trkpt><trkpt lat="42.3875336" lon="-7.5799369"><ele>630.0</ele><time>2026-04-25T09:01:42.045Z</time></trkpt><trkpt lat="42.3875308" lon="-7.5797306"><ele>632.0</ele><time>2026-04-25T09:01:43.049Z</time></trkpt><trkpt lat="42.3875234" lon="-7.57952"><ele>634.0</ele><time>2026-04-25T09:01:44.046Z</time></trkpt><trkpt lat="42.3874905" lon="-7.5793012"><ele>636.0</ele><time>2026-04-25T09:01:45.047Z</time></trkpt><trkpt lat="42.3874557" lon="-7.5790747"><ele>638.0</ele><time>2026-04-25T09:01:46.055Z</time></trkpt><trkpt lat="42.3874201" lon="-7.5788515"><ele>638.5999999999999</ele><time>2026-04-25T09:01:47.049Z</time></trkpt><trkpt lat="42.3873825" lon="-7.5786568"><ele>639.1999999999999</ele><time>2026-04-25T09:01:48.044Z</time></trkpt><trkpt lat="42.3873572" lon="-7.5785005"><ele>639.8</ele><time>2026-04-25T09:01:49.051Z</time></trkpt><trkpt lat="42.3873334" lon="-7.5783776"><ele>640.4</ele><time>2026-04-25T09:01:50.04Z</time></trkpt><trkpt lat="42.3873087" lon="-7.5782814"><ele>641.0</ele><time>2026-04-25T09:01:51.048Z</time></trkpt><trkpt lat="42.387285" lon="-7.5781618"><ele>641.0</ele><time>2026-04-25T09:01:53.054Z</time></trkpt><trkpt lat="42.3873229" lon="-7.5780919"><ele>641.0</ele><time>2026-04-25T09:01:55.054Z</time></trkpt><trkpt lat="42.3874326" lon="-7.5780503"><ele>641.0</ele><time>2026-04-25T09:01:57.049Z</time></trkpt><trkpt lat="42.3875046" lon="-7.578031"><ele>641.0</ele><time>2026-04-25T09:01:58.044Z</time></trkpt><trkpt lat="42.3875762" lon="-7.5779949"><ele>641.0</ele><time>2026-04-25T09:01:59.047Z</time></trkpt><trkpt lat="42.3876542" lon="-7.577956"><ele>641.0</ele><time>2026-04-25T09:02:00.041Z</time></trkpt><trkpt lat="42.3877269" lon="-7.5779042"><ele>641.0</ele><time>2026-04-25T09:02:01.046Z</time></trkpt><trkpt lat="42.3877919" lon="-7.577857"><ele>641.0</ele><time>2026-04-25T09:02:02.041Z</time></trkpt><trkpt lat="42.3878686" lon="-7.5778235"><ele>641.0</ele><time>2026-04-25T09:02:03.042Z</time></trkpt><trkpt lat="42.387934" lon="-7.5778057"><ele>641.0</ele><time>2026-04-25T09:02:04.05Z</time></trkpt><trkpt lat="42.388013" lon="-7.577833"><ele>641.0</ele><time>2026-04-25T09:02:05.047Z</time></trkpt><trkpt lat="42.3880967" lon="-7.5778441"><ele>641.0</ele><time>2026-04-25T09:02:06.051Z</time></trkpt><trkpt lat="42.3881747" lon="-7.5778555"><ele>639.5</ele><time>2026-04-25T09:02:07.048Z</time></trkpt><trkpt lat="42.388248" lon="-7.5778593"><ele>638.0</ele><time>2026-04-25T09:02:08.051Z</time></trkpt><trkpt lat="42.3883143" lon="-7.5778607"><ele>636.5</ele><time>2026-04-25T09:02:09.054Z</time></trkpt><trkpt lat="42.3884325" lon="-7.5778718"><ele>635.0</ele><time>2026-04-25T09:02:11.054Z</time></trkpt><trkpt lat="42.3884965" lon="-7.5778805"><ele>633.5</ele><time>2026-04-25T09:02:12.048Z</time></trkpt><trkpt lat="42.3885641" lon="-7.5778962"><ele>632.0</ele><time>2026-04-25T09:02:13.059Z</time></trkpt><trkpt lat="42.388634" lon="-7.5779144"><ele>632.0</ele><time>2026-04-25T09:02:14.048Z</time></trkpt><trkpt lat="42.3887072" lon="-7.5779405"><ele>632.0</ele><time>2026-04-25T09:02:15.046Z</time></trkpt><trkpt lat="42.3888189" lon="-7.5779829"><ele>632.0</ele><time>2026-04-25T09:02:17.055Z</time></trkpt><trkpt lat="42.3889331" lon="-7.5779954"><ele>632.0</ele><time>2026-04-25T09:02:19.051Z</time></trkpt><trkpt lat="42.3890466" lon="-7.5780177"><ele>632.0</ele><time>2026-04-25T09:02:21.05Z</time></trkpt><trkpt lat="42.3891546" lon="-7.5780403"><ele>630.5</ele><time>2026-04-25T09:02:23.061Z</time></trkpt><trkpt lat="42.3892653" lon="-7.5780739"><ele>629.0</ele><time>2026-04-25T09:02:25.055Z</time></trkpt><trkpt lat="42.3893291" lon="-7.57809"><ele>627.5</ele><time>2026-04-25T09:02:26.059Z</time></trkpt><trkpt lat="42.389395" lon="-7.578103"><ele>626.0</ele><time>2026-04-25T09:02:27.048Z</time></trkpt><trkpt lat="42.3894645" lon="-7.5781033"><ele>624.5</ele><time>2026-04-25T09:02:28.053Z</time></trkpt><trkpt lat="42.3895784" lon="-7.578053"><ele>623.0</ele><time>2026-04-25T09:02:30.05Z</time></trkpt><trkpt lat="42.38963" lon="-7.5779951"><ele>621.8</ele><time>2026-04-25T09:02:31.049Z</time></trkpt><trkpt lat="42.3897043" lon="-7.5778692"><ele>620.5999999999999</ele><time>2026-04-25T09:02:33.053Z</time></trkpt><trkpt lat="42.3897788" lon="-7.5777756"><ele>619.4000000000001</ele><time>2026-04-25T09:02:35.047Z</time></trkpt><trkpt lat="42.3898727" lon="-7.5777057"><ele>618.2</ele><time>2026-04-25T09:02:37.046Z</time></trkpt><trkpt lat="42.3899423" lon="-7.5776749"><ele>617.0</ele><time>2026-04-25T09:02:38.047Z</time></trkpt><trkpt lat="42.3900145" lon="-7.5776552"><ele>616.5714285714286</ele><time>2026-04-25T09:02:39.046Z</time></trkpt><trkpt lat="42.3900852" lon="-7.5776446"><ele>616.1428571428571</ele><time>2026-04-25T09:02:40.051Z</time></trkpt><trkpt lat="42.3901571" lon="-7.577635"><ele>615.7142857142857</ele><time>2026-04-25T09:02:41.043Z</time></trkpt><trkpt lat="42.3902306" lon="-7.5776234"><ele>615.2857142857142</ele><time>2026-04-25T09:02:42.05Z</time></trkpt><trkpt lat="42.3902994" lon="-7.5776135"><ele>614.8571428571429</ele><time>2026-04-25T09:02:43.061Z</time></trkpt><trkpt lat="42.3903625" lon="-7.5775976"><ele>614.4285714285713</ele><time>2026-04-25T09:02:44.046Z</time></trkpt><trkpt lat="42.3904248" lon="-7.5775845"><ele>614.0</ele><time>2026-04-25T09:02:45.05Z</time></trkpt><trkpt lat="42.3904873" lon="-7.5775691"><ele>613.6</ele><time>2026-04-25T09:02:46.05Z</time></trkpt><trkpt lat="42.3905492" lon="-7.5775363"><ele>613.2</ele><time>2026-04-25T09:02:47.041Z</time></trkpt><trkpt lat="42.3906566" lon="-7.5774479"><ele>612.8000000000001</ele><time>2026-04-25T09:02:49.05Z</time></trkpt><trkpt lat="42.3907056" lon="-7.5773849"><ele>612.4</ele><time>2026-04-25T09:02:50.049Z</time></trkpt><trkpt lat="42.39075" lon="-7.5773165"><ele>612.0</ele><time>2026-04-25T09:02:51.05Z</time></trkpt><trkpt lat="42.3908273" lon="-7.5771866"><ele>612.0</ele><time>2026-04-25T09:02:53.043Z</time></trkpt><trkpt lat="42.3909042" lon="-7.5770569"><ele>612.0</ele><time>2026-04-25T09:02:55.052Z</time></trkpt><trkpt lat="42.3909297" lon="-7.5769698"><ele>612.0</ele><time>2026-04-25T09:02:56.048Z</time></trkpt><trkpt lat="42.3909017" lon="-7.5768034"><ele>612.0</ele><time>2026-04-25T09:02:58.05Z</time></trkpt><trkpt lat="42.390858" lon="-7.5767116"><ele>612.0</ele><time>2026-04-25T09:02:59.045Z</time></trkpt><trkpt lat="42.3908082" lon="-7.576612"><ele>610.8333333333334</ele><time>2026-04-25T09:03:00.038Z</time></trkpt><trkpt lat="42.3907546" lon="-7.5765065"><ele>609.6666666666666</ele><time>2026-04-25T09:03:01.048Z</time></trkpt><trkpt lat="42.390708" lon="-7.5764059"><ele>608.5</ele><time>2026-04-25T09:03:02.049Z</time></trkpt><trkpt lat="42.3906682" lon="-7.5763145"><ele>607.3333333333333</ele><time>2026-04-25T09:03:03.046Z</time></trkpt><trkpt lat="42.3906325" lon="-7.5762271"><ele>606.1666666666666</ele><time>2026-04-25T09:03:04.055Z</time></trkpt><trkpt lat="42.3906036" lon="-7.5761501"><ele>605.0</ele><time>2026-04-25T09:03:05.047Z</time></trkpt><trkpt lat="42.390551" lon="-7.5760297"><ele>604.6</ele><time>2026-04-25T09:03:07.051Z</time></trkpt><trkpt lat="42.3904965" lon="-7.5758977"><ele>604.2</ele><time>2026-04-25T09:03:09.054Z</time></trkpt><trkpt lat="42.3904289" lon="-7.5757723"><ele>603.8</ele><time>2026-04-25T09:03:11.041Z</time></trkpt><trkpt lat="42.3903594" lon="-7.5756521"><ele>603.4</ele><time>2026-04-25T09:03:13.046Z</time></trkpt><trkpt lat="42.3903089" lon="-7.5755439"><ele>603.0</ele><time>2026-04-25T09:03:15.047Z</time></trkpt><trkpt lat="42.3902806" lon="-7.5754158"><ele>601.8333333333334</ele><time>2026-04-25T09:03:17.049Z</time></trkpt><trkpt lat="42.3903202" lon="-7.5752881"><ele>600.6666666666666</ele><time>2026-04-25T09:03:19.055Z</time></trkpt><trkpt lat="42.3904168" lon="-7.5752123"><ele>599.5</ele><time>2026-04-25T09:03:21.052Z</time></trkpt><trkpt lat="42.3904805" lon="-7.5752098"><ele>598.3333333333333</ele><time>2026-04-25T09:03:22.042Z</time></trkpt><trkpt lat="42.3905572" lon="-7.575215"><ele>597.1666666666666</ele><time>2026-04-25T09:03:23.049Z</time></trkpt><trkpt lat="42.3906397" lon="-7.5752192"><ele>596.0</ele><time>2026-04-25T09:03:24.048Z</time></trkpt><trkpt lat="42.3907105" lon="-7.5752072"><ele>595.0</ele><time>2026-04-25T09:03:25.045Z</time></trkpt><trkpt lat="42.3907761" lon="-7.5751877"><ele>594.0</ele><time>2026-04-25T09:03:26.046Z</time></trkpt><trkpt lat="42.3908475" lon="-7.5751711"><ele>593.0</ele><time>2026-04-25T09:03:27.048Z</time></trkpt><trkpt lat="42.390918" lon="-7.57515"><ele>592.0</ele><time>2026-04-25T09:03:28.047Z</time></trkpt><trkpt lat="42.3909835" lon="-7.5751177"><ele>591.0</ele><time>2026-04-25T09:03:29.041Z</time></trkpt><trkpt lat="42.3910567" lon="-7.5750668"><ele>590.0</ele><time>2026-04-25T09:03:30.048Z</time></trkpt><trkpt lat="42.3911366" lon="-7.5750054"><ele>590.0</ele><time>2026-04-25T09:03:31.049Z</time></trkpt><trkpt lat="42.3912166" lon="-7.5749483"><ele>590.0</ele><time>2026-04-25T09:03:32.051Z</time></trkpt><trkpt lat="42.3912956" lon="-7.574893"><ele>590.0</ele><time>2026-04-25T09:03:33.055Z</time></trkpt><trkpt lat="42.3913774" lon="-7.5748412"><ele>590.0</ele><time>2026-04-25T09:03:34.044Z</time></trkpt><trkpt lat="42.3914473" lon="-7.5748072"><ele>590.0</ele><time>2026-04-25T09:03:35.055Z</time></trkpt><trkpt lat="42.3915368" lon="-7.5747711"><ele>590.0</ele><time>2026-04-25T09:03:37.045Z</time></trkpt><trkpt lat="42.391602" lon="-7.5747258"><ele>589.5</ele><time>2026-04-25T09:10:14.049Z</time></trkpt><trkpt lat="42.3916909" lon="-7.5746574"><ele>589.0</ele><time>2026-04-25T09:10:16.051Z</time></trkpt><trkpt lat="42.3916384" lon="-7.5747256"><ele>588.5</ele><time>2026-04-25T09:10:39.063Z</time></trkpt><trkpt lat="42.3915657" lon="-7.5747603"><ele>588.0</ele><time>2026-04-25T09:10:41.047Z</time></trkpt><trkpt lat="42.3915027" lon="-7.5748072"><ele>587.5</ele><time>2026-04-25T09:10:43.055Z</time></trkpt><trkpt lat="42.3914352" lon="-7.5748411"><ele>587.0</ele><time>2026-04-25T09:10:45.056Z</time></trkpt><trkpt lat="42.3913796" lon="-7.574755"><ele>587.0</ele><time>2026-04-25T09:10:49.061Z</time></trkpt><trkpt lat="42.3913748" lon="-7.5746522"><ele>587.0</ele><time>2026-04-25T09:10:52.05Z</time></trkpt><trkpt lat="42.3913893" lon="-7.5745439"><ele>587.0</ele><time>2026-04-25T09:10:55.049Z</time></trkpt><trkpt lat="42.3914181" lon="-7.5744475"><ele>587.0</ele><time>2026-04-25T09:10:58.051Z</time></trkpt><trkpt lat="42.3914314" lon="-7.5743531"><ele>587.0</ele><time>2026-04-25T09:11:01.045Z</time></trkpt><trkpt lat="42.3914184" lon="-7.5742403"><ele>587.0</ele><time>2026-04-25T09:11:04.048Z</time></trkpt><trkpt lat="42.3913932" lon="-7.5741278"><ele>586.5</ele><time>2026-04-25T09:11:07.048Z</time></trkpt><trkpt lat="42.3913478" lon="-7.5740187"><ele>586.0</ele><time>2026-04-25T09:11:10.051Z</time></trkpt><trkpt lat="42.3913205" lon="-7.573929"><ele>585.5</ele><time>2026-04-25T09:11:12.051Z</time></trkpt><trkpt lat="42.3913145" lon="-7.5738356"><ele>585.0</ele><time>2026-04-25T09:11:15.047Z</time></trkpt><trkpt lat="42.3913266" lon="-7.5737375"><ele>584.5</ele><time>2026-04-25T09:11:19.043Z</time></trkpt><trkpt lat="42.3913555" lon="-7.5736603"><ele>584.0</ele><time>2026-04-25T09:11:24.049Z</time></trkpt><trkpt lat="42.3913846" lon="-7.5735564"><ele>584.1666666666666</ele><time>2026-04-25T09:11:28.057Z</time></trkpt><trkpt lat="42.3913945" lon="-7.573469"><ele>584.3333333333333</ele><time>2026-04-25T09:12:00.05Z</time></trkpt><trkpt lat="42.3913953" lon="-7.5733721"><ele>584.5</ele><time>2026-04-25T09:12:03.042Z</time></trkpt><trkpt lat="42.3913919" lon="-7.5732161"><ele>584.6666666666666</ele><time>2026-04-25T09:12:05.053Z</time></trkpt><trkpt lat="42.3913766" lon="-7.5731162"><ele>584.8333333333334</ele><time>2026-04-25T09:12:06.045Z</time></trkpt><trkpt lat="42.3913657" lon="-7.573021"><ele>585.0</ele><time>2026-04-25T09:12:07.048Z</time></trkpt><trkpt lat="42.3913304" lon="-7.5729028"><ele>585.8</ele><time>2026-04-25T09:12:08.043Z</time></trkpt><trkpt lat="42.3912985" lon="-7.5728143"><ele>586.6</ele><time>2026-04-25T09:12:09.046Z</time></trkpt><trkpt lat="42.3912628" lon="-7.5727073"><ele>587.4</ele><time>2026-04-25T09:12:10.052Z</time></trkpt><trkpt lat="42.3912441" lon="-7.5725839"><ele>588.2</ele><time>2026-04-25T09:12:11.042Z</time></trkpt><trkpt lat="42.3912299" lon="-7.5724549"><ele>589.0</ele><time>2026-04-25T09:12:12.045Z</time></trkpt><trkpt lat="42.3912085" lon="-7.5723119"><ele>589.0</ele><time>2026-04-25T09:12:13.046Z</time></trkpt><trkpt lat="42.3911732" lon="-7.5721907"><ele>589.0</ele><time>2026-04-25T09:12:14.063Z</time></trkpt><trkpt lat="42.391143" lon="-7.5720779"><ele>589.0</ele><time>2026-04-25T09:12:15.046Z</time></trkpt><trkpt lat="42.3910761" lon="-7.5719967"><ele>589.0</ele><time>2026-04-25T09:12:16.043Z</time></trkpt><trkpt lat="42.3910118" lon="-7.5719165"><ele>589.0</ele><time>2026-04-25T09:12:17.051Z</time></trkpt><trkpt lat="42.3909425" lon="-7.571892"><ele>589.0</ele><time>2026-04-25T09:12:18.047Z</time></trkpt><trkpt lat="42.3908627" lon="-7.5718627"><ele>589.6666666666667</ele><time>2026-04-25T09:12:19.045Z</time></trkpt><trkpt lat="42.3907722" lon="-7.5718668"><ele>590.3333333333334</ele><time>2026-04-25T09:12:20.064Z</time></trkpt><trkpt lat="42.3906876" lon="-7.5718716"><ele>591.0</ele><time>2026-04-25T09:12:21.05Z</time></trkpt><trkpt lat="42.3906009" lon="-7.5718754"><ele>591.6666666666666</ele><time>2026-04-25T09:12:22.047Z</time></trkpt><trkpt lat="42.3905203" lon="-7.5718786"><ele>592.3333333333333</ele><time>2026-04-25T09:12:23.05Z</time></trkpt><trkpt lat="42.3904408" lon="-7.5719043"><ele>593.0</ele><time>2026-04-25T09:12:24.045Z</time></trkpt><trkpt lat="42.3903571" lon="-7.5719521"><ele>594.4</ele><time>2026-04-25T09:12:25.053Z</time></trkpt><trkpt lat="42.3902721" lon="-7.5720153"><ele>595.8</ele><time>2026-04-25T09:12:26.047Z</time></trkpt><trkpt lat="42.390179" lon="-7.572081"><ele>597.2</ele><time>2026-04-25T09:12:27.045Z</time></trkpt><trkpt lat="42.3900753" lon="-7.5721406"><ele>598.6</ele><time>2026-04-25T09:12:28.045Z</time></trkpt><trkpt lat="42.3899623" lon="-7.5721827"><ele>600.0</ele><time>2026-04-25T09:12:29.046Z</time></trkpt><trkpt lat="42.3898553" lon="-7.5722037"><ele>600.0</ele><time>2026-04-25T09:12:30.049Z</time></trkpt><trkpt lat="42.3897408" lon="-7.5722055"><ele>600.0</ele><time>2026-04-25T09:12:31.048Z</time></trkpt><trkpt lat="42.38962" lon="-7.5721958"><ele>600.0</ele><time>2026-04-25T09:12:32.046Z</time></trkpt><trkpt lat="42.3894975" lon="-7.5721852"><ele>600.0</ele><time>2026-04-25T09:12:33.045Z</time></trkpt><trkpt lat="42.3893632" lon="-7.5721737"><ele>603.0</ele><time>2026-04-25T09:12:34.051Z</time></trkpt><trkpt lat="42.3892257" lon="-7.5721678"><ele>606.0</ele><time>2026-04-25T09:12:35.045Z</time></trkpt><trkpt lat="42.3890844" lon="-7.5721715"><ele>609.0</ele><time>2026-04-25T09:12:36.049Z</time></trkpt><trkpt lat="42.3889408" lon="-7.5721873"><ele>612.0</ele><time>2026-04-25T09:12:37.052Z</time></trkpt><trkpt lat="42.3888054" lon="-7.5722171"><ele>613.8000000000001</ele><time>2026-04-25T09:12:38.055Z</time></trkpt><trkpt lat="42.3886716" lon="-7.5722459"><ele>615.6</ele><time>2026-04-25T09:12:39.049Z</time></trkpt><trkpt lat="42.3885515" lon="-7.5722734"><ele>617.4000000000001</ele><time>2026-04-25T09:12:40.058Z</time></trkpt><trkpt lat="42.388455" lon="-7.5722939"><ele>619.2</ele><time>2026-04-25T09:12:41.055Z</time></trkpt><trkpt lat="42.3883752" lon="-7.5723059"><ele>621.0</ele><time>2026-04-25T09:12:42.058Z</time></trkpt><trkpt lat="42.3882683" lon="-7.5722872"><ele>621.0</ele><time>2026-04-25T09:12:44.045Z</time></trkpt><trkpt lat="42.3882397" lon="-7.572207"><ele>621.0</ele><time>2026-04-25T09:12:46.051Z</time></trkpt><trkpt lat="42.3883086" lon="-7.5721041"><ele>621.0</ele><time>2026-04-25T09:12:48.047Z</time></trkpt><trkpt lat="42.3883611" lon="-7.5720338"><ele>621.0</ele><time>2026-04-25T09:12:49.048Z</time></trkpt><trkpt lat="42.388407" lon="-7.571948"><ele>621.0</ele><time>2026-04-25T09:12:50.045Z</time></trkpt><trkpt lat="42.3884578" lon="-7.5718419"><ele>621.0</ele><time>2026-04-25T09:12:51.05Z</time></trkpt><trkpt lat="42.3885112" lon="-7.5717296"><ele>623.5</ele><time>2026-04-25T09:12:52.046Z</time></trkpt><trkpt lat="42.3885728" lon="-7.5715874"><ele>626.0</ele><time>2026-04-25T09:12:53.05Z</time></trkpt><trkpt lat="42.3886398" lon="-7.5714388"><ele>628.5</ele><time>2026-04-25T09:12:54.05Z</time></trkpt><trkpt lat="42.3887168" lon="-7.5712711"><ele>631.0</ele><time>2026-04-25T09:12:55.052Z</time></trkpt><trkpt lat="42.3887802" lon="-7.5711048"><ele>630.0</ele><time>2026-04-25T09:12:56.044Z</time></trkpt><trkpt lat="42.3888442" lon="-7.5709383"><ele>629.0</ele><time>2026-04-25T09:12:57.044Z</time></trkpt><trkpt lat="42.3889132" lon="-7.5707638"><ele>628.0</ele><time>2026-04-25T09:12:58.049Z</time></trkpt><trkpt lat="42.3889823" lon="-7.5705741"><ele>627.0</ele><time>2026-04-25T09:12:59.055Z</time></trkpt><trkpt lat="42.3890551" lon="-7.5703679"><ele>629.6666666666666</ele><time>2026-04-25T09:13:00.045Z</time></trkpt><trkpt lat="42.3891303" lon="-7.5701575"><ele>632.3333333333333</ele><time>2026-04-25T09:13:01.045Z</time></trkpt><trkpt lat="42.389227" lon="-7.5699467"><ele>635.0</ele><time>2026-04-25T09:13:02.041Z</time></trkpt><trkpt lat="42.3893472" lon="-7.5697321"><ele>637.6666666666666</ele><time>2026-04-25T09:13:03.044Z</time></trkpt><trkpt lat="42.3894605" lon="-7.5695165"><ele>640.3333333333334</ele><time>2026-04-25T09:13:04.053Z</time></trkpt><trkpt lat="42.3895663" lon="-7.569306"><ele>643.0</ele><time>2026-04-25T09:13:05.052Z</time></trkpt><trkpt lat="42.3896682" lon="-7.5691161"><ele>641.3333333333334</ele><time>2026-04-25T09:13:06.04Z</time></trkpt><trkpt lat="42.3897474" lon="-7.5689228"><ele>639.6666666666666</ele><time>2026-04-25T09:13:07.043Z</time></trkpt><trkpt lat="42.3898216" lon="-7.5687475"><ele>638.0</ele><time>2026-04-25T09:13:08.04Z</time></trkpt><trkpt lat="42.3898915" lon="-7.5685726"><ele>638.0</ele><time>2026-04-25T09:13:09.039Z</time></trkpt><trkpt lat="42.3899353" lon="-7.568392"><ele>638.0</ele><time>2026-04-25T09:13:10.047Z</time></trkpt><trkpt lat="42.3899753" lon="-7.5681909"><ele>638.0</ele><time>2026-04-25T09:13:11.043Z</time></trkpt><trkpt lat="42.39001" lon="-7.5680113"><ele>638.0</ele><time>2026-04-25T09:13:12.04Z</time></trkpt><trkpt lat="42.3900372" lon="-7.5678495"><ele>638.8333333333333</ele><time>2026-04-25T09:13:13.044Z</time></trkpt><trkpt lat="42.3900513" lon="-7.5677229"><ele>639.6666666666666</ele><time>2026-04-25T09:13:14.044Z</time></trkpt><trkpt lat="42.3900435" lon="-7.5676161"><ele>640.5</ele><time>2026-04-25T09:13:15.047Z</time></trkpt><trkpt lat="42.3900133" lon="-7.5675165"><ele>641.3333333333334</ele><time>2026-04-25T09:13:16.053Z</time></trkpt><trkpt lat="42.3899598" lon="-7.5674299"><ele>642.1666666666667</ele><time>2026-04-25T09:13:17.052Z</time></trkpt><trkpt lat="42.3898862" lon="-7.5673527"><ele>643.0</ele><time>2026-04-25T09:13:18.042Z</time></trkpt><trkpt lat="42.3897966" lon="-7.5672748"><ele>643.0</ele><time>2026-04-25T09:13:19.055Z</time></trkpt><trkpt lat="42.3897191" lon="-7.567213"><ele>643.0</ele><time>2026-04-25T09:13:20.052Z</time></trkpt><trkpt lat="42.3896465" lon="-7.5671634"><ele>643.0</ele><time>2026-04-25T09:13:21.042Z</time></trkpt><trkpt lat="42.3895717" lon="-7.5670823"><ele>643.0</ele><time>2026-04-25T09:13:23.048Z</time></trkpt><trkpt lat="42.389621" lon="-7.5670002"><ele>643.0</ele><time>2026-04-25T09:13:27.046Z</time></trkpt><trkpt lat="42.389686" lon="-7.5669908"><ele>643.0</ele><time>2026-04-25T09:13:29.057Z</time></trkpt><trkpt lat="42.3897639" lon="-7.5669605"><ele>644.75</ele><time>2026-04-25T09:13:31.049Z</time></trkpt><trkpt lat="42.3898487" lon="-7.5669041"><ele>646.5</ele><time>2026-04-25T09:13:33.059Z</time></trkpt><trkpt lat="42.3899355" lon="-7.5668112"><ele>648.25</ele><time>2026-04-25T09:13:35.042Z</time></trkpt><trkpt lat="42.3900242" lon="-7.5666928"><ele>650.0</ele><time>2026-04-25T09:13:37.049Z</time></trkpt><trkpt lat="42.3901152" lon="-7.566574"><ele>650.0</ele><time>2026-04-25T09:13:39.046Z</time></trkpt><trkpt lat="42.3901973" lon="-7.5664612"><ele>650.0</ele><time>2026-04-25T09:13:41.058Z</time></trkpt><trkpt lat="42.3902448" lon="-7.5664003"><ele>650.0</ele><time>2026-04-25T09:13:42.054Z</time></trkpt><trkpt lat="42.3903351" lon="-7.5662731"><ele>650.0</ele><time>2026-04-25T09:13:44.053Z</time></trkpt><trkpt lat="42.3903883" lon="-7.5662082"><ele>650.0</ele><time>2026-04-25T09:13:45.047Z</time></trkpt><trkpt lat="42.390441" lon="-7.5661354"><ele>649.4</ele><time>2026-04-25T09:13:46.051Z</time></trkpt><trkpt lat="42.3905027" lon="-7.5660601"><ele>648.8</ele><time>2026-04-25T09:13:47.045Z</time></trkpt><trkpt lat="42.3905681" lon="-7.5659812"><ele>648.2</ele><time>2026-04-25T09:13:48.057Z</time></trkpt><trkpt lat="42.3906353" lon="-7.5658984"><ele>647.6</ele><time>2026-04-25T09:13:49.051Z</time></trkpt><trkpt lat="42.390704" lon="-7.5658055"><ele>647.0</ele><time>2026-04-25T09:13:50.049Z</time></trkpt><trkpt lat="42.3907732" lon="-7.5657217"><ele>647.0</ele><time>2026-04-25T09:13:51.046Z</time></trkpt><trkpt lat="42.390828" lon="-7.565652"><ele>647.0</ele><time>2026-04-25T09:13:52.054Z</time></trkpt><trkpt lat="42.3908779" lon="-7.5655918"><ele>647.0</ele><time>2026-04-25T09:13:53.06Z</time></trkpt><trkpt lat="42.390963" lon="-7.5654922"><ele>647.0</ele><time>2026-04-25T09:13:55.053Z</time></trkpt><trkpt lat="42.3909862" lon="-7.5653933"><ele>647.0</ele><time>2026-04-25T09:13:57.047Z</time></trkpt><trkpt lat="42.3910437" lon="-7.5653553"><ele>647.0</ele><time>2026-04-25T09:14:00.053Z</time></trkpt><trkpt lat="42.3910866" lon="-7.5652906"><ele>647.0</ele><time>2026-04-25T09:14:03.048Z</time></trkpt><trkpt lat="42.3910655" lon="-7.565387"><ele>647.0</ele><time>2026-04-25T09:18:11.049Z</time></trkpt><trkpt lat="42.3909951" lon="-7.5653643"><ele>647.0</ele><time>2026-04-25T09:18:14.047Z</time></trkpt><trkpt lat="42.3909448" lon="-7.5652868"><ele>647.0</ele><time>2026-04-25T09:18:16.05Z</time></trkpt><trkpt lat="42.3908772" lon="-7.5652455"><ele>647.0</ele><time>2026-04-25T09:18:18.045Z</time></trkpt><trkpt lat="42.3907752" lon="-7.5652021"><ele>647.0</ele><time>2026-04-25T09:18:20.055Z</time></trkpt><trkpt lat="42.3907064" lon="-7.565167"><ele>646.4000000000001</ele><time>2026-04-25T09:18:21.062Z</time></trkpt><trkpt lat="42.3906417" lon="-7.5651291"><ele>645.8000000000001</ele><time>2026-04-25T09:18:22.05Z</time></trkpt><trkpt lat="42.3905752" lon="-7.5650134"><ele>645.2</ele><time>2026-04-25T09:18:24.046Z</time></trkpt><trkpt lat="42.3905423" lon="-7.5648451"><ele>644.6</ele><time>2026-04-25T09:18:26.042Z</time></trkpt><trkpt lat="42.3905263" lon="-7.5647455"><ele>644.0</ele><time>2026-04-25T09:18:27.046Z</time></trkpt><trkpt lat="42.3905062" lon="-7.5646406"><ele>644.6666666666666</ele><time>2026-04-25T09:18:28.052Z</time></trkpt><trkpt lat="42.3904818" lon="-7.5645466"><ele>645.3333333333333</ele><time>2026-04-25T09:18:29.044Z</time></trkpt><trkpt lat="42.3904471" lon="-7.564465"><ele>646.0</ele><time>2026-04-25T09:18:30.053Z</time></trkpt><trkpt lat="42.3904022" lon="-7.5643992"><ele>646.6666666666666</ele><time>2026-04-25T09:18:31.047Z</time></trkpt><trkpt lat="42.3902893" lon="-7.5643315"><ele>647.3333333333334</ele><time>2026-04-25T09:18:33.047Z</time></trkpt><trkpt lat="42.3902251" lon="-7.5643077"><ele>648.0</ele><time>2026-04-25T09:18:34.049Z</time></trkpt><trkpt lat="42.3901501" lon="-7.5643045"><ele>648.0</ele><time>2026-04-25T09:18:35.046Z</time></trkpt><trkpt lat="42.3900706" lon="-7.5643134"><ele>648.0</ele><time>2026-04-25T09:18:36.057Z</time></trkpt><trkpt lat="42.3899887" lon="-7.5643369"><ele>648.0</ele><time>2026-04-25T09:18:37.047Z</time></trkpt><trkpt lat="42.3899131" lon="-7.564358"><ele>648.0</ele><time>2026-04-25T09:18:38.045Z</time></trkpt><trkpt lat="42.3898382" lon="-7.5643911"><ele>648.0</ele><time>2026-04-25T09:18:39.051Z</time></trkpt><trkpt lat="42.3897686" lon="-7.5644424"><ele>648.0</ele><time>2026-04-25T09:18:40.041Z</time></trkpt><trkpt lat="42.3897109" lon="-7.5644864"><ele>648.1666666666666</ele><time>2026-04-25T09:18:41.046Z</time></trkpt><trkpt lat="42.3896048" lon="-7.5645322"><ele>648.3333333333334</ele><time>2026-04-25T09:18:43.044Z</time></trkpt><trkpt lat="42.3895082" lon="-7.5644871"><ele>648.5</ele><time>2026-04-25T09:18:45.047Z</time></trkpt><trkpt lat="42.3894667" lon="-7.5644208"><ele>648.6666666666667</ele><time>2026-04-25T09:18:46.04Z</time></trkpt><trkpt lat="42.3894254" lon="-7.5643375"><ele>648.8333333333334</ele><time>2026-04-25T09:18:47.047Z</time></trkpt><trkpt lat="42.3893857" lon="-7.5642551"><ele>649.0</ele><time>2026-04-25T09:18:48.051Z</time></trkpt><trkpt lat="42.3893519" lon="-7.564175"><ele>648.9999999999999</ele><time>2026-04-25T09:18:49.064Z</time></trkpt><trkpt lat="42.3893196" lon="-7.5640947"><ele>649.0</ele><time>2026-04-25T09:18:50.053Z</time></trkpt><trkpt lat="42.3892935" lon="-7.5640147"><ele>649.0</ele><time>2026-04-25T09:18:51.045Z</time></trkpt><trkpt lat="42.3892657" lon="-7.5639352"><ele>649.0</ele><time>2026-04-25T09:18:52.052Z</time></trkpt><trkpt lat="42.3892336" lon="-7.563851"><ele>649.0</ele><time>2026-04-25T09:18:53.06Z</time></trkpt><trkpt lat="42.3891949" lon="-7.5637613"><ele>648.9999999999999</ele><time>2026-04-25T09:18:54.048Z</time></trkpt><trkpt lat="42.3891531" lon="-7.5636645"><ele>649.0</ele><time>2026-04-25T09:18:55.062Z</time></trkpt><trkpt lat="42.3891132" lon="-7.5635688"><ele>647.1666666666667</ele><time>2026-04-25T09:18:56.054Z</time></trkpt><trkpt lat="42.3890735" lon="-7.5634732"><ele>645.3333333333334</ele><time>2026-04-25T09:18:57.05Z</time></trkpt><trkpt lat="42.3890369" lon="-7.5633776"><ele>643.5</ele><time>2026-04-25T09:18:58.05Z</time></trkpt><trkpt lat="42.3890007" lon="-7.5632748"><ele>641.6666666666666</ele><time>2026-04-25T09:18:59.049Z</time></trkpt><trkpt lat="42.3889629" lon="-7.5631763"><ele>639.8333333333333</ele><time>2026-04-25T09:19:00.049Z</time></trkpt><trkpt lat="42.3889251" lon="-7.563081"><ele>638.0</ele><time>2026-04-25T09:19:01.053Z</time></trkpt><trkpt lat="42.3888852" lon="-7.5629892"><ele>638.5</ele><time>2026-04-25T09:19:02.044Z</time></trkpt><trkpt lat="42.3888426" lon="-7.5628996"><ele>639.0</ele><time>2026-04-25T09:19:03.052Z</time></trkpt><trkpt lat="42.3887975" lon="-7.562807"><ele>639.5</ele><time>2026-04-25T09:19:04.046Z</time></trkpt><trkpt lat="42.3887494" lon="-7.5627137"><ele>640.0</ele><time>2026-04-25T09:19:05.044Z</time></trkpt><trkpt lat="42.3886999" lon="-7.5626229"><ele>640.5</ele><time>2026-04-25T09:19:06.059Z</time></trkpt><trkpt lat="42.3886549" lon="-7.5625335"><ele>641.0</ele><time>2026-04-25T09:19:07.053Z</time></trkpt><trkpt lat="42.3886125" lon="-7.5624486"><ele>639.6666666666666</ele><time>2026-04-25T09:19:08.046Z</time></trkpt><trkpt lat="42.3885886" lon="-7.5623533"><ele>638.3333333333333</ele><time>2026-04-25T09:19:09.05Z</time></trkpt><trkpt lat="42.3885692" lon="-7.5622458"><ele>637.0</ele><time>2026-04-25T09:19:10.05Z</time></trkpt><trkpt lat="42.3885462" lon="-7.5621394"><ele>635.6666666666666</ele><time>2026-04-25T09:19:11.045Z</time></trkpt><trkpt lat="42.3885185" lon="-7.5620438"><ele>634.3333333333334</ele><time>2026-04-25T09:19:12.049Z</time></trkpt><trkpt lat="42.3884685" lon="-7.5618917"><ele>633.0</ele><time>2026-04-25T09:19:14.044Z</time></trkpt><trkpt lat="42.3884277" lon="-7.5618218"><ele>631.0</ele><time>2026-04-25T09:19:15.044Z</time></trkpt><trkpt lat="42.388325" lon="-7.5617449"><ele>629.0</ele><time>2026-04-25T09:19:17.049Z</time></trkpt><trkpt lat="42.3882639" lon="-7.5617128"><ele>627.0</ele><time>2026-04-25T09:19:18.058Z</time></trkpt><trkpt lat="42.3882041" lon="-7.5616833"><ele>625.0</ele><time>2026-04-25T09:19:19.051Z</time></trkpt><trkpt lat="42.3881453" lon="-7.5616491"><ele>623.0</ele><time>2026-04-25T09:19:20.05Z</time></trkpt><trkpt lat="42.3880465" lon="-7.5615349"><ele>621.0</ele><time>2026-04-25T09:19:22.044Z</time></trkpt><trkpt lat="42.3879918" lon="-7.5614584"><ele>621.0</ele><time>2026-04-25T09:19:23.065Z</time></trkpt><trkpt lat="42.3879374" lon="-7.5613827"><ele>621.0</ele><time>2026-04-25T09:19:24.042Z</time></trkpt><trkpt lat="42.3878861" lon="-7.5613021"><ele>621.0</ele><time>2026-04-25T09:19:25.045Z</time></trkpt><trkpt lat="42.3878337" lon="-7.5612236"><ele>621.0</ele><time>2026-04-25T09:19:26.047Z</time></trkpt><trkpt lat="42.3877923" lon="-7.561139"><ele>621.0</ele><time>2026-04-25T09:19:27.05Z</time></trkpt><trkpt lat="42.3877552" lon="-7.5610555"><ele>621.0</ele><time>2026-04-25T09:19:28.044Z</time></trkpt><trkpt lat="42.3877181" lon="-7.5609733"><ele>619.8333333333334</ele><time>2026-04-25T09:19:29.057Z</time></trkpt><trkpt lat="42.387682" lon="-7.5608822"><ele>618.6666666666666</ele><time>2026-04-25T09:19:30.05Z</time></trkpt><trkpt lat="42.387662" lon="-7.5607899"><ele>617.5</ele><time>2026-04-25T09:19:31.056Z</time></trkpt><trkpt lat="42.3876504" lon="-7.5606985"><ele>616.3333333333333</ele><time>2026-04-25T09:19:32.05Z</time></trkpt><trkpt lat="42.3876415" lon="-7.5605982"><ele>615.1666666666666</ele><time>2026-04-25T09:19:33.043Z</time></trkpt><trkpt lat="42.3876343" lon="-7.5605132"><ele>614.0</ele><time>2026-04-25T09:19:34.043Z</time></trkpt><trkpt lat="42.3876414" lon="-7.5603825"><ele>614.0</ele><time>2026-04-25T09:19:36.049Z</time></trkpt><trkpt lat="42.3875767" lon="-7.5603051"><ele>614.0</ele><time>2026-04-25T09:19:39.045Z</time></trkpt><trkpt lat="42.3874947" lon="-7.5603271"><ele>614.0</ele><time>2026-04-25T09:19:41.05Z</time></trkpt><trkpt lat="42.387412" lon="-7.5603794"><ele>614.0</ele><time>2026-04-25T09:19:43.048Z</time></trkpt><trkpt lat="42.3873441" lon="-7.5604101"><ele>614.0</ele><time>2026-04-25T09:19:45.054Z</time></trkpt><trkpt lat="42.3872765" lon="-7.5604304"><ele>614.0</ele><time>2026-04-25T09:19:47.049Z</time></trkpt><trkpt lat="42.387212" lon="-7.5603406"><ele>611.6</ele><time>2026-04-25T09:19:50.052Z</time></trkpt><trkpt lat="42.3872235" lon="-7.5602263"><ele>609.2</ele><time>2026-04-25T09:19:52.043Z</time></trkpt><trkpt lat="42.3872503" lon="-7.5600646"><ele>606.8000000000001</ele><time>2026-04-25T09:19:54.045Z</time></trkpt><trkpt lat="42.3872519" lon="-7.5599016"><ele>604.4</ele><time>2026-04-25T09:19:56.043Z</time></trkpt><trkpt lat="42.3872356" lon="-7.5597404"><ele>602.0</ele><time>2026-04-25T09:19:58.05Z</time></trkpt><trkpt lat="42.3872123" lon="-7.5596503"><ele>602.0</ele><time>2026-04-25T09:19:59.042Z</time></trkpt><trkpt lat="42.3871726" lon="-7.5595475"><ele>602.0</ele><time>2026-04-25T09:20:00.04Z</time></trkpt><trkpt lat="42.3871143" lon="-7.5594283"><ele>602.0</ele><time>2026-04-25T09:20:01.046Z</time></trkpt><trkpt lat="42.3870653" lon="-7.5593222"><ele>602.0</ele><time>2026-04-25T09:20:02.041Z</time></trkpt><trkpt lat="42.3870268" lon="-7.5592283"><ele>602.0</ele><time>2026-04-25T09:20:03.047Z</time></trkpt><trkpt lat="42.3869959" lon="-7.5591424"><ele>602.0</ele><time>2026-04-25T09:20:04.043Z</time></trkpt><trkpt lat="42.3869678" lon="-7.559066"><ele>600.5</ele><time>2026-04-25T09:20:05.046Z</time></trkpt><trkpt lat="42.3868942" lon="-7.5589517"><ele>599.0</ele><time>2026-04-25T09:20:07.042Z</time></trkpt><trkpt lat="42.3867793" lon="-7.5589451"><ele>597.5</ele><time>2026-04-25T09:20:09.048Z</time></trkpt><trkpt lat="42.3866769" lon="-7.5590107"><ele>596.0</ele><time>2026-04-25T09:20:11.048Z</time></trkpt><trkpt lat="42.3865716" lon="-7.5589594"><ele>596.0</ele><time>2026-04-25T09:20:13.039Z</time></trkpt><trkpt lat="42.3865401" lon="-7.5588826"><ele>596.0</ele><time>2026-04-25T09:20:14.05Z</time></trkpt><trkpt lat="42.3865234" lon="-7.5587611"><ele>596.0</ele><time>2026-04-25T09:20:15.049Z</time></trkpt><trkpt lat="42.3865054" lon="-7.55866"><ele>596.0</ele><time>2026-04-25T09:20:16.051Z</time></trkpt><trkpt lat="42.3864672" lon="-7.5585259"><ele>596.0</ele><time>2026-04-25T09:20:18.05Z</time></trkpt><trkpt lat="42.386406" lon="-7.5584424"><ele>596.0</ele><time>2026-04-25T09:20:20.064Z</time></trkpt><trkpt lat="42.3863078" lon="-7.5584657"><ele>595.1666666666666</ele><time>2026-04-25T09:20:22.049Z</time></trkpt><trkpt lat="42.3862454" lon="-7.5585122"><ele>594.3333333333333</ele><time>2026-04-25T09:20:23.049Z</time></trkpt><trkpt lat="42.3861833" lon="-7.5586189"><ele>593.5</ele><time>2026-04-25T09:20:24.044Z</time></trkpt><trkpt lat="42.3861286" lon="-7.5587119"><ele>592.6666666666666</ele><time>2026-04-25T09:20:25.043Z</time></trkpt><trkpt lat="42.3860793" lon="-7.5587932"><ele>591.8333333333334</ele><time>2026-04-25T09:20:26.045Z</time></trkpt><trkpt lat="42.3860398" lon="-7.5588605"><ele>591.0</ele><time>2026-04-25T09:20:27.036Z</time></trkpt><trkpt lat="42.3859426" lon="-7.5588782"><ele>591.0</ele><time>2026-04-25T09:20:29.045Z</time></trkpt><trkpt lat="42.3858853" lon="-7.5588362"><ele>591.0</ele><time>2026-04-25T09:20:30.045Z</time></trkpt><trkpt lat="42.3858192" lon="-7.5587992"><ele>591.0</ele><time>2026-04-25T09:20:31.046Z</time></trkpt><trkpt lat="42.3857446" lon="-7.5587838"><ele>591.0</ele><time>2026-04-25T09:20:32.039Z</time></trkpt><trkpt lat="42.3856153" lon="-7.5587737"><ele>591.0</ele><time>2026-04-25T09:20:34.046Z</time></trkpt><trkpt lat="42.3855542" lon="-7.5587353"><ele>591.0</ele><time>2026-04-25T09:20:35.045Z</time></trkpt><trkpt lat="42.3854809" lon="-7.5586556"><ele>587.8</ele><time>2026-04-25T09:20:36.042Z</time></trkpt><trkpt lat="42.3854009" lon="-7.5585631"><ele>584.6</ele><time>2026-04-25T09:20:37.037Z</time></trkpt><trkpt lat="42.3853377" lon="-7.5584798"><ele>581.4</ele><time>2026-04-25T09:20:38.042Z</time></trkpt><trkpt lat="42.3852936" lon="-7.5583943"><ele>578.2</ele><time>2026-04-25T09:20:39.047Z</time></trkpt><trkpt lat="42.3852643" lon="-7.5583114"><ele>575.0</ele><time>2026-04-25T09:20:40.045Z</time></trkpt><trkpt lat="42.385241" lon="-7.5581381"><ele>575.0</ele><time>2026-04-25T09:20:42.034Z</time></trkpt><trkpt lat="42.385236" lon="-7.5580279"><ele>575.0</ele><time>2026-04-25T09:20:43.043Z</time></trkpt><trkpt lat="42.3852209" lon="-7.5579096"><ele>575.0</ele><time>2026-04-25T09:20:44.049Z</time></trkpt><trkpt lat="42.3851981" lon="-7.5577993"><ele>575.0</ele><time>2026-04-25T09:20:45.04Z</time></trkpt><trkpt lat="42.3851763" lon="-7.5576869"><ele>575.0</ele><time>2026-04-25T09:20:46.04Z</time></trkpt><trkpt lat="42.3851385" lon="-7.5575788"><ele>575.0</ele><time>2026-04-25T09:20:47.041Z</time></trkpt><trkpt lat="42.3850922" lon="-7.557481"><ele>574.0</ele><time>2026-04-25T09:20:48.043Z</time></trkpt><trkpt lat="42.385048" lon="-7.5573888"><ele>573.0</ele><time>2026-04-25T09:20:49.039Z</time></trkpt><trkpt lat="42.3849942" lon="-7.5573253"><ele>572.0</ele><time>2026-04-25T09:20:50.039Z</time></trkpt><trkpt lat="42.3849255" lon="-7.5572788"><ele>571.0</ele><time>2026-04-25T09:20:51.043Z</time></trkpt><trkpt lat="42.3848533" lon="-7.5572953"><ele>570.0</ele><time>2026-04-25T09:20:52.045Z</time></trkpt><trkpt lat="42.3847758" lon="-7.5573126"><ele>569.0</ele><time>2026-04-25T09:20:53.034Z</time></trkpt><trkpt lat="42.3846849" lon="-7.5573687"><ele>568.8333333333333</ele><time>2026-04-25T09:20:54.051Z</time></trkpt><trkpt lat="42.384589" lon="-7.5574105"><ele>568.6666666666666</ele><time>2026-04-25T09:20:55.045Z</time></trkpt><trkpt lat="42.384508" lon="-7.5574178"><ele>568.5</ele><time>2026-04-25T09:20:56.044Z</time></trkpt><trkpt lat="42.3844459" lon="-7.5573884"><ele>568.3333333333334</ele><time>2026-04-25T09:20:57.04Z</time></trkpt><trkpt lat="42.3843919" lon="-7.5573144"><ele>568.1666666666667</ele><time>2026-04-25T09:20:58.043Z</time></trkpt><trkpt lat="42.3843346" lon="-7.5571763"><ele>568.0</ele><time>2026-04-25T09:20:59.045Z</time></trkpt><trkpt lat="42.3842856" lon="-7.5570587"><ele>565.8333333333334</ele><time>2026-04-25T09:21:00.042Z</time></trkpt><trkpt lat="42.3842261" lon="-7.5569674"><ele>563.6666666666667</ele><time>2026-04-25T09:21:01.047Z</time></trkpt><trkpt lat="42.3841675" lon="-7.556893"><ele>561.5</ele><time>2026-04-25T09:21:02.04Z</time></trkpt><trkpt lat="42.3841009" lon="-7.5568141"><ele>559.3333333333334</ele><time>2026-04-25T09:21:04.044Z</time></trkpt><trkpt lat="42.3840307" lon="-7.5568586"><ele>557.1666666666666</ele><time>2026-04-25T09:21:10.044Z</time></trkpt><trkpt lat="42.3839613" lon="-7.5568851"><ele>555.0</ele><time>2026-04-25T09:21:11.044Z</time></trkpt><trkpt lat="42.3838721" lon="-7.5569185"><ele>555.0</ele><time>2026-04-25T09:21:12.044Z</time></trkpt><trkpt lat="42.3837731" lon="-7.5569538"><ele>555.0</ele><time>2026-04-25T09:21:13.043Z</time></trkpt><trkpt lat="42.3836844" lon="-7.5569865"><ele>555.0</ele><time>2026-04-25T09:21:14.047Z</time></trkpt><trkpt lat="42.3836093" lon="-7.5570168"><ele>555.0</ele><time>2026-04-25T09:21:15.047Z</time></trkpt><trkpt lat="42.3835266" lon="-7.5570454"><ele>555.0</ele><time>2026-04-25T09:21:16.042Z</time></trkpt><trkpt lat="42.3834398" lon="-7.5570762"><ele>555.0</ele><time>2026-04-25T09:21:17.039Z</time></trkpt><trkpt lat="42.3833539" lon="-7.5571044"><ele>556.5</ele><time>2026-04-25T09:21:18.055Z</time></trkpt><trkpt lat="42.3832785" lon="-7.5571184"><ele>558.0</ele><time>2026-04-25T09:21:19.04Z</time></trkpt><trkpt lat="42.3832107" lon="-7.557143"><ele>559.5</ele><time>2026-04-25T09:21:20.051Z</time></trkpt><trkpt lat="42.3831352" lon="-7.5571745"><ele>561.0</ele><time>2026-04-25T09:21:21.045Z</time></trkpt><trkpt lat="42.3830681" lon="-7.5572025"><ele>562.5</ele><time>2026-04-25T09:21:22.043Z</time></trkpt><trkpt lat="42.3829916" lon="-7.5572767"><ele>564.0</ele><time>2026-04-25T09:21:24.052Z</time></trkpt><trkpt lat="42.3829809" lon="-7.5573879"><ele>565.4</ele><time>2026-04-25T09:21:26.047Z</time></trkpt><trkpt lat="42.3830401" lon="-7.5575043"><ele>566.8</ele><time>2026-04-25T09:21:28.052Z</time></trkpt><trkpt lat="42.3831265" lon="-7.5576127"><ele>568.2</ele><time>2026-04-25T09:21:30.042Z</time></trkpt><trkpt lat="42.3832035" lon="-7.557723"><ele>569.6</ele><time>2026-04-25T09:21:32.044Z</time></trkpt><trkpt lat="42.3832756" lon="-7.5578312"><ele>571.0</ele><time>2026-04-25T09:21:34.037Z</time></trkpt><trkpt lat="42.3833059" lon="-7.557907"><ele>573.4</ele><time>2026-04-25T09:21:35.042Z</time></trkpt><trkpt lat="42.3833287" lon="-7.5580427"><ele>575.8</ele><time>2026-04-25T09:21:37.04Z</time></trkpt><trkpt lat="42.3832895" lon="-7.5581408"><ele>578.1999999999999</ele><time>2026-04-25T09:21:39.038Z</time></trkpt><trkpt lat="42.3831958" lon="-7.5582359"><ele>580.6</ele><time>2026-04-25T09:21:41.056Z</time></trkpt><trkpt lat="42.3831118" lon="-7.5583462"><ele>583.0</ele><time>2026-04-25T09:21:43.04Z</time></trkpt><trkpt lat="42.3830442" lon="-7.558446"><ele>582.3333333333334</ele><time>2026-04-25T09:21:45.042Z</time></trkpt><trkpt lat="42.3829449" lon="-7.5585409"><ele>581.6666666666667</ele><time>2026-04-25T09:21:47.042Z</time></trkpt><trkpt lat="42.3828938" lon="-7.5586004"><ele>581.0</ele><time>2026-04-25T09:21:48.038Z</time></trkpt><trkpt lat="42.3828537" lon="-7.5586686"><ele>580.3333333333334</ele><time>2026-04-25T09:21:49.047Z</time></trkpt><trkpt lat="42.3828146" lon="-7.5587384"><ele>579.6666666666666</ele><time>2026-04-25T09:21:50.039Z</time></trkpt><trkpt lat="42.3827787" lon="-7.5588158"><ele>579.0</ele><time>2026-04-25T09:21:51.054Z</time></trkpt><trkpt lat="42.3827326" lon="-7.5589649"><ele>580.8333333333334</ele><time>2026-04-25T09:21:53.045Z</time></trkpt><trkpt lat="42.3827121" lon="-7.55905"><ele>582.6666666666666</ele><time>2026-04-25T09:21:54.041Z</time></trkpt><trkpt lat="42.382705" lon="-7.5591598"><ele>584.5</ele><time>2026-04-25T09:21:56.048Z</time></trkpt><trkpt lat="42.3827662" lon="-7.5592421"><ele>586.3333333333333</ele><time>2026-04-25T09:21:59.057Z</time></trkpt><trkpt lat="42.3828286" lon="-7.5592216"><ele>588.1666666666666</ele><time>2026-04-25T09:22:01.041Z</time></trkpt><trkpt lat="42.382939" lon="-7.5591951"><ele>590.0</ele><time>2026-04-25T09:22:03.058Z</time></trkpt><trkpt lat="42.3830073" lon="-7.5591837"><ele>591.3333333333333</ele><time>2026-04-25T09:22:04.038Z</time></trkpt><trkpt lat="42.3831071" lon="-7.5591948"><ele>592.6666666666666</ele><time>2026-04-25T09:22:06.054Z</time></trkpt><trkpt lat="42.3831693" lon="-7.5592422"><ele>594.0</ele><time>2026-04-25T09:22:08.043Z</time></trkpt><trkpt lat="42.3832389" lon="-7.5593402"><ele>595.3333333333334</ele><time>2026-04-25T09:22:10.044Z</time></trkpt><trkpt lat="42.3832648" lon="-7.559427"><ele>596.6666666666667</ele><time>2026-04-25T09:22:12.044Z</time></trkpt><trkpt lat="42.3832734" lon="-7.5595311"><ele>598.0</ele><time>2026-04-25T09:22:14.051Z</time></trkpt><trkpt lat="42.3832836" lon="-7.5596525"><ele>599.1999999999999</ele><time>2026-04-25T09:22:16.046Z</time></trkpt><trkpt lat="42.3832891" lon="-7.5597709"><ele>600.4</ele><time>2026-04-25T09:22:18.051Z</time></trkpt><trkpt lat="42.3832969" lon="-7.5599072"><ele>601.5999999999999</ele><time>2026-04-25T09:22:20.042Z</time></trkpt><trkpt lat="42.3833012" lon="-7.5599953"><ele>602.8</ele><time>2026-04-25T09:22:21.059Z</time></trkpt><trkpt lat="42.3833251" lon="-7.5601593"><ele>604.0</ele><time>2026-04-25T09:22:23.054Z</time></trkpt><trkpt lat="42.3833338" lon="-7.5602593"><ele>604.0</ele><time>2026-04-25T09:22:24.045Z</time></trkpt><trkpt lat="42.3833432" lon="-7.5603497"><ele>604.0</ele><time>2026-04-25T09:22:25.047Z</time></trkpt><trkpt lat="42.3833656" lon="-7.5604427"><ele>604.0</ele><time>2026-04-25T09:22:26.049Z</time></trkpt><trkpt lat="42.3834068" lon="-7.5605633"><ele>604.0</ele><time>2026-04-25T09:22:28.069Z</time></trkpt><trkpt lat="42.3834362" lon="-7.5607026"><ele>604.0</ele><time>2026-04-25T09:22:37.054Z</time></trkpt><trkpt lat="42.383473" lon="-7.5607733"><ele>604.0</ele><time>2026-04-25T09:22:40.039Z</time></trkpt><trkpt lat="42.3835253" lon="-7.5608209"><ele>605.4</ele><time>2026-04-25T09:22:42.052Z</time></trkpt><trkpt lat="42.3836094" lon="-7.5608493"><ele>606.8</ele><time>2026-04-25T09:22:44.041Z</time></trkpt><trkpt lat="42.3837065" lon="-7.560902"><ele>608.2</ele><time>2026-04-25T09:22:46.049Z</time></trkpt><trkpt lat="42.3837951" lon="-7.560998"><ele>609.6</ele><time>2026-04-25T09:22:48.042Z</time></trkpt><trkpt lat="42.3838554" lon="-7.5611309"><ele>611.0</ele><time>2026-04-25T09:22:50.054Z</time></trkpt><trkpt lat="42.3838934" lon="-7.5612632"><ele>613.4</ele><time>2026-04-25T09:22:52.046Z</time></trkpt><trkpt lat="42.3839168" lon="-7.5613953"><ele>615.8</ele><time>2026-04-25T09:22:54.053Z</time></trkpt><trkpt lat="42.3839553" lon="-7.5615101"><ele>618.1999999999999</ele><time>2026-04-25T09:22:56.052Z</time></trkpt><trkpt lat="42.3839872" lon="-7.5616306"><ele>620.6</ele><time>2026-04-25T09:22:58.045Z</time></trkpt><trkpt lat="42.3840257" lon="-7.5617775"><ele>623.0</ele><time>2026-04-25T09:23:00.05Z</time></trkpt><trkpt lat="42.3840559" lon="-7.5619064"><ele>624.0</ele><time>2026-04-25T09:23:02.041Z</time></trkpt><trkpt lat="42.3840817" lon="-7.5620408"><ele>625.0</ele><time>2026-04-25T09:23:04.043Z</time></trkpt><trkpt lat="42.3840925" lon="-7.5621428"><ele>626.0</ele><time>2026-04-25T09:23:06.036Z</time></trkpt><trkpt lat="42.3840794" lon="-7.5622427"><ele>627.0</ele><time>2026-04-25T09:23:08.043Z</time></trkpt><trkpt lat="42.3840518" lon="-7.5623604"><ele>628.0</ele><time>2026-04-25T09:23:10.052Z</time></trkpt><trkpt lat="42.3840482" lon="-7.562465"><ele>629.0</ele><time>2026-04-25T09:23:12.052Z</time></trkpt><trkpt lat="42.3840655" lon="-7.5626153"><ele>629.0</ele><time>2026-04-25T09:23:14.05Z</time></trkpt><trkpt lat="42.3840907" lon="-7.562754"><ele>629.0</ele><time>2026-04-25T09:23:16.044Z</time></trkpt><trkpt lat="42.3840673" lon="-7.5628499"><ele>629.0</ele><time>2026-04-25T09:23:19.132Z</time></trkpt><trkpt lat="42.3840226" lon="-7.5629369"><ele>629.0</ele><time>2026-04-25T09:23:21.092Z</time></trkpt><trkpt lat="42.384018" lon="-7.5630459"><ele>629.0</ele><time>2026-04-25T09:23:23.063Z</time></trkpt><trkpt lat="42.3840297" lon="-7.5631327"><ele>629.0</ele><time>2026-04-25T09:23:24.047Z</time></trkpt><trkpt lat="42.384042" lon="-7.5632219"><ele>630.0</ele><time>2026-04-25T09:23:25.043Z</time></trkpt><trkpt lat="42.3840702" lon="-7.5633657"><ele>631.0</ele><time>2026-04-25T09:23:27.044Z</time></trkpt><trkpt lat="42.3840724" lon="-7.5634848"><ele>632.0</ele><time>2026-04-25T09:23:29.044Z</time></trkpt><trkpt lat="42.3840571" lon="-7.5635694"><ele>633.0</ele><time>2026-04-25T09:23:31.058Z</time></trkpt><trkpt lat="42.3839971" lon="-7.5636548"><ele>634.0</ele><time>2026-04-25T09:23:33.048Z</time></trkpt><trkpt lat="42.3839065" lon="-7.5636883"><ele>635.0</ele><time>2026-04-25T09:23:35.043Z</time></trkpt><trkpt lat="42.3838386" lon="-7.5637147"><ele>636.0</ele><time>2026-04-25T09:23:36.054Z</time></trkpt><trkpt lat="42.3837714" lon="-7.5637426"><ele>637.0</ele><time>2026-04-25T09:23:37.043Z</time></trkpt><trkpt lat="42.3836594" lon="-7.5637918"><ele>638.0</ele><time>2026-04-25T09:23:39.044Z</time></trkpt><trkpt lat="42.3835622" lon="-7.5638716"><ele>639.0</ele><time>2026-04-25T09:23:41.054Z</time></trkpt><trkpt lat="42.3834873" lon="-7.5639787"><ele>640.0</ele><time>2026-04-25T09:23:43.046Z</time></trkpt><trkpt lat="42.3834091" lon="-7.5640513"><ele>640.0</ele><time>2026-04-25T09:23:45.047Z</time></trkpt><trkpt lat="42.3833657" lon="-7.5641575"><ele>640.0</ele><time>2026-04-25T09:23:47.042Z</time></trkpt><trkpt lat="42.3833373" lon="-7.5643131"><ele>640.0</ele><time>2026-04-25T09:23:49.046Z</time></trkpt><trkpt lat="42.3833042" lon="-7.5643858"><ele>640.0</ele><time>2026-04-25T09:23:50.044Z</time></trkpt><trkpt lat="42.383264" lon="-7.5644566"><ele>640.0</ele><time>2026-04-25T09:23:51.044Z</time></trkpt><trkpt lat="42.3832227" lon="-7.5645242"><ele>640.0</ele><time>2026-04-25T09:23:52.052Z</time></trkpt><trkpt lat="42.3831381" lon="-7.5646433"><ele>639.8333333333334</ele><time>2026-04-25T09:23:54.049Z</time></trkpt><trkpt lat="42.3830457" lon="-7.5647577"><ele>639.6666666666667</ele><time>2026-04-25T09:23:56.045Z</time></trkpt><trkpt lat="42.3829973" lon="-7.5648304"><ele>639.5</ele><time>2026-04-25T09:23:57.048Z</time></trkpt><trkpt lat="42.382957" lon="-7.56491"><ele>639.3333333333334</ele><time>2026-04-25T09:23:58.053Z</time></trkpt><trkpt lat="42.3829275" lon="-7.5649906"><ele>639.1666666666666</ele><time>2026-04-25T09:23:59.049Z</time></trkpt><trkpt lat="42.3829021" lon="-7.5650722"><ele>639.0</ele><time>2026-04-25T09:24:00.053Z</time></trkpt><trkpt lat="42.382879" lon="-7.5651549"><ele>639.0000000000001</ele><time>2026-04-25T09:24:01.045Z</time></trkpt><trkpt lat="42.3828588" lon="-7.5652402"><ele>639.0</ele><time>2026-04-25T09:24:02.056Z</time></trkpt><trkpt lat="42.3828398" lon="-7.5653313"><ele>639.0</ele><time>2026-04-25T09:24:03.04Z</time></trkpt><trkpt lat="42.3828162" lon="-7.5654312"><ele>639.0</ele><time>2026-04-25T09:24:04.046Z</time></trkpt><trkpt lat="42.3827875" lon="-7.5655214"><ele>639.0</ele><time>2026-04-25T09:24:05.05Z</time></trkpt><trkpt lat="42.3827446" lon="-7.5655923"><ele>639.0000000000001</ele><time>2026-04-25T09:24:06.043Z</time></trkpt><trkpt lat="42.3826878" lon="-7.5656582"><ele>639.0</ele><time>2026-04-25T09:24:07.04Z</time></trkpt><trkpt lat="42.3826069" lon="-7.5656975"><ele>639.8</ele><time>2026-04-25T09:24:08.048Z</time></trkpt><trkpt lat="42.3825164" lon="-7.5657288"><ele>640.5999999999999</ele><time>2026-04-25T09:24:09.04Z</time></trkpt><trkpt lat="42.3824259" lon="-7.5657547"><ele>641.4</ele><time>2026-04-25T09:24:10.063Z</time></trkpt><trkpt lat="42.3823486" lon="-7.5657838"><ele>642.1999999999999</ele><time>2026-04-25T09:24:11.052Z</time></trkpt><trkpt lat="42.3822863" lon="-7.5658228"><ele>643.0</ele><time>2026-04-25T09:24:12.045Z</time></trkpt><trkpt lat="42.3821916" lon="-7.5659283"><ele>643.5999999999999</ele><time>2026-04-25T09:24:14.047Z</time></trkpt><trkpt lat="42.3821377" lon="-7.5660807"><ele>644.1999999999999</ele><time>2026-04-25T09:24:16.048Z</time></trkpt><trkpt lat="42.3821116" lon="-7.5661963"><ele>644.8</ele><time>2026-04-25T09:24:18.044Z</time></trkpt><trkpt lat="42.3820532" lon="-7.566269"><ele>645.4</ele><time>2026-04-25T09:24:21.05Z</time></trkpt><trkpt lat="42.3819816" lon="-7.5662745"><ele>646.0</ele><time>2026-04-25T09:24:22.044Z</time></trkpt><trkpt lat="42.3818835" lon="-7.5662704"><ele>646.0</ele><time>2026-04-25T09:24:23.045Z</time></trkpt><trkpt lat="42.3817724" lon="-7.5662705"><ele>646.0</ele><time>2026-04-25T09:24:24.048Z</time></trkpt><trkpt lat="42.3816494" lon="-7.5662741"><ele>646.0</ele><time>2026-04-25T09:24:25.05Z</time></trkpt><trkpt lat="42.3815332" lon="-7.5662732"><ele>646.0</ele><time>2026-04-25T09:24:26.053Z</time></trkpt><trkpt lat="42.3814244" lon="-7.5662715"><ele>645.8</ele><time>2026-04-25T09:24:27.046Z</time></trkpt><trkpt lat="42.3813185" lon="-7.5662695"><ele>645.5999999999999</ele><time>2026-04-25T09:24:28.05Z</time></trkpt><trkpt lat="42.381214" lon="-7.5662688"><ele>645.4</ele><time>2026-04-25T09:24:29.045Z</time></trkpt><trkpt lat="42.3811038" lon="-7.5662786"><ele>645.2</ele><time>2026-04-25T09:24:30.049Z</time></trkpt><trkpt lat="42.3809824" lon="-7.5662859"><ele>645.0</ele><time>2026-04-25T09:24:31.049Z</time></trkpt><trkpt lat="42.3808548" lon="-7.5662744"><ele>645.0</ele><time>2026-04-25T09:24:32.036Z</time></trkpt><trkpt lat="42.3807275" lon="-7.5662333"><ele>645.0</ele><time>2026-04-25T09:24:33.052Z</time></trkpt><trkpt lat="42.3806053" lon="-7.5661766"><ele>645.0</ele><time>2026-04-25T09:24:34.043Z</time></trkpt><trkpt lat="42.380482" lon="-7.5661078"><ele>645.0</ele><time>2026-04-25T09:24:35.047Z</time></trkpt><trkpt lat="42.3803584" lon="-7.5660339"><ele>646.5</ele><time>2026-04-25T09:24:36.042Z</time></trkpt><trkpt lat="42.3802354" lon="-7.5659571"><ele>648.0</ele><time>2026-04-25T09:24:37.047Z</time></trkpt><trkpt lat="42.3801235" lon="-7.5658896"><ele>649.5</ele><time>2026-04-25T09:24:38.045Z</time></trkpt><trkpt lat="42.3800206" lon="-7.5658296"><ele>651.0</ele><time>2026-04-25T09:24:39.046Z</time></trkpt><trkpt lat="42.379925" lon="-7.5657718"><ele>651.0</ele><time>2026-04-25T09:24:40.044Z</time></trkpt><trkpt lat="42.3798295" lon="-7.565713"><ele>651.0</ele><time>2026-04-25T09:24:41.046Z</time></trkpt><trkpt lat="42.379734" lon="-7.5656512"><ele>651.0</ele><time>2026-04-25T09:24:42.045Z</time></trkpt><trkpt lat="42.3796285" lon="-7.5655977"><ele>651.0</ele><time>2026-04-25T09:24:43.052Z</time></trkpt><trkpt lat="42.3795132" lon="-7.5655645"><ele>651.0</ele><time>2026-04-25T09:24:44.046Z</time></trkpt><trkpt lat="42.3793971" lon="-7.5655333"><ele>650.5</ele><time>2026-04-25T09:24:45.046Z</time></trkpt><trkpt lat="42.3792698" lon="-7.5655772"><ele>650.0</ele><time>2026-04-25T09:24:46.042Z</time></trkpt><trkpt lat="42.3791393" lon="-7.565648"><ele>649.5</ele><time>2026-04-25T09:24:47.044Z</time></trkpt><trkpt lat="42.3790032" lon="-7.5657281"><ele>649.0</ele><time>2026-04-25T09:24:48.057Z</time></trkpt><trkpt lat="42.3788748" lon="-7.5658077"><ele>648.25</ele><time>2026-04-25T09:24:49.046Z</time></trkpt><trkpt lat="42.3787502" lon="-7.5658801"><ele>647.5</ele><time>2026-04-25T09:24:50.041Z</time></trkpt><trkpt lat="42.3786353" lon="-7.5659323"><ele>646.75</ele><time>2026-04-25T09:24:51.043Z</time></trkpt><trkpt lat="42.3785327" lon="-7.5659793"><ele>646.0</ele><time>2026-04-25T09:24:52.037Z</time></trkpt><trkpt lat="42.3784435" lon="-7.5659706"><ele>646.0</ele><time>2026-04-25T09:24:53.043Z</time></trkpt><trkpt lat="42.3783716" lon="-7.5659239"><ele>646.0</ele><time>2026-04-25T09:24:54.04Z</time></trkpt><trkpt lat="42.378313" lon="-7.5658796"><ele>646.0</ele><time>2026-04-25T09:24:55.042Z</time></trkpt><trkpt lat="42.378315" lon="-7.5657728"><ele>646.0</ele><time>2026-04-25T09:24:56.052Z</time></trkpt><trkpt lat="42.3783534" lon="-7.5656686"><ele>646.0</ele><time>2026-04-25T09:24:57.043Z</time></trkpt><trkpt lat="42.3783989" lon="-7.5655546"><ele>646.0</ele><time>2026-04-25T09:24:58.05Z</time></trkpt><trkpt lat="42.378465" lon="-7.5654338"><ele>646.25</ele><time>2026-04-25T09:24:59.042Z</time></trkpt><trkpt lat="42.3785295" lon="-7.5653012"><ele>646.5</ele><time>2026-04-25T09:25:00.037Z</time></trkpt><trkpt lat="42.3786024" lon="-7.5651632"><ele>646.75</ele><time>2026-04-25T09:25:01.039Z</time></trkpt><trkpt lat="42.3786761" lon="-7.5650234"><ele>647.0</ele><time>2026-04-25T09:25:02.037Z</time></trkpt><trkpt lat="42.3787326" lon="-7.5648861"><ele>647.0</ele><time>2026-04-25T09:25:03.041Z</time></trkpt><trkpt lat="42.3787674" lon="-7.5647441"><ele>647.0</ele><time>2026-04-25T09:25:04.053Z</time></trkpt><trkpt lat="42.3787669" lon="-7.5645971"><ele>647.0</ele><time>2026-04-25T09:25:05.049Z</time></trkpt><trkpt lat="42.3787401" lon="-7.5644461"><ele>647.0</ele><time>2026-04-25T09:25:06.042Z</time></trkpt><trkpt lat="42.3787017" lon="-7.5642985"><ele>647.0</ele><time>2026-04-25T09:25:07.041Z</time></trkpt><trkpt lat="42.3786564" lon="-7.5641595"><ele>646.25</ele><time>2026-04-25T09:25:08.042Z</time></trkpt><trkpt lat="42.3785986" lon="-7.5640262"><ele>645.5</ele><time>2026-04-25T09:25:09.037Z</time></trkpt><trkpt lat="42.3785259" lon="-7.5639025"><ele>644.75</ele><time>2026-04-25T09:25:10.046Z</time></trkpt><trkpt lat="42.3784392" lon="-7.5637862"><ele>644.0</ele><time>2026-04-25T09:25:11.04Z</time></trkpt><trkpt lat="42.3783493" lon="-7.5636783"><ele>642.25</ele><time>2026-04-25T09:25:12.044Z</time></trkpt><trkpt lat="42.3782533" lon="-7.5635795"><ele>640.5</ele><time>2026-04-25T09:25:13.045Z</time></trkpt><trkpt lat="42.3781491" lon="-7.5634883"><ele>638.75</ele><time>2026-04-25T09:25:14.038Z</time></trkpt><trkpt lat="42.3780438" lon="-7.5633971"><ele>637.0</ele><time>2026-04-25T09:25:15.043Z</time></trkpt><trkpt lat="42.3779214" lon="-7.5633319"><ele>637.0</ele><time>2026-04-25T09:25:16.043Z</time></trkpt><trkpt lat="42.3777967" lon="-7.5632762"><ele>637.0</ele><time>2026-04-25T09:25:17.043Z</time></trkpt><trkpt lat="42.37768" lon="-7.563225"><ele>637.0</ele><time>2026-04-25T09:25:18.051Z</time></trkpt><trkpt lat="42.3775711" lon="-7.5631674"><ele>637.0</ele><time>2026-04-25T09:25:19.044Z</time></trkpt><trkpt lat="42.3774673" lon="-7.5630977"><ele>637.0</ele><time>2026-04-25T09:25:20.044Z</time></trkpt><trkpt lat="42.3773621" lon="-7.5630275"><ele>637.0</ele><time>2026-04-25T09:25:21.05Z</time></trkpt><trkpt lat="42.3772556" lon="-7.5629527"><ele>637.0</ele><time>2026-04-25T09:25:22.038Z</time></trkpt><trkpt lat="42.3771486" lon="-7.5628723"><ele>637.0</ele><time>2026-04-25T09:25:23.056Z</time></trkpt><trkpt lat="42.3770397" lon="-7.5627841"><ele>635.25</ele><time>2026-04-25T09:25:24.045Z</time></trkpt><trkpt lat="42.3769403" lon="-7.5626993"><ele>633.5</ele><time>2026-04-25T09:25:25.04Z</time></trkpt><trkpt lat="42.3768388" lon="-7.5626149"><ele>631.75</ele><time>2026-04-25T09:25:26.045Z</time></trkpt><trkpt lat="42.3767344" lon="-7.5625346"><ele>630.0</ele><time>2026-04-25T09:25:27.045Z</time></trkpt><trkpt lat="42.3766426" lon="-7.5624563"><ele>630.0</ele><time>2026-04-25T09:25:28.048Z</time></trkpt><trkpt lat="42.3765705" lon="-7.5623796"><ele>630.0</ele><time>2026-04-25T09:25:29.043Z</time></trkpt><trkpt lat="42.376507" lon="-7.5623128"><ele>630.0</ele><time>2026-04-25T09:25:30.04Z</time></trkpt><trkpt lat="42.376475" lon="-7.562234"><ele>630.0</ele><time>2026-04-25T09:25:31.041Z</time></trkpt><trkpt lat="42.3764859" lon="-7.5621302"><ele>630.0</ele><time>2026-04-25T09:25:32.045Z</time></trkpt><trkpt lat="42.3765364" lon="-7.5620168"><ele>630.0</ele><time>2026-04-25T09:25:33.037Z</time></trkpt><trkpt lat="42.3766156" lon="-7.561927"><ele>626.6</ele><time>2026-04-25T09:25:34.04Z</time></trkpt><trkpt lat="42.3766523" lon="-7.5617919"><ele>623.2</ele><time>2026-04-25T09:25:35.046Z</time></trkpt><trkpt lat="42.3766503" lon="-7.5616563"><ele>619.8</ele><time>2026-04-25T09:25:36.04Z</time></trkpt><trkpt lat="42.3766023" lon="-7.5615275"><ele>616.4</ele><time>2026-04-25T09:25:37.038Z</time></trkpt><trkpt lat="42.3765511" lon="-7.5613964"><ele>613.0</ele><time>2026-04-25T09:25:38.044Z</time></trkpt><trkpt lat="42.3764416" lon="-7.5613008"><ele>614.5</ele><time>2026-04-25T09:25:39.045Z</time></trkpt><trkpt lat="42.3763286" lon="-7.5611835"><ele>616.0</ele><time>2026-04-25T09:25:40.051Z</time></trkpt><trkpt lat="42.3762257" lon="-7.5610771"><ele>617.5</ele><time>2026-04-25T09:25:41.053Z</time></trkpt><trkpt lat="42.3761259" lon="-7.5609702"><ele>619.0</ele><time>2026-04-25T09:25:42.036Z</time></trkpt><trkpt lat="42.3760351" lon="-7.5608625"><ele>619.0</ele><time>2026-04-25T09:25:43.046Z</time></trkpt><trkpt lat="42.3759519" lon="-7.5607568"><ele>619.0</ele><time>2026-04-25T09:25:44.038Z</time></trkpt><trkpt lat="42.3759007" lon="-7.5606289"><ele>619.0</ele><time>2026-04-25T09:25:45.054Z</time></trkpt><trkpt lat="42.3758888" lon="-7.5604828"><ele>619.0</ele><time>2026-04-25T09:25:46.03Z</time></trkpt><trkpt lat="42.3758802" lon="-7.5603334"><ele>619.0</ele><time>2026-04-25T09:25:47.042Z</time></trkpt><trkpt lat="42.3758528" lon="-7.560189"><ele>615.4</ele><time>2026-04-25T09:25:48.042Z</time></trkpt><trkpt lat="42.3758268" lon="-7.5600525"><ele>611.8</ele><time>2026-04-25T09:25:49.032Z</time></trkpt><trkpt lat="42.3757958" lon="-7.5599152"><ele>608.2</ele><time>2026-04-25T09:25:50.041Z</time></trkpt><trkpt lat="42.3757652" lon="-7.5597926"><ele>604.6</ele><time>2026-04-25T09:25:51.035Z</time></trkpt><trkpt lat="42.3757146" lon="-7.5596623"><ele>601.0</ele><time>2026-04-25T09:25:52.038Z</time></trkpt><trkpt lat="42.3756515" lon="-7.5595627"><ele>598.0</ele><time>2026-04-25T09:25:53.054Z</time></trkpt><trkpt lat="42.3755756" lon="-7.5594778"><ele>595.0</ele><time>2026-04-25T09:25:54.04Z</time></trkpt><trkpt lat="42.3754885" lon="-7.5594233"><ele>592.0</ele><time>2026-04-25T09:25:55.044Z</time></trkpt><trkpt lat="42.3753933" lon="-7.5593935"><ele>589.0</ele><time>2026-04-25T09:25:56.048Z</time></trkpt><trkpt lat="42.3752914" lon="-7.5594011"><ele>586.0</ele><time>2026-04-25T09:25:57.047Z</time></trkpt><trkpt lat="42.3751875" lon="-7.559431"><ele>586.0</ele><time>2026-04-25T09:25:58.038Z</time></trkpt><trkpt lat="42.3750846" lon="-7.5594841"><ele>586.0</ele><time>2026-04-25T09:25:59.045Z</time></trkpt><trkpt lat="42.3749773" lon="-7.5595645"><ele>586.0</ele><time>2026-04-25T09:26:00.056Z</time></trkpt><trkpt lat="42.3748769" lon="-7.5596507"><ele>586.0</ele><time>2026-04-25T09:26:01.05Z</time></trkpt><trkpt lat="42.374781" lon="-7.5597252"><ele>591.0</ele><time>2026-04-25T09:26:02.048Z</time></trkpt><trkpt lat="42.3746856" lon="-7.5597824"><ele>596.0</ele><time>2026-04-25T09:26:03.049Z</time></trkpt><trkpt lat="42.3745921" lon="-7.5598325"><ele>601.0</ele><time>2026-04-25T09:26:04.042Z</time></trkpt><trkpt lat="42.3744835" lon="-7.5598218"><ele>606.0</ele><time>2026-04-25T09:26:05.043Z</time></trkpt><trkpt lat="42.3743639" lon="-7.55981"><ele>611.0</ele><time>2026-04-25T09:26:06.047Z</time></trkpt><trkpt lat="42.3742389" lon="-7.5597678"><ele>611.0</ele><time>2026-04-25T09:26:07.038Z</time></trkpt><trkpt lat="42.3741192" lon="-7.5597381"><ele>611.0</ele><time>2026-04-25T09:26:08.04Z</time></trkpt><trkpt lat="42.3739989" lon="-7.5597248"><ele>611.0</ele><time>2026-04-25T09:26:09.041Z</time></trkpt><trkpt lat="42.3738824" lon="-7.5597072"><ele>611.0</ele><time>2026-04-25T09:26:10.042Z</time></trkpt><trkpt lat="42.3737701" lon="-7.5596252"><ele>603.0</ele><time>2026-04-25T09:26:11.036Z</time></trkpt><trkpt lat="42.3736737" lon="-7.559511"><ele>595.0</ele><time>2026-04-25T09:26:12.04Z</time></trkpt><trkpt lat="42.3735808" lon="-7.559405"><ele>587.0</ele><time>2026-04-25T09:26:13.035Z</time></trkpt><trkpt lat="42.3734746" lon="-7.5593298"><ele>579.0</ele><time>2026-04-25T09:26:14.039Z</time></trkpt><trkpt lat="42.3733641" lon="-7.559281"><ele>579.0</ele><time>2026-04-25T09:26:15.044Z</time></trkpt><trkpt lat="42.3732513" lon="-7.5592531"><ele>579.0</ele><time>2026-04-25T09:26:16.041Z</time></trkpt><trkpt lat="42.3731273" lon="-7.5592465"><ele>579.0</ele><time>2026-04-25T09:26:17.045Z</time></trkpt><trkpt lat="42.3729996" lon="-7.5592459"><ele>579.0</ele><time>2026-04-25T09:26:18.04Z</time></trkpt><trkpt lat="42.3728661" lon="-7.5592462"><ele>576.75</ele><time>2026-04-25T09:26:19.034Z</time></trkpt><trkpt lat="42.3727263" lon="-7.5592564"><ele>574.5</ele><time>2026-04-25T09:26:20.043Z</time></trkpt><trkpt lat="42.3725851" lon="-7.5592694"><ele>572.25</ele><time>2026-04-25T09:26:21.038Z</time></trkpt><trkpt lat="42.3724465" lon="-7.5592928"><ele>570.0</ele><time>2026-04-25T09:26:22.038Z</time></trkpt><trkpt lat="42.3723152" lon="-7.559313"><ele>570.0</ele><time>2026-04-25T09:26:23.046Z</time></trkpt><trkpt lat="42.3721943" lon="-7.5593363"><ele>570.0</ele><time>2026-04-25T09:26:24.044Z</time></trkpt><trkpt lat="42.372081" lon="-7.5593767"><ele>570.0</ele><time>2026-04-25T09:26:25.036Z</time></trkpt><trkpt lat="42.3719767" lon="-7.5594327"><ele>570.0</ele><time>2026-04-25T09:26:26.047Z</time></trkpt><trkpt lat="42.3718729" lon="-7.5594972"><ele>573.0</ele><time>2026-04-25T09:26:27.044Z</time></trkpt><trkpt lat="42.3717743" lon="-7.5595587"><ele>576.0</ele><time>2026-04-25T09:26:28.05Z</time></trkpt><trkpt lat="42.371675" lon="-7.5596176"><ele>579.0</ele><time>2026-04-25T09:26:29.05Z</time></trkpt><trkpt lat="42.3715729" lon="-7.5596732"><ele>582.0</ele><time>2026-04-25T09:26:30.039Z</time></trkpt><trkpt lat="42.3714719" lon="-7.5597222"><ele>585.0</ele><time>2026-04-25T09:26:31.045Z</time></trkpt><trkpt lat="42.3713713" lon="-7.5597738"><ele>579.4</ele><time>2026-04-25T09:26:32.04Z</time></trkpt><trkpt lat="42.3712778" lon="-7.5598355"><ele>573.8</ele><time>2026-04-25T09:26:33.043Z</time></trkpt><trkpt lat="42.3711886" lon="-7.5599035"><ele>568.2</ele><time>2026-04-25T09:26:34.036Z</time></trkpt><trkpt lat="42.3711031" lon="-7.5599806"><ele>562.6</ele><time>2026-04-25T09:26:35.041Z</time></trkpt><trkpt lat="42.3710222" lon="-7.5600695"><ele>557.0</ele><time>2026-04-25T09:26:36.036Z</time></trkpt><trkpt lat="42.3709457" lon="-7.5601763"><ele>557.0</ele><time>2026-04-25T09:26:37.038Z</time></trkpt><trkpt lat="42.3708613" lon="-7.5602824"><ele>557.0</ele><time>2026-04-25T09:26:38.035Z</time></trkpt><trkpt lat="42.3707752" lon="-7.5603898"><ele>557.0</ele><time>2026-04-25T09:26:39.034Z</time></trkpt><trkpt lat="42.3706546" lon="-7.5604387"><ele>557.0</ele><time>2026-04-25T09:26:40.038Z</time></trkpt><trkpt lat="42.3705239" lon="-7.5604755"><ele>560.0</ele><time>2026-04-25T09:26:41.035Z</time></trkpt><trkpt lat="42.3703919" lon="-7.5605161"><ele>563.0</ele><time>2026-04-25T09:26:42.038Z</time></trkpt><trkpt lat="42.3702626" lon="-7.5605541"><ele>566.0</ele><time>2026-04-25T09:26:43.041Z</time></trkpt><trkpt lat="42.3701388" lon="-7.5605959"><ele>569.0</ele><time>2026-04-25T09:26:44.046Z</time></trkpt><trkpt lat="42.3700152" lon="-7.5606291"><ele>569.0</ele><time>2026-04-25T09:26:45.035Z</time></trkpt><trkpt lat="42.3698907" lon="-7.5606552"><ele>569.0</ele><time>2026-04-25T09:26:46.04Z</time></trkpt><trkpt lat="42.3697652" lon="-7.5606776"><ele>569.0</ele><time>2026-04-25T09:26:47.043Z</time></trkpt><trkpt lat="42.3696455" lon="-7.5607009"><ele>569.0</ele><time>2026-04-25T09:26:48.04Z</time></trkpt><trkpt lat="42.3695281" lon="-7.5607245"><ele>564.5</ele><time>2026-04-25T09:26:49.04Z</time></trkpt><trkpt lat="42.369402" lon="-7.5607534"><ele>560.0</ele><time>2026-04-25T09:26:50.033Z</time></trkpt><trkpt lat="42.3692716" lon="-7.5608089"><ele>555.5</ele><time>2026-04-25T09:26:51.038Z</time></trkpt><trkpt lat="42.3691378" lon="-7.5608777"><ele>551.0</ele><time>2026-04-25T09:26:52.035Z</time></trkpt><trkpt lat="42.3689946" lon="-7.5609549"><ele>554.75</ele><time>2026-04-25T09:26:53.06Z</time></trkpt><trkpt lat="42.3688521" lon="-7.5610359"><ele>558.5</ele><time>2026-04-25T09:26:54.043Z</time></trkpt><trkpt lat="42.3687169" lon="-7.5611144"><ele>562.25</ele><time>2026-04-25T09:26:55.046Z</time></trkpt><trkpt lat="42.3685864" lon="-7.5611842"><ele>566.0</ele><time>2026-04-25T09:26:56.049Z</time></trkpt><trkpt lat="42.3684586" lon="-7.5612393"><ele>566.0</ele><time>2026-04-25T09:26:57.046Z</time></trkpt><trkpt lat="42.3683337" lon="-7.5612784"><ele>566.0</ele><time>2026-04-25T09:26:58.042Z</time></trkpt><trkpt lat="42.3682109" lon="-7.5613021"><ele>566.0</ele><time>2026-04-25T09:26:59.051Z</time></trkpt><trkpt lat="42.3680938" lon="-7.5613265"><ele>566.0</ele><time>2026-04-25T09:27:00.044Z</time></trkpt><trkpt lat="42.3679802" lon="-7.5613496"><ele>564.2</ele><time>2026-04-25T09:27:01.045Z</time></trkpt><trkpt lat="42.3678736" lon="-7.5613628"><ele>562.4000000000001</ele><time>2026-04-25T09:27:02.034Z</time></trkpt><trkpt lat="42.3677773" lon="-7.5613676"><ele>560.6</ele><time>2026-04-25T09:27:03.044Z</time></trkpt><trkpt lat="42.3676718" lon="-7.5613386"><ele>558.8000000000001</ele><time>2026-04-25T09:27:04.04Z</time></trkpt><trkpt lat="42.367572" lon="-7.5612501"><ele>557.0</ele><time>2026-04-25T09:27:05.033Z</time></trkpt><trkpt lat="42.367466" lon="-7.5611459"><ele>554.25</ele><time>2026-04-25T09:27:06.035Z</time></trkpt><trkpt lat="42.3673752" lon="-7.5610431"><ele>551.5</ele><time>2026-04-25T09:27:07.039Z</time></trkpt><trkpt lat="42.3672681" lon="-7.5609739"><ele>548.75</ele><time>2026-04-25T09:27:08.044Z</time></trkpt><trkpt lat="42.3671583" lon="-7.560954"><ele>546.0</ele><time>2026-04-25T09:27:09.035Z</time></trkpt><trkpt lat="42.3670527" lon="-7.5609438"><ele>546.0</ele><time>2026-04-25T09:27:10.038Z</time></trkpt><trkpt lat="42.3669513" lon="-7.5609234"><ele>546.0</ele><time>2026-04-25T09:27:11.04Z</time></trkpt><trkpt lat="42.3668644" lon="-7.5608806"><ele>546.0</ele><time>2026-04-25T09:27:12.035Z</time></trkpt><trkpt lat="42.3668012" lon="-7.5607942"><ele>546.0</ele><time>2026-04-25T09:27:13.04Z</time></trkpt><trkpt lat="42.3667753" lon="-7.5606557"><ele>546.0</ele><time>2026-04-25T09:27:14.049Z</time></trkpt><trkpt lat="42.3667871" lon="-7.5604949"><ele>549.6666666666666</ele><time>2026-04-25T09:27:15.038Z</time></trkpt><trkpt lat="42.3668609" lon="-7.560336"><ele>553.3333333333333</ele><time>2026-04-25T09:27:16.045Z</time></trkpt><trkpt lat="42.3669503" lon="-7.5601632"><ele>557.0</ele><time>2026-04-25T09:27:17.039Z</time></trkpt><trkpt lat="42.3670758" lon="-7.5599886"><ele>545.6666666666666</ele><time>2026-04-25T09:27:18.036Z</time></trkpt><trkpt lat="42.3672048" lon="-7.559819"><ele>534.3333333333334</ele><time>2026-04-25T09:27:19.044Z</time></trkpt><trkpt lat="42.367323" lon="-7.5596966"><ele>523.0</ele><time>2026-04-25T09:27:20.036Z</time></trkpt><trkpt lat="42.3674346" lon="-7.5595857"><ele>526.4</ele><time>2026-04-25T09:27:21.036Z</time></trkpt><trkpt lat="42.3675424" lon="-7.5595091"><ele>529.8</ele><time>2026-04-25T09:27:22.036Z</time></trkpt><trkpt lat="42.3676341" lon="-7.5594451"><ele>533.2</ele><time>2026-04-25T09:27:23.036Z</time></trkpt><trkpt lat="42.3677144" lon="-7.5593551"><ele>536.6</ele><time>2026-04-25T09:27:24.039Z</time></trkpt><trkpt lat="42.3677776" lon="-7.5592264"><ele>540.0</ele><time>2026-04-25T09:27:25.042Z</time></trkpt><trkpt lat="42.3678266" lon="-7.5590836"><ele>540.0</ele><time>2026-04-25T09:27:26.045Z</time></trkpt><trkpt lat="42.3678753" lon="-7.5589353"><ele>540.0</ele><time>2026-04-25T09:27:27.038Z</time></trkpt><trkpt lat="42.3679256" lon="-7.5587902"><ele>540.0</ele><time>2026-04-25T09:27:28.047Z</time></trkpt><trkpt lat="42.3679728" lon="-7.5586419"><ele>540.0</ele><time>2026-04-25T09:27:29.038Z</time></trkpt><trkpt lat="42.3680164" lon="-7.5584989"><ele>539.8</ele><time>2026-04-25T09:27:30.034Z</time></trkpt><trkpt lat="42.3680539" lon="-7.5583494"><ele>539.6</ele><time>2026-04-25T09:27:31.038Z</time></trkpt><trkpt lat="42.3680686" lon="-7.5582103"><ele>539.4</ele><time>2026-04-25T09:27:32.044Z</time></trkpt><trkpt lat="42.3680473" lon="-7.558091"><ele>539.2</ele><time>2026-04-25T09:27:33.036Z</time></trkpt><trkpt lat="42.3679846" lon="-7.5579982"><ele>539.0</ele><time>2026-04-25T09:27:34.033Z</time></trkpt><trkpt lat="42.3678931" lon="-7.557942"><ele>539.0</ele><time>2026-04-25T09:27:35.039Z</time></trkpt><trkpt lat="42.3677851" lon="-7.5579248"><ele>539.0</ele><time>2026-04-25T09:27:36.037Z</time></trkpt><trkpt lat="42.3676623" lon="-7.5579211"><ele>539.0</ele><time>2026-04-25T09:27:37.033Z</time></trkpt><trkpt lat="42.3675238" lon="-7.5579197"><ele>539.0</ele><time>2026-04-25T09:27:38.042Z</time></trkpt><trkpt lat="42.3673727" lon="-7.5579095"><ele>539.0</ele><time>2026-04-25T09:27:39.039Z</time></trkpt><trkpt lat="42.3672227" lon="-7.5578956"><ele>539.0</ele><time>2026-04-25T09:27:40.048Z</time></trkpt><trkpt lat="42.3670885" lon="-7.5578826"><ele>539.0</ele><time>2026-04-25T09:27:41.036Z</time></trkpt><trkpt lat="42.3669721" lon="-7.5578382"><ele>539.0</ele><time>2026-04-25T09:27:42.036Z</time></trkpt><trkpt lat="42.3668468" lon="-7.5577624"><ele>535.0</ele><time>2026-04-25T09:27:43.053Z</time></trkpt><trkpt lat="42.3667276" lon="-7.5576913"><ele>531.0</ele><time>2026-04-25T09:27:44.036Z</time></trkpt><trkpt lat="42.3666033" lon="-7.5576399"><ele>527.0</ele><time>2026-04-25T09:27:45.039Z</time></trkpt><trkpt lat="42.3664809" lon="-7.557591"><ele>523.0</ele><time>2026-04-25T09:27:46.044Z</time></trkpt><trkpt lat="42.3663804" lon="-7.5575577"><ele>524.0</ele><time>2026-04-25T09:27:47.036Z</time></trkpt><trkpt lat="42.3662912" lon="-7.557533"><ele>525.0</ele><time>2026-04-25T09:27:48.039Z</time></trkpt><trkpt lat="42.3661933" lon="-7.5575222"><ele>526.0</ele><time>2026-04-25T09:27:49.043Z</time></trkpt><trkpt lat="42.366119" lon="-7.557512"><ele>527.0</ele><time>2026-04-25T09:27:50.037Z</time></trkpt><trkpt lat="42.36604" lon="-7.5574939"><ele>528.0</ele><time>2026-04-25T09:27:51.04Z</time></trkpt><trkpt lat="42.3659661" lon="-7.5574578"><ele>529.0</ele><time>2026-04-25T09:27:52.042Z</time></trkpt><trkpt lat="42.365905" lon="-7.5574017"><ele>529.0</ele><time>2026-04-25T09:27:53.04Z</time></trkpt><trkpt lat="42.3658548" lon="-7.5573335"><ele>529.0</ele><time>2026-04-25T09:27:54.042Z</time></trkpt><trkpt lat="42.3658126" lon="-7.5572693"><ele>529.0</ele><time>2026-04-25T09:27:55.038Z</time></trkpt><trkpt lat="42.3657587" lon="-7.5572009"><ele>529.0</ele><time>2026-04-25T09:27:56.038Z</time></trkpt><trkpt lat="42.3656963" lon="-7.5571273"><ele>529.0</ele><time>2026-04-25T09:27:57.035Z</time></trkpt><trkpt lat="42.3656525" lon="-7.5570426"><ele>529.0</ele><time>2026-04-25T09:27:58.036Z</time></trkpt><trkpt lat="42.3656307" lon="-7.5569472"><ele>529.0</ele><time>2026-04-25T09:27:59.038Z</time></trkpt><trkpt lat="42.3656008" lon="-7.5568546"><ele>526.1666666666667</ele><time>2026-04-25T09:28:00.04Z</time></trkpt><trkpt lat="42.3655904" lon="-7.5567507"><ele>523.3333333333334</ele><time>2026-04-25T09:28:01.043Z</time></trkpt><trkpt lat="42.3656248" lon="-7.5566481"><ele>520.5</ele><time>2026-04-25T09:28:02.036Z</time></trkpt><trkpt lat="42.3656595" lon="-7.5565428"><ele>517.6666666666666</ele><time>2026-04-25T09:28:03.039Z</time></trkpt><trkpt lat="42.3657088" lon="-7.556443"><ele>514.8333333333333</ele><time>2026-04-25T09:28:04.04Z</time></trkpt><trkpt lat="42.3657617" lon="-7.5563792"><ele>512.0</ele><time>2026-04-25T09:28:05.043Z</time></trkpt><trkpt lat="42.365803" lon="-7.5563099"><ele>512.0</ele><time>2026-04-25T09:28:06.038Z</time></trkpt><trkpt lat="42.3658308" lon="-7.5562313"><ele>512.0</ele><time>2026-04-25T09:28:08.041Z</time></trkpt><trkpt lat="42.3658156" lon="-7.5563343"><ele>512.0</ele><time>2026-04-25T09:28:15.04Z</time></trkpt><trkpt lat="42.365747" lon="-7.5564517"><ele>512.0</ele><time>2026-04-25T09:28:16.041Z</time></trkpt><trkpt lat="42.3656675" lon="-7.5565872"><ele>512.0</ele><time>2026-04-25T09:28:17.041Z</time></trkpt><trkpt lat="42.3656068" lon="-7.5567138"><ele>512.0</ele><time>2026-04-25T09:28:18.031Z</time></trkpt><trkpt lat="42.3656064" lon="-7.5568468"><ele>512.0</ele><time>2026-04-25T09:28:19.034Z</time></trkpt><trkpt lat="42.3656135" lon="-7.5569797"><ele>512.0</ele><time>2026-04-25T09:28:20.039Z</time></trkpt><trkpt lat="42.3656851" lon="-7.5571116"><ele>512.0</ele><time>2026-04-25T09:28:21.035Z</time></trkpt><trkpt lat="42.3657983" lon="-7.5572539"><ele>516.25</ele><time>2026-04-25T09:28:22.038Z</time></trkpt><trkpt lat="42.3659158" lon="-7.5573781"><ele>520.5</ele><time>2026-04-25T09:28:23.045Z</time></trkpt><trkpt lat="42.366039" lon="-7.5574631"><ele>524.75</ele><time>2026-04-25T09:28:24.05Z</time></trkpt><trkpt lat="42.3661749" lon="-7.5574991"><ele>529.0</ele><time>2026-04-25T09:28:25.032Z</time></trkpt><trkpt lat="42.3663158" lon="-7.5575297"><ele>527.0</ele><time>2026-04-25T09:28:26.044Z</time></trkpt><trkpt lat="42.3664803" lon="-7.5575224"><ele>525.0</ele><time>2026-04-25T09:28:27.046Z</time></trkpt><trkpt lat="42.3666638" lon="-7.5575897"><ele>523.0</ele><time>2026-04-25T09:28:28.037Z</time></trkpt><trkpt lat="42.3668097" lon="-7.5576895"><ele>523.0</ele><time>2026-04-25T09:28:29.043Z</time></trkpt><trkpt lat="42.3669343" lon="-7.5577665"><ele>523.0</ele><time>2026-04-25T09:28:30.037Z</time></trkpt><trkpt lat="42.3670498" lon="-7.5578218"><ele>523.0</ele><time>2026-04-25T09:28:31.04Z</time></trkpt><trkpt lat="42.3671646" lon="-7.5578524"><ele>523.0</ele><time>2026-04-25T09:28:32.038Z</time></trkpt><trkpt lat="42.3672901" lon="-7.5578662"><ele>526.1999999999999</ele><time>2026-04-25T09:28:33.034Z</time></trkpt><trkpt lat="42.3674115" lon="-7.5578775"><ele>529.4</ele><time>2026-04-25T09:28:34.041Z</time></trkpt><trkpt lat="42.3675397" lon="-7.5578779"><ele>532.5999999999999</ele><time>2026-04-25T09:28:35.054Z</time></trkpt><trkpt lat="42.3676497" lon="-7.5578783"><ele>535.8</ele><time>2026-04-25T09:28:36.034Z</time></trkpt><trkpt lat="42.3677371" lon="-7.5578841"><ele>539.0</ele><time>2026-04-25T09:28:37.039Z</time></trkpt><trkpt lat="42.36783" lon="-7.5578754"><ele>539.0</ele><time>2026-04-25T09:28:38.038Z</time></trkpt><trkpt lat="42.3679543" lon="-7.5579179"><ele>539.0</ele><time>2026-04-25T09:28:40.036Z</time></trkpt><trkpt lat="42.3680138" lon="-7.5579627"><ele>539.0</ele><time>2026-04-25T09:28:41.037Z</time></trkpt><trkpt lat="42.3680684" lon="-7.5580417"><ele>539.0</ele><time>2026-04-25T09:28:43.05Z</time></trkpt><trkpt lat="42.3680849" lon="-7.557938"><ele>539.0</ele><time>2026-04-25T09:28:49.06Z</time></trkpt><trkpt lat="42.3680278" lon="-7.557888"><ele>539.0</ele><time>2026-04-25T09:28:51.034Z</time></trkpt><trkpt lat="42.3679323" lon="-7.5578271"><ele>534.0</ele><time>2026-04-25T09:28:53.056Z</time></trkpt><trkpt lat="42.3678281" lon="-7.5577743"><ele>529.0</ele><time>2026-04-25T09:28:55.049Z</time></trkpt><trkpt lat="42.3677606" lon="-7.5577478"><ele>524.0</ele><time>2026-04-25T09:28:56.04Z</time></trkpt><trkpt lat="42.3676541" lon="-7.5577138"><ele>519.0</ele><time>2026-04-25T09:28:58.042Z</time></trkpt><trkpt lat="42.3675351" lon="-7.5576835"><ele>514.0</ele><time>2026-04-25T09:29:00.036Z</time></trkpt><trkpt lat="42.3674301" lon="-7.5576668"><ele>514.0</ele><time>2026-04-25T09:29:02.04Z</time></trkpt><trkpt lat="42.3673604" lon="-7.5576547"><ele>514.0</ele><time>2026-04-25T09:29:03.038Z</time></trkpt><trkpt lat="42.3672665" lon="-7.5576542"><ele>514.0</ele><time>2026-04-25T09:29:05.037Z</time></trkpt><trkpt lat="42.3671549" lon="-7.5576011"><ele>514.0</ele><time>2026-04-25T09:29:08.035Z</time></trkpt><trkpt lat="42.3671997" lon="-7.5575078"><ele>514.0</ele><time>2026-04-25T09:29:11.037Z</time></trkpt><trkpt lat="42.3672881" lon="-7.5574642"><ele>514.0</ele><time>2026-04-25T09:29:13.038Z</time></trkpt><trkpt lat="42.3673563" lon="-7.5574122"><ele>514.0</ele><time>2026-04-25T09:29:14.045Z</time></trkpt><trkpt lat="42.3674127" lon="-7.5573643"><ele>514.0</ele><time>2026-04-25T09:29:15.036Z</time></trkpt><trkpt lat="42.3674988" lon="-7.5572798"><ele>514.0</ele><time>2026-04-25T09:29:17.043Z</time></trkpt><trkpt lat="42.3675765" lon="-7.5572106"><ele>514.0</ele><time>2026-04-25T09:29:19.052Z</time></trkpt><trkpt lat="42.3676731" lon="-7.5571336"><ele>514.0</ele><time>2026-04-25T09:29:21.043Z</time></trkpt><trkpt lat="42.3677777" lon="-7.5570603"><ele>514.0</ele><time>2026-04-25T09:29:23.04Z</time></trkpt><trkpt lat="42.3678804" lon="-7.5569975"><ele>514.0</ele><time>2026-04-25T09:29:25.032Z</time></trkpt><trkpt lat="42.3679861" lon="-7.5569479"><ele>514.0</ele><time>2026-04-25T09:29:27.033Z</time></trkpt><trkpt lat="42.3680895" lon="-7.5569102"><ele>514.0</ele><time>2026-04-25T09:29:29.04Z</time></trkpt><trkpt lat="42.3681902" lon="-7.5568835"><ele>509.00000000000006</ele><time>2026-04-25T09:29:31.035Z</time></trkpt><trkpt lat="42.3682542" lon="-7.556873"><ele>504.0</ele><time>2026-04-25T09:29:32.042Z</time></trkpt><trkpt lat="42.3683276" lon="-7.556858"><ele>499.0</ele><time>2026-04-25T09:29:33.039Z</time></trkpt><trkpt lat="42.3683902" lon="-7.5568421"><ele>494.0</ele><time>2026-04-25T09:29:34.041Z</time></trkpt><trkpt lat="42.3685111" lon="-7.5567912"><ele>489.00000000000006</ele><time>2026-04-25T09:29:36.039Z</time></trkpt><trkpt lat="42.3686071" lon="-7.5567292"><ele>484.0</ele><time>2026-04-25T09:29:38.045Z</time></trkpt><trkpt lat="42.3687029" lon="-7.5566639"><ele>484.00000000000006</ele><time>2026-04-25T09:29:40.053Z</time></trkpt><trkpt lat="42.3687661" lon="-7.5566564"><ele>484.0</ele><time>2026-04-25T09:29:41.043Z</time></trkpt><trkpt lat="42.3688336" lon="-7.5566412"><ele>484.0</ele><time>2026-04-25T09:29:42.048Z</time></trkpt><trkpt lat="42.368937" lon="-7.5566262"><ele>484.0</ele><time>2026-04-25T09:29:44.041Z</time></trkpt><trkpt lat="42.3690157" lon="-7.5566208"><ele>484.00000000000006</ele><time>2026-04-25T09:29:46.04Z</time></trkpt><trkpt lat="42.3690984" lon="-7.5565879"><ele>484.0</ele><time>2026-04-25T09:29:48.048Z</time></trkpt><trkpt lat="42.3691066" lon="-7.5564982"><ele>484.0</ele><time>2026-04-25T09:29:52.039Z</time></trkpt><trkpt lat="42.3690204" lon="-7.5564519"><ele>483.99999999999994</ele><time>2026-04-25T09:29:55.053Z</time></trkpt><trkpt lat="42.368945" lon="-7.5564268"><ele>484.0</ele><time>2026-04-25T09:29:57.05Z</time></trkpt><trkpt lat="42.3688884" lon="-7.5563878"><ele>484.0</ele><time>2026-04-25T09:29:59.033Z</time></trkpt><trkpt lat="42.3688337" lon="-7.5563312"><ele>483.99999999999994</ele><time>2026-04-25T09:30:01.047Z</time></trkpt><trkpt lat="42.3687836" lon="-7.5562682"><ele>484.0</ele><time>2026-04-25T09:30:04.05Z</time></trkpt><trkpt lat="42.3687684" lon="-7.556184"><ele>484.0</ele><time>2026-04-25T09:30:06.041Z</time></trkpt><trkpt lat="42.3688306" lon="-7.5561205"><ele>478.1666666666667</ele><time>2026-04-25T09:30:08.047Z</time></trkpt><trkpt lat="42.3689086" lon="-7.5560672"><ele>472.33333333333337</ele><time>2026-04-25T09:30:10.038Z</time></trkpt><trkpt lat="42.3689742" lon="-7.5560415"><ele>466.5</ele><time>2026-04-25T09:30:12.045Z</time></trkpt><trkpt lat="42.3690427" lon="-7.5560156"><ele>460.66666666666663</ele><time>2026-04-25T09:30:14.042Z</time></trkpt><trkpt lat="42.3691551" lon="-7.5559692"><ele>454.8333333333333</ele><time>2026-04-25T09:30:16.038Z</time></trkpt><trkpt lat="42.3692489" lon="-7.5559485"><ele>449.0</ele><time>2026-04-25T09:30:18.042Z</time></trkpt><trkpt lat="42.369334" lon="-7.5559284"><ele>448.99999999999994</ele><time>2026-04-25T09:30:20.035Z</time></trkpt><trkpt lat="42.3694167" lon="-7.5559327"><ele>449.0</ele><time>2026-04-25T09:30:22.055Z</time></trkpt><trkpt lat="42.3694955" lon="-7.5559205"><ele>449.0</ele><time>2026-04-25T09:30:35.042Z</time></trkpt><trkpt lat="42.3694514" lon="-7.5558214"><ele>449.0</ele><time>2026-04-25T09:30:50.047Z</time></trkpt><trkpt lat="42.3694122" lon="-7.5557331"><ele>448.99999999999994</ele><time>2026-04-25T09:30:53.038Z</time></trkpt><trkpt lat="42.3693325" lon="-7.5556866"><ele>449.0</ele><time>2026-04-25T09:30:57.038Z</time></trkpt><trkpt lat="42.3692563" lon="-7.5556251"><ele>448.99999999999994</ele><time>2026-04-25T09:31:00.041Z</time></trkpt><trkpt lat="42.3692019" lon="-7.5555364"><ele>449.0</ele><time>2026-04-25T09:31:03.041Z</time></trkpt><trkpt lat="42.3691616" lon="-7.5554696"><ele>449.0</ele><time>2026-04-25T09:31:05.04Z</time></trkpt><trkpt lat="42.3691229" lon="-7.5553976"><ele>449.0</ele><time>2026-04-25T09:31:07.04Z</time></trkpt><trkpt lat="42.3690735" lon="-7.5552911"><ele>448.99999999999994</ele><time>2026-04-25T09:31:10.042Z</time></trkpt><trkpt lat="42.3690408" lon="-7.5551588"><ele>449.0</ele><time>2026-04-25T09:31:14.043Z</time></trkpt><trkpt lat="42.3690528" lon="-7.5550394"><ele>448.16666666666663</ele><time>2026-04-25T09:31:16.037Z</time></trkpt><trkpt lat="42.3690602" lon="-7.5549076"><ele>447.3333333333333</ele><time>2026-04-25T09:31:18.037Z</time></trkpt><trkpt lat="42.3690787" lon="-7.5548198"><ele>446.5</ele><time>2026-04-25T09:31:20.036Z</time></trkpt><trkpt lat="42.3691088" lon="-7.5547402"><ele>445.66666666666663</ele><time>2026-04-25T09:31:22.042Z</time></trkpt><trkpt lat="42.3691624" lon="-7.5546361"><ele>444.8333333333333</ele><time>2026-04-25T09:31:25.045Z</time></trkpt><trkpt lat="42.3691971" lon="-7.5545644"><ele>444.0</ele><time>2026-04-25T09:31:27.047Z</time></trkpt><trkpt lat="42.3692358" lon="-7.5544887"><ele>444.0</ele><time>2026-04-25T09:31:30.047Z</time></trkpt><trkpt lat="42.3692827" lon="-7.554431"><ele>444.0</ele><time>2026-04-25T09:31:32.054Z</time></trkpt><trkpt lat="42.369339" lon="-7.5543181"><ele>444.0</ele><time>2026-04-25T09:32:20.046Z</time></trkpt><trkpt lat="42.3694224" lon="-7.5542024"><ele>444.0</ele><time>2026-04-25T09:32:22.052Z</time></trkpt><trkpt lat="42.3694895" lon="-7.5540973"><ele>444.0</ele><time>2026-04-25T09:32:23.042Z</time></trkpt><trkpt lat="42.369558" lon="-7.5539731"><ele>444.0</ele><time>2026-04-25T09:32:24.037Z</time></trkpt><trkpt lat="42.3696348" lon="-7.5538488"><ele>444.0</ele><time>2026-04-25T09:32:25.04Z</time></trkpt><trkpt lat="42.3697141" lon="-7.5537174"><ele>444.0</ele><time>2026-04-25T09:32:26.037Z</time></trkpt><trkpt lat="42.3697906" lon="-7.5535948"><ele>444.0</ele><time>2026-04-25T09:32:27.035Z</time></trkpt><trkpt lat="42.3698645" lon="-7.55347"><ele>440.0</ele><time>2026-04-25T09:32:28.043Z</time></trkpt><trkpt lat="42.3699517" lon="-7.5533214"><ele>436.0</ele><time>2026-04-25T09:32:29.042Z</time></trkpt><trkpt lat="42.3700362" lon="-7.5531813"><ele>432.0</ele><time>2026-04-25T09:32:30.043Z</time></trkpt><trkpt lat="42.3701126" lon="-7.5530621"><ele>428.0</ele><time>2026-04-25T09:32:31.041Z</time></trkpt><trkpt lat="42.3702032" lon="-7.5529147"><ele>434.0</ele><time>2026-04-25T09:32:32.04Z</time></trkpt><trkpt lat="42.3703162" lon="-7.5527279"><ele>440.0</ele><time>2026-04-25T09:32:33.038Z</time></trkpt><trkpt lat="42.3704251" lon="-7.5525617"><ele>446.0</ele><time>2026-04-25T09:32:34.037Z</time></trkpt><trkpt lat="42.3705159" lon="-7.552417"><ele>444.0</ele><time>2026-04-25T09:32:35.038Z</time></trkpt><trkpt lat="42.3706092" lon="-7.5522761"><ele>442.0</ele><time>2026-04-25T09:32:36.04Z</time></trkpt><trkpt lat="42.3706965" lon="-7.5521454"><ele>440.0</ele><time>2026-04-25T09:32:37.039Z</time></trkpt><trkpt lat="42.370781" lon="-7.5520232"><ele>438.0</ele><time>2026-04-25T09:32:38.037Z</time></trkpt><trkpt lat="42.3708625" lon="-7.551908"><ele>438.0</ele><time>2026-04-25T09:32:39.038Z</time></trkpt><trkpt lat="42.3709361" lon="-7.5517957"><ele>438.0</ele><time>2026-04-25T09:32:40.044Z</time></trkpt><trkpt lat="42.3710038" lon="-7.5516696"><ele>438.0</ele><time>2026-04-25T09:32:41.043Z</time></trkpt><trkpt lat="42.3710827" lon="-7.5515404"><ele>438.0</ele><time>2026-04-25T09:32:42.042Z</time></trkpt><trkpt lat="42.3711457" lon="-7.5514312"><ele>438.0</ele><time>2026-04-25T09:32:43.041Z</time></trkpt><trkpt lat="42.3712052" lon="-7.5513162"><ele>437.99999999999994</ele><time>2026-04-25T09:32:44.046Z</time></trkpt><trkpt lat="42.3712625" lon="-7.5511934"><ele>437.99999999999994</ele><time>2026-04-25T09:32:45.041Z</time></trkpt><trkpt lat="42.3713123" lon="-7.5510644"><ele>438.0</ele><time>2026-04-25T09:32:46.042Z</time></trkpt><trkpt lat="42.3713556" lon="-7.5509457"><ele>438.0</ele><time>2026-04-25T09:32:47.052Z</time></trkpt><trkpt lat="42.3713892" lon="-7.5508282"><ele>438.0</ele><time>2026-04-25T09:32:48.039Z</time></trkpt><trkpt lat="42.3714149" lon="-7.5507117"><ele>437.99999999999994</ele><time>2026-04-25T09:32:49.044Z</time></trkpt><trkpt lat="42.3714378" lon="-7.5505965"><ele>437.99999999999994</ele><time>2026-04-25T09:32:50.037Z</time></trkpt><trkpt lat="42.3714377" lon="-7.5504687"><ele>438.0</ele><time>2026-04-25T09:32:51.033Z</time></trkpt><trkpt lat="42.3714146" lon="-7.5503481"><ele>438.0</ele><time>2026-04-25T09:32:52.037Z</time></trkpt><trkpt lat="42.371391" lon="-7.5502361"><ele>438.0</ele><time>2026-04-25T09:32:53.041Z</time></trkpt><trkpt lat="42.3713617" lon="-7.5501226"><ele>438.0</ele><time>2026-04-25T09:32:54.041Z</time></trkpt><trkpt lat="42.371353" lon="-7.5500053"><ele>438.0</ele><time>2026-04-25T09:32:55.039Z</time></trkpt><trkpt lat="42.3713303" lon="-7.5498854"><ele>438.0</ele><time>2026-04-25T09:32:56.04Z</time></trkpt><trkpt lat="42.3713496" lon="-7.5497673"><ele>438.0</ele><time>2026-04-25T09:32:57.044Z</time></trkpt><trkpt lat="42.3713873" lon="-7.5496833"><ele>438.0</ele><time>2026-04-25T09:32:58.035Z</time></trkpt><trkpt lat="42.3714431" lon="-7.5496389"><ele>438.0</ele><time>2026-04-25T09:32:59.045Z</time></trkpt><trkpt lat="42.3715112" lon="-7.5495978"><ele>437.99999999999994</ele><time>2026-04-25T09:33:00.037Z</time></trkpt><trkpt lat="42.3715828" lon="-7.5495346"><ele>437.99999999999994</ele><time>2026-04-25T09:33:01.039Z</time></trkpt><trkpt lat="42.3716622" lon="-7.5493978"><ele>438.0</ele><time>2026-04-25T09:33:02.039Z</time></trkpt><trkpt lat="42.3716921" lon="-7.5492371"><ele>438.0</ele><time>2026-04-25T09:33:03.042Z</time></trkpt><trkpt lat="42.3717361" lon="-7.5490879"><ele>440.79999999999995</ele><time>2026-04-25T09:33:04.039Z</time></trkpt><trkpt lat="42.371793" lon="-7.5489865"><ele>443.59999999999997</ele><time>2026-04-25T09:33:05.036Z</time></trkpt><trkpt lat="42.371888" lon="-7.5489613"><ele>446.40000000000003</ele><time>2026-04-25T09:33:06.051Z</time></trkpt><trkpt lat="42.3719996" lon="-7.5489736"><ele>449.20000000000005</ele><time>2026-04-25T09:33:07.04Z</time></trkpt><trkpt lat="42.372095" lon="-7.5490457"><ele>452.0</ele><time>2026-04-25T09:33:08.044Z</time></trkpt><trkpt lat="42.3721967" lon="-7.5491439"><ele>452.8</ele><time>2026-04-25T09:33:09.034Z</time></trkpt><trkpt lat="42.3723127" lon="-7.5492177"><ele>453.6</ele><time>2026-04-25T09:33:10.037Z</time></trkpt><trkpt lat="42.372414" lon="-7.5492702"><ele>454.40000000000003</ele><time>2026-04-25T09:33:11.038Z</time></trkpt><trkpt lat="42.3724928" lon="-7.5492803"><ele>455.20000000000005</ele><time>2026-04-25T09:33:12.04Z</time></trkpt><trkpt lat="42.3725776" lon="-7.5492741"><ele>456.0</ele><time>2026-04-25T09:33:13.05Z</time></trkpt><trkpt lat="42.3726658" lon="-7.5492534"><ele>456.0</ele><time>2026-04-25T09:33:14.04Z</time></trkpt><trkpt lat="42.3727533" lon="-7.5492313"><ele>456.0</ele><time>2026-04-25T09:33:15.044Z</time></trkpt><trkpt lat="42.3728441" lon="-7.5492003"><ele>456.0</ele><time>2026-04-25T09:33:16.046Z</time></trkpt><trkpt lat="42.3729361" lon="-7.5491698"><ele>456.0</ele><time>2026-04-25T09:33:17.044Z</time></trkpt><trkpt lat="42.3730132" lon="-7.5491116"><ele>456.0</ele><time>2026-04-25T09:33:18.062Z</time></trkpt><trkpt lat="42.3730908" lon="-7.5490376"><ele>455.4</ele><time>2026-04-25T09:33:19.042Z</time></trkpt><trkpt lat="42.3731623" lon="-7.5489519"><ele>454.8</ele><time>2026-04-25T09:33:20.04Z</time></trkpt><trkpt lat="42.3732271" lon="-7.5488715"><ele>454.19999999999993</ele><time>2026-04-25T09:33:21.044Z</time></trkpt><trkpt lat="42.3732799" lon="-7.5488055"><ele>453.59999999999997</ele><time>2026-04-25T09:33:22.04Z</time></trkpt><trkpt lat="42.3733627" lon="-7.5487016"><ele>453.0</ele><time>2026-04-25T09:33:24.05Z</time></trkpt><trkpt lat="42.3734353" lon="-7.5486052"><ele>456.0</ele><time>2026-04-25T09:33:26.037Z</time></trkpt><trkpt lat="42.3734756" lon="-7.5485386"><ele>459.0</ele><time>2026-04-25T09:33:28.055Z</time></trkpt><trkpt lat="42.3735232" lon="-7.5484181"><ele>462.0</ele><time>2026-04-25T09:33:31.052Z</time></trkpt><trkpt lat="42.373566" lon="-7.5483497"><ele>465.0</ele><time>2026-04-25T09:33:32.058Z</time></trkpt><trkpt lat="42.3736139" lon="-7.5482791"><ele>468.0</ele><time>2026-04-25T09:33:33.044Z</time></trkpt><trkpt lat="42.3736642" lon="-7.5482034"><ele>471.0</ele><time>2026-04-25T09:33:34.042Z</time></trkpt><trkpt lat="42.3737127" lon="-7.5481126"><ele>471.0</ele><time>2026-04-25T09:33:35.039Z</time></trkpt><trkpt lat="42.3737591" lon="-7.5480073"><ele>471.0</ele><time>2026-04-25T09:33:36.05Z</time></trkpt><trkpt lat="42.373801" lon="-7.5478915"><ele>471.0</ele><time>2026-04-25T09:33:37.046Z</time></trkpt><trkpt lat="42.3738443" lon="-7.5477582"><ele>471.0</ele><time>2026-04-25T09:33:38.04Z</time></trkpt><trkpt lat="42.3738911" lon="-7.54761"><ele>471.0</ele><time>2026-04-25T09:33:39.043Z</time></trkpt><trkpt lat="42.3739351" lon="-7.547471"><ele>470.8</ele><time>2026-04-25T09:33:40.04Z</time></trkpt><trkpt lat="42.3739832" lon="-7.5473424"><ele>470.6</ele><time>2026-04-25T09:33:41.057Z</time></trkpt><trkpt lat="42.3740364" lon="-7.5472213"><ele>470.4</ele><time>2026-04-25T09:33:42.044Z</time></trkpt><trkpt lat="42.3740931" lon="-7.5471065"><ele>470.2</ele><time>2026-04-25T09:33:43.05Z</time></trkpt><trkpt lat="42.374143" lon="-7.5469988"><ele>470.0</ele><time>2026-04-25T09:33:44.044Z</time></trkpt><trkpt lat="42.3741864" lon="-7.5468895"><ele>470.0</ele><time>2026-04-25T09:33:45.044Z</time></trkpt><trkpt lat="42.3742244" lon="-7.54678"><ele>470.0</ele><time>2026-04-25T09:33:46.036Z</time></trkpt><trkpt lat="42.3742553" lon="-7.5466656"><ele>470.0</ele><time>2026-04-25T09:33:47.05Z</time></trkpt><trkpt lat="42.3742816" lon="-7.5465433"><ele>470.0</ele><time>2026-04-25T09:33:48.045Z</time></trkpt><trkpt lat="42.3743084" lon="-7.5464146"><ele>470.0</ele><time>2026-04-25T09:33:49.048Z</time></trkpt><trkpt lat="42.3743316" lon="-7.5462737"><ele>472.0</ele><time>2026-04-25T09:33:50.043Z</time></trkpt><trkpt lat="42.3743555" lon="-7.5461236"><ele>474.0</ele><time>2026-04-25T09:33:51.037Z</time></trkpt><trkpt lat="42.3743768" lon="-7.5459801"><ele>476.0</ele><time>2026-04-25T09:33:52.04Z</time></trkpt><trkpt lat="42.3743946" lon="-7.5458498"><ele>478.0</ele><time>2026-04-25T09:33:53.051Z</time></trkpt><trkpt lat="42.3744087" lon="-7.5457286"><ele>480.0</ele><time>2026-04-25T09:33:54.046Z</time></trkpt><trkpt lat="42.3744161" lon="-7.5456084"><ele>480.0</ele><time>2026-04-25T09:33:55.055Z</time></trkpt><trkpt lat="42.3744154" lon="-7.5454803"><ele>480.0</ele><time>2026-04-25T09:33:56.051Z</time></trkpt><trkpt lat="42.3744067" lon="-7.5453497"><ele>480.0</ele><time>2026-04-25T09:33:57.049Z</time></trkpt><trkpt lat="42.3743902" lon="-7.5452127"><ele>480.0</ele><time>2026-04-25T09:33:58.033Z</time></trkpt><trkpt lat="42.3743713" lon="-7.5450679"><ele>480.0</ele><time>2026-04-25T09:33:59.044Z</time></trkpt><trkpt lat="42.3743561" lon="-7.5449093"><ele>480.25</ele><time>2026-04-25T09:34:00.046Z</time></trkpt><trkpt lat="42.3743468" lon="-7.5447391"><ele>480.5</ele><time>2026-04-25T09:34:01.047Z</time></trkpt><trkpt lat="42.3743412" lon="-7.5445616"><ele>480.75</ele><time>2026-04-25T09:34:02.056Z</time></trkpt><trkpt lat="42.3743379" lon="-7.5443783"><ele>481.0</ele><time>2026-04-25T09:34:03.043Z</time></trkpt><trkpt lat="42.3743345" lon="-7.5442096"><ele>480.4</ele><time>2026-04-25T09:34:04.052Z</time></trkpt><trkpt lat="42.3743323" lon="-7.5440608"><ele>479.8</ele><time>2026-04-25T09:34:05.041Z</time></trkpt><trkpt lat="42.3743288" lon="-7.5439188"><ele>479.19999999999993</ele><time>2026-04-25T09:34:06.052Z</time></trkpt><trkpt lat="42.3743062" lon="-7.5437772"><ele>478.59999999999997</ele><time>2026-04-25T09:34:07.043Z</time></trkpt><trkpt lat="42.3742544" lon="-7.5436441"><ele>478.0</ele><time>2026-04-25T09:34:08.049Z</time></trkpt><trkpt lat="42.3741774" lon="-7.5435334"><ele>476.79999999999995</ele><time>2026-04-25T09:34:09.047Z</time></trkpt><trkpt lat="42.3740926" lon="-7.5434533"><ele>475.59999999999997</ele><time>2026-04-25T09:34:10.048Z</time></trkpt><trkpt lat="42.3740105" lon="-7.5433898"><ele>474.40000000000003</ele><time>2026-04-25T09:34:11.043Z</time></trkpt><trkpt lat="42.3739274" lon="-7.5433363"><ele>473.20000000000005</ele><time>2026-04-25T09:34:12.04Z</time></trkpt><trkpt lat="42.3738395" lon="-7.5432927"><ele>472.0</ele><time>2026-04-25T09:34:13.048Z</time></trkpt><trkpt lat="42.3737524" lon="-7.5432691"><ele>474.57142857142856</ele><time>2026-04-25T09:34:14.04Z</time></trkpt><trkpt lat="42.3736705" lon="-7.5432667"><ele>477.14285714285717</ele><time>2026-04-25T09:34:15.042Z</time></trkpt><trkpt lat="42.3735916" lon="-7.543272"><ele>479.7142857142857</ele><time>2026-04-25T09:34:16.047Z</time></trkpt><trkpt lat="42.3735179" lon="-7.5432625"><ele>482.2857142857143</ele><time>2026-04-25T09:34:17.047Z</time></trkpt><trkpt lat="42.3734477" lon="-7.5432533"><ele>484.8571428571429</ele><time>2026-04-25T09:34:18.046Z</time></trkpt><trkpt lat="42.3733907" lon="-7.5432126"><ele>487.42857142857144</ele><time>2026-04-25T09:34:19.045Z</time></trkpt><trkpt lat="42.3733493" lon="-7.5431338"><ele>490.0</ele><time>2026-04-25T09:34:20.044Z</time></trkpt><trkpt lat="42.3733479" lon="-7.5430121"><ele>490.0</ele><time>2026-04-25T09:34:21.037Z</time></trkpt><trkpt lat="42.373355" lon="-7.5428881"><ele>490.0</ele><time>2026-04-25T09:34:22.053Z</time></trkpt><trkpt lat="42.3733698" lon="-7.5427668"><ele>490.0</ele><time>2026-04-25T09:34:23.033Z</time></trkpt><trkpt lat="42.3733713" lon="-7.5426468"><ele>490.0</ele><time>2026-04-25T09:34:24.058Z</time></trkpt><trkpt lat="42.3733684" lon="-7.54252"><ele>490.0</ele><time>2026-04-25T09:34:25.046Z</time></trkpt><trkpt lat="42.373381" lon="-7.5424045"><ele>490.1666666666667</ele><time>2026-04-25T09:34:26.047Z</time></trkpt><trkpt lat="42.3734213" lon="-7.5423083"><ele>490.33333333333337</ele><time>2026-04-25T09:34:27.045Z</time></trkpt><trkpt lat="42.3734596" lon="-7.5422236"><ele>490.5</ele><time>2026-04-25T09:34:28.055Z</time></trkpt><trkpt lat="42.3735184" lon="-7.5421785"><ele>490.66666666666663</ele><time>2026-04-25T09:34:29.048Z</time></trkpt><trkpt lat="42.3735975" lon="-7.5421178"><ele>490.8333333333333</ele><time>2026-04-25T09:34:30.041Z</time></trkpt><trkpt lat="42.3736852" lon="-7.5420612"><ele>491.0</ele><time>2026-04-25T09:34:31.044Z</time></trkpt><trkpt lat="42.3737782" lon="-7.5419935"><ele>487.6</ele><time>2026-04-25T09:34:32.048Z</time></trkpt><trkpt lat="42.3738669" lon="-7.5418813"><ele>484.20000000000005</ele><time>2026-04-25T09:34:33.037Z</time></trkpt><trkpt lat="42.3739371" lon="-7.5417604"><ele>480.79999999999995</ele><time>2026-04-25T09:34:34.039Z</time></trkpt><trkpt lat="42.3740005" lon="-7.5416412"><ele>477.4</ele><time>2026-04-25T09:34:35.044Z</time></trkpt><trkpt lat="42.3740642" lon="-7.5415303"><ele>474.0</ele><time>2026-04-25T09:34:36.039Z</time></trkpt><trkpt lat="42.3741287" lon="-7.5414236"><ele>474.0</ele><time>2026-04-25T09:34:37.037Z</time></trkpt><trkpt lat="42.3741992" lon="-7.5413305"><ele>474.0</ele><time>2026-04-25T09:34:38.042Z</time></trkpt><trkpt lat="42.374273" lon="-7.5412428"><ele>474.0</ele><time>2026-04-25T09:34:39.049Z</time></trkpt><trkpt lat="42.3743514" lon="-7.5411606"><ele>474.0</ele><time>2026-04-25T09:34:40.049Z</time></trkpt><trkpt lat="42.3744282" lon="-7.5410767"><ele>474.0</ele><time>2026-04-25T09:34:41.052Z</time></trkpt><trkpt lat="42.3744951" lon="-7.5410084"><ele>476.5</ele><time>2026-04-25T09:34:42.041Z</time></trkpt><trkpt lat="42.374541" lon="-7.5409404"><ele>479.0</ele><time>2026-04-25T09:34:43.05Z</time></trkpt><trkpt lat="42.3745829" lon="-7.5407947"><ele>481.5</ele><time>2026-04-25T09:34:45.046Z</time></trkpt><trkpt lat="42.3745783" lon="-7.5407046"><ele>484.0</ele><time>2026-04-25T09:34:46.041Z</time></trkpt><trkpt lat="42.3745842" lon="-7.5406036"><ele>486.5</ele><time>2026-04-25T09:34:47.042Z</time></trkpt><trkpt lat="42.3746056" lon="-7.5404805"><ele>489.0</ele><time>2026-04-25T09:34:48.045Z</time></trkpt><trkpt lat="42.3746284" lon="-7.540341"><ele>487.8333333333333</ele><time>2026-04-25T09:34:49.052Z</time></trkpt><trkpt lat="42.3746527" lon="-7.5402236"><ele>486.66666666666663</ele><time>2026-04-25T09:34:50.054Z</time></trkpt><trkpt lat="42.3746752" lon="-7.5401178"><ele>485.5</ele><time>2026-04-25T09:34:51.045Z</time></trkpt><trkpt lat="42.3747067" lon="-7.5400216"><ele>484.3333333333333</ele><time>2026-04-25T09:34:52.05Z</time></trkpt><trkpt lat="42.3747407" lon="-7.5399275"><ele>483.16666666666663</ele><time>2026-04-25T09:34:53.038Z</time></trkpt><trkpt lat="42.374778" lon="-7.5398408"><ele>482.0</ele><time>2026-04-25T09:34:54.04Z</time></trkpt><trkpt lat="42.3748152" lon="-7.5397589"><ele>482.0</ele><time>2026-04-25T09:34:55.038Z</time></trkpt><trkpt lat="42.3748751" lon="-7.5396425"><ele>482.00000000000006</ele><time>2026-04-25T09:34:57.038Z</time></trkpt><trkpt lat="42.374897" lon="-7.5395147"><ele>482.00000000000006</ele><time>2026-04-25T09:34:59.047Z</time></trkpt><trkpt lat="42.3748355" lon="-7.5393977"><ele>482.0</ele><time>2026-04-25T09:35:01.045Z</time></trkpt><trkpt lat="42.374755" lon="-7.5393676"><ele>482.0</ele><time>2026-04-25T09:35:03.051Z</time></trkpt><trkpt lat="42.3746791" lon="-7.5394329"><ele>486.20000000000005</ele><time>2026-04-25T09:35:05.051Z</time></trkpt><trkpt lat="42.3746263" lon="-7.5394978"><ele>490.40000000000003</ele><time>2026-04-25T09:35:06.049Z</time></trkpt><trkpt lat="42.3745615" lon="-7.5395799"><ele>494.59999999999997</ele><time>2026-04-25T09:35:07.037Z</time></trkpt><trkpt lat="42.3744836" lon="-7.5396756"><ele>498.79999999999995</ele><time>2026-04-25T09:35:08.046Z</time></trkpt><trkpt lat="42.3744092" lon="-7.5397869"><ele>503.0</ele><time>2026-04-25T09:35:09.046Z</time></trkpt><trkpt lat="42.3743179" lon="-7.5398998"><ele>503.0</ele><time>2026-04-25T09:35:10.045Z</time></trkpt><trkpt lat="42.3742355" lon="-7.5400002"><ele>503.0</ele><time>2026-04-25T09:35:11.054Z</time></trkpt><trkpt lat="42.3741402" lon="-7.5401192"><ele>503.0</ele><time>2026-04-25T09:35:12.042Z</time></trkpt><trkpt lat="42.3740532" lon="-7.5402181"><ele>503.0</ele><time>2026-04-25T09:35:13.045Z</time></trkpt><trkpt lat="42.3739802" lon="-7.540311"><ele>504.25</ele><time>2026-04-25T09:35:14.041Z</time></trkpt><trkpt lat="42.3738935" lon="-7.540415"><ele>505.5</ele><time>2026-04-25T09:35:15.039Z</time></trkpt><trkpt lat="42.3737932" lon="-7.5405317"><ele>506.75</ele><time>2026-04-25T09:35:16.039Z</time></trkpt><trkpt lat="42.3736955" lon="-7.5405982"><ele>508.0</ele><time>2026-04-25T09:35:17.04Z</time></trkpt><trkpt lat="42.3735898" lon="-7.5406727"><ele>508.0</ele><time>2026-04-25T09:35:18.051Z</time></trkpt><trkpt lat="42.373497" lon="-7.5407337"><ele>507.99999999999994</ele><time>2026-04-25T09:35:19.046Z</time></trkpt><trkpt lat="42.3733997" lon="-7.5408111"><ele>507.99999999999994</ele><time>2026-04-25T09:35:20.04Z</time></trkpt><trkpt lat="42.3732999" lon="-7.5408744"><ele>508.0</ele><time>2026-04-25T09:35:21.046Z</time></trkpt><trkpt lat="42.3732007" lon="-7.5409299"><ele>508.0</ele><time>2026-04-25T09:35:22.043Z</time></trkpt><trkpt lat="42.3731222" lon="-7.5409741"><ele>508.0</ele><time>2026-04-25T09:35:23.042Z</time></trkpt><trkpt lat="42.3730461" lon="-7.540999"><ele>507.99999999999994</ele><time>2026-04-25T09:35:24.053Z</time></trkpt><trkpt lat="42.3729705" lon="-7.5410141"><ele>507.99999999999994</ele><time>2026-04-25T09:35:25.047Z</time></trkpt><trkpt lat="42.3728886" lon="-7.540996"><ele>508.0</ele><time>2026-04-25T09:35:26.038Z</time></trkpt><trkpt lat="42.3727894" lon="-7.540981"><ele>508.0</ele><time>2026-04-25T09:35:27.04Z</time></trkpt><trkpt lat="42.3726775" lon="-7.540956"><ele>511.2</ele><time>2026-04-25T09:35:28.045Z</time></trkpt><trkpt lat="42.3725691" lon="-7.5409549"><ele>514.4</ele><time>2026-04-25T09:35:29.042Z</time></trkpt><trkpt lat="42.3724734" lon="-7.5409691"><ele>517.5999999999999</ele><time>2026-04-25T09:35:30.04Z</time></trkpt><trkpt lat="42.3723669" lon="-7.5409597"><ele>520.8</ele><time>2026-04-25T09:35:31.046Z</time></trkpt><trkpt lat="42.3722679" lon="-7.5409471"><ele>524.0</ele><time>2026-04-25T09:35:32.039Z</time></trkpt><trkpt lat="42.3721978" lon="-7.5409481"><ele>526.6</ele><time>2026-04-25T09:35:33.039Z</time></trkpt><trkpt lat="42.3720744" lon="-7.5409791"><ele>529.2</ele><time>2026-04-25T09:35:35.046Z</time></trkpt><trkpt lat="42.3720093" lon="-7.5410229"><ele>531.8000000000001</ele><time>2026-04-25T09:35:36.038Z</time></trkpt><trkpt lat="42.3719172" lon="-7.5410936"><ele>534.4</ele><time>2026-04-25T09:35:38.049Z</time></trkpt><trkpt lat="42.371886" lon="-7.5411989"><ele>537.0</ele><time>2026-04-25T09:35:40.052Z</time></trkpt><trkpt lat="42.3719156" lon="-7.5413872"><ele>537.0</ele><time>2026-04-25T09:35:42.044Z</time></trkpt><trkpt lat="42.3719524" lon="-7.5414943"><ele>537.0</ele><time>2026-04-25T09:35:43.041Z</time></trkpt><trkpt lat="42.3719996" lon="-7.5415841"><ele>537.0</ele><time>2026-04-25T09:35:44.039Z</time></trkpt><trkpt lat="42.3720437" lon="-7.5416766"><ele>537.0</ele><time>2026-04-25T09:35:45.042Z</time></trkpt><trkpt lat="42.3720563" lon="-7.5418214"><ele>537.0</ele><time>2026-04-25T09:35:46.04Z</time></trkpt><trkpt lat="42.3720562" lon="-7.5419452"><ele>537.0</ele><time>2026-04-25T09:35:47.042Z</time></trkpt><trkpt lat="42.3720187" lon="-7.542032"><ele>536.4</ele><time>2026-04-25T09:35:48.042Z</time></trkpt><trkpt lat="42.3719696" lon="-7.5420988"><ele>535.8000000000001</ele><time>2026-04-25T09:35:49.045Z</time></trkpt><trkpt lat="42.3719212" lon="-7.5421562"><ele>535.2</ele><time>2026-04-25T09:35:50.044Z</time></trkpt><trkpt lat="42.3718199" lon="-7.5422609"><ele>534.6</ele><time>2026-04-25T09:35:52.047Z</time></trkpt><trkpt lat="42.3717578" lon="-7.5423153"><ele>534.0</ele><time>2026-04-25T09:35:53.044Z</time></trkpt><trkpt lat="42.3716529" lon="-7.5423984"><ele>534.0</ele><time>2026-04-25T09:35:55.047Z</time></trkpt><trkpt lat="42.3716028" lon="-7.5424516"><ele>534.0</ele><time>2026-04-25T09:35:56.042Z</time></trkpt><trkpt lat="42.3715561" lon="-7.5425327"><ele>534.0</ele><time>2026-04-25T09:35:57.041Z</time></trkpt><trkpt lat="42.3715281" lon="-7.5426382"><ele>534.0</ele><time>2026-04-25T09:35:58.035Z</time></trkpt><trkpt lat="42.3715205" lon="-7.542775"><ele>534.0</ele><time>2026-04-25T09:35:59.039Z</time></trkpt><trkpt lat="42.3715067" lon="-7.5429234"><ele>534.0</ele><time>2026-04-25T09:36:00.042Z</time></trkpt><trkpt lat="42.3714859" lon="-7.5430487"><ele>533.3333333333334</ele><time>2026-04-25T09:36:01.05Z</time></trkpt><trkpt lat="42.3714378" lon="-7.5431514"><ele>532.6666666666666</ele><time>2026-04-25T09:36:02.04Z</time></trkpt><trkpt lat="42.3713818" lon="-7.5432422"><ele>532.0</ele><time>2026-04-25T09:36:03.037Z</time></trkpt><trkpt lat="42.3713187" lon="-7.5433222"><ele>531.3333333333333</ele><time>2026-04-25T09:36:04.042Z</time></trkpt><trkpt lat="42.3712402" lon="-7.543386"><ele>530.6666666666666</ele><time>2026-04-25T09:36:05.034Z</time></trkpt><trkpt lat="42.3711743" lon="-7.5434475"><ele>530.0</ele><time>2026-04-25T09:36:06.044Z</time></trkpt><trkpt lat="42.3710985" lon="-7.5435231"><ele>533.8333333333333</ele><time>2026-04-25T09:36:07.039Z</time></trkpt><trkpt lat="42.3710371" lon="-7.5436001"><ele>537.6666666666666</ele><time>2026-04-25T09:36:08.039Z</time></trkpt><trkpt lat="42.3709964" lon="-7.5436822"><ele>541.5</ele><time>2026-04-25T09:36:09.038Z</time></trkpt><trkpt lat="42.3709603" lon="-7.5437725"><ele>545.3333333333334</ele><time>2026-04-25T09:36:10.05Z</time></trkpt><trkpt lat="42.3709522" lon="-7.5438642"><ele>549.1666666666667</ele><time>2026-04-25T09:36:11.037Z</time></trkpt><trkpt lat="42.3709923" lon="-7.5439545"><ele>553.0</ele><time>2026-04-25T09:36:12.046Z</time></trkpt><trkpt lat="42.3710449" lon="-7.5440406"><ele>554.0</ele><time>2026-04-25T09:36:13.042Z</time></trkpt><trkpt lat="42.3711291" lon="-7.5441232"><ele>555.0</ele><time>2026-04-25T09:36:14.033Z</time></trkpt><trkpt lat="42.3712248" lon="-7.5442052"><ele>556.0</ele><time>2026-04-25T09:36:15.056Z</time></trkpt><trkpt lat="42.3713404" lon="-7.5443169"><ele>557.0</ele><time>2026-04-25T09:36:16.045Z</time></trkpt><trkpt lat="42.3714342" lon="-7.5443989"><ele>554.8333333333333</ele><time>2026-04-25T09:36:17.038Z</time></trkpt><trkpt lat="42.3715222" lon="-7.5444751"><ele>552.6666666666666</ele><time>2026-04-25T09:36:18.045Z</time></trkpt><trkpt lat="42.3715797" lon="-7.5445376"><ele>550.5</ele><time>2026-04-25T09:36:19.039Z</time></trkpt><trkpt lat="42.3715993" lon="-7.5446256"><ele>548.3333333333334</ele><time>2026-04-25T09:36:20.04Z</time></trkpt><trkpt lat="42.3716016" lon="-7.5447539"><ele>546.1666666666667</ele><time>2026-04-25T09:36:21.039Z</time></trkpt><trkpt lat="42.3715763" lon="-7.544883"><ele>544.0</ele><time>2026-04-25T09:36:22.044Z</time></trkpt><trkpt lat="42.371523" lon="-7.5450435"><ele>544.0</ele><time>2026-04-25T09:36:23.053Z</time></trkpt><trkpt lat="42.3714581" lon="-7.54518"><ele>544.0</ele><time>2026-04-25T09:36:24.037Z</time></trkpt><trkpt lat="42.3714054" lon="-7.5452981"><ele>544.0</ele><time>2026-04-25T09:36:25.04Z</time></trkpt><trkpt lat="42.3713674" lon="-7.5453938"><ele>544.0</ele><time>2026-04-25T09:36:26.038Z</time></trkpt><trkpt lat="42.3713324" lon="-7.5454758"><ele>544.0</ele><time>2026-04-25T09:36:27.05Z</time></trkpt><trkpt lat="42.3712909" lon="-7.5455493"><ele>544.0</ele><time>2026-04-25T09:36:28.042Z</time></trkpt><trkpt lat="42.3712261" lon="-7.5456483"><ele>548.0</ele><time>2026-04-25T09:36:29.041Z</time></trkpt><trkpt lat="42.3711154" lon="-7.5457495"><ele>552.0</ele><time>2026-04-25T09:36:30.042Z</time></trkpt><trkpt lat="42.3710018" lon="-7.5458502"><ele>556.0</ele><time>2026-04-25T09:36:31.037Z</time></trkpt><trkpt lat="42.3708747" lon="-7.5459445"><ele>560.0</ele><time>2026-04-25T09:36:32.053Z</time></trkpt><trkpt lat="42.3707701" lon="-7.5460487"><ele>560.0</ele><time>2026-04-25T09:36:33.038Z</time></trkpt><trkpt lat="42.3706696" lon="-7.5461326"><ele>560.0</ele><time>2026-04-25T09:36:34.041Z</time></trkpt><trkpt lat="42.3705755" lon="-7.5462013"><ele>560.0</ele><time>2026-04-25T09:36:35.046Z</time></trkpt><trkpt lat="42.3704905" lon="-7.5462541"><ele>560.0</ele><time>2026-04-25T09:36:36.041Z</time></trkpt><trkpt lat="42.3704129" lon="-7.5462967"><ele>560.0</ele><time>2026-04-25T09:36:37.041Z</time></trkpt><trkpt lat="42.3703433" lon="-7.5463485"><ele>561.8</ele><time>2026-04-25T09:36:38.05Z</time></trkpt><trkpt lat="42.3702824" lon="-7.5463955"><ele>563.6</ele><time>2026-04-25T09:36:39.041Z</time></trkpt><trkpt lat="42.3702463" lon="-7.5465307"><ele>565.4</ele><time>2026-04-25T09:36:41.049Z</time></trkpt><trkpt lat="42.3702478" lon="-7.5466381"><ele>567.2</ele><time>2026-04-25T09:36:42.037Z</time></trkpt><trkpt lat="42.3702601" lon="-7.5468027"><ele>569.0</ele><time>2026-04-25T09:36:43.053Z</time></trkpt><trkpt lat="42.3702749" lon="-7.5469421"><ele>569.0</ele><time>2026-04-25T09:36:44.039Z</time></trkpt><trkpt lat="42.3702692" lon="-7.5470434"><ele>569.0</ele><time>2026-04-25T09:36:45.046Z</time></trkpt><trkpt lat="42.370236" lon="-7.547116"><ele>569.0</ele><time>2026-04-25T09:36:46.044Z</time></trkpt><trkpt lat="42.3701607" lon="-7.5471614"><ele>569.0</ele><time>2026-04-25T09:36:47.049Z</time></trkpt><trkpt lat="42.3700739" lon="-7.5471975"><ele>569.0</ele><time>2026-04-25T09:36:48.04Z</time></trkpt><trkpt lat="42.3699731" lon="-7.5472134"><ele>569.0</ele><time>2026-04-25T09:36:49.043Z</time></trkpt><trkpt lat="42.3698614" lon="-7.5472321"><ele>565.8</ele><time>2026-04-25T09:36:50.044Z</time></trkpt><trkpt lat="42.369754" lon="-7.5472484"><ele>562.5999999999999</ele><time>2026-04-25T09:36:51.049Z</time></trkpt><trkpt lat="42.3696541" lon="-7.5472749"><ele>559.4</ele><time>2026-04-25T09:36:52.044Z</time></trkpt><trkpt lat="42.369571" lon="-7.54731"><ele>556.1999999999999</ele><time>2026-04-25T09:36:53.056Z</time></trkpt><trkpt lat="42.3695174" lon="-7.5473646"><ele>553.0</ele><time>2026-04-25T09:36:54.049Z</time></trkpt><trkpt lat="42.3694486" lon="-7.547443"><ele>558.6</ele><time>2026-04-25T09:36:56.056Z</time></trkpt><trkpt lat="42.3693906" lon="-7.5475029"><ele>564.1999999999999</ele><time>2026-04-25T09:36:58.052Z</time></trkpt><trkpt lat="42.3693009" lon="-7.5476265"><ele>569.8</ele><time>2026-04-25T09:37:00.045Z</time></trkpt><trkpt lat="42.3692505" lon="-7.5477427"><ele>575.4</ele><time>2026-04-25T09:37:01.035Z</time></trkpt><trkpt lat="42.3692173" lon="-7.5478456"><ele>581.0</ele><time>2026-04-25T09:37:02.044Z</time></trkpt><trkpt lat="42.3692184" lon="-7.5479534"><ele>581.0</ele><time>2026-04-25T09:37:03.053Z</time></trkpt><trkpt lat="42.3692011" lon="-7.5480468"><ele>581.0</ele><time>2026-04-25T09:37:04.038Z</time></trkpt><trkpt lat="42.3691356" lon="-7.5481903"><ele>581.0</ele><time>2026-04-25T09:37:06.045Z</time></trkpt><trkpt lat="42.3690806" lon="-7.5482563"><ele>581.0</ele><time>2026-04-25T09:37:07.044Z</time></trkpt><trkpt lat="42.3690004" lon="-7.548349"><ele>581.0</ele><time>2026-04-25T09:37:08.058Z</time></trkpt><trkpt lat="42.3689031" lon="-7.5484562"><ele>584.2</ele><time>2026-04-25T09:37:09.043Z</time></trkpt><trkpt lat="42.3688344" lon="-7.5485646"><ele>587.4000000000001</ele><time>2026-04-25T09:37:10.04Z</time></trkpt><trkpt lat="42.3687817" lon="-7.5486621"><ele>590.6</ele><time>2026-04-25T09:37:11.044Z</time></trkpt><trkpt lat="42.368729" lon="-7.5487721"><ele>593.8000000000001</ele><time>2026-04-25T09:37:12.045Z</time></trkpt><trkpt lat="42.3686841" lon="-7.5488627"><ele>597.0</ele><time>2026-04-25T09:37:13.047Z</time></trkpt><trkpt lat="42.3686205" lon="-7.548933"><ele>597.0</ele><time>2026-04-25T09:37:14.044Z</time></trkpt><trkpt lat="42.3685421" lon="-7.5489915"><ele>597.0</ele><time>2026-04-25T09:37:15.042Z</time></trkpt><trkpt lat="42.368454" lon="-7.5490238"><ele>597.0</ele><time>2026-04-25T09:37:16.043Z</time></trkpt><trkpt lat="42.3683524" lon="-7.5490414"><ele>597.0</ele><time>2026-04-25T09:37:17.052Z</time></trkpt><trkpt lat="42.3682514" lon="-7.5490139"><ele>597.0</ele><time>2026-04-25T09:37:18.037Z</time></trkpt><trkpt lat="42.3681374" lon="-7.5489722"><ele>601.0</ele><time>2026-04-25T09:37:19.046Z</time></trkpt><trkpt lat="42.368015" lon="-7.5489245"><ele>605.0</ele><time>2026-04-25T09:37:20.044Z</time></trkpt><trkpt lat="42.3678984" lon="-7.548883"><ele>609.0</ele><time>2026-04-25T09:37:21.043Z</time></trkpt><trkpt lat="42.367783" lon="-7.5488869"><ele>613.0</ele><time>2026-04-25T09:37:22.042Z</time></trkpt><trkpt lat="42.3676671" lon="-7.5488946"><ele>613.0</ele><time>2026-04-25T09:37:23.037Z</time></trkpt><trkpt lat="42.3675524" lon="-7.5489508"><ele>613.0</ele><time>2026-04-25T09:37:24.042Z</time></trkpt><trkpt lat="42.3674289" lon="-7.5489894"><ele>613.0</ele><time>2026-04-25T09:37:25.047Z</time></trkpt><trkpt lat="42.367323" lon="-7.549004"><ele>613.0</ele><time>2026-04-25T09:37:26.045Z</time></trkpt><trkpt lat="42.3672503" lon="-7.5490086"><ele>613.0</ele><time>2026-04-25T09:37:27.044Z</time></trkpt><trkpt lat="42.3671621" lon="-7.5489975"><ele>613.0</ele><time>2026-04-25T09:37:29.04Z</time></trkpt><trkpt lat="42.3671735" lon="-7.5488725"><ele>613.0</ele><time>2026-04-25T09:37:32.049Z</time></trkpt><trkpt lat="42.3672742" lon="-7.5488292"><ele>613.0</ele><time>2026-04-25T09:37:34.045Z</time></trkpt><trkpt lat="42.3673421" lon="-7.5488016"><ele>613.0</ele><time>2026-04-25T09:37:35.039Z</time></trkpt><trkpt lat="42.3674142" lon="-7.5487162"><ele>613.0</ele><time>2026-04-25T09:37:36.051Z</time></trkpt><trkpt lat="42.3674775" lon="-7.5486241"><ele>618.5</ele><time>2026-04-25T09:37:37.04Z</time></trkpt><trkpt lat="42.3675512" lon="-7.548485"><ele>624.0</ele><time>2026-04-25T09:37:38.041Z</time></trkpt><trkpt lat="42.3676252" lon="-7.5483416"><ele>629.5</ele><time>2026-04-25T09:37:39.042Z</time></trkpt><trkpt lat="42.3677186" lon="-7.5482055"><ele>635.0</ele><time>2026-04-25T09:37:40.045Z</time></trkpt><trkpt lat="42.3678424" lon="-7.5480762"><ele>635.0</ele><time>2026-04-25T09:37:41.052Z</time></trkpt><trkpt lat="42.3679446" lon="-7.5479551"><ele>635.0</ele><time>2026-04-25T09:37:42.044Z</time></trkpt><trkpt lat="42.3680348" lon="-7.5478333"><ele>635.0</ele><time>2026-04-25T09:37:43.036Z</time></trkpt><trkpt lat="42.3681067" lon="-7.5477202"><ele>635.0</ele><time>2026-04-25T09:37:44.041Z</time></trkpt><trkpt lat="42.3681548" lon="-7.5476172"><ele>634.6</ele><time>2026-04-25T09:37:45.038Z</time></trkpt><trkpt lat="42.3681994" lon="-7.5475172"><ele>634.2</ele><time>2026-04-25T09:37:46.042Z</time></trkpt><trkpt lat="42.3682343" lon="-7.5474126"><ele>633.8</ele><time>2026-04-25T09:37:47.046Z</time></trkpt><trkpt lat="42.3682685" lon="-7.547284"><ele>633.4</ele><time>2026-04-25T09:37:48.046Z</time></trkpt><trkpt lat="42.3683013" lon="-7.5471548"><ele>633.0</ele><time>2026-04-25T09:37:49.043Z</time></trkpt><trkpt lat="42.3683268" lon="-7.5470487"><ele>633.0</ele><time>2026-04-25T09:37:50.05Z</time></trkpt><trkpt lat="42.368363" lon="-7.5469156"><ele>633.0</ele><time>2026-04-25T09:37:52.041Z</time></trkpt><trkpt lat="42.3683119" lon="-7.5468516"><ele>633.0</ele><time>2026-04-25T09:37:55.054Z</time></trkpt><trkpt lat="42.3682208" lon="-7.5469571"><ele>633.0</ele><time>2026-04-25T09:37:57.053Z</time></trkpt><trkpt lat="42.3681716" lon="-7.5470357"><ele>633.0</ele><time>2026-04-25T09:37:58.049Z</time></trkpt><trkpt lat="42.3681141" lon="-7.5471088"><ele>633.0</ele><time>2026-04-25T09:37:59.046Z</time></trkpt><trkpt lat="42.3680406" lon="-7.5471877"><ele>639.5</ele><time>2026-04-25T09:38:00.047Z</time></trkpt><trkpt lat="42.367948" lon="-7.5472755"><ele>646.0</ele><time>2026-04-25T09:38:01.052Z</time></trkpt><trkpt lat="42.3678459" lon="-7.5473547"><ele>652.5</ele><time>2026-04-25T09:38:02.048Z</time></trkpt><trkpt lat="42.3677321" lon="-7.547416"><ele>659.0</ele><time>2026-04-25T09:38:03.039Z</time></trkpt><trkpt lat="42.3676082" lon="-7.5474555"><ele>659.0</ele><time>2026-04-25T09:38:04.043Z</time></trkpt><trkpt lat="42.3674719" lon="-7.5474805"><ele>659.0</ele><time>2026-04-25T09:38:05.043Z</time></trkpt><trkpt lat="42.3673295" lon="-7.5474893"><ele>659.0</ele><time>2026-04-25T09:38:06.042Z</time></trkpt><trkpt lat="42.3671995" lon="-7.5474951"><ele>659.0</ele><time>2026-04-25T09:38:07.041Z</time></trkpt><trkpt lat="42.3670808" lon="-7.5474909"><ele>662.5</ele><time>2026-04-25T09:38:08.039Z</time></trkpt><trkpt lat="42.3669469" lon="-7.5475044"><ele>666.0</ele><time>2026-04-25T09:38:09.041Z</time></trkpt><trkpt lat="42.3668128" lon="-7.5475195"><ele>669.5</ele><time>2026-04-25T09:38:10.046Z</time></trkpt><trkpt lat="42.3666842" lon="-7.54753"><ele>673.0</ele><time>2026-04-25T09:38:11.039Z</time></trkpt><trkpt lat="42.3665833" lon="-7.5475339"><ele>673.0</ele><time>2026-04-25T09:38:12.051Z</time></trkpt><trkpt lat="42.3665087" lon="-7.5475343"><ele>673.0</ele><time>2026-04-25T09:38:13.048Z</time></trkpt><trkpt lat="42.3664277" lon="-7.5474976"><ele>673.0</ele><time>2026-04-25T09:38:15.056Z</time></trkpt><trkpt lat="42.3664363" lon="-7.5473501"><ele>673.0</ele><time>2026-04-25T09:38:17.059Z</time></trkpt><trkpt lat="42.3664885" lon="-7.5472854"><ele>673.0</ele><time>2026-04-25T09:38:18.045Z</time></trkpt><trkpt lat="42.3665713" lon="-7.5472506"><ele>673.0</ele><time>2026-04-25T09:38:19.056Z</time></trkpt><trkpt lat="42.3666584" lon="-7.5472019"><ele>673.0</ele><time>2026-04-25T09:38:20.046Z</time></trkpt><trkpt lat="42.3667515" lon="-7.5471286"><ele>673.0</ele><time>2026-04-25T09:38:21.038Z</time></trkpt><trkpt lat="42.3668564" lon="-7.5470444"><ele>673.0</ele><time>2026-04-25T09:38:22.052Z</time></trkpt><trkpt lat="42.3669707" lon="-7.5469536"><ele>673.0</ele><time>2026-04-25T09:38:23.04Z</time></trkpt><trkpt lat="42.3670701" lon="-7.5468736"><ele>675.2</ele><time>2026-04-25T09:38:24.048Z</time></trkpt><trkpt lat="42.367161" lon="-7.5467886"><ele>677.4</ele><time>2026-04-25T09:38:25.048Z</time></trkpt><trkpt lat="42.3672417" lon="-7.5467105"><ele>679.6</ele><time>2026-04-25T09:38:26.054Z</time></trkpt><trkpt lat="42.3672722" lon="-7.5466209"><ele>681.8000000000001</ele><time>2026-04-25T09:38:27.053Z</time></trkpt><trkpt lat="42.3672856" lon="-7.5465019"><ele>684.0</ele><time>2026-04-25T09:38:28.042Z</time></trkpt><trkpt lat="42.3672934" lon="-7.5463613"><ele>687.75</ele><time>2026-04-25T09:38:29.042Z</time></trkpt><trkpt lat="42.3672948" lon="-7.5461981"><ele>691.5</ele><time>2026-04-25T09:38:30.047Z</time></trkpt><trkpt lat="42.3672992" lon="-7.5460224"><ele>695.25</ele><time>2026-04-25T09:38:31.046Z</time></trkpt><trkpt lat="42.3673085" lon="-7.5458462"><ele>699.0</ele><time>2026-04-25T09:38:32.051Z</time></trkpt><trkpt lat="42.3673171" lon="-7.5456971"><ele>699.0</ele><time>2026-04-25T09:38:33.049Z</time></trkpt><trkpt lat="42.3673309" lon="-7.545577"><ele>699.0</ele><time>2026-04-25T09:38:34.046Z</time></trkpt><trkpt lat="42.3673425" lon="-7.5454826"><ele>699.0</ele><time>2026-04-25T09:38:35.046Z</time></trkpt><trkpt lat="42.3673112" lon="-7.5453608"><ele>699.0</ele><time>2026-04-25T09:38:37.052Z</time></trkpt><trkpt lat="42.3671898" lon="-7.5453916"><ele>699.0</ele><time>2026-04-25T09:38:39.034Z</time></trkpt><trkpt lat="42.3671157" lon="-7.5454559"><ele>705.0</ele><time>2026-04-25T09:38:40.045Z</time></trkpt><trkpt lat="42.3670341" lon="-7.5455433"><ele>711.0</ele><time>2026-04-25T09:38:41.059Z</time></trkpt><trkpt lat="42.3669477" lon="-7.5456395"><ele>717.0</ele><time>2026-04-25T09:38:42.054Z</time></trkpt><trkpt lat="42.366856" lon="-7.5457658"><ele>723.0</ele><time>2026-04-25T09:38:43.045Z</time></trkpt><trkpt lat="42.3667773" lon="-7.5458945"><ele>723.0</ele><time>2026-04-25T09:38:44.048Z</time></trkpt><trkpt lat="42.3667067" lon="-7.5460001"><ele>723.0</ele><time>2026-04-25T09:38:45.041Z</time></trkpt><trkpt lat="42.3666465" lon="-7.5460732"><ele>723.0</ele><time>2026-04-25T09:38:46.05Z</time></trkpt><trkpt lat="42.3665863" lon="-7.5461121"><ele>723.0</ele><time>2026-04-25T09:38:47.039Z</time></trkpt><trkpt lat="42.3665088" lon="-7.5461196"><ele>723.0</ele><time>2026-04-25T09:38:48.046Z</time></trkpt><trkpt lat="42.3664035" lon="-7.5460997"><ele>723.0</ele><time>2026-04-25T09:38:49.046Z</time></trkpt><trkpt lat="42.3662835" lon="-7.546076"><ele>724.4</ele><time>2026-04-25T09:38:50.041Z</time></trkpt><trkpt lat="42.3661878" lon="-7.5460584"><ele>725.8</ele><time>2026-04-25T09:38:51.05Z</time></trkpt><trkpt lat="42.3660911" lon="-7.5460269"><ele>727.2</ele><time>2026-04-25T09:38:53.047Z</time></trkpt><trkpt lat="42.3660923" lon="-7.5459302"><ele>728.6</ele><time>2026-04-25T09:38:55.053Z</time></trkpt><trkpt lat="42.366161" lon="-7.5457651"><ele>730.0</ele><time>2026-04-25T09:38:57.045Z</time></trkpt><trkpt lat="42.3662095" lon="-7.545674"><ele>730.0</ele><time>2026-04-25T09:38:58.039Z</time></trkpt><trkpt lat="42.3662713" lon="-7.5455621"><ele>730.0</ele><time>2026-04-25T09:38:59.048Z</time></trkpt><trkpt lat="42.366341" lon="-7.5454332"><ele>730.0</ele><time>2026-04-25T09:39:00.049Z</time></trkpt><trkpt lat="42.3664144" lon="-7.5452975"><ele>730.0</ele><time>2026-04-25T09:39:01.061Z</time></trkpt><trkpt lat="42.3664935" lon="-7.5451489"><ele>733.6666666666667</ele><time>2026-04-25T09:39:02.045Z</time></trkpt><trkpt lat="42.3665783" lon="-7.5449827"><ele>737.3333333333334</ele><time>2026-04-25T09:39:03.041Z</time></trkpt><trkpt lat="42.3666621" lon="-7.5448023"><ele>741.0</ele><time>2026-04-25T09:39:04.049Z</time></trkpt><trkpt lat="42.3667393" lon="-7.5446314"><ele>746.0</ele><time>2026-04-25T09:39:05.041Z</time></trkpt><trkpt lat="42.3668119" lon="-7.5444745"><ele>751.0</ele><time>2026-04-25T09:39:06.05Z</time></trkpt><trkpt lat="42.3668761" lon="-7.5443408"><ele>756.0</ele><time>2026-04-25T09:39:07.047Z</time></trkpt><trkpt lat="42.3669373" lon="-7.5441976"><ele>761.0</ele><time>2026-04-25T09:39:08.047Z</time></trkpt><trkpt lat="42.3669802" lon="-7.5440679"><ele>761.0</ele><time>2026-04-25T09:39:09.041Z</time></trkpt><trkpt lat="42.367019" lon="-7.5439402"><ele>761.0</ele><time>2026-04-25T09:39:10.058Z</time></trkpt><trkpt lat="42.3670328" lon="-7.5437928"><ele>761.0</ele><time>2026-04-25T09:39:11.044Z</time></trkpt><trkpt lat="42.3670407" lon="-7.5436256"><ele>761.0</ele><time>2026-04-25T09:39:12.044Z</time></trkpt><trkpt lat="42.3670527" lon="-7.5434369"><ele>764.25</ele><time>2026-04-25T09:39:13.044Z</time></trkpt><trkpt lat="42.367067" lon="-7.5432377"><ele>767.5</ele><time>2026-04-25T09:39:14.042Z</time></trkpt><trkpt lat="42.3670892" lon="-7.543043"><ele>770.75</ele><time>2026-04-25T09:39:15.043Z</time></trkpt><trkpt lat="42.3671134" lon="-7.5428712"><ele>774.0</ele><time>2026-04-25T09:39:16.041Z</time></trkpt><trkpt lat="42.3671486" lon="-7.5427252"><ele>775.4000000000001</ele><time>2026-04-25T09:39:17.046Z</time></trkpt><trkpt lat="42.3671839" lon="-7.542605"><ele>776.8</ele><time>2026-04-25T09:39:18.05Z</time></trkpt><trkpt lat="42.3672128" lon="-7.5424858"><ele>778.2</ele><time>2026-04-25T09:39:19.049Z</time></trkpt><trkpt lat="42.3671944" lon="-7.5423552"><ele>779.5999999999999</ele><time>2026-04-25T09:39:20.045Z</time></trkpt><trkpt lat="42.3671763" lon="-7.5422177"><ele>781.0</ele><time>2026-04-25T09:39:21.047Z</time></trkpt><trkpt lat="42.3671219" lon="-7.5420521"><ele>781.8</ele><time>2026-04-25T09:39:22.048Z</time></trkpt><trkpt lat="42.3670849" lon="-7.5418798"><ele>782.5999999999999</ele><time>2026-04-25T09:39:23.044Z</time></trkpt><trkpt lat="42.3670614" lon="-7.5417267"><ele>783.4</ele><time>2026-04-25T09:39:24.043Z</time></trkpt><trkpt lat="42.3670507" lon="-7.5415938"><ele>784.2</ele><time>2026-04-25T09:39:25.053Z</time></trkpt><trkpt lat="42.3670259" lon="-7.5414884"><ele>785.0</ele><time>2026-04-25T09:39:26.041Z</time></trkpt><trkpt lat="42.3669573" lon="-7.5414013"><ele>785.0</ele><time>2026-04-25T09:39:28.046Z</time></trkpt><trkpt lat="42.3668626" lon="-7.5414794"><ele>785.0</ele><time>2026-04-25T09:39:30.05Z</time></trkpt><trkpt lat="42.3667678" lon="-7.5416448"><ele>785.0</ele><time>2026-04-25T09:39:32.056Z</time></trkpt><trkpt lat="42.366693" lon="-7.5417921"><ele>785.0</ele><time>2026-04-25T09:39:33.053Z</time></trkpt><trkpt lat="42.3666145" lon="-7.5419463"><ele>783.6666666666667</ele><time>2026-04-25T09:39:34.051Z</time></trkpt><trkpt lat="42.3665221" lon="-7.5421145"><ele>782.3333333333333</ele><time>2026-04-25T09:39:35.052Z</time></trkpt><trkpt lat="42.3664277" lon="-7.5423043"><ele>781.0</ele><time>2026-04-25T09:39:36.055Z</time></trkpt><trkpt lat="42.3663392" lon="-7.542501"><ele>787.3333333333333</ele><time>2026-04-25T09:39:37.04Z</time></trkpt><trkpt lat="42.3662534" lon="-7.5427167"><ele>793.6666666666667</ele><time>2026-04-25T09:39:38.05Z</time></trkpt><trkpt lat="42.3661707" lon="-7.5429291"><ele>800.0</ele><time>2026-04-25T09:39:39.042Z</time></trkpt><trkpt lat="42.3660977" lon="-7.5431016"><ele>800.0</ele><time>2026-04-25T09:39:40.041Z</time></trkpt><trkpt lat="42.3660302" lon="-7.543222"><ele>800.0</ele><time>2026-04-25T09:39:41.043Z</time></trkpt><trkpt lat="42.3659475" lon="-7.5433226"><ele>800.0</ele><time>2026-04-25T09:39:42.045Z</time></trkpt><trkpt lat="42.3658463" lon="-7.5434368"><ele>800.0</ele><time>2026-04-25T09:39:43.047Z</time></trkpt><trkpt lat="42.365736" lon="-7.5435575"><ele>800.0</ele><time>2026-04-25T09:39:44.043Z</time></trkpt><trkpt lat="42.365633" lon="-7.5436679"><ele>800.0</ele><time>2026-04-25T09:39:45.041Z</time></trkpt><trkpt lat="42.3655324" lon="-7.5437443"><ele>800.0</ele><time>2026-04-25T09:39:46.042Z</time></trkpt><trkpt lat="42.365425" lon="-7.5437989"><ele>800.0</ele><time>2026-04-25T09:39:47.046Z</time></trkpt><trkpt lat="42.3653059" lon="-7.5438372"><ele>800.25</ele><time>2026-04-25T09:39:48.043Z</time></trkpt><trkpt lat="42.3651682" lon="-7.543864"><ele>800.5</ele><time>2026-04-25T09:39:49.048Z</time></trkpt><trkpt lat="42.3650403" lon="-7.5439003"><ele>800.75</ele><time>2026-04-25T09:39:50.049Z</time></trkpt><trkpt lat="42.3649118" lon="-7.5439533"><ele>801.0</ele><time>2026-04-25T09:39:51.046Z</time></trkpt><trkpt lat="42.3647807" lon="-7.5440239"><ele>809.75</ele><time>2026-04-25T09:39:52.042Z</time></trkpt><trkpt lat="42.3646596" lon="-7.5441152"><ele>818.5</ele><time>2026-04-25T09:39:53.047Z</time></trkpt><trkpt lat="42.36456" lon="-7.5442218"><ele>827.25</ele><time>2026-04-25T09:39:54.048Z</time></trkpt><trkpt lat="42.3644632" lon="-7.5443647"><ele>836.0</ele><time>2026-04-25T09:39:55.041Z</time></trkpt><trkpt lat="42.364365" lon="-7.544536"><ele>830.75</ele><time>2026-04-25T09:39:56.048Z</time></trkpt><trkpt lat="42.3642799" lon="-7.5446966"><ele>825.5</ele><time>2026-04-25T09:39:57.046Z</time></trkpt><trkpt lat="42.3642046" lon="-7.5448403"><ele>820.25</ele><time>2026-04-25T09:39:58.045Z</time></trkpt><trkpt lat="42.36413" lon="-7.5449604"><ele>815.0</ele><time>2026-04-25T09:39:59.058Z</time></trkpt><trkpt lat="42.3640474" lon="-7.5450639"><ele>815.0</ele><time>2026-04-25T09:40:00.039Z</time></trkpt><trkpt lat="42.3639488" lon="-7.5451556"><ele>815.0</ele><time>2026-04-25T09:40:01.055Z</time></trkpt><trkpt lat="42.3638566" lon="-7.5452476"><ele>815.0</ele><time>2026-04-25T09:40:02.045Z</time></trkpt><trkpt lat="42.3637544" lon="-7.545342"><ele>815.0</ele><time>2026-04-25T09:40:03.041Z</time></trkpt><trkpt lat="42.3636387" lon="-7.54546"><ele>818.0</ele><time>2026-04-25T09:40:04.05Z</time></trkpt><trkpt lat="42.3635227" lon="-7.5456117"><ele>821.0</ele><time>2026-04-25T09:40:05.038Z</time></trkpt><trkpt lat="42.3634111" lon="-7.5457657"><ele>824.0</ele><time>2026-04-25T09:40:06.055Z</time></trkpt><trkpt lat="42.3633056" lon="-7.5459093"><ele>824.0</ele><time>2026-04-25T09:40:07.049Z</time></trkpt><trkpt lat="42.3632011" lon="-7.5460523"><ele>824.0</ele><time>2026-04-25T09:40:08.045Z</time></trkpt><trkpt lat="42.3631266" lon="-7.5461963"><ele>824.0</ele><time>2026-04-25T09:40:09.048Z</time></trkpt><trkpt lat="42.3630742" lon="-7.5463337"><ele>824.0</ele><time>2026-04-25T09:40:10.043Z</time></trkpt><trkpt lat="42.3630309" lon="-7.5464456"><ele>824.0000000000001</ele><time>2026-04-25T09:40:11.042Z</time></trkpt><trkpt lat="42.3629943" lon="-7.5465228"><ele>824.0</ele><time>2026-04-25T09:40:12.046Z</time></trkpt><trkpt lat="42.3629618" lon="-7.5464263"><ele>824.0</ele><time>2026-04-25T09:41:03.043Z</time></trkpt><trkpt lat="42.362995" lon="-7.5463158"><ele>824.0</ele><time>2026-04-25T09:41:04.047Z</time></trkpt><trkpt lat="42.3630311" lon="-7.5462053"><ele>824.0000000000001</ele><time>2026-04-25T09:41:05.042Z</time></trkpt><trkpt lat="42.3630759" lon="-7.5460986"><ele>824.0</ele><time>2026-04-25T09:41:06.049Z</time></trkpt><trkpt lat="42.3631341" lon="-7.5459884"><ele>824.0000000000001</ele><time>2026-04-25T09:41:07.044Z</time></trkpt><trkpt lat="42.3631969" lon="-7.5458754"><ele>824.0</ele><time>2026-04-25T09:41:08.054Z</time></trkpt><trkpt lat="42.3632571" lon="-7.5457716"><ele>824.0</ele><time>2026-04-25T09:41:09.041Z</time></trkpt><trkpt lat="42.3633047" lon="-7.5456801"><ele>824.0</ele><time>2026-04-25T09:41:10.041Z</time></trkpt><trkpt lat="42.3633497" lon="-7.5455968"><ele>824.0000000000001</ele><time>2026-04-25T09:41:11.041Z</time></trkpt><trkpt lat="42.3633913" lon="-7.5455129"><ele>824.0</ele><time>2026-04-25T09:41:12.05Z</time></trkpt><trkpt lat="42.3634431" lon="-7.54543"><ele>828.2</ele><time>2026-04-25T09:41:13.05Z</time></trkpt><trkpt lat="42.3634982" lon="-7.5453473"><ele>832.4000000000001</ele><time>2026-04-25T09:41:14.055Z</time></trkpt><trkpt lat="42.3635562" lon="-7.5452475"><ele>836.6</ele><time>2026-04-25T09:41:15.048Z</time></trkpt><trkpt lat="42.3636121" lon="-7.5451447"><ele>840.8</ele><time>2026-04-25T09:41:16.057Z</time></trkpt><trkpt lat="42.3636878" lon="-7.5450282"><ele>845.0</ele><time>2026-04-25T09:41:17.048Z</time></trkpt><trkpt lat="42.3637636" lon="-7.5449141"><ele>845.0</ele><time>2026-04-25T09:41:18.051Z</time></trkpt><trkpt lat="42.3638378" lon="-7.5447895"><ele>845.0</ele><time>2026-04-25T09:41:19.047Z</time></trkpt><trkpt lat="42.3639167" lon="-7.5446626"><ele>845.0</ele><time>2026-04-25T09:41:20.054Z</time></trkpt><trkpt lat="42.3639946" lon="-7.5445349"><ele>845.0</ele><time>2026-04-25T09:41:21.052Z</time></trkpt><trkpt lat="42.3640703" lon="-7.5443972"><ele>842.75</ele><time>2026-04-25T09:41:22.048Z</time></trkpt><trkpt lat="42.3641367" lon="-7.5442438"><ele>840.5</ele><time>2026-04-25T09:41:23.051Z</time></trkpt><trkpt lat="42.3642049" lon="-7.5440902"><ele>838.25</ele><time>2026-04-25T09:41:24.048Z</time></trkpt><trkpt lat="42.3642773" lon="-7.5439365"><ele>836.0</ele><time>2026-04-25T09:41:25.045Z</time></trkpt><trkpt lat="42.3643524" lon="-7.5437815"><ele>833.25</ele><time>2026-04-25T09:41:26.052Z</time></trkpt><trkpt lat="42.3644641" lon="-7.5436375"><ele>830.5</ele><time>2026-04-25T09:41:27.054Z</time></trkpt><trkpt lat="42.3645587" lon="-7.543515"><ele>827.75</ele><time>2026-04-25T09:41:28.047Z</time></trkpt><trkpt lat="42.3646445" lon="-7.5433769"><ele>825.0</ele><time>2026-04-25T09:41:29.053Z</time></trkpt><trkpt lat="42.3647108" lon="-7.5432458"><ele>825.0</ele><time>2026-04-25T09:41:30.055Z</time></trkpt><trkpt lat="42.3647562" lon="-7.5431151"><ele>825.0</ele><time>2026-04-25T09:41:31.049Z</time></trkpt><trkpt lat="42.3647942" lon="-7.5429785"><ele>825.0</ele><time>2026-04-25T09:41:32.053Z</time></trkpt><trkpt lat="42.3648145" lon="-7.5428209"><ele>825.0</ele><time>2026-04-25T09:41:33.048Z</time></trkpt><trkpt lat="42.3648166" lon="-7.5426468"><ele>827.6666666666667</ele><time>2026-04-25T09:41:34.047Z</time></trkpt><trkpt lat="42.3648082" lon="-7.542444"><ele>830.3333333333334</ele><time>2026-04-25T09:41:35.058Z</time></trkpt><trkpt lat="42.3647874" lon="-7.5422114"><ele>833.0</ele><time>2026-04-25T09:41:36.044Z</time></trkpt><trkpt lat="42.3647639" lon="-7.5419716"><ele>846.3333333333334</ele><time>2026-04-25T09:41:37.049Z</time></trkpt><trkpt lat="42.3646802" lon="-7.5417341"><ele>859.6666666666667</ele><time>2026-04-25T09:41:38.05Z</time></trkpt><trkpt lat="42.3645888" lon="-7.5415201"><ele>873.0</ele><time>2026-04-25T09:41:39.053Z</time></trkpt><trkpt lat="42.3645145" lon="-7.5413203"><ele>872.3333333333333</ele><time>2026-04-25T09:41:40.043Z</time></trkpt><trkpt lat="42.364474" lon="-7.5411314"><ele>871.6666666666666</ele><time>2026-04-25T09:41:41.043Z</time></trkpt><trkpt lat="42.3644469" lon="-7.5409232"><ele>871.0</ele><time>2026-04-25T09:41:42.042Z</time></trkpt><trkpt lat="42.3644547" lon="-7.5406935"><ele>871.0</ele><time>2026-04-25T09:41:43.044Z</time></trkpt><trkpt lat="42.364452" lon="-7.5404349"><ele>871.0</ele><time>2026-04-25T09:41:44.046Z</time></trkpt><trkpt lat="42.3644385" lon="-7.5401436"><ele>871.0</ele><time>2026-04-25T09:41:45.057Z</time></trkpt><trkpt lat="42.364403" lon="-7.5398319"><ele>871.6666666666666</ele><time>2026-04-25T09:41:46.041Z</time></trkpt><trkpt lat="42.3643731" lon="-7.5395507"><ele>872.3333333333333</ele><time>2026-04-25T09:41:47.042Z</time></trkpt><trkpt lat="42.3643453" lon="-7.5393014"><ele>873.0</ele><time>2026-04-25T09:41:48.041Z</time></trkpt><trkpt lat="42.3643179" lon="-7.539077"><ele>873.25</ele><time>2026-04-25T09:41:49.043Z</time></trkpt><trkpt lat="42.3642815" lon="-7.5388753"><ele>873.5</ele><time>2026-04-25T09:41:50.041Z</time></trkpt><trkpt lat="42.3642479" lon="-7.5386832"><ele>873.75</ele><time>2026-04-25T09:41:51.037Z</time></trkpt><trkpt lat="42.3641938" lon="-7.5384952"><ele>874.0</ele><time>2026-04-25T09:41:52.045Z</time></trkpt><trkpt lat="42.3641152" lon="-7.5383001"><ele>872.3333333333333</ele><time>2026-04-25T09:41:53.038Z</time></trkpt><trkpt lat="42.3640264" lon="-7.5381117"><ele>870.6666666666667</ele><time>2026-04-25T09:41:54.045Z</time></trkpt><trkpt lat="42.3639198" lon="-7.5379581"><ele>869.0</ele><time>2026-04-25T09:41:55.044Z</time></trkpt><trkpt lat="42.3637988" lon="-7.537819"><ele>872.0</ele><time>2026-04-25T09:41:56.054Z</time></trkpt><trkpt lat="42.3636687" lon="-7.5376998"><ele>875.0</ele><time>2026-04-25T09:41:57.047Z</time></trkpt><trkpt lat="42.3635558" lon="-7.5375888"><ele>878.0</ele><time>2026-04-25T09:41:58.055Z</time></trkpt><trkpt lat="42.3634577" lon="-7.5374925"><ele>881.0</ele><time>2026-04-25T09:41:59.046Z</time></trkpt><trkpt lat="42.3633729" lon="-7.5374125"><ele>881.0000000000001</ele><time>2026-04-25T09:42:00.05Z</time></trkpt><trkpt lat="42.3632993" lon="-7.5373461"><ele>881.0</ele><time>2026-04-25T09:42:01.041Z</time></trkpt><trkpt lat="42.3632358" lon="-7.5372893"><ele>881.0</ele><time>2026-04-25T09:42:02.047Z</time></trkpt><trkpt lat="42.3631815" lon="-7.537239"><ele>881.0</ele><time>2026-04-25T09:42:03.051Z</time></trkpt><trkpt lat="42.3630906" lon="-7.5371748"><ele>881.0000000000001</ele><time>2026-04-25T09:42:05.052Z</time></trkpt><trkpt lat="42.3630405" lon="-7.5371014"><ele>881.0</ele><time>2026-04-25T09:42:07.054Z</time></trkpt><trkpt lat="42.3629803" lon="-7.5369849"><ele>881.0</ele><time>2026-04-25T09:42:09.05Z</time></trkpt><trkpt lat="42.36292" lon="-7.5368485"><ele>880.9999999999999</ele><time>2026-04-25T09:42:11.048Z</time></trkpt><trkpt lat="42.3628827" lon="-7.536776"><ele>880.9999999999999</ele><time>2026-04-25T09:42:12.052Z</time></trkpt><trkpt lat="42.3628058" lon="-7.5366528"><ele>881.0</ele><time>2026-04-25T09:42:14.047Z</time></trkpt><trkpt lat="42.362757" lon="-7.5365419"><ele>881.0</ele><time>2026-04-25T09:42:16.043Z</time></trkpt><trkpt lat="42.362719" lon="-7.5364217"><ele>881.0</ele><time>2026-04-25T09:42:18.047Z</time></trkpt><trkpt lat="42.3626913" lon="-7.5363311"><ele>880.9999999999999</ele><time>2026-04-25T09:42:20.047Z</time></trkpt><trkpt lat="42.3626703" lon="-7.5362416"><ele>880.9999999999999</ele><time>2026-04-25T09:42:22.063Z</time></trkpt><trkpt lat="42.3626718" lon="-7.5360725"><ele>881.0</ele><time>2026-04-25T09:42:27.046Z</time></trkpt><trkpt lat="42.362674" lon="-7.5359174"><ele>881.0</ele><time>2026-04-25T09:42:34.046Z</time></trkpt><trkpt lat="42.3626789" lon="-7.535773"><ele>879.75</ele><time>2026-04-25T09:42:40.061Z</time></trkpt><trkpt lat="42.3626821" lon="-7.535555"><ele>878.5</ele><time>2026-04-25T09:42:49.062Z</time></trkpt><trkpt lat="42.3627617" lon="-7.5353702"><ele>877.25</ele><time>2026-04-25T09:43:00.059Z</time></trkpt><trkpt lat="42.3628434" lon="-7.5352614"><ele>876.0</ele><time>2026-04-25T09:43:02.051Z</time></trkpt><trkpt lat="42.3629293" lon="-7.5351643"><ele>875.3333333333334</ele><time>2026-04-25T09:43:04.047Z</time></trkpt><trkpt lat="42.3629761" lon="-7.5350932"><ele>874.6666666666667</ele><time>2026-04-25T09:43:05.073Z</time></trkpt><trkpt lat="42.3630258" lon="-7.5350077"><ele>874.0</ele><time>2026-04-25T09:43:06.047Z</time></trkpt><trkpt lat="42.3630678" lon="-7.5349179"><ele>873.3333333333334</ele><time>2026-04-25T09:43:07.05Z</time></trkpt><trkpt lat="42.3631135" lon="-7.5348074"><ele>872.6666666666667</ele><time>2026-04-25T09:43:08.047Z</time></trkpt><trkpt lat="42.3631482" lon="-7.5347096"><ele>872.0</ele><time>2026-04-25T09:43:09.049Z</time></trkpt><trkpt lat="42.3631691" lon="-7.5346278"><ele>871.8</ele><time>2026-04-25T09:43:10.044Z</time></trkpt><trkpt lat="42.3632269" lon="-7.5345049"><ele>871.6</ele><time>2026-04-25T09:43:12.049Z</time></trkpt><trkpt lat="42.3631515" lon="-7.5346351"><ele>871.3999999999999</ele><time>2026-04-25T09:44:43.051Z</time></trkpt><trkpt lat="42.3631296" lon="-7.5347451"><ele>871.1999999999999</ele><time>2026-04-25T09:44:46.054Z</time></trkpt><trkpt lat="42.3630964" lon="-7.5348372"><ele>871.0</ele><time>2026-04-25T09:44:50.048Z</time></trkpt><trkpt lat="42.3630397" lon="-7.5349701"><ele>871.1666666666666</ele><time>2026-04-25T09:44:52.053Z</time></trkpt><trkpt lat="42.3629846" lon="-7.5350687"><ele>871.3333333333333</ele><time>2026-04-25T09:44:54.063Z</time></trkpt><trkpt lat="42.3629303" lon="-7.5351522"><ele>871.5</ele><time>2026-04-25T09:44:56.052Z</time></trkpt><trkpt lat="42.362871" lon="-7.5352305"><ele>871.6666666666667</ele><time>2026-04-25T09:44:58.049Z</time></trkpt><trkpt lat="42.362797" lon="-7.5353091"><ele>871.8333333333334</ele><time>2026-04-25T09:45:00.044Z</time></trkpt><trkpt lat="42.3627489" lon="-7.53538"><ele>872.0</ele><time>2026-04-25T09:45:02.051Z</time></trkpt><trkpt lat="42.3626761" lon="-7.5354379"><ele>872.0000000000001</ele><time>2026-04-25T09:45:05.052Z</time></trkpt><trkpt lat="42.3626163" lon="-7.5354062"><ele>872.0</ele><time>2026-04-25T09:45:07.051Z</time></trkpt><trkpt lat="42.3625883" lon="-7.5353175"><ele>872.0</ele><time>2026-04-25T09:45:09.047Z</time></trkpt><trkpt lat="42.3625871" lon="-7.5351368"><ele>872.0</ele><time>2026-04-25T09:45:11.06Z</time></trkpt><trkpt lat="42.3625857" lon="-7.5350444"><ele>872.0000000000001</ele><time>2026-04-25T09:45:12.061Z</time></trkpt><trkpt lat="42.3625818" lon="-7.5349517"><ele>872.0</ele><time>2026-04-25T09:45:13.05Z</time></trkpt><trkpt lat="42.3625755" lon="-7.5348548"><ele>872.0</ele><time>2026-04-25T09:45:14.057Z</time></trkpt><trkpt lat="42.3625661" lon="-7.5347483"><ele>872.0</ele><time>2026-04-25T09:45:15.054Z</time></trkpt><trkpt lat="42.3625584" lon="-7.534632"><ele>872.0</ele><time>2026-04-25T09:45:16.055Z</time></trkpt><trkpt lat="42.3625509" lon="-7.5345039"><ele>872.0</ele><time>2026-04-25T09:45:17.054Z</time></trkpt><trkpt lat="42.3625391" lon="-7.5343539"><ele>872.0</ele><time>2026-04-25T09:45:18.049Z</time></trkpt><trkpt lat="42.3625225" lon="-7.5341836"><ele>872.25</ele><time>2026-04-25T09:45:19.052Z</time></trkpt><trkpt lat="42.3625029" lon="-7.5339938"><ele>872.5</ele><time>2026-04-25T09:45:20.056Z</time></trkpt><trkpt lat="42.3624847" lon="-7.5338171"><ele>872.75</ele><time>2026-04-25T09:45:21.049Z</time></trkpt><trkpt lat="42.3624688" lon="-7.5336583"><ele>873.0</ele><time>2026-04-25T09:45:22.051Z</time></trkpt><trkpt lat="42.3624533" lon="-7.5335136"><ele>873.25</ele><time>2026-04-25T09:45:23.05Z</time></trkpt><trkpt lat="42.3624377" lon="-7.5333686"><ele>873.5</ele><time>2026-04-25T09:45:24.05Z</time></trkpt><trkpt lat="42.3624202" lon="-7.5332125"><ele>873.75</ele><time>2026-04-25T09:45:25.044Z</time></trkpt><trkpt lat="42.3624042" lon="-7.533049"><ele>874.0</ele><time>2026-04-25T09:45:26.044Z</time></trkpt><trkpt lat="42.3623953" lon="-7.532893"><ele>873.5</ele><time>2026-04-25T09:45:27.046Z</time></trkpt><trkpt lat="42.3623909" lon="-7.5327377"><ele>873.0</ele><time>2026-04-25T09:45:28.053Z</time></trkpt><trkpt lat="42.3623865" lon="-7.5325719"><ele>872.5</ele><time>2026-04-25T09:45:29.041Z</time></trkpt><trkpt lat="42.3623798" lon="-7.5323941"><ele>872.0</ele><time>2026-04-25T09:45:30.048Z</time></trkpt><trkpt lat="42.3623728" lon="-7.5322193"><ele>870.75</ele><time>2026-04-25T09:45:31.048Z</time></trkpt><trkpt lat="42.3623653" lon="-7.5320528"><ele>869.5</ele><time>2026-04-25T09:45:32.04Z</time></trkpt><trkpt lat="42.3623569" lon="-7.5318851"><ele>868.25</ele><time>2026-04-25T09:45:33.057Z</time></trkpt><trkpt lat="42.3623397" lon="-7.5317139"><ele>867.0</ele><time>2026-04-25T09:45:34.047Z</time></trkpt><trkpt lat="42.3623145" lon="-7.5315399"><ele>867.0</ele><time>2026-04-25T09:45:35.047Z</time></trkpt><trkpt lat="42.3622757" lon="-7.5313686"><ele>867.0</ele><time>2026-04-25T09:45:36.051Z</time></trkpt><trkpt lat="42.3622264" lon="-7.5311999"><ele>867.0</ele><time>2026-04-25T09:45:37.051Z</time></trkpt><trkpt lat="42.3621798" lon="-7.531027"><ele>867.0</ele><time>2026-04-25T09:45:38.062Z</time></trkpt><trkpt lat="42.3621458" lon="-7.5308495"><ele>865.5</ele><time>2026-04-25T09:45:39.048Z</time></trkpt><trkpt lat="42.3621307" lon="-7.5306786"><ele>864.0</ele><time>2026-04-25T09:45:40.049Z</time></trkpt><trkpt lat="42.3621261" lon="-7.5305207"><ele>862.5</ele><time>2026-04-25T09:45:41.048Z</time></trkpt><trkpt lat="42.3621306" lon="-7.5303607"><ele>861.0</ele><time>2026-04-25T09:45:42.045Z</time></trkpt><trkpt lat="42.3621291" lon="-7.5302153"><ele>860.8333333333334</ele><time>2026-04-25T09:45:43.047Z</time></trkpt><trkpt lat="42.3621199" lon="-7.5300898"><ele>860.6666666666667</ele><time>2026-04-25T09:45:44.043Z</time></trkpt><trkpt lat="42.3620963" lon="-7.5299829"><ele>860.5</ele><time>2026-04-25T09:45:45.047Z</time></trkpt><trkpt lat="42.3620587" lon="-7.5298841"><ele>860.3333333333334</ele><time>2026-04-25T09:45:46.053Z</time></trkpt><trkpt lat="42.3620175" lon="-7.5297797"><ele>860.1666666666667</ele><time>2026-04-25T09:45:47.059Z</time></trkpt><trkpt lat="42.3619808" lon="-7.5296684"><ele>860.0</ele><time>2026-04-25T09:45:48.046Z</time></trkpt><trkpt lat="42.3619585" lon="-7.5295529"><ele>859.6</ele><time>2026-04-25T09:45:49.051Z</time></trkpt><trkpt lat="42.3619551" lon="-7.5294322"><ele>859.2</ele><time>2026-04-25T09:45:50.046Z</time></trkpt><trkpt lat="42.3619635" lon="-7.5293002"><ele>858.8</ele><time>2026-04-25T09:45:51.049Z</time></trkpt><trkpt lat="42.3619793" lon="-7.5291457"><ele>858.4</ele><time>2026-04-25T09:45:52.049Z</time></trkpt><trkpt lat="42.3619975" lon="-7.5289715"><ele>858.0</ele><time>2026-04-25T09:45:53.056Z</time></trkpt><trkpt lat="42.362019" lon="-7.5287787"><ele>857.0</ele><time>2026-04-25T09:45:54.059Z</time></trkpt><trkpt lat="42.3620474" lon="-7.52857"><ele>856.0</ele><time>2026-04-25T09:45:55.058Z</time></trkpt><trkpt lat="42.3620879" lon="-7.5283507"><ele>855.0</ele><time>2026-04-25T09:45:56.055Z</time></trkpt><trkpt lat="42.3621278" lon="-7.5281368"><ele>855.0</ele><time>2026-04-25T09:45:57.049Z</time></trkpt><trkpt lat="42.3621867" lon="-7.5279322"><ele>855.0</ele><time>2026-04-25T09:45:58.043Z</time></trkpt><trkpt lat="42.3622548" lon="-7.5277305"><ele>855.0</ele><time>2026-04-25T09:45:59.05Z</time></trkpt><trkpt lat="42.362332" lon="-7.5275361"><ele>854.6666666666667</ele><time>2026-04-25T09:46:00.054Z</time></trkpt><trkpt lat="42.3624156" lon="-7.5273269"><ele>854.3333333333334</ele><time>2026-04-25T09:46:01.045Z</time></trkpt><trkpt lat="42.3624973" lon="-7.5271311"><ele>854.0</ele><time>2026-04-25T09:46:02.041Z</time></trkpt><trkpt lat="42.3625732" lon="-7.5269412"><ele>851.75</ele><time>2026-04-25T09:46:03.049Z</time></trkpt><trkpt lat="42.3626483" lon="-7.5267654"><ele>849.5</ele><time>2026-04-25T09:46:04.044Z</time></trkpt><trkpt lat="42.3627204" lon="-7.5266038"><ele>847.25</ele><time>2026-04-25T09:46:05.06Z</time></trkpt><trkpt lat="42.3628001" lon="-7.5264487"><ele>845.0</ele><time>2026-04-25T09:46:06.046Z</time></trkpt><trkpt lat="42.3628899" lon="-7.526299"><ele>843.5</ele><time>2026-04-25T09:46:07.051Z</time></trkpt><trkpt lat="42.3629908" lon="-7.5261543"><ele>842.0</ele><time>2026-04-25T09:46:08.05Z</time></trkpt><trkpt lat="42.3630892" lon="-7.5260187"><ele>840.5</ele><time>2026-04-25T09:46:09.046Z</time></trkpt><trkpt lat="42.3631819" lon="-7.5258906"><ele>839.0</ele><time>2026-04-25T09:46:10.051Z</time></trkpt><trkpt lat="42.3632656" lon="-7.525765"><ele>839.0</ele><time>2026-04-25T09:46:11.051Z</time></trkpt><trkpt lat="42.363339" lon="-7.5256424"><ele>839.0</ele><time>2026-04-25T09:46:12.048Z</time></trkpt><trkpt lat="42.3634052" lon="-7.5255217"><ele>839.0</ele><time>2026-04-25T09:46:13.042Z</time></trkpt><trkpt lat="42.363455" lon="-7.5253935"><ele>839.0</ele><time>2026-04-25T09:46:14.047Z</time></trkpt><trkpt lat="42.3634902" lon="-7.5252484"><ele>839.0</ele><time>2026-04-25T09:46:15.041Z</time></trkpt><trkpt lat="42.3635055" lon="-7.5251016"><ele>838.2</ele><time>2026-04-25T09:46:16.043Z</time></trkpt><trkpt lat="42.3635082" lon="-7.5249544"><ele>837.4000000000001</ele><time>2026-04-25T09:46:17.054Z</time></trkpt><trkpt lat="42.3635156" lon="-7.5248072"><ele>836.6</ele><time>2026-04-25T09:46:18.043Z</time></trkpt><trkpt lat="42.3635394" lon="-7.5246695"><ele>835.8</ele><time>2026-04-25T09:46:19.052Z</time></trkpt><trkpt lat="42.363585" lon="-7.5245371"><ele>835.0</ele><time>2026-04-25T09:46:20.05Z</time></trkpt><trkpt lat="42.3636552" lon="-7.5244077"><ele>834.25</ele><time>2026-04-25T09:46:21.046Z</time></trkpt><trkpt lat="42.3637482" lon="-7.524282"><ele>833.5</ele><time>2026-04-25T09:46:22.051Z</time></trkpt><trkpt lat="42.3638537" lon="-7.5241532"><ele>832.75</ele><time>2026-04-25T09:46:23.046Z</time></trkpt><trkpt lat="42.3639567" lon="-7.5240251"><ele>832.0</ele><time>2026-04-25T09:46:24.066Z</time></trkpt><trkpt lat="42.3640525" lon="-7.5239016"><ele>831.6</ele><time>2026-04-25T09:46:25.049Z</time></trkpt><trkpt lat="42.3641418" lon="-7.5237842"><ele>831.2</ele><time>2026-04-25T09:46:26.046Z</time></trkpt><trkpt lat="42.3642257" lon="-7.5236744"><ele>830.8</ele><time>2026-04-25T09:46:27.054Z</time></trkpt><trkpt lat="42.3643027" lon="-7.5235771"><ele>830.4</ele><time>2026-04-25T09:46:28.043Z</time></trkpt><trkpt lat="42.3643684" lon="-7.5234969"><ele>830.0</ele><time>2026-04-25T09:46:29.05Z</time></trkpt><trkpt lat="42.3644285" lon="-7.523429"><ele>829.4285714285714</ele><time>2026-04-25T09:46:30.047Z</time></trkpt><trkpt lat="42.3644838" lon="-7.5233678"><ele>828.8571428571429</ele><time>2026-04-25T09:46:31.042Z</time></trkpt><trkpt lat="42.3645411" lon="-7.5233161"><ele>828.2857142857142</ele><time>2026-04-25T09:46:32.041Z</time></trkpt><trkpt lat="42.3645957" lon="-7.5232537"><ele>827.7142857142858</ele><time>2026-04-25T09:46:33.048Z</time></trkpt><trkpt lat="42.3646416" lon="-7.523187"><ele>827.1428571428571</ele><time>2026-04-25T09:46:34.044Z</time></trkpt><trkpt lat="42.3646788" lon="-7.5231119"><ele>826.5714285714286</ele><time>2026-04-25T09:46:35.05Z</time></trkpt><trkpt lat="42.3647034" lon="-7.5230317"><ele>826.0</ele><time>2026-04-25T09:46:36.052Z</time></trkpt><trkpt lat="42.3647215" lon="-7.5229468"><ele>825.5999999999999</ele><time>2026-04-25T09:46:37.057Z</time></trkpt><trkpt lat="42.3647371" lon="-7.5227763"><ele>825.2</ele><time>2026-04-25T09:46:39.052Z</time></trkpt><trkpt lat="42.3647457" lon="-7.5226913"><ele>824.8</ele><time>2026-04-25T09:46:40.059Z</time></trkpt><trkpt lat="42.3647975" lon="-7.5225567"><ele>824.4000000000001</ele><time>2026-04-25T09:46:42.049Z</time></trkpt><trkpt lat="42.3648969" lon="-7.5224569"><ele>824.0</ele><time>2026-04-25T09:46:44.044Z</time></trkpt><trkpt lat="42.3650111" lon="-7.5223871"><ele>824.0000000000001</ele><time>2026-04-25T09:46:46.051Z</time></trkpt><trkpt lat="42.3650784" lon="-7.5223669"><ele>824.0</ele><time>2026-04-25T09:46:47.049Z</time></trkpt><trkpt lat="42.3651526" lon="-7.5223595"><ele>824.0</ele><time>2026-04-25T09:46:48.061Z</time></trkpt><trkpt lat="42.3652293" lon="-7.5223601"><ele>824.0</ele><time>2026-04-25T09:46:49.058Z</time></trkpt><trkpt lat="42.3653182" lon="-7.5224037"><ele>824.0000000000001</ele><time>2026-04-25T09:46:50.055Z</time></trkpt><trkpt lat="42.3654022" lon="-7.522423"><ele>824.0</ele><time>2026-04-25T09:46:51.056Z</time></trkpt><trkpt lat="42.3654841" lon="-7.5224379"><ele>824.0000000000001</ele><time>2026-04-25T09:46:52.05Z</time></trkpt><trkpt lat="42.3655769" lon="-7.5224633"><ele>824.0</ele><time>2026-04-25T09:46:53.06Z</time></trkpt><trkpt lat="42.3656657" lon="-7.5224773"><ele>824.0</ele><time>2026-04-25T09:46:54.053Z</time></trkpt><trkpt lat="42.3657472" lon="-7.5224848"><ele>824.0</ele><time>2026-04-25T09:46:55.042Z</time></trkpt><trkpt lat="42.365827" lon="-7.5224764"><ele>824.0000000000001</ele><time>2026-04-25T09:46:56.044Z</time></trkpt><trkpt lat="42.3659023" lon="-7.5224463"><ele>824.0</ele><time>2026-04-25T09:46:57.055Z</time></trkpt><trkpt lat="42.3659742" lon="-7.5224036"><ele>824.0000000000001</ele><time>2026-04-25T09:46:58.051Z</time></trkpt><trkpt lat="42.3660467" lon="-7.5223546"><ele>824.0</ele><time>2026-04-25T09:46:59.059Z</time></trkpt><trkpt lat="42.3661184" lon="-7.5223026"><ele>824.0</ele><time>2026-04-25T09:47:00.05Z</time></trkpt><trkpt lat="42.3661904" lon="-7.5222435"><ele>824.0</ele><time>2026-04-25T09:47:01.052Z</time></trkpt><trkpt lat="42.3662602" lon="-7.5221813"><ele>824.0000000000001</ele><time>2026-04-25T09:47:02.057Z</time></trkpt><trkpt lat="42.3663328" lon="-7.5221168"><ele>824.0</ele><time>2026-04-25T09:47:03.05Z</time></trkpt><trkpt lat="42.3663975" lon="-7.5220492"><ele>823.5000000000001</ele><time>2026-04-25T09:47:04.058Z</time></trkpt><trkpt lat="42.3664626" lon="-7.5219845"><ele>823.0</ele><time>2026-04-25T09:47:05.051Z</time></trkpt><trkpt lat="42.3665246" lon="-7.5219141"><ele>822.5</ele><time>2026-04-25T09:47:06.063Z</time></trkpt><trkpt lat="42.366589" lon="-7.5218505"><ele>822.0</ele><time>2026-04-25T09:47:07.055Z</time></trkpt><trkpt lat="42.3666538" lon="-7.5217872"><ele>821.5000000000001</ele><time>2026-04-25T09:47:08.052Z</time></trkpt><trkpt lat="42.3667152" lon="-7.5217157"><ele>821.0</ele><time>2026-04-25T09:47:09.053Z</time></trkpt><trkpt lat="42.3667704" lon="-7.521633"><ele>821.0</ele><time>2026-04-25T09:47:10.053Z</time></trkpt><trkpt lat="42.3668232" lon="-7.5215472"><ele>821.0</ele><time>2026-04-25T09:47:11.042Z</time></trkpt><trkpt lat="42.3668809" lon="-7.5214589"><ele>821.0</ele><time>2026-04-25T09:47:12.055Z</time></trkpt><trkpt lat="42.3669483" lon="-7.5213705"><ele>821.0</ele><time>2026-04-25T09:47:13.046Z</time></trkpt><trkpt lat="42.3670287" lon="-7.5212921"><ele>821.0</ele><time>2026-04-25T09:47:14.064Z</time></trkpt><trkpt lat="42.3671239" lon="-7.5212174"><ele>820.0</ele><time>2026-04-25T09:47:15.053Z</time></trkpt><trkpt lat="42.3672331" lon="-7.5211493"><ele>819.0</ele><time>2026-04-25T09:47:16.045Z</time></trkpt><trkpt lat="42.3673554" lon="-7.5210805"><ele>818.0</ele><time>2026-04-25T09:47:17.047Z</time></trkpt><trkpt lat="42.3674863" lon="-7.5210085"><ele>817.0</ele><time>2026-04-25T09:47:18.055Z</time></trkpt><trkpt lat="42.367624" lon="-7.5209275"><ele>817.0</ele><time>2026-04-25T09:47:19.058Z</time></trkpt><trkpt lat="42.3677582" lon="-7.5208412"><ele>817.0</ele><time>2026-04-25T09:47:20.052Z</time></trkpt><trkpt lat="42.3678793" lon="-7.5207533"><ele>817.0</ele><time>2026-04-25T09:47:21.053Z</time></trkpt><trkpt lat="42.3679922" lon="-7.5206676"><ele>817.0</ele><time>2026-04-25T09:47:22.048Z</time></trkpt><trkpt lat="42.3681014" lon="-7.520586"><ele>816.4000000000001</ele><time>2026-04-25T09:47:23.049Z</time></trkpt><trkpt lat="42.3682031" lon="-7.5205115"><ele>815.8000000000001</ele><time>2026-04-25T09:47:24.058Z</time></trkpt><trkpt lat="42.3682979" lon="-7.5204421"><ele>815.2</ele><time>2026-04-25T09:47:25.046Z</time></trkpt><trkpt lat="42.3683912" lon="-7.5203835"><ele>814.6</ele><time>2026-04-25T09:47:26.05Z</time></trkpt><trkpt lat="42.3684944" lon="-7.5203519"><ele>814.0</ele><time>2026-04-25T09:47:27.054Z</time></trkpt><trkpt lat="42.3686026" lon="-7.5203393"><ele>813.8333333333333</ele><time>2026-04-25T09:47:28.047Z</time></trkpt><trkpt lat="42.3687035" lon="-7.5203145"><ele>813.6666666666666</ele><time>2026-04-25T09:47:29.045Z</time></trkpt><trkpt lat="42.3687838" lon="-7.5202629"><ele>813.5</ele><time>2026-04-25T09:47:30.057Z</time></trkpt><trkpt lat="42.3688383" lon="-7.5201833"><ele>813.3333333333333</ele><time>2026-04-25T09:47:31.051Z</time></trkpt><trkpt lat="42.3688673" lon="-7.5200833"><ele>813.1666666666666</ele><time>2026-04-25T09:47:32.049Z</time></trkpt><trkpt lat="42.3688803" lon="-7.5199701"><ele>813.0</ele><time>2026-04-25T09:47:33.061Z</time></trkpt><trkpt lat="42.3688879" lon="-7.5198451"><ele>811.0</ele><time>2026-04-25T09:47:34.051Z</time></trkpt><trkpt lat="42.3688892" lon="-7.5197078"><ele>809.0</ele><time>2026-04-25T09:47:35.045Z</time></trkpt><trkpt lat="42.3688966" lon="-7.5195589"><ele>807.0</ele><time>2026-04-25T09:47:36.047Z</time></trkpt><trkpt lat="42.3689224" lon="-7.5194027"><ele>805.0</ele><time>2026-04-25T09:47:37.049Z</time></trkpt><trkpt lat="42.3689642" lon="-7.5192385"><ele>804.25</ele><time>2026-04-25T09:47:38.064Z</time></trkpt><trkpt lat="42.3690124" lon="-7.5190647"><ele>803.5</ele><time>2026-04-25T09:47:39.054Z</time></trkpt><trkpt lat="42.369063" lon="-7.5188809"><ele>802.75</ele><time>2026-04-25T09:47:40.06Z</time></trkpt><trkpt lat="42.3691182" lon="-7.5186882"><ele>802.0</ele><time>2026-04-25T09:47:41.057Z</time></trkpt><trkpt lat="42.3691809" lon="-7.5184939"><ele>800.6666666666666</ele><time>2026-04-25T09:47:42.055Z</time></trkpt><trkpt lat="42.3692531" lon="-7.5182931"><ele>799.3333333333333</ele><time>2026-04-25T09:47:43.048Z</time></trkpt><trkpt lat="42.3693316" lon="-7.5180918"><ele>798.0</ele><time>2026-04-25T09:47:44.051Z</time></trkpt><trkpt lat="42.3694097" lon="-7.5179027"><ele>797.0</ele><time>2026-04-25T09:47:45.061Z</time></trkpt><trkpt lat="42.3694976" lon="-7.5177194"><ele>796.0</ele><time>2026-04-25T09:47:46.054Z</time></trkpt><trkpt lat="42.3695858" lon="-7.5175515"><ele>795.0</ele><time>2026-04-25T09:47:47.052Z</time></trkpt><trkpt lat="42.3696725" lon="-7.5173859"><ele>794.0</ele><time>2026-04-25T09:47:48.059Z</time></trkpt><trkpt lat="42.3697446" lon="-7.5172143"><ele>793.0</ele><time>2026-04-25T09:47:49.046Z</time></trkpt><trkpt lat="42.369816" lon="-7.5170504"><ele>792.0</ele><time>2026-04-25T09:47:50.053Z</time></trkpt><trkpt lat="42.3698788" lon="-7.5168855"><ele>791.0</ele><time>2026-04-25T09:47:51.046Z</time></trkpt><trkpt lat="42.3699494" lon="-7.5167162"><ele>790.6666666666667</ele><time>2026-04-25T09:47:52.046Z</time></trkpt><trkpt lat="42.3700385" lon="-7.5165481"><ele>790.3333333333333</ele><time>2026-04-25T09:47:53.089Z</time></trkpt><trkpt lat="42.3701358" lon="-7.5164006"><ele>790.0</ele><time>2026-04-25T09:47:54.049Z</time></trkpt><trkpt lat="42.3702526" lon="-7.5162701"><ele>788.75</ele><time>2026-04-25T09:47:55.044Z</time></trkpt><trkpt lat="42.370378" lon="-7.5161639"><ele>787.5</ele><time>2026-04-25T09:47:56.05Z</time></trkpt><trkpt lat="42.3705052" lon="-7.516082"><ele>786.25</ele><time>2026-04-25T09:47:57.047Z</time></trkpt><trkpt lat="42.3706172" lon="-7.5159955"><ele>785.0</ele><time>2026-04-25T09:47:58.045Z</time></trkpt><trkpt lat="42.3707178" lon="-7.5159045"><ele>785.0000000000001</ele><time>2026-04-25T09:47:59.056Z</time></trkpt><trkpt lat="42.3708" lon="-7.5158184"><ele>785.0</ele><time>2026-04-25T09:48:00.048Z</time></trkpt><trkpt lat="42.370865" lon="-7.515744"><ele>785.0</ele><time>2026-04-25T09:48:01.058Z</time></trkpt><trkpt lat="42.3709224" lon="-7.5156791"><ele>785.0</ele><time>2026-04-25T09:48:02.055Z</time></trkpt><trkpt lat="42.3709741" lon="-7.5156214"><ele>785.0000000000001</ele><time>2026-04-25T09:48:03.054Z</time></trkpt><trkpt lat="42.3710406" lon="-7.5155635"><ele>785.0</ele><time>2026-04-25T09:48:04.051Z</time></trkpt><trkpt lat="42.3710996" lon="-7.5155138"><ele>785.0000000000001</ele><time>2026-04-25T09:48:05.052Z</time></trkpt><trkpt lat="42.3711835" lon="-7.5154609"><ele>785.0</ele><time>2026-04-25T09:48:07.045Z</time></trkpt><trkpt lat="42.3710928" lon="-7.5155228"><ele>785.0</ele><time>2026-04-25T09:48:21.054Z</time></trkpt><trkpt lat="42.3710292" lon="-7.5155595"><ele>785.0</ele><time>2026-04-25T09:48:22.061Z</time></trkpt><trkpt lat="42.370966" lon="-7.5156198"><ele>785.0000000000001</ele><time>2026-04-25T09:48:23.044Z</time></trkpt><trkpt lat="42.370905" lon="-7.5156929"><ele>785.0</ele><time>2026-04-25T09:48:24.047Z</time></trkpt><trkpt lat="42.3708369" lon="-7.5157734"><ele>785.0</ele><time>2026-04-25T09:48:25.047Z</time></trkpt><trkpt lat="42.3707634" lon="-7.5158495"><ele>785.0</ele><time>2026-04-25T09:48:26.052Z</time></trkpt><trkpt lat="42.3706784" lon="-7.515937"><ele>785.0</ele><time>2026-04-25T09:48:27.05Z</time></trkpt><trkpt lat="42.3705917" lon="-7.516008"><ele>785.0</ele><time>2026-04-25T09:48:28.049Z</time></trkpt><trkpt lat="42.3705156" lon="-7.5160662"><ele>785.0</ele><time>2026-04-25T09:48:29.05Z</time></trkpt><trkpt lat="42.3704505" lon="-7.5161542"><ele>785.6</ele><time>2026-04-25T09:48:31.049Z</time></trkpt><trkpt lat="42.3705146" lon="-7.5162717"><ele>786.2</ele><time>2026-04-25T09:48:34.049Z</time></trkpt><trkpt lat="42.3706005" lon="-7.5163745"><ele>786.8</ele><time>2026-04-25T09:48:36.045Z</time></trkpt><trkpt lat="42.3706383" lon="-7.5164435"><ele>787.4</ele><time>2026-04-25T09:48:37.047Z</time></trkpt><trkpt lat="42.3706839" lon="-7.5165802"><ele>788.0</ele><time>2026-04-25T09:48:39.047Z</time></trkpt><trkpt lat="42.3706925" lon="-7.5166741"><ele>788.0000000000001</ele><time>2026-04-25T09:48:40.058Z</time></trkpt><trkpt lat="42.3707029" lon="-7.5168287"><ele>788.0</ele><time>2026-04-25T09:48:42.05Z</time></trkpt><trkpt lat="42.3707112" lon="-7.5169373"><ele>788.0</ele><time>2026-04-25T09:48:44.047Z</time></trkpt><trkpt lat="42.3707559" lon="-7.5170221"><ele>788.0</ele><time>2026-04-25T09:50:24.046Z</time></trkpt><trkpt lat="42.3707835" lon="-7.5171016"><ele>788.0000000000001</ele><time>2026-04-25T09:50:27.058Z</time></trkpt><trkpt lat="42.3708085" lon="-7.517203"><ele>788.0</ele><time>2026-04-25T09:50:31.056Z</time></trkpt><trkpt lat="42.3708309" lon="-7.5172855"><ele>788.0000000000001</ele><time>2026-04-25T09:50:35.052Z</time></trkpt><trkpt lat="42.3707933" lon="-7.5171463"><ele>788.0</ele><time>2026-04-25T09:55:06.071Z</time></trkpt><trkpt lat="42.3707637" lon="-7.5170389"><ele>788.0</ele><time>2026-04-25T09:55:07.047Z</time></trkpt><trkpt lat="42.370738" lon="-7.5169477"><ele>788.0</ele><time>2026-04-25T09:55:08.053Z</time></trkpt><trkpt lat="42.3707246" lon="-7.5168447"><ele>788.0000000000001</ele><time>2026-04-25T09:55:09.051Z</time></trkpt><trkpt lat="42.3707183" lon="-7.5167555"><ele>788.0</ele><time>2026-04-25T09:55:10.052Z</time></trkpt><trkpt lat="42.3707044" lon="-7.5166207"><ele>788.0000000000001</ele><time>2026-04-25T09:55:12.051Z</time></trkpt><trkpt lat="42.3706712" lon="-7.5165203"><ele>788.0</ele><time>2026-04-25T09:55:27.062Z</time></trkpt><trkpt lat="42.3706214" lon="-7.5164037"><ele>788.0</ele><time>2026-04-25T09:55:29.05Z</time></trkpt><trkpt lat="42.3705719" lon="-7.5162926"><ele>788.0</ele><time>2026-04-25T09:55:31.066Z</time></trkpt><trkpt lat="42.3705117" lon="-7.5162285"><ele>788.0000000000001</ele><time>2026-04-25T09:55:33.05Z</time></trkpt><trkpt lat="42.3704711" lon="-7.516156"><ele>788.0</ele><time>2026-04-25T09:55:36.056Z</time></trkpt><trkpt lat="42.3705454" lon="-7.5160489"><ele>787.4</ele><time>2026-04-25T09:55:39.05Z</time></trkpt><trkpt lat="42.3706363" lon="-7.5159718"><ele>786.8</ele><time>2026-04-25T09:55:41.043Z</time></trkpt><trkpt lat="42.3707227" lon="-7.5158856"><ele>786.2</ele><time>2026-04-25T09:55:43.047Z</time></trkpt><trkpt lat="42.3708104" lon="-7.5157976"><ele>785.6</ele><time>2026-04-25T09:55:45.049Z</time></trkpt><trkpt lat="42.370872" lon="-7.5157284"><ele>785.0</ele><time>2026-04-25T09:55:47.054Z</time></trkpt><trkpt lat="42.3709647" lon="-7.515634"><ele>785.0000000000001</ele><time>2026-04-25T09:55:49.054Z</time></trkpt><trkpt lat="42.3710191" lon="-7.5155855"><ele>785.0</ele><time>2026-04-25T09:55:50.055Z</time></trkpt><trkpt lat="42.3710764" lon="-7.5155442"><ele>785.0</ele><time>2026-04-25T09:55:51.049Z</time></trkpt><trkpt lat="42.3711357" lon="-7.5155121"><ele>785.0</ele><time>2026-04-25T09:55:52.055Z</time></trkpt><trkpt lat="42.3712551" lon="-7.5154585"><ele>785.0000000000001</ele><time>2026-04-25T09:55:54.056Z</time></trkpt><trkpt lat="42.3713148" lon="-7.5154279"><ele>785.0</ele><time>2026-04-25T09:55:55.053Z</time></trkpt><trkpt lat="42.3713652" lon="-7.5153642"><ele>782.8</ele><time>2026-04-25T09:55:56.054Z</time></trkpt><trkpt lat="42.3714094" lon="-7.5152772"><ele>780.6</ele><time>2026-04-25T09:55:57.053Z</time></trkpt><trkpt lat="42.3714405" lon="-7.5151637"><ele>778.4000000000001</ele><time>2026-04-25T09:55:58.052Z</time></trkpt><trkpt lat="42.3714736" lon="-7.515042"><ele>776.2</ele><time>2026-04-25T09:55:59.054Z</time></trkpt><trkpt lat="42.3715074" lon="-7.5149081"><ele>774.0</ele><time>2026-04-25T09:56:00.048Z</time></trkpt><trkpt lat="42.3715513" lon="-7.5147987"><ele>774.0</ele><time>2026-04-25T09:56:01.055Z</time></trkpt><trkpt lat="42.3715888" lon="-7.5146956"><ele>774.0</ele><time>2026-04-25T09:56:02.048Z</time></trkpt><trkpt lat="42.3716299" lon="-7.5145935"><ele>774.0</ele><time>2026-04-25T09:56:03.05Z</time></trkpt><trkpt lat="42.371676" lon="-7.514492"><ele>774.0</ele><time>2026-04-25T09:56:04.048Z</time></trkpt><trkpt lat="42.3717255" lon="-7.514386"><ele>774.0</ele><time>2026-04-25T09:56:05.056Z</time></trkpt><trkpt lat="42.371779" lon="-7.5142717"><ele>774.8000000000001</ele><time>2026-04-25T09:56:06.049Z</time></trkpt><trkpt lat="42.3718321" lon="-7.5141452"><ele>775.6</ele><time>2026-04-25T09:56:07.055Z</time></trkpt><trkpt lat="42.3718734" lon="-7.5140294"><ele>776.4</ele><time>2026-04-25T09:56:08.055Z</time></trkpt><trkpt lat="42.3718933" lon="-7.5139432"><ele>777.2</ele><time>2026-04-25T09:56:09.05Z</time></trkpt><trkpt lat="42.3718797" lon="-7.5137813"><ele>778.0</ele><time>2026-04-25T09:56:11.051Z</time></trkpt><trkpt lat="42.3718509" lon="-7.5136939"><ele>778.0</ele><time>2026-04-25T09:56:12.053Z</time></trkpt><trkpt lat="42.3718064" lon="-7.5135996"><ele>778.0</ele><time>2026-04-25T09:56:13.046Z</time></trkpt><trkpt lat="42.37176" lon="-7.5134865"><ele>778.0</ele><time>2026-04-25T09:56:14.054Z</time></trkpt><trkpt lat="42.3717215" lon="-7.5133478"><ele>778.0</ele><time>2026-04-25T09:56:15.05Z</time></trkpt><trkpt lat="42.3716882" lon="-7.513192"><ele>778.0</ele><time>2026-04-25T09:56:16.059Z</time></trkpt><trkpt lat="42.3716609" lon="-7.5130406"><ele>777.2</ele><time>2026-04-25T09:56:17.056Z</time></trkpt><trkpt lat="42.3716314" lon="-7.5129026"><ele>776.4</ele><time>2026-04-25T09:56:18.045Z</time></trkpt><trkpt lat="42.3716029" lon="-7.5127681"><ele>775.6</ele><time>2026-04-25T09:56:19.061Z</time></trkpt><trkpt lat="42.3715777" lon="-7.512626"><ele>774.8000000000001</ele><time>2026-04-25T09:56:20.048Z</time></trkpt><trkpt lat="42.3715462" lon="-7.5124603"><ele>774.0</ele><time>2026-04-25T09:56:21.048Z</time></trkpt><trkpt lat="42.3715119" lon="-7.5122894"><ele>774.0</ele><time>2026-04-25T09:56:22.05Z</time></trkpt><trkpt lat="42.3714755" lon="-7.5121249"><ele>774.0</ele><time>2026-04-25T09:56:23.05Z</time></trkpt><trkpt lat="42.3714469" lon="-7.5119642"><ele>774.0</ele><time>2026-04-25T09:56:24.054Z</time></trkpt><trkpt lat="42.3714245" lon="-7.5118023"><ele>774.0</ele><time>2026-04-25T09:56:25.041Z</time></trkpt><trkpt lat="42.3714024" lon="-7.5116681"><ele>773.8000000000001</ele><time>2026-04-25T09:56:26.049Z</time></trkpt><trkpt lat="42.371371" lon="-7.5115372"><ele>773.6</ele><time>2026-04-25T09:56:27.05Z</time></trkpt><trkpt lat="42.3713347" lon="-7.5113959"><ele>773.4</ele><time>2026-04-25T09:56:28.053Z</time></trkpt><trkpt lat="42.3713032" lon="-7.511261"><ele>773.2</ele><time>2026-04-25T09:56:29.056Z</time></trkpt><trkpt lat="42.3712842" lon="-7.5111417"><ele>773.0</ele><time>2026-04-25T09:56:30.05Z</time></trkpt><trkpt lat="42.3712854" lon="-7.5110225"><ele>772.8333333333334</ele><time>2026-04-25T09:56:31.053Z</time></trkpt><trkpt lat="42.3713055" lon="-7.510907"><ele>772.6666666666667</ele><time>2026-04-25T09:56:32.052Z</time></trkpt><trkpt lat="42.3713402" lon="-7.5108068"><ele>772.5</ele><time>2026-04-25T09:56:33.047Z</time></trkpt><trkpt lat="42.3713751" lon="-7.5107092"><ele>772.3333333333333</ele><time>2026-04-25T09:56:34.047Z</time></trkpt><trkpt lat="42.371436" lon="-7.5106274"><ele>772.1666666666666</ele><time>2026-04-25T09:56:35.053Z</time></trkpt><trkpt lat="42.3715033" lon="-7.5105408"><ele>772.0</ele><time>2026-04-25T09:56:36.048Z</time></trkpt><trkpt lat="42.3715684" lon="-7.5104415"><ele>770.75</ele><time>2026-04-25T09:56:37.047Z</time></trkpt><trkpt lat="42.3716223" lon="-7.5103327"><ele>769.5</ele><time>2026-04-25T09:56:38.06Z</time></trkpt><trkpt lat="42.3716694" lon="-7.5102001"><ele>768.25</ele><time>2026-04-25T09:56:39.057Z</time></trkpt><trkpt lat="42.3717111" lon="-7.5100337"><ele>767.0</ele><time>2026-04-25T09:56:40.048Z</time></trkpt><trkpt lat="42.3717522" lon="-7.5098742"><ele>767.0</ele><time>2026-04-25T09:56:41.054Z</time></trkpt><trkpt lat="42.371791" lon="-7.5097122"><ele>767.0</ele><time>2026-04-25T09:56:42.044Z</time></trkpt><trkpt lat="42.3718279" lon="-7.509562"><ele>767.0</ele><time>2026-04-25T09:56:43.046Z</time></trkpt><trkpt lat="42.3718632" lon="-7.509434"><ele>767.0</ele><time>2026-04-25T09:56:44.051Z</time></trkpt><trkpt lat="42.3718954" lon="-7.5093176"><ele>767.0</ele><time>2026-04-25T09:56:45.049Z</time></trkpt><trkpt lat="42.3719225" lon="-7.5092042"><ele>766.2</ele><time>2026-04-25T09:56:46.055Z</time></trkpt><trkpt lat="42.371942" lon="-7.5090942"><ele>765.4000000000001</ele><time>2026-04-25T09:56:47.045Z</time></trkpt><trkpt lat="42.371967" lon="-7.5089761"><ele>764.5999999999999</ele><time>2026-04-25T09:56:48.049Z</time></trkpt><trkpt lat="42.3719965" lon="-7.5088679"><ele>763.8</ele><time>2026-04-25T09:56:49.057Z</time></trkpt><trkpt lat="42.3720255" lon="-7.5087507"><ele>763.0</ele><time>2026-04-25T09:56:50.058Z</time></trkpt><trkpt lat="42.3720573" lon="-7.5086132"><ele>763.0</ele><time>2026-04-25T09:56:51.047Z</time></trkpt><trkpt lat="42.3720949" lon="-7.5084627"><ele>763.0</ele><time>2026-04-25T09:56:52.049Z</time></trkpt><trkpt lat="42.3721262" lon="-7.508337"><ele>763.0</ele><time>2026-04-25T09:56:53.049Z</time></trkpt><trkpt lat="42.37216" lon="-7.5082399"><ele>763.0</ele><time>2026-04-25T09:56:54.052Z</time></trkpt><trkpt lat="42.3722247" lon="-7.5081466"><ele>763.0</ele><time>2026-04-25T09:56:56.055Z</time></trkpt><trkpt lat="42.3722949" lon="-7.5081221"><ele>762.6666666666667</ele><time>2026-04-25T09:56:58.05Z</time></trkpt><trkpt lat="42.3724001" lon="-7.5081795"><ele>762.3333333333334</ele><time>2026-04-25T09:57:00.065Z</time></trkpt><trkpt lat="42.372457" lon="-7.5082177"><ele>762.0</ele><time>2026-04-25T09:57:01.049Z</time></trkpt><trkpt lat="42.372517" lon="-7.508254"><ele>761.6666666666666</ele><time>2026-04-25T09:57:02.056Z</time></trkpt><trkpt lat="42.3725786" lon="-7.5082865"><ele>761.3333333333333</ele><time>2026-04-25T09:57:03.055Z</time></trkpt><trkpt lat="42.3726391" lon="-7.5083174"><ele>761.0</ele><time>2026-04-25T09:57:04.059Z</time></trkpt><trkpt lat="42.3727212" lon="-7.5083694"><ele>761.0</ele><time>2026-04-25T09:57:06.056Z</time></trkpt><trkpt lat="42.3727752" lon="-7.5084839"><ele>761.0</ele><time>2026-04-25T09:57:09.057Z</time></trkpt><trkpt lat="42.3727455" lon="-7.5086513"><ele>761.0</ele><time>2026-04-25T09:57:11.047Z</time></trkpt><trkpt lat="42.3727166" lon="-7.5087513"><ele>761.0</ele><time>2026-04-25T09:57:12.057Z</time></trkpt><trkpt lat="42.3726907" lon="-7.508846"><ele>761.0</ele><time>2026-04-25T09:57:13.057Z</time></trkpt><trkpt lat="42.3726747" lon="-7.508947"><ele>760.5</ele><time>2026-04-25T09:57:14.048Z</time></trkpt><trkpt lat="42.3726712" lon="-7.5090575"><ele>760.0</ele><time>2026-04-25T09:57:15.047Z</time></trkpt><trkpt lat="42.3726784" lon="-7.5091649"><ele>759.5</ele><time>2026-04-25T09:57:16.049Z</time></trkpt><trkpt lat="42.3726874" lon="-7.5092707"><ele>759.0</ele><time>2026-04-25T09:57:17.047Z</time></trkpt><trkpt lat="42.3727078" lon="-7.509376"><ele>758.5</ele><time>2026-04-25T09:57:18.048Z</time></trkpt><trkpt lat="42.3727293" lon="-7.5094753"><ele>758.0</ele><time>2026-04-25T09:57:19.046Z</time></trkpt><trkpt lat="42.3727527" lon="-7.5095753"><ele>758.5999999999999</ele><time>2026-04-25T09:57:20.045Z</time></trkpt><trkpt lat="42.3727686" lon="-7.5096935"><ele>759.1999999999999</ele><time>2026-04-25T09:57:21.053Z</time></trkpt><trkpt lat="42.3727804" lon="-7.509836"><ele>759.8</ele><time>2026-04-25T09:57:22.049Z</time></trkpt><trkpt lat="42.3727891" lon="-7.509978"><ele>760.4</ele><time>2026-04-25T09:57:23.051Z</time></trkpt><trkpt lat="42.3727969" lon="-7.5101143"><ele>761.0</ele><time>2026-04-25T09:57:24.043Z</time></trkpt><trkpt lat="42.3728109" lon="-7.5102493"><ele>761.0</ele><time>2026-04-25T09:57:25.054Z</time></trkpt><trkpt lat="42.3728371" lon="-7.5103993"><ele>761.0</ele><time>2026-04-25T09:57:26.058Z</time></trkpt><trkpt lat="42.3728734" lon="-7.5105572"><ele>761.0</ele><time>2026-04-25T09:57:27.049Z</time></trkpt><trkpt lat="42.3729153" lon="-7.5107024"><ele>761.0</ele><time>2026-04-25T09:57:28.047Z</time></trkpt><trkpt lat="42.3729584" lon="-7.5108446"><ele>761.0</ele><time>2026-04-25T09:57:29.053Z</time></trkpt><trkpt lat="42.3730045" lon="-7.5110042"><ele>761.0</ele><time>2026-04-25T09:57:30.045Z</time></trkpt><trkpt lat="42.3730493" lon="-7.5111572"><ele>761.0</ele><time>2026-04-25T09:57:31.051Z</time></trkpt><trkpt lat="42.3730931" lon="-7.5113053"><ele>761.0</ele><time>2026-04-25T09:57:32.047Z</time></trkpt><trkpt lat="42.373135" lon="-7.5114542"><ele>754.8</ele><time>2026-04-25T09:57:33.041Z</time></trkpt><trkpt lat="42.373178" lon="-7.5115974"><ele>748.5999999999999</ele><time>2026-04-25T09:57:34.051Z</time></trkpt><trkpt lat="42.3732179" lon="-7.51173"><ele>742.4</ele><time>2026-04-25T09:57:35.051Z</time></trkpt><trkpt lat="42.3732451" lon="-7.5118591"><ele>736.2</ele><time>2026-04-25T09:57:36.045Z</time></trkpt><trkpt lat="42.3732535" lon="-7.511984"><ele>730.0</ele><time>2026-04-25T09:57:37.048Z</time></trkpt><trkpt lat="42.373238" lon="-7.5121186"><ele>729.0</ele><time>2026-04-25T09:57:38.066Z</time></trkpt><trkpt lat="42.3732008" lon="-7.5122727"><ele>728.0</ele><time>2026-04-25T09:57:39.055Z</time></trkpt><trkpt lat="42.3731599" lon="-7.5124285"><ele>727.0</ele><time>2026-04-25T09:57:40.051Z</time></trkpt><trkpt lat="42.3731396" lon="-7.5125771"><ele>726.0</ele><time>2026-04-25T09:57:41.056Z</time></trkpt><trkpt lat="42.3731296" lon="-7.5127391"><ele>724.0</ele><time>2026-04-25T09:57:42.051Z</time></trkpt><trkpt lat="42.3731212" lon="-7.5129191"><ele>722.0</ele><time>2026-04-25T09:57:43.057Z</time></trkpt><trkpt lat="42.3731041" lon="-7.5130978"><ele>720.0</ele><time>2026-04-25T09:57:44.049Z</time></trkpt><trkpt lat="42.3730765" lon="-7.5132614"><ele>718.0</ele><time>2026-04-25T09:57:45.049Z</time></trkpt><trkpt lat="42.3730549" lon="-7.513413"><ele>718.0</ele><time>2026-04-25T09:57:46.045Z</time></trkpt><trkpt lat="42.3730406" lon="-7.5135571"><ele>718.0</ele><time>2026-04-25T09:57:47.04Z</time></trkpt><trkpt lat="42.3730325" lon="-7.5136929"><ele>718.0</ele><time>2026-04-25T09:57:48.048Z</time></trkpt><trkpt lat="42.3730301" lon="-7.5138221"><ele>718.0</ele><time>2026-04-25T09:57:49.051Z</time></trkpt><trkpt lat="42.3730235" lon="-7.5139396"><ele>718.0</ele><time>2026-04-25T09:57:50.055Z</time></trkpt><trkpt lat="42.3730147" lon="-7.5140517"><ele>722.0</ele><time>2026-04-25T09:57:51.047Z</time></trkpt><trkpt lat="42.3730036" lon="-7.5141669"><ele>726.0</ele><time>2026-04-25T09:57:52.04Z</time></trkpt><trkpt lat="42.3729902" lon="-7.5142908"><ele>730.0</ele><time>2026-04-25T09:57:53.05Z</time></trkpt><trkpt lat="42.372986" lon="-7.5144216"><ele>734.0</ele><time>2026-04-25T09:57:54.048Z</time></trkpt><trkpt lat="42.3729935" lon="-7.5145569"><ele>738.0</ele><time>2026-04-25T09:57:55.04Z</time></trkpt><trkpt lat="42.3730106" lon="-7.5146956"><ele>738.0</ele><time>2026-04-25T09:57:56.046Z</time></trkpt><trkpt lat="42.3730239" lon="-7.5148384"><ele>738.0</ele><time>2026-04-25T09:57:57.047Z</time></trkpt><trkpt lat="42.3730274" lon="-7.5149856"><ele>738.0</ele><time>2026-04-25T09:57:58.039Z</time></trkpt><trkpt lat="42.3730143" lon="-7.5151332"><ele>738.0</ele><time>2026-04-25T09:57:59.048Z</time></trkpt><trkpt lat="42.3729831" lon="-7.5152811"><ele>738.0</ele><time>2026-04-25T09:58:00.045Z</time></trkpt><trkpt lat="42.3729451" lon="-7.5154257"><ele>735.2</ele><time>2026-04-25T09:58:01.045Z</time></trkpt><trkpt lat="42.3729091" lon="-7.5155554"><ele>732.4</ele><time>2026-04-25T09:58:02.05Z</time></trkpt><trkpt lat="42.372878" lon="-7.5156727"><ele>729.6</ele><time>2026-04-25T09:58:03.044Z</time></trkpt><trkpt lat="42.3728591" lon="-7.5157954"><ele>726.8000000000001</ele><time>2026-04-25T09:58:04.044Z</time></trkpt><trkpt lat="42.3728611" lon="-7.515928"><ele>724.0</ele><time>2026-04-25T09:58:05.051Z</time></trkpt><trkpt lat="42.3728598" lon="-7.5160641"><ele>724.0</ele><time>2026-04-25T09:58:06.051Z</time></trkpt><trkpt lat="42.3728375" lon="-7.5161977"><ele>724.0</ele><time>2026-04-25T09:58:07.042Z</time></trkpt><trkpt lat="42.3728028" lon="-7.5163322"><ele>724.0</ele><time>2026-04-25T09:58:08.046Z</time></trkpt><trkpt lat="42.3727688" lon="-7.5164654"><ele>724.0</ele><time>2026-04-25T09:58:09.041Z</time></trkpt><trkpt lat="42.372747" lon="-7.5165969"><ele>724.0</ele><time>2026-04-25T09:58:10.052Z</time></trkpt><trkpt lat="42.3727321" lon="-7.5167306"><ele>720.2</ele><time>2026-04-25T09:58:11.045Z</time></trkpt><trkpt lat="42.3727149" lon="-7.5168588"><ele>716.4000000000001</ele><time>2026-04-25T09:58:12.047Z</time></trkpt><trkpt lat="42.3727032" lon="-7.5169918"><ele>712.6</ele><time>2026-04-25T09:58:13.048Z</time></trkpt><trkpt lat="42.37269" lon="-7.5171265"><ele>708.8</ele><time>2026-04-25T09:58:14.041Z</time></trkpt><trkpt lat="42.3726762" lon="-7.5172648"><ele>705.0</ele><time>2026-04-25T09:58:15.039Z</time></trkpt><trkpt lat="42.3726638" lon="-7.5173985"><ele>703.8</ele><time>2026-04-25T09:58:16.038Z</time></trkpt><trkpt lat="42.3726529" lon="-7.5175295"><ele>702.6</ele><time>2026-04-25T09:58:17.044Z</time></trkpt><trkpt lat="42.3726405" lon="-7.5176671"><ele>701.4000000000001</ele><time>2026-04-25T09:58:18.039Z</time></trkpt><trkpt lat="42.372627" lon="-7.5178001"><ele>700.2</ele><time>2026-04-25T09:58:19.039Z</time></trkpt><trkpt lat="42.3726055" lon="-7.5179301"><ele>699.0</ele><time>2026-04-25T09:58:20.042Z</time></trkpt><trkpt lat="42.3726132" lon="-7.5180532"><ele>699.0</ele><time>2026-04-25T09:58:21.041Z</time></trkpt><trkpt lat="42.3726438" lon="-7.5181528"><ele>699.0</ele><time>2026-04-25T09:58:22.045Z</time></trkpt><trkpt lat="42.3726965" lon="-7.5182545"><ele>699.0</ele><time>2026-04-25T09:58:23.04Z</time></trkpt><trkpt lat="42.3727626" lon="-7.5183555"><ele>699.0</ele><time>2026-04-25T09:58:24.039Z</time></trkpt><trkpt lat="42.3728339" lon="-7.5184544"><ele>699.0</ele><time>2026-04-25T09:58:25.046Z</time></trkpt><trkpt lat="42.3728935" lon="-7.5185632"><ele>699.0</ele><time>2026-04-25T09:58:26.052Z</time></trkpt><trkpt lat="42.3729348" lon="-7.5186965"><ele>699.0</ele><time>2026-04-25T09:58:27.047Z</time></trkpt><trkpt lat="42.3729544" lon="-7.5188449"><ele>699.0</ele><time>2026-04-25T09:58:28.04Z</time></trkpt><trkpt lat="42.3729585" lon="-7.519013"><ele>699.0</ele><time>2026-04-25T09:58:29.039Z</time></trkpt><trkpt lat="42.3729575" lon="-7.5191884"><ele>699.2</ele><time>2026-04-25T09:58:30.042Z</time></trkpt><trkpt lat="42.3729505" lon="-7.5193469"><ele>699.4000000000001</ele><time>2026-04-25T09:58:31.045Z</time></trkpt><trkpt lat="42.3729441" lon="-7.5194842"><ele>699.6</ele><time>2026-04-25T09:58:32.04Z</time></trkpt><trkpt lat="42.372939" lon="-7.5196127"><ele>699.8</ele><time>2026-04-25T09:58:33.048Z</time></trkpt><trkpt lat="42.3729364" lon="-7.5197322"><ele>700.0</ele><time>2026-04-25T09:58:34.041Z</time></trkpt><trkpt lat="42.3729351" lon="-7.5198415"><ele>699.0</ele><time>2026-04-25T09:58:35.036Z</time></trkpt><trkpt lat="42.3729357" lon="-7.5199411"><ele>698.0</ele><time>2026-04-25T09:58:36.04Z</time></trkpt><trkpt lat="42.3729368" lon="-7.5200304"><ele>697.0</ele><time>2026-04-25T09:58:37.046Z</time></trkpt><trkpt lat="42.3729283" lon="-7.520201"><ele>696.0</ele><time>2026-04-25T09:58:39.052Z</time></trkpt><trkpt lat="42.3729173" lon="-7.5203852"><ele>695.0</ele><time>2026-04-25T09:58:41.05Z</time></trkpt><trkpt lat="42.3729174" lon="-7.5204898"><ele>693.8333333333333</ele><time>2026-04-25T09:58:42.048Z</time></trkpt><trkpt lat="42.3729206" lon="-7.5205987"><ele>692.6666666666666</ele><time>2026-04-25T09:58:43.044Z</time></trkpt><trkpt lat="42.3729158" lon="-7.5207018"><ele>691.5</ele><time>2026-04-25T09:58:44.043Z</time></trkpt><trkpt lat="42.3729024" lon="-7.5208129"><ele>690.3333333333334</ele><time>2026-04-25T09:58:45.057Z</time></trkpt><trkpt lat="42.372895" lon="-7.5209195"><ele>689.1666666666667</ele><time>2026-04-25T09:58:46.045Z</time></trkpt><trkpt lat="42.3728849" lon="-7.5210114"><ele>688.0</ele><time>2026-04-25T09:58:47.05Z</time></trkpt><trkpt lat="42.3728633" lon="-7.5211435"><ele>688.0</ele><time>2026-04-25T09:58:49.049Z</time></trkpt><trkpt lat="42.3728857" lon="-7.5212416"><ele>688.0</ele><time>2026-04-25T09:58:51.051Z</time></trkpt><trkpt lat="42.3729523" lon="-7.5211898"><ele>688.0</ele><time>2026-04-25T09:58:53.049Z</time></trkpt><trkpt lat="42.3730185" lon="-7.5210439"><ele>688.0</ele><time>2026-04-25T09:58:55.044Z</time></trkpt><trkpt lat="42.3730904" lon="-7.5209487"><ele>688.0</ele><time>2026-04-25T09:58:56.047Z</time></trkpt><trkpt lat="42.3731544" lon="-7.5208214"><ele>680.4</ele><time>2026-04-25T09:58:57.045Z</time></trkpt><trkpt lat="42.3732145" lon="-7.5206971"><ele>672.8</ele><time>2026-04-25T09:58:58.048Z</time></trkpt><trkpt lat="42.3732674" lon="-7.5205835"><ele>665.2</ele><time>2026-04-25T09:58:59.045Z</time></trkpt><trkpt lat="42.3733042" lon="-7.520484"><ele>657.6</ele><time>2026-04-25T09:59:00.053Z</time></trkpt><trkpt lat="42.3733447" lon="-7.5203898"><ele>650.0</ele><time>2026-04-25T09:59:01.044Z</time></trkpt><trkpt lat="42.3734019" lon="-7.5203181"><ele>650.0</ele><time>2026-04-25T09:59:02.045Z</time></trkpt><trkpt lat="42.3734534" lon="-7.5202571"><ele>650.0</ele><time>2026-04-25T09:59:03.05Z</time></trkpt><trkpt lat="42.3734939" lon="-7.5201667"><ele>650.0</ele><time>2026-04-25T09:59:04.042Z</time></trkpt><trkpt lat="42.3735357" lon="-7.5200708"><ele>650.0</ele><time>2026-04-25T09:59:05.057Z</time></trkpt><trkpt lat="42.3735572" lon="-7.5199631"><ele>650.0</ele><time>2026-04-25T09:59:06.041Z</time></trkpt><trkpt lat="42.3735928" lon="-7.5198582"><ele>650.0</ele><time>2026-04-25T09:59:07.045Z</time></trkpt><trkpt lat="42.3736532" lon="-7.5197587"><ele>650.0</ele><time>2026-04-25T09:59:08.042Z</time></trkpt><trkpt lat="42.3737163" lon="-7.5196658"><ele>650.0</ele><time>2026-04-25T09:59:09.055Z</time></trkpt><trkpt lat="42.3737894" lon="-7.5195441"><ele>650.0</ele><time>2026-04-25T09:59:10.051Z</time></trkpt><trkpt lat="42.3738374" lon="-7.5194218"><ele>650.0</ele><time>2026-04-25T09:59:11.045Z</time></trkpt><trkpt lat="42.3738891" lon="-7.5193175"><ele>650.0</ele><time>2026-04-25T09:59:12.041Z</time></trkpt><trkpt lat="42.3739286" lon="-7.5192204"><ele>641.6666666666666</ele><time>2026-04-25T09:59:13.041Z</time></trkpt><trkpt lat="42.3739529" lon="-7.5191358"><ele>633.3333333333333</ele><time>2026-04-25T09:59:14.047Z</time></trkpt><trkpt lat="42.373989" lon="-7.5190014"><ele>625.0</ele><time>2026-04-25T09:59:16.045Z</time></trkpt><trkpt lat="42.3740534" lon="-7.5189839"><ele>616.6666666666666</ele><time>2026-04-25T09:59:18.053Z</time></trkpt><trkpt lat="42.3740967" lon="-7.5190991"><ele>608.3333333333334</ele><time>2026-04-25T09:59:20.049Z</time></trkpt><trkpt lat="42.3741038" lon="-7.519222"><ele>600.0</ele><time>2026-04-25T09:59:21.044Z</time></trkpt><trkpt lat="42.3741028" lon="-7.5193628"><ele>600.0</ele><time>2026-04-25T09:59:22.049Z</time></trkpt><trkpt lat="42.3741035" lon="-7.5195181"><ele>600.0</ele><time>2026-04-25T09:59:23.046Z</time></trkpt><trkpt lat="42.3741076" lon="-7.5196742"><ele>600.0</ele><time>2026-04-25T09:59:24.039Z</time></trkpt><trkpt lat="42.3741155" lon="-7.5198133"><ele>600.0</ele><time>2026-04-25T09:59:25.042Z</time></trkpt><trkpt lat="42.3741389" lon="-7.5199149"><ele>600.0</ele><time>2026-04-25T09:59:26.044Z</time></trkpt><trkpt lat="42.3741849" lon="-7.5200472"><ele>600.0</ele><time>2026-04-25T09:59:28.051Z</time></trkpt><trkpt lat="42.3742618" lon="-7.5200274"><ele>600.0</ele><time>2026-04-25T09:59:30.051Z</time></trkpt><trkpt lat="42.3743016" lon="-7.5198821"><ele>600.0</ele><time>2026-04-25T09:59:32.053Z</time></trkpt><trkpt lat="42.3743172" lon="-7.5197916"><ele>600.0</ele><time>2026-04-25T09:59:33.047Z</time></trkpt><trkpt lat="42.3743505" lon="-7.519718"><ele>600.0</ele><time>2026-04-25T09:59:34.049Z</time></trkpt><trkpt lat="42.3743979" lon="-7.5196335"><ele>600.0</ele><time>2026-04-25T09:59:35.042Z</time></trkpt><trkpt lat="42.3744443" lon="-7.5195413"><ele>600.0</ele><time>2026-04-25T09:59:36.047Z</time></trkpt><trkpt lat="42.3744823" lon="-7.5194595"><ele>600.0</ele><time>2026-04-25T09:59:37.044Z</time></trkpt><trkpt lat="42.3745422" lon="-7.5193556"><ele>600.0</ele><time>2026-04-25T09:59:39.042Z</time></trkpt><trkpt lat="42.3746042" lon="-7.5194543"><ele>600.0</ele><time>2026-04-25T09:59:42.037Z</time></trkpt><trkpt lat="42.3746163" lon="-7.5196247"><ele>600.0</ele><time>2026-04-25T09:59:44.041Z</time></trkpt><trkpt lat="42.3746235" lon="-7.5197217"><ele>599.1666666666666</ele><time>2026-04-25T09:59:45.058Z</time></trkpt><trkpt lat="42.374644" lon="-7.5198157"><ele>598.3333333333334</ele><time>2026-04-25T09:59:46.042Z</time></trkpt><trkpt lat="42.3746681" lon="-7.5199163"><ele>597.5</ele><time>2026-04-25T09:59:47.048Z</time></trkpt><trkpt lat="42.3746954" lon="-7.5200228"><ele>596.6666666666667</ele><time>2026-04-25T09:59:48.047Z</time></trkpt><trkpt lat="42.3747203" lon="-7.5201189"><ele>595.8333333333334</ele><time>2026-04-25T09:59:49.041Z</time></trkpt><trkpt lat="42.3747415" lon="-7.5202079"><ele>595.0</ele><time>2026-04-25T09:59:50.041Z</time></trkpt><trkpt lat="42.3747837" lon="-7.5203253"><ele>586.6666666666667</ele><time>2026-04-25T09:59:52.052Z</time></trkpt><trkpt lat="42.3748565" lon="-7.5202411"><ele>578.3333333333334</ele><time>2026-04-25T09:59:55.047Z</time></trkpt><trkpt lat="42.3748728" lon="-7.5201456"><ele>570.0</ele><time>2026-04-25T09:59:56.055Z</time></trkpt><trkpt lat="42.3748913" lon="-7.5200373"><ele>561.6666666666666</ele><time>2026-04-25T09:59:57.044Z</time></trkpt><trkpt lat="42.3749193" lon="-7.5199211"><ele>553.3333333333333</ele><time>2026-04-25T09:59:58.046Z</time></trkpt><trkpt lat="42.3749935" lon="-7.5198224"><ele>545.0</ele><time>2026-04-25T09:59:59.041Z</time></trkpt><trkpt lat="42.3750645" lon="-7.5197428"><ele>545.0</ele><time>2026-04-25T10:00:00.045Z</time></trkpt><trkpt lat="42.3751181" lon="-7.519648"><ele>545.0</ele><time>2026-04-25T10:00:01.041Z</time></trkpt><trkpt lat="42.3751656" lon="-7.5195622"><ele>545.0</ele><time>2026-04-25T10:00:02.037Z</time></trkpt><trkpt lat="42.3751897" lon="-7.5194742"><ele>545.0</ele><time>2026-04-25T10:00:03.043Z</time></trkpt><trkpt lat="42.3752137" lon="-7.519388"><ele>545.0</ele><time>2026-04-25T10:00:04.037Z</time></trkpt><trkpt lat="42.3752392" lon="-7.5192451"><ele>545.0</ele><time>2026-04-25T10:00:06.043Z</time></trkpt><trkpt lat="42.3752571" lon="-7.5191117"><ele>545.0</ele><time>2026-04-25T10:00:08.043Z</time></trkpt><trkpt lat="42.3753206" lon="-7.5191101"><ele>545.0</ele><time>2026-04-25T10:00:10.059Z</time></trkpt><trkpt lat="42.3753618" lon="-7.5192469"><ele>545.0</ele><time>2026-04-25T10:00:12.046Z</time></trkpt><trkpt lat="42.3753769" lon="-7.519346"><ele>545.0</ele><time>2026-04-25T10:00:13.04Z</time></trkpt><trkpt lat="42.3753908" lon="-7.5194722"><ele>545.0</ele><time>2026-04-25T10:00:14.042Z</time></trkpt><trkpt lat="42.3753979" lon="-7.519597"><ele>545.0</ele><time>2026-04-25T10:00:15.049Z</time></trkpt><trkpt lat="42.3754006" lon="-7.5197185"><ele>545.0</ele><time>2026-04-25T10:00:16.036Z</time></trkpt><trkpt lat="42.3754" lon="-7.5198374"><ele>545.0</ele><time>2026-04-25T10:00:17.052Z</time></trkpt><trkpt lat="42.3754016" lon="-7.5199575"><ele>545.0</ele><time>2026-04-25T10:00:18.043Z</time></trkpt><trkpt lat="42.3754236" lon="-7.5200826"><ele>545.0</ele><time>2026-04-25T10:00:19.041Z</time></trkpt><trkpt lat="42.3754457" lon="-7.5201945"><ele>545.0</ele><time>2026-04-25T10:00:20.043Z</time></trkpt><trkpt lat="42.3754859" lon="-7.5203118"><ele>536.5</ele><time>2026-04-25T10:00:21.051Z</time></trkpt><trkpt lat="42.3755206" lon="-7.5204173"><ele>528.0</ele><time>2026-04-25T10:00:22.044Z</time></trkpt><trkpt lat="42.3755539" lon="-7.5205114"><ele>519.5</ele><time>2026-04-25T10:00:23.046Z</time></trkpt><trkpt lat="42.3755687" lon="-7.5206136"><ele>511.0</ele><time>2026-04-25T10:00:24.045Z</time></trkpt><trkpt lat="42.3755646" lon="-7.5207053"><ele>502.49999999999994</ele><time>2026-04-25T10:00:25.043Z</time></trkpt><trkpt lat="42.3755542" lon="-7.520812"><ele>494.0</ele><time>2026-04-25T10:00:27.045Z</time></trkpt><trkpt lat="42.3756357" lon="-7.520796"><ele>494.0</ele><time>2026-04-25T10:00:31.051Z</time></trkpt><trkpt lat="42.3757111" lon="-7.5206937"><ele>494.0</ele><time>2026-04-25T10:00:33.05Z</time></trkpt><trkpt lat="42.3757884" lon="-7.520593"><ele>494.0</ele><time>2026-04-25T10:00:35.044Z</time></trkpt><trkpt lat="42.3758567" lon="-7.5204531"><ele>494.0</ele><time>2026-04-25T10:00:37.044Z</time></trkpt><trkpt lat="42.3758771" lon="-7.5203694"><ele>494.0</ele><time>2026-04-25T10:00:38.051Z</time></trkpt><trkpt lat="42.3758778" lon="-7.5202835"><ele>494.99999999999994</ele><time>2026-04-25T10:00:39.042Z</time></trkpt><trkpt lat="42.3758767" lon="-7.5201883"><ele>496.0</ele><time>2026-04-25T10:00:40.042Z</time></trkpt><trkpt lat="42.3758711" lon="-7.5200813"><ele>497.0</ele><time>2026-04-25T10:00:41.041Z</time></trkpt><trkpt lat="42.3758462" lon="-7.5199869"><ele>498.0</ele><time>2026-04-25T10:00:42.041Z</time></trkpt><trkpt lat="42.3758273" lon="-7.519902"><ele>498.99999999999994</ele><time>2026-04-25T10:00:43.048Z</time></trkpt><trkpt lat="42.37583" lon="-7.5198044"><ele>500.0</ele><time>2026-04-25T10:00:44.045Z</time></trkpt><trkpt lat="42.3758534" lon="-7.5196765"><ele>500.6</ele><time>2026-04-25T10:00:45.047Z</time></trkpt><trkpt lat="42.3758975" lon="-7.5195438"><ele>501.2</ele><time>2026-04-25T10:00:46.047Z</time></trkpt><trkpt lat="42.3759286" lon="-7.5194221"><ele>501.79999999999995</ele><time>2026-04-25T10:00:47.042Z</time></trkpt><trkpt lat="42.3759551" lon="-7.519293"><ele>502.4</ele><time>2026-04-25T10:00:48.039Z</time></trkpt><trkpt lat="42.3759708" lon="-7.5191529"><ele>503.0</ele><time>2026-04-25T10:00:49.044Z</time></trkpt><trkpt lat="42.3759769" lon="-7.5190245"><ele>502.99999999999994</ele><time>2026-04-25T10:00:50.048Z</time></trkpt><trkpt lat="42.3759704" lon="-7.5189167"><ele>503.0</ele><time>2026-04-25T10:00:51.039Z</time></trkpt><trkpt lat="42.37595" lon="-7.5188154"><ele>503.0</ele><time>2026-04-25T10:00:52.048Z</time></trkpt><trkpt lat="42.3759169" lon="-7.5187116"><ele>503.0</ele><time>2026-04-25T10:00:53.042Z</time></trkpt><trkpt lat="42.3758733" lon="-7.518627"><ele>502.99999999999994</ele><time>2026-04-25T10:00:54.054Z</time></trkpt><trkpt lat="42.3758132" lon="-7.5185722"><ele>503.0</ele><time>2026-04-25T10:00:55.039Z</time></trkpt><trkpt lat="42.3757566" lon="-7.5185037"><ele>503.4</ele><time>2026-04-25T10:00:56.046Z</time></trkpt><trkpt lat="42.3757045" lon="-7.5184231"><ele>503.79999999999995</ele><time>2026-04-25T10:00:57.046Z</time></trkpt><trkpt lat="42.3756728" lon="-7.5183028"><ele>504.2</ele><time>2026-04-25T10:00:59.046Z</time></trkpt><trkpt lat="42.3757212" lon="-7.5181906"><ele>504.6</ele><time>2026-04-25T10:01:01.043Z</time></trkpt><trkpt lat="42.3757817" lon="-7.518097"><ele>505.0</ele><time>2026-04-25T10:01:02.045Z</time></trkpt><trkpt lat="42.3758575" lon="-7.5179656"><ele>507.75</ele><time>2026-04-25T10:01:03.05Z</time></trkpt><trkpt lat="42.3759474" lon="-7.5178119"><ele>510.5</ele><time>2026-04-25T10:01:04.055Z</time></trkpt><trkpt lat="42.3760143" lon="-7.5176868"><ele>513.25</ele><time>2026-04-25T10:01:05.053Z</time></trkpt><trkpt lat="42.3760847" lon="-7.5175266"><ele>516.0</ele><time>2026-04-25T10:01:06.048Z</time></trkpt><trkpt lat="42.3761565" lon="-7.5173854"><ele>516.0</ele><time>2026-04-25T10:01:07.04Z</time></trkpt><trkpt lat="42.376201" lon="-7.5172421"><ele>516.0</ele><time>2026-04-25T10:01:08.044Z</time></trkpt><trkpt lat="42.3762373" lon="-7.517115"><ele>516.0</ele><time>2026-04-25T10:01:09.044Z</time></trkpt><trkpt lat="42.3762665" lon="-7.5169794"><ele>516.0</ele><time>2026-04-25T10:01:10.042Z</time></trkpt><trkpt lat="42.3762937" lon="-7.5168343"><ele>516.0</ele><time>2026-04-25T10:01:11.053Z</time></trkpt><trkpt lat="42.3763188" lon="-7.51667"><ele>513.0</ele><time>2026-04-25T10:01:12.04Z</time></trkpt><trkpt lat="42.3763504" lon="-7.5164859"><ele>510.0</ele><time>2026-04-25T10:01:13.049Z</time></trkpt><trkpt lat="42.3763785" lon="-7.5163182"><ele>507.0</ele><time>2026-04-25T10:01:14.04Z</time></trkpt><trkpt lat="42.3764113" lon="-7.5161682"><ele>504.0</ele><time>2026-04-25T10:01:15.041Z</time></trkpt><trkpt lat="42.376433" lon="-7.5160016"><ele>504.0</ele><time>2026-04-25T10:01:16.045Z</time></trkpt><trkpt lat="42.3764336" lon="-7.5158072"><ele>504.0</ele><time>2026-04-25T10:01:17.046Z</time></trkpt><trkpt lat="42.3764336" lon="-7.5156409"><ele>504.0</ele><time>2026-04-25T10:01:18.049Z</time></trkpt><trkpt lat="42.3764296" lon="-7.5154918"><ele>504.0</ele><time>2026-04-25T10:01:19.039Z</time></trkpt><trkpt lat="42.3764247" lon="-7.5153627"><ele>504.6666666666667</ele><time>2026-04-25T10:01:20.04Z</time></trkpt><trkpt lat="42.3764165" lon="-7.5152386"><ele>505.33333333333337</ele><time>2026-04-25T10:01:21.045Z</time></trkpt><trkpt lat="42.376406" lon="-7.5151332"><ele>506.0</ele><time>2026-04-25T10:01:22.043Z</time></trkpt><trkpt lat="42.3763788" lon="-7.5150291"><ele>506.6666666666667</ele><time>2026-04-25T10:01:23.045Z</time></trkpt><trkpt lat="42.376352" lon="-7.514917"><ele>507.33333333333337</ele><time>2026-04-25T10:01:24.044Z</time></trkpt><trkpt lat="42.3763296" lon="-7.5148116"><ele>508.0</ele><time>2026-04-25T10:01:25.045Z</time></trkpt><trkpt lat="42.3763021" lon="-7.5147006"><ele>515.8</ele><time>2026-04-25T10:01:26.04Z</time></trkpt><trkpt lat="42.3762656" lon="-7.5145735"><ele>523.5999999999999</ele><time>2026-04-25T10:01:27.041Z</time></trkpt><trkpt lat="42.3762303" lon="-7.5144425"><ele>531.4000000000001</ele><time>2026-04-25T10:01:28.044Z</time></trkpt><trkpt lat="42.3761828" lon="-7.5143056"><ele>539.2</ele><time>2026-04-25T10:01:29.041Z</time></trkpt><trkpt lat="42.3761398" lon="-7.5141996"><ele>547.0</ele><time>2026-04-25T10:01:30.045Z</time></trkpt><trkpt lat="42.3760925" lon="-7.5141211"><ele>547.0</ele><time>2026-04-25T10:01:31.048Z</time></trkpt><trkpt lat="42.376049" lon="-7.5140389"><ele>547.0</ele><time>2026-04-25T10:01:32.044Z</time></trkpt><trkpt lat="42.3760035" lon="-7.5139494"><ele>547.0</ele><time>2026-04-25T10:01:33.047Z</time></trkpt><trkpt lat="42.3759655" lon="-7.5138775"><ele>547.0</ele><time>2026-04-25T10:01:34.045Z</time></trkpt><trkpt lat="42.3759118" lon="-7.5137615"><ele>547.0</ele><time>2026-04-25T10:01:36.039Z</time></trkpt><trkpt lat="42.3759619" lon="-7.5136123"><ele>547.0</ele><time>2026-04-25T10:01:38.053Z</time></trkpt><trkpt lat="42.3760166" lon="-7.5134816"><ele>547.0</ele><time>2026-04-25T10:01:39.046Z</time></trkpt><trkpt lat="42.3760567" lon="-7.5133597"><ele>547.0</ele><time>2026-04-25T10:01:40.046Z</time></trkpt><trkpt lat="42.3760868" lon="-7.5132495"><ele>547.0</ele><time>2026-04-25T10:01:41.045Z</time></trkpt><trkpt lat="42.3761002" lon="-7.5131256"><ele>547.0</ele><time>2026-04-25T10:01:42.043Z</time></trkpt><trkpt lat="42.3761111" lon="-7.5130023"><ele>547.0</ele><time>2026-04-25T10:01:43.041Z</time></trkpt><trkpt lat="42.376109" lon="-7.5128916"><ele>547.8333333333334</ele><time>2026-04-25T10:01:44.051Z</time></trkpt><trkpt lat="42.3761072" lon="-7.5127861"><ele>548.6666666666667</ele><time>2026-04-25T10:01:45.041Z</time></trkpt><trkpt lat="42.3761016" lon="-7.512685"><ele>549.5</ele><time>2026-04-25T10:01:46.047Z</time></trkpt><trkpt lat="42.3761257" lon="-7.5125314"><ele>550.3333333333334</ele><time>2026-04-25T10:01:48.044Z</time></trkpt><trkpt lat="42.3761844" lon="-7.5124781"><ele>551.1666666666666</ele><time>2026-04-25T10:01:49.044Z</time></trkpt><trkpt lat="42.3762464" lon="-7.5124289"><ele>552.0</ele><time>2026-04-25T10:01:50.039Z</time></trkpt><trkpt lat="42.376308" lon="-7.512365"><ele>547.1666666666666</ele><time>2026-04-25T10:01:51.042Z</time></trkpt><trkpt lat="42.3763625" lon="-7.5122965"><ele>542.3333333333334</ele><time>2026-04-25T10:01:52.045Z</time></trkpt><trkpt lat="42.376409" lon="-7.512188"><ele>537.5</ele><time>2026-04-25T10:01:54.044Z</time></trkpt><trkpt lat="42.3763951" lon="-7.5120363"><ele>532.6666666666667</ele><time>2026-04-25T10:01:56.055Z</time></trkpt><trkpt lat="42.3763958" lon="-7.5119359"><ele>527.8333333333334</ele><time>2026-04-25T10:01:57.049Z</time></trkpt><trkpt lat="42.3764059" lon="-7.5118156"><ele>523.0</ele><time>2026-04-25T10:01:58.048Z</time></trkpt><trkpt lat="42.3764145" lon="-7.5116872"><ele>523.0</ele><time>2026-04-25T10:01:59.041Z</time></trkpt><trkpt lat="42.376429" lon="-7.5115677"><ele>523.0</ele><time>2026-04-25T10:02:00.045Z</time></trkpt><trkpt lat="42.3764295" lon="-7.5114365"><ele>523.0</ele><time>2026-04-25T10:02:01.042Z</time></trkpt><trkpt lat="42.376433" lon="-7.5113348"><ele>523.0</ele><time>2026-04-25T10:02:02.038Z</time></trkpt><trkpt lat="42.3764445" lon="-7.5112256"><ele>523.0</ele><time>2026-04-25T10:02:03.05Z</time></trkpt><trkpt lat="42.3764642" lon="-7.5110978"><ele>523.0</ele><time>2026-04-25T10:02:04.042Z</time></trkpt><trkpt lat="42.3764724" lon="-7.5110062"><ele>524.4285714285713</ele><time>2026-04-25T10:02:05.047Z</time></trkpt><trkpt lat="42.3764736" lon="-7.5109139"><ele>525.8571428571429</ele><time>2026-04-25T10:02:06.045Z</time></trkpt><trkpt lat="42.3764558" lon="-7.5108055"><ele>527.2857142857142</ele><time>2026-04-25T10:02:07.042Z</time></trkpt><trkpt lat="42.3764255" lon="-7.5107046"><ele>528.7142857142857</ele><time>2026-04-25T10:02:08.062Z</time></trkpt><trkpt lat="42.3763917" lon="-7.5106259"><ele>530.1428571428571</ele><time>2026-04-25T10:02:09.043Z</time></trkpt><trkpt lat="42.3763537" lon="-7.510557"><ele>531.5714285714286</ele><time>2026-04-25T10:02:10.05Z</time></trkpt><trkpt lat="42.3763094" lon="-7.5104926"><ele>533.0</ele><time>2026-04-25T10:02:11.047Z</time></trkpt><trkpt lat="42.3762522" lon="-7.510434"><ele>540.1666666666666</ele><time>2026-04-25T10:02:12.041Z</time></trkpt><trkpt lat="42.3761968" lon="-7.5103573"><ele>547.3333333333333</ele><time>2026-04-25T10:02:13.047Z</time></trkpt><trkpt lat="42.3761374" lon="-7.5102648"><ele>554.5</ele><time>2026-04-25T10:02:14.046Z</time></trkpt><trkpt lat="42.3760942" lon="-7.5101879"><ele>561.6666666666666</ele><time>2026-04-25T10:02:15.041Z</time></trkpt><trkpt lat="42.3760329" lon="-7.5100621"><ele>568.8333333333334</ele><time>2026-04-25T10:02:17.047Z</time></trkpt><trkpt lat="42.3759659" lon="-7.5099679"><ele>576.0</ele><time>2026-04-25T10:02:19.048Z</time></trkpt><trkpt lat="42.375903" lon="-7.5098898"><ele>576.0</ele><time>2026-04-25T10:02:21.053Z</time></trkpt><trkpt lat="42.3758425" lon="-7.5098412"><ele>576.0</ele><time>2026-04-25T10:02:24.047Z</time></trkpt><trkpt lat="42.375835" lon="-7.5097428"><ele>576.0</ele><time>2026-04-25T10:02:27.041Z</time></trkpt><trkpt lat="42.3759042" lon="-7.5097249"><ele>576.0</ele><time>2026-04-25T10:02:29.035Z</time></trkpt><trkpt lat="42.3759002" lon="-7.5095669"><ele>576.0</ele><time>2026-04-25T10:02:30.047Z</time></trkpt><trkpt lat="42.3759104" lon="-7.5094351"><ele>576.0</ele><time>2026-04-25T10:02:31.044Z</time></trkpt><trkpt lat="42.3759284" lon="-7.5093051"><ele>576.2</ele><time>2026-04-25T10:02:32.052Z</time></trkpt><trkpt lat="42.3759471" lon="-7.5091679"><ele>576.4000000000001</ele><time>2026-04-25T10:02:33.048Z</time></trkpt><trkpt lat="42.3759695" lon="-7.5090449"><ele>576.6</ele><time>2026-04-25T10:02:34.049Z</time></trkpt><trkpt lat="42.3759862" lon="-7.508953"><ele>576.8000000000001</ele><time>2026-04-25T10:02:35.04Z</time></trkpt><trkpt lat="42.3759917" lon="-7.5088034"><ele>577.0</ele><time>2026-04-25T10:02:37.043Z</time></trkpt><trkpt lat="42.3759941" lon="-7.5086615"><ele>577.1666666666667</ele><time>2026-04-25T10:02:39.048Z</time></trkpt><trkpt lat="42.3759956" lon="-7.5085761"><ele>577.3333333333334</ele><time>2026-04-25T10:02:40.046Z</time></trkpt><trkpt lat="42.3759776" lon="-7.5084153"><ele>577.5</ele><time>2026-04-25T10:02:42.045Z</time></trkpt><trkpt lat="42.3759494" lon="-7.5083391"><ele>577.6666666666666</ele><time>2026-04-25T10:02:43.042Z</time></trkpt><trkpt lat="42.3759167" lon="-7.5082633"><ele>577.8333333333333</ele><time>2026-04-25T10:02:44.043Z</time></trkpt><trkpt lat="42.3758759" lon="-7.508178"><ele>578.0</ele><time>2026-04-25T10:02:45.038Z</time></trkpt><trkpt lat="42.3758315" lon="-7.508103"><ele>578.0</ele><time>2026-04-25T10:02:46.044Z</time></trkpt><trkpt lat="42.3757869" lon="-7.5080386"><ele>578.0</ele><time>2026-04-25T10:02:47.041Z</time></trkpt><trkpt lat="42.3757048" lon="-7.5079511"><ele>578.0</ele><time>2026-04-25T10:02:49.043Z</time></trkpt><trkpt lat="42.3756544" lon="-7.5078458"><ele>578.0</ele><time>2026-04-25T10:02:51.064Z</time></trkpt><trkpt lat="42.3756526" lon="-7.5077221"><ele>578.0</ele><time>2026-04-25T10:03:03.035Z</time></trkpt><trkpt lat="42.3756721" lon="-7.5075923"><ele>577.8333333333333</ele><time>2026-04-25T10:03:06.04Z</time></trkpt><trkpt lat="42.3757254" lon="-7.5074896"><ele>577.6666666666666</ele><time>2026-04-25T10:03:08.054Z</time></trkpt><trkpt lat="42.375783" lon="-7.5074076"><ele>577.5</ele><time>2026-04-25T10:03:10.048Z</time></trkpt><trkpt lat="42.375835" lon="-7.5073279"><ele>577.3333333333334</ele><time>2026-04-25T10:03:12.044Z</time></trkpt><trkpt lat="42.37591" lon="-7.5072415"><ele>577.1666666666667</ele><time>2026-04-25T10:03:15.039Z</time></trkpt><trkpt lat="42.3759784" lon="-7.5071605"><ele>577.0</ele><time>2026-04-25T10:03:17.04Z</time></trkpt><trkpt lat="42.3760531" lon="-7.5070657"><ele>579.6</ele><time>2026-04-25T10:03:19.038Z</time></trkpt><trkpt lat="42.3761215" lon="-7.5069432"><ele>582.2</ele><time>2026-04-25T10:03:21.045Z</time></trkpt><trkpt lat="42.3761637" lon="-7.5068508"><ele>584.8</ele><time>2026-04-25T10:03:23.044Z</time></trkpt><trkpt lat="42.3762252" lon="-7.5067752"><ele>587.4</ele><time>2026-04-25T10:03:25.041Z</time></trkpt><trkpt lat="42.3763214" lon="-7.5066999"><ele>590.0</ele><time>2026-04-25T10:03:27.045Z</time></trkpt><trkpt lat="42.3764237" lon="-7.5066473"><ele>583.6666666666666</ele><time>2026-04-25T10:03:29.048Z</time></trkpt><trkpt lat="42.3764801" lon="-7.5066078"><ele>577.3333333333333</ele><time>2026-04-25T10:03:30.048Z</time></trkpt><trkpt lat="42.3765471" lon="-7.5065649"><ele>571.0</ele><time>2026-04-25T10:03:31.044Z</time></trkpt><trkpt lat="42.3766061" lon="-7.5065257"><ele>564.6666666666666</ele><time>2026-04-25T10:03:32.058Z</time></trkpt><trkpt lat="42.3767058" lon="-7.5064626"><ele>558.3333333333334</ele><time>2026-04-25T10:03:34.043Z</time></trkpt><trkpt lat="42.3768185" lon="-7.5063767"><ele>552.0</ele><time>2026-04-25T10:03:36.038Z</time></trkpt><trkpt lat="42.3768823" lon="-7.50633"><ele>552.0</ele><time>2026-04-25T10:03:37.044Z</time></trkpt><trkpt lat="42.3769385" lon="-7.5062821"><ele>552.0</ele><time>2026-04-25T10:03:38.055Z</time></trkpt><trkpt lat="42.3769955" lon="-7.5062284"><ele>552.0</ele><time>2026-04-25T10:03:39.046Z</time></trkpt><trkpt lat="42.3770881" lon="-7.5061509"><ele>552.0</ele><time>2026-04-25T10:03:41.044Z</time></trkpt><trkpt lat="42.3771529" lon="-7.5060892"><ele>552.0</ele><time>2026-04-25T10:03:43.042Z</time></trkpt><trkpt lat="42.3771973" lon="-7.5060287"><ele>552.0</ele><time>2026-04-25T10:03:45.047Z</time></trkpt><trkpt lat="42.3772476" lon="-7.5059431"><ele>550.8333333333334</ele><time>2026-04-25T10:03:47.056Z</time></trkpt><trkpt lat="42.377306" lon="-7.5058719"><ele>549.6666666666666</ele><time>2026-04-25T10:03:49.045Z</time></trkpt><trkpt lat="42.3773529" lon="-7.5058023"><ele>548.5</ele><time>2026-04-25T10:03:51.049Z</time></trkpt><trkpt lat="42.3774098" lon="-7.5057178"><ele>547.3333333333333</ele><time>2026-04-25T10:03:53.045Z</time></trkpt><trkpt lat="42.3774551" lon="-7.5055976"><ele>546.1666666666666</ele><time>2026-04-25T10:03:55.057Z</time></trkpt><trkpt lat="42.3775213" lon="-7.5054854"><ele>545.0</ele><time>2026-04-25T10:03:57.054Z</time></trkpt><trkpt lat="42.3775983" lon="-7.5053905"><ele>545.0</ele><time>2026-04-25T10:03:59.046Z</time></trkpt><trkpt lat="42.3776951" lon="-7.5053228"><ele>545.0</ele><time>2026-04-25T10:04:01.052Z</time></trkpt><trkpt lat="42.3777829" lon="-7.5052299"><ele>545.0</ele><time>2026-04-25T10:04:03.051Z</time></trkpt><trkpt lat="42.377873" lon="-7.5051428"><ele>545.0</ele><time>2026-04-25T10:04:05.047Z</time></trkpt><trkpt lat="42.3779501" lon="-7.5050874"><ele>545.0</ele><time>2026-04-25T10:04:07.046Z</time></trkpt><trkpt lat="42.3780209" lon="-7.505063"><ele>545.0</ele><time>2026-04-25T10:04:10.048Z</time></trkpt><trkpt lat="42.3780765" lon="-7.5050056"><ele>545.0</ele><time>2026-04-25T10:04:17.049Z</time></trkpt><trkpt lat="42.3781472" lon="-7.504924"><ele>545.0</ele><time>2026-04-25T10:04:20.052Z</time></trkpt><trkpt lat="42.3781987" lon="-7.5048652"><ele>545.0</ele><time>2026-04-25T10:04:31.044Z</time></trkpt><trkpt lat="42.3781484" lon="-7.5049261"><ele>545.0</ele><time>2026-04-25T10:05:18.039Z</time></trkpt><trkpt lat="42.378099" lon="-7.504985"><ele>545.0</ele><time>2026-04-25T10:05:23.044Z</time></trkpt><trkpt lat="42.3780493" lon="-7.5050415"><ele>545.0</ele><time>2026-04-25T10:05:28.05Z</time></trkpt><trkpt lat="42.377984" lon="-7.5050956"><ele>545.0</ele><time>2026-04-25T10:05:31.055Z</time></trkpt><trkpt lat="42.3779335" lon="-7.5051569"><ele>545.0</ele><time>2026-04-25T10:05:34.047Z</time></trkpt><trkpt lat="42.3779031" lon="-7.5052679"><ele>545.0</ele><time>2026-04-25T10:05:37.041Z</time></trkpt><trkpt lat="42.3779704" lon="-7.5053191"><ele>545.0</ele><time>2026-04-25T10:05:40.042Z</time></trkpt><trkpt lat="42.3780523" lon="-7.5052665"><ele>545.0</ele><time>2026-04-25T10:05:42.06Z</time></trkpt><trkpt lat="42.3781521" lon="-7.5051851"><ele>545.0</ele><time>2026-04-25T10:05:44.045Z</time></trkpt><trkpt lat="42.3782119" lon="-7.5051399"><ele>543.0</ele><time>2026-04-25T10:05:45.042Z</time></trkpt><trkpt lat="42.3782704" lon="-7.505091"><ele>541.0</ele><time>2026-04-25T10:05:46.045Z</time></trkpt><trkpt lat="42.3783587" lon="-7.5049773"><ele>539.0</ele><time>2026-04-25T10:05:48.038Z</time></trkpt><trkpt lat="42.3784384" lon="-7.5048557"><ele>537.0</ele><time>2026-04-25T10:05:50.041Z</time></trkpt><trkpt lat="42.3784838" lon="-7.5047958"><ele>535.0</ele><time>2026-04-25T10:05:51.051Z</time></trkpt><trkpt lat="42.3785333" lon="-7.504736"><ele>533.0</ele><time>2026-04-25T10:05:52.045Z</time></trkpt><trkpt lat="42.3786255" lon="-7.5046325"><ele>534.75</ele><time>2026-04-25T10:05:54.057Z</time></trkpt><trkpt lat="42.3787136" lon="-7.5045321"><ele>536.5</ele><time>2026-04-25T10:05:56.057Z</time></trkpt><trkpt lat="42.3788082" lon="-7.5044207"><ele>538.25</ele><time>2026-04-25T10:05:58.049Z</time></trkpt><trkpt lat="42.3788904" lon="-7.5043043"><ele>540.0</ele><time>2026-04-25T10:06:00.041Z</time></trkpt><trkpt lat="42.3789717" lon="-7.5041837"><ele>537.0</ele><time>2026-04-25T10:06:02.046Z</time></trkpt><trkpt lat="42.3790099" lon="-7.5041159"><ele>534.0</ele><time>2026-04-25T10:06:03.057Z</time></trkpt><trkpt lat="42.3790471" lon="-7.5040441"><ele>531.0</ele><time>2026-04-25T10:06:04.048Z</time></trkpt><trkpt lat="42.3790817" lon="-7.5039727"><ele>528.0</ele><time>2026-04-25T10:06:05.061Z</time></trkpt><trkpt lat="42.379145" lon="-7.5038347"><ele>525.0</ele><time>2026-04-25T10:06:07.049Z</time></trkpt><trkpt lat="42.3792103" lon="-7.503697"><ele>522.0</ele><time>2026-04-25T10:06:09.049Z</time></trkpt><trkpt lat="42.379247" lon="-7.5036219"><ele>522.0</ele><time>2026-04-25T10:06:10.053Z</time></trkpt><trkpt lat="42.3792829" lon="-7.503543"><ele>522.0</ele><time>2026-04-25T10:06:11.05Z</time></trkpt><trkpt lat="42.3793141" lon="-7.5034608"><ele>522.0</ele><time>2026-04-25T10:06:12.072Z</time></trkpt><trkpt lat="42.379343" lon="-7.5033771"><ele>522.0</ele><time>2026-04-25T10:06:13.048Z</time></trkpt><trkpt lat="42.3793712" lon="-7.5032933"><ele>522.0</ele><time>2026-04-25T10:06:14.043Z</time></trkpt><trkpt lat="42.3793973" lon="-7.5032075"><ele>522.0</ele><time>2026-04-25T10:06:15.043Z</time></trkpt><trkpt lat="42.3794178" lon="-7.5031185"><ele>522.0</ele><time>2026-04-25T10:06:16.049Z</time></trkpt><trkpt lat="42.3794292" lon="-7.5030237"><ele>522.0</ele><time>2026-04-25T10:06:17.044Z</time></trkpt><trkpt lat="42.3794336" lon="-7.502925"><ele>522.0</ele><time>2026-04-25T10:06:18.041Z</time></trkpt><trkpt lat="42.3794319" lon="-7.5028247"><ele>522.0</ele><time>2026-04-25T10:06:19.042Z</time></trkpt><trkpt lat="42.3794256" lon="-7.5027239"><ele>522.0</ele><time>2026-04-25T10:06:20.043Z</time></trkpt><trkpt lat="42.3794166" lon="-7.50262"><ele>522.0</ele><time>2026-04-25T10:06:21.056Z</time></trkpt><trkpt lat="42.3794033" lon="-7.5025082"><ele>522.0</ele><time>2026-04-25T10:06:22.043Z</time></trkpt><trkpt lat="42.3793819" lon="-7.5023918"><ele>519.6666666666666</ele><time>2026-04-25T10:06:23.043Z</time></trkpt><trkpt lat="42.3793478" lon="-7.502285"><ele>517.3333333333334</ele><time>2026-04-25T10:06:24.037Z</time></trkpt><trkpt lat="42.3793127" lon="-7.5021797"><ele>515.0</ele><time>2026-04-25T10:06:25.053Z</time></trkpt><trkpt lat="42.3792663" lon="-7.5020773"><ele>512.6666666666667</ele><time>2026-04-25T10:06:26.041Z</time></trkpt><trkpt lat="42.3792208" lon="-7.5019802"><ele>510.33333333333337</ele><time>2026-04-25T10:06:27.046Z</time></trkpt><trkpt lat="42.3791758" lon="-7.5018862"><ele>508.0</ele><time>2026-04-25T10:06:28.048Z</time></trkpt><trkpt lat="42.3791233" lon="-7.5018014"><ele>504.83333333333337</ele><time>2026-04-25T10:06:29.061Z</time></trkpt><trkpt lat="42.3790611" lon="-7.5017373"><ele>501.6666666666667</ele><time>2026-04-25T10:06:30.048Z</time></trkpt><trkpt lat="42.3789937" lon="-7.5016892"><ele>498.5</ele><time>2026-04-25T10:06:31.047Z</time></trkpt><trkpt lat="42.3789263" lon="-7.5016461"><ele>495.33333333333337</ele><time>2026-04-25T10:06:32.046Z</time></trkpt><trkpt lat="42.3788652" lon="-7.501601"><ele>492.1666666666667</ele><time>2026-04-25T10:06:33.04Z</time></trkpt><trkpt lat="42.3787688" lon="-7.501502"><ele>489.0</ele><time>2026-04-25T10:06:35.045Z</time></trkpt><trkpt lat="42.3787455" lon="-7.501362"><ele>489.0</ele><time>2026-04-25T10:06:37.049Z</time></trkpt><trkpt lat="42.3787952" lon="-7.5012564"><ele>489.0</ele><time>2026-04-25T10:06:39.037Z</time></trkpt><trkpt lat="42.37889" lon="-7.5012611"><ele>489.0</ele><time>2026-04-25T10:06:41.042Z</time></trkpt><trkpt lat="42.3789809" lon="-7.5013291"><ele>489.0</ele><time>2026-04-25T10:06:43.044Z</time></trkpt><trkpt lat="42.3790908" lon="-7.5014099"><ele>489.0</ele><time>2026-04-25T10:06:45.043Z</time></trkpt><trkpt lat="42.3791556" lon="-7.5014578"><ele>489.0</ele><time>2026-04-25T10:06:46.048Z</time></trkpt><trkpt lat="42.3792229" lon="-7.5015045"><ele>489.0</ele><time>2026-04-25T10:06:47.046Z</time></trkpt><trkpt lat="42.3792932" lon="-7.5015507"><ele>489.0</ele><time>2026-04-25T10:06:48.04Z</time></trkpt><trkpt lat="42.3793643" lon="-7.5015978"><ele>489.0</ele><time>2026-04-25T10:06:49.045Z</time></trkpt><trkpt lat="42.3794378" lon="-7.5016565"><ele>489.0</ele><time>2026-04-25T10:06:50.048Z</time></trkpt><trkpt lat="42.3795122" lon="-7.5017168"><ele>489.0</ele><time>2026-04-25T10:06:51.042Z</time></trkpt><trkpt lat="42.3795842" lon="-7.5017771"><ele>489.0</ele><time>2026-04-25T10:06:52.055Z</time></trkpt><trkpt lat="42.3796545" lon="-7.5018386"><ele>489.0</ele><time>2026-04-25T10:06:53.046Z</time></trkpt><trkpt lat="42.3797328" lon="-7.501907"><ele>489.0</ele><time>2026-04-25T10:06:54.04Z</time></trkpt><trkpt lat="42.3798185" lon="-7.5019863"><ele>489.0</ele><time>2026-04-25T10:06:55.043Z</time></trkpt><trkpt lat="42.3799088" lon="-7.5020823"><ele>489.0</ele><time>2026-04-25T10:06:56.052Z</time></trkpt><trkpt lat="42.3799794" lon="-7.5021893"><ele>486.4</ele><time>2026-04-25T10:06:57.039Z</time></trkpt><trkpt lat="42.3800404" lon="-7.5023017"><ele>483.79999999999995</ele><time>2026-04-25T10:06:58.039Z</time></trkpt><trkpt lat="42.3800984" lon="-7.5024148"><ele>481.20000000000005</ele><time>2026-04-25T10:06:59.038Z</time></trkpt><trkpt lat="42.3801553" lon="-7.5025341"><ele>478.6</ele><time>2026-04-25T10:07:00.041Z</time></trkpt><trkpt lat="42.3802075" lon="-7.5026518"><ele>476.0</ele><time>2026-04-25T10:07:01.042Z</time></trkpt><trkpt lat="42.3802535" lon="-7.502773"><ele>475.99999999999994</ele><time>2026-04-25T10:07:02.041Z</time></trkpt><trkpt lat="42.3802931" lon="-7.5028795"><ele>476.0</ele><time>2026-04-25T10:07:03.046Z</time></trkpt><trkpt lat="42.3803458" lon="-7.5030086"><ele>476.0</ele><time>2026-04-25T10:07:05.046Z</time></trkpt><trkpt lat="42.3804185" lon="-7.5029688"><ele>476.0</ele><time>2026-04-25T10:07:07.047Z</time></trkpt><trkpt lat="42.3804163" lon="-7.5028485"><ele>475.99999999999994</ele><time>2026-04-25T10:07:09.049Z</time></trkpt><trkpt lat="42.3803992" lon="-7.5027656"><ele>476.0</ele><time>2026-04-25T10:07:10.049Z</time></trkpt><trkpt lat="42.38038" lon="-7.5026679"><ele>475.99999999999994</ele><time>2026-04-25T10:07:11.059Z</time></trkpt><trkpt lat="42.3803673" lon="-7.5025706"><ele>476.0</ele><time>2026-04-25T10:07:12.044Z</time></trkpt><trkpt lat="42.3803542" lon="-7.5024791"><ele>476.0</ele><time>2026-04-25T10:07:13.046Z</time></trkpt><trkpt lat="42.3803283" lon="-7.502323"><ele>476.0</ele><time>2026-04-25T10:07:15.047Z</time></trkpt><trkpt lat="42.3803067" lon="-7.5022331"><ele>475.99999999999994</ele><time>2026-04-25T10:07:16.049Z</time></trkpt><trkpt lat="42.3802755" lon="-7.5021365"><ele>476.0</ele><time>2026-04-25T10:07:17.038Z</time></trkpt><trkpt lat="42.3802377" lon="-7.5020378"><ele>472.4</ele><time>2026-04-25T10:07:18.044Z</time></trkpt><trkpt lat="42.3801934" lon="-7.5019376"><ele>468.8</ele><time>2026-04-25T10:07:19.047Z</time></trkpt><trkpt lat="42.3801431" lon="-7.5018385"><ele>465.19999999999993</ele><time>2026-04-25T10:07:20.041Z</time></trkpt><trkpt lat="42.3800878" lon="-7.5017401"><ele>461.59999999999997</ele><time>2026-04-25T10:07:21.059Z</time></trkpt><trkpt lat="42.3800262" lon="-7.5016457"><ele>458.0</ele><time>2026-04-25T10:07:22.046Z</time></trkpt><trkpt lat="42.3799597" lon="-7.5015511"><ele>458.0</ele><time>2026-04-25T10:07:23.044Z</time></trkpt><trkpt lat="42.379888" lon="-7.5014508"><ele>457.99999999999994</ele><time>2026-04-25T10:07:24.04Z</time></trkpt><trkpt lat="42.3798115" lon="-7.5013456"><ele>457.99999999999994</ele><time>2026-04-25T10:07:25.046Z</time></trkpt><trkpt lat="42.3797295" lon="-7.501242"><ele>458.0</ele><time>2026-04-25T10:07:26.041Z</time></trkpt><trkpt lat="42.3796494" lon="-7.5011481"><ele>458.0</ele><time>2026-04-25T10:07:27.045Z</time></trkpt><trkpt lat="42.3795753" lon="-7.5010602"><ele>458.66666666666663</ele><time>2026-04-25T10:07:28.044Z</time></trkpt><trkpt lat="42.3795106" lon="-7.500978"><ele>459.3333333333333</ele><time>2026-04-25T10:07:29.044Z</time></trkpt><trkpt lat="42.37945" lon="-7.5009015"><ele>460.0</ele><time>2026-04-25T10:07:30.043Z</time></trkpt><trkpt lat="42.3794015" lon="-7.5008236"><ele>460.66666666666663</ele><time>2026-04-25T10:07:31.043Z</time></trkpt><trkpt lat="42.3793541" lon="-7.5007302"><ele>461.3333333333333</ele><time>2026-04-25T10:07:32.046Z</time></trkpt><trkpt lat="42.3793112" lon="-7.5006376"><ele>462.0</ele><time>2026-04-25T10:07:33.045Z</time></trkpt><trkpt lat="42.3792779" lon="-7.5005364"><ele>462.0</ele><time>2026-04-25T10:07:34.043Z</time></trkpt><trkpt lat="42.379249" lon="-7.5004379"><ele>462.0</ele><time>2026-04-25T10:07:35.051Z</time></trkpt><trkpt lat="42.3792182" lon="-7.5003496"><ele>462.0</ele><time>2026-04-25T10:07:36.041Z</time></trkpt><trkpt lat="42.3791824" lon="-7.5002734"><ele>462.0</ele><time>2026-04-25T10:07:37.038Z</time></trkpt><trkpt lat="42.3791399" lon="-7.5001489"><ele>462.0</ele><time>2026-04-25T10:07:39.045Z</time></trkpt><trkpt lat="42.3792216" lon="-7.5001167"><ele>462.0</ele><time>2026-04-25T10:07:41.048Z</time></trkpt><trkpt lat="42.3792988" lon="-7.5002357"><ele>462.0</ele><time>2026-04-25T10:07:43.044Z</time></trkpt><trkpt lat="42.3793468" lon="-7.5003404"><ele>462.0</ele><time>2026-04-25T10:07:44.042Z</time></trkpt><trkpt lat="42.3794245" lon="-7.5005003"><ele>462.0</ele><time>2026-04-25T10:07:45.052Z</time></trkpt><trkpt lat="42.3795264" lon="-7.5006671"><ele>462.0</ele><time>2026-04-25T10:07:46.037Z</time></trkpt><trkpt lat="42.3796545" lon="-7.5008187"><ele>450.33333333333337</ele><time>2026-04-25T10:07:47.046Z</time></trkpt><trkpt lat="42.3797774" lon="-7.5009618"><ele>438.6666666666667</ele><time>2026-04-25T10:07:48.049Z</time></trkpt><trkpt lat="42.3799019" lon="-7.5010673"><ele>427.0</ele><time>2026-04-25T10:07:49.053Z</time></trkpt><trkpt lat="42.3800187" lon="-7.5011745"><ele>434.75</ele><time>2026-04-25T10:07:50.042Z</time></trkpt><trkpt lat="42.3801286" lon="-7.5012839"><ele>442.5</ele><time>2026-04-25T10:07:51.043Z</time></trkpt><trkpt lat="42.3802413" lon="-7.5013858"><ele>450.25</ele><time>2026-04-25T10:07:52.046Z</time></trkpt><trkpt lat="42.3803389" lon="-7.5014959"><ele>458.0</ele><time>2026-04-25T10:07:53.042Z</time></trkpt><trkpt lat="42.3804375" lon="-7.501597"><ele>449.0</ele><time>2026-04-25T10:07:54.043Z</time></trkpt><trkpt lat="42.3805323" lon="-7.5016737"><ele>439.99999999999994</ele><time>2026-04-25T10:07:55.05Z</time></trkpt><trkpt lat="42.3806155" lon="-7.5017415"><ele>431.0</ele><time>2026-04-25T10:07:56.046Z</time></trkpt><trkpt lat="42.3806857" lon="-7.5018227"><ele>422.0</ele><time>2026-04-25T10:07:57.043Z</time></trkpt><trkpt lat="42.3807392" lon="-7.501922"><ele>413.0</ele><time>2026-04-25T10:07:58.044Z</time></trkpt><trkpt lat="42.3807727" lon="-7.5020743"><ele>418.0</ele><time>2026-04-25T10:07:59.05Z</time></trkpt><trkpt lat="42.3808027" lon="-7.5022521"><ele>423.0</ele><time>2026-04-25T10:08:00.042Z</time></trkpt><trkpt lat="42.3808329" lon="-7.5024146"><ele>428.0</ele><time>2026-04-25T10:08:01.041Z</time></trkpt><trkpt lat="42.3808808" lon="-7.5025474"><ele>433.0</ele><time>2026-04-25T10:08:02.048Z</time></trkpt><trkpt lat="42.3809352" lon="-7.5026751"><ele>433.0</ele><time>2026-04-25T10:08:03.044Z</time></trkpt><trkpt lat="42.3810043" lon="-7.5027675"><ele>432.99999999999994</ele><time>2026-04-25T10:08:04.042Z</time></trkpt><trkpt lat="42.3810974" lon="-7.5028508"><ele>432.99999999999994</ele><time>2026-04-25T10:08:05.04Z</time></trkpt><trkpt lat="42.3812022" lon="-7.502919"><ele>433.0</ele><time>2026-04-25T10:08:06.037Z</time></trkpt><trkpt lat="42.3813108" lon="-7.5029916"><ele>433.0</ele><time>2026-04-25T10:08:07.043Z</time></trkpt><trkpt lat="42.3814205" lon="-7.5030574"><ele>428.4</ele><time>2026-04-25T10:08:08.049Z</time></trkpt><trkpt lat="42.3815106" lon="-7.503138"><ele>423.79999999999995</ele><time>2026-04-25T10:08:09.049Z</time></trkpt><trkpt lat="42.3815725" lon="-7.5032507"><ele>419.2</ele><time>2026-04-25T10:08:10.049Z</time></trkpt><trkpt lat="42.3816377" lon="-7.503363"><ele>414.6</ele><time>2026-04-25T10:08:11.047Z</time></trkpt><trkpt lat="42.3817081" lon="-7.5034573"><ele>410.0</ele><time>2026-04-25T10:08:12.047Z</time></trkpt><trkpt lat="42.381782" lon="-7.5035406"><ele>409.99999999999994</ele><time>2026-04-25T10:08:13.047Z</time></trkpt><trkpt lat="42.3818627" lon="-7.503598"><ele>410.0</ele><time>2026-04-25T10:08:14.039Z</time></trkpt><trkpt lat="42.3819436" lon="-7.5036541"><ele>410.0</ele><time>2026-04-25T10:08:15.037Z</time></trkpt><trkpt lat="42.3820188" lon="-7.5036899"><ele>410.0</ele><time>2026-04-25T10:08:16.045Z</time></trkpt><trkpt lat="42.3820871" lon="-7.5037448"><ele>409.99999999999994</ele><time>2026-04-25T10:08:17.04Z</time></trkpt><trkpt lat="42.3821502" lon="-7.5038167"><ele>410.0</ele><time>2026-04-25T10:08:18.04Z</time></trkpt><trkpt lat="42.3822112" lon="-7.5038891"><ele>406.66666666666663</ele><time>2026-04-25T10:08:19.042Z</time></trkpt><trkpt lat="42.382277" lon="-7.5039696"><ele>403.3333333333333</ele><time>2026-04-25T10:08:20.045Z</time></trkpt><trkpt lat="42.3823423" lon="-7.5040485"><ele>400.0</ele><time>2026-04-25T10:08:21.04Z</time></trkpt><trkpt lat="42.3824107" lon="-7.5041236"><ele>396.66666666666663</ele><time>2026-04-25T10:08:22.038Z</time></trkpt><trkpt lat="42.3824794" lon="-7.5041979"><ele>393.3333333333333</ele><time>2026-04-25T10:08:23.046Z</time></trkpt><trkpt lat="42.3825481" lon="-7.5042677"><ele>390.0</ele><time>2026-04-25T10:08:24.046Z</time></trkpt><trkpt lat="42.3826045" lon="-7.504334"><ele>390.0</ele><time>2026-04-25T10:08:25.053Z</time></trkpt><trkpt lat="42.382636" lon="-7.5044142"><ele>390.0</ele><time>2026-04-25T10:08:26.045Z</time></trkpt><trkpt lat="42.3826333" lon="-7.5045024"><ele>390.0</ele><time>2026-04-25T10:08:27.045Z</time></trkpt><trkpt lat="42.3826035" lon="-7.5045825"><ele>390.0</ele><time>2026-04-25T10:08:28.045Z</time></trkpt><trkpt lat="42.3825635" lon="-7.5046988"><ele>390.0</ele><time>2026-04-25T10:08:30.047Z</time></trkpt><trkpt lat="42.3826237" lon="-7.5047516"><ele>390.0</ele><time>2026-04-25T10:08:33.057Z</time></trkpt><trkpt lat="42.3827079" lon="-7.5046655"><ele>390.0</ele><time>2026-04-25T10:08:35.051Z</time></trkpt><trkpt lat="42.3827657" lon="-7.5045855"><ele>390.0</ele><time>2026-04-25T10:08:36.083Z</time></trkpt><trkpt lat="42.3828336" lon="-7.5044985"><ele>390.0</ele><time>2026-04-25T10:08:37.055Z</time></trkpt><trkpt lat="42.3828853" lon="-7.5043891"><ele>390.0</ele><time>2026-04-25T10:08:38.065Z</time></trkpt><trkpt lat="42.3828888" lon="-7.5042743"><ele>390.0</ele><time>2026-04-25T10:08:39.05Z</time></trkpt><trkpt lat="42.3828433" lon="-7.5041653"><ele>390.0</ele><time>2026-04-25T10:08:40.039Z</time></trkpt><trkpt lat="42.3827656" lon="-7.5040691"><ele>390.0</ele><time>2026-04-25T10:08:41.06Z</time></trkpt><trkpt lat="42.3826746" lon="-7.5039805"><ele>390.0</ele><time>2026-04-25T10:08:42.046Z</time></trkpt><trkpt lat="42.3825876" lon="-7.5038467"><ele>390.0</ele><time>2026-04-25T10:08:43.043Z</time></trkpt><trkpt lat="42.3825243" lon="-7.503706"><ele>390.0</ele><time>2026-04-25T10:08:44.049Z</time></trkpt><trkpt lat="42.382467" lon="-7.5035624"><ele>385.75</ele><time>2026-04-25T10:08:45.041Z</time></trkpt><trkpt lat="42.3824004" lon="-7.5034197"><ele>381.5</ele><time>2026-04-25T10:08:46.041Z</time></trkpt><trkpt lat="42.382323" lon="-7.5032901"><ele>377.25</ele><time>2026-04-25T10:08:47.04Z</time></trkpt><trkpt lat="42.3822449" lon="-7.5031767"><ele>373.0</ele><time>2026-04-25T10:08:48.064Z</time></trkpt><trkpt lat="42.382172" lon="-7.5030541"><ele>376.0</ele><time>2026-04-25T10:08:49.047Z</time></trkpt><trkpt lat="42.3821052" lon="-7.5029294"><ele>379.0</ele><time>2026-04-25T10:08:50.057Z</time></trkpt><trkpt lat="42.3820759" lon="-7.5027811"><ele>382.0</ele><time>2026-04-25T10:08:51.047Z</time></trkpt><trkpt lat="42.3820373" lon="-7.502641"><ele>385.0</ele><time>2026-04-25T10:08:52.041Z</time></trkpt><trkpt lat="42.3820035" lon="-7.5025075"><ele>388.0</ele><time>2026-04-25T10:08:53.048Z</time></trkpt><trkpt lat="42.3819634" lon="-7.5023792"><ele>388.0</ele><time>2026-04-25T10:08:54.047Z</time></trkpt><trkpt lat="42.3819008" lon="-7.502287"><ele>388.0</ele><time>2026-04-25T10:08:55.039Z</time></trkpt><trkpt lat="42.3818144" lon="-7.5022417"><ele>388.0</ele><time>2026-04-25T10:08:56.045Z</time></trkpt><trkpt lat="42.3817291" lon="-7.5021939"><ele>388.0</ele><time>2026-04-25T10:08:57.046Z</time></trkpt><trkpt lat="42.3816394" lon="-7.5021339"><ele>388.0</ele><time>2026-04-25T10:08:58.045Z</time></trkpt><trkpt lat="42.3815925" lon="-7.5020279"><ele>383.25</ele><time>2026-04-25T10:08:59.041Z</time></trkpt><trkpt lat="42.3815633" lon="-7.5019177"><ele>378.5</ele><time>2026-04-25T10:09:00.042Z</time></trkpt><trkpt lat="42.3815698" lon="-7.5017655"><ele>373.75</ele><time>2026-04-25T10:09:01.051Z</time></trkpt><trkpt lat="42.3815941" lon="-7.5016072"><ele>369.0</ele><time>2026-04-25T10:09:02.041Z</time></trkpt><trkpt lat="42.3816138" lon="-7.5014265"><ele>369.0</ele><time>2026-04-25T10:09:03.05Z</time></trkpt><trkpt lat="42.3815987" lon="-7.5012674"><ele>369.0</ele><time>2026-04-25T10:09:04.04Z</time></trkpt><trkpt lat="42.3815483" lon="-7.5011389"><ele>369.0</ele><time>2026-04-25T10:09:05.038Z</time></trkpt><trkpt lat="42.3814753" lon="-7.5010048"><ele>369.0</ele><time>2026-04-25T10:09:06.042Z</time></trkpt><trkpt lat="42.3813604" lon="-7.5009112"><ele>373.75</ele><time>2026-04-25T10:09:07.039Z</time></trkpt><trkpt lat="42.3812459" lon="-7.5008322"><ele>378.5</ele><time>2026-04-25T10:09:08.045Z</time></trkpt><trkpt lat="42.381139" lon="-7.5007477"><ele>383.25</ele><time>2026-04-25T10:09:09.041Z</time></trkpt><trkpt lat="42.3810314" lon="-7.5006512"><ele>388.0</ele><time>2026-04-25T10:09:10.048Z</time></trkpt><trkpt lat="42.3809681" lon="-7.5005204"><ele>379.75</ele><time>2026-04-25T10:09:11.046Z</time></trkpt><trkpt lat="42.3809296" lon="-7.5003698"><ele>371.5</ele><time>2026-04-25T10:09:12.049Z</time></trkpt><trkpt lat="42.3808796" lon="-7.5002292"><ele>363.25</ele><time>2026-04-25T10:09:13.047Z</time></trkpt><trkpt lat="42.3807997" lon="-7.5001028"><ele>355.0</ele><time>2026-04-25T10:09:14.044Z</time></trkpt><trkpt lat="42.3806865" lon="-7.49997"><ele>355.0</ele><time>2026-04-25T10:09:15.047Z</time></trkpt><trkpt lat="42.3805638" lon="-7.4998523"><ele>355.0</ele><time>2026-04-25T10:09:16.043Z</time></trkpt><trkpt lat="42.3804561" lon="-7.4997516"><ele>355.0</ele><time>2026-04-25T10:09:17.045Z</time></trkpt><trkpt lat="42.3803791" lon="-7.4996683"><ele>355.0</ele><time>2026-04-25T10:09:18.048Z</time></trkpt><trkpt lat="42.380341" lon="-7.4995154"><ele>361.25</ele><time>2026-04-25T10:09:19.037Z</time></trkpt><trkpt lat="42.3803338" lon="-7.4993166"><ele>367.5</ele><time>2026-04-25T10:09:20.041Z</time></trkpt><trkpt lat="42.380344" lon="-7.4991188"><ele>373.75</ele><time>2026-04-25T10:09:21.038Z</time></trkpt><trkpt lat="42.3803251" lon="-7.4989398"><ele>380.0</ele><time>2026-04-25T10:09:22.045Z</time></trkpt><trkpt lat="42.3802872" lon="-7.4987749"><ele>374.0</ele><time>2026-04-25T10:09:23.051Z</time></trkpt><trkpt lat="42.3802321" lon="-7.4986011"><ele>368.0</ele><time>2026-04-25T10:09:24.04Z</time></trkpt><trkpt lat="42.3801673" lon="-7.4984175"><ele>362.0</ele><time>2026-04-25T10:09:25.042Z</time></trkpt><trkpt lat="42.3801032" lon="-7.4982428"><ele>356.0</ele><time>2026-04-25T10:09:26.039Z</time></trkpt><trkpt lat="42.3800362" lon="-7.4980852"><ele>356.0</ele><time>2026-04-25T10:09:27.041Z</time></trkpt><trkpt lat="42.3799711" lon="-7.4979445"><ele>356.0</ele><time>2026-04-25T10:09:28.056Z</time></trkpt><trkpt lat="42.3799158" lon="-7.4978211"><ele>356.0</ele><time>2026-04-25T10:09:29.052Z</time></trkpt><trkpt lat="42.3798717" lon="-7.4977255"><ele>356.0</ele><time>2026-04-25T10:09:30.042Z</time></trkpt><trkpt lat="42.3798259" lon="-7.4976419"><ele>356.0</ele><time>2026-04-25T10:09:31.043Z</time></trkpt><trkpt lat="42.3797628" lon="-7.4975281"><ele>355.99999999999994</ele><time>2026-04-25T10:09:33.042Z</time></trkpt><trkpt lat="42.3798228" lon="-7.4974998"><ele>356.0</ele><time>2026-04-25T10:09:36.049Z</time></trkpt><trkpt lat="42.379904" lon="-7.4975958"><ele>356.0</ele><time>2026-04-25T10:09:38.042Z</time></trkpt><trkpt lat="42.3799458" lon="-7.4976651"><ele>356.0</ele><time>2026-04-25T10:09:39.038Z</time></trkpt><trkpt lat="42.3799887" lon="-7.4977326"><ele>356.0</ele><time>2026-04-25T10:09:40.039Z</time></trkpt><trkpt lat="42.3800359" lon="-7.4978064"><ele>355.99999999999994</ele><time>2026-04-25T10:09:41.046Z</time></trkpt><trkpt lat="42.3800833" lon="-7.4978678"><ele>356.0</ele><time>2026-04-25T10:09:42.048Z</time></trkpt><trkpt lat="42.3801601" lon="-7.4979779"><ele>356.0</ele><time>2026-04-25T10:09:44.046Z</time></trkpt><trkpt lat="42.3802053" lon="-7.4980434"><ele>356.0</ele><time>2026-04-25T10:09:45.043Z</time></trkpt><trkpt lat="42.3802783" lon="-7.4981235"><ele>356.0</ele><time>2026-04-25T10:09:46.038Z</time></trkpt><trkpt lat="42.3803281" lon="-7.4981951"><ele>356.0</ele><time>2026-04-25T10:09:47.051Z</time></trkpt><trkpt lat="42.3803915" lon="-7.4982728"><ele>356.0</ele><time>2026-04-25T10:09:48.037Z</time></trkpt><trkpt lat="42.3804551" lon="-7.4983607"><ele>356.0</ele><time>2026-04-25T10:09:49.051Z</time></trkpt><trkpt lat="42.3805119" lon="-7.4984505"><ele>350.1666666666667</ele><time>2026-04-25T10:09:50.042Z</time></trkpt><trkpt lat="42.3805653" lon="-7.4985448"><ele>344.33333333333337</ele><time>2026-04-25T10:09:51.04Z</time></trkpt><trkpt lat="42.3806261" lon="-7.4986468"><ele>338.5</ele><time>2026-04-25T10:09:52.043Z</time></trkpt><trkpt lat="42.3806817" lon="-7.4987342"><ele>332.6666666666667</ele><time>2026-04-25T10:09:53.044Z</time></trkpt><trkpt lat="42.3807286" lon="-7.4988136"><ele>326.8333333333333</ele><time>2026-04-25T10:09:54.048Z</time></trkpt><trkpt lat="42.3807671" lon="-7.4988941"><ele>321.0</ele><time>2026-04-25T10:09:55.049Z</time></trkpt><trkpt lat="42.380784" lon="-7.4989927"><ele>321.0</ele><time>2026-04-25T10:09:56.053Z</time></trkpt><trkpt lat="42.3807795" lon="-7.4991022"><ele>321.0</ele><time>2026-04-25T10:09:57.041Z</time></trkpt><trkpt lat="42.3808003" lon="-7.4992002"><ele>321.0</ele><time>2026-04-25T10:09:58.044Z</time></trkpt><trkpt lat="42.3808284" lon="-7.4992788"><ele>321.0</ele><time>2026-04-25T10:09:59.038Z</time></trkpt><trkpt lat="42.3808797" lon="-7.4993422"><ele>321.0</ele><time>2026-04-25T10:10:00.038Z</time></trkpt><trkpt lat="42.3809832" lon="-7.4994455"><ele>321.0</ele><time>2026-04-25T10:10:02.04Z</time></trkpt><trkpt lat="42.3810497" lon="-7.499486"><ele>320.99999999999994</ele><time>2026-04-25T10:10:03.052Z</time></trkpt><trkpt lat="42.3811108" lon="-7.4995194"><ele>321.0</ele><time>2026-04-25T10:10:04.055Z</time></trkpt><trkpt lat="42.3811726" lon="-7.499557"><ele>321.0</ele><time>2026-04-25T10:10:05.048Z</time></trkpt><trkpt lat="42.3812365" lon="-7.4995978"><ele>321.0</ele><time>2026-04-25T10:10:06.048Z</time></trkpt><trkpt lat="42.3812951" lon="-7.4996509"><ele>321.0</ele><time>2026-04-25T10:10:07.049Z</time></trkpt><trkpt lat="42.3813463" lon="-7.4997162"><ele>320.99999999999994</ele><time>2026-04-25T10:10:08.043Z</time></trkpt><trkpt lat="42.3813944" lon="-7.4997896"><ele>321.0</ele><time>2026-04-25T10:10:09.047Z</time></trkpt><trkpt lat="42.3814361" lon="-7.4998667"><ele>319.2</ele><time>2026-04-25T10:10:10.041Z</time></trkpt><trkpt lat="42.3815024" lon="-7.4999721"><ele>317.40000000000003</ele><time>2026-04-25T10:10:12.05Z</time></trkpt><trkpt lat="42.3815778" lon="-7.499931"><ele>315.6</ele><time>2026-04-25T10:10:15.051Z</time></trkpt><trkpt lat="42.3815625" lon="-7.4998385"><ele>313.8</ele><time>2026-04-25T10:10:17.039Z</time></trkpt><trkpt lat="42.3814932" lon="-7.499699"><ele>312.0</ele><time>2026-04-25T10:10:19.039Z</time></trkpt><trkpt lat="42.3814451" lon="-7.4996078"><ele>313.5</ele><time>2026-04-25T10:10:20.065Z</time></trkpt><trkpt lat="42.3813864" lon="-7.4995279"><ele>315.0</ele><time>2026-04-25T10:10:21.044Z</time></trkpt><trkpt lat="42.3813279" lon="-7.4994485"><ele>316.5</ele><time>2026-04-25T10:10:22.045Z</time></trkpt><trkpt lat="42.3812711" lon="-7.4993805"><ele>318.0</ele><time>2026-04-25T10:10:23.044Z</time></trkpt><trkpt lat="42.3812072" lon="-7.4993324"><ele>319.5</ele><time>2026-04-25T10:10:24.042Z</time></trkpt><trkpt lat="42.3811083" lon="-7.4992256"><ele>321.0</ele><time>2026-04-25T10:10:26.045Z</time></trkpt><trkpt lat="42.3810761" lon="-7.4991294"><ele>321.0</ele><time>2026-04-25T10:10:27.038Z</time></trkpt><trkpt lat="42.3810974" lon="-7.4990429"><ele>321.0</ele><time>2026-04-25T10:10:28.04Z</time></trkpt><trkpt lat="42.3811211" lon="-7.4989558"><ele>321.0</ele><time>2026-04-25T10:10:29.046Z</time></trkpt><trkpt lat="42.3811407" lon="-7.4988632"><ele>321.0</ele><time>2026-04-25T10:10:30.043Z</time></trkpt><trkpt lat="42.381126" lon="-7.4986983"><ele>321.0</ele><time>2026-04-25T10:10:32.044Z</time></trkpt><trkpt lat="42.3811015" lon="-7.4986143"><ele>321.0</ele><time>2026-04-25T10:10:33.044Z</time></trkpt><trkpt lat="42.3810795" lon="-7.4985299"><ele>318.57142857142856</ele><time>2026-04-25T10:10:34.053Z</time></trkpt><trkpt lat="42.38106" lon="-7.4984394"><ele>316.1428571428571</ele><time>2026-04-25T10:10:35.047Z</time></trkpt><trkpt lat="42.3810468" lon="-7.4983443"><ele>313.71428571428567</ele><time>2026-04-25T10:10:36.046Z</time></trkpt><trkpt lat="42.3810373" lon="-7.4982493"><ele>311.2857142857143</ele><time>2026-04-25T10:10:37.044Z</time></trkpt><trkpt lat="42.3810309" lon="-7.4981489"><ele>308.8571428571429</ele><time>2026-04-25T10:10:38.047Z</time></trkpt><trkpt lat="42.381022" lon="-7.4980476"><ele>306.4285714285714</ele><time>2026-04-25T10:10:39.046Z</time></trkpt><trkpt lat="42.3810126" lon="-7.497943"><ele>304.0</ele><time>2026-04-25T10:10:40.042Z</time></trkpt><trkpt lat="42.3810073" lon="-7.4978275"><ele>301.0</ele><time>2026-04-25T10:10:41.042Z</time></trkpt><trkpt lat="42.3810021" lon="-7.497705"><ele>298.0</ele><time>2026-04-25T10:10:42.044Z</time></trkpt><trkpt lat="42.3809998" lon="-7.4975875"><ele>295.0</ele><time>2026-04-25T10:10:43.056Z</time></trkpt><trkpt lat="42.3809963" lon="-7.4974661"><ele>292.0</ele><time>2026-04-25T10:10:44.043Z</time></trkpt><trkpt lat="42.3809874" lon="-7.4973467"><ele>289.0</ele><time>2026-04-25T10:10:45.049Z</time></trkpt><trkpt lat="42.3809756" lon="-7.4972343"><ele>286.0</ele><time>2026-04-25T10:10:46.04Z</time></trkpt><trkpt lat="42.3809526" lon="-7.4971132"><ele>282.16666666666663</ele><time>2026-04-25T10:10:47.044Z</time></trkpt><trkpt lat="42.3809449" lon="-7.4970001"><ele>278.3333333333333</ele><time>2026-04-25T10:10:48.039Z</time></trkpt><trkpt lat="42.380933" lon="-7.4968875"><ele>274.5</ele><time>2026-04-25T10:10:49.044Z</time></trkpt><trkpt lat="42.3809315" lon="-7.4967996"><ele>270.6666666666667</ele><time>2026-04-25T10:10:50.053Z</time></trkpt><trkpt lat="42.3809059" lon="-7.4966681"><ele>266.83333333333337</ele><time>2026-04-25T10:10:52.041Z</time></trkpt><trkpt lat="42.3809477" lon="-7.4965748"><ele>263.0</ele><time>2026-04-25T10:10:54.039Z</time></trkpt><trkpt lat="42.38104" lon="-7.4966169"><ele>263.0</ele><time>2026-04-25T10:10:56.045Z</time></trkpt><trkpt lat="42.3810862" lon="-7.4966768"><ele>263.0</ele><time>2026-04-25T10:10:57.047Z</time></trkpt><trkpt lat="42.3811719" lon="-7.496783"><ele>263.0</ele><time>2026-04-25T10:10:59.038Z</time></trkpt><trkpt lat="42.3812345" lon="-7.4968029"><ele>263.0</ele><time>2026-04-25T10:11:01.058Z</time></trkpt><trkpt lat="42.381293" lon="-7.49668"><ele>263.0</ele><time>2026-04-25T10:11:03.042Z</time></trkpt><trkpt lat="42.3812291" lon="-7.4965458"><ele>263.0</ele><time>2026-04-25T10:11:05.054Z</time></trkpt><trkpt lat="42.3811847" lon="-7.4964184"><ele>263.0</ele><time>2026-04-25T10:11:07.043Z</time></trkpt><trkpt lat="42.3812449" lon="-7.4963457"><ele>263.0</ele><time>2026-04-25T10:11:09.054Z</time></trkpt><trkpt lat="42.3813104" lon="-7.4963617"><ele>263.0</ele><time>2026-04-25T10:11:10.054Z</time></trkpt><trkpt lat="42.3813671" lon="-7.4964009"><ele>263.0</ele><time>2026-04-25T10:11:11.042Z</time></trkpt><trkpt lat="42.3814451" lon="-7.4964805"><ele>263.0</ele><time>2026-04-25T10:11:13.046Z</time></trkpt><trkpt lat="42.3815273" lon="-7.4965924"><ele>259.0</ele><time>2026-04-25T10:11:15.044Z</time></trkpt><trkpt lat="42.3815777" lon="-7.4966549"><ele>255.0</ele><time>2026-04-25T10:11:16.042Z</time></trkpt><trkpt lat="42.3816302" lon="-7.4967048"><ele>251.0</ele><time>2026-04-25T10:11:17.046Z</time></trkpt><trkpt lat="42.3817125" lon="-7.4967441"><ele>247.0</ele><time>2026-04-25T10:11:19.043Z</time></trkpt><trkpt lat="42.3817774" lon="-7.4967205"><ele>243.00000000000003</ele><time>2026-04-25T10:11:22.049Z</time></trkpt><trkpt lat="42.3817734" lon="-7.4966036"><ele>239.0</ele><time>2026-04-25T10:12:26.041Z</time></trkpt><trkpt lat="42.3817469" lon="-7.4964849"><ele>239.00000000000003</ele><time>2026-04-25T10:12:28.053Z</time></trkpt><trkpt lat="42.3817263" lon="-7.4963761"><ele>239.0</ele><time>2026-04-25T10:12:30.061Z</time></trkpt><trkpt lat="42.3817009" lon="-7.496285"><ele>239.0</ele><time>2026-04-25T10:12:32.046Z</time></trkpt><trkpt lat="42.3816695" lon="-7.4962081"><ele>239.0</ele><time>2026-04-25T10:12:34.041Z</time></trkpt><trkpt lat="42.3816254" lon="-7.4961297"><ele>239.00000000000003</ele><time>2026-04-25T10:12:36.042Z</time></trkpt><trkpt lat="42.3815511" lon="-7.4960788"><ele>239.0</ele><time>2026-04-25T10:12:39.041Z</time></trkpt><trkpt lat="42.3814722" lon="-7.4960771"><ele>238.33333333333334</ele><time>2026-04-25T10:12:41.051Z</time></trkpt><trkpt lat="42.3813864" lon="-7.4961001"><ele>237.66666666666669</ele><time>2026-04-25T10:12:43.062Z</time></trkpt><trkpt lat="42.3812899" lon="-7.4961323"><ele>237.0</ele><time>2026-04-25T10:12:45.043Z</time></trkpt><trkpt lat="42.3812103" lon="-7.4961587"><ele>236.33333333333331</ele><time>2026-04-25T10:12:47.041Z</time></trkpt><trkpt lat="42.3811241" lon="-7.4961607"><ele>235.66666666666666</ele><time>2026-04-25T10:12:49.055Z</time></trkpt><trkpt lat="42.3810475" lon="-7.4961572"><ele>235.0</ele><time>2026-04-25T10:12:51.052Z</time></trkpt><trkpt lat="42.3809651" lon="-7.4961507"><ele>237.49999999999997</ele><time>2026-04-25T10:12:54.05Z</time></trkpt><trkpt lat="42.3808853" lon="-7.4961283"><ele>240.0</ele><time>2026-04-25T10:12:58.044Z</time></trkpt><trkpt lat="42.3808609" lon="-7.4960167"><ele>242.5</ele><time>2026-04-25T10:13:01.048Z</time></trkpt><trkpt lat="42.3808444" lon="-7.4959163"><ele>245.0</ele><time>2026-04-25T10:13:03.049Z</time></trkpt><trkpt lat="42.380837" lon="-7.495829"><ele>247.49999999999997</ele><time>2026-04-25T10:13:06.061Z</time></trkpt><trkpt lat="42.3809201" lon="-7.49582"><ele>250.0</ele><time>2026-04-25T10:13:11.039Z</time></trkpt><trkpt lat="42.3809939" lon="-7.4958214"><ele>249.99999999999997</ele><time>2026-04-25T10:13:15.042Z</time></trkpt><trkpt lat="42.3810619" lon="-7.4958133"><ele>250.0</ele><time>2026-04-25T10:13:21.046Z</time></trkpt><trkpt lat="42.3811381" lon="-7.4958276"><ele>250.0</ele><time>2026-04-25T10:13:31.048Z</time></trkpt><trkpt lat="42.3812044" lon="-7.4957969"><ele>250.0</ele><time>2026-04-25T10:13:34.053Z</time></trkpt><trkpt lat="42.3812822" lon="-7.4957792"><ele>249.99999999999997</ele><time>2026-04-25T10:13:38.047Z</time></trkpt><trkpt lat="42.3813701" lon="-7.4957603"><ele>250.0</ele><time>2026-04-25T10:13:41.053Z</time></trkpt><trkpt lat="42.3814505" lon="-7.4957561"><ele>247.0</ele><time>2026-04-25T10:13:49.048Z</time></trkpt><trkpt lat="42.3815404" lon="-7.49573"><ele>244.0</ele><time>2026-04-25T10:13:52.045Z</time></trkpt><trkpt lat="42.3816489" lon="-7.4956857"><ele>241.0</ele><time>2026-04-25T10:13:54.042Z</time></trkpt><trkpt lat="42.3817138" lon="-7.4956755"><ele>238.0</ele><time>2026-04-25T10:13:55.044Z</time></trkpt><trkpt lat="42.3817875" lon="-7.4956765"><ele>235.0</ele><time>2026-04-25T10:13:56.04Z</time></trkpt><trkpt lat="42.3818963" lon="-7.4956869"><ele>235.0</ele><time>2026-04-25T10:13:58.046Z</time></trkpt><trkpt lat="42.3819988" lon="-7.4956796"><ele>235.0</ele><time>2026-04-25T10:14:00.041Z</time></trkpt><trkpt lat="42.3820986" lon="-7.4956678"><ele>235.0</ele><time>2026-04-25T10:14:02.041Z</time></trkpt><trkpt lat="42.3821886" lon="-7.4956796"><ele>235.0</ele><time>2026-04-25T10:14:04.051Z</time></trkpt><trkpt lat="42.382258" lon="-7.4957065"><ele>235.0</ele><time>2026-04-25T10:14:06.04Z</time></trkpt><trkpt lat="42.3823468" lon="-7.4957191"><ele>236.16666666666666</ele><time>2026-04-25T10:14:08.042Z</time></trkpt><trkpt lat="42.382423" lon="-7.4957297"><ele>237.33333333333331</ele><time>2026-04-25T10:14:10.045Z</time></trkpt><trkpt lat="42.3824994" lon="-7.4957526"><ele>238.5</ele><time>2026-04-25T10:14:13.066Z</time></trkpt><trkpt lat="42.382567" lon="-7.4957826"><ele>239.66666666666669</ele><time>2026-04-25T10:14:17.046Z</time></trkpt><trkpt lat="42.382615" lon="-7.495864"><ele>240.83333333333334</ele><time>2026-04-25T10:14:20.04Z</time></trkpt><trkpt lat="42.3826412" lon="-7.4959858"><ele>242.0</ele><time>2026-04-25T10:14:23.043Z</time></trkpt><trkpt lat="42.3826707" lon="-7.4960776"><ele>242.0</ele><time>2026-04-25T10:14:25.043Z</time></trkpt><trkpt lat="42.3827043" lon="-7.4962157"><ele>242.0</ele><time>2026-04-25T10:14:27.042Z</time></trkpt><trkpt lat="42.3827207" lon="-7.496381"><ele>242.0</ele><time>2026-04-25T10:14:29.042Z</time></trkpt><trkpt lat="42.3827194" lon="-7.4964701"><ele>242.0</ele><time>2026-04-25T10:14:30.037Z</time></trkpt><trkpt lat="42.3826945" lon="-7.4966381"><ele>242.0</ele><time>2026-04-25T10:14:32.045Z</time></trkpt><trkpt lat="42.3826762" lon="-7.4967838"><ele>240.5</ele><time>2026-04-25T10:14:34.042Z</time></trkpt><trkpt lat="42.3826847" lon="-7.4969285"><ele>239.0</ele><time>2026-04-25T10:14:36.054Z</time></trkpt><trkpt lat="42.3826958" lon="-7.4971016"><ele>237.5</ele><time>2026-04-25T10:14:38.043Z</time></trkpt><trkpt lat="42.382752" lon="-7.4972386"><ele>236.0</ele><time>2026-04-25T10:14:40.052Z</time></trkpt><trkpt lat="42.3828273" lon="-7.4973563"><ele>235.83333333333334</ele><time>2026-04-25T10:14:42.042Z</time></trkpt><trkpt lat="42.3829221" lon="-7.4974444"><ele>235.66666666666669</ele><time>2026-04-25T10:14:44.043Z</time></trkpt><trkpt lat="42.3829902" lon="-7.4974973"><ele>235.5</ele><time>2026-04-25T10:14:45.042Z</time></trkpt><trkpt lat="42.3830624" lon="-7.497554"><ele>235.33333333333331</ele><time>2026-04-25T10:14:46.041Z</time></trkpt><trkpt lat="42.3831434" lon="-7.4976054"><ele>235.16666666666666</ele><time>2026-04-25T10:14:47.039Z</time></trkpt><trkpt lat="42.3832169" lon="-7.4976531"><ele>235.0</ele><time>2026-04-25T10:14:48.045Z</time></trkpt><trkpt lat="42.3832862" lon="-7.4976942"><ele>235.6</ele><time>2026-04-25T10:14:49.04Z</time></trkpt><trkpt lat="42.3833516" lon="-7.4977357"><ele>236.2</ele><time>2026-04-25T10:14:50.05Z</time></trkpt><trkpt lat="42.383409" lon="-7.4977745"><ele>236.8</ele><time>2026-04-25T10:14:51.046Z</time></trkpt><trkpt lat="42.3834952" lon="-7.4978459"><ele>237.4</ele><time>2026-04-25T10:14:53.048Z</time></trkpt><trkpt lat="42.3835706" lon="-7.4979279"><ele>238.0</ele><time>2026-04-25T10:14:55.048Z</time></trkpt><trkpt lat="42.3836705" lon="-7.498018"><ele>238.0</ele><time>2026-04-25T10:14:57.038Z</time></trkpt><trkpt lat="42.3837233" lon="-7.4980668"><ele>238.0</ele><time>2026-04-25T10:14:58.038Z</time></trkpt><trkpt lat="42.3838188" lon="-7.4981473"><ele>238.0</ele><time>2026-04-25T10:15:00.041Z</time></trkpt><trkpt lat="42.3839166" lon="-7.4982056"><ele>238.0</ele><time>2026-04-25T10:15:02.045Z</time></trkpt><trkpt lat="42.3839912" lon="-7.4982223"><ele>238.0</ele><time>2026-04-25T10:15:04.043Z</time></trkpt><trkpt lat="42.3840981" lon="-7.4981697"><ele>239.49999999999997</ele><time>2026-04-25T10:15:06.039Z</time></trkpt><trkpt lat="42.3841783" lon="-7.4980955"><ele>241.0</ele><time>2026-04-25T10:15:08.039Z</time></trkpt><trkpt lat="42.3842551" lon="-7.4980384"><ele>242.5</ele><time>2026-04-25T10:15:10.057Z</time></trkpt><trkpt lat="42.3843024" lon="-7.4979681"><ele>244.0</ele><time>2026-04-25T10:15:11.049Z</time></trkpt><trkpt lat="42.3843457" lon="-7.497899"><ele>245.49999999999997</ele><time>2026-04-25T10:15:12.039Z</time></trkpt><trkpt lat="42.3843959" lon="-7.4977999"><ele>247.0</ele><time>2026-04-25T10:15:14.049Z</time></trkpt><trkpt lat="42.3844375" lon="-7.4977034"><ele>250.6</ele><time>2026-04-25T10:15:17.049Z</time></trkpt><trkpt lat="42.3844866" lon="-7.4976171"><ele>254.2</ele><time>2026-04-25T10:18:20.061Z</time></trkpt><trkpt lat="42.3845741" lon="-7.497694"><ele>257.8</ele><time>2026-04-25T10:18:23.042Z</time></trkpt><trkpt lat="42.3846904" lon="-7.4977882"><ele>261.4</ele><time>2026-04-25T10:18:32.042Z</time></trkpt><trkpt lat="42.3847387" lon="-7.4978442"><ele>265.0</ele><time>2026-04-25T10:18:33.053Z</time></trkpt><trkpt lat="42.3848267" lon="-7.4979583"><ele>265.0</ele><time>2026-04-25T10:18:35.048Z</time></trkpt><trkpt lat="42.38487" lon="-7.498026"><ele>265.0</ele><time>2026-04-25T10:18:36.043Z</time></trkpt><trkpt lat="42.3849464" lon="-7.498142"><ele>265.0</ele><time>2026-04-25T10:18:38.042Z</time></trkpt><trkpt lat="42.3850484" lon="-7.4982361"><ele>265.0</ele><time>2026-04-25T10:18:40.051Z</time></trkpt><trkpt lat="42.3851076" lon="-7.4982679"><ele>265.0</ele><time>2026-04-25T10:18:41.042Z</time></trkpt><trkpt lat="42.3852185" lon="-7.4983348"><ele>265.0</ele><time>2026-04-25T10:18:43.043Z</time></trkpt><trkpt lat="42.3853317" lon="-7.4984068"><ele>265.0</ele><time>2026-04-25T10:18:45.041Z</time></trkpt><trkpt lat="42.3853886" lon="-7.4984497"><ele>265.0</ele><time>2026-04-25T10:18:46.044Z</time></trkpt><trkpt lat="42.3854445" lon="-7.498492"><ele>265.0</ele><time>2026-04-25T10:18:47.044Z</time></trkpt><trkpt lat="42.3855031" lon="-7.4985389"><ele>265.0</ele><time>2026-04-25T10:18:48.051Z</time></trkpt><trkpt lat="42.3855626" lon="-7.4985742"><ele>265.0</ele><time>2026-04-25T10:18:49.045Z</time></trkpt><trkpt lat="42.3856268" lon="-7.4986034"><ele>270.16666666666663</ele><time>2026-04-25T10:18:50.039Z</time></trkpt><trkpt lat="42.3856931" lon="-7.4986314"><ele>275.3333333333333</ele><time>2026-04-25T10:18:51.036Z</time></trkpt><trkpt lat="42.3858081" lon="-7.4986602"><ele>280.5</ele><time>2026-04-25T10:18:53.048Z</time></trkpt><trkpt lat="42.3858747" lon="-7.4986714"><ele>285.6666666666667</ele><time>2026-04-25T10:18:54.038Z</time></trkpt><trkpt lat="42.3859393" lon="-7.4986886"><ele>290.83333333333337</ele><time>2026-04-25T10:18:55.039Z</time></trkpt><trkpt lat="42.3860444" lon="-7.4987121"><ele>296.0</ele><time>2026-04-25T10:18:57.048Z</time></trkpt><trkpt lat="42.38613" lon="-7.4987039"><ele>296.0</ele><time>2026-04-25T10:18:59.055Z</time></trkpt><trkpt lat="42.386231" lon="-7.4986663"><ele>296.0</ele><time>2026-04-25T10:19:01.05Z</time></trkpt><trkpt lat="42.3863615" lon="-7.4986519"><ele>296.0</ele><time>2026-04-25T10:19:03.042Z</time></trkpt><trkpt lat="42.3864337" lon="-7.4986526"><ele>296.0</ele><time>2026-04-25T10:19:04.045Z</time></trkpt><trkpt lat="42.3865533" lon="-7.4986309"><ele>296.0</ele><time>2026-04-25T10:19:06.047Z</time></trkpt><trkpt lat="42.3866314" lon="-7.4985852"><ele>296.0</ele><time>2026-04-25T10:19:08.055Z</time></trkpt><trkpt lat="42.3866318" lon="-7.4984895"><ele>296.0</ele><time>2026-04-25T10:19:11.065Z</time></trkpt><trkpt lat="42.3865653" lon="-7.4984492"><ele>296.0</ele><time>2026-04-25T10:19:13.046Z</time></trkpt><trkpt lat="42.3864924" lon="-7.4984241"><ele>296.0</ele><time>2026-04-25T10:19:14.046Z</time></trkpt><trkpt lat="42.3864184" lon="-7.4983687"><ele>296.0</ele><time>2026-04-25T10:19:15.042Z</time></trkpt><trkpt lat="42.3863446" lon="-7.4983077"><ele>296.0</ele><time>2026-04-25T10:19:16.046Z</time></trkpt><trkpt lat="42.3862669" lon="-7.498249"><ele>296.0</ele><time>2026-04-25T10:19:17.042Z</time></trkpt><trkpt lat="42.3862047" lon="-7.4981894"><ele>296.0</ele><time>2026-04-25T10:19:18.044Z</time></trkpt><trkpt lat="42.3861524" lon="-7.4981289"><ele>296.0</ele><time>2026-04-25T10:19:19.046Z</time></trkpt><trkpt lat="42.3861041" lon="-7.498067"><ele>296.0</ele><time>2026-04-25T10:19:20.043Z</time></trkpt><trkpt lat="42.3860619" lon="-7.4980005"><ele>296.0</ele><time>2026-04-25T10:19:21.038Z</time></trkpt><trkpt lat="42.3860191" lon="-7.4978944"><ele>296.0</ele><time>2026-04-25T10:19:23.039Z</time></trkpt><trkpt lat="42.3860579" lon="-7.4978056"><ele>296.0</ele><time>2026-04-25T10:19:25.045Z</time></trkpt><trkpt lat="42.3861434" lon="-7.4978108"><ele>301.1666666666667</ele><time>2026-04-25T10:19:28.043Z</time></trkpt><trkpt lat="42.3862423" lon="-7.4978151"><ele>306.33333333333337</ele><time>2026-04-25T10:19:30.038Z</time></trkpt><trkpt lat="42.386308" lon="-7.497814"><ele>311.5</ele><time>2026-04-25T10:19:31.038Z</time></trkpt><trkpt lat="42.3863968" lon="-7.4978011"><ele>316.6666666666667</ele><time>2026-04-25T10:19:32.041Z</time></trkpt><trkpt lat="42.3864801" lon="-7.4978016"><ele>321.8333333333333</ele><time>2026-04-25T10:19:33.04Z</time></trkpt><trkpt lat="42.3865713" lon="-7.4977899"><ele>327.0</ele><time>2026-04-25T10:19:34.038Z</time></trkpt><trkpt lat="42.3866968" lon="-7.4977309"><ele>329.0</ele><time>2026-04-25T10:19:35.036Z</time></trkpt><trkpt lat="42.3868138" lon="-7.497665"><ele>331.0</ele><time>2026-04-25T10:19:36.049Z</time></trkpt><trkpt lat="42.3869287" lon="-7.497592"><ele>333.0</ele><time>2026-04-25T10:19:37.041Z</time></trkpt><trkpt lat="42.3870418" lon="-7.4975114"><ele>335.0</ele><time>2026-04-25T10:19:38.04Z</time></trkpt><trkpt lat="42.387156" lon="-7.4974296"><ele>338.0</ele><time>2026-04-25T10:19:39.04Z</time></trkpt><trkpt lat="42.3872739" lon="-7.4973399"><ele>341.0</ele><time>2026-04-25T10:19:40.045Z</time></trkpt><trkpt lat="42.3873831" lon="-7.4972531"><ele>344.0</ele><time>2026-04-25T10:19:41.042Z</time></trkpt><trkpt lat="42.3875019" lon="-7.4971662"><ele>347.0</ele><time>2026-04-25T10:19:42.046Z</time></trkpt><trkpt lat="42.3876256" lon="-7.4970721"><ele>347.0</ele><time>2026-04-25T10:19:43.041Z</time></trkpt><trkpt lat="42.3877486" lon="-7.4969834"><ele>347.0</ele><time>2026-04-25T10:19:44.039Z</time></trkpt><trkpt lat="42.3878798" lon="-7.4968924"><ele>347.0</ele><time>2026-04-25T10:19:45.04Z</time></trkpt><trkpt lat="42.3880216" lon="-7.4967926"><ele>347.0</ele><time>2026-04-25T10:19:46.043Z</time></trkpt><trkpt lat="42.3881602" lon="-7.4966933"><ele>340.5</ele><time>2026-04-25T10:19:47.039Z</time></trkpt><trkpt lat="42.3882914" lon="-7.496584"><ele>334.0</ele><time>2026-04-25T10:19:48.046Z</time></trkpt><trkpt lat="42.3884153" lon="-7.4964732"><ele>327.5</ele><time>2026-04-25T10:19:49.04Z</time></trkpt><trkpt lat="42.3885302" lon="-7.496374"><ele>321.0</ele><time>2026-04-25T10:19:50.044Z</time></trkpt><trkpt lat="42.3886456" lon="-7.4962789"><ele>322.25</ele><time>2026-04-25T10:19:51.042Z</time></trkpt><trkpt lat="42.3887612" lon="-7.4961795"><ele>323.5</ele><time>2026-04-25T10:19:52.049Z</time></trkpt><trkpt lat="42.3888702" lon="-7.4960668"><ele>324.75</ele><time>2026-04-25T10:19:53.042Z</time></trkpt><trkpt lat="42.3889695" lon="-7.4959425"><ele>326.0</ele><time>2026-04-25T10:19:54.05Z</time></trkpt><trkpt lat="42.3890523" lon="-7.4958136"><ele>326.0</ele><time>2026-04-25T10:19:55.044Z</time></trkpt><trkpt lat="42.3891244" lon="-7.4956722"><ele>326.0</ele><time>2026-04-25T10:19:56.041Z</time></trkpt><trkpt lat="42.38919" lon="-7.4955165"><ele>326.0</ele><time>2026-04-25T10:19:57.043Z</time></trkpt><trkpt lat="42.3892567" lon="-7.495348"><ele>326.0</ele><time>2026-04-25T10:19:58.046Z</time></trkpt><trkpt lat="42.3893274" lon="-7.4951798"><ele>333.0</ele><time>2026-04-25T10:19:59.036Z</time></trkpt><trkpt lat="42.3893961" lon="-7.4950161"><ele>340.0</ele><time>2026-04-25T10:20:00.038Z</time></trkpt><trkpt lat="42.3894695" lon="-7.4948569"><ele>347.0</ele><time>2026-04-25T10:20:01.037Z</time></trkpt><trkpt lat="42.3895479" lon="-7.4947064"><ele>354.0</ele><time>2026-04-25T10:20:02.044Z</time></trkpt><trkpt lat="42.3896386" lon="-7.4945593"><ele>351.0</ele><time>2026-04-25T10:20:03.04Z</time></trkpt><trkpt lat="42.3897396" lon="-7.494443"><ele>348.0</ele><time>2026-04-25T10:20:04.043Z</time></trkpt><trkpt lat="42.3898358" lon="-7.4943391"><ele>345.0</ele><time>2026-04-25T10:20:05.042Z</time></trkpt><trkpt lat="42.3899362" lon="-7.4942504"><ele>342.0</ele><time>2026-04-25T10:20:06.037Z</time></trkpt><trkpt lat="42.3900375" lon="-7.4941799"><ele>342.0</ele><time>2026-04-25T10:20:07.041Z</time></trkpt><trkpt lat="42.3901413" lon="-7.4941152"><ele>342.0</ele><time>2026-04-25T10:20:08.046Z</time></trkpt><trkpt lat="42.3902422" lon="-7.4940525"><ele>342.0</ele><time>2026-04-25T10:20:09.052Z</time></trkpt><trkpt lat="42.39033" lon="-7.4939536"><ele>342.0</ele><time>2026-04-25T10:20:10.039Z</time></trkpt><trkpt lat="42.3904307" lon="-7.4938067"><ele>340.3333333333333</ele><time>2026-04-25T10:20:11.041Z</time></trkpt><trkpt lat="42.3905377" lon="-7.4936256"><ele>338.66666666666663</ele><time>2026-04-25T10:20:12.044Z</time></trkpt><trkpt lat="42.3906359" lon="-7.4934534"><ele>337.0</ele><time>2026-04-25T10:20:13.04Z</time></trkpt><trkpt lat="42.3907282" lon="-7.493294"><ele>337.0</ele><time>2026-04-25T10:20:14.046Z</time></trkpt><trkpt lat="42.3908254" lon="-7.4931482"><ele>337.0</ele><time>2026-04-25T10:20:15.039Z</time></trkpt><trkpt lat="42.3909315" lon="-7.4930268"><ele>337.0</ele><time>2026-04-25T10:20:16.044Z</time></trkpt><trkpt lat="42.3910582" lon="-7.4928967"><ele>337.0</ele><time>2026-04-25T10:20:17.043Z</time></trkpt><trkpt lat="42.3911884" lon="-7.4927853"><ele>335.6</ele><time>2026-04-25T10:20:18.041Z</time></trkpt><trkpt lat="42.3913111" lon="-7.4926915"><ele>334.20000000000005</ele><time>2026-04-25T10:20:19.042Z</time></trkpt><trkpt lat="42.3914095" lon="-7.4925977"><ele>332.8</ele><time>2026-04-25T10:20:20.046Z</time></trkpt><trkpt lat="42.3914789" lon="-7.4925074"><ele>331.4</ele><time>2026-04-25T10:20:21.054Z</time></trkpt><trkpt lat="42.3915134" lon="-7.492412"><ele>330.0</ele><time>2026-04-25T10:20:22.047Z</time></trkpt><trkpt lat="42.3915236" lon="-7.4922939"><ele>330.0</ele><time>2026-04-25T10:20:23.039Z</time></trkpt><trkpt lat="42.3915167" lon="-7.4921389"><ele>330.0</ele><time>2026-04-25T10:20:24.042Z</time></trkpt><trkpt lat="42.3914971" lon="-7.4919492"><ele>330.0</ele><time>2026-04-25T10:20:25.049Z</time></trkpt><trkpt lat="42.3914756" lon="-7.4917488"><ele>330.0</ele><time>2026-04-25T10:20:26.037Z</time></trkpt><trkpt lat="42.3914707" lon="-7.4915316"><ele>331.5</ele><time>2026-04-25T10:20:27.044Z</time></trkpt><trkpt lat="42.3914702" lon="-7.4913231"><ele>333.0</ele><time>2026-04-25T10:20:28.043Z</time></trkpt><trkpt lat="42.3914699" lon="-7.4911424"><ele>334.5</ele><time>2026-04-25T10:20:29.037Z</time></trkpt><trkpt lat="42.3914729" lon="-7.4909839"><ele>336.0</ele><time>2026-04-25T10:20:30.05Z</time></trkpt><trkpt lat="42.3914697" lon="-7.4908464"><ele>336.0</ele><time>2026-04-25T10:20:31.044Z</time></trkpt><trkpt lat="42.3914439" lon="-7.4907095"><ele>336.0</ele><time>2026-04-25T10:20:32.052Z</time></trkpt><trkpt lat="42.3913938" lon="-7.4905669"><ele>336.0</ele><time>2026-04-25T10:20:33.047Z</time></trkpt><trkpt lat="42.3913456" lon="-7.490427"><ele>336.0</ele><time>2026-04-25T10:20:34.05Z</time></trkpt><trkpt lat="42.3912973" lon="-7.4903128"><ele>336.0</ele><time>2026-04-25T10:20:35.041Z</time></trkpt><trkpt lat="42.3912728" lon="-7.4901543"><ele>358.33333333333337</ele><time>2026-04-25T10:20:36.042Z</time></trkpt><trkpt lat="42.3912862" lon="-7.4899452"><ele>380.6666666666667</ele><time>2026-04-25T10:20:37.044Z</time></trkpt><trkpt lat="42.3912896" lon="-7.489713"><ele>403.0</ele><time>2026-04-25T10:20:38.049Z</time></trkpt><trkpt lat="42.3913173" lon="-7.4894749"><ele>383.33333333333337</ele><time>2026-04-25T10:20:39.039Z</time></trkpt><trkpt lat="42.391354" lon="-7.4892501"><ele>363.6666666666667</ele><time>2026-04-25T10:20:40.042Z</time></trkpt><trkpt lat="42.3913812" lon="-7.4890243"><ele>344.0</ele><time>2026-04-25T10:20:41.042Z</time></trkpt><trkpt lat="42.3914301" lon="-7.4888064"><ele>347.25</ele><time>2026-04-25T10:20:42.047Z</time></trkpt><trkpt lat="42.391489" lon="-7.4886318"><ele>350.5</ele><time>2026-04-25T10:20:43.044Z</time></trkpt><trkpt lat="42.391547" lon="-7.488483"><ele>353.75</ele><time>2026-04-25T10:20:44.047Z</time></trkpt><trkpt lat="42.3915759" lon="-7.4883489"><ele>357.0</ele><time>2026-04-25T10:20:45.04Z</time></trkpt><trkpt lat="42.3915835" lon="-7.4882105"><ele>357.0</ele><time>2026-04-25T10:20:46.041Z</time></trkpt><trkpt lat="42.391564" lon="-7.4880441"><ele>357.0</ele><time>2026-04-25T10:20:47.038Z</time></trkpt><trkpt lat="42.3915205" lon="-7.4878716"><ele>357.0</ele><time>2026-04-25T10:20:48.057Z</time></trkpt><trkpt lat="42.3914552" lon="-7.4876863"><ele>357.0</ele><time>2026-04-25T10:20:49.041Z</time></trkpt><trkpt lat="42.3913804" lon="-7.4874841"><ele>371.66666666666663</ele><time>2026-04-25T10:20:50.043Z</time></trkpt><trkpt lat="42.3913115" lon="-7.4872648"><ele>386.3333333333333</ele><time>2026-04-25T10:20:51.05Z</time></trkpt><trkpt lat="42.3912501" lon="-7.4870332"><ele>401.0</ele><time>2026-04-25T10:20:52.04Z</time></trkpt><trkpt lat="42.3911938" lon="-7.4868243"><ele>401.0</ele><time>2026-04-25T10:20:53.042Z</time></trkpt><trkpt lat="42.3911426" lon="-7.4866353"><ele>401.0</ele><time>2026-04-25T10:20:54.038Z</time></trkpt><trkpt lat="42.3910989" lon="-7.4864796"><ele>401.0</ele><time>2026-04-25T10:20:55.034Z</time></trkpt><trkpt lat="42.3910648" lon="-7.4863552"><ele>401.0</ele><time>2026-04-25T10:20:56.037Z</time></trkpt><trkpt lat="42.3910383" lon="-7.4862591"><ele>401.0</ele><time>2026-04-25T10:20:57.039Z</time></trkpt><trkpt lat="42.3910438" lon="-7.4861571"><ele>400.0</ele><time>2026-04-25T10:20:59.045Z</time></trkpt><trkpt lat="42.3911588" lon="-7.4861182"><ele>399.0</ele><time>2026-04-25T10:21:01.058Z</time></trkpt><trkpt lat="42.3912421" lon="-7.4861303"><ele>398.0</ele><time>2026-04-25T10:21:02.041Z</time></trkpt><trkpt lat="42.3913748" lon="-7.4861863"><ele>397.0</ele><time>2026-04-25T10:21:03.038Z</time></trkpt><trkpt lat="42.3915062" lon="-7.4862365"><ele>387.0</ele><time>2026-04-25T10:21:04.038Z</time></trkpt><trkpt lat="42.3916358" lon="-7.4863206"><ele>377.0</ele><time>2026-04-25T10:21:05.043Z</time></trkpt><trkpt lat="42.3917834" lon="-7.4864182"><ele>367.0</ele><time>2026-04-25T10:21:06.044Z</time></trkpt><trkpt lat="42.3919323" lon="-7.4865462"><ele>367.0</ele><time>2026-04-25T10:21:07.053Z</time></trkpt><trkpt lat="42.3920761" lon="-7.4866665"><ele>367.0</ele><time>2026-04-25T10:21:08.046Z</time></trkpt><trkpt lat="42.3922143" lon="-7.4867735"><ele>367.0</ele><time>2026-04-25T10:21:09.044Z</time></trkpt><trkpt lat="42.3923604" lon="-7.4868789"><ele>371.5</ele><time>2026-04-25T10:21:10.049Z</time></trkpt><trkpt lat="42.3925015" lon="-7.486986"><ele>376.0</ele><time>2026-04-25T10:21:11.043Z</time></trkpt><trkpt lat="42.3926218" lon="-7.4870838"><ele>380.5</ele><time>2026-04-25T10:21:12.046Z</time></trkpt><trkpt lat="42.3927264" lon="-7.4871648"><ele>385.0</ele><time>2026-04-25T10:21:13.039Z</time></trkpt><trkpt lat="42.3928189" lon="-7.4872376"><ele>381.8</ele><time>2026-04-25T10:21:14.04Z</time></trkpt><trkpt lat="42.3928906" lon="-7.4872782"><ele>378.6</ele><time>2026-04-25T10:21:15.051Z</time></trkpt><trkpt lat="42.3929634" lon="-7.4872414"><ele>375.4</ele><time>2026-04-25T10:21:16.044Z</time></trkpt><trkpt lat="42.3930358" lon="-7.4871809"><ele>372.2</ele><time>2026-04-25T10:21:17.055Z</time></trkpt><trkpt lat="42.3931014" lon="-7.4870836"><ele>369.0</ele><time>2026-04-25T10:21:18.051Z</time></trkpt><trkpt lat="42.3931745" lon="-7.4869683"><ele>369.0</ele><time>2026-04-25T10:21:19.041Z</time></trkpt><trkpt lat="42.3932314" lon="-7.4867893"><ele>369.0</ele><time>2026-04-25T10:21:20.041Z</time></trkpt><trkpt lat="42.3933024" lon="-7.486589"><ele>369.0</ele><time>2026-04-25T10:21:21.041Z</time></trkpt><trkpt lat="42.3933906" lon="-7.4863757"><ele>377.66666666666663</ele><time>2026-04-25T10:21:22.042Z</time></trkpt><trkpt lat="42.393486" lon="-7.4861789"><ele>386.3333333333333</ele><time>2026-04-25T10:21:23.044Z</time></trkpt><trkpt lat="42.3935761" lon="-7.4860007"><ele>395.0</ele><time>2026-04-25T10:21:24.053Z</time></trkpt><trkpt lat="42.3936591" lon="-7.485832"><ele>395.0</ele><time>2026-04-25T10:21:25.039Z</time></trkpt><trkpt lat="42.393709" lon="-7.4856777"><ele>395.0</ele><time>2026-04-25T10:21:26.044Z</time></trkpt><trkpt lat="42.3937455" lon="-7.4854983"><ele>395.0</ele><time>2026-04-25T10:21:27.036Z</time></trkpt><trkpt lat="42.3937854" lon="-7.4852973"><ele>395.0</ele><time>2026-04-25T10:21:28.035Z</time></trkpt><trkpt lat="42.3938316" lon="-7.4851214"><ele>393.0</ele><time>2026-04-25T10:21:29.043Z</time></trkpt><trkpt lat="42.3938999" lon="-7.484968"><ele>391.0</ele><time>2026-04-25T10:21:30.045Z</time></trkpt><trkpt lat="42.3939808" lon="-7.4848287"><ele>389.0</ele><time>2026-04-25T10:21:31.038Z</time></trkpt><trkpt lat="42.3940595" lon="-7.4846991"><ele>387.0</ele><time>2026-04-25T10:21:32.047Z</time></trkpt><trkpt lat="42.3941387" lon="-7.4845901"><ele>387.0</ele><time>2026-04-25T10:21:33.047Z</time></trkpt><trkpt lat="42.3941757" lon="-7.4844414"><ele>387.0</ele><time>2026-04-25T10:21:34.041Z</time></trkpt><trkpt lat="42.394198" lon="-7.4842619"><ele>387.0</ele><time>2026-04-25T10:21:35.05Z</time></trkpt><trkpt lat="42.3942169" lon="-7.4840437"><ele>387.0</ele><time>2026-04-25T10:21:36.041Z</time></trkpt><trkpt lat="42.3942413" lon="-7.4837932"><ele>392.66666666666663</ele><time>2026-04-25T10:21:37.046Z</time></trkpt><trkpt lat="42.3942676" lon="-7.4835624"><ele>398.3333333333333</ele><time>2026-04-25T10:21:38.045Z</time></trkpt><trkpt lat="42.3942906" lon="-7.4833485"><ele>404.0</ele><time>2026-04-25T10:21:39.041Z</time></trkpt><trkpt lat="42.3943216" lon="-7.4831614"><ele>404.0</ele><time>2026-04-25T10:21:40.039Z</time></trkpt><trkpt lat="42.3943355" lon="-7.4829996"><ele>404.0</ele><time>2026-04-25T10:21:41.042Z</time></trkpt><trkpt lat="42.3943736" lon="-7.48285"><ele>404.0</ele><time>2026-04-25T10:21:42.041Z</time></trkpt><trkpt lat="42.3944317" lon="-7.4827293"><ele>404.0</ele><time>2026-04-25T10:21:43.042Z</time></trkpt><trkpt lat="42.3945086" lon="-7.4825846"><ele>409.3333333333333</ele><time>2026-04-25T10:21:44.043Z</time></trkpt><trkpt lat="42.3946121" lon="-7.4824261"><ele>414.66666666666663</ele><time>2026-04-25T10:21:45.037Z</time></trkpt><trkpt lat="42.394722" lon="-7.4822643"><ele>420.0</ele><time>2026-04-25T10:21:46.04Z</time></trkpt><trkpt lat="42.3948308" lon="-7.4821292"><ele>417.2</ele><time>2026-04-25T10:21:47.033Z</time></trkpt><trkpt lat="42.3949148" lon="-7.4820223"><ele>414.4</ele><time>2026-04-25T10:21:48.056Z</time></trkpt><trkpt lat="42.3949778" lon="-7.481939"><ele>411.6</ele><time>2026-04-25T10:21:49.043Z</time></trkpt><trkpt lat="42.3950493" lon="-7.4818612"><ele>408.8</ele><time>2026-04-25T10:21:50.038Z</time></trkpt><trkpt lat="42.3951383" lon="-7.4818561"><ele>406.0</ele><time>2026-04-25T10:21:51.036Z</time></trkpt><trkpt lat="42.3952089" lon="-7.4819072"><ele>406.0</ele><time>2026-04-25T10:21:52.042Z</time></trkpt><trkpt lat="42.3952909" lon="-7.4820224"><ele>406.0</ele><time>2026-04-25T10:21:53.036Z</time></trkpt><trkpt lat="42.3954004" lon="-7.4821771"><ele>406.0</ele><time>2026-04-25T10:21:54.039Z</time></trkpt><trkpt lat="42.3955216" lon="-7.4823699"><ele>401.75</ele><time>2026-04-25T10:21:55.045Z</time></trkpt><trkpt lat="42.3956272" lon="-7.4825367"><ele>397.5</ele><time>2026-04-25T10:21:56.042Z</time></trkpt><trkpt lat="42.3957127" lon="-7.4826713"><ele>393.25</ele><time>2026-04-25T10:21:57.043Z</time></trkpt><trkpt lat="42.3957852" lon="-7.4827807"><ele>389.0</ele><time>2026-04-25T10:21:58.044Z</time></trkpt><trkpt lat="42.3958539" lon="-7.482861"><ele>389.0</ele><time>2026-04-25T10:21:59.049Z</time></trkpt><trkpt lat="42.395921" lon="-7.482896"><ele>389.0</ele><time>2026-04-25T10:22:00.043Z</time></trkpt><trkpt lat="42.395991" lon="-7.4828995"><ele>389.0</ele><time>2026-04-25T10:22:01.046Z</time></trkpt><trkpt lat="42.3960762" lon="-7.4828646"><ele>389.0</ele><time>2026-04-25T10:22:02.043Z</time></trkpt><trkpt lat="42.3961721" lon="-7.4827942"><ele>389.0</ele><time>2026-04-25T10:22:03.035Z</time></trkpt><trkpt lat="42.3962576" lon="-7.4826994"><ele>389.0</ele><time>2026-04-25T10:22:04.04Z</time></trkpt><trkpt lat="42.3963284" lon="-7.4825808"><ele>389.0</ele><time>2026-04-25T10:22:05.042Z</time></trkpt><trkpt lat="42.3963928" lon="-7.482439"><ele>389.0</ele><time>2026-04-25T10:22:06.041Z</time></trkpt><trkpt lat="42.3964581" lon="-7.4822703"><ele>389.0</ele><time>2026-04-25T10:22:07.041Z</time></trkpt><trkpt lat="42.3965348" lon="-7.482071"><ele>388.66666666666663</ele><time>2026-04-25T10:22:08.04Z</time></trkpt><trkpt lat="42.3966167" lon="-7.4818473"><ele>388.33333333333337</ele><time>2026-04-25T10:22:09.049Z</time></trkpt><trkpt lat="42.3966949" lon="-7.4816351"><ele>388.0</ele><time>2026-04-25T10:22:10.042Z</time></trkpt><trkpt lat="42.3967879" lon="-7.4814237"><ele>396.0</ele><time>2026-04-25T10:22:11.037Z</time></trkpt><trkpt lat="42.3969037" lon="-7.4812101"><ele>404.0</ele><time>2026-04-25T10:22:12.049Z</time></trkpt><trkpt lat="42.3970265" lon="-7.4809899"><ele>412.0</ele><time>2026-04-25T10:22:13.046Z</time></trkpt><trkpt lat="42.3971403" lon="-7.4807759"><ele>404.0</ele><time>2026-04-25T10:22:14.038Z</time></trkpt><trkpt lat="42.397245" lon="-7.4805648"><ele>396.0</ele><time>2026-04-25T10:22:15.037Z</time></trkpt><trkpt lat="42.3973391" lon="-7.4803678"><ele>388.0</ele><time>2026-04-25T10:22:16.043Z</time></trkpt><trkpt lat="42.3974435" lon="-7.4801742"><ele>388.0</ele><time>2026-04-25T10:22:17.037Z</time></trkpt><trkpt lat="42.397546" lon="-7.4800135"><ele>388.0</ele><time>2026-04-25T10:22:18.042Z</time></trkpt><trkpt lat="42.397632" lon="-7.4798927"><ele>388.0</ele><time>2026-04-25T10:22:19.036Z</time></trkpt><trkpt lat="42.3977059" lon="-7.4797966"><ele>388.0</ele><time>2026-04-25T10:22:20.038Z</time></trkpt><trkpt lat="42.3978038" lon="-7.4797421"><ele>388.0</ele><time>2026-04-25T10:22:21.042Z</time></trkpt><trkpt lat="42.3979175" lon="-7.4796998"><ele>388.0</ele><time>2026-04-25T10:22:22.046Z</time></trkpt><trkpt lat="42.3980033" lon="-7.4796193"><ele>388.0</ele><time>2026-04-25T10:22:23.053Z</time></trkpt><trkpt lat="42.3980862" lon="-7.4795046"><ele>388.0</ele><time>2026-04-25T10:22:24.036Z</time></trkpt><trkpt lat="42.3981629" lon="-7.4793486"><ele>390.33333333333337</ele><time>2026-04-25T10:22:25.036Z</time></trkpt><trkpt lat="42.3982237" lon="-7.4791527"><ele>392.66666666666663</ele><time>2026-04-25T10:22:26.043Z</time></trkpt><trkpt lat="42.3982733" lon="-7.4789218"><ele>395.0</ele><time>2026-04-25T10:22:27.051Z</time></trkpt><trkpt lat="42.3983148" lon="-7.4786998"><ele>395.0</ele><time>2026-04-25T10:22:28.039Z</time></trkpt><trkpt lat="42.3983651" lon="-7.4785173"><ele>395.0</ele><time>2026-04-25T10:22:29.04Z</time></trkpt><trkpt lat="42.3984254" lon="-7.478366"><ele>395.0</ele><time>2026-04-25T10:22:30.041Z</time></trkpt><trkpt lat="42.3985007" lon="-7.4782421"><ele>395.0</ele><time>2026-04-25T10:22:31.042Z</time></trkpt><trkpt lat="42.3986077" lon="-7.4781374"><ele>395.0</ele><time>2026-04-25T10:22:32.04Z</time></trkpt><trkpt lat="42.3987288" lon="-7.4780604"><ele>395.0</ele><time>2026-04-25T10:22:33.042Z</time></trkpt><trkpt lat="42.3988447" lon="-7.4779927"><ele>395.0</ele><time>2026-04-25T10:22:34.04Z</time></trkpt><trkpt lat="42.3989404" lon="-7.4779194"><ele>395.0</ele><time>2026-04-25T10:22:35.044Z</time></trkpt><trkpt lat="42.3990338" lon="-7.4778445"><ele>393.75</ele><time>2026-04-25T10:22:36.046Z</time></trkpt><trkpt lat="42.3990953" lon="-7.4777022"><ele>392.5</ele><time>2026-04-25T10:22:37.041Z</time></trkpt><trkpt lat="42.39915" lon="-7.4775142"><ele>391.25</ele><time>2026-04-25T10:22:38.051Z</time></trkpt><trkpt lat="42.3992068" lon="-7.4773096"><ele>390.0</ele><time>2026-04-25T10:22:39.043Z</time></trkpt><trkpt lat="42.3992521" lon="-7.4770553"><ele>390.0</ele><time>2026-04-25T10:22:40.042Z</time></trkpt><trkpt lat="42.3993014" lon="-7.4768199"><ele>390.0</ele><time>2026-04-25T10:22:41.043Z</time></trkpt><trkpt lat="42.3993426" lon="-7.4766062"><ele>390.0</ele><time>2026-04-25T10:22:42.046Z</time></trkpt><trkpt lat="42.3993789" lon="-7.476413"><ele>389.0</ele><time>2026-04-25T10:22:43.056Z</time></trkpt><trkpt lat="42.3994016" lon="-7.4762503"><ele>388.0</ele><time>2026-04-25T10:22:44.04Z</time></trkpt><trkpt lat="42.3993986" lon="-7.476088"><ele>387.0</ele><time>2026-04-25T10:22:45.046Z</time></trkpt><trkpt lat="42.3993709" lon="-7.4759279"><ele>386.0</ele><time>2026-04-25T10:22:46.035Z</time></trkpt><trkpt lat="42.3993174" lon="-7.475773"><ele>386.0</ele><time>2026-04-25T10:22:47.045Z</time></trkpt><trkpt lat="42.3992428" lon="-7.4756367"><ele>386.0</ele><time>2026-04-25T10:22:48.042Z</time></trkpt><trkpt lat="42.3991481" lon="-7.4755239"><ele>386.0</ele><time>2026-04-25T10:22:49.043Z</time></trkpt><trkpt lat="42.3990368" lon="-7.4754305"><ele>386.0</ele><time>2026-04-25T10:22:50.038Z</time></trkpt><trkpt lat="42.3989331" lon="-7.4753575"><ele>390.25</ele><time>2026-04-25T10:22:51.039Z</time></trkpt><trkpt lat="42.3988346" lon="-7.4752871"><ele>394.5</ele><time>2026-04-25T10:22:52.036Z</time></trkpt><trkpt lat="42.3987518" lon="-7.475169"><ele>398.75</ele><time>2026-04-25T10:22:53.04Z</time></trkpt><trkpt lat="42.398688" lon="-7.475028"><ele>403.0</ele><time>2026-04-25T10:22:54.041Z</time></trkpt><trkpt lat="42.3986305" lon="-7.4748661"><ele>403.0</ele><time>2026-04-25T10:22:55.039Z</time></trkpt><trkpt lat="42.3985954" lon="-7.4747414"><ele>403.0</ele><time>2026-04-25T10:22:56.037Z</time></trkpt><trkpt lat="42.3985806" lon="-7.4746267"><ele>403.0</ele><time>2026-04-25T10:22:57.042Z</time></trkpt><trkpt lat="42.3986197" lon="-7.4744673"><ele>403.0</ele><time>2026-04-25T10:22:59.048Z</time></trkpt><trkpt lat="42.3986978" lon="-7.4744065"><ele>403.0</ele><time>2026-04-25T10:23:00.047Z</time></trkpt><trkpt lat="42.3988055" lon="-7.4743903"><ele>398.4</ele><time>2026-04-25T10:23:01.044Z</time></trkpt><trkpt lat="42.3989107" lon="-7.4743763"><ele>393.79999999999995</ele><time>2026-04-25T10:23:02.033Z</time></trkpt><trkpt lat="42.3989973" lon="-7.4743228"><ele>389.2</ele><time>2026-04-25T10:23:03.049Z</time></trkpt><trkpt lat="42.3990836" lon="-7.4742362"><ele>384.6</ele><time>2026-04-25T10:23:04.044Z</time></trkpt><trkpt lat="42.3991594" lon="-7.4741168"><ele>380.0</ele><time>2026-04-25T10:23:05.048Z</time></trkpt><trkpt lat="42.399226" lon="-7.4739742"><ele>380.0</ele><time>2026-04-25T10:23:06.049Z</time></trkpt><trkpt lat="42.3992929" lon="-7.4737987"><ele>380.0</ele><time>2026-04-25T10:23:07.043Z</time></trkpt><trkpt lat="42.3993717" lon="-7.4735917"><ele>380.0</ele><time>2026-04-25T10:23:08.042Z</time></trkpt><trkpt lat="42.399458" lon="-7.4733896"><ele>389.0</ele><time>2026-04-25T10:23:09.038Z</time></trkpt><trkpt lat="42.3995356" lon="-7.4731939"><ele>398.0</ele><time>2026-04-25T10:23:10.041Z</time></trkpt><trkpt lat="42.3996015" lon="-7.4730018"><ele>407.0</ele><time>2026-04-25T10:23:11.038Z</time></trkpt><trkpt lat="42.3996445" lon="-7.472801"><ele>411.75</ele><time>2026-04-25T10:23:12.041Z</time></trkpt><trkpt lat="42.3996722" lon="-7.4725894"><ele>416.5</ele><time>2026-04-25T10:23:13.049Z</time></trkpt><trkpt lat="42.3996861" lon="-7.4723958"><ele>421.25</ele><time>2026-04-25T10:23:14.038Z</time></trkpt><trkpt lat="42.3996809" lon="-7.472222"><ele>426.0</ele><time>2026-04-25T10:23:15.038Z</time></trkpt><trkpt lat="42.3996554" lon="-7.4720608"><ele>426.0</ele><time>2026-04-25T10:23:16.038Z</time></trkpt><trkpt lat="42.3996069" lon="-7.4719077"><ele>426.0</ele><time>2026-04-25T10:23:17.042Z</time></trkpt><trkpt lat="42.3995392" lon="-7.471753"><ele>426.0</ele><time>2026-04-25T10:23:18.046Z</time></trkpt><trkpt lat="42.3994588" lon="-7.4715989"><ele>426.0</ele><time>2026-04-25T10:23:19.037Z</time></trkpt><trkpt lat="42.399382" lon="-7.4714584"><ele>426.0</ele><time>2026-04-25T10:23:20.037Z</time></trkpt><trkpt lat="42.3993175" lon="-7.471321"><ele>426.0</ele><time>2026-04-25T10:23:21.036Z</time></trkpt><trkpt lat="42.3992827" lon="-7.4711533"><ele>426.0</ele><time>2026-04-25T10:23:22.039Z</time></trkpt><trkpt lat="42.3992559" lon="-7.4709502"><ele>426.0</ele><time>2026-04-25T10:23:23.042Z</time></trkpt><trkpt lat="42.399254" lon="-7.4707403"><ele>425.33333333333337</ele><time>2026-04-25T10:23:24.035Z</time></trkpt><trkpt lat="42.3992627" lon="-7.4705104"><ele>424.6666666666667</ele><time>2026-04-25T10:23:25.033Z</time></trkpt><trkpt lat="42.3992961" lon="-7.470274"><ele>424.0</ele><time>2026-04-25T10:23:26.041Z</time></trkpt><trkpt lat="42.3993452" lon="-7.4700336"><ele>427.0</ele><time>2026-04-25T10:23:27.039Z</time></trkpt><trkpt lat="42.3993916" lon="-7.4698053"><ele>430.0</ele><time>2026-04-25T10:23:28.034Z</time></trkpt><trkpt lat="42.3994572" lon="-7.4695771"><ele>433.0</ele><time>2026-04-25T10:23:29.034Z</time></trkpt><trkpt lat="42.3995463" lon="-7.4693655"><ele>428.0</ele><time>2026-04-25T10:23:30.041Z</time></trkpt><trkpt lat="42.3996265" lon="-7.4691554"><ele>423.0</ele><time>2026-04-25T10:23:31.04Z</time></trkpt><trkpt lat="42.3997188" lon="-7.4689444"><ele>418.0</ele><time>2026-04-25T10:23:32.04Z</time></trkpt><trkpt lat="42.399802" lon="-7.4687756"><ele>418.0</ele><time>2026-04-25T10:23:33.047Z</time></trkpt><trkpt lat="42.3998805" lon="-7.468587"><ele>418.0</ele><time>2026-04-25T10:23:34.044Z</time></trkpt><trkpt lat="42.3999436" lon="-7.4684029"><ele>418.0</ele><time>2026-04-25T10:23:35.04Z</time></trkpt><trkpt lat="42.3999862" lon="-7.4682029"><ele>418.0</ele><time>2026-04-25T10:23:36.047Z</time></trkpt><trkpt lat="42.4000313" lon="-7.467989"><ele>418.0</ele><time>2026-04-25T10:23:37.039Z</time></trkpt><trkpt lat="42.4000655" lon="-7.4677506"><ele>418.0</ele><time>2026-04-25T10:23:38.037Z</time></trkpt><trkpt lat="42.4001058" lon="-7.4675322"><ele>423.0</ele><time>2026-04-25T10:23:39.044Z</time></trkpt><trkpt lat="42.4001563" lon="-7.4673373"><ele>428.0</ele><time>2026-04-25T10:23:40.036Z</time></trkpt><trkpt lat="42.4002155" lon="-7.4671312"><ele>433.0</ele><time>2026-04-25T10:23:41.034Z</time></trkpt><trkpt lat="42.4003092" lon="-7.4669465"><ele>438.33333333333337</ele><time>2026-04-25T10:23:42.042Z</time></trkpt><trkpt lat="42.400422" lon="-7.4667725"><ele>443.66666666666663</ele><time>2026-04-25T10:23:43.041Z</time></trkpt><trkpt lat="42.4005176" lon="-7.4666032"><ele>449.0</ele><time>2026-04-25T10:23:44.043Z</time></trkpt><trkpt lat="42.4006185" lon="-7.466407"><ele>444.5</ele><time>2026-04-25T10:23:45.038Z</time></trkpt><trkpt lat="42.4007064" lon="-7.4662349"><ele>440.0</ele><time>2026-04-25T10:23:46.043Z</time></trkpt><trkpt lat="42.4008008" lon="-7.4660933"><ele>435.5</ele><time>2026-04-25T10:23:47.035Z</time></trkpt><trkpt lat="42.4009076" lon="-7.4659878"><ele>431.0</ele><time>2026-04-25T10:23:48.05Z</time></trkpt><trkpt lat="42.4010373" lon="-7.4659052"><ele>431.0</ele><time>2026-04-25T10:23:49.038Z</time></trkpt><trkpt lat="42.4011838" lon="-7.4658561"><ele>431.0</ele><time>2026-04-25T10:23:50.051Z</time></trkpt><trkpt lat="42.4013373" lon="-7.4658374"><ele>431.0</ele><time>2026-04-25T10:23:51.037Z</time></trkpt><trkpt lat="42.4014783" lon="-7.4658336"><ele>431.0</ele><time>2026-04-25T10:23:52.04Z</time></trkpt><trkpt lat="42.4016097" lon="-7.4658288"><ele>425.75</ele><time>2026-04-25T10:23:53.042Z</time></trkpt><trkpt lat="42.4017283" lon="-7.4658026"><ele>420.5</ele><time>2026-04-25T10:23:54.036Z</time></trkpt><trkpt lat="42.4018233" lon="-7.4657399"><ele>415.25</ele><time>2026-04-25T10:23:55.042Z</time></trkpt><trkpt lat="42.4019131" lon="-7.4656288"><ele>410.0</ele><time>2026-04-25T10:23:56.043Z</time></trkpt><trkpt lat="42.402012" lon="-7.4654724"><ele>411.75</ele><time>2026-04-25T10:23:57.037Z</time></trkpt><trkpt lat="42.4021156" lon="-7.4652904"><ele>413.5</ele><time>2026-04-25T10:23:58.038Z</time></trkpt><trkpt lat="42.402216" lon="-7.4651492"><ele>415.25</ele><time>2026-04-25T10:23:59.04Z</time></trkpt><trkpt lat="42.4023238" lon="-7.4650531"><ele>417.0</ele><time>2026-04-25T10:24:00.05Z</time></trkpt><trkpt lat="42.4024519" lon="-7.4649922"><ele>417.0</ele><time>2026-04-25T10:24:01.037Z</time></trkpt><trkpt lat="42.4025933" lon="-7.4649571"><ele>417.0</ele><time>2026-04-25T10:24:02.035Z</time></trkpt><trkpt lat="42.4027172" lon="-7.4649272"><ele>417.0</ele><time>2026-04-25T10:24:03.038Z</time></trkpt><trkpt lat="42.40282" lon="-7.4648882"><ele>417.0</ele><time>2026-04-25T10:24:04.044Z</time></trkpt><trkpt lat="42.4029114" lon="-7.4648226"><ele>413.5</ele><time>2026-04-25T10:24:05.043Z</time></trkpt><trkpt lat="42.4030059" lon="-7.4647196"><ele>410.0</ele><time>2026-04-25T10:24:06.035Z</time></trkpt><trkpt lat="42.4030865" lon="-7.4646004"><ele>406.5</ele><time>2026-04-25T10:24:07.042Z</time></trkpt><trkpt lat="42.4031476" lon="-7.4644655"><ele>403.0</ele><time>2026-04-25T10:24:08.034Z</time></trkpt><trkpt lat="42.4031777" lon="-7.4643089"><ele>403.0</ele><time>2026-04-25T10:24:09.034Z</time></trkpt><trkpt lat="42.403181" lon="-7.4641303"><ele>403.0</ele><time>2026-04-25T10:24:10.05Z</time></trkpt><trkpt lat="42.4031669" lon="-7.4639301"><ele>403.0</ele><time>2026-04-25T10:24:11.04Z</time></trkpt><trkpt lat="42.403151" lon="-7.4637528"><ele>403.0</ele><time>2026-04-25T10:24:12.045Z</time></trkpt><trkpt lat="42.4031486" lon="-7.4636045"><ele>406.33333333333337</ele><time>2026-04-25T10:24:13.043Z</time></trkpt><trkpt lat="42.4031823" lon="-7.4634381"><ele>409.66666666666663</ele><time>2026-04-25T10:24:14.042Z</time></trkpt><trkpt lat="42.4032557" lon="-7.4632264"><ele>413.0</ele><time>2026-04-25T10:24:15.035Z</time></trkpt><trkpt lat="42.4033129" lon="-7.4630257"><ele>417.0</ele><time>2026-04-25T10:24:16.046Z</time></trkpt><trkpt lat="42.4033563" lon="-7.4628206"><ele>421.0</ele><time>2026-04-25T10:24:17.038Z</time></trkpt><trkpt lat="42.4034017" lon="-7.4626253"><ele>425.0</ele><time>2026-04-25T10:24:18.034Z</time></trkpt><trkpt lat="42.4034511" lon="-7.4624949"><ele>429.0</ele><time>2026-04-25T10:24:19.033Z</time></trkpt><trkpt lat="42.4035101" lon="-7.4623606"><ele>429.0</ele><time>2026-04-25T10:24:20.034Z</time></trkpt><trkpt lat="42.4036236" lon="-7.4622281"><ele>429.0</ele><time>2026-04-25T10:24:21.039Z</time></trkpt><trkpt lat="42.4037683" lon="-7.4621071"><ele>429.0</ele><time>2026-04-25T10:24:22.041Z</time></trkpt><trkpt lat="42.4039163" lon="-7.461979"><ele>423.33333333333337</ele><time>2026-04-25T10:24:23.043Z</time></trkpt><trkpt lat="42.4040416" lon="-7.4618459"><ele>417.6666666666667</ele><time>2026-04-25T10:24:24.037Z</time></trkpt><trkpt lat="42.4041563" lon="-7.4617179"><ele>412.0</ele><time>2026-04-25T10:24:25.045Z</time></trkpt><trkpt lat="42.4042356" lon="-7.4615542"><ele>412.0</ele><time>2026-04-25T10:24:26.037Z</time></trkpt><trkpt lat="42.4042931" lon="-7.4613933"><ele>412.0</ele><time>2026-04-25T10:24:27.044Z</time></trkpt><trkpt lat="42.4043441" lon="-7.4612343"><ele>412.0</ele><time>2026-04-25T10:24:28.043Z</time></trkpt><trkpt lat="42.40434" lon="-7.4610534"><ele>412.0</ele><time>2026-04-25T10:24:29.044Z</time></trkpt><trkpt lat="42.404311" lon="-7.4608776"><ele>414.0</ele><time>2026-04-25T10:24:30.04Z</time></trkpt><trkpt lat="42.4042768" lon="-7.4606993"><ele>416.0</ele><time>2026-04-25T10:24:31.045Z</time></trkpt><trkpt lat="42.4042094" lon="-7.4604711"><ele>418.0</ele><time>2026-04-25T10:24:32.036Z</time></trkpt><trkpt lat="42.4041279" lon="-7.46022"><ele>418.0</ele><time>2026-04-25T10:24:33.038Z</time></trkpt><trkpt lat="42.4040585" lon="-7.4599694"><ele>418.0</ele><time>2026-04-25T10:24:34.038Z</time></trkpt><trkpt lat="42.4039997" lon="-7.4597153"><ele>418.0</ele><time>2026-04-25T10:24:35.042Z</time></trkpt><trkpt lat="42.4039702" lon="-7.4594691"><ele>417.33333333333337</ele><time>2026-04-25T10:24:36.044Z</time></trkpt><trkpt lat="42.4039431" lon="-7.4592457"><ele>416.66666666666663</ele><time>2026-04-25T10:24:37.038Z</time></trkpt><trkpt lat="42.4039311" lon="-7.4590316"><ele>416.0</ele><time>2026-04-25T10:24:38.041Z</time></trkpt><trkpt lat="42.4038836" lon="-7.45886"><ele>424.3333333333333</ele><time>2026-04-25T10:24:39.039Z</time></trkpt><trkpt lat="42.4038237" lon="-7.4586973"><ele>432.66666666666663</ele><time>2026-04-25T10:24:40.045Z</time></trkpt><trkpt lat="42.4037359" lon="-7.4585211"><ele>441.0</ele><time>2026-04-25T10:24:41.037Z</time></trkpt><trkpt lat="42.4036267" lon="-7.4583357"><ele>441.0</ele><time>2026-04-25T10:24:42.045Z</time></trkpt><trkpt lat="42.4035193" lon="-7.4581537"><ele>441.0</ele><time>2026-04-25T10:24:43.037Z</time></trkpt><trkpt lat="42.403413" lon="-7.4579957"><ele>441.0</ele><time>2026-04-25T10:24:44.035Z</time></trkpt><trkpt lat="42.4033002" lon="-7.4578131"><ele>441.0</ele><time>2026-04-25T10:24:45.049Z</time></trkpt><trkpt lat="42.4031773" lon="-7.4576343"><ele>441.0</ele><time>2026-04-25T10:24:46.041Z</time></trkpt><trkpt lat="42.4030345" lon="-7.4574804"><ele>441.0</ele><time>2026-04-25T10:24:47.037Z</time></trkpt><trkpt lat="42.402904" lon="-7.4573419"><ele>441.0</ele><time>2026-04-25T10:24:48.041Z</time></trkpt><trkpt lat="42.4027942" lon="-7.4572182"><ele>441.0</ele><time>2026-04-25T10:24:49.038Z</time></trkpt><trkpt lat="42.4027102" lon="-7.4571151"><ele>441.0</ele><time>2026-04-25T10:24:50.038Z</time></trkpt><trkpt lat="42.4026281" lon="-7.4570594"><ele>441.0</ele><time>2026-04-25T10:24:51.044Z</time></trkpt><trkpt lat="42.4025367" lon="-7.4570429"><ele>441.0</ele><time>2026-04-25T10:24:52.042Z</time></trkpt><trkpt lat="42.402425" lon="-7.4570389"><ele>441.25</ele><time>2026-04-25T10:24:53.037Z</time></trkpt><trkpt lat="42.402313" lon="-7.457064"><ele>441.5</ele><time>2026-04-25T10:24:54.045Z</time></trkpt><trkpt lat="42.4022057" lon="-7.45711"><ele>441.75</ele><time>2026-04-25T10:24:55.037Z</time></trkpt><trkpt lat="42.4021037" lon="-7.4571787"><ele>442.0</ele><time>2026-04-25T10:24:56.036Z</time></trkpt><trkpt lat="42.4020017" lon="-7.4572776"><ele>442.0</ele><time>2026-04-25T10:24:57.039Z</time></trkpt><trkpt lat="42.401901" lon="-7.4573988"><ele>442.0</ele><time>2026-04-25T10:24:58.04Z</time></trkpt><trkpt lat="42.4018014" lon="-7.4575393"><ele>442.0</ele><time>2026-04-25T10:24:59.042Z</time></trkpt><trkpt lat="42.4016983" lon="-7.4576899"><ele>442.0</ele><time>2026-04-25T10:25:00.047Z</time></trkpt><trkpt lat="42.4015896" lon="-7.4578377"><ele>448.0</ele><time>2026-04-25T10:25:01.046Z</time></trkpt><trkpt lat="42.4014702" lon="-7.4579645"><ele>454.0</ele><time>2026-04-25T10:25:02.037Z</time></trkpt><trkpt lat="42.4013364" lon="-7.45807"><ele>460.0</ele><time>2026-04-25T10:25:03.04Z</time></trkpt><trkpt lat="42.4011971" lon="-7.4581682"><ele>460.0</ele><time>2026-04-25T10:25:04.04Z</time></trkpt><trkpt lat="42.4010539" lon="-7.4582554"><ele>460.0</ele><time>2026-04-25T10:25:05.058Z</time></trkpt><trkpt lat="42.4009402" lon="-7.4583219"><ele>460.0</ele><time>2026-04-25T10:25:06.04Z</time></trkpt><trkpt lat="42.4008345" lon="-7.4583888"><ele>460.0</ele><time>2026-04-25T10:25:07.047Z</time></trkpt><trkpt lat="42.4007501" lon="-7.458444"><ele>460.00000000000006</ele><time>2026-04-25T10:25:08.041Z</time></trkpt><trkpt lat="42.4006926" lon="-7.458488"><ele>460.0</ele><time>2026-04-25T10:25:09.039Z</time></trkpt><trkpt lat="42.4006279" lon="-7.4585539"><ele>460.0</ele><time>2026-04-25T10:25:11.045Z</time></trkpt><trkpt lat="42.4005492" lon="-7.4586152"><ele>460.0</ele><time>2026-04-25T10:25:14.041Z</time></trkpt><trkpt lat="42.4004801" lon="-7.4586638"><ele>460.00000000000006</ele><time>2026-04-25T10:25:16.046Z</time></trkpt><trkpt lat="42.4004056" lon="-7.4587296"><ele>460.0</ele><time>2026-04-25T10:25:18.042Z</time></trkpt><trkpt lat="42.4003501" lon="-7.4587833"><ele>462.6666666666667</ele><time>2026-04-25T10:25:20.043Z</time></trkpt><trkpt lat="42.4002751" lon="-7.4588526"><ele>465.33333333333337</ele><time>2026-04-25T10:25:23.045Z</time></trkpt><trkpt lat="42.4002225" lon="-7.4589063"><ele>468.0</ele><time>2026-04-25T10:25:25.039Z</time></trkpt><trkpt lat="42.4001646" lon="-7.458958"><ele>470.66666666666663</ele><time>2026-04-25T10:25:27.042Z</time></trkpt><trkpt lat="42.4000894" lon="-7.4590237"><ele>473.3333333333333</ele><time>2026-04-25T10:25:29.051Z</time></trkpt><trkpt lat="42.4000103" lon="-7.4590924"><ele>476.0</ele><time>2026-04-25T10:25:31.045Z</time></trkpt><trkpt lat="42.3999233" lon="-7.4591705"><ele>475.99999999999994</ele><time>2026-04-25T10:25:33.046Z</time></trkpt><trkpt lat="42.3998732" lon="-7.459225"><ele>476.0</ele><time>2026-04-25T10:25:34.04Z</time></trkpt><trkpt lat="42.3998225" lon="-7.4592859"><ele>476.0</ele><time>2026-04-25T10:25:35.039Z</time></trkpt><trkpt lat="42.3997662" lon="-7.4593516"><ele>476.0</ele><time>2026-04-25T10:25:36.047Z</time></trkpt><trkpt lat="42.3997069" lon="-7.4594227"><ele>475.99999999999994</ele><time>2026-04-25T10:25:37.038Z</time></trkpt><trkpt lat="42.399652" lon="-7.459501"><ele>476.0</ele><time>2026-04-25T10:25:38.041Z</time></trkpt><trkpt lat="42.3995911" lon="-7.4595832"><ele>478.4</ele><time>2026-04-25T10:25:39.04Z</time></trkpt><trkpt lat="42.3995404" lon="-7.4596481"><ele>480.8</ele><time>2026-04-25T10:25:40.041Z</time></trkpt><trkpt lat="42.3994456" lon="-7.4597494"><ele>483.19999999999993</ele><time>2026-04-25T10:25:42.042Z</time></trkpt><trkpt lat="42.3993349" lon="-7.4597079"><ele>485.59999999999997</ele><time>2026-04-25T10:25:44.035Z</time></trkpt><trkpt lat="42.3992796" lon="-7.4595451"><ele>488.0</ele><time>2026-04-25T10:25:46.042Z</time></trkpt><trkpt lat="42.3992699" lon="-7.4594373"><ele>488.0</ele><time>2026-04-25T10:25:47.04Z</time></trkpt><trkpt lat="42.3992663" lon="-7.4592877"><ele>487.99999999999994</ele><time>2026-04-25T10:25:48.034Z</time></trkpt><trkpt lat="42.3992609" lon="-7.4591604"><ele>487.99999999999994</ele><time>2026-04-25T10:25:49.044Z</time></trkpt><trkpt lat="42.3992524" lon="-7.4590448"><ele>488.0</ele><time>2026-04-25T10:25:50.036Z</time></trkpt><trkpt lat="42.3992409" lon="-7.4589136"><ele>488.0</ele><time>2026-04-25T10:25:51.053Z</time></trkpt><trkpt lat="42.3992244" lon="-7.4587617"><ele>488.3333333333333</ele><time>2026-04-25T10:25:52.034Z</time></trkpt><trkpt lat="42.3992086" lon="-7.4586389"><ele>488.66666666666663</ele><time>2026-04-25T10:25:53.04Z</time></trkpt><trkpt lat="42.3991782" lon="-7.4585516"><ele>489.0</ele><time>2026-04-25T10:25:54.042Z</time></trkpt><trkpt lat="42.3991239" lon="-7.4585044"><ele>489.33333333333337</ele><time>2026-04-25T10:25:55.039Z</time></trkpt><trkpt lat="42.399015" lon="-7.4585525"><ele>489.6666666666667</ele><time>2026-04-25T10:25:57.034Z</time></trkpt><trkpt lat="42.398966" lon="-7.4586243"><ele>490.0</ele><time>2026-04-25T10:25:58.042Z</time></trkpt><trkpt lat="42.3989113" lon="-7.4587291"><ele>489.6</ele><time>2026-04-25T10:25:59.045Z</time></trkpt><trkpt lat="42.3988553" lon="-7.4588392"><ele>489.2</ele><time>2026-04-25T10:26:00.039Z</time></trkpt><trkpt lat="42.398787" lon="-7.4589662"><ele>488.79999999999995</ele><time>2026-04-25T10:26:01.04Z</time></trkpt><trkpt lat="42.3987333" lon="-7.4590792"><ele>488.4</ele><time>2026-04-25T10:26:02.043Z</time></trkpt><trkpt lat="42.3986832" lon="-7.4591839"><ele>488.0</ele><time>2026-04-25T10:26:03.041Z</time></trkpt><trkpt lat="42.3986211" lon="-7.459293"><ele>489.59999999999997</ele><time>2026-04-25T10:26:04.05Z</time></trkpt><trkpt lat="42.3985581" lon="-7.4594173"><ele>491.19999999999993</ele><time>2026-04-25T10:26:05.057Z</time></trkpt><trkpt lat="42.3985039" lon="-7.4595287"><ele>492.8</ele><time>2026-04-25T10:26:06.043Z</time></trkpt><trkpt lat="42.3984662" lon="-7.4596277"><ele>494.4</ele><time>2026-04-25T10:26:07.045Z</time></trkpt><trkpt lat="42.3984413" lon="-7.4597134"><ele>496.0</ele><time>2026-04-25T10:26:08.045Z</time></trkpt><trkpt lat="42.3983866" lon="-7.4598536"><ele>497.20000000000005</ele><time>2026-04-25T10:26:10.039Z</time></trkpt><trkpt lat="42.3983303" lon="-7.4599657"><ele>498.40000000000003</ele><time>2026-04-25T10:26:12.037Z</time></trkpt><trkpt lat="42.3982797" lon="-7.4600644"><ele>499.6</ele><time>2026-04-25T10:26:14.042Z</time></trkpt><trkpt lat="42.398231" lon="-7.4602177"><ele>500.8</ele><time>2026-04-25T10:26:16.05Z</time></trkpt><trkpt lat="42.3982085" lon="-7.4603208"><ele>502.0</ele><time>2026-04-25T10:26:17.037Z</time></trkpt><trkpt lat="42.3981906" lon="-7.4604281"><ele>503.33333333333337</ele><time>2026-04-25T10:26:18.04Z</time></trkpt><trkpt lat="42.398174" lon="-7.460536"><ele>504.6666666666667</ele><time>2026-04-25T10:26:19.046Z</time></trkpt><trkpt lat="42.3981481" lon="-7.4606247"><ele>506.0</ele><time>2026-04-25T10:26:20.038Z</time></trkpt><trkpt lat="42.3981044" lon="-7.4607195"><ele>507.33333333333337</ele><time>2026-04-25T10:26:21.039Z</time></trkpt><trkpt lat="42.3980587" lon="-7.4608038"><ele>508.6666666666667</ele><time>2026-04-25T10:26:22.043Z</time></trkpt><trkpt lat="42.3980209" lon="-7.4608793"><ele>510.0</ele><time>2026-04-25T10:26:23.034Z</time></trkpt><trkpt lat="42.3979582" lon="-7.4610232"><ele>509.4</ele><time>2026-04-25T10:26:25.041Z</time></trkpt><trkpt lat="42.3979086" lon="-7.4611459"><ele>508.8</ele><time>2026-04-25T10:26:27.036Z</time></trkpt><trkpt lat="42.3978651" lon="-7.4612688"><ele>508.20000000000005</ele><time>2026-04-25T10:26:36.044Z</time></trkpt><trkpt lat="42.3978027" lon="-7.4614341"><ele>507.6</ele><time>2026-04-25T10:26:38.045Z</time></trkpt><trkpt lat="42.3977645" lon="-7.4615258"><ele>507.0</ele><time>2026-04-25T10:26:39.053Z</time></trkpt><trkpt lat="42.3977191" lon="-7.4616385"><ele>507.0</ele><time>2026-04-25T10:26:40.042Z</time></trkpt><trkpt lat="42.3976674" lon="-7.4617672"><ele>507.0</ele><time>2026-04-25T10:26:41.037Z</time></trkpt><trkpt lat="42.3976107" lon="-7.4619047"><ele>507.0</ele><time>2026-04-25T10:26:42.047Z</time></trkpt><trkpt lat="42.3975512" lon="-7.4620455"><ele>507.0</ele><time>2026-04-25T10:26:43.04Z</time></trkpt><trkpt lat="42.3974967" lon="-7.4621712"><ele>511.6</ele><time>2026-04-25T10:26:44.049Z</time></trkpt><trkpt lat="42.3974494" lon="-7.4622957"><ele>516.2</ele><time>2026-04-25T10:26:45.052Z</time></trkpt><trkpt lat="42.3974127" lon="-7.46241"><ele>520.8</ele><time>2026-04-25T10:26:46.042Z</time></trkpt><trkpt lat="42.3973609" lon="-7.4625401"><ele>525.4</ele><time>2026-04-25T10:26:47.04Z</time></trkpt><trkpt lat="42.3973064" lon="-7.4626867"><ele>530.0</ele><time>2026-04-25T10:26:48.041Z</time></trkpt><trkpt lat="42.3972587" lon="-7.4628462"><ele>534.25</ele><time>2026-04-25T10:26:49.041Z</time></trkpt><trkpt lat="42.3972206" lon="-7.4630098"><ele>538.5</ele><time>2026-04-25T10:26:50.043Z</time></trkpt><trkpt lat="42.397193" lon="-7.4631657"><ele>542.75</ele><time>2026-04-25T10:26:51.048Z</time></trkpt><trkpt lat="42.3971715" lon="-7.4633269"><ele>547.0</ele><time>2026-04-25T10:26:52.036Z</time></trkpt><trkpt lat="42.397152" lon="-7.4634975"><ele>541.75</ele><time>2026-04-25T10:26:53.039Z</time></trkpt><trkpt lat="42.397123" lon="-7.463672"><ele>536.5</ele><time>2026-04-25T10:26:54.039Z</time></trkpt><trkpt lat="42.3970888" lon="-7.4638338"><ele>531.25</ele><time>2026-04-25T10:26:55.042Z</time></trkpt><trkpt lat="42.3970482" lon="-7.4639843"><ele>526.0</ele><time>2026-04-25T10:26:56.036Z</time></trkpt><trkpt lat="42.3970012" lon="-7.4641407"><ele>526.0</ele><time>2026-04-25T10:26:57.038Z</time></trkpt><trkpt lat="42.3969444" lon="-7.4642939"><ele>526.0</ele><time>2026-04-25T10:26:58.035Z</time></trkpt><trkpt lat="42.3968823" lon="-7.4644446"><ele>526.0</ele><time>2026-04-25T10:26:59.041Z</time></trkpt><trkpt lat="42.3968237" lon="-7.4645993"><ele>526.0</ele><time>2026-04-25T10:27:00.036Z</time></trkpt><trkpt lat="42.3967711" lon="-7.464755"><ele>531.5</ele><time>2026-04-25T10:27:01.042Z</time></trkpt><trkpt lat="42.3967256" lon="-7.4649141"><ele>537.0</ele><time>2026-04-25T10:27:02.037Z</time></trkpt><trkpt lat="42.3966775" lon="-7.465071"><ele>542.5</ele><time>2026-04-25T10:27:03.037Z</time></trkpt><trkpt lat="42.3966272" lon="-7.465226"><ele>548.0</ele><time>2026-04-25T10:27:04.052Z</time></trkpt><trkpt lat="42.3965776" lon="-7.4653811"><ele>545.25</ele><time>2026-04-25T10:27:05.042Z</time></trkpt><trkpt lat="42.396526" lon="-7.4655376"><ele>542.5</ele><time>2026-04-25T10:27:06.035Z</time></trkpt><trkpt lat="42.3964685" lon="-7.4656977"><ele>539.75</ele><time>2026-04-25T10:27:07.038Z</time></trkpt><trkpt lat="42.3964054" lon="-7.4658623"><ele>537.0</ele><time>2026-04-25T10:27:08.039Z</time></trkpt><trkpt lat="42.3963356" lon="-7.4660261"><ele>537.0</ele><time>2026-04-25T10:27:09.037Z</time></trkpt><trkpt lat="42.3962641" lon="-7.4661656"><ele>537.0</ele><time>2026-04-25T10:27:10.04Z</time></trkpt><trkpt lat="42.3961845" lon="-7.4662675"><ele>537.0</ele><time>2026-04-25T10:27:11.038Z</time></trkpt><trkpt lat="42.3960873" lon="-7.4663417"><ele>537.0</ele><time>2026-04-25T10:27:12.049Z</time></trkpt><trkpt lat="42.3959843" lon="-7.4664044"><ele>542.5</ele><time>2026-04-25T10:27:13.045Z</time></trkpt><trkpt lat="42.3958885" lon="-7.4664637"><ele>548.0</ele><time>2026-04-25T10:27:14.052Z</time></trkpt><trkpt lat="42.3957896" lon="-7.466537"><ele>553.5</ele><time>2026-04-25T10:27:15.038Z</time></trkpt><trkpt lat="42.3956924" lon="-7.4666388"><ele>559.0</ele><time>2026-04-25T10:27:16.054Z</time></trkpt><trkpt lat="42.3956074" lon="-7.4667746"><ele>559.0</ele><time>2026-04-25T10:27:17.036Z</time></trkpt><trkpt lat="42.3955399" lon="-7.4669372"><ele>559.0</ele><time>2026-04-25T10:27:18.038Z</time></trkpt><trkpt lat="42.395486" lon="-7.4671118"><ele>559.0</ele><time>2026-04-25T10:27:19.037Z</time></trkpt><trkpt lat="42.3954475" lon="-7.467281"><ele>559.0</ele><time>2026-04-25T10:27:20.038Z</time></trkpt><trkpt lat="42.3954247" lon="-7.4674527"><ele>554.25</ele><time>2026-04-25T10:27:21.041Z</time></trkpt><trkpt lat="42.3954172" lon="-7.467626"><ele>549.5</ele><time>2026-04-25T10:27:22.047Z</time></trkpt><trkpt lat="42.3954239" lon="-7.4678043"><ele>544.75</ele><time>2026-04-25T10:27:23.04Z</time></trkpt><trkpt lat="42.3954417" lon="-7.4679894"><ele>540.0</ele><time>2026-04-25T10:27:24.032Z</time></trkpt><trkpt lat="42.3954594" lon="-7.4681716"><ele>540.0</ele><time>2026-04-25T10:27:25.043Z</time></trkpt><trkpt lat="42.3954812" lon="-7.4683656"><ele>540.0</ele><time>2026-04-25T10:27:26.041Z</time></trkpt><trkpt lat="42.3954941" lon="-7.4685448"><ele>540.0</ele><time>2026-04-25T10:27:27.047Z</time></trkpt><trkpt lat="42.3955034" lon="-7.468712"><ele>540.0</ele><time>2026-04-25T10:27:28.04Z</time></trkpt><trkpt lat="42.3955089" lon="-7.4688739"><ele>540.75</ele><time>2026-04-25T10:27:29.038Z</time></trkpt><trkpt lat="42.395509" lon="-7.4690396"><ele>541.5</ele><time>2026-04-25T10:27:30.038Z</time></trkpt><trkpt lat="42.3954974" lon="-7.4692098"><ele>542.25</ele><time>2026-04-25T10:27:31.045Z</time></trkpt><trkpt lat="42.3954732" lon="-7.469381"><ele>543.0</ele><time>2026-04-25T10:27:32.035Z</time></trkpt><trkpt lat="42.3954386" lon="-7.4695537"><ele>545.5</ele><time>2026-04-25T10:27:33.042Z</time></trkpt><trkpt lat="42.3954019" lon="-7.469733"><ele>548.0</ele><time>2026-04-25T10:27:34.036Z</time></trkpt><trkpt lat="42.3953672" lon="-7.4699168"><ele>550.5</ele><time>2026-04-25T10:27:35.04Z</time></trkpt><trkpt lat="42.3953321" lon="-7.470086"><ele>553.0</ele><time>2026-04-25T10:27:36.051Z</time></trkpt><trkpt lat="42.3952964" lon="-7.4702351"><ele>553.0</ele><time>2026-04-25T10:27:37.039Z</time></trkpt><trkpt lat="42.3952608" lon="-7.4703677"><ele>553.0</ele><time>2026-04-25T10:27:38.043Z</time></trkpt><trkpt lat="42.3952224" lon="-7.470496"><ele>553.0</ele><time>2026-04-25T10:27:39.037Z</time></trkpt><trkpt lat="42.395172" lon="-7.4706319"><ele>553.0</ele><time>2026-04-25T10:27:40.045Z</time></trkpt><trkpt lat="42.3951027" lon="-7.4707749"><ele>553.0</ele><time>2026-04-25T10:27:41.038Z</time></trkpt><trkpt lat="42.3950193" lon="-7.470926"><ele>553.75</ele><time>2026-04-25T10:27:42.052Z</time></trkpt><trkpt lat="42.3949318" lon="-7.4710821"><ele>554.5</ele><time>2026-04-25T10:27:43.04Z</time></trkpt><trkpt lat="42.3948472" lon="-7.4712283"><ele>555.25</ele><time>2026-04-25T10:27:44.038Z</time></trkpt><trkpt lat="42.3947646" lon="-7.4713551"><ele>556.0</ele><time>2026-04-25T10:27:45.044Z</time></trkpt><trkpt lat="42.3946846" lon="-7.4714592"><ele>556.8333333333334</ele><time>2026-04-25T10:27:46.05Z</time></trkpt><trkpt lat="42.3946132" lon="-7.4715448"><ele>557.6666666666667</ele><time>2026-04-25T10:27:47.042Z</time></trkpt><trkpt lat="42.3945533" lon="-7.4716091"><ele>558.5</ele><time>2026-04-25T10:27:48.044Z</time></trkpt><trkpt lat="42.3944998" lon="-7.4716661"><ele>559.3333333333334</ele><time>2026-04-25T10:27:49.046Z</time></trkpt><trkpt lat="42.394434" lon="-7.4716849"><ele>560.1666666666666</ele><time>2026-04-25T10:27:50.049Z</time></trkpt><trkpt lat="42.3943568" lon="-7.471682"><ele>561.0</ele><time>2026-04-25T10:27:51.044Z</time></trkpt><trkpt lat="42.3942785" lon="-7.4716619"><ele>561.0</ele><time>2026-04-25T10:27:52.039Z</time></trkpt><trkpt lat="42.3941985" lon="-7.4716472"><ele>561.0</ele><time>2026-04-25T10:27:53.043Z</time></trkpt><trkpt lat="42.3941177" lon="-7.4716482"><ele>561.0</ele><time>2026-04-25T10:27:54.042Z</time></trkpt><trkpt lat="42.3940371" lon="-7.4716711"><ele>561.0</ele><time>2026-04-25T10:27:55.046Z</time></trkpt><trkpt lat="42.3939587" lon="-7.4717097"><ele>561.0</ele><time>2026-04-25T10:27:56.041Z</time></trkpt><trkpt lat="42.3938914" lon="-7.471758"><ele>561.0</ele><time>2026-04-25T10:27:57.038Z</time></trkpt><trkpt lat="42.3938263" lon="-7.4718133"><ele>563.0</ele><time>2026-04-25T10:27:58.048Z</time></trkpt><trkpt lat="42.393761" lon="-7.4718678"><ele>565.0</ele><time>2026-04-25T10:27:59.037Z</time></trkpt><trkpt lat="42.3936968" lon="-7.4719006"><ele>567.0</ele><time>2026-04-25T10:28:00.033Z</time></trkpt><trkpt lat="42.3935755" lon="-7.4718895"><ele>569.0</ele><time>2026-04-25T10:28:02.037Z</time></trkpt><trkpt lat="42.3935096" lon="-7.4718474"><ele>571.0</ele><time>2026-04-25T10:28:03.032Z</time></trkpt><trkpt lat="42.3934346" lon="-7.4717971"><ele>573.0</ele><time>2026-04-25T10:28:04.04Z</time></trkpt><trkpt lat="42.3933528" lon="-7.4717254"><ele>573.0</ele><time>2026-04-25T10:28:05.038Z</time></trkpt><trkpt lat="42.3932729" lon="-7.4716639"><ele>573.0</ele><time>2026-04-25T10:28:06.052Z</time></trkpt><trkpt lat="42.3931885" lon="-7.471599"><ele>573.0</ele><time>2026-04-25T10:28:07.048Z</time></trkpt><trkpt lat="42.393101" lon="-7.4715354"><ele>573.0</ele><time>2026-04-25T10:28:08.044Z</time></trkpt><trkpt lat="42.3930129" lon="-7.4714741"><ele>573.0</ele><time>2026-04-25T10:28:09.036Z</time></trkpt><trkpt lat="42.3929303" lon="-7.4714201"><ele>572.8571428571429</ele><time>2026-04-25T10:28:10.048Z</time></trkpt><trkpt lat="42.3928526" lon="-7.4713696"><ele>572.7142857142858</ele><time>2026-04-25T10:28:11.038Z</time></trkpt><trkpt lat="42.3927769" lon="-7.4713255"><ele>572.5714285714286</ele><time>2026-04-25T10:28:12.041Z</time></trkpt><trkpt lat="42.3927051" lon="-7.4712894"><ele>572.4285714285714</ele><time>2026-04-25T10:28:13.04Z</time></trkpt><trkpt lat="42.3926443" lon="-7.4712666"><ele>572.2857142857142</ele><time>2026-04-25T10:28:14.038Z</time></trkpt><trkpt lat="42.3925739" lon="-7.4712529"><ele>572.1428571428571</ele><time>2026-04-25T10:28:16.044Z</time></trkpt><trkpt lat="42.3925266" lon="-7.471192"><ele>572.0</ele><time>2026-04-25T10:28:19.036Z</time></trkpt><trkpt lat="42.3925233" lon="-7.4710813"><ele>572.0</ele><time>2026-04-25T10:28:21.039Z</time></trkpt><trkpt lat="42.3925021" lon="-7.4709308"><ele>572.0</ele><time>2026-04-25T10:28:23.052Z</time></trkpt><trkpt lat="42.3924827" lon="-7.4708397"><ele>572.0</ele><time>2026-04-25T10:28:24.032Z</time></trkpt><trkpt lat="42.392462" lon="-7.4707388"><ele>572.0</ele><time>2026-04-25T10:28:25.041Z</time></trkpt><trkpt lat="42.3924414" lon="-7.4706311"><ele>572.0</ele><time>2026-04-25T10:28:26.044Z</time></trkpt><trkpt lat="42.392421" lon="-7.4705302"><ele>572.0</ele><time>2026-04-25T10:28:27.036Z</time></trkpt><trkpt lat="42.3924007" lon="-7.4704419"><ele>570.4</ele><time>2026-04-25T10:28:28.045Z</time></trkpt><trkpt lat="42.3923633" lon="-7.4702922"><ele>568.8000000000001</ele><time>2026-04-25T10:28:30.038Z</time></trkpt><trkpt lat="42.3923363" lon="-7.4701623"><ele>567.2</ele><time>2026-04-25T10:28:32.037Z</time></trkpt><trkpt lat="42.3923169" lon="-7.4700759"><ele>565.6</ele><time>2026-04-25T10:28:34.047Z</time></trkpt><trkpt lat="42.3922195" lon="-7.4700326"><ele>564.0</ele><time>2026-04-25T10:28:38.037Z</time></trkpt><trkpt lat="42.392164" lon="-7.4700794"><ele>564.5</ele><time>2026-04-25T10:28:39.036Z</time></trkpt><trkpt lat="42.3921179" lon="-7.4701579"><ele>565.0</ele><time>2026-04-25T10:28:40.042Z</time></trkpt><trkpt lat="42.3920811" lon="-7.4702436"><ele>565.5</ele><time>2026-04-25T10:28:41.046Z</time></trkpt><trkpt lat="42.3920394" lon="-7.4703317"><ele>566.0</ele><time>2026-04-25T10:28:42.041Z</time></trkpt><trkpt lat="42.3920039" lon="-7.4704401"><ele>566.5</ele><time>2026-04-25T10:28:43.037Z</time></trkpt><trkpt lat="42.3919629" lon="-7.4705594"><ele>567.0</ele><time>2026-04-25T10:28:44.036Z</time></trkpt><trkpt lat="42.3919156" lon="-7.4706854"><ele>567.0</ele><time>2026-04-25T10:28:45.036Z</time></trkpt><trkpt lat="42.3918675" lon="-7.4708168"><ele>567.0</ele><time>2026-04-25T10:28:46.048Z</time></trkpt><trkpt lat="42.3918218" lon="-7.4709588"><ele>567.0</ele><time>2026-04-25T10:28:47.039Z</time></trkpt><trkpt lat="42.3917777" lon="-7.4711031"><ele>567.0</ele><time>2026-04-25T10:28:48.035Z</time></trkpt><trkpt lat="42.3917427" lon="-7.4712395"><ele>567.0</ele><time>2026-04-25T10:28:49.039Z</time></trkpt><trkpt lat="42.3917108" lon="-7.4713831"><ele>569.2</ele><time>2026-04-25T10:28:50.039Z</time></trkpt><trkpt lat="42.39168" lon="-7.4715258"><ele>571.4000000000001</ele><time>2026-04-25T10:28:51.038Z</time></trkpt><trkpt lat="42.3916482" lon="-7.4716683"><ele>573.5999999999999</ele><time>2026-04-25T10:28:52.038Z</time></trkpt><trkpt lat="42.3916194" lon="-7.4717909"><ele>575.8</ele><time>2026-04-25T10:28:53.045Z</time></trkpt><trkpt lat="42.3915937" lon="-7.4719026"><ele>578.0</ele><time>2026-04-25T10:28:54.043Z</time></trkpt><trkpt lat="42.3915568" lon="-7.4720072"><ele>578.0</ele><time>2026-04-25T10:28:55.042Z</time></trkpt><trkpt lat="42.3915027" lon="-7.4720983"><ele>578.0</ele><time>2026-04-25T10:28:56.045Z</time></trkpt><trkpt lat="42.3914487" lon="-7.4721855"><ele>578.0</ele><time>2026-04-25T10:28:57.048Z</time></trkpt><trkpt lat="42.3913717" lon="-7.4722494"><ele>578.0</ele><time>2026-04-25T10:28:58.045Z</time></trkpt><trkpt lat="42.3912917" lon="-7.4723142"><ele>578.0</ele><time>2026-04-25T10:28:59.047Z</time></trkpt><trkpt lat="42.3912116" lon="-7.47238"><ele>578.0</ele><time>2026-04-25T10:29:00.041Z</time></trkpt><trkpt lat="42.3911281" lon="-7.4724513"><ele>579.1999999999999</ele><time>2026-04-25T10:29:01.041Z</time></trkpt><trkpt lat="42.3910402" lon="-7.472523"><ele>580.4</ele><time>2026-04-25T10:29:02.042Z</time></trkpt><trkpt lat="42.3909475" lon="-7.4725936"><ele>581.5999999999999</ele><time>2026-04-25T10:29:03.043Z</time></trkpt><trkpt lat="42.3908387" lon="-7.472643"><ele>582.8</ele><time>2026-04-25T10:29:04.042Z</time></trkpt><trkpt lat="42.3907252" lon="-7.4726995"><ele>584.0</ele><time>2026-04-25T10:29:05.04Z</time></trkpt><trkpt lat="42.3906155" lon="-7.4727735"><ele>584.0</ele><time>2026-04-25T10:29:06.036Z</time></trkpt><trkpt lat="42.3905235" lon="-7.4728565"><ele>584.0</ele><time>2026-04-25T10:29:07.044Z</time></trkpt><trkpt lat="42.3904457" lon="-7.4729367"><ele>584.0</ele><time>2026-04-25T10:29:08.037Z</time></trkpt><trkpt lat="42.3903706" lon="-7.473003"><ele>584.0</ele><time>2026-04-25T10:29:09.041Z</time></trkpt><trkpt lat="42.3902847" lon="-7.473046"><ele>584.0</ele><time>2026-04-25T10:29:10.036Z</time></trkpt><trkpt lat="42.3902037" lon="-7.4730787"><ele>584.1666666666666</ele><time>2026-04-25T10:29:11.042Z</time></trkpt><trkpt lat="42.3901181" lon="-7.4730468"><ele>584.3333333333333</ele><time>2026-04-25T10:29:12.041Z</time></trkpt><trkpt lat="42.3900423" lon="-7.4729696"><ele>584.5</ele><time>2026-04-25T10:29:13.045Z</time></trkpt><trkpt lat="42.3899631" lon="-7.4728985"><ele>584.6666666666666</ele><time>2026-04-25T10:29:14.043Z</time></trkpt><trkpt lat="42.3898903" lon="-7.4728364"><ele>584.8333333333334</ele><time>2026-04-25T10:29:15.036Z</time></trkpt><trkpt lat="42.38983" lon="-7.4728116"><ele>585.0</ele><time>2026-04-25T10:29:16.041Z</time></trkpt><trkpt lat="42.3897319" lon="-7.4728079"><ele>587.3333333333334</ele><time>2026-04-25T10:29:18.048Z</time></trkpt><trkpt lat="42.3896752" lon="-7.4728612"><ele>589.6666666666666</ele><time>2026-04-25T10:29:20.044Z</time></trkpt><trkpt lat="42.3895989" lon="-7.4729526"><ele>592.0</ele><time>2026-04-25T10:29:22.041Z</time></trkpt><trkpt lat="42.3895331" lon="-7.4730481"><ele>594.3333333333333</ele><time>2026-04-25T10:29:24.049Z</time></trkpt><trkpt lat="42.3894789" lon="-7.4731307"><ele>596.6666666666666</ele><time>2026-04-25T10:29:26.048Z</time></trkpt><trkpt lat="42.3894234" lon="-7.4732186"><ele>599.0</ele><time>2026-04-25T10:29:28.042Z</time></trkpt><trkpt lat="42.3893755" lon="-7.4732906"><ele>599.0</ele><time>2026-04-25T10:29:31.04Z</time></trkpt><trkpt lat="42.3893955" lon="-7.4732032"><ele>599.0</ele><time>2026-04-25T10:29:44.04Z</time></trkpt><trkpt lat="42.3894627" lon="-7.4731164"><ele>599.0</ele><time>2026-04-25T10:29:47.043Z</time></trkpt><trkpt lat="42.389504" lon="-7.4730466"><ele>599.0</ele><time>2026-04-25T10:29:49.041Z</time></trkpt><trkpt lat="42.3895411" lon="-7.4729777"><ele>599.0</ele><time>2026-04-25T10:29:51.038Z</time></trkpt><trkpt lat="42.3895845" lon="-7.4729081"><ele>599.0</ele><time>2026-04-25T10:29:53.039Z</time></trkpt><trkpt lat="42.3896272" lon="-7.4728409"><ele>599.0</ele><time>2026-04-25T10:29:55.044Z</time></trkpt><trkpt lat="42.389665" lon="-7.4727553"><ele>599.5</ele><time>2026-04-25T10:29:57.044Z</time></trkpt><trkpt lat="42.3896389" lon="-7.4726348"><ele>600.0</ele><time>2026-04-25T10:30:00.047Z</time></trkpt><trkpt lat="42.389581" lon="-7.4725554"><ele>600.5</ele><time>2026-04-25T10:30:03.045Z</time></trkpt><trkpt lat="42.3895133" lon="-7.4724812"><ele>601.0</ele><time>2026-04-25T10:30:18.038Z</time></trkpt><trkpt lat="42.3894542" lon="-7.4723837"><ele>601.5</ele><time>2026-04-25T10:30:20.046Z</time></trkpt><trkpt lat="42.3894013" lon="-7.4723214"><ele>602.0</ele><time>2026-04-25T10:30:21.053Z</time></trkpt><trkpt lat="42.3893352" lon="-7.4722419"><ele>602.0</ele><time>2026-04-25T10:30:22.042Z</time></trkpt><trkpt lat="42.3892649" lon="-7.4721672"><ele>602.0</ele><time>2026-04-25T10:30:23.045Z</time></trkpt><trkpt lat="42.3892008" lon="-7.4720918"><ele>602.0</ele><time>2026-04-25T10:30:24.04Z</time></trkpt><trkpt lat="42.3891527" lon="-7.4720176"><ele>602.0</ele><time>2026-04-25T10:30:25.047Z</time></trkpt><trkpt lat="42.3890883" lon="-7.4719201"><ele>602.0</ele><time>2026-04-25T10:30:27.043Z</time></trkpt><trkpt lat="42.3890249" lon="-7.471894"><ele>602.0</ele><time>2026-04-25T10:30:34.039Z</time></trkpt><trkpt lat="42.3889208" lon="-7.4718256"><ele>608.2</ele><time>2026-04-25T10:30:36.037Z</time></trkpt><trkpt lat="42.3888148" lon="-7.4717549"><ele>614.4000000000001</ele><time>2026-04-25T10:30:38.035Z</time></trkpt><trkpt lat="42.3887271" lon="-7.471661"><ele>620.5999999999999</ele><time>2026-04-25T10:30:40.037Z</time></trkpt><trkpt lat="42.3886639" lon="-7.4715145"><ele>626.8</ele><time>2026-04-25T10:30:42.038Z</time></trkpt><trkpt lat="42.3886445" lon="-7.4714156"><ele>633.0</ele><time>2026-04-25T10:30:43.038Z</time></trkpt><trkpt lat="42.3886322" lon="-7.4713009"><ele>631.8333333333334</ele><time>2026-04-25T10:30:44.039Z</time></trkpt><trkpt lat="42.3886029" lon="-7.4711973"><ele>630.6666666666666</ele><time>2026-04-25T10:30:45.036Z</time></trkpt><trkpt lat="42.3885422" lon="-7.4711137"><ele>629.5</ele><time>2026-04-25T10:30:46.038Z</time></trkpt><trkpt lat="42.3884897" lon="-7.47103"><ele>628.3333333333333</ele><time>2026-04-25T10:30:47.034Z</time></trkpt><trkpt lat="42.3884367" lon="-7.4709468"><ele>627.1666666666666</ele><time>2026-04-25T10:30:48.041Z</time></trkpt><trkpt lat="42.3883874" lon="-7.4708715"><ele>626.0</ele><time>2026-04-25T10:30:49.035Z</time></trkpt><trkpt lat="42.3883328" lon="-7.4707871"><ele>626.0</ele><time>2026-04-25T10:30:50.033Z</time></trkpt><trkpt lat="42.3882745" lon="-7.4706961"><ele>626.0</ele><time>2026-04-25T10:30:51.04Z</time></trkpt><trkpt lat="42.3882193" lon="-7.4706115"><ele>626.0</ele><time>2026-04-25T10:30:52.033Z</time></trkpt><trkpt lat="42.38814" lon="-7.4705233"><ele>626.0</ele><time>2026-04-25T10:30:54.039Z</time></trkpt><trkpt lat="42.3880974" lon="-7.4706347"><ele>626.0</ele><time>2026-04-25T10:30:58.041Z</time></trkpt><trkpt lat="42.3881407" lon="-7.4708065"><ele>626.0</ele><time>2026-04-25T10:31:00.042Z</time></trkpt><trkpt lat="42.3881712" lon="-7.4709374"><ele>626.0</ele><time>2026-04-25T10:31:02.038Z</time></trkpt><trkpt lat="42.3882439" lon="-7.4709748"><ele>626.0</ele><time>2026-04-25T10:31:16.04Z</time></trkpt><trkpt lat="42.3882266" lon="-7.4710913"><ele>626.0</ele><time>2026-04-25T10:31:19.037Z</time></trkpt><trkpt lat="42.3882105" lon="-7.4712544"><ele>626.0</ele><time>2026-04-25T10:31:21.039Z</time></trkpt><trkpt lat="42.388214" lon="-7.4713478"><ele>627.4</ele><time>2026-04-25T10:31:22.04Z</time></trkpt><trkpt lat="42.3882216" lon="-7.4715091"><ele>628.8</ele><time>2026-04-25T10:31:24.041Z</time></trkpt><trkpt lat="42.3882289" lon="-7.4716008"><ele>630.1999999999999</ele><time>2026-04-25T10:31:25.036Z</time></trkpt><trkpt lat="42.3882288" lon="-7.4717307"><ele>631.6</ele><time>2026-04-25T10:31:27.041Z</time></trkpt><trkpt lat="42.3881727" lon="-7.4716859"><ele>633.0</ele><time>2026-04-25T10:31:32.049Z</time></trkpt><trkpt lat="42.3881021" lon="-7.471557"><ele>633.0</ele><time>2026-04-25T10:31:34.042Z</time></trkpt><trkpt lat="42.3880572" lon="-7.471491"><ele>633.0</ele><time>2026-04-25T10:31:35.04Z</time></trkpt><trkpt lat="42.3879765" lon="-7.4713657"><ele>633.0</ele><time>2026-04-25T10:31:37.038Z</time></trkpt><trkpt lat="42.3878957" lon="-7.4712128"><ele>633.0</ele><time>2026-04-25T10:31:39.048Z</time></trkpt><trkpt lat="42.3878467" lon="-7.4711271"><ele>633.0</ele><time>2026-04-25T10:31:40.036Z</time></trkpt><trkpt lat="42.3878056" lon="-7.4710403"><ele>638.3333333333334</ele><time>2026-04-25T10:31:41.042Z</time></trkpt><trkpt lat="42.3877533" lon="-7.4709311"><ele>643.6666666666666</ele><time>2026-04-25T10:31:42.037Z</time></trkpt><trkpt lat="42.387692" lon="-7.4708215"><ele>649.0</ele><time>2026-04-25T10:31:43.036Z</time></trkpt><trkpt lat="42.3876404" lon="-7.4707415"><ele>654.3333333333333</ele><time>2026-04-25T10:31:44.037Z</time></trkpt><trkpt lat="42.3875918" lon="-7.470664"><ele>659.6666666666666</ele><time>2026-04-25T10:31:45.035Z</time></trkpt><trkpt lat="42.3875371" lon="-7.470588"><ele>665.0</ele><time>2026-04-25T10:31:46.039Z</time></trkpt><trkpt lat="42.387476" lon="-7.4705216"><ele>665.0</ele><time>2026-04-25T10:31:47.045Z</time></trkpt><trkpt lat="42.3874072" lon="-7.4704468"><ele>665.0</ele><time>2026-04-25T10:31:48.038Z</time></trkpt><trkpt lat="42.3873468" lon="-7.4703646"><ele>665.0</ele><time>2026-04-25T10:31:49.034Z</time></trkpt><trkpt lat="42.3873176" lon="-7.470288"><ele>665.0</ele><time>2026-04-25T10:31:50.036Z</time></trkpt><trkpt lat="42.3872976" lon="-7.4701914"><ele>665.0</ele><time>2026-04-25T10:31:51.034Z</time></trkpt><trkpt lat="42.3872756" lon="-7.4701032"><ele>665.0</ele><time>2026-04-25T10:31:52.042Z</time></trkpt><trkpt lat="42.3872513" lon="-7.4700096"><ele>666.8333333333333</ele><time>2026-04-25T10:31:53.039Z</time></trkpt><trkpt lat="42.3872301" lon="-7.4699174"><ele>668.6666666666666</ele><time>2026-04-25T10:31:54.046Z</time></trkpt><trkpt lat="42.3872045" lon="-7.4697982"><ele>670.5</ele><time>2026-04-25T10:31:55.042Z</time></trkpt><trkpt lat="42.3871758" lon="-7.4697002"><ele>672.3333333333334</ele><time>2026-04-25T10:31:56.048Z</time></trkpt><trkpt lat="42.3871458" lon="-7.4695918"><ele>674.1666666666667</ele><time>2026-04-25T10:31:57.048Z</time></trkpt><trkpt lat="42.387115" lon="-7.4694889"><ele>676.0</ele><time>2026-04-25T10:31:58.035Z</time></trkpt><trkpt lat="42.3870659" lon="-7.4694104"><ele>676.0</ele><time>2026-04-25T10:31:59.036Z</time></trkpt><trkpt lat="42.3870158" lon="-7.4693357"><ele>676.0</ele><time>2026-04-25T10:32:00.037Z</time></trkpt><trkpt lat="42.3869543" lon="-7.4692821"><ele>676.0</ele><time>2026-04-25T10:32:01.04Z</time></trkpt><trkpt lat="42.3868952" lon="-7.4692417"><ele>676.0</ele><time>2026-04-25T10:32:02.034Z</time></trkpt><trkpt lat="42.3868189" lon="-7.4691895"><ele>676.0</ele><time>2026-04-25T10:32:03.044Z</time></trkpt><trkpt lat="42.386743" lon="-7.4691434"><ele>676.0</ele><time>2026-04-25T10:32:04.04Z</time></trkpt><trkpt lat="42.3866529" lon="-7.4691266"><ele>676.0</ele><time>2026-04-25T10:32:05.036Z</time></trkpt><trkpt lat="42.3865549" lon="-7.4691035"><ele>676.0</ele><time>2026-04-25T10:32:06.046Z</time></trkpt><trkpt lat="42.3864658" lon="-7.4690891"><ele>676.0</ele><time>2026-04-25T10:32:07.036Z</time></trkpt><trkpt lat="42.3863815" lon="-7.4690751"><ele>676.0</ele><time>2026-04-25T10:32:08.04Z</time></trkpt><trkpt lat="42.3862966" lon="-7.4690587"><ele>676.0</ele><time>2026-04-25T10:32:09.031Z</time></trkpt><trkpt lat="42.3862136" lon="-7.4690288"><ele>676.0</ele><time>2026-04-25T10:32:10.05Z</time></trkpt><trkpt lat="42.3861201" lon="-7.4689992"><ele>681.1999999999999</ele><time>2026-04-25T10:32:11.038Z</time></trkpt><trkpt lat="42.3860286" lon="-7.468964"><ele>686.4</ele><time>2026-04-25T10:32:12.04Z</time></trkpt><trkpt lat="42.3859434" lon="-7.4689225"><ele>691.6</ele><time>2026-04-25T10:32:13.043Z</time></trkpt><trkpt lat="42.3858563" lon="-7.468884"><ele>696.8</ele><time>2026-04-25T10:32:14.031Z</time></trkpt><trkpt lat="42.3857678" lon="-7.4688562"><ele>702.0</ele><time>2026-04-25T10:32:15.048Z</time></trkpt><trkpt lat="42.3856735" lon="-7.46882"><ele>702.0</ele><time>2026-04-25T10:32:16.047Z</time></trkpt><trkpt lat="42.3855822" lon="-7.4687889"><ele>702.0</ele><time>2026-04-25T10:32:17.043Z</time></trkpt><trkpt lat="42.3854886" lon="-7.4687636"><ele>702.0</ele><time>2026-04-25T10:32:18.038Z</time></trkpt><trkpt lat="42.3853784" lon="-7.4687515"><ele>702.0</ele><time>2026-04-25T10:32:19.043Z</time></trkpt><trkpt lat="42.38527" lon="-7.4687397"><ele>702.0</ele><time>2026-04-25T10:32:20.043Z</time></trkpt><trkpt lat="42.3851651" lon="-7.4687306"><ele>700.0</ele><time>2026-04-25T10:32:21.053Z</time></trkpt><trkpt lat="42.3850788" lon="-7.4687276"><ele>698.0</ele><time>2026-04-25T10:32:22.044Z</time></trkpt><trkpt lat="42.3849939" lon="-7.4687277"><ele>696.0</ele><time>2026-04-25T10:32:23.038Z</time></trkpt><trkpt lat="42.3849206" lon="-7.4687181"><ele>694.0</ele><time>2026-04-25T10:32:24.042Z</time></trkpt><trkpt lat="42.3848564" lon="-7.4687041"><ele>692.0</ele><time>2026-04-25T10:32:25.043Z</time></trkpt><trkpt lat="42.3847838" lon="-7.4686925"><ele>690.0</ele><time>2026-04-25T10:32:26.041Z</time></trkpt><trkpt lat="42.3846974" lon="-7.4686857"><ele>690.4285714285714</ele><time>2026-04-25T10:32:27.033Z</time></trkpt><trkpt lat="42.3846139" lon="-7.4686777"><ele>690.8571428571429</ele><time>2026-04-25T10:32:28.051Z</time></trkpt><trkpt lat="42.3845385" lon="-7.468665"><ele>691.2857142857142</ele><time>2026-04-25T10:32:29.041Z</time></trkpt><trkpt lat="42.3844686" lon="-7.4686526"><ele>691.7142857142858</ele><time>2026-04-25T10:32:30.045Z</time></trkpt><trkpt lat="42.3843955" lon="-7.468638"><ele>692.1428571428571</ele><time>2026-04-25T10:32:31.038Z</time></trkpt><trkpt lat="42.3843211" lon="-7.4686263"><ele>692.5714285714286</ele><time>2026-04-25T10:32:32.037Z</time></trkpt><trkpt lat="42.3842531" lon="-7.4686164"><ele>693.0</ele><time>2026-04-25T10:32:33.043Z</time></trkpt><trkpt lat="42.3841355" lon="-7.4686015"><ele>693.0</ele><time>2026-04-25T10:32:35.053Z</time></trkpt><trkpt lat="42.3840169" lon="-7.4685955"><ele>693.0</ele><time>2026-04-25T10:32:37.044Z</time></trkpt><trkpt lat="42.3839494" lon="-7.4685987"><ele>693.0</ele><time>2026-04-25T10:32:38.046Z</time></trkpt><trkpt lat="42.3838692" lon="-7.4686082"><ele>693.0</ele><time>2026-04-25T10:32:39.039Z</time></trkpt><trkpt lat="42.383783" lon="-7.4686192"><ele>693.0</ele><time>2026-04-25T10:32:40.042Z</time></trkpt><trkpt lat="42.3836994" lon="-7.4686257"><ele>693.0</ele><time>2026-04-25T10:32:41.043Z</time></trkpt><trkpt lat="42.3836243" lon="-7.4686288"><ele>693.0</ele><time>2026-04-25T10:32:42.037Z</time></trkpt><trkpt lat="42.383561" lon="-7.4686316"><ele>693.0</ele><time>2026-04-25T10:32:43.043Z</time></trkpt><trkpt lat="42.3834767" lon="-7.468633"><ele>693.0</ele><time>2026-04-25T10:32:45.051Z</time></trkpt><trkpt lat="42.3833971" lon="-7.4686253"><ele>693.0</ele><time>2026-04-25T10:32:47.049Z</time></trkpt><trkpt lat="42.3832913" lon="-7.4686257"><ele>693.0</ele><time>2026-04-25T10:32:49.038Z</time></trkpt><trkpt lat="42.383227" lon="-7.4686316"><ele>693.0</ele><time>2026-04-25T10:32:50.042Z</time></trkpt><trkpt lat="42.3831146" lon="-7.468624"><ele>693.0</ele><time>2026-04-25T10:32:52.038Z</time></trkpt><trkpt lat="42.3830295" lon="-7.4686033"><ele>693.0</ele><time>2026-04-25T10:32:54.045Z</time></trkpt><trkpt lat="42.3828982" lon="-7.4685697"><ele>693.0</ele><time>2026-04-25T10:32:56.047Z</time></trkpt><trkpt lat="42.3828215" lon="-7.4685465"><ele>693.0</ele><time>2026-04-25T10:32:57.038Z</time></trkpt><trkpt lat="42.3827544" lon="-7.4685274"><ele>693.0</ele><time>2026-04-25T10:32:58.043Z</time></trkpt><trkpt lat="42.3826319" lon="-7.4684907"><ele>692.3333333333334</ele><time>2026-04-25T10:33:00.043Z</time></trkpt><trkpt lat="42.3825668" lon="-7.4684778"><ele>691.6666666666666</ele><time>2026-04-25T10:33:01.041Z</time></trkpt><trkpt lat="42.3824874" lon="-7.4684742"><ele>691.0</ele><time>2026-04-25T10:33:02.039Z</time></trkpt><trkpt lat="42.3824043" lon="-7.4684736"><ele>690.3333333333333</ele><time>2026-04-25T10:33:03.04Z</time></trkpt><trkpt lat="42.3823308" lon="-7.4684736"><ele>689.6666666666666</ele><time>2026-04-25T10:33:04.041Z</time></trkpt><trkpt lat="42.3822634" lon="-7.4684743"><ele>689.0</ele><time>2026-04-25T10:33:05.042Z</time></trkpt><trkpt lat="42.382147" lon="-7.4684819"><ele>687.1666666666666</ele><time>2026-04-25T10:33:07.046Z</time></trkpt><trkpt lat="42.3820221" lon="-7.4685035"><ele>685.3333333333333</ele><time>2026-04-25T10:33:09.042Z</time></trkpt><trkpt lat="42.3819527" lon="-7.4685198"><ele>683.5</ele><time>2026-04-25T10:33:10.044Z</time></trkpt><trkpt lat="42.381888" lon="-7.4685345"><ele>681.6666666666666</ele><time>2026-04-25T10:33:11.042Z</time></trkpt><trkpt lat="42.381817" lon="-7.4685504"><ele>679.8333333333334</ele><time>2026-04-25T10:33:12.037Z</time></trkpt><trkpt lat="42.3817341" lon="-7.4685698"><ele>678.0</ele><time>2026-04-25T10:33:13.05Z</time></trkpt><trkpt lat="42.3816475" lon="-7.4685846"><ele>678.0</ele><time>2026-04-25T10:33:14.044Z</time></trkpt><trkpt lat="42.3815581" lon="-7.4685962"><ele>678.0</ele><time>2026-04-25T10:33:15.042Z</time></trkpt><trkpt lat="42.3814691" lon="-7.4685964"><ele>678.0</ele><time>2026-04-25T10:33:16.039Z</time></trkpt><trkpt lat="42.3813818" lon="-7.4685923"><ele>678.0</ele><time>2026-04-25T10:33:17.036Z</time></trkpt><trkpt lat="42.3812949" lon="-7.4685859"><ele>678.0</ele><time>2026-04-25T10:33:18.041Z</time></trkpt><trkpt lat="42.3812128" lon="-7.4685807"><ele>678.0</ele><time>2026-04-25T10:33:19.039Z</time></trkpt><trkpt lat="42.3811285" lon="-7.4685822"><ele>675.1666666666666</ele><time>2026-04-25T10:33:20.037Z</time></trkpt><trkpt lat="42.3810429" lon="-7.4685866"><ele>672.3333333333334</ele><time>2026-04-25T10:33:21.045Z</time></trkpt><trkpt lat="42.3809579" lon="-7.4685937"><ele>669.5</ele><time>2026-04-25T10:33:22.036Z</time></trkpt><trkpt lat="42.380876" lon="-7.4686069"><ele>666.6666666666667</ele><time>2026-04-25T10:33:23.042Z</time></trkpt><trkpt lat="42.3808075" lon="-7.4686207"><ele>663.8333333333334</ele><time>2026-04-25T10:33:24.035Z</time></trkpt><trkpt lat="42.3807406" lon="-7.4686361"><ele>661.0</ele><time>2026-04-25T10:33:25.033Z</time></trkpt><trkpt lat="42.3806588" lon="-7.4686584"><ele>661.0</ele><time>2026-04-25T10:33:26.046Z</time></trkpt><trkpt lat="42.3805792" lon="-7.4686745"><ele>661.0</ele><time>2026-04-25T10:33:27.037Z</time></trkpt><trkpt lat="42.3805016" lon="-7.4686849"><ele>661.0</ele><time>2026-04-25T10:33:28.045Z</time></trkpt><trkpt lat="42.3804232" lon="-7.4686883"><ele>661.0</ele><time>2026-04-25T10:33:29.039Z</time></trkpt><trkpt lat="42.3803486" lon="-7.4686923"><ele>661.0</ele><time>2026-04-25T10:33:30.036Z</time></trkpt><trkpt lat="42.3802695" lon="-7.4686967"><ele>661.0</ele><time>2026-04-25T10:33:31.036Z</time></trkpt><trkpt lat="42.3801816" lon="-7.4686965"><ele>659.0</ele><time>2026-04-25T10:33:32.046Z</time></trkpt><trkpt lat="42.3800883" lon="-7.468695"><ele>657.0</ele><time>2026-04-25T10:33:33.032Z</time></trkpt><trkpt lat="42.3799886" lon="-7.4686908"><ele>655.0</ele><time>2026-04-25T10:33:34.04Z</time></trkpt><trkpt lat="42.3798735" lon="-7.4686926"><ele>653.0</ele><time>2026-04-25T10:33:35.043Z</time></trkpt><trkpt lat="42.3797668" lon="-7.4687027"><ele>651.0</ele><time>2026-04-25T10:33:36.037Z</time></trkpt><trkpt lat="42.3796785" lon="-7.4687232"><ele>648.4</ele><time>2026-04-25T10:33:37.041Z</time></trkpt><trkpt lat="42.3795954" lon="-7.4687544"><ele>645.8</ele><time>2026-04-25T10:33:38.041Z</time></trkpt><trkpt lat="42.3794966" lon="-7.4688041"><ele>643.1999999999999</ele><time>2026-04-25T10:33:39.035Z</time></trkpt><trkpt lat="42.3793857" lon="-7.468889"><ele>640.5999999999999</ele><time>2026-04-25T10:33:40.043Z</time></trkpt><trkpt lat="42.3792799" lon="-7.4689883"><ele>638.0</ele><time>2026-04-25T10:33:41.047Z</time></trkpt><trkpt lat="42.3791611" lon="-7.4691292"><ele>640.5</ele><time>2026-04-25T10:33:42.039Z</time></trkpt><trkpt lat="42.3790675" lon="-7.4692536"><ele>643.0</ele><time>2026-04-25T10:33:43.037Z</time></trkpt><trkpt lat="42.3789829" lon="-7.4693755"><ele>645.5</ele><time>2026-04-25T10:33:44.038Z</time></trkpt><trkpt lat="42.3788956" lon="-7.4694961"><ele>648.0</ele><time>2026-04-25T10:33:45.041Z</time></trkpt><trkpt lat="42.3788044" lon="-7.4695893"><ele>650.2</ele><time>2026-04-25T10:33:46.045Z</time></trkpt><trkpt lat="42.3787114" lon="-7.4696776"><ele>652.4</ele><time>2026-04-25T10:33:47.044Z</time></trkpt><trkpt lat="42.3786391" lon="-7.4697615"><ele>654.6</ele><time>2026-04-25T10:33:48.05Z</time></trkpt><trkpt lat="42.3785845" lon="-7.4698321"><ele>656.8000000000001</ele><time>2026-04-25T10:33:49.036Z</time></trkpt><trkpt lat="42.3785307" lon="-7.4699075"><ele>659.0</ele><time>2026-04-25T10:33:52.054Z</time></trkpt><trkpt lat="42.3784413" lon="-7.4699367"><ele>659.0</ele><time>2026-04-25T10:33:56.046Z</time></trkpt><trkpt lat="42.3783706" lon="-7.4699451"><ele>659.0</ele><time>2026-04-25T10:33:57.044Z</time></trkpt><trkpt lat="42.378289" lon="-7.4699581"><ele>659.0</ele><time>2026-04-25T10:33:58.039Z</time></trkpt><trkpt lat="42.3782111" lon="-7.4699697"><ele>659.0</ele><time>2026-04-25T10:33:59.037Z</time></trkpt><trkpt lat="42.3781375" lon="-7.4699757"><ele>659.0</ele><time>2026-04-25T10:34:00.037Z</time></trkpt><trkpt lat="42.3780059" lon="-7.4699872"><ele>659.0</ele><time>2026-04-25T10:34:02.04Z</time></trkpt><trkpt lat="42.3778798" lon="-7.4699911"><ele>655.6666666666666</ele><time>2026-04-25T10:34:04.039Z</time></trkpt><trkpt lat="42.3778082" lon="-7.4700166"><ele>652.3333333333333</ele><time>2026-04-25T10:34:05.039Z</time></trkpt><trkpt lat="42.3777436" lon="-7.470051"><ele>649.0</ele><time>2026-04-25T10:34:06.041Z</time></trkpt><trkpt lat="42.3776791" lon="-7.4700733"><ele>645.6666666666666</ele><time>2026-04-25T10:34:07.048Z</time></trkpt><trkpt lat="42.3775816" lon="-7.4701512"><ele>642.3333333333334</ele><time>2026-04-25T10:34:09.078Z</time></trkpt><trkpt lat="42.3774817" lon="-7.4702176"><ele>639.0</ele><time>2026-04-25T10:34:11.056Z</time></trkpt><trkpt lat="42.377395" lon="-7.4702532"><ele>639.0</ele><time>2026-04-25T10:34:13.054Z</time></trkpt><trkpt lat="42.3773655" lon="-7.4701607"><ele>639.0</ele><time>2026-04-25T10:34:17.039Z</time></trkpt><trkpt lat="42.3774084" lon="-7.4699819"><ele>639.0</ele><time>2026-04-25T10:34:19.043Z</time></trkpt><trkpt lat="42.377427" lon="-7.4698733"><ele>639.0</ele><time>2026-04-25T10:34:20.039Z</time></trkpt><trkpt lat="42.3774425" lon="-7.4697744"><ele>639.0</ele><time>2026-04-25T10:34:21.044Z</time></trkpt><trkpt lat="42.3774668" lon="-7.4696728"><ele>639.0</ele><time>2026-04-25T10:34:22.037Z</time></trkpt><trkpt lat="42.3775042" lon="-7.4695806"><ele>635.8</ele><time>2026-04-25T10:34:23.036Z</time></trkpt><trkpt lat="42.3775392" lon="-7.4694856"><ele>632.5999999999999</ele><time>2026-04-25T10:34:24.054Z</time></trkpt><trkpt lat="42.3775789" lon="-7.469366"><ele>629.4</ele><time>2026-04-25T10:34:26.042Z</time></trkpt><trkpt lat="42.3776186" lon="-7.4692378"><ele>626.1999999999999</ele><time>2026-04-25T10:34:28.05Z</time></trkpt><trkpt lat="42.3776554" lon="-7.4690779"><ele>623.0</ele><time>2026-04-25T10:34:30.043Z</time></trkpt><trkpt lat="42.3776753" lon="-7.4689772"><ele>623.0</ele><time>2026-04-25T10:34:31.051Z</time></trkpt><trkpt lat="42.3776965" lon="-7.4688826"><ele>623.0</ele><time>2026-04-25T10:34:32.035Z</time></trkpt><trkpt lat="42.3777318" lon="-7.4687695"><ele>623.0</ele><time>2026-04-25T10:34:33.042Z</time></trkpt><trkpt lat="42.3777655" lon="-7.4686512"><ele>623.0</ele><time>2026-04-25T10:34:34.035Z</time></trkpt><trkpt lat="42.377793" lon="-7.4685599"><ele>623.0</ele><time>2026-04-25T10:34:35.037Z</time></trkpt><trkpt lat="42.3778205" lon="-7.4684707"><ele>623.0</ele><time>2026-04-25T10:34:36.036Z</time></trkpt><trkpt lat="42.377847" lon="-7.4683841"><ele>619.8333333333333</ele><time>2026-04-25T10:34:37.043Z</time></trkpt><trkpt lat="42.3778827" lon="-7.4683026"><ele>616.6666666666666</ele><time>2026-04-25T10:34:38.049Z</time></trkpt><trkpt lat="42.3779494" lon="-7.4681768"><ele>613.5</ele><time>2026-04-25T10:34:40.039Z</time></trkpt><trkpt lat="42.377999" lon="-7.4681119"><ele>610.3333333333334</ele><time>2026-04-25T10:34:42.04Z</time></trkpt><trkpt lat="42.3779026" lon="-7.4680894"><ele>607.1666666666667</ele><time>2026-04-25T10:34:45.045Z</time></trkpt><trkpt lat="42.3778294" lon="-7.4681123"><ele>604.0</ele><time>2026-04-25T10:34:46.031Z</time></trkpt><trkpt lat="42.3777491" lon="-7.4681363"><ele>604.0</ele><time>2026-04-25T10:34:47.046Z</time></trkpt><trkpt lat="42.3776646" lon="-7.4681959"><ele>604.0</ele><time>2026-04-25T10:34:48.045Z</time></trkpt><trkpt lat="42.3776007" lon="-7.4682672"><ele>604.0</ele><time>2026-04-25T10:34:49.037Z</time></trkpt><trkpt lat="42.3775418" lon="-7.4683454"><ele>604.0</ele><time>2026-04-25T10:34:50.041Z</time></trkpt><trkpt lat="42.3774792" lon="-7.4684258"><ele>604.0</ele><time>2026-04-25T10:34:51.037Z</time></trkpt><trkpt lat="42.3774193" lon="-7.4685003"><ele>604.0</ele><time>2026-04-25T10:34:52.04Z</time></trkpt><trkpt lat="42.3773642" lon="-7.4685758"><ele>604.0</ele><time>2026-04-25T10:34:53.039Z</time></trkpt><trkpt lat="42.3773153" lon="-7.4686646"><ele>604.0</ele><time>2026-04-25T10:34:54.038Z</time></trkpt><trkpt lat="42.3772768" lon="-7.4687593"><ele>604.0</ele><time>2026-04-25T10:34:55.035Z</time></trkpt><trkpt lat="42.377245" lon="-7.4688433"><ele>604.0</ele><time>2026-04-25T10:34:56.046Z</time></trkpt><trkpt lat="42.3772117" lon="-7.468917"><ele>604.0</ele><time>2026-04-25T10:34:57.042Z</time></trkpt><trkpt lat="42.3771684" lon="-7.4689941"><ele>604.0</ele><time>2026-04-25T10:34:58.041Z</time></trkpt><trkpt lat="42.3770942" lon="-7.4690472"><ele>602.2</ele><time>2026-04-25T10:34:59.038Z</time></trkpt><trkpt lat="42.377021" lon="-7.4691026"><ele>600.4</ele><time>2026-04-25T10:35:00.038Z</time></trkpt><trkpt lat="42.3769616" lon="-7.4691608"><ele>598.6</ele><time>2026-04-25T10:35:01.043Z</time></trkpt><trkpt lat="42.376916" lon="-7.4692302"><ele>596.8</ele><time>2026-04-25T10:35:02.036Z</time></trkpt><trkpt lat="42.376858" lon="-7.4693778"><ele>595.0</ele><time>2026-04-25T10:35:04.041Z</time></trkpt><trkpt lat="42.3767964" lon="-7.4695235"><ele>598.8</ele><time>2026-04-25T10:35:06.047Z</time></trkpt><trkpt lat="42.376729" lon="-7.4696371"><ele>602.6</ele><time>2026-04-25T10:35:08.044Z</time></trkpt><trkpt lat="42.3766783" lon="-7.4696892"><ele>606.4</ele><time>2026-04-25T10:35:09.044Z</time></trkpt><trkpt lat="42.3766012" lon="-7.4697351"><ele>610.2</ele><time>2026-04-25T10:35:10.053Z</time></trkpt><trkpt lat="42.3765125" lon="-7.4697953"><ele>614.0</ele><time>2026-04-25T10:35:11.043Z</time></trkpt><trkpt lat="42.3764255" lon="-7.4698766"><ele>607.8</ele><time>2026-04-25T10:35:12.037Z</time></trkpt><trkpt lat="42.3763512" lon="-7.4699884"><ele>601.5999999999999</ele><time>2026-04-25T10:35:13.039Z</time></trkpt><trkpt lat="42.3762802" lon="-7.4700942"><ele>595.4</ele><time>2026-04-25T10:35:14.043Z</time></trkpt><trkpt lat="42.3762122" lon="-7.4701883"><ele>589.1999999999999</ele><time>2026-04-25T10:35:15.035Z</time></trkpt><trkpt lat="42.376146" lon="-7.4702811"><ele>583.0</ele><time>2026-04-25T10:35:16.038Z</time></trkpt><trkpt lat="42.3760858" lon="-7.4703748"><ele>585.8333333333334</ele><time>2026-04-25T10:35:17.035Z</time></trkpt><trkpt lat="42.3760239" lon="-7.4704678"><ele>588.6666666666667</ele><time>2026-04-25T10:35:18.045Z</time></trkpt><trkpt lat="42.3759665" lon="-7.4705603"><ele>591.5</ele><time>2026-04-25T10:35:19.034Z</time></trkpt><trkpt lat="42.3759116" lon="-7.4706529"><ele>594.3333333333334</ele><time>2026-04-25T10:35:20.05Z</time></trkpt><trkpt lat="42.375857" lon="-7.4707492"><ele>597.1666666666666</ele><time>2026-04-25T10:35:21.038Z</time></trkpt><trkpt lat="42.3758093" lon="-7.4708495"><ele>600.0</ele><time>2026-04-25T10:35:22.035Z</time></trkpt><trkpt lat="42.3757636" lon="-7.4709433"><ele>600.0</ele><time>2026-04-25T10:35:23.043Z</time></trkpt><trkpt lat="42.3757161" lon="-7.4710234"><ele>600.0</ele><time>2026-04-25T10:35:24.042Z</time></trkpt><trkpt lat="42.3756498" lon="-7.4711078"><ele>600.0</ele><time>2026-04-25T10:35:25.046Z</time></trkpt><trkpt lat="42.3755708" lon="-7.4712105"><ele>600.0</ele><time>2026-04-25T10:35:26.033Z</time></trkpt><trkpt lat="42.3754888" lon="-7.4713045"><ele>600.0</ele><time>2026-04-25T10:35:27.038Z</time></trkpt><trkpt lat="42.3754077" lon="-7.4713995"><ele>599.4</ele><time>2026-04-25T10:35:28.036Z</time></trkpt><trkpt lat="42.3753189" lon="-7.4714823"><ele>598.8</ele><time>2026-04-25T10:35:29.036Z</time></trkpt><trkpt lat="42.3752296" lon="-7.4715554"><ele>598.2</ele><time>2026-04-25T10:35:30.04Z</time></trkpt><trkpt lat="42.3751421" lon="-7.4716219"><ele>597.6</ele><time>2026-04-25T10:35:31.041Z</time></trkpt><trkpt lat="42.3750729" lon="-7.4717174"><ele>597.0</ele><time>2026-04-25T10:35:32.038Z</time></trkpt><trkpt lat="42.3749983" lon="-7.4718085"><ele>597.0</ele><time>2026-04-25T10:35:33.04Z</time></trkpt><trkpt lat="42.3749299" lon="-7.4718883"><ele>597.0</ele><time>2026-04-25T10:35:34.037Z</time></trkpt><trkpt lat="42.3748617" lon="-7.4719647"><ele>597.0</ele><time>2026-04-25T10:35:35.043Z</time></trkpt><trkpt lat="42.3747914" lon="-7.4720429"><ele>597.0</ele><time>2026-04-25T10:35:36.04Z</time></trkpt><trkpt lat="42.3747176" lon="-7.4721114"><ele>597.0</ele><time>2026-04-25T10:35:37.039Z</time></trkpt><trkpt lat="42.3746356" lon="-7.4721791"><ele>597.6</ele><time>2026-04-25T10:35:38.041Z</time></trkpt><trkpt lat="42.3745423" lon="-7.4722608"><ele>598.2</ele><time>2026-04-25T10:35:39.048Z</time></trkpt><trkpt lat="42.3744634" lon="-7.4723126"><ele>598.8</ele><time>2026-04-25T10:35:40.039Z</time></trkpt><trkpt lat="42.3744139" lon="-7.4724044"><ele>599.4</ele><time>2026-04-25T10:35:41.05Z</time></trkpt><trkpt lat="42.3743657" lon="-7.4724913"><ele>600.0</ele><time>2026-04-25T10:35:42.038Z</time></trkpt><trkpt lat="42.3743243" lon="-7.4725957"><ele>600.0</ele><time>2026-04-25T10:35:43.037Z</time></trkpt><trkpt lat="42.3742764" lon="-7.4727185"><ele>600.0</ele><time>2026-04-25T10:35:44.041Z</time></trkpt><trkpt lat="42.3742415" lon="-7.4728167"><ele>600.0</ele><time>2026-04-25T10:35:45.037Z</time></trkpt><trkpt lat="42.3742051" lon="-7.4729065"><ele>600.0</ele><time>2026-04-25T10:35:46.038Z</time></trkpt><trkpt lat="42.3742" lon="-7.4730166"><ele>600.0</ele><time>2026-04-25T10:35:47.033Z</time></trkpt><trkpt lat="42.3742197" lon="-7.4731315"><ele>600.0</ele><time>2026-04-25T10:35:48.043Z</time></trkpt><trkpt lat="42.3742368" lon="-7.4732357"><ele>602.0</ele><time>2026-04-25T10:35:49.03Z</time></trkpt><trkpt lat="42.3742574" lon="-7.4733199"><ele>604.0</ele><time>2026-04-25T10:35:50.038Z</time></trkpt><trkpt lat="42.3742575" lon="-7.4734059"><ele>606.0</ele><time>2026-04-25T10:35:51.039Z</time></trkpt><trkpt lat="42.3742109" lon="-7.4735384"><ele>608.0</ele><time>2026-04-25T10:35:53.04Z</time></trkpt><trkpt lat="42.374141" lon="-7.4736096"><ele>610.0</ele><time>2026-04-25T10:35:54.038Z</time></trkpt><trkpt lat="42.3740657" lon="-7.4737101"><ele>612.0</ele><time>2026-04-25T10:35:55.046Z</time></trkpt><trkpt lat="42.3739923" lon="-7.4738366"><ele>613.2</ele><time>2026-04-25T10:35:56.041Z</time></trkpt><trkpt lat="42.3739227" lon="-7.473949"><ele>614.4000000000001</ele><time>2026-04-25T10:35:57.041Z</time></trkpt><trkpt lat="42.3738462" lon="-7.4740414"><ele>615.5999999999999</ele><time>2026-04-25T10:35:58.038Z</time></trkpt><trkpt lat="42.3737769" lon="-7.4741086"><ele>616.8</ele><time>2026-04-25T10:35:59.042Z</time></trkpt><trkpt lat="42.3737087" lon="-7.4741514"><ele>618.0</ele><time>2026-04-25T10:36:00.04Z</time></trkpt><trkpt lat="42.3736309" lon="-7.4741995"><ele>618.0</ele><time>2026-04-25T10:36:01.038Z</time></trkpt><trkpt lat="42.373542" lon="-7.474245"><ele>618.0</ele><time>2026-04-25T10:36:02.038Z</time></trkpt><trkpt lat="42.3734586" lon="-7.474284"><ele>618.0</ele><time>2026-04-25T10:36:03.043Z</time></trkpt><trkpt lat="42.3733764" lon="-7.4743249"><ele>618.0</ele><time>2026-04-25T10:36:04.054Z</time></trkpt><trkpt lat="42.3733027" lon="-7.4743638"><ele>618.0</ele><time>2026-04-25T10:36:05.05Z</time></trkpt><trkpt lat="42.3732323" lon="-7.4744009"><ele>618.0</ele><time>2026-04-25T10:36:06.043Z</time></trkpt><trkpt lat="42.3731218" lon="-7.474449"><ele>618.0</ele><time>2026-04-25T10:36:08.039Z</time></trkpt><trkpt lat="42.3730399" lon="-7.474377"><ele>618.0</ele><time>2026-04-25T10:36:10.037Z</time></trkpt><trkpt lat="42.37301" lon="-7.4742968"><ele>618.0</ele><time>2026-04-25T10:36:11.042Z</time></trkpt><trkpt lat="42.3729691" lon="-7.4741786"><ele>618.0</ele><time>2026-04-25T10:36:12.037Z</time></trkpt><trkpt lat="42.3729125" lon="-7.4740692"><ele>618.0</ele><time>2026-04-25T10:36:13.043Z</time></trkpt><trkpt lat="42.3728502" lon="-7.4739383"><ele>622.0</ele><time>2026-04-25T10:36:14.04Z</time></trkpt><trkpt lat="42.3727923" lon="-7.4738091"><ele>626.0</ele><time>2026-04-25T10:36:15.037Z</time></trkpt><trkpt lat="42.3727298" lon="-7.4736851"><ele>630.0</ele><time>2026-04-25T10:36:16.057Z</time></trkpt><trkpt lat="42.3726716" lon="-7.4735619"><ele>634.0</ele><time>2026-04-25T10:36:17.037Z</time></trkpt><trkpt lat="42.3726177" lon="-7.473437"><ele>638.0</ele><time>2026-04-25T10:36:18.041Z</time></trkpt><trkpt lat="42.3725708" lon="-7.473311"><ele>638.0</ele><time>2026-04-25T10:36:19.042Z</time></trkpt><trkpt lat="42.3725212" lon="-7.4731742"><ele>638.0</ele><time>2026-04-25T10:36:20.037Z</time></trkpt><trkpt lat="42.3724643" lon="-7.4730466"><ele>638.0</ele><time>2026-04-25T10:36:21.047Z</time></trkpt><trkpt lat="42.3723888" lon="-7.4728929"><ele>638.0</ele><time>2026-04-25T10:36:22.032Z</time></trkpt><trkpt lat="42.3723119" lon="-7.4727537"><ele>636.0</ele><time>2026-04-25T10:36:23.038Z</time></trkpt><trkpt lat="42.3722407" lon="-7.4726237"><ele>634.0</ele><time>2026-04-25T10:36:24.047Z</time></trkpt><trkpt lat="42.3721865" lon="-7.4725285"><ele>632.0</ele><time>2026-04-25T10:36:25.049Z</time></trkpt><trkpt lat="42.372149" lon="-7.472452"><ele>630.0</ele><time>2026-04-25T10:36:28.044Z</time></trkpt><trkpt lat="42.3720813" lon="-7.472306"><ele>628.0</ele><time>2026-04-25T10:36:36.043Z</time></trkpt><trkpt lat="42.3720079" lon="-7.4721945"><ele>628.0</ele><time>2026-04-25T10:36:37.042Z</time></trkpt><trkpt lat="42.3719218" lon="-7.4720979"><ele>628.0</ele><time>2026-04-25T10:36:38.04Z</time></trkpt><trkpt lat="42.3718295" lon="-7.4720308"><ele>628.0</ele><time>2026-04-25T10:36:39.044Z</time></trkpt><trkpt lat="42.3717345" lon="-7.4719717"><ele>628.0</ele><time>2026-04-25T10:36:40.05Z</time></trkpt><trkpt lat="42.3716401" lon="-7.471911"><ele>628.0</ele><time>2026-04-25T10:36:41.038Z</time></trkpt><trkpt lat="42.3715344" lon="-7.4718329"><ele>628.0</ele><time>2026-04-25T10:36:42.038Z</time></trkpt><trkpt lat="42.3714465" lon="-7.4717119"><ele>628.0</ele><time>2026-04-25T10:36:43.039Z</time></trkpt><trkpt lat="42.3713806" lon="-7.4715683"><ele>628.0</ele><time>2026-04-25T10:36:44.036Z</time></trkpt><trkpt lat="42.3713087" lon="-7.4714421"><ele>628.0</ele><time>2026-04-25T10:36:45.036Z</time></trkpt><trkpt lat="42.3712186" lon="-7.4713634"><ele>631.5</ele><time>2026-04-25T10:36:46.04Z</time></trkpt><trkpt lat="42.3711196" lon="-7.4713349"><ele>635.0</ele><time>2026-04-25T10:36:47.035Z</time></trkpt><trkpt lat="42.3710194" lon="-7.4713474"><ele>638.5</ele><time>2026-04-25T10:36:48.047Z</time></trkpt><trkpt lat="42.3709062" lon="-7.4713648"><ele>642.0</ele><time>2026-04-25T10:36:49.042Z</time></trkpt><trkpt lat="42.3707698" lon="-7.471366"><ele>642.0</ele><time>2026-04-25T10:36:50.052Z</time></trkpt><trkpt lat="42.3706235" lon="-7.4713271"><ele>642.0</ele><time>2026-04-25T10:36:51.039Z</time></trkpt><trkpt lat="42.3704777" lon="-7.4712852"><ele>642.0</ele><time>2026-04-25T10:36:52.041Z</time></trkpt><trkpt lat="42.3703399" lon="-7.4712202"><ele>642.0</ele><time>2026-04-25T10:36:53.039Z</time></trkpt><trkpt lat="42.3702147" lon="-7.4711808"><ele>640.0</ele><time>2026-04-25T10:36:54.034Z</time></trkpt><trkpt lat="42.370094" lon="-7.471181"><ele>638.0</ele><time>2026-04-25T10:36:55.04Z</time></trkpt><trkpt lat="42.3699852" lon="-7.4712244"><ele>636.0</ele><time>2026-04-25T10:36:56.038Z</time></trkpt><trkpt lat="42.3698949" lon="-7.4712856"><ele>634.0</ele><time>2026-04-25T10:36:57.035Z</time></trkpt><trkpt lat="42.3698289" lon="-7.4713439"><ele>632.0</ele><time>2026-04-25T10:36:58.043Z</time></trkpt><trkpt lat="42.3697481" lon="-7.4714379"><ele>632.0</ele><time>2026-04-25T10:37:00.041Z</time></trkpt><trkpt lat="42.3696903" lon="-7.4714943"><ele>632.0</ele><time>2026-04-25T10:37:02.038Z</time></trkpt><trkpt lat="42.3696169" lon="-7.4714887"><ele>632.0</ele><time>2026-04-25T11:15:09.031Z</time></trkpt><trkpt lat="42.369694" lon="-7.4714759"><ele>632.0</ele><time>2026-04-25T11:15:11.054Z</time></trkpt><trkpt lat="42.3697136" lon="-7.4713901"><ele>632.0</ele><time>2026-04-25T11:15:13.051Z</time></trkpt><trkpt lat="42.3696406" lon="-7.4713322"><ele>632.0</ele><time>2026-04-25T11:15:15.051Z</time></trkpt><trkpt lat="42.3695481" lon="-7.4712335"><ele>630.1666666666666</ele><time>2026-04-25T11:15:17.046Z</time></trkpt><trkpt lat="42.3695193" lon="-7.4710728"><ele>628.3333333333333</ele><time>2026-04-25T11:15:19.046Z</time></trkpt><trkpt lat="42.3695223" lon="-7.4709801"><ele>626.5</ele><time>2026-04-25T11:15:20.041Z</time></trkpt><trkpt lat="42.3695454" lon="-7.4708922"><ele>624.6666666666666</ele><time>2026-04-25T11:15:21.049Z</time></trkpt><trkpt lat="42.3695923" lon="-7.4708015"><ele>622.8333333333334</ele><time>2026-04-25T11:15:22.051Z</time></trkpt><trkpt lat="42.3696428" lon="-7.4707003"><ele>621.0</ele><time>2026-04-25T11:15:23.041Z</time></trkpt><trkpt lat="42.3697067" lon="-7.4706018"><ele>621.0</ele><time>2026-04-25T11:15:24.043Z</time></trkpt><trkpt lat="42.3697827" lon="-7.470508"><ele>621.0</ele><time>2026-04-25T11:15:25.046Z</time></trkpt><trkpt lat="42.3698629" lon="-7.4704169"><ele>621.0</ele><time>2026-04-25T11:15:26.047Z</time></trkpt><trkpt lat="42.3699472" lon="-7.4703243"><ele>621.0</ele><time>2026-04-25T11:15:27.042Z</time></trkpt><trkpt lat="42.3700414" lon="-7.470243"><ele>621.0</ele><time>2026-04-25T11:15:28.045Z</time></trkpt><trkpt lat="42.3701434" lon="-7.4701785"><ele>621.25</ele><time>2026-04-25T11:15:29.05Z</time></trkpt><trkpt lat="42.3702602" lon="-7.4701279"><ele>621.5</ele><time>2026-04-25T11:15:30.045Z</time></trkpt><trkpt lat="42.3703844" lon="-7.4700798"><ele>621.75</ele><time>2026-04-25T11:15:31.046Z</time></trkpt><trkpt lat="42.3705024" lon="-7.4700053"><ele>622.0</ele><time>2026-04-25T11:15:32.043Z</time></trkpt><trkpt lat="42.3706011" lon="-7.4699043"><ele>622.0</ele><time>2026-04-25T11:15:33.046Z</time></trkpt><trkpt lat="42.3706778" lon="-7.4697881"><ele>622.0</ele><time>2026-04-25T11:15:34.046Z</time></trkpt><trkpt lat="42.3707416" lon="-7.469681"><ele>622.0</ele><time>2026-04-25T11:15:35.041Z</time></trkpt><trkpt lat="42.3708017" lon="-7.4695906"><ele>622.0</ele><time>2026-04-25T11:15:36.05Z</time></trkpt><trkpt lat="42.3708662" lon="-7.4695151"><ele>622.0</ele><time>2026-04-25T11:15:37.046Z</time></trkpt><trkpt lat="42.3709382" lon="-7.4694451"><ele>628.75</ele><time>2026-04-25T11:15:38.05Z</time></trkpt><trkpt lat="42.3710214" lon="-7.4693689"><ele>635.5</ele><time>2026-04-25T11:15:39.051Z</time></trkpt><trkpt lat="42.371116" lon="-7.4692884"><ele>642.25</ele><time>2026-04-25T11:15:40.048Z</time></trkpt><trkpt lat="42.371222" lon="-7.4692118"><ele>649.0</ele><time>2026-04-25T11:15:41.044Z</time></trkpt><trkpt lat="42.3713311" lon="-7.4691336"><ele>644.5</ele><time>2026-04-25T11:15:42.048Z</time></trkpt><trkpt lat="42.3714613" lon="-7.4690809"><ele>640.0</ele><time>2026-04-25T11:15:43.044Z</time></trkpt><trkpt lat="42.3715951" lon="-7.4690342"><ele>635.5</ele><time>2026-04-25T11:15:44.044Z</time></trkpt><trkpt lat="42.3717185" lon="-7.4689809"><ele>631.0</ele><time>2026-04-25T11:15:45.048Z</time></trkpt><trkpt lat="42.3718295" lon="-7.4689031"><ele>631.0</ele><time>2026-04-25T11:15:46.05Z</time></trkpt><trkpt lat="42.3719242" lon="-7.4687911"><ele>631.0</ele><time>2026-04-25T11:15:47.048Z</time></trkpt><trkpt lat="42.3720103" lon="-7.4686535"><ele>631.0</ele><time>2026-04-25T11:15:48.048Z</time></trkpt><trkpt lat="42.3721019" lon="-7.4685055"><ele>631.0</ele><time>2026-04-25T11:15:49.049Z</time></trkpt><trkpt lat="42.3721967" lon="-7.4683419"><ele>631.0</ele><time>2026-04-25T11:15:50.045Z</time></trkpt><trkpt lat="42.3722957" lon="-7.4681697"><ele>631.0</ele><time>2026-04-25T11:15:51.062Z</time></trkpt><trkpt lat="42.3723975" lon="-7.4679932"><ele>631.0</ele><time>2026-04-25T11:15:52.046Z</time></trkpt><trkpt lat="42.3724931" lon="-7.467827"><ele>636.6666666666667</ele><time>2026-04-25T11:15:53.045Z</time></trkpt><trkpt lat="42.3725715" lon="-7.4676512"><ele>642.3333333333334</ele><time>2026-04-25T11:15:54.055Z</time></trkpt><trkpt lat="42.3726305" lon="-7.4674554"><ele>648.0</ele><time>2026-04-25T11:15:55.048Z</time></trkpt><trkpt lat="42.3726644" lon="-7.4672571"><ele>649.25</ele><time>2026-04-25T11:15:56.041Z</time></trkpt><trkpt lat="42.3726621" lon="-7.4670795"><ele>650.5</ele><time>2026-04-25T11:15:57.053Z</time></trkpt><trkpt lat="42.3726252" lon="-7.4669025"><ele>651.75</ele><time>2026-04-25T11:15:58.049Z</time></trkpt><trkpt lat="42.3725589" lon="-7.4667243"><ele>653.0</ele><time>2026-04-25T11:15:59.06Z</time></trkpt><trkpt lat="42.3724737" lon="-7.4665432"><ele>653.0</ele><time>2026-04-25T11:16:00.051Z</time></trkpt><trkpt lat="42.3723838" lon="-7.4663538"><ele>653.0</ele><time>2026-04-25T11:16:01.05Z</time></trkpt><trkpt lat="42.3722906" lon="-7.4661546"><ele>653.0</ele><time>2026-04-25T11:16:02.05Z</time></trkpt><trkpt lat="42.3721949" lon="-7.4659513"><ele>660.6666666666666</ele><time>2026-04-25T11:16:03.044Z</time></trkpt><trkpt lat="42.3721009" lon="-7.4657609"><ele>668.3333333333334</ele><time>2026-04-25T11:16:04.055Z</time></trkpt><trkpt lat="42.3720154" lon="-7.4655843"><ele>676.0</ele><time>2026-04-25T11:16:05.055Z</time></trkpt><trkpt lat="42.3719412" lon="-7.4654244"><ele>676.0</ele><time>2026-04-25T11:16:06.046Z</time></trkpt><trkpt lat="42.3718803" lon="-7.4652732"><ele>676.0</ele><time>2026-04-25T11:16:07.048Z</time></trkpt><trkpt lat="42.3718179" lon="-7.4651175"><ele>676.0</ele><time>2026-04-25T11:16:08.045Z</time></trkpt><trkpt lat="42.3717832" lon="-7.4649575"><ele>676.0</ele><time>2026-04-25T11:16:09.046Z</time></trkpt><trkpt lat="42.3718367" lon="-7.464792"><ele>676.0</ele><time>2026-04-25T11:16:10.044Z</time></trkpt><trkpt lat="42.3719294" lon="-7.4646453"><ele>676.0</ele><time>2026-04-25T11:16:11.056Z</time></trkpt><trkpt lat="42.3720349" lon="-7.4645864"><ele>676.0</ele><time>2026-04-25T11:16:12.044Z</time></trkpt><trkpt lat="42.3721767" lon="-7.4645578"><ele>676.0</ele><time>2026-04-25T11:16:13.049Z</time></trkpt><trkpt lat="42.3722961" lon="-7.4645514"><ele>675.5999999999999</ele><time>2026-04-25T11:16:14.046Z</time></trkpt><trkpt lat="42.3724045" lon="-7.4645293"><ele>675.2</ele><time>2026-04-25T11:16:15.057Z</time></trkpt><trkpt lat="42.3725017" lon="-7.4645416"><ele>674.8</ele><time>2026-04-25T11:16:16.054Z</time></trkpt><trkpt lat="42.3725868" lon="-7.4644919"><ele>674.4000000000001</ele><time>2026-04-25T11:16:17.06Z</time></trkpt><trkpt lat="42.3726471" lon="-7.4644054"><ele>674.0</ele><time>2026-04-25T11:16:18.051Z</time></trkpt><trkpt lat="42.3726703" lon="-7.4643156"><ele>674.0</ele><time>2026-04-25T11:16:19.053Z</time></trkpt><trkpt lat="42.3726594" lon="-7.464222"><ele>674.0</ele><time>2026-04-25T11:16:20.047Z</time></trkpt><trkpt lat="42.3726066" lon="-7.4641378"><ele>674.0</ele><time>2026-04-25T11:16:21.053Z</time></trkpt><trkpt lat="42.3725288" lon="-7.4640817"><ele>674.0</ele><time>2026-04-25T11:16:22.048Z</time></trkpt><trkpt lat="42.3724286" lon="-7.4640386"><ele>674.0</ele><time>2026-04-25T11:16:23.048Z</time></trkpt><trkpt lat="42.3723123" lon="-7.4640028"><ele>675.0</ele><time>2026-04-25T11:16:24.056Z</time></trkpt><trkpt lat="42.372182" lon="-7.4639696"><ele>676.0</ele><time>2026-04-25T11:16:25.049Z</time></trkpt><trkpt lat="42.3720562" lon="-7.4639443"><ele>677.0</ele><time>2026-04-25T11:16:26.065Z</time></trkpt><trkpt lat="42.3719443" lon="-7.4639283"><ele>678.0</ele><time>2026-04-25T11:16:27.075Z</time></trkpt><trkpt lat="42.371848" lon="-7.4639272"><ele>678.0</ele><time>2026-04-25T11:16:28.051Z</time></trkpt><trkpt lat="42.3717619" lon="-7.4639443"><ele>678.0</ele><time>2026-04-25T11:16:29.05Z</time></trkpt><trkpt lat="42.3716675" lon="-7.4639789"><ele>678.0</ele><time>2026-04-25T11:16:30.054Z</time></trkpt><trkpt lat="42.371567" lon="-7.4640355"><ele>678.0</ele><time>2026-04-25T11:16:31.05Z</time></trkpt><trkpt lat="42.3714641" lon="-7.4640975"><ele>678.0</ele><time>2026-04-25T11:16:32.053Z</time></trkpt><trkpt lat="42.3713583" lon="-7.4641599"><ele>679.2</ele><time>2026-04-25T11:16:33.048Z</time></trkpt><trkpt lat="42.3712631" lon="-7.464203"><ele>680.4</ele><time>2026-04-25T11:16:34.046Z</time></trkpt><trkpt lat="42.3711742" lon="-7.4642183"><ele>681.6</ele><time>2026-04-25T11:16:35.044Z</time></trkpt><trkpt lat="42.3710975" lon="-7.4641659"><ele>682.8000000000001</ele><time>2026-04-25T11:16:36.052Z</time></trkpt><trkpt lat="42.3710239" lon="-7.4640759"><ele>684.0</ele><time>2026-04-25T11:16:37.054Z</time></trkpt><trkpt lat="42.3709525" lon="-7.4639617"><ele>684.0</ele><time>2026-04-25T11:16:38.045Z</time></trkpt><trkpt lat="42.370918" lon="-7.4638385"><ele>684.0</ele><time>2026-04-25T11:16:39.07Z</time></trkpt><trkpt lat="42.3709081" lon="-7.4637162"><ele>684.0</ele><time>2026-04-25T11:16:40.052Z</time></trkpt><trkpt lat="42.370894" lon="-7.46361"><ele>684.0</ele><time>2026-04-25T11:16:41.05Z</time></trkpt><trkpt lat="42.3708768" lon="-7.4635059"><ele>684.0</ele><time>2026-04-25T11:16:42.053Z</time></trkpt><trkpt lat="42.3708598" lon="-7.4634037"><ele>684.0</ele><time>2026-04-25T11:16:43.052Z</time></trkpt><trkpt lat="42.3708372" lon="-7.4632959"><ele>683.6666666666666</ele><time>2026-04-25T11:16:44.065Z</time></trkpt><trkpt lat="42.3708222" lon="-7.4631843"><ele>683.3333333333334</ele><time>2026-04-25T11:16:45.051Z</time></trkpt><trkpt lat="42.3708114" lon="-7.4630734"><ele>683.0</ele><time>2026-04-25T11:16:46.054Z</time></trkpt><trkpt lat="42.3708097" lon="-7.4629678"><ele>682.6666666666667</ele><time>2026-04-25T11:16:47.059Z</time></trkpt><trkpt lat="42.3708492" lon="-7.4628982"><ele>682.3333333333334</ele><time>2026-04-25T11:16:48.051Z</time></trkpt><trkpt lat="42.3708861" lon="-7.4628227"><ele>682.0</ele><time>2026-04-25T11:16:49.045Z</time></trkpt><trkpt lat="42.3709204" lon="-7.4626684"><ele>681.5</ele><time>2026-04-25T11:16:51.048Z</time></trkpt><trkpt lat="42.3709019" lon="-7.4625729"><ele>681.0</ele><time>2026-04-25T11:16:52.062Z</time></trkpt><trkpt lat="42.3708586" lon="-7.4624888"><ele>680.5</ele><time>2026-04-25T11:16:53.046Z</time></trkpt><trkpt lat="42.3707981" lon="-7.4624058"><ele>680.0</ele><time>2026-04-25T11:16:54.047Z</time></trkpt><trkpt lat="42.3707373" lon="-7.4623172"><ele>679.5</ele><time>2026-04-25T11:16:55.056Z</time></trkpt><trkpt lat="42.3706547" lon="-7.4622474"><ele>679.0</ele><time>2026-04-25T11:16:56.066Z</time></trkpt><trkpt lat="42.370566" lon="-7.4621593"><ele>678.8000000000001</ele><time>2026-04-25T11:16:57.065Z</time></trkpt><trkpt lat="42.3704756" lon="-7.4620746"><ele>678.6</ele><time>2026-04-25T11:16:58.05Z</time></trkpt><trkpt lat="42.3703893" lon="-7.4620006"><ele>678.4</ele><time>2026-04-25T11:16:59.048Z</time></trkpt><trkpt lat="42.3702997" lon="-7.4619251"><ele>678.2</ele><time>2026-04-25T11:17:00.044Z</time></trkpt><trkpt lat="42.3702134" lon="-7.461842"><ele>678.0</ele><time>2026-04-25T11:17:01.049Z</time></trkpt><trkpt lat="42.3701347" lon="-7.4617693"><ele>678.0</ele><time>2026-04-25T11:17:02.048Z</time></trkpt><trkpt lat="42.3700631" lon="-7.4617013"><ele>678.0</ele><time>2026-04-25T11:17:03.054Z</time></trkpt><trkpt lat="42.3700045" lon="-7.4616215"><ele>678.0</ele><time>2026-04-25T11:17:04.048Z</time></trkpt><trkpt lat="42.3699614" lon="-7.4615073"><ele>678.0</ele><time>2026-04-25T11:17:05.046Z</time></trkpt><trkpt lat="42.3699359" lon="-7.4614007"><ele>678.0</ele><time>2026-04-25T11:17:06.049Z</time></trkpt><trkpt lat="42.3699136" lon="-7.4612896"><ele>678.0</ele><time>2026-04-25T11:17:07.055Z</time></trkpt><trkpt lat="42.3699151" lon="-7.4611874"><ele>678.0</ele><time>2026-04-25T11:17:08.053Z</time></trkpt><trkpt lat="42.3698945" lon="-7.4610729"><ele>678.0</ele><time>2026-04-25T11:17:09.051Z</time></trkpt><trkpt lat="42.3698525" lon="-7.4609773"><ele>678.0</ele><time>2026-04-25T11:17:10.045Z</time></trkpt><trkpt lat="42.3698098" lon="-7.460902"><ele>678.0</ele><time>2026-04-25T11:17:11.05Z</time></trkpt><trkpt lat="42.3697079" lon="-7.460801"><ele>678.0</ele><time>2026-04-25T11:17:13.046Z</time></trkpt><trkpt lat="42.3696298" lon="-7.4607731"><ele>678.0</ele><time>2026-04-25T11:17:14.049Z</time></trkpt><trkpt lat="42.3695655" lon="-7.4607585"><ele>679.6666666666666</ele><time>2026-04-25T11:17:15.043Z</time></trkpt><trkpt lat="42.3695016" lon="-7.4607341"><ele>681.3333333333334</ele><time>2026-04-25T11:17:16.055Z</time></trkpt><trkpt lat="42.3694285" lon="-7.4607084"><ele>683.0</ele><time>2026-04-25T11:17:17.049Z</time></trkpt><trkpt lat="42.369352" lon="-7.4606814"><ele>684.6666666666667</ele><time>2026-04-25T11:17:18.049Z</time></trkpt><trkpt lat="42.3692675" lon="-7.460668"><ele>686.3333333333334</ele><time>2026-04-25T11:17:19.048Z</time></trkpt><trkpt lat="42.3691788" lon="-7.4606736"><ele>688.0</ele><time>2026-04-25T11:17:20.06Z</time></trkpt><trkpt lat="42.3691023" lon="-7.460694"><ele>688.0</ele><time>2026-04-25T11:17:21.108Z</time></trkpt><trkpt lat="42.3690011" lon="-7.4607184"><ele>688.0</ele><time>2026-04-25T11:17:22.046Z</time></trkpt><trkpt lat="42.3688889" lon="-7.4607471"><ele>688.0</ele><time>2026-04-25T11:17:23.047Z</time></trkpt><trkpt lat="42.3687561" lon="-7.4607659"><ele>688.0</ele><time>2026-04-25T11:17:24.049Z</time></trkpt><trkpt lat="42.368612" lon="-7.4607954"><ele>689.6666666666667</ele><time>2026-04-25T11:17:25.049Z</time></trkpt><trkpt lat="42.3684631" lon="-7.4608291"><ele>691.3333333333334</ele><time>2026-04-25T11:17:26.046Z</time></trkpt><trkpt lat="42.3683101" lon="-7.4608813"><ele>693.0</ele><time>2026-04-25T11:17:27.053Z</time></trkpt><trkpt lat="42.3681516" lon="-7.4609462"><ele>695.5</ele><time>2026-04-25T11:17:28.056Z</time></trkpt><trkpt lat="42.3679944" lon="-7.4610054"><ele>698.0</ele><time>2026-04-25T11:17:29.059Z</time></trkpt><trkpt lat="42.3678549" lon="-7.4610541"><ele>700.5</ele><time>2026-04-25T11:17:30.046Z</time></trkpt><trkpt lat="42.3677314" lon="-7.4610949"><ele>703.0</ele><time>2026-04-25T11:17:31.057Z</time></trkpt><trkpt lat="42.367633" lon="-7.4611268"><ele>703.0</ele><time>2026-04-25T11:17:32.056Z</time></trkpt><trkpt lat="42.3675462" lon="-7.4611472"><ele>703.0</ele><time>2026-04-25T11:17:33.047Z</time></trkpt><trkpt lat="42.3674671" lon="-7.4611649"><ele>703.0</ele><time>2026-04-25T11:17:34.059Z</time></trkpt><trkpt lat="42.3673806" lon="-7.4611679"><ele>703.0</ele><time>2026-04-25T11:17:35.049Z</time></trkpt><trkpt lat="42.3672905" lon="-7.4611414"><ele>703.0</ele><time>2026-04-25T11:17:36.05Z</time></trkpt><trkpt lat="42.3672023" lon="-7.461083"><ele>703.0</ele><time>2026-04-25T11:17:37.054Z</time></trkpt><trkpt lat="42.3671319" lon="-7.4609597"><ele>704.4</ele><time>2026-04-25T11:17:38.06Z</time></trkpt><trkpt lat="42.3670636" lon="-7.4608228"><ele>705.8</ele><time>2026-04-25T11:17:39.052Z</time></trkpt><trkpt lat="42.3669992" lon="-7.4606967"><ele>707.2</ele><time>2026-04-25T11:17:40.049Z</time></trkpt><trkpt lat="42.3669436" lon="-7.4605944"><ele>708.6</ele><time>2026-04-25T11:17:41.049Z</time></trkpt><trkpt lat="42.3668818" lon="-7.4604931"><ele>710.0</ele><time>2026-04-25T11:17:42.046Z</time></trkpt><trkpt lat="42.3668141" lon="-7.4604056"><ele>710.0</ele><time>2026-04-25T11:17:43.052Z</time></trkpt><trkpt lat="42.3667104" lon="-7.460314"><ele>710.0</ele><time>2026-04-25T11:17:44.053Z</time></trkpt><trkpt lat="42.3665981" lon="-7.4602357"><ele>710.0</ele><time>2026-04-25T11:17:45.052Z</time></trkpt><trkpt lat="42.3664972" lon="-7.4601655"><ele>710.0</ele><time>2026-04-25T11:17:46.059Z</time></trkpt><trkpt lat="42.3664001" lon="-7.4600709"><ele>712.0</ele><time>2026-04-25T11:17:47.051Z</time></trkpt><trkpt lat="42.3663279" lon="-7.4599672"><ele>714.0</ele><time>2026-04-25T11:17:48.055Z</time></trkpt><trkpt lat="42.3662841" lon="-7.4598182"><ele>716.0</ele><time>2026-04-25T11:17:49.052Z</time></trkpt><trkpt lat="42.3662468" lon="-7.4596531"><ele>718.0</ele><time>2026-04-25T11:17:50.05Z</time></trkpt><trkpt lat="42.3662107" lon="-7.4594851"><ele>718.0</ele><time>2026-04-25T11:17:51.045Z</time></trkpt><trkpt lat="42.3661782" lon="-7.459327"><ele>718.0</ele><time>2026-04-25T11:17:52.059Z</time></trkpt><trkpt lat="42.3661429" lon="-7.4591622"><ele>718.0</ele><time>2026-04-25T11:17:53.057Z</time></trkpt><trkpt lat="42.3660946" lon="-7.4589908"><ele>718.0</ele><time>2026-04-25T11:17:54.058Z</time></trkpt><trkpt lat="42.366028" lon="-7.4588173"><ele>716.5</ele><time>2026-04-25T11:17:55.055Z</time></trkpt><trkpt lat="42.3659505" lon="-7.4586502"><ele>715.0</ele><time>2026-04-25T11:17:56.059Z</time></trkpt><trkpt lat="42.365879" lon="-7.4584905"><ele>713.5</ele><time>2026-04-25T11:17:57.05Z</time></trkpt><trkpt lat="42.3658122" lon="-7.4583462"><ele>712.0</ele><time>2026-04-25T11:17:58.052Z</time></trkpt><trkpt lat="42.3657439" lon="-7.4582028"><ele>712.0</ele><time>2026-04-25T11:17:59.067Z</time></trkpt><trkpt lat="42.3656724" lon="-7.4580539"><ele>712.0</ele><time>2026-04-25T11:18:00.046Z</time></trkpt><trkpt lat="42.3655965" lon="-7.4578991"><ele>712.0</ele><time>2026-04-25T11:18:01.047Z</time></trkpt><trkpt lat="42.3655127" lon="-7.45774"><ele>712.0</ele><time>2026-04-25T11:18:02.052Z</time></trkpt><trkpt lat="42.3654152" lon="-7.4575869"><ele>714.6666666666667</ele><time>2026-04-25T11:18:03.062Z</time></trkpt><trkpt lat="42.3653024" lon="-7.4574463"><ele>717.3333333333334</ele><time>2026-04-25T11:18:04.053Z</time></trkpt><trkpt lat="42.3651816" lon="-7.4573074"><ele>720.0</ele><time>2026-04-25T11:18:05.057Z</time></trkpt><trkpt lat="42.3650621" lon="-7.4571553"><ele>718.6666666666666</ele><time>2026-04-25T11:18:06.052Z</time></trkpt><trkpt lat="42.3649511" lon="-7.4569895"><ele>717.3333333333333</ele><time>2026-04-25T11:18:07.057Z</time></trkpt><trkpt lat="42.3648419" lon="-7.4568119"><ele>716.0</ele><time>2026-04-25T11:18:08.054Z</time></trkpt><trkpt lat="42.3647317" lon="-7.4566254"><ele>716.3333333333333</ele><time>2026-04-25T11:18:09.05Z</time></trkpt><trkpt lat="42.3646244" lon="-7.4564342"><ele>716.6666666666666</ele><time>2026-04-25T11:18:10.057Z</time></trkpt><trkpt lat="42.3645306" lon="-7.4562638"><ele>717.0</ele><time>2026-04-25T11:18:11.045Z</time></trkpt><trkpt lat="42.3644519" lon="-7.4561217"><ele>717.0</ele><time>2026-04-25T11:18:12.053Z</time></trkpt><trkpt lat="42.3643934" lon="-7.4559944"><ele>717.0</ele><time>2026-04-25T11:18:13.059Z</time></trkpt><trkpt lat="42.3643661" lon="-7.4558618"><ele>717.0</ele><time>2026-04-25T11:18:14.058Z</time></trkpt><trkpt lat="42.3643658" lon="-7.4557112"><ele>717.0</ele><time>2026-04-25T11:18:15.049Z</time></trkpt><trkpt lat="42.3643959" lon="-7.4555504"><ele>717.0</ele><time>2026-04-25T11:18:16.055Z</time></trkpt><trkpt lat="42.3644332" lon="-7.4553871"><ele>717.3333333333334</ele><time>2026-04-25T11:18:17.058Z</time></trkpt><trkpt lat="42.3645131" lon="-7.4551973"><ele>717.6666666666667</ele><time>2026-04-25T11:18:18.05Z</time></trkpt><trkpt lat="42.3645965" lon="-7.4550075"><ele>718.0</ele><time>2026-04-25T11:18:19.059Z</time></trkpt><trkpt lat="42.3646779" lon="-7.4548177"><ele>718.0</ele><time>2026-04-25T11:18:20.052Z</time></trkpt><trkpt lat="42.3647692" lon="-7.454628"><ele>718.0</ele><time>2026-04-25T11:18:21.058Z</time></trkpt><trkpt lat="42.3648787" lon="-7.4544604"><ele>718.0</ele><time>2026-04-25T11:18:22.051Z</time></trkpt><trkpt lat="42.365" lon="-7.4542923"><ele>719.5</ele><time>2026-04-25T11:18:23.048Z</time></trkpt><trkpt lat="42.3651091" lon="-7.4541516"><ele>721.0</ele><time>2026-04-25T11:18:24.057Z</time></trkpt><trkpt lat="42.3652041" lon="-7.4540203"><ele>722.5</ele><time>2026-04-25T11:18:25.046Z</time></trkpt><trkpt lat="42.3652934" lon="-7.4538861"><ele>724.0</ele><time>2026-04-25T11:18:26.051Z</time></trkpt><trkpt lat="42.3653815" lon="-7.4537463"><ele>725.0</ele><time>2026-04-25T11:18:27.056Z</time></trkpt><trkpt lat="42.3654677" lon="-7.4536008"><ele>726.0</ele><time>2026-04-25T11:18:28.062Z</time></trkpt><trkpt lat="42.3655616" lon="-7.4534564"><ele>727.0</ele><time>2026-04-25T11:18:29.054Z</time></trkpt><trkpt lat="42.3656714" lon="-7.4533277"><ele>728.0</ele><time>2026-04-25T11:18:30.049Z</time></trkpt><trkpt lat="42.3657976" lon="-7.4532246"><ele>729.3333333333333</ele><time>2026-04-25T11:18:31.047Z</time></trkpt><trkpt lat="42.3659369" lon="-7.4531412"><ele>730.6666666666666</ele><time>2026-04-25T11:18:32.053Z</time></trkpt><trkpt lat="42.3660835" lon="-7.4530729"><ele>732.0</ele><time>2026-04-25T11:18:33.051Z</time></trkpt><trkpt lat="42.3662331" lon="-7.4530118"><ele>735.25</ele><time>2026-04-25T11:18:34.053Z</time></trkpt><trkpt lat="42.3663817" lon="-7.4529525"><ele>738.5</ele><time>2026-04-25T11:18:35.054Z</time></trkpt><trkpt lat="42.3665168" lon="-7.4528744"><ele>741.75</ele><time>2026-04-25T11:18:36.053Z</time></trkpt><trkpt lat="42.3666255" lon="-7.452778"><ele>745.0</ele><time>2026-04-25T11:18:37.052Z</time></trkpt><trkpt lat="42.366721" lon="-7.4526498"><ele>745.0</ele><time>2026-04-25T11:18:38.07Z</time></trkpt><trkpt lat="42.3668228" lon="-7.4525084"><ele>745.0</ele><time>2026-04-25T11:18:39.054Z</time></trkpt><trkpt lat="42.3669232" lon="-7.4523405"><ele>745.0</ele><time>2026-04-25T11:18:40.044Z</time></trkpt><trkpt lat="42.3670326" lon="-7.452158"><ele>745.6666666666667</ele><time>2026-04-25T11:18:41.051Z</time></trkpt><trkpt lat="42.3671355" lon="-7.4519705"><ele>746.3333333333334</ele><time>2026-04-25T11:18:42.056Z</time></trkpt><trkpt lat="42.3672389" lon="-7.451758"><ele>747.0</ele><time>2026-04-25T11:18:43.06Z</time></trkpt><trkpt lat="42.3673177" lon="-7.4515229"><ele>749.6666666666666</ele><time>2026-04-25T11:18:44.049Z</time></trkpt><trkpt lat="42.3673927" lon="-7.4512779"><ele>752.3333333333333</ele><time>2026-04-25T11:18:45.059Z</time></trkpt><trkpt lat="42.3674473" lon="-7.4510402"><ele>755.0</ele><time>2026-04-25T11:18:46.05Z</time></trkpt><trkpt lat="42.3674812" lon="-7.4508199"><ele>755.0</ele><time>2026-04-25T11:18:47.056Z</time></trkpt><trkpt lat="42.3674926" lon="-7.450594"><ele>755.0</ele><time>2026-04-25T11:18:48.049Z</time></trkpt><trkpt lat="42.3674757" lon="-7.45036"><ele>755.0</ele><time>2026-04-25T11:18:49.046Z</time></trkpt><trkpt lat="42.3674463" lon="-7.4501041"><ele>757.3333333333333</ele><time>2026-04-25T11:18:50.057Z</time></trkpt><trkpt lat="42.3674034" lon="-7.44984"><ele>759.6666666666666</ele><time>2026-04-25T11:18:51.045Z</time></trkpt><trkpt lat="42.3673605" lon="-7.4495818"><ele>762.0</ele><time>2026-04-25T11:18:52.052Z</time></trkpt><trkpt lat="42.3673188" lon="-7.4493359"><ele>763.6666666666666</ele><time>2026-04-25T11:18:53.054Z</time></trkpt><trkpt lat="42.3672839" lon="-7.4491281"><ele>765.3333333333333</ele><time>2026-04-25T11:18:54.055Z</time></trkpt><trkpt lat="42.3672286" lon="-7.4489015"><ele>767.0</ele><time>2026-04-25T11:18:55.05Z</time></trkpt><trkpt lat="42.3671795" lon="-7.4486734"><ele>769.3333333333333</ele><time>2026-04-25T11:18:56.053Z</time></trkpt><trkpt lat="42.3671346" lon="-7.4484386"><ele>771.6666666666666</ele><time>2026-04-25T11:18:57.052Z</time></trkpt><trkpt lat="42.3670955" lon="-7.4482031"><ele>774.0</ele><time>2026-04-25T11:18:58.06Z</time></trkpt><trkpt lat="42.3670612" lon="-7.4479735"><ele>774.6666666666667</ele><time>2026-04-25T11:18:59.053Z</time></trkpt><trkpt lat="42.3670397" lon="-7.4477636"><ele>775.3333333333334</ele><time>2026-04-25T11:19:00.057Z</time></trkpt><trkpt lat="42.3670186" lon="-7.4475611"><ele>776.0</ele><time>2026-04-25T11:19:01.053Z</time></trkpt><trkpt lat="42.3670011" lon="-7.4473663"><ele>776.0</ele><time>2026-04-25T11:19:02.055Z</time></trkpt><trkpt lat="42.3669668" lon="-7.4471857"><ele>776.0</ele><time>2026-04-25T11:19:03.05Z</time></trkpt><trkpt lat="42.3669185" lon="-7.4470063"><ele>776.0</ele><time>2026-04-25T11:19:04.045Z</time></trkpt><trkpt lat="42.366841" lon="-7.4468429"><ele>776.0</ele><time>2026-04-25T11:19:05.048Z</time></trkpt><trkpt lat="42.3667742" lon="-7.4466877"><ele>775.5999999999999</ele><time>2026-04-25T11:19:06.055Z</time></trkpt><trkpt lat="42.3667206" lon="-7.446547"><ele>775.2</ele><time>2026-04-25T11:19:07.047Z</time></trkpt><trkpt lat="42.3666882" lon="-7.4464355"><ele>774.8</ele><time>2026-04-25T11:19:08.061Z</time></trkpt><trkpt lat="42.3666705" lon="-7.446328"><ele>774.4000000000001</ele><time>2026-04-25T11:19:09.054Z</time></trkpt><trkpt lat="42.3666456" lon="-7.4462286"><ele>774.0</ele><time>2026-04-25T11:19:10.053Z</time></trkpt><trkpt lat="42.3665973" lon="-7.4461334"><ele>774.0</ele><time>2026-04-25T11:19:11.055Z</time></trkpt><trkpt lat="42.3665232" lon="-7.4460512"><ele>774.0</ele><time>2026-04-25T11:19:12.054Z</time></trkpt><trkpt lat="42.3664412" lon="-7.4459764"><ele>774.0</ele><time>2026-04-25T11:19:13.049Z</time></trkpt><trkpt lat="42.3663176" lon="-7.4459055"><ele>774.0</ele><time>2026-04-25T11:19:14.058Z</time></trkpt><trkpt lat="42.3661905" lon="-7.4458302"><ele>774.0</ele><time>2026-04-25T11:19:15.051Z</time></trkpt><trkpt lat="42.3660767" lon="-7.445738"><ele>774.0</ele><time>2026-04-25T11:19:16.053Z</time></trkpt><trkpt lat="42.36597" lon="-7.445627"><ele>774.0</ele><time>2026-04-25T11:19:17.05Z</time></trkpt><trkpt lat="42.3658718" lon="-7.4455167"><ele>774.0</ele><time>2026-04-25T11:19:18.058Z</time></trkpt><trkpt lat="42.3657853" lon="-7.4454165"><ele>774.4000000000001</ele><time>2026-04-25T11:19:19.053Z</time></trkpt><trkpt lat="42.3657028" lon="-7.4453327"><ele>774.8</ele><time>2026-04-25T11:19:20.056Z</time></trkpt><trkpt lat="42.365627" lon="-7.4452449"><ele>775.2</ele><time>2026-04-25T11:19:21.056Z</time></trkpt><trkpt lat="42.3655672" lon="-7.4451441"><ele>775.5999999999999</ele><time>2026-04-25T11:19:22.051Z</time></trkpt><trkpt lat="42.3655458" lon="-7.4450426"><ele>776.0</ele><time>2026-04-25T11:19:23.06Z</time></trkpt><trkpt lat="42.3655347" lon="-7.4449258"><ele>776.0</ele><time>2026-04-25T11:19:24.054Z</time></trkpt><trkpt lat="42.3655789" lon="-7.4448053"><ele>776.0</ele><time>2026-04-25T11:19:25.052Z</time></trkpt><trkpt lat="42.3656424" lon="-7.4446614"><ele>776.0</ele><time>2026-04-25T11:19:26.055Z</time></trkpt><trkpt lat="42.3657128" lon="-7.4445073"><ele>776.0</ele><time>2026-04-25T11:19:27.058Z</time></trkpt><trkpt lat="42.3657578" lon="-7.4443226"><ele>776.5</ele><time>2026-04-25T11:19:28.053Z</time></trkpt><trkpt lat="42.3657992" lon="-7.4441577"><ele>777.0</ele><time>2026-04-25T11:19:29.057Z</time></trkpt><trkpt lat="42.3658387" lon="-7.443995"><ele>777.5</ele><time>2026-04-25T11:19:30.055Z</time></trkpt><trkpt lat="42.3658796" lon="-7.4438366"><ele>778.0</ele><time>2026-04-25T11:19:31.053Z</time></trkpt><trkpt lat="42.3659114" lon="-7.4436839"><ele>779.25</ele><time>2026-04-25T11:19:32.048Z</time></trkpt><trkpt lat="42.3659404" lon="-7.4435108"><ele>780.5</ele><time>2026-04-25T11:19:33.068Z</time></trkpt><trkpt lat="42.365959" lon="-7.4433296"><ele>781.75</ele><time>2026-04-25T11:19:34.055Z</time></trkpt><trkpt lat="42.3659703" lon="-7.4431473"><ele>783.0</ele><time>2026-04-25T11:19:35.054Z</time></trkpt><trkpt lat="42.3659765" lon="-7.4429579"><ele>784.0</ele><time>2026-04-25T11:19:36.057Z</time></trkpt><trkpt lat="42.3659811" lon="-7.4427667"><ele>785.0</ele><time>2026-04-25T11:19:37.046Z</time></trkpt><trkpt lat="42.3659813" lon="-7.4425709"><ele>786.0</ele><time>2026-04-25T11:19:38.055Z</time></trkpt><trkpt lat="42.36598" lon="-7.4423647"><ele>787.0</ele><time>2026-04-25T11:19:39.051Z</time></trkpt><trkpt lat="42.3659769" lon="-7.4421519"><ele>788.6666666666666</ele><time>2026-04-25T11:19:40.068Z</time></trkpt><trkpt lat="42.3659402" lon="-7.4419192"><ele>790.3333333333333</ele><time>2026-04-25T11:19:41.05Z</time></trkpt><trkpt lat="42.3658849" lon="-7.4416666"><ele>792.0</ele><time>2026-04-25T11:19:42.057Z</time></trkpt><trkpt lat="42.3658224" lon="-7.4414122"><ele>794.3333333333333</ele><time>2026-04-25T11:19:43.053Z</time></trkpt><trkpt lat="42.3657717" lon="-7.4411792"><ele>796.6666666666666</ele><time>2026-04-25T11:19:44.046Z</time></trkpt><trkpt lat="42.3657386" lon="-7.4409424"><ele>799.0</ele><time>2026-04-25T11:19:45.046Z</time></trkpt><trkpt lat="42.3657198" lon="-7.4406994"><ele>799.6666666666666</ele><time>2026-04-25T11:19:46.051Z</time></trkpt><trkpt lat="42.3657118" lon="-7.4404277"><ele>800.3333333333333</ele><time>2026-04-25T11:19:47.048Z</time></trkpt><trkpt lat="42.3657014" lon="-7.4401574"><ele>801.0</ele><time>2026-04-25T11:19:48.063Z</time></trkpt><trkpt lat="42.3656856" lon="-7.4399123"><ele>801.0</ele><time>2026-04-25T11:19:49.045Z</time></trkpt><trkpt lat="42.365663" lon="-7.439688"><ele>801.0</ele><time>2026-04-25T11:19:50.053Z</time></trkpt><trkpt lat="42.3656379" lon="-7.4394646"><ele>801.0</ele><time>2026-04-25T11:19:51.054Z</time></trkpt><trkpt lat="42.3656087" lon="-7.4392451"><ele>801.3333333333333</ele><time>2026-04-25T11:19:52.056Z</time></trkpt><trkpt lat="42.3655788" lon="-7.4390423"><ele>801.6666666666666</ele><time>2026-04-25T11:19:53.046Z</time></trkpt><trkpt lat="42.3655596" lon="-7.438843"><ele>802.0</ele><time>2026-04-25T11:19:54.05Z</time></trkpt><trkpt lat="42.3655576" lon="-7.4386368"><ele>802.0</ele><time>2026-04-25T11:19:55.052Z</time></trkpt><trkpt lat="42.3655726" lon="-7.4384183"><ele>802.0</ele><time>2026-04-25T11:19:56.054Z</time></trkpt><trkpt lat="42.3656012" lon="-7.4381878"><ele>802.0</ele><time>2026-04-25T11:19:57.054Z</time></trkpt><trkpt lat="42.3656344" lon="-7.437945"><ele>803.3333333333333</ele><time>2026-04-25T11:19:58.057Z</time></trkpt><trkpt lat="42.3656655" lon="-7.43769"><ele>804.6666666666667</ele><time>2026-04-25T11:19:59.05Z</time></trkpt><trkpt lat="42.3656889" lon="-7.4374327"><ele>806.0</ele><time>2026-04-25T11:20:00.054Z</time></trkpt><trkpt lat="42.3657008" lon="-7.4371936"><ele>807.6666666666667</ele><time>2026-04-25T11:20:01.057Z</time></trkpt><trkpt lat="42.3656948" lon="-7.4369691"><ele>809.3333333333333</ele><time>2026-04-25T11:20:02.049Z</time></trkpt><trkpt lat="42.3656631" lon="-7.4367604"><ele>811.0</ele><time>2026-04-25T11:20:03.051Z</time></trkpt><trkpt lat="42.3656056" lon="-7.4365627"><ele>811.0</ele><time>2026-04-25T11:20:04.052Z</time></trkpt><trkpt lat="42.3655345" lon="-7.4363781"><ele>811.0</ele><time>2026-04-25T11:20:05.05Z</time></trkpt><trkpt lat="42.3654477" lon="-7.4361916"><ele>811.0</ele><time>2026-04-25T11:20:06.057Z</time></trkpt><trkpt lat="42.3653469" lon="-7.4360031"><ele>810.0</ele><time>2026-04-25T11:20:07.048Z</time></trkpt><trkpt lat="42.3652327" lon="-7.4358126"><ele>809.0</ele><time>2026-04-25T11:20:08.058Z</time></trkpt><trkpt lat="42.3651164" lon="-7.4356318"><ele>808.0</ele><time>2026-04-25T11:20:09.053Z</time></trkpt><trkpt lat="42.3650102" lon="-7.4354624"><ele>810.25</ele><time>2026-04-25T11:20:10.05Z</time></trkpt><trkpt lat="42.3649195" lon="-7.4352994"><ele>812.5</ele><time>2026-04-25T11:20:11.05Z</time></trkpt><trkpt lat="42.3648478" lon="-7.4351316"><ele>814.75</ele><time>2026-04-25T11:20:12.053Z</time></trkpt><trkpt lat="42.3647936" lon="-7.4349516"><ele>817.0</ele><time>2026-04-25T11:20:13.049Z</time></trkpt><trkpt lat="42.3647674" lon="-7.4347728"><ele>817.3333333333333</ele><time>2026-04-25T11:20:14.047Z</time></trkpt><trkpt lat="42.3647719" lon="-7.4345863"><ele>817.6666666666667</ele><time>2026-04-25T11:20:15.046Z</time></trkpt><trkpt lat="42.3647953" lon="-7.4343836"><ele>818.0</ele><time>2026-04-25T11:20:16.05Z</time></trkpt><trkpt lat="42.3648251" lon="-7.434165"><ele>818.0</ele><time>2026-04-25T11:20:17.05Z</time></trkpt><trkpt lat="42.364854" lon="-7.4339567"><ele>818.0</ele><time>2026-04-25T11:20:18.05Z</time></trkpt><trkpt lat="42.3648773" lon="-7.433772"><ele>818.0</ele><time>2026-04-25T11:20:19.046Z</time></trkpt><trkpt lat="42.3648973" lon="-7.4336209"><ele>818.0</ele><time>2026-04-25T11:20:20.049Z</time></trkpt><trkpt lat="42.3649081" lon="-7.4335081"><ele>817.6666666666667</ele><time>2026-04-25T11:20:21.048Z</time></trkpt><trkpt lat="42.3649137" lon="-7.4333734"><ele>817.3333333333334</ele><time>2026-04-25T11:20:23.051Z</time></trkpt><trkpt lat="42.3649598" lon="-7.4332603"><ele>817.0</ele><time>2026-04-25T11:20:26.054Z</time></trkpt><trkpt lat="42.3650139" lon="-7.4332122"><ele>816.6666666666667</ele><time>2026-04-25T11:20:27.048Z</time></trkpt><trkpt lat="42.3650939" lon="-7.4331622"><ele>816.3333333333334</ele><time>2026-04-25T11:20:28.049Z</time></trkpt><trkpt lat="42.3651828" lon="-7.4331172"><ele>816.0</ele><time>2026-04-25T11:20:29.05Z</time></trkpt><trkpt lat="42.3652841" lon="-7.4330694"><ele>816.0</ele><time>2026-04-25T11:20:30.05Z</time></trkpt><trkpt lat="42.36539" lon="-7.4330113"><ele>816.0</ele><time>2026-04-25T11:20:31.046Z</time></trkpt><trkpt lat="42.3654988" lon="-7.4329395"><ele>816.0</ele><time>2026-04-25T11:20:32.051Z</time></trkpt><trkpt lat="42.36561" lon="-7.4328576"><ele>816.0</ele><time>2026-04-25T11:20:33.049Z</time></trkpt><trkpt lat="42.3657216" lon="-7.4327721"><ele>816.75</ele><time>2026-04-25T11:20:34.054Z</time></trkpt><trkpt lat="42.3658381" lon="-7.4326771"><ele>817.5</ele><time>2026-04-25T11:20:35.05Z</time></trkpt><trkpt lat="42.3659654" lon="-7.4325718"><ele>818.25</ele><time>2026-04-25T11:20:36.061Z</time></trkpt><trkpt lat="42.3660963" lon="-7.4324639"><ele>819.0</ele><time>2026-04-25T11:20:37.048Z</time></trkpt><trkpt lat="42.3662245" lon="-7.4323563"><ele>819.0</ele><time>2026-04-25T11:20:38.053Z</time></trkpt><trkpt lat="42.3663567" lon="-7.4322421"><ele>819.0</ele><time>2026-04-25T11:20:39.05Z</time></trkpt><trkpt lat="42.3664905" lon="-7.4321224"><ele>819.0</ele><time>2026-04-25T11:20:40.053Z</time></trkpt><trkpt lat="42.3666193" lon="-7.4319951"><ele>819.0</ele><time>2026-04-25T11:20:41.045Z</time></trkpt><trkpt lat="42.3667349" lon="-7.4318564"><ele>819.0</ele><time>2026-04-25T11:20:42.056Z</time></trkpt><trkpt lat="42.3668353" lon="-7.4317"><ele>819.0</ele><time>2026-04-25T11:20:43.052Z</time></trkpt><trkpt lat="42.3669194" lon="-7.4315166"><ele>818.6666666666667</ele><time>2026-04-25T11:20:44.058Z</time></trkpt><trkpt lat="42.3669825" lon="-7.4313064"><ele>818.3333333333334</ele><time>2026-04-25T11:20:45.046Z</time></trkpt><trkpt lat="42.3670177" lon="-7.431076"><ele>818.0</ele><time>2026-04-25T11:20:46.044Z</time></trkpt><trkpt lat="42.3670192" lon="-7.4308309"><ele>818.0</ele><time>2026-04-25T11:20:47.043Z</time></trkpt><trkpt lat="42.3669932" lon="-7.4305776"><ele>818.0</ele><time>2026-04-25T11:20:48.047Z</time></trkpt><trkpt lat="42.366953" lon="-7.4303162"><ele>818.0</ele><time>2026-04-25T11:20:49.051Z</time></trkpt><trkpt lat="42.3669047" lon="-7.4300493"><ele>816.0</ele><time>2026-04-25T11:20:50.05Z</time></trkpt><trkpt lat="42.3668437" lon="-7.4297862"><ele>814.0</ele><time>2026-04-25T11:20:51.041Z</time></trkpt><trkpt lat="42.3667674" lon="-7.429533"><ele>812.0</ele><time>2026-04-25T11:20:52.054Z</time></trkpt><trkpt lat="42.3666819" lon="-7.4292976"><ele>810.3333333333334</ele><time>2026-04-25T11:20:53.046Z</time></trkpt><trkpt lat="42.366592" lon="-7.4290868"><ele>808.6666666666667</ele><time>2026-04-25T11:20:54.06Z</time></trkpt><trkpt lat="42.366505" lon="-7.4288703"><ele>807.0</ele><time>2026-04-25T11:20:55.056Z</time></trkpt><trkpt lat="42.3664088" lon="-7.4286477"><ele>806.3333333333333</ele><time>2026-04-25T11:20:56.049Z</time></trkpt><trkpt lat="42.3663193" lon="-7.4284153"><ele>805.6666666666666</ele><time>2026-04-25T11:20:57.057Z</time></trkpt><trkpt lat="42.3662403" lon="-7.4281767"><ele>805.0</ele><time>2026-04-25T11:20:58.054Z</time></trkpt><trkpt lat="42.3661768" lon="-7.4279167"><ele>802.3333333333333</ele><time>2026-04-25T11:20:59.051Z</time></trkpt><trkpt lat="42.3661516" lon="-7.4276473"><ele>799.6666666666667</ele><time>2026-04-25T11:21:00.054Z</time></trkpt><trkpt lat="42.3661411" lon="-7.4273594"><ele>797.0</ele><time>2026-04-25T11:21:01.059Z</time></trkpt><trkpt lat="42.3661783" lon="-7.427088"><ele>795.6666666666667</ele><time>2026-04-25T11:21:02.05Z</time></trkpt><trkpt lat="42.3662482" lon="-7.4268177"><ele>794.3333333333333</ele><time>2026-04-25T11:21:03.055Z</time></trkpt><trkpt lat="42.3663504" lon="-7.4265724"><ele>793.0</ele><time>2026-04-25T11:21:04.047Z</time></trkpt><trkpt lat="42.3664812" lon="-7.4263564"><ele>792.6666666666666</ele><time>2026-04-25T11:21:05.053Z</time></trkpt><trkpt lat="42.3666309" lon="-7.42618"><ele>792.3333333333333</ele><time>2026-04-25T11:21:06.045Z</time></trkpt><trkpt lat="42.3667987" lon="-7.4260459"><ele>792.0</ele><time>2026-04-25T11:21:07.053Z</time></trkpt><trkpt lat="42.3669868" lon="-7.4259405"><ele>792.0</ele><time>2026-04-25T11:21:08.054Z</time></trkpt><trkpt lat="42.3671814" lon="-7.4258764"><ele>792.0</ele><time>2026-04-25T11:21:09.05Z</time></trkpt><trkpt lat="42.367396" lon="-7.4258368"><ele>792.0</ele><time>2026-04-25T11:21:10.054Z</time></trkpt><trkpt lat="42.3676058" lon="-7.4258013"><ele>793.0</ele><time>2026-04-25T11:21:11.044Z</time></trkpt><trkpt lat="42.3678255" lon="-7.4257709"><ele>794.0</ele><time>2026-04-25T11:21:12.053Z</time></trkpt><trkpt lat="42.368029" lon="-7.4256939"><ele>795.0</ele><time>2026-04-25T11:21:13.052Z</time></trkpt><trkpt lat="42.368222" lon="-7.4256195"><ele>797.3333333333333</ele><time>2026-04-25T11:21:14.049Z</time></trkpt><trkpt lat="42.3684045" lon="-7.4254701"><ele>799.6666666666666</ele><time>2026-04-25T11:21:15.052Z</time></trkpt><trkpt lat="42.3685449" lon="-7.4252363"><ele>802.0</ele><time>2026-04-25T11:21:16.046Z</time></trkpt><trkpt lat="42.3686577" lon="-7.4249983"><ele>802.0</ele><time>2026-04-25T11:21:17.058Z</time></trkpt><trkpt lat="42.3687385" lon="-7.42473"><ele>802.0</ele><time>2026-04-25T11:21:18.048Z</time></trkpt><trkpt lat="42.3687972" lon="-7.4244825"><ele>802.0</ele><time>2026-04-25T11:21:19.055Z</time></trkpt><trkpt lat="42.3688574" lon="-7.4242582"><ele>796.0</ele><time>2026-04-25T11:21:20.046Z</time></trkpt><trkpt lat="42.3689067" lon="-7.4240261"><ele>790.0</ele><time>2026-04-25T11:21:21.05Z</time></trkpt><trkpt lat="42.3689612" lon="-7.4238025"><ele>784.0</ele><time>2026-04-25T11:21:22.048Z</time></trkpt><trkpt lat="42.369052" lon="-7.4235947"><ele>783.6666666666666</ele><time>2026-04-25T11:21:23.053Z</time></trkpt><trkpt lat="42.3691769" lon="-7.4234164"><ele>783.3333333333333</ele><time>2026-04-25T11:21:24.05Z</time></trkpt><trkpt lat="42.369332" lon="-7.4232794"><ele>783.0</ele><time>2026-04-25T11:21:25.054Z</time></trkpt><trkpt lat="42.3695087" lon="-7.4232058"><ele>783.0</ele><time>2026-04-25T11:21:26.048Z</time></trkpt><trkpt lat="42.3696872" lon="-7.4231958"><ele>783.0</ele><time>2026-04-25T11:21:27.045Z</time></trkpt><trkpt lat="42.369858" lon="-7.4232398"><ele>783.0</ele><time>2026-04-25T11:21:28.043Z</time></trkpt><trkpt lat="42.3700262" lon="-7.4232996"><ele>782.3333333333333</ele><time>2026-04-25T11:21:29.048Z</time></trkpt><trkpt lat="42.3701989" lon="-7.4233675"><ele>781.6666666666666</ele><time>2026-04-25T11:21:30.045Z</time></trkpt><trkpt lat="42.3703781" lon="-7.4234378"><ele>781.0</ele><time>2026-04-25T11:21:31.048Z</time></trkpt><trkpt lat="42.3705612" lon="-7.4235089"><ele>782.6666666666666</ele><time>2026-04-25T11:21:32.053Z</time></trkpt><trkpt lat="42.3707363" lon="-7.4235738"><ele>784.3333333333333</ele><time>2026-04-25T11:21:33.054Z</time></trkpt><trkpt lat="42.370901" lon="-7.4236324"><ele>786.0</ele><time>2026-04-25T11:21:34.05Z</time></trkpt><trkpt lat="42.3710567" lon="-7.4236848"><ele>786.0</ele><time>2026-04-25T11:21:35.048Z</time></trkpt><trkpt lat="42.3712133" lon="-7.4237209"><ele>786.0</ele><time>2026-04-25T11:21:36.058Z</time></trkpt><trkpt lat="42.3713753" lon="-7.423733"><ele>786.0</ele><time>2026-04-25T11:21:37.05Z</time></trkpt><trkpt lat="42.3715437" lon="-7.4237229"><ele>787.6666666666667</ele><time>2026-04-25T11:21:38.053Z</time></trkpt><trkpt lat="42.3717167" lon="-7.4236842"><ele>789.3333333333334</ele><time>2026-04-25T11:21:39.052Z</time></trkpt><trkpt lat="42.3718856" lon="-7.4236075"><ele>791.0</ele><time>2026-04-25T11:21:40.055Z</time></trkpt><trkpt lat="42.3720375" lon="-7.4234984"><ele>791.0</ele><time>2026-04-25T11:21:41.054Z</time></trkpt><trkpt lat="42.3721684" lon="-7.4233626"><ele>791.0</ele><time>2026-04-25T11:21:42.045Z</time></trkpt><trkpt lat="42.3722832" lon="-7.4231999"><ele>791.0</ele><time>2026-04-25T11:21:43.046Z</time></trkpt><trkpt lat="42.3723773" lon="-7.4230157"><ele>789.6666666666667</ele><time>2026-04-25T11:21:44.054Z</time></trkpt><trkpt lat="42.3724601" lon="-7.4228143"><ele>788.3333333333333</ele><time>2026-04-25T11:21:45.054Z</time></trkpt><trkpt lat="42.3725321" lon="-7.4226098"><ele>787.0</ele><time>2026-04-25T11:21:46.05Z</time></trkpt><trkpt lat="42.3725979" lon="-7.4224065"><ele>787.0</ele><time>2026-04-25T11:21:47.052Z</time></trkpt><trkpt lat="42.3726606" lon="-7.4222094"><ele>787.0</ele><time>2026-04-25T11:21:48.052Z</time></trkpt><trkpt lat="42.3727193" lon="-7.4220202"><ele>787.0</ele><time>2026-04-25T11:21:49.051Z</time></trkpt><trkpt lat="42.3727733" lon="-7.4218368"><ele>787.5</ele><time>2026-04-25T11:21:50.05Z</time></trkpt><trkpt lat="42.3728252" lon="-7.4216563"><ele>788.0</ele><time>2026-04-25T11:21:51.045Z</time></trkpt><trkpt lat="42.3728802" lon="-7.4214726"><ele>788.5</ele><time>2026-04-25T11:21:52.047Z</time></trkpt><trkpt lat="42.372937" lon="-7.421282"><ele>789.0</ele><time>2026-04-25T11:21:53.059Z</time></trkpt><trkpt lat="42.372995" lon="-7.4210868"><ele>787.25</ele><time>2026-04-25T11:21:54.048Z</time></trkpt><trkpt lat="42.3730524" lon="-7.4208937"><ele>785.5</ele><time>2026-04-25T11:21:55.045Z</time></trkpt><trkpt lat="42.3731081" lon="-7.4207122"><ele>783.75</ele><time>2026-04-25T11:21:56.052Z</time></trkpt><trkpt lat="42.3731613" lon="-7.4205409"><ele>782.0</ele><time>2026-04-25T11:21:57.049Z</time></trkpt><trkpt lat="42.3732115" lon="-7.4203777"><ele>782.0</ele><time>2026-04-25T11:21:58.06Z</time></trkpt><trkpt lat="42.3732585" lon="-7.4202194"><ele>782.0</ele><time>2026-04-25T11:21:59.054Z</time></trkpt><trkpt lat="42.3733043" lon="-7.4200644"><ele>782.0</ele><time>2026-04-25T11:22:00.056Z</time></trkpt><trkpt lat="42.3733501" lon="-7.419912"><ele>782.0</ele><time>2026-04-25T11:22:01.05Z</time></trkpt><trkpt lat="42.3733954" lon="-7.4197666"><ele>782.4000000000001</ele><time>2026-04-25T11:22:02.049Z</time></trkpt><trkpt lat="42.3734372" lon="-7.4196256"><ele>782.8000000000001</ele><time>2026-04-25T11:22:03.049Z</time></trkpt><trkpt lat="42.3734783" lon="-7.4194849"><ele>783.2</ele><time>2026-04-25T11:22:04.048Z</time></trkpt><trkpt lat="42.3735221" lon="-7.4193464"><ele>783.6</ele><time>2026-04-25T11:22:05.053Z</time></trkpt><trkpt lat="42.3735656" lon="-7.4192092"><ele>784.0</ele><time>2026-04-25T11:22:06.05Z</time></trkpt><trkpt lat="42.3736052" lon="-7.4190588"><ele>784.0</ele><time>2026-04-25T11:22:07.049Z</time></trkpt><trkpt lat="42.3736453" lon="-7.4189153"><ele>784.0</ele><time>2026-04-25T11:22:08.048Z</time></trkpt><trkpt lat="42.373689" lon="-7.4187699"><ele>784.0</ele><time>2026-04-25T11:22:09.055Z</time></trkpt><trkpt lat="42.3737411" lon="-7.4186288"><ele>784.0</ele><time>2026-04-25T11:22:10.06Z</time></trkpt><trkpt lat="42.3737919" lon="-7.4184822"><ele>785.5</ele><time>2026-04-25T11:22:11.05Z</time></trkpt><trkpt lat="42.3738358" lon="-7.4183258"><ele>787.0</ele><time>2026-04-25T11:22:12.052Z</time></trkpt><trkpt lat="42.3738812" lon="-7.4181717"><ele>788.5</ele><time>2026-04-25T11:22:13.053Z</time></trkpt><trkpt lat="42.3739233" lon="-7.4180228"><ele>790.0</ele><time>2026-04-25T11:22:14.06Z</time></trkpt><trkpt lat="42.3739711" lon="-7.4178696"><ele>787.0</ele><time>2026-04-25T11:22:15.056Z</time></trkpt><trkpt lat="42.3740132" lon="-7.4177161"><ele>784.0</ele><time>2026-04-25T11:22:16.051Z</time></trkpt><trkpt lat="42.3740735" lon="-7.4175633"><ele>781.0</ele><time>2026-04-25T11:22:17.059Z</time></trkpt><trkpt lat="42.3741164" lon="-7.4174142"><ele>778.0</ele><time>2026-04-25T11:22:18.058Z</time></trkpt><trkpt lat="42.3741688" lon="-7.4172447"><ele>778.0</ele><time>2026-04-25T11:22:19.054Z</time></trkpt><trkpt lat="42.3742206" lon="-7.4170787"><ele>778.0</ele><time>2026-04-25T11:22:20.053Z</time></trkpt><trkpt lat="42.3742705" lon="-7.4169175"><ele>778.0</ele><time>2026-04-25T11:22:21.059Z</time></trkpt><trkpt lat="42.3743226" lon="-7.4167534"><ele>778.0</ele><time>2026-04-25T11:22:22.054Z</time></trkpt><trkpt lat="42.374375" lon="-7.4165933"><ele>778.0</ele><time>2026-04-25T11:22:23.057Z</time></trkpt><trkpt lat="42.3744227" lon="-7.416439"><ele>778.0</ele><time>2026-04-25T11:22:24.05Z</time></trkpt><trkpt lat="42.374468" lon="-7.4162889"><ele>778.0</ele><time>2026-04-25T11:22:25.05Z</time></trkpt><trkpt lat="42.3745174" lon="-7.4161445"><ele>778.0</ele><time>2026-04-25T11:22:26.054Z</time></trkpt><trkpt lat="42.374566" lon="-7.4160037"><ele>778.4</ele><time>2026-04-25T11:22:27.06Z</time></trkpt><trkpt lat="42.3746083" lon="-7.4158654"><ele>778.8</ele><time>2026-04-25T11:22:28.067Z</time></trkpt><trkpt lat="42.3746483" lon="-7.4157257"><ele>779.2</ele><time>2026-04-25T11:22:29.058Z</time></trkpt><trkpt lat="42.3746891" lon="-7.4155833"><ele>779.6</ele><time>2026-04-25T11:22:30.062Z</time></trkpt><trkpt lat="42.3747291" lon="-7.4154433"><ele>780.0</ele><time>2026-04-25T11:22:31.061Z</time></trkpt><trkpt lat="42.3747639" lon="-7.4152972"><ele>779.0</ele><time>2026-04-25T11:22:32.049Z</time></trkpt><trkpt lat="42.3747964" lon="-7.4151482"><ele>778.0</ele><time>2026-04-25T11:22:33.055Z</time></trkpt><trkpt lat="42.3748144" lon="-7.4149923"><ele>777.0</ele><time>2026-04-25T11:22:34.052Z</time></trkpt><trkpt lat="42.3748079" lon="-7.4148317"><ele>776.0</ele><time>2026-04-25T11:22:35.047Z</time></trkpt><trkpt lat="42.3747633" lon="-7.4146825"><ele>778.25</ele><time>2026-04-25T11:22:36.052Z</time></trkpt><trkpt lat="42.3746891" lon="-7.4145489"><ele>780.5</ele><time>2026-04-25T11:22:37.048Z</time></trkpt><trkpt lat="42.3745963" lon="-7.4144195"><ele>782.75</ele><time>2026-04-25T11:22:38.058Z</time></trkpt><trkpt lat="42.3744953" lon="-7.4142834"><ele>785.0</ele><time>2026-04-25T11:22:39.068Z</time></trkpt><trkpt lat="42.3743988" lon="-7.4141525"><ele>785.0</ele><time>2026-04-25T11:22:40.053Z</time></trkpt><trkpt lat="42.374304" lon="-7.4140238"><ele>785.0</ele><time>2026-04-25T11:22:41.049Z</time></trkpt><trkpt lat="42.3742048" lon="-7.413894"><ele>785.0</ele><time>2026-04-25T11:22:42.053Z</time></trkpt><trkpt lat="42.3741015" lon="-7.4137602"><ele>785.0</ele><time>2026-04-25T11:22:43.059Z</time></trkpt><trkpt lat="42.3739938" lon="-7.4136247"><ele>786.3333333333334</ele><time>2026-04-25T11:22:44.047Z</time></trkpt><trkpt lat="42.3738857" lon="-7.4134821"><ele>787.6666666666667</ele><time>2026-04-25T11:22:45.058Z</time></trkpt><trkpt lat="42.3737769" lon="-7.413336"><ele>789.0</ele><time>2026-04-25T11:22:46.059Z</time></trkpt><trkpt lat="42.3736725" lon="-7.4131956"><ele>789.0</ele><time>2026-04-25T11:22:47.048Z</time></trkpt><trkpt lat="42.3735716" lon="-7.4130585"><ele>789.0</ele><time>2026-04-25T11:22:48.052Z</time></trkpt><trkpt lat="42.373459" lon="-7.4129294"><ele>789.0</ele><time>2026-04-25T11:22:49.05Z</time></trkpt><trkpt lat="42.3733572" lon="-7.4127908"><ele>789.0</ele><time>2026-04-25T11:22:50.052Z</time></trkpt><trkpt lat="42.3732539" lon="-7.4126513"><ele>788.3333333333333</ele><time>2026-04-25T11:22:51.048Z</time></trkpt><trkpt lat="42.3731449" lon="-7.412507"><ele>787.6666666666666</ele><time>2026-04-25T11:22:52.058Z</time></trkpt><trkpt lat="42.3730365" lon="-7.4123721"><ele>787.0</ele><time>2026-04-25T11:22:53.058Z</time></trkpt><trkpt lat="42.3729311" lon="-7.4122195"><ele>783.3333333333333</ele><time>2026-04-25T11:22:54.054Z</time></trkpt><trkpt lat="42.3728208" lon="-7.412065"><ele>779.6666666666667</ele><time>2026-04-25T11:22:55.056Z</time></trkpt><trkpt lat="42.3727066" lon="-7.4119166"><ele>776.0</ele><time>2026-04-25T11:22:56.055Z</time></trkpt><trkpt lat="42.372589" lon="-7.41177"><ele>776.0</ele><time>2026-04-25T11:22:57.065Z</time></trkpt><trkpt lat="42.3724703" lon="-7.4116364"><ele>776.0</ele><time>2026-04-25T11:22:58.058Z</time></trkpt><trkpt lat="42.3723465" lon="-7.4115259"><ele>776.0</ele><time>2026-04-25T11:22:59.063Z</time></trkpt><trkpt lat="42.3722241" lon="-7.4114343"><ele>776.0</ele><time>2026-04-25T11:23:00.052Z</time></trkpt><trkpt lat="42.3721029" lon="-7.4113646"><ele>772.8</ele><time>2026-04-25T11:23:01.046Z</time></trkpt><trkpt lat="42.3719862" lon="-7.4113147"><ele>769.5999999999999</ele><time>2026-04-25T11:23:02.044Z</time></trkpt><trkpt lat="42.3718753" lon="-7.4112842"><ele>766.4</ele><time>2026-04-25T11:23:03.055Z</time></trkpt><trkpt lat="42.3717862" lon="-7.4112625"><ele>763.2</ele><time>2026-04-25T11:23:04.055Z</time></trkpt><trkpt lat="42.3717241" lon="-7.411244"><ele>760.0</ele><time>2026-04-25T11:23:05.053Z</time></trkpt><trkpt lat="42.3716785" lon="-7.4111828"><ele>760.0</ele><time>2026-04-25T11:23:07.054Z</time></trkpt><trkpt lat="42.3717498" lon="-7.4111252"><ele>760.0</ele><time>2026-04-25T11:23:10.052Z</time></trkpt><trkpt lat="42.3718348" lon="-7.4111065"><ele>760.0</ele><time>2026-04-25T11:23:17.06Z</time></trkpt><trkpt lat="42.371898" lon="-7.4111091"><ele>760.0</ele><time>2026-04-25T11:23:18.068Z</time></trkpt><trkpt lat="42.3719653" lon="-7.4111215"><ele>760.0</ele><time>2026-04-25T11:23:19.057Z</time></trkpt><trkpt lat="42.372036" lon="-7.4111403"><ele>760.0</ele><time>2026-04-25T11:23:20.049Z</time></trkpt><trkpt lat="42.3721134" lon="-7.4111645"><ele>762.4</ele><time>2026-04-25T11:23:21.058Z</time></trkpt><trkpt lat="42.3721902" lon="-7.4112066"><ele>764.8</ele><time>2026-04-25T11:23:22.052Z</time></trkpt><trkpt lat="42.3722457" lon="-7.4112554"><ele>767.2</ele><time>2026-04-25T11:23:23.049Z</time></trkpt><trkpt lat="42.3723467" lon="-7.4113436"><ele>769.6</ele><time>2026-04-25T11:23:25.05Z</time></trkpt><trkpt lat="42.3724494" lon="-7.4114104"><ele>772.0</ele><time>2026-04-25T11:23:27.053Z</time></trkpt><trkpt lat="42.3724571" lon="-7.4112003"><ele>772.0</ele><time>2026-04-25T11:23:33.05Z</time></trkpt><trkpt lat="42.3724389" lon="-7.4111182"><ele>772.0</ele><time>2026-04-25T11:23:34.052Z</time></trkpt><trkpt lat="42.3724262" lon="-7.4109472"><ele>772.0</ele><time>2026-04-25T11:23:36.057Z</time></trkpt><trkpt lat="42.372428" lon="-7.4108454"><ele>772.0</ele><time>2026-04-25T11:23:37.053Z</time></trkpt><trkpt lat="42.372433" lon="-7.4106815"><ele>772.0</ele><time>2026-04-25T11:23:39.052Z</time></trkpt><trkpt lat="42.3724322" lon="-7.4105861"><ele>771.9999999999999</ele><time>2026-04-25T11:23:40.053Z</time></trkpt><trkpt lat="42.3724402" lon="-7.4104939"><ele>772.0</ele><time>2026-04-25T11:23:41.053Z</time></trkpt><trkpt lat="42.3724451" lon="-7.4103954"><ele>772.0</ele><time>2026-04-25T11:23:42.058Z</time></trkpt><trkpt lat="42.3724486" lon="-7.4102923"><ele>772.0</ele><time>2026-04-25T11:23:43.058Z</time></trkpt><trkpt lat="42.3724583" lon="-7.4101666"><ele>771.9999999999999</ele><time>2026-04-25T11:23:44.06Z</time></trkpt><trkpt lat="42.3724634" lon="-7.4100577"><ele>772.0</ele><time>2026-04-25T11:23:45.055Z</time></trkpt><trkpt lat="42.3724631" lon="-7.4099595"><ele>770.6666666666666</ele><time>2026-04-25T11:23:46.062Z</time></trkpt><trkpt lat="42.372468" lon="-7.4098549"><ele>769.3333333333333</ele><time>2026-04-25T11:23:47.047Z</time></trkpt><trkpt lat="42.372465" lon="-7.4097625"><ele>768.0</ele><time>2026-04-25T11:23:48.059Z</time></trkpt><trkpt lat="42.3725179" lon="-7.4096412"><ele>766.6666666666666</ele><time>2026-04-25T11:23:50.061Z</time></trkpt><trkpt lat="42.3726112" lon="-7.4096034"><ele>765.3333333333333</ele><time>2026-04-25T11:23:52.051Z</time></trkpt><trkpt lat="42.3726975" lon="-7.4096065"><ele>764.0</ele><time>2026-04-25T11:23:54.066Z</time></trkpt><trkpt lat="42.372785" lon="-7.4096193"><ele>764.0</ele><time>2026-04-25T11:23:56.064Z</time></trkpt><trkpt lat="42.3728779" lon="-7.4096485"><ele>764.0</ele><time>2026-04-25T11:23:58.053Z</time></trkpt><trkpt lat="42.37295" lon="-7.4096945"><ele>764.0</ele><time>2026-04-25T11:24:00.055Z</time></trkpt><trkpt lat="42.3730314" lon="-7.4097535"><ele>764.0</ele><time>2026-04-25T11:24:02.053Z</time></trkpt><trkpt lat="42.373111" lon="-7.4098326"><ele>764.0</ele><time>2026-04-25T11:24:04.053Z</time></trkpt><trkpt lat="42.3731876" lon="-7.4099083"><ele>761.8000000000001</ele><time>2026-04-25T11:24:06.059Z</time></trkpt><trkpt lat="42.3732807" lon="-7.4099996"><ele>759.6</ele><time>2026-04-25T11:24:08.053Z</time></trkpt><trkpt lat="42.3733753" lon="-7.4100964"><ele>757.4</ele><time>2026-04-25T11:24:10.061Z</time></trkpt><trkpt lat="42.3734363" lon="-7.4101481"><ele>755.2</ele><time>2026-04-25T11:24:11.055Z</time></trkpt><trkpt lat="42.373516" lon="-7.4102245"><ele>753.0</ele><time>2026-04-25T11:24:13.054Z</time></trkpt><trkpt lat="42.3735866" lon="-7.4103205"><ele>753.0</ele><time>2026-04-25T11:24:15.056Z</time></trkpt><trkpt lat="42.3736484" lon="-7.410414"><ele>753.0</ele><time>2026-04-25T11:24:17.054Z</time></trkpt><trkpt lat="42.3736989" lon="-7.4105303"><ele>753.0</ele><time>2026-04-25T11:24:19.055Z</time></trkpt><trkpt lat="42.3737303" lon="-7.4106281"><ele>753.0</ele><time>2026-04-25T11:24:21.065Z</time></trkpt><trkpt lat="42.3738464" lon="-7.4107171"><ele>753.0</ele><time>2026-04-25T11:24:25.052Z</time></trkpt><trkpt lat="42.3738758" lon="-7.4106278"><ele>753.0</ele><time>2026-04-25T11:24:27.06Z</time></trkpt><trkpt lat="42.3738712" lon="-7.4105051"><ele>753.0</ele><time>2026-04-25T11:24:29.05Z</time></trkpt><trkpt lat="42.3738469" lon="-7.4103783"><ele>753.0</ele><time>2026-04-25T11:24:31.046Z</time></trkpt><trkpt lat="42.3738157" lon="-7.4102368"><ele>753.0</ele><time>2026-04-25T11:24:33.052Z</time></trkpt><trkpt lat="42.3737907" lon="-7.4101503"><ele>753.0</ele><time>2026-04-25T11:24:34.048Z</time></trkpt><trkpt lat="42.3737362" lon="-7.4099968"><ele>753.0</ele><time>2026-04-25T11:24:36.047Z</time></trkpt><trkpt lat="42.3737124" lon="-7.4098983"><ele>753.0</ele><time>2026-04-25T11:24:37.049Z</time></trkpt><trkpt lat="42.3736938" lon="-7.4097922"><ele>753.0</ele><time>2026-04-25T11:24:38.056Z</time></trkpt><trkpt lat="42.3736712" lon="-7.4096876"><ele>753.0</ele><time>2026-04-25T11:24:39.048Z</time></trkpt><trkpt lat="42.3736505" lon="-7.40956"><ele>753.0</ele><time>2026-04-25T11:24:40.045Z</time></trkpt><trkpt lat="42.3736313" lon="-7.4094458"><ele>753.0</ele><time>2026-04-25T11:24:41.054Z</time></trkpt><trkpt lat="42.3736263" lon="-7.4093366"><ele>750.5</ele><time>2026-04-25T11:24:42.051Z</time></trkpt><trkpt lat="42.3736252" lon="-7.4092232"><ele>748.0</ele><time>2026-04-25T11:24:43.051Z</time></trkpt><trkpt lat="42.3736129" lon="-7.409124"><ele>745.5</ele><time>2026-04-25T11:24:44.048Z</time></trkpt><trkpt lat="42.3735879" lon="-7.4090235"><ele>743.0</ele><time>2026-04-25T11:24:45.047Z</time></trkpt><trkpt lat="42.3735366" lon="-7.4089252"><ele>740.5</ele><time>2026-04-25T11:24:46.048Z</time></trkpt><trkpt lat="42.3735059" lon="-7.4088106"><ele>738.0</ele><time>2026-04-25T11:24:47.046Z</time></trkpt><trkpt lat="42.3734495" lon="-7.4087252"><ele>734.8</ele><time>2026-04-25T11:24:48.046Z</time></trkpt><trkpt lat="42.3733533" lon="-7.4086347"><ele>731.5999999999999</ele><time>2026-04-25T11:24:49.055Z</time></trkpt><trkpt lat="42.3732835" lon="-7.4085295"><ele>728.4000000000001</ele><time>2026-04-25T11:24:50.046Z</time></trkpt><trkpt lat="42.3732101" lon="-7.4084235"><ele>725.2</ele><time>2026-04-25T11:24:51.051Z</time></trkpt><trkpt lat="42.373163" lon="-7.4083385"><ele>722.0</ele><time>2026-04-25T11:24:52.047Z</time></trkpt><trkpt lat="42.3731109" lon="-7.4082499"><ele>722.0</ele><time>2026-04-25T11:24:53.049Z</time></trkpt><trkpt lat="42.3730629" lon="-7.408173"><ele>722.0</ele><time>2026-04-25T11:24:54.058Z</time></trkpt><trkpt lat="42.3730069" lon="-7.4081081"><ele>722.0</ele><time>2026-04-25T11:24:55.049Z</time></trkpt><trkpt lat="42.3729644" lon="-7.4080429"><ele>722.0</ele><time>2026-04-25T11:24:56.045Z</time></trkpt><trkpt lat="42.3728849" lon="-7.4079873"><ele>722.0</ele><time>2026-04-25T11:24:57.045Z</time></trkpt><trkpt lat="42.3728069" lon="-7.4079546"><ele>722.0</ele><time>2026-04-25T11:24:58.046Z</time></trkpt><trkpt lat="42.3727245" lon="-7.4079365"><ele>719.0</ele><time>2026-04-25T11:24:59.044Z</time></trkpt><trkpt lat="42.3726302" lon="-7.407917"><ele>716.0</ele><time>2026-04-25T11:25:00.042Z</time></trkpt><trkpt lat="42.3725273" lon="-7.4079016"><ele>713.0</ele><time>2026-04-25T11:25:02.048Z</time></trkpt><trkpt lat="42.3724682" lon="-7.4078487"><ele>710.0</ele><time>2026-04-25T11:25:04.069Z</time></trkpt><trkpt lat="42.3723834" lon="-7.4077255"><ele>707.0</ele><time>2026-04-25T11:25:06.062Z</time></trkpt><trkpt lat="42.3723274" lon="-7.4076637"><ele>707.0</ele><time>2026-04-25T11:25:07.058Z</time></trkpt><trkpt lat="42.3722475" lon="-7.4076394"><ele>707.0</ele><time>2026-04-25T11:25:08.046Z</time></trkpt><trkpt lat="42.3721593" lon="-7.4076343"><ele>707.0</ele><time>2026-04-25T11:25:09.044Z</time></trkpt><trkpt lat="42.3720697" lon="-7.4076358"><ele>707.0</ele><time>2026-04-25T11:25:10.052Z</time></trkpt><trkpt lat="42.3719983" lon="-7.40764"><ele>707.0</ele><time>2026-04-25T11:25:11.045Z</time></trkpt><trkpt lat="42.3719229" lon="-7.4075461"><ele>707.0</ele><time>2026-04-25T11:25:13.056Z</time></trkpt><trkpt lat="42.3719689" lon="-7.4074788"><ele>707.0</ele><time>2026-04-25T11:25:14.051Z</time></trkpt><trkpt lat="42.3720334" lon="-7.4074352"><ele>707.0</ele><time>2026-04-25T11:25:15.046Z</time></trkpt><trkpt lat="42.3721181" lon="-7.4073921"><ele>707.0</ele><time>2026-04-25T11:25:16.053Z</time></trkpt><trkpt lat="42.3722239" lon="-7.4073728"><ele>707.0</ele><time>2026-04-25T11:25:17.046Z</time></trkpt><trkpt lat="42.37233" lon="-7.4073692"><ele>707.0</ele><time>2026-04-25T11:25:18.052Z</time></trkpt><trkpt lat="42.3724317" lon="-7.4073706"><ele>707.0</ele><time>2026-04-25T11:25:19.052Z</time></trkpt><trkpt lat="42.3725337" lon="-7.4073756"><ele>707.0</ele><time>2026-04-25T11:25:20.048Z</time></trkpt><trkpt lat="42.3726328" lon="-7.4073799"><ele>707.0</ele><time>2026-04-25T11:25:21.1Z</time></trkpt><trkpt lat="42.3727303" lon="-7.4073872"><ele>707.0</ele><time>2026-04-25T11:25:22.045Z</time></trkpt><trkpt lat="42.3728299" lon="-7.4073985"><ele>707.0</ele><time>2026-04-25T11:25:23.051Z</time></trkpt><trkpt lat="42.3729311" lon="-7.4074066"><ele>705.6666666666666</ele><time>2026-04-25T11:25:24.04Z</time></trkpt><trkpt lat="42.3730304" lon="-7.4074122"><ele>704.3333333333333</ele><time>2026-04-25T11:25:25.052Z</time></trkpt><trkpt lat="42.3731268" lon="-7.4074175"><ele>703.0</ele><time>2026-04-25T11:25:26.045Z</time></trkpt><trkpt lat="42.3732167" lon="-7.4074139"><ele>701.6666666666666</ele><time>2026-04-25T11:25:27.042Z</time></trkpt><trkpt lat="42.3732946" lon="-7.4074071"><ele>700.3333333333334</ele><time>2026-04-25T11:25:28.061Z</time></trkpt><trkpt lat="42.3733543" lon="-7.4073739"><ele>699.0</ele><time>2026-04-25T11:25:29.047Z</time></trkpt><trkpt lat="42.3733687" lon="-7.4072361"><ele>699.0</ele><time>2026-04-25T11:25:31.048Z</time></trkpt><trkpt lat="42.3733108" lon="-7.4071819"><ele>699.0</ele><time>2026-04-25T11:25:32.056Z</time></trkpt><trkpt lat="42.3732202" lon="-7.407146"><ele>699.0</ele><time>2026-04-25T11:25:33.046Z</time></trkpt><trkpt lat="42.3731076" lon="-7.4071243"><ele>699.0</ele><time>2026-04-25T11:25:34.052Z</time></trkpt><trkpt lat="42.3729934" lon="-7.4071081"><ele>699.0</ele><time>2026-04-25T11:25:35.053Z</time></trkpt><trkpt lat="42.3728735" lon="-7.4070886"><ele>695.8000000000001</ele><time>2026-04-25T11:25:36.052Z</time></trkpt><trkpt lat="42.3727515" lon="-7.4070634"><ele>692.6</ele><time>2026-04-25T11:25:37.048Z</time></trkpt><trkpt lat="42.3726341" lon="-7.4070406"><ele>689.4</ele><time>2026-04-25T11:25:38.06Z</time></trkpt><trkpt lat="42.3725246" lon="-7.4070229"><ele>686.2</ele><time>2026-04-25T11:25:39.049Z</time></trkpt><trkpt lat="42.3724362" lon="-7.4070014"><ele>683.0</ele><time>2026-04-25T11:25:40.044Z</time></trkpt><trkpt lat="42.3723707" lon="-7.4069655"><ele>683.0</ele><time>2026-04-25T11:25:41.05Z</time></trkpt><trkpt lat="42.3723076" lon="-7.4068845"><ele>683.0</ele><time>2026-04-25T11:25:43.048Z</time></trkpt><trkpt lat="42.3723634" lon="-7.406827"><ele>683.0</ele><time>2026-04-25T11:25:44.054Z</time></trkpt><trkpt lat="42.3724308" lon="-7.4067657"><ele>683.0</ele><time>2026-04-25T11:25:45.061Z</time></trkpt><trkpt lat="42.3725354" lon="-7.4067761"><ele>683.0</ele><time>2026-04-25T11:25:46.054Z</time></trkpt><trkpt lat="42.3726722" lon="-7.406794"><ele>683.0</ele><time>2026-04-25T11:25:47.047Z</time></trkpt><trkpt lat="42.3728377" lon="-7.4067881"><ele>683.0</ele><time>2026-04-25T11:25:48.051Z</time></trkpt><trkpt lat="42.3729932" lon="-7.4067694"><ele>683.0</ele><time>2026-04-25T11:25:49.051Z</time></trkpt><trkpt lat="42.373137" lon="-7.4067383"><ele>681.5</ele><time>2026-04-25T11:25:50.053Z</time></trkpt><trkpt lat="42.3732867" lon="-7.4066998"><ele>680.0</ele><time>2026-04-25T11:25:51.05Z</time></trkpt><trkpt lat="42.3734114" lon="-7.4066586"><ele>678.5</ele><time>2026-04-25T11:25:52.043Z</time></trkpt><trkpt lat="42.3735269" lon="-7.4066233"><ele>677.0</ele><time>2026-04-25T11:25:53.05Z</time></trkpt><trkpt lat="42.3735937" lon="-7.4065945"><ele>677.0</ele><time>2026-04-25T11:25:54.049Z</time></trkpt><trkpt lat="42.3736491" lon="-7.4065075"><ele>677.0</ele><time>2026-04-25T11:25:56.05Z</time></trkpt><trkpt lat="42.3736281" lon="-7.406403"><ele>677.0</ele><time>2026-04-25T11:25:57.057Z</time></trkpt><trkpt lat="42.3736187" lon="-7.4063127"><ele>677.0</ele><time>2026-04-25T11:25:58.045Z</time></trkpt><trkpt lat="42.3736607" lon="-7.4061546"><ele>677.0</ele><time>2026-04-25T11:26:00.05Z</time></trkpt><trkpt lat="42.3737064" lon="-7.40607"><ele>677.0</ele><time>2026-04-25T11:26:01.046Z</time></trkpt><trkpt lat="42.373792" lon="-7.4060365"><ele>677.8</ele><time>2026-04-25T11:26:02.05Z</time></trkpt><trkpt lat="42.3738776" lon="-7.4060081"><ele>678.6</ele><time>2026-04-25T11:26:03.053Z</time></trkpt><trkpt lat="42.3739642" lon="-7.4060056"><ele>679.4</ele><time>2026-04-25T11:26:04.056Z</time></trkpt><trkpt lat="42.3740609" lon="-7.4060126"><ele>680.1999999999999</ele><time>2026-04-25T11:26:05.06Z</time></trkpt><trkpt lat="42.3741717" lon="-7.406022"><ele>681.0</ele><time>2026-04-25T11:26:06.056Z</time></trkpt><trkpt lat="42.374284" lon="-7.4060344"><ele>681.0</ele><time>2026-04-25T11:26:07.058Z</time></trkpt><trkpt lat="42.3743729" lon="-7.4060627"><ele>681.0</ele><time>2026-04-25T11:26:08.047Z</time></trkpt><trkpt lat="42.3744691" lon="-7.4060858"><ele>681.0</ele><time>2026-04-25T11:26:10.049Z</time></trkpt><trkpt lat="42.3745704" lon="-7.4061084"><ele>681.0</ele><time>2026-04-25T11:26:13.058Z</time></trkpt><trkpt lat="42.3746277" lon="-7.4061444"><ele>681.0</ele><time>2026-04-25T11:26:15.053Z</time></trkpt><trkpt lat="42.3745343" lon="-7.4061453"><ele>681.0</ele><time>2026-04-25T11:26:20.057Z</time></trkpt><trkpt lat="42.3744766" lon="-7.4061052"><ele>681.0</ele><time>2026-04-25T11:26:21.048Z</time></trkpt><trkpt lat="42.374369" lon="-7.4060441"><ele>681.0</ele><time>2026-04-25T11:26:23.055Z</time></trkpt><trkpt lat="42.3742971" lon="-7.4060351"><ele>681.0</ele><time>2026-04-25T11:26:25.045Z</time></trkpt><trkpt lat="42.3743438" lon="-7.4061425"><ele>681.0</ele><time>2026-04-25T11:26:29.045Z</time></trkpt><trkpt lat="42.3744014" lon="-7.4062052"><ele>681.0</ele><time>2026-04-25T11:26:31.056Z</time></trkpt><trkpt lat="42.3744528" lon="-7.4063259"><ele>678.8333333333334</ele><time>2026-04-25T11:26:33.056Z</time></trkpt><trkpt lat="42.3744668" lon="-7.4064239"><ele>676.6666666666666</ele><time>2026-04-25T11:26:34.042Z</time></trkpt><trkpt lat="42.3744716" lon="-7.40654"><ele>674.5</ele><time>2026-04-25T11:26:35.045Z</time></trkpt><trkpt lat="42.3744758" lon="-7.4066449"><ele>672.3333333333333</ele><time>2026-04-25T11:26:36.053Z</time></trkpt><trkpt lat="42.3744864" lon="-7.4067302"><ele>670.1666666666666</ele><time>2026-04-25T11:26:37.041Z</time></trkpt><trkpt lat="42.3745045" lon="-7.4068646"><ele>668.0</ele><time>2026-04-25T11:26:39.045Z</time></trkpt><trkpt lat="42.3745315" lon="-7.4070101"><ele>668.0</ele><time>2026-04-25T11:26:41.048Z</time></trkpt><trkpt lat="42.3745841" lon="-7.4071619"><ele>668.0</ele><time>2026-04-25T11:26:43.045Z</time></trkpt><trkpt lat="42.3746513" lon="-7.407299"><ele>668.0</ele><time>2026-04-25T11:26:45.052Z</time></trkpt><trkpt lat="42.3746883" lon="-7.4073731"><ele>668.0</ele><time>2026-04-25T11:26:46.045Z</time></trkpt><trkpt lat="42.374726" lon="-7.4074638"><ele>668.0</ele><time>2026-04-25T11:26:47.048Z</time></trkpt><trkpt lat="42.3747712" lon="-7.4075696"><ele>668.0</ele><time>2026-04-25T11:26:48.042Z</time></trkpt><trkpt lat="42.3748199" lon="-7.4076833"><ele>668.0</ele><time>2026-04-25T11:26:49.056Z</time></trkpt><trkpt lat="42.3748716" lon="-7.4077908"><ele>668.0</ele><time>2026-04-25T11:26:50.049Z</time></trkpt><trkpt lat="42.3749222" lon="-7.4078766"><ele>668.0</ele><time>2026-04-25T11:26:51.046Z</time></trkpt><trkpt lat="42.3749733" lon="-7.4079403"><ele>668.0</ele><time>2026-04-25T11:26:52.054Z</time></trkpt><trkpt lat="42.3750295" lon="-7.4079793"><ele>668.0</ele><time>2026-04-25T11:26:53.053Z</time></trkpt><trkpt lat="42.3750925" lon="-7.4080226"><ele>665.5</ele><time>2026-04-25T11:26:54.056Z</time></trkpt><trkpt lat="42.3751763" lon="-7.4080677"><ele>663.0</ele><time>2026-04-25T11:26:55.057Z</time></trkpt><trkpt lat="42.375271" lon="-7.4080976"><ele>660.5</ele><time>2026-04-25T11:26:56.061Z</time></trkpt><trkpt lat="42.3753649" lon="-7.4081282"><ele>658.0</ele><time>2026-04-25T11:26:57.049Z</time></trkpt><trkpt lat="42.3754469" lon="-7.4081499"><ele>655.5</ele><time>2026-04-25T11:26:58.056Z</time></trkpt><trkpt lat="42.3755188" lon="-7.4081647"><ele>653.0</ele><time>2026-04-25T11:26:59.055Z</time></trkpt><trkpt lat="42.3755873" lon="-7.4081759"><ele>652.0</ele><time>2026-04-25T11:27:00.049Z</time></trkpt><trkpt lat="42.3756641" lon="-7.4082016"><ele>651.0</ele><time>2026-04-25T11:27:01.047Z</time></trkpt><trkpt lat="42.3757363" lon="-7.4082332"><ele>650.0</ele><time>2026-04-25T11:27:02.048Z</time></trkpt><trkpt lat="42.375806" lon="-7.4082623"><ele>649.0</ele><time>2026-04-25T11:27:03.046Z</time></trkpt><trkpt lat="42.3758803" lon="-7.4082837"><ele>648.0</ele><time>2026-04-25T11:27:04.054Z</time></trkpt><trkpt lat="42.3759562" lon="-7.4082991"><ele>647.0</ele><time>2026-04-25T11:27:05.064Z</time></trkpt><trkpt lat="42.3760323" lon="-7.4083076"><ele>647.0</ele><time>2026-04-25T11:27:06.054Z</time></trkpt><trkpt lat="42.3761113" lon="-7.4082981"><ele>647.0</ele><time>2026-04-25T11:27:07.047Z</time></trkpt><trkpt lat="42.3761881" lon="-7.4082598"><ele>647.0</ele><time>2026-04-25T11:27:08.052Z</time></trkpt><trkpt lat="42.3762588" lon="-7.4081934"><ele>647.0</ele><time>2026-04-25T11:27:09.049Z</time></trkpt><trkpt lat="42.3763289" lon="-7.4081194"><ele>647.0</ele><time>2026-04-25T11:27:10.053Z</time></trkpt><trkpt lat="42.3763879" lon="-7.408053"><ele>647.0</ele><time>2026-04-25T11:27:11.049Z</time></trkpt><trkpt lat="42.3765115" lon="-7.4079812"><ele>645.0</ele><time>2026-04-25T11:27:13.052Z</time></trkpt><trkpt lat="42.3765921" lon="-7.4079715"><ele>643.0</ele><time>2026-04-25T11:27:14.052Z</time></trkpt><trkpt lat="42.3766785" lon="-7.4079898"><ele>641.0</ele><time>2026-04-25T11:27:15.05Z</time></trkpt><trkpt lat="42.3767709" lon="-7.408052"><ele>639.0</ele><time>2026-04-25T11:27:16.044Z</time></trkpt><trkpt lat="42.3768653" lon="-7.4081212"><ele>637.0</ele><time>2026-04-25T11:27:17.051Z</time></trkpt><trkpt lat="42.376954" lon="-7.4081976"><ele>637.0</ele><time>2026-04-25T11:27:18.047Z</time></trkpt><trkpt lat="42.3770382" lon="-7.4082682"><ele>637.0</ele><time>2026-04-25T11:27:19.05Z</time></trkpt><trkpt lat="42.3771171" lon="-7.4083406"><ele>637.0</ele><time>2026-04-25T11:27:20.051Z</time></trkpt><trkpt lat="42.3771936" lon="-7.4084144"><ele>637.0</ele><time>2026-04-25T11:27:21.049Z</time></trkpt><trkpt lat="42.3772685" lon="-7.4085"><ele>637.0</ele><time>2026-04-25T11:27:22.048Z</time></trkpt><trkpt lat="42.3773432" lon="-7.408588"><ele>639.0</ele><time>2026-04-25T11:27:23.052Z</time></trkpt><trkpt lat="42.377415" lon="-7.4086913"><ele>641.0</ele><time>2026-04-25T11:27:24.047Z</time></trkpt><trkpt lat="42.3774866" lon="-7.4087878"><ele>643.0</ele><time>2026-04-25T11:27:25.046Z</time></trkpt><trkpt lat="42.3775608" lon="-7.4088631"><ele>645.0</ele><time>2026-04-25T11:27:26.053Z</time></trkpt><trkpt lat="42.3776393" lon="-7.4089214"><ele>647.0</ele><time>2026-04-25T11:27:27.056Z</time></trkpt><trkpt lat="42.3777272" lon="-7.4089791"><ele>639.8000000000001</ele><time>2026-04-25T11:27:28.045Z</time></trkpt><trkpt lat="42.3778196" lon="-7.4090434"><ele>632.6</ele><time>2026-04-25T11:27:29.048Z</time></trkpt><trkpt lat="42.3779095" lon="-7.4091115"><ele>625.4000000000001</ele><time>2026-04-25T11:27:30.048Z</time></trkpt><trkpt lat="42.3780133" lon="-7.4091843"><ele>618.2</ele><time>2026-04-25T11:27:31.045Z</time></trkpt><trkpt lat="42.3781165" lon="-7.4092485"><ele>611.0</ele><time>2026-04-25T11:27:32.046Z</time></trkpt><trkpt lat="42.3782183" lon="-7.4092969"><ele>611.0</ele><time>2026-04-25T11:27:33.042Z</time></trkpt><trkpt lat="42.3783212" lon="-7.4093314"><ele>611.0</ele><time>2026-04-25T11:27:34.047Z</time></trkpt><trkpt lat="42.3784183" lon="-7.4093571"><ele>611.0</ele><time>2026-04-25T11:27:35.048Z</time></trkpt><trkpt lat="42.3785136" lon="-7.4093767"><ele>611.0</ele><time>2026-04-25T11:27:36.046Z</time></trkpt><trkpt lat="42.3785949" lon="-7.4093931"><ele>611.0</ele><time>2026-04-25T11:27:37.052Z</time></trkpt><trkpt lat="42.3786676" lon="-7.4093985"><ele>611.0</ele><time>2026-04-25T11:27:38.046Z</time></trkpt><trkpt lat="42.3787453" lon="-7.4093725"><ele>611.0</ele><time>2026-04-25T11:27:39.046Z</time></trkpt><trkpt lat="42.3788041" lon="-7.409342"><ele>611.0</ele><time>2026-04-25T11:27:40.056Z</time></trkpt><trkpt lat="42.3788698" lon="-7.4092427"><ele>611.0</ele><time>2026-04-25T11:27:45.053Z</time></trkpt><trkpt lat="42.3789158" lon="-7.4091588"><ele>611.0</ele><time>2026-04-25T11:27:47.052Z</time></trkpt><trkpt lat="42.3789752" lon="-7.4091118"><ele>611.0</ele><time>2026-04-25T11:27:48.044Z</time></trkpt><trkpt lat="42.3790508" lon="-7.4090564"><ele>608.5</ele><time>2026-04-25T11:27:49.062Z</time></trkpt><trkpt lat="42.3791307" lon="-7.4089964"><ele>606.0</ele><time>2026-04-25T11:27:50.048Z</time></trkpt><trkpt lat="42.3792184" lon="-7.4089148"><ele>603.5</ele><time>2026-04-25T11:27:51.05Z</time></trkpt><trkpt lat="42.3793226" lon="-7.408814"><ele>601.0</ele><time>2026-04-25T11:27:52.051Z</time></trkpt><trkpt lat="42.3794291" lon="-7.4087102"><ele>605.25</ele><time>2026-04-25T11:27:53.05Z</time></trkpt><trkpt lat="42.3795336" lon="-7.4086136"><ele>609.5</ele><time>2026-04-25T11:27:54.048Z</time></trkpt><trkpt lat="42.379636" lon="-7.4085378"><ele>613.75</ele><time>2026-04-25T11:27:55.044Z</time></trkpt><trkpt lat="42.3797396" lon="-7.4084976"><ele>618.0</ele><time>2026-04-25T11:27:56.054Z</time></trkpt><trkpt lat="42.3798491" lon="-7.4084643"><ele>618.0</ele><time>2026-04-25T11:27:57.046Z</time></trkpt><trkpt lat="42.3799737" lon="-7.4084148"><ele>618.0</ele><time>2026-04-25T11:27:58.054Z</time></trkpt><trkpt lat="42.3801012" lon="-7.4083697"><ele>618.0</ele><time>2026-04-25T11:27:59.049Z</time></trkpt><trkpt lat="42.380215" lon="-7.4083342"><ele>618.0</ele><time>2026-04-25T11:28:00.053Z</time></trkpt><trkpt lat="42.3803299" lon="-7.4082989"><ele>618.0</ele><time>2026-04-25T11:28:01.05Z</time></trkpt><trkpt lat="42.3804372" lon="-7.408262"><ele>618.0</ele><time>2026-04-25T11:28:02.054Z</time></trkpt><trkpt lat="42.3805304" lon="-7.4082299"><ele>618.0</ele><time>2026-04-25T11:28:03.044Z</time></trkpt><trkpt lat="42.3806312" lon="-7.4081941"><ele>618.0</ele><time>2026-04-25T11:28:04.054Z</time></trkpt><trkpt lat="42.3807302" lon="-7.4081634"><ele>618.0</ele><time>2026-04-25T11:28:05.06Z</time></trkpt><trkpt lat="42.3808149" lon="-7.4081477"><ele>618.0</ele><time>2026-04-25T11:28:06.046Z</time></trkpt><trkpt lat="42.3809053" lon="-7.4081425"><ele>618.0</ele><time>2026-04-25T11:28:07.053Z</time></trkpt><trkpt lat="42.3809982" lon="-7.4081481"><ele>618.0</ele><time>2026-04-25T11:28:08.052Z</time></trkpt><trkpt lat="42.3810888" lon="-7.4081574"><ele>618.0</ele><time>2026-04-25T11:28:09.045Z</time></trkpt><trkpt lat="42.3811572" lon="-7.4081638"><ele>618.0</ele><time>2026-04-25T11:28:10.05Z</time></trkpt><trkpt lat="42.3812345" lon="-7.4081403"><ele>618.0</ele><time>2026-04-25T11:28:12.046Z</time></trkpt><trkpt lat="42.3812345" lon="-7.4080355"><ele>624.8</ele><time>2026-04-25T11:28:14.067Z</time></trkpt><trkpt lat="42.3811445" lon="-7.4079793"><ele>631.5999999999999</ele><time>2026-04-25T11:28:16.045Z</time></trkpt><trkpt lat="42.3810681" lon="-7.4079616"><ele>638.4000000000001</ele><time>2026-04-25T11:28:17.047Z</time></trkpt><trkpt lat="42.3809614" lon="-7.4079405"><ele>645.2</ele><time>2026-04-25T11:28:18.049Z</time></trkpt><trkpt lat="42.3808369" lon="-7.4078935"><ele>652.0</ele><time>2026-04-25T11:28:19.051Z</time></trkpt><trkpt lat="42.3807105" lon="-7.4078406"><ele>652.0</ele><time>2026-04-25T11:28:20.05Z</time></trkpt><trkpt lat="42.380594" lon="-7.4077947"><ele>652.0</ele><time>2026-04-25T11:28:21.054Z</time></trkpt><trkpt lat="42.3804862" lon="-7.4077743"><ele>652.0</ele><time>2026-04-25T11:28:22.049Z</time></trkpt><trkpt lat="42.3803771" lon="-7.4077736"><ele>652.0</ele><time>2026-04-25T11:28:23.043Z</time></trkpt><trkpt lat="42.380251" lon="-7.4077839"><ele>652.6666666666667</ele><time>2026-04-25T11:28:24.041Z</time></trkpt><trkpt lat="42.3801698" lon="-7.4078056"><ele>653.3333333333334</ele><time>2026-04-25T11:28:25.049Z</time></trkpt><trkpt lat="42.3801034" lon="-7.4077839"><ele>654.0</ele><time>2026-04-25T11:28:27.048Z</time></trkpt><trkpt lat="42.3801573" lon="-7.4077319"><ele>654.6666666666666</ele><time>2026-04-25T11:28:29.054Z</time></trkpt><trkpt lat="42.3802214" lon="-7.4076962"><ele>655.3333333333333</ele><time>2026-04-25T11:28:30.042Z</time></trkpt><trkpt lat="42.3803238" lon="-7.4076367"><ele>656.0</ele><time>2026-04-25T11:28:31.054Z</time></trkpt><trkpt lat="42.380448" lon="-7.4075595"><ele>654.6666666666666</ele><time>2026-04-25T11:28:32.046Z</time></trkpt><trkpt lat="42.3805966" lon="-7.4074823"><ele>653.3333333333334</ele><time>2026-04-25T11:28:33.047Z</time></trkpt><trkpt lat="42.3807563" lon="-7.4074082"><ele>652.0</ele><time>2026-04-25T11:28:34.051Z</time></trkpt><trkpt lat="42.3809115" lon="-7.4073489"><ele>652.0</ele><time>2026-04-25T11:28:35.048Z</time></trkpt><trkpt lat="42.3810452" lon="-7.4073087"><ele>652.0</ele><time>2026-04-25T11:28:36.046Z</time></trkpt><trkpt lat="42.3811549" lon="-7.4072987"><ele>652.0</ele><time>2026-04-25T11:28:37.045Z</time></trkpt><trkpt lat="42.3812601" lon="-7.4072921"><ele>652.0</ele><time>2026-04-25T11:28:38.061Z</time></trkpt><trkpt lat="42.3813611" lon="-7.4072715"><ele>652.8</ele><time>2026-04-25T11:28:40.042Z</time></trkpt><trkpt lat="42.3814233" lon="-7.4072531"><ele>653.6</ele><time>2026-04-25T11:28:45.058Z</time></trkpt><trkpt lat="42.3815091" lon="-7.4073061"><ele>654.4</ele><time>2026-04-25T11:28:46.053Z</time></trkpt><trkpt lat="42.3815926" lon="-7.4073569"><ele>655.1999999999999</ele><time>2026-04-25T11:28:47.057Z</time></trkpt><trkpt lat="42.3816921" lon="-7.4074236"><ele>656.0</ele><time>2026-04-25T11:28:48.053Z</time></trkpt><trkpt lat="42.3817977" lon="-7.4074918"><ele>656.0</ele><time>2026-04-25T11:28:49.053Z</time></trkpt><trkpt lat="42.3818997" lon="-7.4075606"><ele>656.0</ele><time>2026-04-25T11:28:50.054Z</time></trkpt><trkpt lat="42.3819962" lon="-7.4076286"><ele>656.0</ele><time>2026-04-25T11:28:51.052Z</time></trkpt><trkpt lat="42.3820942" lon="-7.4076929"><ele>656.0</ele><time>2026-04-25T11:28:52.053Z</time></trkpt><trkpt lat="42.3821955" lon="-7.407755"><ele>656.0</ele><time>2026-04-25T11:28:53.043Z</time></trkpt><trkpt lat="42.3822969" lon="-7.4078185"><ele>658.8</ele><time>2026-04-25T11:28:54.072Z</time></trkpt><trkpt lat="42.3823937" lon="-7.407871"><ele>661.5999999999999</ele><time>2026-04-25T11:28:55.064Z</time></trkpt><trkpt lat="42.3824882" lon="-7.4079147"><ele>664.4</ele><time>2026-04-25T11:28:56.056Z</time></trkpt><trkpt lat="42.3825818" lon="-7.4079541"><ele>667.2</ele><time>2026-04-25T11:28:57.05Z</time></trkpt><trkpt lat="42.3826704" lon="-7.4079993"><ele>670.0</ele><time>2026-04-25T11:28:58.049Z</time></trkpt><trkpt lat="42.3827578" lon="-7.4080415"><ele>667.8</ele><time>2026-04-25T11:28:59.055Z</time></trkpt><trkpt lat="42.3828519" lon="-7.4080853"><ele>665.6</ele><time>2026-04-25T11:29:00.063Z</time></trkpt><trkpt lat="42.3829466" lon="-7.4081327"><ele>663.4000000000001</ele><time>2026-04-25T11:29:01.045Z</time></trkpt><trkpt lat="42.3830418" lon="-7.4081948"><ele>661.2</ele><time>2026-04-25T11:29:02.049Z</time></trkpt><trkpt lat="42.3831365" lon="-7.4082833"><ele>659.0</ele><time>2026-04-25T11:29:03.045Z</time></trkpt><trkpt lat="42.3832222" lon="-7.4084038"><ele>659.0</ele><time>2026-04-25T11:29:04.041Z</time></trkpt><trkpt lat="42.3832942" lon="-7.4085537"><ele>659.0</ele><time>2026-04-25T11:29:05.049Z</time></trkpt><trkpt lat="42.3833519" lon="-7.4087245"><ele>659.0</ele><time>2026-04-25T11:29:06.046Z</time></trkpt><trkpt lat="42.3833956" lon="-7.4089063"><ele>659.0</ele><time>2026-04-25T11:29:07.044Z</time></trkpt><trkpt lat="42.3834341" lon="-7.409094"><ele>652.5</ele><time>2026-04-25T11:29:08.053Z</time></trkpt><trkpt lat="42.3834739" lon="-7.4092864"><ele>646.0</ele><time>2026-04-25T11:29:09.049Z</time></trkpt><trkpt lat="42.3835213" lon="-7.4094787"><ele>639.5</ele><time>2026-04-25T11:29:10.044Z</time></trkpt><trkpt lat="42.3835849" lon="-7.409662"><ele>633.0</ele><time>2026-04-25T11:29:11.047Z</time></trkpt><trkpt lat="42.3836708" lon="-7.4098378"><ele>627.5</ele><time>2026-04-25T11:29:12.049Z</time></trkpt><trkpt lat="42.3837551" lon="-7.410007"><ele>622.0</ele><time>2026-04-25T11:29:13.051Z</time></trkpt><trkpt lat="42.3838166" lon="-7.4101796"><ele>616.5</ele><time>2026-04-25T11:29:14.055Z</time></trkpt><trkpt lat="42.3838445" lon="-7.4103758"><ele>611.0</ele><time>2026-04-25T11:29:15.056Z</time></trkpt><trkpt lat="42.3838438" lon="-7.4105769"><ele>608.0</ele><time>2026-04-25T11:29:16.046Z</time></trkpt><trkpt lat="42.3838266" lon="-7.4107681"><ele>605.0</ele><time>2026-04-25T11:29:17.041Z</time></trkpt><trkpt lat="42.3838093" lon="-7.4109591"><ele>602.0</ele><time>2026-04-25T11:29:18.053Z</time></trkpt><trkpt lat="42.383812" lon="-7.4111606"><ele>599.0</ele><time>2026-04-25T11:29:19.05Z</time></trkpt><trkpt lat="42.3838437" lon="-7.4113666"><ele>616.6666666666666</ele><time>2026-04-25T11:29:20.048Z</time></trkpt><trkpt lat="42.3838792" lon="-7.4115791"><ele>634.3333333333334</ele><time>2026-04-25T11:29:21.049Z</time></trkpt><trkpt lat="42.3839431" lon="-7.4117745"><ele>652.0</ele><time>2026-04-25T11:29:22.049Z</time></trkpt><trkpt lat="42.383983" lon="-7.411948"><ele>652.0</ele><time>2026-04-25T11:29:23.049Z</time></trkpt><trkpt lat="42.3840213" lon="-7.4121103"><ele>652.0</ele><time>2026-04-25T11:29:24.046Z</time></trkpt><trkpt lat="42.3840056" lon="-7.4122776"><ele>652.0</ele><time>2026-04-25T11:29:25.047Z</time></trkpt><trkpt lat="42.3839671" lon="-7.4124387"><ele>652.0</ele><time>2026-04-25T11:29:26.054Z</time></trkpt><trkpt lat="42.3839692" lon="-7.412584"><ele>648.2</ele><time>2026-04-25T11:29:27.042Z</time></trkpt><trkpt lat="42.384006" lon="-7.4127033"><ele>644.4000000000001</ele><time>2026-04-25T11:29:28.049Z</time></trkpt><trkpt lat="42.3840721" lon="-7.4127782"><ele>640.5999999999999</ele><time>2026-04-25T11:29:29.05Z</time></trkpt><trkpt lat="42.3841646" lon="-7.4128193"><ele>636.8</ele><time>2026-04-25T11:29:30.044Z</time></trkpt><trkpt lat="42.3842804" lon="-7.412863"><ele>633.0</ele><time>2026-04-25T11:29:31.053Z</time></trkpt><trkpt lat="42.384423" lon="-7.4128867"><ele>633.0</ele><time>2026-04-25T11:29:32.054Z</time></trkpt><trkpt lat="42.3845582" lon="-7.4129092"><ele>633.0</ele><time>2026-04-25T11:29:33.044Z</time></trkpt><trkpt lat="42.3846942" lon="-7.4129522"><ele>633.0</ele><time>2026-04-25T11:29:34.051Z</time></trkpt><trkpt lat="42.3848359" lon="-7.4130033"><ele>633.0</ele><time>2026-04-25T11:29:35.049Z</time></trkpt><trkpt lat="42.3849944" lon="-7.4130506"><ele>632.5</ele><time>2026-04-25T11:29:36.051Z</time></trkpt><trkpt lat="42.3851458" lon="-7.4131119"><ele>632.0</ele><time>2026-04-25T11:29:37.056Z</time></trkpt><trkpt lat="42.3852796" lon="-7.4131965"><ele>631.5</ele><time>2026-04-25T11:29:38.054Z</time></trkpt><trkpt lat="42.385369" lon="-7.4133248"><ele>631.0</ele><time>2026-04-25T11:29:39.049Z</time></trkpt><trkpt lat="42.3854641" lon="-7.4134771"><ele>631.6666666666667</ele><time>2026-04-25T11:29:40.05Z</time></trkpt><trkpt lat="42.3855679" lon="-7.413647"><ele>632.3333333333334</ele><time>2026-04-25T11:29:41.052Z</time></trkpt><trkpt lat="42.3856882" lon="-7.4138167"><ele>633.0</ele><time>2026-04-25T11:29:42.044Z</time></trkpt><trkpt lat="42.3858225" lon="-7.4139981"><ele>633.0</ele><time>2026-04-25T11:29:43.052Z</time></trkpt><trkpt lat="42.3859563" lon="-7.4141946"><ele>633.0</ele><time>2026-04-25T11:29:44.041Z</time></trkpt><trkpt lat="42.3860732" lon="-7.4143856"><ele>633.0</ele><time>2026-04-25T11:29:45.047Z</time></trkpt><trkpt lat="42.3861755" lon="-7.4145726"><ele>635.25</ele><time>2026-04-25T11:29:46.048Z</time></trkpt><trkpt lat="42.3862662" lon="-7.4147509"><ele>637.5</ele><time>2026-04-25T11:29:47.048Z</time></trkpt><trkpt lat="42.3863396" lon="-7.4149125"><ele>639.75</ele><time>2026-04-25T11:29:48.046Z</time></trkpt><trkpt lat="42.3864121" lon="-7.415052"><ele>642.0</ele><time>2026-04-25T11:29:49.05Z</time></trkpt><trkpt lat="42.3864999" lon="-7.4151607"><ele>642.0</ele><time>2026-04-25T11:29:50.055Z</time></trkpt><trkpt lat="42.386613" lon="-7.4152352"><ele>642.0</ele><time>2026-04-25T11:29:51.053Z</time></trkpt><trkpt lat="42.3867429" lon="-7.4152756"><ele>642.0</ele><time>2026-04-25T11:29:52.049Z</time></trkpt><trkpt lat="42.3868714" lon="-7.4152984"><ele>642.0</ele><time>2026-04-25T11:29:53.044Z</time></trkpt><trkpt lat="42.3869847" lon="-7.4153067"><ele>642.0</ele><time>2026-04-25T11:29:54.051Z</time></trkpt><trkpt lat="42.3870811" lon="-7.4153609"><ele>642.0</ele><time>2026-04-25T11:29:55.046Z</time></trkpt><trkpt lat="42.3871542" lon="-7.4154574"><ele>642.0</ele><time>2026-04-25T11:29:56.047Z</time></trkpt><trkpt lat="42.3871848" lon="-7.4156316"><ele>642.0</ele><time>2026-04-25T11:29:57.049Z</time></trkpt><trkpt lat="42.3871849" lon="-7.4158629"><ele>646.0</ele><time>2026-04-25T11:29:58.045Z</time></trkpt><trkpt lat="42.3871772" lon="-7.4161066"><ele>650.0</ele><time>2026-04-25T11:29:59.048Z</time></trkpt><trkpt lat="42.3871998" lon="-7.4163201"><ele>654.0</ele><time>2026-04-25T11:30:00.05Z</time></trkpt><trkpt lat="42.3872196" lon="-7.4165177"><ele>654.0</ele><time>2026-04-25T11:30:01.047Z</time></trkpt><trkpt lat="42.3872208" lon="-7.4167243"><ele>654.0</ele><time>2026-04-25T11:30:02.043Z</time></trkpt><trkpt lat="42.3871944" lon="-7.4169419"><ele>654.0</ele><time>2026-04-25T11:30:03.051Z</time></trkpt><trkpt lat="42.3871505" lon="-7.4171397"><ele>637.3333333333334</ele><time>2026-04-25T11:30:04.043Z</time></trkpt><trkpt lat="42.3870915" lon="-7.4173261"><ele>620.6666666666667</ele><time>2026-04-25T11:30:05.045Z</time></trkpt><trkpt lat="42.3870392" lon="-7.4175148"><ele>604.0</ele><time>2026-04-25T11:30:06.053Z</time></trkpt><trkpt lat="42.3870008" lon="-7.4177232"><ele>604.0</ele><time>2026-04-25T11:30:07.06Z</time></trkpt><trkpt lat="42.3869839" lon="-7.4179217"><ele>604.0</ele><time>2026-04-25T11:30:08.054Z</time></trkpt><trkpt lat="42.3869895" lon="-7.4181003"><ele>604.0</ele><time>2026-04-25T11:30:09.051Z</time></trkpt><trkpt lat="42.3870134" lon="-7.4182601"><ele>604.0</ele><time>2026-04-25T11:30:10.055Z</time></trkpt><trkpt lat="42.3870565" lon="-7.4184152"><ele>605.0</ele><time>2026-04-25T11:30:11.049Z</time></trkpt><trkpt lat="42.3870971" lon="-7.4185471"><ele>606.0</ele><time>2026-04-25T11:30:12.058Z</time></trkpt><trkpt lat="42.387165" lon="-7.4186886"><ele>607.0</ele><time>2026-04-25T11:30:13.05Z</time></trkpt><trkpt lat="42.3872592" lon="-7.4188396"><ele>608.0</ele><time>2026-04-25T11:30:14.044Z</time></trkpt><trkpt lat="42.3873519" lon="-7.4189791"><ele>612.1999999999999</ele><time>2026-04-25T11:30:15.051Z</time></trkpt><trkpt lat="42.3874344" lon="-7.419101"><ele>616.4</ele><time>2026-04-25T11:30:16.05Z</time></trkpt><trkpt lat="42.3875081" lon="-7.4192044"><ele>620.5999999999999</ele><time>2026-04-25T11:30:17.056Z</time></trkpt><trkpt lat="42.3875777" lon="-7.4192881"><ele>624.8</ele><time>2026-04-25T11:30:18.046Z</time></trkpt><trkpt lat="42.3876289" lon="-7.4193557"><ele>629.0</ele><time>2026-04-25T11:30:19.049Z</time></trkpt><trkpt lat="42.3877045" lon="-7.4194477"><ele>629.0</ele><time>2026-04-25T11:30:21.048Z</time></trkpt><trkpt lat="42.3877316" lon="-7.419526"><ele>629.0</ele><time>2026-04-25T11:30:24.067Z</time></trkpt><trkpt lat="42.3876586" lon="-7.419483"><ele>629.0</ele><time>2026-04-25T11:30:26.052Z</time></trkpt><trkpt lat="42.3875938" lon="-7.4194144"><ele>629.0</ele><time>2026-04-25T11:30:27.049Z</time></trkpt><trkpt lat="42.3875032" lon="-7.4193271"><ele>629.0</ele><time>2026-04-25T11:30:28.048Z</time></trkpt><trkpt lat="42.3874082" lon="-7.41925"><ele>629.0</ele><time>2026-04-25T11:30:29.045Z</time></trkpt><trkpt lat="42.3873039" lon="-7.4191778"><ele>629.0</ele><time>2026-04-25T11:30:30.047Z</time></trkpt><trkpt lat="42.3872014" lon="-7.4191086"><ele>629.0</ele><time>2026-04-25T11:30:31.044Z</time></trkpt><trkpt lat="42.3871108" lon="-7.4190412"><ele>629.0</ele><time>2026-04-25T11:30:32.051Z</time></trkpt><trkpt lat="42.3870241" lon="-7.4189762"><ele>629.0</ele><time>2026-04-25T11:30:33.051Z</time></trkpt><trkpt lat="42.3869392" lon="-7.4189161"><ele>629.0</ele><time>2026-04-25T11:30:34.05Z</time></trkpt><trkpt lat="42.3868559" lon="-7.4188604"><ele>625.5</ele><time>2026-04-25T11:30:35.056Z</time></trkpt><trkpt lat="42.3867648" lon="-7.4187742"><ele>622.0</ele><time>2026-04-25T11:30:36.05Z</time></trkpt><trkpt lat="42.3866929" lon="-7.4186911"><ele>618.5</ele><time>2026-04-25T11:30:37.05Z</time></trkpt><trkpt lat="42.3866338" lon="-7.4186035"><ele>615.0</ele><time>2026-04-25T11:30:38.059Z</time></trkpt><trkpt lat="42.3865906" lon="-7.4185118"><ele>611.5</ele><time>2026-04-25T11:30:39.046Z</time></trkpt><trkpt lat="42.3865604" lon="-7.4184297"><ele>608.0</ele><time>2026-04-25T11:30:40.051Z</time></trkpt><trkpt lat="42.3865446" lon="-7.4183455"><ele>608.0</ele><time>2026-04-25T11:30:41.055Z</time></trkpt><trkpt lat="42.3865424" lon="-7.4182263"><ele>608.0</ele><time>2026-04-25T11:30:43.05Z</time></trkpt><trkpt lat="42.3865395" lon="-7.418107"><ele>608.0</ele><time>2026-04-25T11:30:45.041Z</time></trkpt><trkpt lat="42.386542" lon="-7.4179738"><ele>608.0</ele><time>2026-04-25T11:30:47.074Z</time></trkpt><trkpt lat="42.3865614" lon="-7.4178537"><ele>608.0</ele><time>2026-04-25T11:30:49.053Z</time></trkpt><trkpt lat="42.3864877" lon="-7.417793"><ele>607.0</ele><time>2026-04-25T11:30:52.056Z</time></trkpt><trkpt lat="42.3863944" lon="-7.4179467"><ele>606.0</ele><time>2026-04-25T11:30:54.049Z</time></trkpt><trkpt lat="42.3863392" lon="-7.4180801"><ele>605.0</ele><time>2026-04-25T11:30:55.046Z</time></trkpt><trkpt lat="42.3862784" lon="-7.4182057"><ele>604.0</ele><time>2026-04-25T11:30:56.046Z</time></trkpt><trkpt lat="42.3862108" lon="-7.4183324"><ele>596.2</ele><time>2026-04-25T11:30:57.055Z</time></trkpt><trkpt lat="42.3861483" lon="-7.4184452"><ele>588.4</ele><time>2026-04-25T11:30:58.05Z</time></trkpt><trkpt lat="42.3860837" lon="-7.4185508"><ele>580.6</ele><time>2026-04-25T11:30:59.059Z</time></trkpt><trkpt lat="42.3860182" lon="-7.4186665"><ele>572.8</ele><time>2026-04-25T11:31:00.046Z</time></trkpt><trkpt lat="42.3859413" lon="-7.4187691"><ele>565.0</ele><time>2026-04-25T11:31:01.052Z</time></trkpt><trkpt lat="42.3858728" lon="-7.4188548"><ele>565.0</ele><time>2026-04-25T11:31:02.056Z</time></trkpt><trkpt lat="42.3858071" lon="-7.4189407"><ele>565.0</ele><time>2026-04-25T11:31:03.049Z</time></trkpt><trkpt lat="42.3857368" lon="-7.4190087"><ele>565.0</ele><time>2026-04-25T11:31:04.051Z</time></trkpt><trkpt lat="42.3856695" lon="-7.4190514"><ele>565.0</ele><time>2026-04-25T11:31:05.05Z</time></trkpt><trkpt lat="42.3856006" lon="-7.4190799"><ele>565.0</ele><time>2026-04-25T11:31:06.047Z</time></trkpt><trkpt lat="42.3854931" lon="-7.4191271"><ele>565.0</ele><time>2026-04-25T11:31:08.048Z</time></trkpt><trkpt lat="42.3854591" lon="-7.4192173"><ele>565.0</ele><time>2026-04-25T11:31:11.054Z</time></trkpt><trkpt lat="42.3855522" lon="-7.4192892"><ele>565.0</ele><time>2026-04-25T11:31:14.048Z</time></trkpt><trkpt lat="42.3856055" lon="-7.4193361"><ele>565.0</ele><time>2026-04-25T11:31:15.054Z</time></trkpt><trkpt lat="42.3856643" lon="-7.4193938"><ele>565.0</ele><time>2026-04-25T11:31:16.057Z</time></trkpt><trkpt lat="42.385729" lon="-7.4194551"><ele>565.0</ele><time>2026-04-25T11:31:17.049Z</time></trkpt><trkpt lat="42.3857985" lon="-7.4195265"><ele>565.0</ele><time>2026-04-25T11:31:18.052Z</time></trkpt><trkpt lat="42.3858644" lon="-7.4196104"><ele>560.8333333333334</ele><time>2026-04-25T11:31:19.052Z</time></trkpt><trkpt lat="42.3859177" lon="-7.4197072"><ele>556.6666666666667</ele><time>2026-04-25T11:31:20.046Z</time></trkpt><trkpt lat="42.3859607" lon="-7.419812"><ele>552.5</ele><time>2026-04-25T11:31:21.045Z</time></trkpt><trkpt lat="42.3859991" lon="-7.419917"><ele>548.3333333333334</ele><time>2026-04-25T11:31:22.054Z</time></trkpt><trkpt lat="42.3860325" lon="-7.4200125"><ele>544.1666666666666</ele><time>2026-04-25T11:31:23.045Z</time></trkpt><trkpt lat="42.3860626" lon="-7.4200966"><ele>540.0</ele><time>2026-04-25T11:31:24.053Z</time></trkpt><trkpt lat="42.3860945" lon="-7.4201938"><ele>540.0</ele><time>2026-04-25T11:31:25.05Z</time></trkpt><trkpt lat="42.3861373" lon="-7.420284"><ele>540.0</ele><time>2026-04-25T11:31:26.049Z</time></trkpt><trkpt lat="42.3861799" lon="-7.4203547"><ele>540.0</ele><time>2026-04-25T11:31:27.044Z</time></trkpt><trkpt lat="42.3862287" lon="-7.4204199"><ele>540.0</ele><time>2026-04-25T11:31:28.05Z</time></trkpt><trkpt lat="42.3862818" lon="-7.4204907"><ele>540.0</ele><time>2026-04-25T11:31:29.048Z</time></trkpt><trkpt lat="42.3863367" lon="-7.4205741"><ele>540.0</ele><time>2026-04-25T11:31:30.049Z</time></trkpt><trkpt lat="42.3863944" lon="-7.4206608"><ele>541.3333333333334</ele><time>2026-04-25T11:31:31.047Z</time></trkpt><trkpt lat="42.3864528" lon="-7.4207387"><ele>542.6666666666666</ele><time>2026-04-25T11:31:32.056Z</time></trkpt><trkpt lat="42.3865168" lon="-7.4208047"><ele>544.0</ele><time>2026-04-25T11:31:33.066Z</time></trkpt><trkpt lat="42.3865755" lon="-7.4208689"><ele>545.3333333333333</ele><time>2026-04-25T11:31:34.049Z</time></trkpt><trkpt lat="42.3866332" lon="-7.4209388"><ele>546.6666666666666</ele><time>2026-04-25T11:31:35.068Z</time></trkpt><trkpt lat="42.3866762" lon="-7.4210406"><ele>548.0</ele><time>2026-04-25T11:31:36.051Z</time></trkpt><trkpt lat="42.3867026" lon="-7.4211737"><ele>548.0</ele><time>2026-04-25T11:31:37.05Z</time></trkpt><trkpt lat="42.3867239" lon="-7.4213065"><ele>548.0</ele><time>2026-04-25T11:31:38.057Z</time></trkpt><trkpt lat="42.3867423" lon="-7.4214318"><ele>548.0</ele><time>2026-04-25T11:31:39.05Z</time></trkpt><trkpt lat="42.386772" lon="-7.4215496"><ele>548.0</ele><time>2026-04-25T11:31:40.047Z</time></trkpt><trkpt lat="42.3867983" lon="-7.421654"><ele>548.0</ele><time>2026-04-25T11:31:41.051Z</time></trkpt><trkpt lat="42.3868117" lon="-7.4217557"><ele>548.0</ele><time>2026-04-25T11:31:42.051Z</time></trkpt><trkpt lat="42.386823" lon="-7.4218863"><ele>545.8333333333333</ele><time>2026-04-25T11:31:43.048Z</time></trkpt><trkpt lat="42.3868289" lon="-7.4220097"><ele>543.6666666666666</ele><time>2026-04-25T11:31:44.056Z</time></trkpt><trkpt lat="42.3868321" lon="-7.4221229"><ele>541.5</ele><time>2026-04-25T11:31:45.043Z</time></trkpt><trkpt lat="42.386831" lon="-7.4222272"><ele>539.3333333333334</ele><time>2026-04-25T11:31:46.056Z</time></trkpt><trkpt lat="42.3868277" lon="-7.4223346"><ele>537.1666666666667</ele><time>2026-04-25T11:31:47.062Z</time></trkpt><trkpt lat="42.3868261" lon="-7.4224498"><ele>535.0</ele><time>2026-04-25T11:31:48.049Z</time></trkpt><trkpt lat="42.3868274" lon="-7.4225463"><ele>534.0</ele><time>2026-04-25T11:31:49.044Z</time></trkpt><trkpt lat="42.3868552" lon="-7.4226528"><ele>533.0</ele><time>2026-04-25T11:31:50.054Z</time></trkpt><trkpt lat="42.3868893" lon="-7.4227651"><ele>532.0</ele><time>2026-04-25T11:31:51.049Z</time></trkpt><trkpt lat="42.3869249" lon="-7.4228804"><ele>531.0</ele><time>2026-04-25T11:31:52.049Z</time></trkpt><trkpt lat="42.386959" lon="-7.4229979"><ele>530.0</ele><time>2026-04-25T11:31:53.053Z</time></trkpt><trkpt lat="42.3869908" lon="-7.4231037"><ele>529.0</ele><time>2026-04-25T11:31:54.051Z</time></trkpt><trkpt lat="42.3870196" lon="-7.4231986"><ele>527.4285714285714</ele><time>2026-04-25T11:31:55.049Z</time></trkpt><trkpt lat="42.3870472" lon="-7.4232873"><ele>525.8571428571429</ele><time>2026-04-25T11:31:56.052Z</time></trkpt><trkpt lat="42.3870669" lon="-7.4233799"><ele>524.2857142857142</ele><time>2026-04-25T11:31:57.048Z</time></trkpt><trkpt lat="42.3870866" lon="-7.4234753"><ele>522.7142857142858</ele><time>2026-04-25T11:31:58.046Z</time></trkpt><trkpt lat="42.387089" lon="-7.4235693"><ele>521.1428571428571</ele><time>2026-04-25T11:31:59.045Z</time></trkpt><trkpt lat="42.3871009" lon="-7.4236638"><ele>519.5714285714286</ele><time>2026-04-25T11:32:00.048Z</time></trkpt><trkpt lat="42.3871149" lon="-7.4237649"><ele>518.0</ele><time>2026-04-25T11:32:01.049Z</time></trkpt><trkpt lat="42.3871306" lon="-7.4238704"><ele>516.0</ele><time>2026-04-25T11:32:02.054Z</time></trkpt><trkpt lat="42.3871566" lon="-7.4239708"><ele>514.0</ele><time>2026-04-25T11:32:03.048Z</time></trkpt><trkpt lat="42.3872012" lon="-7.4240699"><ele>511.99999999999994</ele><time>2026-04-25T11:32:04.05Z</time></trkpt><trkpt lat="42.3872664" lon="-7.4241853"><ele>510.0</ele><time>2026-04-25T11:32:05.058Z</time></trkpt><trkpt lat="42.3873248" lon="-7.424292"><ele>508.0</ele><time>2026-04-25T11:32:06.059Z</time></trkpt><trkpt lat="42.3873722" lon="-7.4243955"><ele>512.8333333333334</ele><time>2026-04-25T11:32:07.063Z</time></trkpt><trkpt lat="42.3874095" lon="-7.4245084"><ele>517.6666666666667</ele><time>2026-04-25T11:32:08.052Z</time></trkpt><trkpt lat="42.3874292" lon="-7.4246326"><ele>522.5</ele><time>2026-04-25T11:32:09.049Z</time></trkpt><trkpt lat="42.3874331" lon="-7.4247468"><ele>527.3333333333334</ele><time>2026-04-25T11:32:10.052Z</time></trkpt><trkpt lat="42.3874352" lon="-7.4248516"><ele>532.1666666666666</ele><time>2026-04-25T11:32:11.052Z</time></trkpt><trkpt lat="42.3874401" lon="-7.424947"><ele>537.0</ele><time>2026-04-25T11:32:12.054Z</time></trkpt><trkpt lat="42.3874564" lon="-7.4250334"><ele>537.0</ele><time>2026-04-25T11:32:13.047Z</time></trkpt><trkpt lat="42.3875354" lon="-7.4251784"><ele>537.0</ele><time>2026-04-25T11:32:15.055Z</time></trkpt><trkpt lat="42.38761" lon="-7.4252623"><ele>537.0</ele><time>2026-04-25T11:32:16.047Z</time></trkpt><trkpt lat="42.3876744" lon="-7.4253573"><ele>537.0</ele><time>2026-04-25T11:32:17.049Z</time></trkpt><trkpt lat="42.3877233" lon="-7.4254613"><ele>537.0</ele><time>2026-04-25T11:32:18.049Z</time></trkpt><trkpt lat="42.3877671" lon="-7.4255691"><ele>534.2</ele><time>2026-04-25T11:32:19.046Z</time></trkpt><trkpt lat="42.3878098" lon="-7.4256776"><ele>531.4000000000001</ele><time>2026-04-25T11:32:20.056Z</time></trkpt><trkpt lat="42.387853" lon="-7.4257874"><ele>528.5999999999999</ele><time>2026-04-25T11:32:21.046Z</time></trkpt><trkpt lat="42.3878831" lon="-7.4259067"><ele>525.8</ele><time>2026-04-25T11:32:22.053Z</time></trkpt><trkpt lat="42.3878925" lon="-7.4260357"><ele>523.0</ele><time>2026-04-25T11:32:23.047Z</time></trkpt><trkpt lat="42.3878826" lon="-7.4261774"><ele>522.6</ele><time>2026-04-25T11:32:24.049Z</time></trkpt><trkpt lat="42.3878713" lon="-7.4263231"><ele>522.1999999999999</ele><time>2026-04-25T11:32:25.055Z</time></trkpt><trkpt lat="42.3878585" lon="-7.4264556"><ele>521.8</ele><time>2026-04-25T11:32:26.054Z</time></trkpt><trkpt lat="42.3878534" lon="-7.4265757"><ele>521.4</ele><time>2026-04-25T11:32:27.057Z</time></trkpt><trkpt lat="42.3878523" lon="-7.4266886"><ele>521.0</ele><time>2026-04-25T11:32:28.05Z</time></trkpt><trkpt lat="42.3878571" lon="-7.4267838"><ele>521.0</ele><time>2026-04-25T11:32:29.053Z</time></trkpt><trkpt lat="42.3879044" lon="-7.4269274"><ele>521.0</ele><time>2026-04-25T11:32:31.058Z</time></trkpt><trkpt lat="42.3879604" lon="-7.4269958"><ele>521.0</ele><time>2026-04-25T11:32:32.052Z</time></trkpt><trkpt lat="42.3880263" lon="-7.4270465"><ele>521.0</ele><time>2026-04-25T11:32:33.049Z</time></trkpt><trkpt lat="42.3881015" lon="-7.427087"><ele>521.0</ele><time>2026-04-25T11:32:34.05Z</time></trkpt><trkpt lat="42.3881719" lon="-7.4271283"><ele>521.0</ele><time>2026-04-25T11:32:35.051Z</time></trkpt><trkpt lat="42.3882344" lon="-7.4271829"><ele>524.5</ele><time>2026-04-25T11:32:36.056Z</time></trkpt><trkpt lat="42.3882848" lon="-7.4272508"><ele>528.0</ele><time>2026-04-25T11:32:37.05Z</time></trkpt><trkpt lat="42.3883304" lon="-7.4273456"><ele>531.5</ele><time>2026-04-25T11:32:38.047Z</time></trkpt><trkpt lat="42.3883737" lon="-7.427467"><ele>535.0</ele><time>2026-04-25T11:32:39.046Z</time></trkpt><trkpt lat="42.388408" lon="-7.4275885"><ele>538.5</ele><time>2026-04-25T11:32:40.054Z</time></trkpt><trkpt lat="42.3884246" lon="-7.4277061"><ele>542.0</ele><time>2026-04-25T11:32:41.051Z</time></trkpt><trkpt lat="42.3884223" lon="-7.4278349"><ele>542.0</ele><time>2026-04-25T11:32:42.048Z</time></trkpt><trkpt lat="42.3884167" lon="-7.4279764"><ele>542.0</ele><time>2026-04-25T11:32:43.044Z</time></trkpt><trkpt lat="42.3884148" lon="-7.4281186"><ele>542.0</ele><time>2026-04-25T11:32:44.052Z</time></trkpt><trkpt lat="42.3884092" lon="-7.4282625"><ele>542.0</ele><time>2026-04-25T11:32:45.053Z</time></trkpt><trkpt lat="42.3884293" lon="-7.4284163"><ele>542.0</ele><time>2026-04-25T11:32:46.056Z</time></trkpt><trkpt lat="42.3884488" lon="-7.4285767"><ele>540.8333333333333</ele><time>2026-04-25T11:32:47.06Z</time></trkpt><trkpt lat="42.3884675" lon="-7.4287107"><ele>539.6666666666666</ele><time>2026-04-25T11:32:48.049Z</time></trkpt><trkpt lat="42.3884872" lon="-7.428825"><ele>538.5</ele><time>2026-04-25T11:32:49.05Z</time></trkpt><trkpt lat="42.3885018" lon="-7.4289363"><ele>537.3333333333334</ele><time>2026-04-25T11:32:50.044Z</time></trkpt><trkpt lat="42.3885161" lon="-7.429049"><ele>536.1666666666667</ele><time>2026-04-25T11:32:51.056Z</time></trkpt><trkpt lat="42.3885356" lon="-7.4291691"><ele>535.0</ele><time>2026-04-25T11:32:52.048Z</time></trkpt><trkpt lat="42.3885652" lon="-7.4292656"><ele>534.0</ele><time>2026-04-25T11:32:53.047Z</time></trkpt><trkpt lat="42.3886066" lon="-7.4293688"><ele>533.0</ele><time>2026-04-25T11:32:54.05Z</time></trkpt><trkpt lat="42.3886566" lon="-7.4294693"><ele>532.0</ele><time>2026-04-25T11:32:55.056Z</time></trkpt><trkpt lat="42.3887087" lon="-7.4295401"><ele>531.0</ele><time>2026-04-25T11:32:56.055Z</time></trkpt><trkpt lat="42.3887754" lon="-7.4295923"><ele>530.0</ele><time>2026-04-25T11:32:58.067Z</time></trkpt><trkpt lat="42.3888074" lon="-7.4297106"><ele>529.0</ele><time>2026-04-25T11:33:16.058Z</time></trkpt><trkpt lat="42.3887949" lon="-7.4298488"><ele>528.0</ele><time>2026-04-25T11:33:18.051Z</time></trkpt><trkpt lat="42.3888025" lon="-7.4300061"><ele>527.0</ele><time>2026-04-25T11:33:20.057Z</time></trkpt><trkpt lat="42.3888078" lon="-7.4300927"><ele>526.0</ele><time>2026-04-25T11:33:21.058Z</time></trkpt><trkpt lat="42.3887856" lon="-7.4302519"><ele>525.0</ele><time>2026-04-25T11:33:23.052Z</time></trkpt><trkpt lat="42.388732" lon="-7.4304034"><ele>524.0</ele><time>2026-04-25T11:33:25.054Z</time></trkpt><trkpt lat="42.3886923" lon="-7.4305218"><ele>524.8571428571429</ele><time>2026-04-25T11:33:27.054Z</time></trkpt><trkpt lat="42.38874" lon="-7.4305836"><ele>525.7142857142858</ele><time>2026-04-25T11:33:29.053Z</time></trkpt><trkpt lat="42.3888237" lon="-7.4305043"><ele>526.5714285714286</ele><time>2026-04-25T11:33:31.052Z</time></trkpt><trkpt lat="42.3888727" lon="-7.4304435"><ele>527.4285714285714</ele><time>2026-04-25T11:33:32.054Z</time></trkpt><trkpt lat="42.3889289" lon="-7.4303826"><ele>528.2857142857142</ele><time>2026-04-25T11:33:33.066Z</time></trkpt><trkpt lat="42.3889878" lon="-7.4303223"><ele>529.1428571428571</ele><time>2026-04-25T11:33:34.049Z</time></trkpt><trkpt lat="42.3890331" lon="-7.4302525"><ele>530.0</ele><time>2026-04-25T11:33:35.052Z</time></trkpt><trkpt lat="42.3890784" lon="-7.4301713"><ele>530.0</ele><time>2026-04-25T11:33:36.056Z</time></trkpt><trkpt lat="42.3891266" lon="-7.4300668"><ele>530.0</ele><time>2026-04-25T11:33:37.048Z</time></trkpt><trkpt lat="42.3891616" lon="-7.4299856"><ele>530.0</ele><time>2026-04-25T11:33:38.048Z</time></trkpt><trkpt lat="42.3892109" lon="-7.4298859"><ele>530.0</ele><time>2026-04-25T11:33:40.05Z</time></trkpt><trkpt lat="42.3892835" lon="-7.4299021"><ele>530.0</ele><time>2026-04-25T11:33:45.048Z</time></trkpt><trkpt lat="42.3892423" lon="-7.4300452"><ele>530.0</ele><time>2026-04-25T11:33:47.064Z</time></trkpt><trkpt lat="42.3892224" lon="-7.4301599"><ele>530.0</ele><time>2026-04-25T11:33:48.046Z</time></trkpt><trkpt lat="42.3892055" lon="-7.4302868"><ele>530.0</ele><time>2026-04-25T11:33:49.046Z</time></trkpt><trkpt lat="42.3891871" lon="-7.4303928"><ele>530.0</ele><time>2026-04-25T11:33:50.053Z</time></trkpt><trkpt lat="42.3891658" lon="-7.4304787"><ele>530.0</ele><time>2026-04-25T11:33:51.046Z</time></trkpt><trkpt lat="42.3891168" lon="-7.4305998"><ele>530.0</ele><time>2026-04-25T11:33:53.053Z</time></trkpt><trkpt lat="42.3890835" lon="-7.4307019"><ele>530.0</ele><time>2026-04-25T11:33:55.054Z</time></trkpt><trkpt lat="42.3891287" lon="-7.4306048"><ele>530.0</ele><time>2026-04-25T11:34:09.057Z</time></trkpt><trkpt lat="42.3891938" lon="-7.4304655"><ele>530.0</ele><time>2026-04-25T11:34:11.05Z</time></trkpt><trkpt lat="42.3892375" lon="-7.4303482"><ele>530.0</ele><time>2026-04-25T11:34:13.047Z</time></trkpt><trkpt lat="42.3892595" lon="-7.4302428"><ele>530.0</ele><time>2026-04-25T11:34:15.052Z</time></trkpt><trkpt lat="42.3892734" lon="-7.4301144"><ele>530.0</ele><time>2026-04-25T11:34:17.054Z</time></trkpt><trkpt lat="42.3892975" lon="-7.4300005"><ele>530.0</ele><time>2026-04-25T11:34:19.046Z</time></trkpt><trkpt lat="42.3892877" lon="-7.4298878"><ele>530.0</ele><time>2026-04-25T11:34:21.047Z</time></trkpt><trkpt lat="42.3893299" lon="-7.4298016"><ele>530.0</ele><time>2026-04-25T11:34:23.05Z</time></trkpt><trkpt lat="42.3894026" lon="-7.4297434"><ele>530.0</ele><time>2026-04-25T11:34:25.053Z</time></trkpt><trkpt lat="42.3894699" lon="-7.4297216"><ele>530.0</ele><time>2026-04-25T11:34:27.06Z</time></trkpt><trkpt lat="42.3895273" lon="-7.429817"><ele>530.0</ele><time>2026-04-25T11:34:29.044Z</time></trkpt><trkpt lat="42.3895611" lon="-7.4299202"><ele>530.0</ele><time>2026-04-25T11:34:30.056Z</time></trkpt><trkpt lat="42.38959" lon="-7.4300306"><ele>530.0</ele><time>2026-04-25T11:34:31.054Z</time></trkpt><trkpt lat="42.3896077" lon="-7.4301373"><ele>530.0</ele><time>2026-04-25T11:34:32.048Z</time></trkpt><trkpt lat="42.389621" lon="-7.4302468"><ele>530.0</ele><time>2026-04-25T11:34:33.052Z</time></trkpt><trkpt lat="42.3896439" lon="-7.4303388"><ele>530.0</ele><time>2026-04-25T11:34:34.048Z</time></trkpt><trkpt lat="42.3896748" lon="-7.4304263"><ele>530.0</ele><time>2026-04-25T11:34:35.049Z</time></trkpt><trkpt lat="42.3897077" lon="-7.4305031"><ele>530.5</ele><time>2026-04-25T11:34:36.052Z</time></trkpt><trkpt lat="42.3897551" lon="-7.4306585"><ele>531.0</ele><time>2026-04-25T11:34:38.048Z</time></trkpt><trkpt lat="42.3897726" lon="-7.4307508"><ele>531.5</ele><time>2026-04-25T11:34:39.051Z</time></trkpt><trkpt lat="42.3897917" lon="-7.4308533"><ele>532.0</ele><time>2026-04-25T11:34:40.06Z</time></trkpt><trkpt lat="42.389811" lon="-7.4309578"><ele>532.5</ele><time>2026-04-25T11:34:41.054Z</time></trkpt><trkpt lat="42.3898456" lon="-7.4310558"><ele>533.0</ele><time>2026-04-25T11:34:42.057Z</time></trkpt><trkpt lat="42.3898769" lon="-7.4311709"><ele>531.4</ele><time>2026-04-25T11:34:43.054Z</time></trkpt><trkpt lat="42.3899082" lon="-7.4313089"><ele>529.8</ele><time>2026-04-25T11:34:44.047Z</time></trkpt><trkpt lat="42.3899317" lon="-7.4314403"><ele>528.2</ele><time>2026-04-25T11:34:45.053Z</time></trkpt><trkpt lat="42.3899581" lon="-7.4315627"><ele>526.6</ele><time>2026-04-25T11:34:46.049Z</time></trkpt><trkpt lat="42.3899788" lon="-7.4316641"><ele>525.0</ele><time>2026-04-25T11:34:47.046Z</time></trkpt><trkpt lat="42.3900008" lon="-7.4317816"><ele>525.0</ele><time>2026-04-25T11:34:48.046Z</time></trkpt><trkpt lat="42.390023" lon="-7.4319038"><ele>525.0</ele><time>2026-04-25T11:34:49.051Z</time></trkpt><trkpt lat="42.3900413" lon="-7.4320193"><ele>525.0</ele><time>2026-04-25T11:34:50.054Z</time></trkpt><trkpt lat="42.3900564" lon="-7.4321271"><ele>525.0</ele><time>2026-04-25T11:34:51.057Z</time></trkpt><trkpt lat="42.3900731" lon="-7.4322269"><ele>525.0</ele><time>2026-04-25T11:34:52.05Z</time></trkpt><trkpt lat="42.3900904" lon="-7.4323221"><ele>525.0</ele><time>2026-04-25T11:34:53.056Z</time></trkpt><trkpt lat="42.3901126" lon="-7.4324049"><ele>525.4285714285714</ele><time>2026-04-25T11:34:54.052Z</time></trkpt><trkpt lat="42.3901448" lon="-7.4324797"><ele>525.8571428571429</ele><time>2026-04-25T11:34:55.05Z</time></trkpt><trkpt lat="42.3901907" lon="-7.4325444"><ele>526.2857142857142</ele><time>2026-04-25T11:34:56.054Z</time></trkpt><trkpt lat="42.3902533" lon="-7.4325972"><ele>526.7142857142858</ele><time>2026-04-25T11:34:57.059Z</time></trkpt><trkpt lat="42.3903247" lon="-7.4326379"><ele>527.1428571428571</ele><time>2026-04-25T11:34:58.053Z</time></trkpt><trkpt lat="42.390402" lon="-7.4326745"><ele>527.5714285714286</ele><time>2026-04-25T11:34:59.053Z</time></trkpt><trkpt lat="42.3904837" lon="-7.4327094"><ele>528.0</ele><time>2026-04-25T11:35:00.051Z</time></trkpt><trkpt lat="42.3905729" lon="-7.4327352"><ele>528.0</ele><time>2026-04-25T11:35:01.061Z</time></trkpt><trkpt lat="42.3906711" lon="-7.4327601"><ele>528.0</ele><time>2026-04-25T11:35:02.065Z</time></trkpt><trkpt lat="42.3907731" lon="-7.4327872"><ele>528.0</ele><time>2026-04-25T11:35:03.054Z</time></trkpt><trkpt lat="42.3908682" lon="-7.4328124"><ele>528.0</ele><time>2026-04-25T11:35:04.062Z</time></trkpt><trkpt lat="42.3909568" lon="-7.4328388"><ele>528.0</ele><time>2026-04-25T11:35:05.057Z</time></trkpt><trkpt lat="42.3910429" lon="-7.4328647"><ele>528.0</ele><time>2026-04-25T11:35:06.052Z</time></trkpt><trkpt lat="42.3911288" lon="-7.4328941"><ele>528.0</ele><time>2026-04-25T11:35:07.055Z</time></trkpt><trkpt lat="42.3912118" lon="-7.4329193"><ele>528.0</ele><time>2026-04-25T11:35:08.051Z</time></trkpt><trkpt lat="42.391292" lon="-7.4329333"><ele>528.0</ele><time>2026-04-25T11:35:09.06Z</time></trkpt><trkpt lat="42.3913676" lon="-7.4329435"><ele>528.0</ele><time>2026-04-25T11:35:10.058Z</time></trkpt><trkpt lat="42.3914384" lon="-7.4329057"><ele>528.0</ele><time>2026-04-25T11:35:11.051Z</time></trkpt><trkpt lat="42.3914977" lon="-7.4328375"><ele>528.0</ele><time>2026-04-25T11:35:12.053Z</time></trkpt><trkpt lat="42.3915529" lon="-7.4327471"><ele>528.0</ele><time>2026-04-25T11:35:13.051Z</time></trkpt><trkpt lat="42.3916002" lon="-7.4326446"><ele>528.0</ele><time>2026-04-25T11:35:14.063Z</time></trkpt><trkpt lat="42.3916493" lon="-7.4325381"><ele>528.0</ele><time>2026-04-25T11:35:15.058Z</time></trkpt><trkpt lat="42.3916844" lon="-7.4324216"><ele>528.0</ele><time>2026-04-25T11:35:16.056Z</time></trkpt><trkpt lat="42.3917202" lon="-7.432311"><ele>528.0</ele><time>2026-04-25T11:35:17.055Z</time></trkpt><trkpt lat="42.3917512" lon="-7.4322007"><ele>528.0</ele><time>2026-04-25T11:35:18.054Z</time></trkpt><trkpt lat="42.3917668" lon="-7.4320908"><ele>528.0</ele><time>2026-04-25T11:35:19.046Z</time></trkpt><trkpt lat="42.3917639" lon="-7.4319692"><ele>528.0</ele><time>2026-04-25T11:35:20.048Z</time></trkpt><trkpt lat="42.3917603" lon="-7.4318571"><ele>528.0</ele><time>2026-04-25T11:35:21.053Z</time></trkpt><trkpt lat="42.3917675" lon="-7.4317356"><ele>528.0</ele><time>2026-04-25T11:35:22.054Z</time></trkpt><trkpt lat="42.391768" lon="-7.4316256"><ele>530.1666666666666</ele><time>2026-04-25T11:35:23.051Z</time></trkpt><trkpt lat="42.391748" lon="-7.4315234"><ele>532.3333333333334</ele><time>2026-04-25T11:35:24.051Z</time></trkpt><trkpt lat="42.3917322" lon="-7.43143"><ele>534.5</ele><time>2026-04-25T11:35:25.051Z</time></trkpt><trkpt lat="42.3916933" lon="-7.4313569"><ele>536.6666666666667</ele><time>2026-04-25T11:35:26.053Z</time></trkpt><trkpt lat="42.3916313" lon="-7.4313085"><ele>538.8333333333334</ele><time>2026-04-25T11:35:27.057Z</time></trkpt><trkpt lat="42.3915459" lon="-7.431274"><ele>541.0</ele><time>2026-04-25T11:35:28.051Z</time></trkpt><trkpt lat="42.3914491" lon="-7.4312323"><ele>543.4</ele><time>2026-04-25T11:35:29.052Z</time></trkpt><trkpt lat="42.3913661" lon="-7.4312001"><ele>545.8</ele><time>2026-04-25T11:35:30.053Z</time></trkpt><trkpt lat="42.3912858" lon="-7.4311686"><ele>548.1999999999999</ele><time>2026-04-25T11:35:31.057Z</time></trkpt><trkpt lat="42.3912306" lon="-7.431124"><ele>550.6</ele><time>2026-04-25T11:35:32.057Z</time></trkpt><trkpt lat="42.3911621" lon="-7.4309816"><ele>553.0</ele><time>2026-04-25T11:35:34.052Z</time></trkpt><trkpt lat="42.3911481" lon="-7.430855"><ele>553.0</ele><time>2026-04-25T11:35:35.055Z</time></trkpt><trkpt lat="42.3911286" lon="-7.4307009"><ele>553.0</ele><time>2026-04-25T11:35:36.059Z</time></trkpt><trkpt lat="42.3911114" lon="-7.4305331"><ele>553.0</ele><time>2026-04-25T11:35:37.057Z</time></trkpt><trkpt lat="42.3911009" lon="-7.4303759"><ele>553.0</ele><time>2026-04-25T11:35:38.051Z</time></trkpt><trkpt lat="42.3910905" lon="-7.4302299"><ele>554.1666666666667</ele><time>2026-04-25T11:35:39.058Z</time></trkpt><trkpt lat="42.3910769" lon="-7.4301165"><ele>555.3333333333334</ele><time>2026-04-25T11:35:40.056Z</time></trkpt><trkpt lat="42.3910681" lon="-7.4300301"><ele>556.5</ele><time>2026-04-25T11:35:41.055Z</time></trkpt><trkpt lat="42.391067" lon="-7.4299376"><ele>557.6666666666666</ele><time>2026-04-25T11:35:44.057Z</time></trkpt><trkpt lat="42.391063" lon="-7.4300238"><ele>558.8333333333333</ele><time>2026-04-25T11:36:17.067Z</time></trkpt><trkpt lat="42.3910788" lon="-7.4301372"><ele>560.0</ele><time>2026-04-25T11:36:18.052Z</time></trkpt><trkpt lat="42.3910913" lon="-7.4302696"><ele>560.0</ele><time>2026-04-25T11:36:19.056Z</time></trkpt><trkpt lat="42.3911041" lon="-7.4303946"><ele>560.0</ele><time>2026-04-25T11:36:20.057Z</time></trkpt><trkpt lat="42.3911186" lon="-7.430516"><ele>560.0</ele><time>2026-04-25T11:36:21.052Z</time></trkpt><trkpt lat="42.3911311" lon="-7.43063"><ele>560.0</ele><time>2026-04-25T11:36:22.054Z</time></trkpt><trkpt lat="42.391143" lon="-7.4307428"><ele>560.0</ele><time>2026-04-25T11:36:23.055Z</time></trkpt><trkpt lat="42.3911586" lon="-7.4308529"><ele>560.0</ele><time>2026-04-25T11:36:24.053Z</time></trkpt><trkpt lat="42.3911736" lon="-7.4309581"><ele>558.8333333333333</ele><time>2026-04-25T11:36:25.053Z</time></trkpt><trkpt lat="42.391187" lon="-7.4310426"><ele>557.6666666666666</ele><time>2026-04-25T11:36:26.054Z</time></trkpt><trkpt lat="42.3912584" lon="-7.431153"><ele>556.5</ele><time>2026-04-25T11:36:28.05Z</time></trkpt><trkpt lat="42.3913307" lon="-7.431186"><ele>555.3333333333334</ele><time>2026-04-25T11:36:29.049Z</time></trkpt><trkpt lat="42.3914101" lon="-7.4312239"><ele>554.1666666666667</ele><time>2026-04-25T11:36:30.056Z</time></trkpt><trkpt lat="42.3914875" lon="-7.4312591"><ele>553.0</ele><time>2026-04-25T11:36:31.063Z</time></trkpt><trkpt lat="42.3915571" lon="-7.4312852"><ele>551.0</ele><time>2026-04-25T11:36:32.055Z</time></trkpt><trkpt lat="42.3916245" lon="-7.4313129"><ele>549.0</ele><time>2026-04-25T11:36:33.05Z</time></trkpt><trkpt lat="42.3916834" lon="-7.4313607"><ele>547.0</ele><time>2026-04-25T11:36:34.057Z</time></trkpt><trkpt lat="42.3917246" lon="-7.4314336"><ele>545.0</ele><time>2026-04-25T11:36:35.057Z</time></trkpt><trkpt lat="42.3917498" lon="-7.4315127"><ele>543.0</ele><time>2026-04-25T11:36:36.05Z</time></trkpt><trkpt lat="42.3917739" lon="-7.4315916"><ele>541.0</ele><time>2026-04-25T11:36:37.047Z</time></trkpt><trkpt lat="42.3917727" lon="-7.4317728"><ele>541.0</ele><time>2026-04-25T11:36:39.06Z</time></trkpt><trkpt lat="42.3917666" lon="-7.4318584"><ele>541.0</ele><time>2026-04-25T11:36:40.053Z</time></trkpt><trkpt lat="42.3917776" lon="-7.4319588"><ele>541.0</ele><time>2026-04-25T11:36:41.053Z</time></trkpt><trkpt lat="42.3917785" lon="-7.4320639"><ele>541.0</ele><time>2026-04-25T11:36:42.051Z</time></trkpt><trkpt lat="42.3917635" lon="-7.4321682"><ele>541.0</ele><time>2026-04-25T11:36:43.053Z</time></trkpt><trkpt lat="42.3917342" lon="-7.4322731"><ele>541.0</ele><time>2026-04-25T11:36:44.051Z</time></trkpt><trkpt lat="42.391698" lon="-7.4323796"><ele>538.4</ele><time>2026-04-25T11:36:45.047Z</time></trkpt><trkpt lat="42.3916645" lon="-7.4324772"><ele>535.8</ele><time>2026-04-25T11:36:46.05Z</time></trkpt><trkpt lat="42.3916358" lon="-7.4325545"><ele>533.1999999999999</ele><time>2026-04-25T11:36:47.057Z</time></trkpt><trkpt lat="42.391592" lon="-7.4326608"><ele>530.6</ele><time>2026-04-25T11:36:49.062Z</time></trkpt><trkpt lat="42.3916606" lon="-7.4327339"><ele>528.0</ele><time>2026-04-25T11:36:53.054Z</time></trkpt><trkpt lat="42.3918082" lon="-7.4327545"><ele>528.0</ele><time>2026-04-25T11:36:56.052Z</time></trkpt><trkpt lat="42.3919241" lon="-7.4327631"><ele>528.0</ele><time>2026-04-25T11:36:58.052Z</time></trkpt><trkpt lat="42.3920103" lon="-7.4327666"><ele>528.0</ele><time>2026-04-25T11:37:00.067Z</time></trkpt><trkpt lat="42.3920826" lon="-7.4327455"><ele>528.0</ele><time>2026-04-25T11:37:02.052Z</time></trkpt><trkpt lat="42.392144" lon="-7.4326889"><ele>528.0</ele><time>2026-04-25T11:37:04.054Z</time></trkpt><trkpt lat="42.3921405" lon="-7.4327777"><ele>528.0</ele><time>2026-04-25T11:37:12.101Z</time></trkpt><trkpt lat="42.3921154" lon="-7.4328785"><ele>524.8333333333334</ele><time>2026-04-25T11:37:14.12Z</time></trkpt><trkpt lat="42.3920839" lon="-7.4329822"><ele>521.6666666666666</ele><time>2026-04-25T11:37:16.08Z</time></trkpt><trkpt lat="42.3920876" lon="-7.4330742"><ele>518.5</ele><time>2026-04-25T11:37:18.06Z</time></trkpt><trkpt lat="42.3920472" lon="-7.4331954"><ele>515.3333333333333</ele><time>2026-04-25T11:37:22.142Z</time></trkpt><trkpt lat="42.392056" lon="-7.4332846"><ele>512.1666666666666</ele><time>2026-04-25T11:37:37.103Z</time></trkpt><trkpt lat="42.3919567" lon="-7.4333838"><ele>509.0</ele><time>2026-04-25T11:37:42.063Z</time></trkpt><trkpt lat="42.3919997" lon="-7.4332677"><ele>509.0</ele><time>2026-04-25T11:38:05.05Z</time></trkpt><trkpt lat="42.392055" lon="-7.4331476"><ele>509.0</ele><time>2026-04-25T11:38:07.056Z</time></trkpt><trkpt lat="42.3921021" lon="-7.4330499"><ele>509.0</ele><time>2026-04-25T11:38:09.053Z</time></trkpt><trkpt lat="42.3921449" lon="-7.4329354"><ele>509.0</ele><time>2026-04-25T11:38:11.053Z</time></trkpt><trkpt lat="42.3921659" lon="-7.432842"><ele>509.0</ele><time>2026-04-25T11:38:12.056Z</time></trkpt><trkpt lat="42.3922042" lon="-7.432713"><ele>509.0</ele><time>2026-04-25T11:38:14.048Z</time></trkpt><trkpt lat="42.3922228" lon="-7.4326253"><ele>509.0</ele><time>2026-04-25T11:38:17.051Z</time></trkpt><trkpt lat="42.392204" lon="-7.4327753"><ele>509.0</ele><time>2026-04-25T11:38:59.056Z</time></trkpt><trkpt lat="42.392163" lon="-7.4329329"><ele>509.0</ele><time>2026-04-25T11:39:01.06Z</time></trkpt><trkpt lat="42.3921244" lon="-7.4330549"><ele>509.0</ele><time>2026-04-25T11:39:03.055Z</time></trkpt><trkpt lat="42.3920785" lon="-7.4331666"><ele>509.0</ele><time>2026-04-25T11:39:05.051Z</time></trkpt><trkpt lat="42.39204" lon="-7.433266"><ele>509.0</ele><time>2026-04-25T11:39:07.055Z</time></trkpt><trkpt lat="42.3919893" lon="-7.4333969"><ele>509.0</ele><time>2026-04-25T11:39:09.052Z</time></trkpt><trkpt lat="42.3919307" lon="-7.433484"><ele>509.0</ele><time>2026-04-25T11:39:11.054Z</time></trkpt><trkpt lat="42.3918156" lon="-7.4335296"><ele>509.0</ele><time>2026-04-25T11:39:13.054Z</time></trkpt><trkpt lat="42.3917496" lon="-7.4335554"><ele>509.0</ele><time>2026-04-25T11:39:14.054Z</time></trkpt><trkpt lat="42.3916857" lon="-7.4335807"><ele>509.0</ele><time>2026-04-25T11:39:15.053Z</time></trkpt><trkpt lat="42.3915735" lon="-7.43361"><ele>509.0</ele><time>2026-04-25T11:39:17.047Z</time></trkpt><trkpt lat="42.3914679" lon="-7.433647"><ele>509.0</ele><time>2026-04-25T11:39:19.046Z</time></trkpt><trkpt lat="42.3913839" lon="-7.433676"><ele>509.0</ele><time>2026-04-25T11:39:21.047Z</time></trkpt><trkpt lat="42.391304" lon="-7.433704"><ele>508.16666666666663</ele><time>2026-04-25T11:39:23.051Z</time></trkpt><trkpt lat="42.3912436" lon="-7.4337635"><ele>507.3333333333333</ele><time>2026-04-25T11:39:26.057Z</time></trkpt><trkpt lat="42.3913094" lon="-7.4338324"><ele>506.5</ele><time>2026-04-25T11:39:30.049Z</time></trkpt><trkpt lat="42.3913637" lon="-7.4338789"><ele>505.66666666666663</ele><time>2026-04-25T11:39:31.054Z</time></trkpt><trkpt lat="42.3914346" lon="-7.4339293"><ele>504.8333333333333</ele><time>2026-04-25T11:39:32.049Z</time></trkpt><trkpt lat="42.3915039" lon="-7.4339817"><ele>504.0</ele><time>2026-04-25T11:39:33.049Z</time></trkpt><trkpt lat="42.3915679" lon="-7.4340232"><ele>500.2</ele><time>2026-04-25T11:39:34.046Z</time></trkpt><trkpt lat="42.3916193" lon="-7.4340737"><ele>496.4</ele><time>2026-04-25T11:39:35.045Z</time></trkpt><trkpt lat="42.391711" lon="-7.4341536"><ele>492.6</ele><time>2026-04-25T11:39:37.046Z</time></trkpt><trkpt lat="42.3917653" lon="-7.434198"><ele>488.8</ele><time>2026-04-25T11:39:38.045Z</time></trkpt><trkpt lat="42.3918719" lon="-7.4342869"><ele>485.0</ele><time>2026-04-25T11:39:40.048Z</time></trkpt><trkpt lat="42.3919677" lon="-7.434355"><ele>485.0</ele><time>2026-04-25T11:39:42.048Z</time></trkpt><trkpt lat="42.3920426" lon="-7.434393"><ele>485.0</ele><time>2026-04-25T11:39:44.059Z</time></trkpt><trkpt lat="42.3921377" lon="-7.4344402"><ele>485.0</ele><time>2026-04-25T11:39:46.053Z</time></trkpt><trkpt lat="42.3922533" lon="-7.4343777"><ele>485.0</ele><time>2026-04-25T11:39:48.054Z</time></trkpt><trkpt lat="42.3923068" lon="-7.4343321"><ele>485.0</ele><time>2026-04-25T11:39:49.054Z</time></trkpt><trkpt lat="42.3923693" lon="-7.4342612"><ele>485.66666666666663</ele><time>2026-04-25T11:39:50.05Z</time></trkpt><trkpt lat="42.3924183" lon="-7.4341872"><ele>486.3333333333333</ele><time>2026-04-25T11:39:51.053Z</time></trkpt><trkpt lat="42.392462" lon="-7.4341229"><ele>487.0</ele><time>2026-04-25T11:39:52.054Z</time></trkpt><trkpt lat="42.392518" lon="-7.4339837"><ele>487.66666666666663</ele><time>2026-04-25T11:39:54.045Z</time></trkpt><trkpt lat="42.3925342" lon="-7.4338887"><ele>488.3333333333333</ele><time>2026-04-25T11:39:55.056Z</time></trkpt><trkpt lat="42.3925496" lon="-7.4337916"><ele>489.0</ele><time>2026-04-25T11:39:56.05Z</time></trkpt><trkpt lat="42.3925615" lon="-7.4336906"><ele>489.0</ele><time>2026-04-25T11:39:57.052Z</time></trkpt><trkpt lat="42.3925799" lon="-7.4335822"><ele>489.0</ele><time>2026-04-25T11:39:58.057Z</time></trkpt><trkpt lat="42.3926153" lon="-7.4334701"><ele>489.0</ele><time>2026-04-25T11:39:59.05Z</time></trkpt><trkpt lat="42.3926538" lon="-7.4333733"><ele>489.0</ele><time>2026-04-25T11:40:00.045Z</time></trkpt><trkpt lat="42.392693" lon="-7.4332853"><ele>489.0</ele><time>2026-04-25T11:40:01.054Z</time></trkpt><trkpt lat="42.392758" lon="-7.4331489"><ele>489.0</ele><time>2026-04-25T11:40:03.049Z</time></trkpt><trkpt lat="42.3928012" lon="-7.4330807"><ele>489.0</ele><time>2026-04-25T11:40:04.053Z</time></trkpt><trkpt lat="42.3928552" lon="-7.4330104"><ele>489.0</ele><time>2026-04-25T11:40:05.05Z</time></trkpt><trkpt lat="42.392911" lon="-7.4329436"><ele>489.0</ele><time>2026-04-25T11:40:06.049Z</time></trkpt><trkpt lat="42.3929775" lon="-7.4328492"><ele>489.0</ele><time>2026-04-25T11:40:07.053Z</time></trkpt><trkpt lat="42.3930298" lon="-7.4327673"><ele>489.0</ele><time>2026-04-25T11:40:08.05Z</time></trkpt><trkpt lat="42.3930716" lon="-7.4327028"><ele>489.0</ele><time>2026-04-25T11:40:09.05Z</time></trkpt><trkpt lat="42.3931463" lon="-7.4326123"><ele>489.1666666666667</ele><time>2026-04-25T11:40:11.052Z</time></trkpt><trkpt lat="42.393209" lon="-7.4325525"><ele>489.33333333333337</ele><time>2026-04-25T11:40:13.042Z</time></trkpt><trkpt lat="42.3932728" lon="-7.4325758"><ele>489.5</ele><time>2026-04-25T11:40:15.061Z</time></trkpt><trkpt lat="42.3933188" lon="-7.4327189"><ele>489.6666666666667</ele><time>2026-04-25T11:40:17.043Z</time></trkpt><trkpt lat="42.3933354" lon="-7.4328231"><ele>489.83333333333337</ele><time>2026-04-25T11:40:18.05Z</time></trkpt><trkpt lat="42.3933677" lon="-7.4329141"><ele>490.0</ele><time>2026-04-25T11:40:19.048Z</time></trkpt><trkpt lat="42.3934063" lon="-7.4329981"><ele>487.1428571428571</ele><time>2026-04-25T11:40:20.042Z</time></trkpt><trkpt lat="42.393446" lon="-7.4330802"><ele>484.2857142857143</ele><time>2026-04-25T11:40:21.054Z</time></trkpt><trkpt lat="42.3934975" lon="-7.4331597"><ele>481.42857142857144</ele><time>2026-04-25T11:40:22.046Z</time></trkpt><trkpt lat="42.3935572" lon="-7.4332257"><ele>478.57142857142856</ele><time>2026-04-25T11:40:23.048Z</time></trkpt><trkpt lat="42.3936235" lon="-7.4332534"><ele>475.71428571428567</ele><time>2026-04-25T11:40:24.052Z</time></trkpt><trkpt lat="42.3936924" lon="-7.4332591"><ele>472.85714285714283</ele><time>2026-04-25T11:40:25.051Z</time></trkpt><trkpt lat="42.3937615" lon="-7.4332642"><ele>470.0</ele><time>2026-04-25T11:40:26.047Z</time></trkpt><trkpt lat="42.393851" lon="-7.4332393"><ele>469.99999999999994</ele><time>2026-04-25T11:40:27.043Z</time></trkpt><trkpt lat="42.3939539" lon="-7.4332095"><ele>470.0</ele><time>2026-04-25T11:40:28.049Z</time></trkpt><trkpt lat="42.3940481" lon="-7.4331764"><ele>470.0</ele><time>2026-04-25T11:40:29.05Z</time></trkpt><trkpt lat="42.394124" lon="-7.4331473"><ele>470.0</ele><time>2026-04-25T11:40:30.048Z</time></trkpt><trkpt lat="42.3941959" lon="-7.4331182"><ele>469.99999999999994</ele><time>2026-04-25T11:40:31.046Z</time></trkpt><trkpt lat="42.3942825" lon="-7.4330925"><ele>470.0</ele><time>2026-04-25T11:40:32.045Z</time></trkpt><trkpt lat="42.3943837" lon="-7.4330637"><ele>470.0</ele><time>2026-04-25T11:40:33.055Z</time></trkpt><trkpt lat="42.3944903" lon="-7.4330428"><ele>470.0</ele><time>2026-04-25T11:40:34.046Z</time></trkpt><trkpt lat="42.394608" lon="-7.433024"><ele>470.0</ele><time>2026-04-25T11:40:35.049Z</time></trkpt><trkpt lat="42.3947084" lon="-7.4330065"><ele>470.0</ele><time>2026-04-25T11:40:36.045Z</time></trkpt><trkpt lat="42.394796" lon="-7.4329878"><ele>470.0</ele><time>2026-04-25T11:40:37.047Z</time></trkpt><trkpt lat="42.3948791" lon="-7.4329682"><ele>473.99999999999994</ele><time>2026-04-25T11:40:38.047Z</time></trkpt><trkpt lat="42.3949629" lon="-7.4329381"><ele>478.0</ele><time>2026-04-25T11:40:39.047Z</time></trkpt><trkpt lat="42.3950477" lon="-7.4328947"><ele>482.0</ele><time>2026-04-25T11:40:40.049Z</time></trkpt><trkpt lat="42.3951336" lon="-7.4328447"><ele>486.0</ele><time>2026-04-25T11:40:41.053Z</time></trkpt><trkpt lat="42.3952134" lon="-7.4327898"><ele>489.99999999999994</ele><time>2026-04-25T11:40:42.05Z</time></trkpt><trkpt lat="42.3952773" lon="-7.4327397"><ele>494.0</ele><time>2026-04-25T11:40:43.046Z</time></trkpt><trkpt lat="42.3953362" lon="-7.4326879"><ele>493.99999999999994</ele><time>2026-04-25T11:40:44.056Z</time></trkpt><trkpt lat="42.3953978" lon="-7.4326293"><ele>494.0</ele><time>2026-04-25T11:40:45.047Z</time></trkpt><trkpt lat="42.3954635" lon="-7.4325961"><ele>494.0</ele><time>2026-04-25T11:40:46.043Z</time></trkpt><trkpt lat="42.3955468" lon="-7.4325795"><ele>494.0</ele><time>2026-04-25T11:40:47.054Z</time></trkpt><trkpt lat="42.3956321" lon="-7.4325696"><ele>493.99999999999994</ele><time>2026-04-25T11:40:48.051Z</time></trkpt><trkpt lat="42.3957195" lon="-7.4325595"><ele>494.0</ele><time>2026-04-25T11:40:49.044Z</time></trkpt><trkpt lat="42.395795" lon="-7.4325459"><ele>493.2</ele><time>2026-04-25T11:40:50.047Z</time></trkpt><trkpt lat="42.3958581" lon="-7.4325218"><ele>492.4</ele><time>2026-04-25T11:40:51.049Z</time></trkpt><trkpt lat="42.3959209" lon="-7.4324973"><ele>491.6</ele><time>2026-04-25T11:40:52.045Z</time></trkpt><trkpt lat="42.3960284" lon="-7.432432"><ele>490.8</ele><time>2026-04-25T11:40:54.048Z</time></trkpt><trkpt lat="42.3961394" lon="-7.4323989"><ele>490.0</ele><time>2026-04-25T11:40:56.049Z</time></trkpt><trkpt lat="42.3962332" lon="-7.4324843"><ele>490.00000000000006</ele><time>2026-04-25T11:40:58.047Z</time></trkpt><trkpt lat="42.3962801" lon="-7.4325657"><ele>490.0</ele><time>2026-04-25T11:40:59.045Z</time></trkpt><trkpt lat="42.3963381" lon="-7.4326609"><ele>490.0</ele><time>2026-04-25T11:41:00.044Z</time></trkpt><trkpt lat="42.3964001" lon="-7.4327377"><ele>490.0</ele><time>2026-04-25T11:41:01.044Z</time></trkpt><trkpt lat="42.3964633" lon="-7.4327896"><ele>490.00000000000006</ele><time>2026-04-25T11:41:02.053Z</time></trkpt><trkpt lat="42.3965367" lon="-7.4328257"><ele>490.0</ele><time>2026-04-25T11:41:03.049Z</time></trkpt><trkpt lat="42.3966179" lon="-7.4328531"><ele>492.1666666666667</ele><time>2026-04-25T11:41:04.054Z</time></trkpt><trkpt lat="42.3967034" lon="-7.4328751"><ele>494.33333333333337</ele><time>2026-04-25T11:41:05.051Z</time></trkpt><trkpt lat="42.396794" lon="-7.4328905"><ele>496.5</ele><time>2026-04-25T11:41:06.055Z</time></trkpt><trkpt lat="42.3968759" lon="-7.4328896"><ele>498.66666666666663</ele><time>2026-04-25T11:41:07.059Z</time></trkpt><trkpt lat="42.396944" lon="-7.4328735"><ele>500.8333333333333</ele><time>2026-04-25T11:41:08.051Z</time></trkpt><trkpt lat="42.3970104" lon="-7.4328507"><ele>503.0</ele><time>2026-04-25T11:41:09.062Z</time></trkpt><trkpt lat="42.3970773" lon="-7.4328222"><ele>502.99999999999994</ele><time>2026-04-25T11:41:10.054Z</time></trkpt><trkpt lat="42.3971463" lon="-7.4327879"><ele>503.0</ele><time>2026-04-25T11:41:11.057Z</time></trkpt><trkpt lat="42.3972107" lon="-7.4327453"><ele>503.0</ele><time>2026-04-25T11:41:12.051Z</time></trkpt><trkpt lat="42.3973103" lon="-7.4326393"><ele>503.0</ele><time>2026-04-25T11:41:14.057Z</time></trkpt><trkpt lat="42.3973581" lon="-7.4325762"><ele>502.99999999999994</ele><time>2026-04-25T11:41:15.053Z</time></trkpt><trkpt lat="42.3974065" lon="-7.4324798"><ele>503.0</ele><time>2026-04-25T11:41:16.061Z</time></trkpt><trkpt lat="42.3974466" lon="-7.4323959"><ele>503.3333333333333</ele><time>2026-04-25T11:41:17.046Z</time></trkpt><trkpt lat="42.3974884" lon="-7.4323086"><ele>503.66666666666663</ele><time>2026-04-25T11:41:18.058Z</time></trkpt><trkpt lat="42.3975609" lon="-7.4321962"><ele>504.0</ele><time>2026-04-25T11:41:20.058Z</time></trkpt><trkpt lat="42.397638" lon="-7.4321388"><ele>504.33333333333337</ele><time>2026-04-25T11:41:23.066Z</time></trkpt><trkpt lat="42.3977282" lon="-7.432138"><ele>504.6666666666667</ele><time>2026-04-25T11:41:25.05Z</time></trkpt><trkpt lat="42.3977898" lon="-7.4321781"><ele>505.0</ele><time>2026-04-25T11:41:26.053Z</time></trkpt><trkpt lat="42.3978531" lon="-7.4322425"><ele>505.0</ele><time>2026-04-25T11:41:27.053Z</time></trkpt><trkpt lat="42.3979124" lon="-7.4322864"><ele>505.0</ele><time>2026-04-25T11:41:28.054Z</time></trkpt><trkpt lat="42.3980219" lon="-7.4323141"><ele>505.0</ele><time>2026-04-25T11:41:30.059Z</time></trkpt><trkpt lat="42.3981285" lon="-7.4322849"><ele>505.0</ele><time>2026-04-25T11:41:32.042Z</time></trkpt><trkpt lat="42.3982344" lon="-7.4322001"><ele>505.0</ele><time>2026-04-25T11:41:34.049Z</time></trkpt><trkpt lat="42.3983643" lon="-7.4321788"><ele>505.2</ele><time>2026-04-25T11:41:36.048Z</time></trkpt><trkpt lat="42.3984572" lon="-7.4321729"><ele>505.4</ele><time>2026-04-25T11:41:37.052Z</time></trkpt><trkpt lat="42.3985498" lon="-7.432169"><ele>505.6</ele><time>2026-04-25T11:41:38.05Z</time></trkpt><trkpt lat="42.3986603" lon="-7.4321436"><ele>505.8</ele><time>2026-04-25T11:41:39.053Z</time></trkpt><trkpt lat="42.3987808" lon="-7.4320979"><ele>506.0</ele><time>2026-04-25T11:41:40.052Z</time></trkpt><trkpt lat="42.3989004" lon="-7.4320493"><ele>511.0</ele><time>2026-04-25T11:41:41.047Z</time></trkpt><trkpt lat="42.3990095" lon="-7.4320027"><ele>516.0</ele><time>2026-04-25T11:41:42.064Z</time></trkpt><trkpt lat="42.3991123" lon="-7.4319594"><ele>521.0</ele><time>2026-04-25T11:41:43.047Z</time></trkpt><trkpt lat="42.399215" lon="-7.4319254"><ele>526.0</ele><time>2026-04-25T11:41:44.051Z</time></trkpt><trkpt lat="42.3992987" lon="-7.4318996"><ele>531.0</ele><time>2026-04-25T11:41:45.049Z</time></trkpt><trkpt lat="42.3993756" lon="-7.4318877"><ele>531.0</ele><time>2026-04-25T11:41:46.049Z</time></trkpt><trkpt lat="42.3994448" lon="-7.431874"><ele>531.0</ele><time>2026-04-25T11:41:47.047Z</time></trkpt><trkpt lat="42.3995123" lon="-7.4318315"><ele>531.0</ele><time>2026-04-25T11:41:48.049Z</time></trkpt><trkpt lat="42.3995854" lon="-7.4317479"><ele>531.0</ele><time>2026-04-25T11:41:49.052Z</time></trkpt><trkpt lat="42.3996526" lon="-7.4316664"><ele>531.0</ele><time>2026-04-25T11:41:50.051Z</time></trkpt><trkpt lat="42.3997189" lon="-7.4315837"><ele>531.0</ele><time>2026-04-25T11:41:51.046Z</time></trkpt><trkpt lat="42.399788" lon="-7.4314872"><ele>529.8</ele><time>2026-04-25T11:41:52.05Z</time></trkpt><trkpt lat="42.3998573" lon="-7.4313768"><ele>528.6</ele><time>2026-04-25T11:41:53.045Z</time></trkpt><trkpt lat="42.3999278" lon="-7.4312801"><ele>527.4</ele><time>2026-04-25T11:41:54.052Z</time></trkpt><trkpt lat="42.3999984" lon="-7.4311858"><ele>526.2</ele><time>2026-04-25T11:41:55.052Z</time></trkpt><trkpt lat="42.4000529" lon="-7.4310932"><ele>525.0</ele><time>2026-04-25T11:41:56.053Z</time></trkpt><trkpt lat="42.4001008" lon="-7.4310073"><ele>528.2</ele><time>2026-04-25T11:41:57.047Z</time></trkpt><trkpt lat="42.4001176" lon="-7.4309078"><ele>531.4</ele><time>2026-04-25T11:41:58.047Z</time></trkpt><trkpt lat="42.4001341" lon="-7.4307912"><ele>534.6</ele><time>2026-04-25T11:41:59.053Z</time></trkpt><trkpt lat="42.4001371" lon="-7.4306443"><ele>537.8</ele><time>2026-04-25T11:42:00.046Z</time></trkpt><trkpt lat="42.4001423" lon="-7.4305133"><ele>541.0</ele><time>2026-04-25T11:42:01.048Z</time></trkpt><trkpt lat="42.4001481" lon="-7.4303809"><ele>542.8333333333334</ele><time>2026-04-25T11:42:02.046Z</time></trkpt><trkpt lat="42.4001627" lon="-7.4302465"><ele>544.6666666666667</ele><time>2026-04-25T11:42:03.047Z</time></trkpt><trkpt lat="42.4001874" lon="-7.4301244"><ele>546.5</ele><time>2026-04-25T11:42:04.046Z</time></trkpt><trkpt lat="42.4002168" lon="-7.4300203"><ele>548.3333333333334</ele><time>2026-04-25T11:42:05.046Z</time></trkpt><trkpt lat="42.4002518" lon="-7.4299191"><ele>550.1666666666666</ele><time>2026-04-25T11:42:06.05Z</time></trkpt><trkpt lat="42.4002841" lon="-7.4298121"><ele>552.0</ele><time>2026-04-25T11:42:07.048Z</time></trkpt><trkpt lat="42.4003097" lon="-7.4296986"><ele>551.8333333333334</ele><time>2026-04-25T11:42:08.049Z</time></trkpt><trkpt lat="42.4003399" lon="-7.4295889"><ele>551.6666666666666</ele><time>2026-04-25T11:42:09.052Z</time></trkpt><trkpt lat="42.4003996" lon="-7.4294898"><ele>551.5</ele><time>2026-04-25T11:42:11.053Z</time></trkpt><trkpt lat="42.4004567" lon="-7.4294255"><ele>551.3333333333333</ele><time>2026-04-25T11:42:33.052Z</time></trkpt><trkpt lat="42.4005143" lon="-7.4293882"><ele>551.1666666666666</ele><time>2026-04-25T11:42:34.052Z</time></trkpt><trkpt lat="42.4005894" lon="-7.4293596"><ele>551.0</ele><time>2026-04-25T11:42:35.047Z</time></trkpt><trkpt lat="42.400664" lon="-7.4293341"><ele>551.0</ele><time>2026-04-25T11:42:36.049Z</time></trkpt><trkpt lat="42.4007391" lon="-7.4293098"><ele>551.0</ele><time>2026-04-25T11:42:37.046Z</time></trkpt><trkpt lat="42.4008204" lon="-7.4292845"><ele>551.0</ele><time>2026-04-25T11:42:38.054Z</time></trkpt><trkpt lat="42.4009123" lon="-7.4292639"><ele>551.0</ele><time>2026-04-25T11:42:39.052Z</time></trkpt><trkpt lat="42.4010131" lon="-7.4292417"><ele>551.0</ele><time>2026-04-25T11:42:40.045Z</time></trkpt><trkpt lat="42.4011234" lon="-7.4292666"><ele>551.0</ele><time>2026-04-25T11:42:41.05Z</time></trkpt><trkpt lat="42.4012281" lon="-7.4292994"><ele>551.0</ele><time>2026-04-25T11:42:42.047Z</time></trkpt><trkpt lat="42.401327" lon="-7.4293306"><ele>551.0</ele><time>2026-04-25T11:42:43.044Z</time></trkpt><trkpt lat="42.4014257" lon="-7.4293556"><ele>551.0</ele><time>2026-04-25T11:42:44.054Z</time></trkpt><trkpt lat="42.4015197" lon="-7.4293727"><ele>551.0</ele><time>2026-04-25T11:42:45.05Z</time></trkpt><trkpt lat="42.4016094" lon="-7.429373"><ele>549.1666666666666</ele><time>2026-04-25T11:42:46.048Z</time></trkpt><trkpt lat="42.4016987" lon="-7.4293534"><ele>547.3333333333333</ele><time>2026-04-25T11:42:47.05Z</time></trkpt><trkpt lat="42.4017828" lon="-7.4293212"><ele>545.5</ele><time>2026-04-25T11:42:48.048Z</time></trkpt><trkpt lat="42.4018644" lon="-7.4292799"><ele>543.6666666666666</ele><time>2026-04-25T11:42:49.048Z</time></trkpt><trkpt lat="42.4019476" lon="-7.4292339"><ele>541.8333333333334</ele><time>2026-04-25T11:42:50.057Z</time></trkpt><trkpt lat="42.4020304" lon="-7.4291817"><ele>540.0</ele><time>2026-04-25T11:42:51.056Z</time></trkpt><trkpt lat="42.4021069" lon="-7.4291247"><ele>538.3333333333334</ele><time>2026-04-25T11:42:52.049Z</time></trkpt><trkpt lat="42.4021805" lon="-7.4290686"><ele>536.6666666666666</ele><time>2026-04-25T11:42:53.047Z</time></trkpt><trkpt lat="42.4022488" lon="-7.4290114"><ele>535.0</ele><time>2026-04-25T11:42:54.056Z</time></trkpt><trkpt lat="42.402314" lon="-7.4289543"><ele>533.3333333333333</ele><time>2026-04-25T11:42:55.045Z</time></trkpt><trkpt lat="42.4023803" lon="-7.4288998"><ele>531.6666666666666</ele><time>2026-04-25T11:42:56.049Z</time></trkpt><trkpt lat="42.4024546" lon="-7.4288399"><ele>530.0</ele><time>2026-04-25T11:42:57.051Z</time></trkpt><trkpt lat="42.4025333" lon="-7.4287679"><ele>530.0</ele><time>2026-04-25T11:42:58.049Z</time></trkpt><trkpt lat="42.4026048" lon="-7.428675"><ele>530.0</ele><time>2026-04-25T11:42:59.049Z</time></trkpt><trkpt lat="42.4026561" lon="-7.4285701"><ele>530.0</ele><time>2026-04-25T11:43:00.052Z</time></trkpt><trkpt lat="42.4026797" lon="-7.4284592"><ele>530.0</ele><time>2026-04-25T11:43:01.054Z</time></trkpt><trkpt lat="42.4026761" lon="-7.4283391"><ele>530.0</ele><time>2026-04-25T11:43:02.054Z</time></trkpt><trkpt lat="42.4026461" lon="-7.4281893"><ele>530.0</ele><time>2026-04-25T11:43:03.045Z</time></trkpt><trkpt lat="42.402608" lon="-7.4280381"><ele>530.0</ele><time>2026-04-25T11:43:04.046Z</time></trkpt><trkpt lat="42.4025686" lon="-7.427897"><ele>530.0</ele><time>2026-04-25T11:43:05.049Z</time></trkpt><trkpt lat="42.4025326" lon="-7.4277645"><ele>530.0</ele><time>2026-04-25T11:43:06.051Z</time></trkpt><trkpt lat="42.402497" lon="-7.4276383"><ele>530.0</ele><time>2026-04-25T11:43:07.056Z</time></trkpt><trkpt lat="42.4024643" lon="-7.4275162"><ele>529.8</ele><time>2026-04-25T11:43:08.053Z</time></trkpt><trkpt lat="42.4024326" lon="-7.4273999"><ele>529.6</ele><time>2026-04-25T11:43:09.049Z</time></trkpt><trkpt lat="42.4024073" lon="-7.4272944"><ele>529.4</ele><time>2026-04-25T11:43:10.05Z</time></trkpt><trkpt lat="42.4023856" lon="-7.4272"><ele>529.2</ele><time>2026-04-25T11:43:11.051Z</time></trkpt><trkpt lat="42.402419" lon="-7.4270579"><ele>529.0</ele><time>2026-04-25T11:43:13.046Z</time></trkpt><trkpt lat="42.4025182" lon="-7.4270322"><ele>529.0</ele><time>2026-04-25T11:43:15.045Z</time></trkpt><trkpt lat="42.40258" lon="-7.4270699"><ele>529.0</ele><time>2026-04-25T11:43:16.047Z</time></trkpt><trkpt lat="42.4026344" lon="-7.4271442"><ele>529.0</ele><time>2026-04-25T11:43:17.051Z</time></trkpt><trkpt lat="42.4026979" lon="-7.42723"><ele>529.0</ele><time>2026-04-25T11:43:18.047Z</time></trkpt><trkpt lat="42.4027527" lon="-7.4273275"><ele>529.0</ele><time>2026-04-25T11:43:19.042Z</time></trkpt><trkpt lat="42.4028212" lon="-7.4274387"><ele>529.0</ele><time>2026-04-25T11:43:20.051Z</time></trkpt><trkpt lat="42.4028884" lon="-7.4275526"><ele>529.0</ele><time>2026-04-25T11:43:21.042Z</time></trkpt><trkpt lat="42.4029502" lon="-7.4276582"><ele>529.0</ele><time>2026-04-25T11:43:22.044Z</time></trkpt><trkpt lat="42.403016" lon="-7.4277664"><ele>529.0</ele><time>2026-04-25T11:43:23.046Z</time></trkpt><trkpt lat="42.4030829" lon="-7.4278733"><ele>529.0</ele><time>2026-04-25T11:43:24.049Z</time></trkpt><trkpt lat="42.4031495" lon="-7.4279756"><ele>529.0</ele><time>2026-04-25T11:43:25.044Z</time></trkpt><trkpt lat="42.4032201" lon="-7.4280739"><ele>525.0</ele><time>2026-04-25T11:43:26.045Z</time></trkpt><trkpt lat="42.4032878" lon="-7.4281692"><ele>521.0</ele><time>2026-04-25T11:43:27.04Z</time></trkpt><trkpt lat="42.4033716" lon="-7.4282463"><ele>517.0</ele><time>2026-04-25T11:43:28.053Z</time></trkpt><trkpt lat="42.4034505" lon="-7.4283008"><ele>513.0</ele><time>2026-04-25T11:43:29.06Z</time></trkpt><trkpt lat="42.4035265" lon="-7.4283693"><ele>509.0</ele><time>2026-04-25T11:43:30.062Z</time></trkpt><trkpt lat="42.4036046" lon="-7.4284493"><ele>509.0</ele><time>2026-04-25T11:43:31.042Z</time></trkpt><trkpt lat="42.403649" lon="-7.4285807"><ele>509.0</ele><time>2026-04-25T11:43:32.043Z</time></trkpt><trkpt lat="42.403678" lon="-7.4287343"><ele>509.0</ele><time>2026-04-25T11:43:33.053Z</time></trkpt><trkpt lat="42.4036877" lon="-7.4289063"><ele>509.0</ele><time>2026-04-25T11:43:34.043Z</time></trkpt><trkpt lat="42.4036786" lon="-7.4290883"><ele>507.25</ele><time>2026-04-25T11:43:35.057Z</time></trkpt><trkpt lat="42.4036699" lon="-7.4292793"><ele>505.5</ele><time>2026-04-25T11:43:36.058Z</time></trkpt><trkpt lat="42.4036451" lon="-7.4294837"><ele>503.75</ele><time>2026-04-25T11:43:37.048Z</time></trkpt><trkpt lat="42.4036149" lon="-7.4296758"><ele>502.0</ele><time>2026-04-25T11:43:38.052Z</time></trkpt><trkpt lat="42.4035864" lon="-7.4298619"><ele>500.75</ele><time>2026-04-25T11:43:39.053Z</time></trkpt><trkpt lat="42.4035516" lon="-7.4300449"><ele>499.5</ele><time>2026-04-25T11:43:40.046Z</time></trkpt><trkpt lat="42.4035162" lon="-7.4302207"><ele>498.25</ele><time>2026-04-25T11:43:41.05Z</time></trkpt><trkpt lat="42.4034827" lon="-7.4303878"><ele>497.0</ele><time>2026-04-25T11:43:42.05Z</time></trkpt><trkpt lat="42.4034464" lon="-7.4305456"><ele>496.20000000000005</ele><time>2026-04-25T11:43:43.049Z</time></trkpt><trkpt lat="42.4034076" lon="-7.4307009"><ele>495.40000000000003</ele><time>2026-04-25T11:43:44.051Z</time></trkpt><trkpt lat="42.4033693" lon="-7.4308486"><ele>494.59999999999997</ele><time>2026-04-25T11:43:45.042Z</time></trkpt><trkpt lat="42.4033373" lon="-7.4309622"><ele>493.79999999999995</ele><time>2026-04-25T11:43:46.045Z</time></trkpt><trkpt lat="42.40331" lon="-7.4310624"><ele>493.0</ele><time>2026-04-25T11:43:47.052Z</time></trkpt><trkpt lat="42.403288" lon="-7.4312477"><ele>492.2</ele><time>2026-04-25T11:43:49.05Z</time></trkpt><trkpt lat="42.4033097" lon="-7.4313745"><ele>491.4</ele><time>2026-04-25T11:43:50.055Z</time></trkpt><trkpt lat="42.4033337" lon="-7.4315147"><ele>490.59999999999997</ele><time>2026-04-25T11:43:51.049Z</time></trkpt><trkpt lat="42.4033598" lon="-7.4316659"><ele>489.79999999999995</ele><time>2026-04-25T11:43:52.051Z</time></trkpt><trkpt lat="42.4033777" lon="-7.4318165"><ele>489.0</ele><time>2026-04-25T11:43:53.053Z</time></trkpt><trkpt lat="42.4033976" lon="-7.4319462"><ele>489.0</ele><time>2026-04-25T11:43:54.048Z</time></trkpt><trkpt lat="42.4034303" lon="-7.4320702"><ele>489.0</ele><time>2026-04-25T11:43:55.043Z</time></trkpt><trkpt lat="42.4034824" lon="-7.4321844"><ele>489.0</ele><time>2026-04-25T11:43:56.047Z</time></trkpt><trkpt lat="42.4035529" lon="-7.432279"><ele>489.0</ele><time>2026-04-25T11:43:57.048Z</time></trkpt><trkpt lat="42.403639" lon="-7.4323603"><ele>489.0</ele><time>2026-04-25T11:43:58.047Z</time></trkpt><trkpt lat="42.4037394" lon="-7.432426"><ele>492.25</ele><time>2026-04-25T11:43:59.056Z</time></trkpt><trkpt lat="42.4038511" lon="-7.432476"><ele>495.5</ele><time>2026-04-25T11:44:00.049Z</time></trkpt><trkpt lat="42.4039727" lon="-7.4325085"><ele>498.75</ele><time>2026-04-25T11:44:01.053Z</time></trkpt><trkpt lat="42.4041059" lon="-7.4325268"><ele>502.0</ele><time>2026-04-25T11:44:02.057Z</time></trkpt><trkpt lat="42.4042375" lon="-7.4325379"><ele>502.0</ele><time>2026-04-25T11:44:03.058Z</time></trkpt><trkpt lat="42.4043515" lon="-7.4325545"><ele>502.00000000000006</ele><time>2026-04-25T11:44:04.059Z</time></trkpt><trkpt lat="42.4044379" lon="-7.4326041"><ele>502.00000000000006</ele><time>2026-04-25T11:44:05.055Z</time></trkpt><trkpt lat="42.4045001" lon="-7.4326897"><ele>502.0</ele><time>2026-04-25T11:44:06.058Z</time></trkpt><trkpt lat="42.4045635" lon="-7.4327839"><ele>502.0</ele><time>2026-04-25T11:44:07.053Z</time></trkpt><trkpt lat="42.4045924" lon="-7.43292"><ele>501.25</ele><time>2026-04-25T11:44:08.055Z</time></trkpt><trkpt lat="42.4046177" lon="-7.4330542"><ele>500.5</ele><time>2026-04-25T11:44:09.056Z</time></trkpt><trkpt lat="42.4046493" lon="-7.4332202"><ele>499.75</ele><time>2026-04-25T11:44:10.053Z</time></trkpt><trkpt lat="42.4046793" lon="-7.4333854"><ele>499.0</ele><time>2026-04-25T11:44:11.054Z</time></trkpt><trkpt lat="42.404707" lon="-7.4335407"><ele>502.75</ele><time>2026-04-25T11:44:12.053Z</time></trkpt><trkpt lat="42.4047321" lon="-7.4336982"><ele>506.5</ele><time>2026-04-25T11:44:13.053Z</time></trkpt><trkpt lat="42.4047637" lon="-7.4338537"><ele>510.25</ele><time>2026-04-25T11:44:14.051Z</time></trkpt><trkpt lat="42.4048053" lon="-7.4340066"><ele>514.0</ele><time>2026-04-25T11:44:15.048Z</time></trkpt><trkpt lat="42.404854" lon="-7.4341545"><ele>514.0</ele><time>2026-04-25T11:44:16.062Z</time></trkpt><trkpt lat="42.4049097" lon="-7.4342991"><ele>514.0</ele><time>2026-04-25T11:44:17.049Z</time></trkpt><trkpt lat="42.4049749" lon="-7.4344298"><ele>514.0</ele><time>2026-04-25T11:44:18.057Z</time></trkpt><trkpt lat="42.4050428" lon="-7.4345467"><ele>514.0</ele><time>2026-04-25T11:44:19.049Z</time></trkpt><trkpt lat="42.4051127" lon="-7.4346531"><ele>513.6</ele><time>2026-04-25T11:44:20.06Z</time></trkpt><trkpt lat="42.4051866" lon="-7.4347494"><ele>513.2</ele><time>2026-04-25T11:44:21.05Z</time></trkpt><trkpt lat="42.4052652" lon="-7.4348404"><ele>512.8000000000001</ele><time>2026-04-25T11:44:22.049Z</time></trkpt><trkpt lat="42.4053521" lon="-7.4349346"><ele>512.4</ele><time>2026-04-25T11:44:23.049Z</time></trkpt><trkpt lat="42.4054363" lon="-7.4350175"><ele>512.0</ele><time>2026-04-25T11:44:24.05Z</time></trkpt><trkpt lat="42.4055121" lon="-7.4350829"><ele>512.6666666666666</ele><time>2026-04-25T11:44:25.046Z</time></trkpt><trkpt lat="42.4055794" lon="-7.4351239"><ele>513.3333333333333</ele><time>2026-04-25T11:44:26.047Z</time></trkpt><trkpt lat="42.405643" lon="-7.4351476"><ele>514.0</ele><time>2026-04-25T11:44:27.053Z</time></trkpt><trkpt lat="42.4057094" lon="-7.4351424"><ele>514.6666666666666</ele><time>2026-04-25T11:44:28.059Z</time></trkpt><trkpt lat="42.405784" lon="-7.4351165"><ele>515.3333333333334</ele><time>2026-04-25T11:44:29.055Z</time></trkpt><trkpt lat="42.4058635" lon="-7.4350608"><ele>516.0</ele><time>2026-04-25T11:44:30.049Z</time></trkpt><trkpt lat="42.4059424" lon="-7.4349753"><ele>516.0</ele><time>2026-04-25T11:44:31.054Z</time></trkpt><trkpt lat="42.4060341" lon="-7.4348708"><ele>516.0</ele><time>2026-04-25T11:44:32.052Z</time></trkpt><trkpt lat="42.4061245" lon="-7.4347729"><ele>516.0</ele><time>2026-04-25T11:44:33.057Z</time></trkpt><trkpt lat="42.4062154" lon="-7.4346849"><ele>516.0</ele><time>2026-04-25T11:44:34.055Z</time></trkpt><trkpt lat="42.4063062" lon="-7.4346105"><ele>516.5</ele><time>2026-04-25T11:44:35.064Z</time></trkpt><trkpt lat="42.4063939" lon="-7.4345527"><ele>517.0</ele><time>2026-04-25T11:44:36.061Z</time></trkpt><trkpt lat="42.4064774" lon="-7.4345204"><ele>517.5</ele><time>2026-04-25T11:44:37.057Z</time></trkpt><trkpt lat="42.4065558" lon="-7.4345295"><ele>518.0</ele><time>2026-04-25T11:44:38.049Z</time></trkpt><trkpt lat="42.4066269" lon="-7.434584"><ele>518.5</ele><time>2026-04-25T11:44:39.053Z</time></trkpt><trkpt lat="42.406682" lon="-7.4346817"><ele>519.0</ele><time>2026-04-25T11:44:40.056Z</time></trkpt><trkpt lat="42.4067281" lon="-7.4348152"><ele>517.5</ele><time>2026-04-25T11:44:41.053Z</time></trkpt><trkpt lat="42.4067838" lon="-7.4349688"><ele>516.0</ele><time>2026-04-25T11:44:42.05Z</time></trkpt><trkpt lat="42.4068604" lon="-7.4351255"><ele>514.5</ele><time>2026-04-25T11:44:43.049Z</time></trkpt><trkpt lat="42.4069472" lon="-7.4352655"><ele>513.0</ele><time>2026-04-25T11:44:44.051Z</time></trkpt><trkpt lat="42.4070358" lon="-7.4353834"><ele>514.5</ele><time>2026-04-25T11:44:45.051Z</time></trkpt><trkpt lat="42.4071249" lon="-7.4355002"><ele>516.0</ele><time>2026-04-25T11:44:46.054Z</time></trkpt><trkpt lat="42.4072143" lon="-7.4356217"><ele>517.5</ele><time>2026-04-25T11:44:47.055Z</time></trkpt><trkpt lat="42.4073008" lon="-7.4357344"><ele>519.0</ele><time>2026-04-25T11:44:48.052Z</time></trkpt><trkpt lat="42.4073778" lon="-7.4358309"><ele>519.0</ele><time>2026-04-25T11:44:49.056Z</time></trkpt><trkpt lat="42.4074434" lon="-7.4359119"><ele>519.0</ele><time>2026-04-25T11:44:50.054Z</time></trkpt><trkpt lat="42.4074953" lon="-7.435972"><ele>519.0</ele><time>2026-04-25T11:44:51.053Z</time></trkpt><trkpt lat="42.4075839" lon="-7.4360319"><ele>519.0</ele><time>2026-04-25T11:44:53.063Z</time></trkpt><trkpt lat="42.4076494" lon="-7.435986"><ele>519.0</ele><time>2026-04-25T11:44:55.049Z</time></trkpt><trkpt lat="42.407595" lon="-7.4358419"><ele>519.0</ele><time>2026-04-25T11:44:57.046Z</time></trkpt><trkpt lat="42.4075422" lon="-7.4357594"><ele>519.0</ele><time>2026-04-25T11:44:58.051Z</time></trkpt><trkpt lat="42.4074896" lon="-7.4356691"><ele>519.0</ele><time>2026-04-25T11:44:59.047Z</time></trkpt><trkpt lat="42.4074452" lon="-7.4355727"><ele>519.0</ele><time>2026-04-25T11:45:00.055Z</time></trkpt><trkpt lat="42.4074049" lon="-7.4354713"><ele>519.0</ele><time>2026-04-25T11:45:01.051Z</time></trkpt><trkpt lat="42.4073672" lon="-7.4353603"><ele>519.0</ele><time>2026-04-25T11:45:02.053Z</time></trkpt><trkpt lat="42.4073289" lon="-7.4352486"><ele>519.0</ele><time>2026-04-25T11:45:03.057Z</time></trkpt><trkpt lat="42.407304" lon="-7.4351527"><ele>521.0</ele><time>2026-04-25T11:45:04.046Z</time></trkpt><trkpt lat="42.4072877" lon="-7.4350633"><ele>523.0</ele><time>2026-04-25T11:45:05.056Z</time></trkpt><trkpt lat="42.4072819" lon="-7.4349605"><ele>525.0</ele><time>2026-04-25T11:45:06.043Z</time></trkpt><trkpt lat="42.4072871" lon="-7.4348494"><ele>527.0</ele><time>2026-04-25T11:45:07.047Z</time></trkpt><trkpt lat="42.4073047" lon="-7.4347324"><ele>529.0</ele><time>2026-04-25T11:45:08.044Z</time></trkpt><trkpt lat="42.4073382" lon="-7.4346143"><ele>531.0</ele><time>2026-04-25T11:45:09.053Z</time></trkpt><trkpt lat="42.4073848" lon="-7.4344932"><ele>531.4</ele><time>2026-04-25T11:45:10.046Z</time></trkpt><trkpt lat="42.4074401" lon="-7.4343702"><ele>531.8</ele><time>2026-04-25T11:45:11.045Z</time></trkpt><trkpt lat="42.407493" lon="-7.4342607"><ele>532.1999999999999</ele><time>2026-04-25T11:45:12.05Z</time></trkpt><trkpt lat="42.4075384" lon="-7.434162"><ele>532.6</ele><time>2026-04-25T11:45:13.057Z</time></trkpt><trkpt lat="42.4075835" lon="-7.4340597"><ele>533.0</ele><time>2026-04-25T11:45:14.045Z</time></trkpt><trkpt lat="42.4076296" lon="-7.4339524"><ele>533.0</ele><time>2026-04-25T11:45:15.049Z</time></trkpt><trkpt lat="42.4076742" lon="-7.4338352"><ele>533.0</ele><time>2026-04-25T11:45:16.059Z</time></trkpt><trkpt lat="42.4077161" lon="-7.4337002"><ele>533.0</ele><time>2026-04-25T11:45:17.047Z</time></trkpt><trkpt lat="42.4077552" lon="-7.4335524"><ele>533.0</ele><time>2026-04-25T11:45:18.05Z</time></trkpt><trkpt lat="42.4077907" lon="-7.433403"><ele>533.0</ele><time>2026-04-25T11:45:19.052Z</time></trkpt><trkpt lat="42.4078303" lon="-7.433251"><ele>532.5</ele><time>2026-04-25T11:45:20.045Z</time></trkpt><trkpt lat="42.4078744" lon="-7.4330938"><ele>532.0</ele><time>2026-04-25T11:45:21.048Z</time></trkpt><trkpt lat="42.4079176" lon="-7.4329321"><ele>531.5</ele><time>2026-04-25T11:45:22.043Z</time></trkpt><trkpt lat="42.4079603" lon="-7.4327689"><ele>531.0</ele><time>2026-04-25T11:45:23.048Z</time></trkpt><trkpt lat="42.4079912" lon="-7.4326043"><ele>538.0</ele><time>2026-04-25T11:45:24.046Z</time></trkpt><trkpt lat="42.4080106" lon="-7.4324205"><ele>545.0</ele><time>2026-04-25T11:45:25.05Z</time></trkpt><trkpt lat="42.4080432" lon="-7.4322128"><ele>552.0</ele><time>2026-04-25T11:45:26.045Z</time></trkpt><trkpt lat="42.4080803" lon="-7.4319645"><ele>552.0</ele><time>2026-04-25T11:45:27.05Z</time></trkpt><trkpt lat="42.4081185" lon="-7.431728"><ele>552.0</ele><time>2026-04-25T11:45:28.049Z</time></trkpt><trkpt lat="42.4081539" lon="-7.4315174"><ele>552.0</ele><time>2026-04-25T11:45:29.045Z</time></trkpt><trkpt lat="42.4081839" lon="-7.4313217"><ele>553.0</ele><time>2026-04-25T11:45:30.048Z</time></trkpt><trkpt lat="42.40821" lon="-7.4311366"><ele>554.0</ele><time>2026-04-25T11:45:31.05Z</time></trkpt><trkpt lat="42.4082352" lon="-7.4309483"><ele>555.0</ele><time>2026-04-25T11:45:32.049Z</time></trkpt><trkpt lat="42.4082554" lon="-7.4307658"><ele>556.0</ele><time>2026-04-25T11:45:33.05Z</time></trkpt><trkpt lat="42.4082681" lon="-7.4305794"><ele>557.0</ele><time>2026-04-25T11:45:34.048Z</time></trkpt><trkpt lat="42.4082697" lon="-7.4303821"><ele>558.0</ele><time>2026-04-25T11:45:35.042Z</time></trkpt><trkpt lat="42.4082552" lon="-7.4301791"><ele>559.0</ele><time>2026-04-25T11:45:36.045Z</time></trkpt><trkpt lat="42.4082277" lon="-7.4299893"><ele>560.0</ele><time>2026-04-25T11:45:37.041Z</time></trkpt><trkpt lat="42.4082038" lon="-7.4298089"><ele>560.0</ele><time>2026-04-25T11:45:38.042Z</time></trkpt><trkpt lat="42.4081802" lon="-7.4296629"><ele>560.0</ele><time>2026-04-25T11:45:39.046Z</time></trkpt><trkpt lat="42.4081577" lon="-7.4295654"><ele>560.0</ele><time>2026-04-25T11:45:40.053Z</time></trkpt><trkpt lat="42.4080933" lon="-7.4294651"><ele>560.0</ele><time>2026-04-25T11:45:42.054Z</time></trkpt><trkpt lat="42.4079946" lon="-7.4294883"><ele>560.0</ele><time>2026-04-25T11:45:44.056Z</time></trkpt><trkpt lat="42.4079426" lon="-7.4295507"><ele>562.6</ele><time>2026-04-25T11:45:45.055Z</time></trkpt><trkpt lat="42.4079046" lon="-7.4296337"><ele>565.2</ele><time>2026-04-25T11:45:46.045Z</time></trkpt><trkpt lat="42.407861" lon="-7.4297295"><ele>567.8</ele><time>2026-04-25T11:45:47.048Z</time></trkpt><trkpt lat="42.4078175" lon="-7.4298659"><ele>570.4</ele><time>2026-04-25T11:45:48.051Z</time></trkpt><trkpt lat="42.4077706" lon="-7.4300512"><ele>573.0</ele><time>2026-04-25T11:45:49.047Z</time></trkpt><trkpt lat="42.4077522" lon="-7.4302503"><ele>573.0</ele><time>2026-04-25T11:45:50.056Z</time></trkpt><trkpt lat="42.4077056" lon="-7.4304032"><ele>573.0</ele><time>2026-04-25T11:45:51.049Z</time></trkpt><trkpt lat="42.4076504" lon="-7.4305414"><ele>573.0</ele><time>2026-04-25T11:45:52.053Z</time></trkpt><trkpt lat="42.4075569" lon="-7.4306659"><ele>573.0</ele><time>2026-04-25T11:45:53.055Z</time></trkpt><trkpt lat="42.4074687" lon="-7.4308041"><ele>572.4</ele><time>2026-04-25T11:45:54.058Z</time></trkpt><trkpt lat="42.4073746" lon="-7.4308931"><ele>571.8</ele><time>2026-04-25T11:45:55.049Z</time></trkpt><trkpt lat="42.4072756" lon="-7.4309838"><ele>571.2</ele><time>2026-04-25T11:45:56.045Z</time></trkpt><trkpt lat="42.4071805" lon="-7.4310509"><ele>570.6</ele><time>2026-04-25T11:45:57.056Z</time></trkpt><trkpt lat="42.4070817" lon="-7.4310845"><ele>570.0</ele><time>2026-04-25T11:45:58.052Z</time></trkpt><trkpt lat="42.4069916" lon="-7.4310803"><ele>570.0</ele><time>2026-04-25T11:45:59.059Z</time></trkpt><trkpt lat="42.4069067" lon="-7.4310328"><ele>570.0</ele><time>2026-04-25T11:46:00.047Z</time></trkpt><trkpt lat="42.4068396" lon="-7.4309415"><ele>570.0</ele><time>2026-04-25T11:46:01.049Z</time></trkpt><trkpt lat="42.4067801" lon="-7.4308205"><ele>570.0</ele><time>2026-04-25T11:46:02.062Z</time></trkpt><trkpt lat="42.4067248" lon="-7.4306847"><ele>570.0</ele><time>2026-04-25T11:46:03.05Z</time></trkpt><trkpt lat="42.4066716" lon="-7.4305374"><ele>572.5</ele><time>2026-04-25T11:46:04.052Z</time></trkpt><trkpt lat="42.4066311" lon="-7.4303812"><ele>575.0</ele><time>2026-04-25T11:46:05.051Z</time></trkpt><trkpt lat="42.4066052" lon="-7.4302356"><ele>577.5</ele><time>2026-04-25T11:46:06.05Z</time></trkpt><trkpt lat="42.4065893" lon="-7.4300904"><ele>580.0</ele><time>2026-04-25T11:46:07.059Z</time></trkpt><trkpt lat="42.4065818" lon="-7.4299436"><ele>580.0</ele><time>2026-04-25T11:46:08.053Z</time></trkpt><trkpt lat="42.4065857" lon="-7.4297948"><ele>580.0</ele><time>2026-04-25T11:46:09.05Z</time></trkpt><trkpt lat="42.4065961" lon="-7.4296397"><ele>580.0</ele><time>2026-04-25T11:46:10.054Z</time></trkpt><trkpt lat="42.4066113" lon="-7.4294797"><ele>580.0</ele><time>2026-04-25T11:46:11.053Z</time></trkpt><trkpt lat="42.406634" lon="-7.4293099"><ele>581.0</ele><time>2026-04-25T11:46:12.058Z</time></trkpt><trkpt lat="42.406659" lon="-7.4291351"><ele>582.0</ele><time>2026-04-25T11:46:13.061Z</time></trkpt><trkpt lat="42.4066772" lon="-7.4289693"><ele>583.0</ele><time>2026-04-25T11:46:14.051Z</time></trkpt><trkpt lat="42.4066898" lon="-7.4287919"><ele>584.0</ele><time>2026-04-25T11:46:15.051Z</time></trkpt><trkpt lat="42.4066991" lon="-7.4285999"><ele>585.25</ele><time>2026-04-25T11:46:16.052Z</time></trkpt><trkpt lat="42.4067079" lon="-7.4283982"><ele>586.5</ele><time>2026-04-25T11:46:17.054Z</time></trkpt><trkpt lat="42.4067169" lon="-7.428201"><ele>587.75</ele><time>2026-04-25T11:46:18.056Z</time></trkpt><trkpt lat="42.406727" lon="-7.4280032"><ele>589.0</ele><time>2026-04-25T11:46:19.048Z</time></trkpt><trkpt lat="42.4067402" lon="-7.4278018"><ele>591.0</ele><time>2026-04-25T11:46:20.047Z</time></trkpt><trkpt lat="42.4067535" lon="-7.4276021"><ele>593.0</ele><time>2026-04-25T11:46:21.062Z</time></trkpt><trkpt lat="42.4067674" lon="-7.427391"><ele>595.0</ele><time>2026-04-25T11:46:22.063Z</time></trkpt><trkpt lat="42.4067823" lon="-7.4271709"><ele>596.0</ele><time>2026-04-25T11:46:23.061Z</time></trkpt><trkpt lat="42.4067991" lon="-7.4269433"><ele>597.0</ele><time>2026-04-25T11:46:24.065Z</time></trkpt><trkpt lat="42.4068194" lon="-7.4267107"><ele>598.0</ele><time>2026-04-25T11:46:25.065Z</time></trkpt><trkpt lat="42.4068438" lon="-7.4264724"><ele>599.6666666666667</ele><time>2026-04-25T11:46:26.054Z</time></trkpt><trkpt lat="42.4068687" lon="-7.426234"><ele>601.3333333333334</ele><time>2026-04-25T11:46:27.053Z</time></trkpt><trkpt lat="42.4068942" lon="-7.4259973"><ele>603.0</ele><time>2026-04-25T11:46:28.052Z</time></trkpt><trkpt lat="42.4069193" lon="-7.4257657"><ele>603.0</ele><time>2026-04-25T11:46:29.051Z</time></trkpt><trkpt lat="42.4069421" lon="-7.425557"><ele>603.0</ele><time>2026-04-25T11:46:30.053Z</time></trkpt><trkpt lat="42.4069607" lon="-7.4253708"><ele>603.0</ele><time>2026-04-25T11:46:31.052Z</time></trkpt><trkpt lat="42.4069674" lon="-7.4252035"><ele>603.0</ele><time>2026-04-25T11:46:32.056Z</time></trkpt><trkpt lat="42.4069532" lon="-7.4250537"><ele>602.8</ele><time>2026-04-25T11:46:33.054Z</time></trkpt><trkpt lat="42.4069162" lon="-7.4249316"><ele>602.5999999999999</ele><time>2026-04-25T11:46:34.058Z</time></trkpt><trkpt lat="42.4068585" lon="-7.4248472"><ele>602.4000000000001</ele><time>2026-04-25T11:46:35.06Z</time></trkpt><trkpt lat="42.4067843" lon="-7.4248063"><ele>602.2</ele><time>2026-04-25T11:46:36.058Z</time></trkpt><trkpt lat="42.4066839" lon="-7.4247878"><ele>602.0</ele><time>2026-04-25T11:46:37.066Z</time></trkpt><trkpt lat="42.4065605" lon="-7.4247731"><ele>602.0</ele><time>2026-04-25T11:46:38.065Z</time></trkpt><trkpt lat="42.4064166" lon="-7.424741"><ele>602.0</ele><time>2026-04-25T11:46:39.05Z</time></trkpt><trkpt lat="42.4062772" lon="-7.4247033"><ele>602.0</ele><time>2026-04-25T11:46:40.049Z</time></trkpt><trkpt lat="42.4061332" lon="-7.4246502"><ele>602.0</ele><time>2026-04-25T11:46:41.053Z</time></trkpt><trkpt lat="42.4059901" lon="-7.4245896"><ele>599.75</ele><time>2026-04-25T11:46:42.05Z</time></trkpt><trkpt lat="42.4058449" lon="-7.4245217"><ele>597.5</ele><time>2026-04-25T11:46:43.057Z</time></trkpt><trkpt lat="42.4057018" lon="-7.4244538"><ele>595.25</ele><time>2026-04-25T11:46:44.056Z</time></trkpt><trkpt lat="42.4055681" lon="-7.424383"><ele>593.0</ele><time>2026-04-25T11:46:45.051Z</time></trkpt><trkpt lat="42.405438" lon="-7.4243135"><ele>593.0</ele><time>2026-04-25T11:46:46.057Z</time></trkpt><trkpt lat="42.4053111" lon="-7.4242448"><ele>593.0</ele><time>2026-04-25T11:46:47.057Z</time></trkpt><trkpt lat="42.4051832" lon="-7.4241799"><ele>593.0</ele><time>2026-04-25T11:46:48.069Z</time></trkpt><trkpt lat="42.4050563" lon="-7.4241119"><ele>593.0</ele><time>2026-04-25T11:46:49.055Z</time></trkpt><trkpt lat="42.4049265" lon="-7.4240301"><ele>593.0</ele><time>2026-04-25T11:46:50.05Z</time></trkpt><trkpt lat="42.404791" lon="-7.4239367"><ele>593.0</ele><time>2026-04-25T11:46:51.057Z</time></trkpt><trkpt lat="42.4046701" lon="-7.4238291"><ele>593.0</ele><time>2026-04-25T11:46:52.054Z</time></trkpt><trkpt lat="42.4045606" lon="-7.4237174"><ele>593.0</ele><time>2026-04-25T11:46:53.055Z</time></trkpt><trkpt lat="42.4044588" lon="-7.4236066"><ele>592.0</ele><time>2026-04-25T11:46:54.051Z</time></trkpt><trkpt lat="42.4043583" lon="-7.4234953"><ele>591.0</ele><time>2026-04-25T11:46:55.056Z</time></trkpt><trkpt lat="42.4042516" lon="-7.423382"><ele>590.0</ele><time>2026-04-25T11:46:56.057Z</time></trkpt><trkpt lat="42.4041405" lon="-7.4232725"><ele>589.0</ele><time>2026-04-25T11:46:57.047Z</time></trkpt><trkpt lat="42.4040258" lon="-7.423162"><ele>589.0</ele><time>2026-04-25T11:46:58.065Z</time></trkpt><trkpt lat="42.4039186" lon="-7.4230586"><ele>589.0</ele><time>2026-04-25T11:46:59.052Z</time></trkpt><trkpt lat="42.4038228" lon="-7.4229495"><ele>589.0</ele><time>2026-04-25T11:47:00.047Z</time></trkpt><trkpt lat="42.4037364" lon="-7.4228319"><ele>589.0</ele><time>2026-04-25T11:47:01.05Z</time></trkpt><trkpt lat="42.4036726" lon="-7.4226954"><ele>591.0</ele><time>2026-04-25T11:47:02.046Z</time></trkpt><trkpt lat="42.4036153" lon="-7.4225405"><ele>593.0</ele><time>2026-04-25T11:47:03.043Z</time></trkpt><trkpt lat="42.4035529" lon="-7.4223722"><ele>595.0</ele><time>2026-04-25T11:47:04.055Z</time></trkpt><trkpt lat="42.4034875" lon="-7.4221956"><ele>597.0</ele><time>2026-04-25T11:47:05.055Z</time></trkpt><trkpt lat="42.4034126" lon="-7.4220114"><ele>591.3333333333334</ele><time>2026-04-25T11:47:06.058Z</time></trkpt><trkpt lat="42.4033272" lon="-7.4218246"><ele>585.6666666666667</ele><time>2026-04-25T11:47:07.048Z</time></trkpt><trkpt lat="42.403232" lon="-7.421636"><ele>580.0</ele><time>2026-04-25T11:47:08.052Z</time></trkpt><trkpt lat="42.4031367" lon="-7.4214598"><ele>583.0</ele><time>2026-04-25T11:47:09.052Z</time></trkpt><trkpt lat="42.4030451" lon="-7.4213022"><ele>586.0</ele><time>2026-04-25T11:47:10.057Z</time></trkpt><trkpt lat="42.4029571" lon="-7.4211602"><ele>589.0</ele><time>2026-04-25T11:47:11.051Z</time></trkpt><trkpt lat="42.4028697" lon="-7.4210286"><ele>592.0</ele><time>2026-04-25T11:47:12.047Z</time></trkpt><trkpt lat="42.4027735" lon="-7.420898"><ele>592.0</ele><time>2026-04-25T11:47:13.054Z</time></trkpt><trkpt lat="42.4026675" lon="-7.4207611"><ele>592.0</ele><time>2026-04-25T11:47:14.048Z</time></trkpt><trkpt lat="42.4025501" lon="-7.4206148"><ele>592.0</ele><time>2026-04-25T11:47:15.042Z</time></trkpt><trkpt lat="42.4024248" lon="-7.4204575"><ele>594.0</ele><time>2026-04-25T11:47:16.047Z</time></trkpt><trkpt lat="42.4022968" lon="-7.4202955"><ele>596.0</ele><time>2026-04-25T11:47:17.048Z</time></trkpt><trkpt lat="42.4021725" lon="-7.4201455"><ele>598.0</ele><time>2026-04-25T11:47:18.045Z</time></trkpt><trkpt lat="42.402053" lon="-7.4200126"><ele>598.0</ele><time>2026-04-25T11:47:19.05Z</time></trkpt><trkpt lat="42.4019375" lon="-7.4198943"><ele>598.0</ele><time>2026-04-25T11:47:20.052Z</time></trkpt><trkpt lat="42.4018195" lon="-7.4197752"><ele>598.0</ele><time>2026-04-25T11:47:21.056Z</time></trkpt><trkpt lat="42.4017003" lon="-7.4196631"><ele>598.0</ele><time>2026-04-25T11:47:22.051Z</time></trkpt><trkpt lat="42.401591" lon="-7.4195676"><ele>596.6</ele><time>2026-04-25T11:47:23.039Z</time></trkpt><trkpt lat="42.4014937" lon="-7.4194906"><ele>595.1999999999999</ele><time>2026-04-25T11:47:24.046Z</time></trkpt><trkpt lat="42.4014098" lon="-7.4194175"><ele>593.8</ele><time>2026-04-25T11:47:25.044Z</time></trkpt><trkpt lat="42.4013428" lon="-7.4193544"><ele>592.4</ele><time>2026-04-25T11:47:26.041Z</time></trkpt><trkpt lat="42.4013649" lon="-7.419184"><ele>591.0</ele><time>2026-04-25T11:47:28.046Z</time></trkpt><trkpt lat="42.4014152" lon="-7.4191324"><ele>591.0</ele><time>2026-04-25T11:47:29.046Z</time></trkpt><trkpt lat="42.4014924" lon="-7.4191156"><ele>591.0</ele><time>2026-04-25T11:47:30.047Z</time></trkpt><trkpt lat="42.4015934" lon="-7.4191249"><ele>591.0</ele><time>2026-04-25T11:47:31.042Z</time></trkpt><trkpt lat="42.4017133" lon="-7.4191266"><ele>591.0</ele><time>2026-04-25T11:47:32.047Z</time></trkpt><trkpt lat="42.4018353" lon="-7.419121"><ele>591.0</ele><time>2026-04-25T11:47:33.049Z</time></trkpt><trkpt lat="42.4019683" lon="-7.4191096"><ele>591.0</ele><time>2026-04-25T11:47:34.04Z</time></trkpt><trkpt lat="42.4021082" lon="-7.4190896"><ele>591.0</ele><time>2026-04-25T11:47:35.045Z</time></trkpt><trkpt lat="42.4022511" lon="-7.4190718"><ele>591.0</ele><time>2026-04-25T11:47:36.047Z</time></trkpt><trkpt lat="42.4023807" lon="-7.4190483"><ele>591.0</ele><time>2026-04-25T11:47:37.047Z</time></trkpt><trkpt lat="42.4024898" lon="-7.4190163"><ele>590.4</ele><time>2026-04-25T11:47:38.048Z</time></trkpt><trkpt lat="42.4025919" lon="-7.4189845"><ele>589.8</ele><time>2026-04-25T11:47:39.051Z</time></trkpt><trkpt lat="42.4026824" lon="-7.4189625"><ele>589.1999999999999</ele><time>2026-04-25T11:47:40.043Z</time></trkpt><trkpt lat="42.4027682" lon="-7.4190013"><ele>588.6</ele><time>2026-04-25T11:47:41.044Z</time></trkpt><trkpt lat="42.4028609" lon="-7.4190533"><ele>588.0</ele><time>2026-04-25T11:47:42.043Z</time></trkpt><trkpt lat="42.4029808" lon="-7.4191067"><ele>589.75</ele><time>2026-04-25T11:47:43.046Z</time></trkpt><trkpt lat="42.4031086" lon="-7.4191292"><ele>591.5</ele><time>2026-04-25T11:47:44.047Z</time></trkpt><trkpt lat="42.4032486" lon="-7.41915"><ele>593.25</ele><time>2026-04-25T11:47:45.053Z</time></trkpt><trkpt lat="42.4033973" lon="-7.4191714"><ele>595.0</ele><time>2026-04-25T11:47:46.052Z</time></trkpt><trkpt lat="42.4035363" lon="-7.4191901"><ele>595.0</ele><time>2026-04-25T11:47:47.051Z</time></trkpt><trkpt lat="42.4036536" lon="-7.4191996"><ele>595.0</ele><time>2026-04-25T11:47:48.052Z</time></trkpt><trkpt lat="42.4037541" lon="-7.4192018"><ele>595.0</ele><time>2026-04-25T11:47:49.054Z</time></trkpt><trkpt lat="42.4038335" lon="-7.4191856"><ele>595.0</ele><time>2026-04-25T11:47:50.051Z</time></trkpt><trkpt lat="42.4038981" lon="-7.4191365"><ele>595.0</ele><time>2026-04-25T11:47:51.052Z</time></trkpt><trkpt lat="42.403947" lon="-7.4190499"><ele>596.6</ele><time>2026-04-25T11:47:52.052Z</time></trkpt><trkpt lat="42.4039937" lon="-7.4189312"><ele>598.2</ele><time>2026-04-25T11:47:53.048Z</time></trkpt><trkpt lat="42.4040482" lon="-7.4187906"><ele>599.8</ele><time>2026-04-25T11:47:54.046Z</time></trkpt><trkpt lat="42.404106" lon="-7.4186738"><ele>601.4</ele><time>2026-04-25T11:47:55.049Z</time></trkpt><trkpt lat="42.4041647" lon="-7.41859"><ele>603.0</ele><time>2026-04-25T11:47:56.047Z</time></trkpt><trkpt lat="42.4042079" lon="-7.418526"><ele>603.0</ele><time>2026-04-25T11:47:57.047Z</time></trkpt><trkpt lat="42.40427" lon="-7.4185409"><ele>603.0</ele><time>2026-04-25T11:47:58.046Z</time></trkpt><trkpt lat="42.4043318" lon="-7.4185752"><ele>603.0</ele><time>2026-04-25T11:47:59.047Z</time></trkpt><trkpt lat="42.4043868" lon="-7.4186657"><ele>603.0</ele><time>2026-04-25T11:48:00.045Z</time></trkpt><trkpt lat="42.4044437" lon="-7.4187992"><ele>603.0</ele><time>2026-04-25T11:48:01.047Z</time></trkpt><trkpt lat="42.4044967" lon="-7.4189675"><ele>603.0</ele><time>2026-04-25T11:48:02.05Z</time></trkpt><trkpt lat="42.4045556" lon="-7.4191542"><ele>603.0</ele><time>2026-04-25T11:48:03.045Z</time></trkpt><trkpt lat="42.4046389" lon="-7.4193649"><ele>603.0</ele><time>2026-04-25T11:48:04.048Z</time></trkpt><trkpt lat="42.4047067" lon="-7.4195415"><ele>607.6666666666666</ele><time>2026-04-25T11:48:05.049Z</time></trkpt><trkpt lat="42.4047751" lon="-7.4197313"><ele>612.3333333333333</ele><time>2026-04-25T11:48:06.048Z</time></trkpt><trkpt lat="42.4048596" lon="-7.4199068"><ele>617.0</ele><time>2026-04-25T11:48:07.042Z</time></trkpt><trkpt lat="42.4049442" lon="-7.4200638"><ele>617.0</ele><time>2026-04-25T11:48:08.054Z</time></trkpt><trkpt lat="42.405038" lon="-7.4201855"><ele>617.0</ele><time>2026-04-25T11:48:09.053Z</time></trkpt><trkpt lat="42.4051498" lon="-7.4202931"><ele>617.0</ele><time>2026-04-25T11:48:10.043Z</time></trkpt><trkpt lat="42.4052771" lon="-7.4203885"><ele>617.0</ele><time>2026-04-25T11:48:11.043Z</time></trkpt><trkpt lat="42.4054172" lon="-7.4204699"><ele>615.0</ele><time>2026-04-25T11:48:12.046Z</time></trkpt><trkpt lat="42.4055555" lon="-7.4205254"><ele>613.0</ele><time>2026-04-25T11:48:13.05Z</time></trkpt><trkpt lat="42.4057056" lon="-7.4205569"><ele>611.0</ele><time>2026-04-25T11:48:14.048Z</time></trkpt><trkpt lat="42.4058686" lon="-7.4205809"><ele>611.0</ele><time>2026-04-25T11:48:15.047Z</time></trkpt><trkpt lat="42.4060275" lon="-7.4205968"><ele>611.0</ele><time>2026-04-25T11:48:16.049Z</time></trkpt><trkpt lat="42.4061811" lon="-7.4205908"><ele>611.0</ele><time>2026-04-25T11:48:17.049Z</time></trkpt><trkpt lat="42.4063341" lon="-7.420577"><ele>612.0</ele><time>2026-04-25T11:48:18.056Z</time></trkpt><trkpt lat="42.406488" lon="-7.420553"><ele>613.0</ele><time>2026-04-25T11:48:19.043Z</time></trkpt><trkpt lat="42.4066446" lon="-7.4205132"><ele>614.0</ele><time>2026-04-25T11:48:20.049Z</time></trkpt><trkpt lat="42.4068012" lon="-7.4204658"><ele>625.3333333333333</ele><time>2026-04-25T11:48:21.043Z</time></trkpt><trkpt lat="42.4069608" lon="-7.4204155"><ele>636.6666666666666</ele><time>2026-04-25T11:48:22.047Z</time></trkpt><trkpt lat="42.4071216" lon="-7.4203699"><ele>648.0</ele><time>2026-04-25T11:48:23.048Z</time></trkpt><trkpt lat="42.4072825" lon="-7.4203308"><ele>648.3333333333334</ele><time>2026-04-25T11:48:24.049Z</time></trkpt><trkpt lat="42.4074406" lon="-7.4202904"><ele>648.6666666666667</ele><time>2026-04-25T11:48:25.043Z</time></trkpt><trkpt lat="42.4076056" lon="-7.420252"><ele>649.0</ele><time>2026-04-25T11:48:26.05Z</time></trkpt><trkpt lat="42.4077738" lon="-7.420226"><ele>649.0</ele><time>2026-04-25T11:48:27.056Z</time></trkpt><trkpt lat="42.4079544" lon="-7.4201973"><ele>649.0</ele><time>2026-04-25T11:48:28.049Z</time></trkpt><trkpt lat="42.4081265" lon="-7.4201587"><ele>649.0</ele><time>2026-04-25T11:48:29.046Z</time></trkpt><trkpt lat="42.4082764" lon="-7.4201248"><ele>648.5</ele><time>2026-04-25T11:48:30.059Z</time></trkpt><trkpt lat="42.4084103" lon="-7.4201143"><ele>648.0</ele><time>2026-04-25T11:48:31.048Z</time></trkpt><trkpt lat="42.4085497" lon="-7.4201343"><ele>647.5</ele><time>2026-04-25T11:48:32.054Z</time></trkpt><trkpt lat="42.4087021" lon="-7.4201635"><ele>647.0</ele><time>2026-04-25T11:48:33.049Z</time></trkpt><trkpt lat="42.4088403" lon="-7.4201867"><ele>647.8</ele><time>2026-04-25T11:48:34.046Z</time></trkpt><trkpt lat="42.4089639" lon="-7.4201918"><ele>648.6</ele><time>2026-04-25T11:48:35.057Z</time></trkpt><trkpt lat="42.4090656" lon="-7.4201758"><ele>649.4</ele><time>2026-04-25T11:48:36.054Z</time></trkpt><trkpt lat="42.4091579" lon="-7.4201316"><ele>650.1999999999999</ele><time>2026-04-25T11:48:37.053Z</time></trkpt><trkpt lat="42.4092418" lon="-7.4200573"><ele>651.0</ele><time>2026-04-25T11:48:38.058Z</time></trkpt><trkpt lat="42.4093115" lon="-7.419948"><ele>651.0</ele><time>2026-04-25T11:48:39.046Z</time></trkpt><trkpt lat="42.4093635" lon="-7.4198097"><ele>651.0</ele><time>2026-04-25T11:48:40.052Z</time></trkpt><trkpt lat="42.4093959" lon="-7.4196549"><ele>651.0</ele><time>2026-04-25T11:48:41.046Z</time></trkpt><trkpt lat="42.4094067" lon="-7.4195205"><ele>651.0</ele><time>2026-04-25T11:48:42.042Z</time></trkpt><trkpt lat="42.4093977" lon="-7.4194318"><ele>651.0</ele><time>2026-04-25T11:48:43.046Z</time></trkpt><trkpt lat="42.4093613" lon="-7.4192737"><ele>652.8333333333334</ele><time>2026-04-25T11:48:45.055Z</time></trkpt><trkpt lat="42.4093594" lon="-7.4191638"><ele>654.6666666666666</ele><time>2026-04-25T11:48:46.048Z</time></trkpt><trkpt lat="42.409349" lon="-7.419053"><ele>656.5</ele><time>2026-04-25T11:48:47.046Z</time></trkpt><trkpt lat="42.4093608" lon="-7.418941"><ele>658.3333333333333</ele><time>2026-04-25T11:48:48.046Z</time></trkpt><trkpt lat="42.4093648" lon="-7.4188385"><ele>660.1666666666666</ele><time>2026-04-25T11:48:49.054Z</time></trkpt><trkpt lat="42.4093809" lon="-7.418738"><ele>662.0</ele><time>2026-04-25T11:48:50.05Z</time></trkpt><trkpt lat="42.4094228" lon="-7.4186621"><ele>662.0</ele><time>2026-04-25T11:48:51.049Z</time></trkpt><trkpt lat="42.4094928" lon="-7.4186421"><ele>662.0</ele><time>2026-04-25T11:48:53.049Z</time></trkpt><trkpt lat="42.4096172" lon="-7.418714"><ele>662.0</ele><time>2026-04-25T11:48:55.057Z</time></trkpt><trkpt lat="42.4096816" lon="-7.4187806"><ele>662.0</ele><time>2026-04-25T11:48:56.05Z</time></trkpt><trkpt lat="42.4097371" lon="-7.4188533"><ele>662.0</ele><time>2026-04-25T11:48:57.056Z</time></trkpt><trkpt lat="42.4097933" lon="-7.4189202"><ele>662.0</ele><time>2026-04-25T11:48:58.05Z</time></trkpt><trkpt lat="42.4098555" lon="-7.4189682"><ele>659.6</ele><time>2026-04-25T11:48:59.044Z</time></trkpt><trkpt lat="42.4099171" lon="-7.4190063"><ele>657.2</ele><time>2026-04-25T11:49:00.045Z</time></trkpt><trkpt lat="42.4100119" lon="-7.4190256"><ele>654.8</ele><time>2026-04-25T11:49:01.047Z</time></trkpt><trkpt lat="42.4101231" lon="-7.4190298"><ele>652.4</ele><time>2026-04-25T11:49:02.045Z</time></trkpt><trkpt lat="42.4102328" lon="-7.4190351"><ele>650.0</ele><time>2026-04-25T11:49:03.046Z</time></trkpt><trkpt lat="42.4103337" lon="-7.4190338"><ele>650.0</ele><time>2026-04-25T11:49:04.047Z</time></trkpt><trkpt lat="42.4103999" lon="-7.4190446"><ele>650.0</ele><time>2026-04-25T11:49:05.051Z</time></trkpt><trkpt lat="42.4104685" lon="-7.4190587"><ele>650.0</ele><time>2026-04-25T11:49:06.05Z</time></trkpt><trkpt lat="42.4105402" lon="-7.4190797"><ele>650.0</ele><time>2026-04-25T11:49:07.041Z</time></trkpt><trkpt lat="42.4106107" lon="-7.4191054"><ele>650.0</ele><time>2026-04-25T11:49:08.053Z</time></trkpt><trkpt lat="42.4106964" lon="-7.4191532"><ele>650.0</ele><time>2026-04-25T11:49:09.05Z</time></trkpt><trkpt lat="42.4107763" lon="-7.4192019"><ele>649.8</ele><time>2026-04-25T11:49:10.047Z</time></trkpt><trkpt lat="42.4108606" lon="-7.4192636"><ele>649.6</ele><time>2026-04-25T11:49:11.053Z</time></trkpt><trkpt lat="42.4109456" lon="-7.4193338"><ele>649.4000000000001</ele><time>2026-04-25T11:49:12.046Z</time></trkpt><trkpt lat="42.411018" lon="-7.41941"><ele>649.2</ele><time>2026-04-25T11:49:13.041Z</time></trkpt><trkpt lat="42.4110891" lon="-7.4194893"><ele>649.0</ele><time>2026-04-25T11:49:14.048Z</time></trkpt><trkpt lat="42.4111587" lon="-7.4195713"><ele>647.6</ele><time>2026-04-25T11:49:15.056Z</time></trkpt><trkpt lat="42.4112298" lon="-7.4196535"><ele>646.2</ele><time>2026-04-25T11:49:16.046Z</time></trkpt><trkpt lat="42.4113029" lon="-7.4197395"><ele>644.8000000000001</ele><time>2026-04-25T11:49:17.052Z</time></trkpt><trkpt lat="42.4113784" lon="-7.4198267"><ele>643.4000000000001</ele><time>2026-04-25T11:49:18.055Z</time></trkpt><trkpt lat="42.4114509" lon="-7.4199046"><ele>642.0</ele><time>2026-04-25T11:49:19.054Z</time></trkpt><trkpt lat="42.4115178" lon="-7.4199763"><ele>642.0</ele><time>2026-04-25T11:49:20.051Z</time></trkpt><trkpt lat="42.4115805" lon="-7.4200392"><ele>642.0</ele><time>2026-04-25T11:49:21.046Z</time></trkpt><trkpt lat="42.4116414" lon="-7.4200971"><ele>642.0</ele><time>2026-04-25T11:49:22.051Z</time></trkpt><trkpt lat="42.411704" lon="-7.4201452"><ele>642.0</ele><time>2026-04-25T11:49:23.042Z</time></trkpt><trkpt lat="42.411783" lon="-7.4201842"><ele>642.0</ele><time>2026-04-25T11:49:24.045Z</time></trkpt><trkpt lat="42.4118649" lon="-7.4202072"><ele>642.0</ele><time>2026-04-25T11:49:25.049Z</time></trkpt><trkpt lat="42.4119697" lon="-7.4202165"><ele>642.0</ele><time>2026-04-25T11:49:26.046Z</time></trkpt><trkpt lat="42.4120729" lon="-7.4202215"><ele>642.0</ele><time>2026-04-25T11:49:27.048Z</time></trkpt><trkpt lat="42.4121769" lon="-7.4202335"><ele>642.0</ele><time>2026-04-25T11:49:28.05Z</time></trkpt><trkpt lat="42.4122758" lon="-7.4202531"><ele>642.0</ele><time>2026-04-25T11:49:29.046Z</time></trkpt><trkpt lat="42.4123788" lon="-7.4202783"><ele>642.0</ele><time>2026-04-25T11:49:30.05Z</time></trkpt><trkpt lat="42.4124784" lon="-7.4202966"><ele>641.8</ele><time>2026-04-25T11:49:31.05Z</time></trkpt><trkpt lat="42.4125808" lon="-7.4203061"><ele>641.6</ele><time>2026-04-25T11:49:32.044Z</time></trkpt><trkpt lat="42.4126854" lon="-7.4203213"><ele>641.4</ele><time>2026-04-25T11:49:33.047Z</time></trkpt><trkpt lat="42.412801" lon="-7.4203377"><ele>641.1999999999999</ele><time>2026-04-25T11:49:34.052Z</time></trkpt><trkpt lat="42.412923" lon="-7.4203567"><ele>641.0</ele><time>2026-04-25T11:49:35.049Z</time></trkpt><trkpt lat="42.4130496" lon="-7.4203792"><ele>641.0</ele><time>2026-04-25T11:49:36.052Z</time></trkpt><trkpt lat="42.4131893" lon="-7.4203842"><ele>641.0</ele><time>2026-04-25T11:49:37.054Z</time></trkpt><trkpt lat="42.4133337" lon="-7.4203779"><ele>641.0</ele><time>2026-04-25T11:49:38.049Z</time></trkpt><trkpt lat="42.4134702" lon="-7.4203639"><ele>641.0</ele><time>2026-04-25T11:49:39.052Z</time></trkpt><trkpt lat="42.4136015" lon="-7.4203447"><ele>641.0</ele><time>2026-04-25T11:49:40.05Z</time></trkpt><trkpt lat="42.4137307" lon="-7.4202912"><ele>641.0</ele><time>2026-04-25T11:49:41.05Z</time></trkpt><trkpt lat="42.4138543" lon="-7.4202301"><ele>641.0</ele><time>2026-04-25T11:49:42.047Z</time></trkpt><trkpt lat="42.4139782" lon="-7.4201464"><ele>641.0</ele><time>2026-04-25T11:49:43.049Z</time></trkpt><trkpt lat="42.4140881" lon="-7.4200515"><ele>640.25</ele><time>2026-04-25T11:49:44.053Z</time></trkpt><trkpt lat="42.4141874" lon="-7.4199535"><ele>639.5</ele><time>2026-04-25T11:49:45.049Z</time></trkpt><trkpt lat="42.4142808" lon="-7.4198487"><ele>638.75</ele><time>2026-04-25T11:49:46.049Z</time></trkpt><trkpt lat="42.4143672" lon="-7.4197479"><ele>638.0</ele><time>2026-04-25T11:49:47.054Z</time></trkpt><trkpt lat="42.4144407" lon="-7.4196546"><ele>640.0</ele><time>2026-04-25T11:49:48.049Z</time></trkpt><trkpt lat="42.4145035" lon="-7.4195708"><ele>642.0</ele><time>2026-04-25T11:49:49.052Z</time></trkpt><trkpt lat="42.4145371" lon="-7.4194715"><ele>644.0</ele><time>2026-04-25T11:49:50.052Z</time></trkpt><trkpt lat="42.4145509" lon="-7.4193604"><ele>646.0</ele><time>2026-04-25T11:49:51.05Z</time></trkpt><trkpt lat="42.4145577" lon="-7.4192327"><ele>648.0</ele><time>2026-04-25T11:49:52.049Z</time></trkpt><trkpt lat="42.4145661" lon="-7.4190974"><ele>650.0</ele><time>2026-04-25T11:49:53.05Z</time></trkpt><trkpt lat="42.4145848" lon="-7.4189569"><ele>650.8</ele><time>2026-04-25T11:49:54.046Z</time></trkpt><trkpt lat="42.4146085" lon="-7.418806"><ele>651.6</ele><time>2026-04-25T11:49:55.049Z</time></trkpt><trkpt lat="42.4146281" lon="-7.4186652"><ele>652.4000000000001</ele><time>2026-04-25T11:49:56.045Z</time></trkpt><trkpt lat="42.4146597" lon="-7.4185184"><ele>653.2</ele><time>2026-04-25T11:49:57.071Z</time></trkpt><trkpt lat="42.4146829" lon="-7.4183802"><ele>654.0</ele><time>2026-04-25T11:49:58.051Z</time></trkpt><trkpt lat="42.4147205" lon="-7.418249"><ele>650.6666666666666</ele><time>2026-04-25T11:49:59.05Z</time></trkpt><trkpt lat="42.414758" lon="-7.4181306"><ele>647.3333333333334</ele><time>2026-04-25T11:50:00.056Z</time></trkpt><trkpt lat="42.4147936" lon="-7.4180149"><ele>644.0</ele><time>2026-04-25T11:50:01.055Z</time></trkpt><trkpt lat="42.414825" lon="-7.4179122"><ele>640.6666666666667</ele><time>2026-04-25T11:50:02.058Z</time></trkpt><trkpt lat="42.4148471" lon="-7.4178157"><ele>637.3333333333334</ele><time>2026-04-25T11:50:03.05Z</time></trkpt><trkpt lat="42.4148426" lon="-7.4177233"><ele>634.0</ele><time>2026-04-25T11:50:04.049Z</time></trkpt><trkpt lat="42.4148153" lon="-7.4176219"><ele>633.75</ele><time>2026-04-25T11:50:05.054Z</time></trkpt><trkpt lat="42.4147618" lon="-7.4175029"><ele>633.5</ele><time>2026-04-25T11:50:06.051Z</time></trkpt><trkpt lat="42.4146862" lon="-7.4173659"><ele>633.25</ele><time>2026-04-25T11:50:07.057Z</time></trkpt><trkpt lat="42.4145949" lon="-7.4172115"><ele>633.0</ele><time>2026-04-25T11:50:08.053Z</time></trkpt><trkpt lat="42.4145012" lon="-7.4170534"><ele>633.75</ele><time>2026-04-25T11:50:09.06Z</time></trkpt><trkpt lat="42.4144119" lon="-7.4169028"><ele>634.5</ele><time>2026-04-25T11:50:10.058Z</time></trkpt><trkpt lat="42.4143291" lon="-7.4167698"><ele>635.25</ele><time>2026-04-25T11:50:11.046Z</time></trkpt><trkpt lat="42.4142469" lon="-7.4166464"><ele>636.0</ele><time>2026-04-25T11:50:12.047Z</time></trkpt><trkpt lat="42.4141717" lon="-7.4165514"><ele>636.0</ele><time>2026-04-25T11:50:13.061Z</time></trkpt><trkpt lat="42.4140984" lon="-7.416477"><ele>636.0</ele><time>2026-04-25T11:50:14.052Z</time></trkpt><trkpt lat="42.4140354" lon="-7.4164348"><ele>636.0</ele><time>2026-04-25T11:50:15.045Z</time></trkpt><trkpt lat="42.4139784" lon="-7.4163703"><ele>636.0</ele><time>2026-04-25T11:50:16.047Z</time></trkpt><trkpt lat="42.413967" lon="-7.4162225"><ele>636.0</ele><time>2026-04-25T11:50:18.051Z</time></trkpt><trkpt lat="42.414011" lon="-7.4161395"><ele>636.0</ele><time>2026-04-25T11:50:19.054Z</time></trkpt><trkpt lat="42.4141022" lon="-7.4161013"><ele>635.6</ele><time>2026-04-25T11:50:20.054Z</time></trkpt><trkpt lat="42.414213" lon="-7.4160707"><ele>635.2</ele><time>2026-04-25T11:50:21.05Z</time></trkpt><trkpt lat="42.4143139" lon="-7.4160295"><ele>634.8</ele><time>2026-04-25T11:50:22.055Z</time></trkpt><trkpt lat="42.4144038" lon="-7.4159799"><ele>634.4</ele><time>2026-04-25T11:50:23.05Z</time></trkpt><trkpt lat="42.4144912" lon="-7.4158874"><ele>634.0</ele><time>2026-04-25T11:50:24.051Z</time></trkpt><trkpt lat="42.4145831" lon="-7.4157768"><ele>631.8</ele><time>2026-04-25T11:50:25.053Z</time></trkpt><trkpt lat="42.4146672" lon="-7.4156585"><ele>629.5999999999999</ele><time>2026-04-25T11:50:26.057Z</time></trkpt><trkpt lat="42.4147026" lon="-7.4155608"><ele>627.4</ele><time>2026-04-25T11:50:27.046Z</time></trkpt><trkpt lat="42.4147222" lon="-7.4154771"><ele>625.1999999999999</ele><time>2026-04-25T11:50:28.049Z</time></trkpt><trkpt lat="42.4147023" lon="-7.4153446"><ele>623.0</ele><time>2026-04-25T11:50:29.049Z</time></trkpt><trkpt lat="42.4146664" lon="-7.4151765"><ele>626.1999999999999</ele><time>2026-04-25T11:50:30.057Z</time></trkpt><trkpt lat="42.4146253" lon="-7.4149986"><ele>629.4</ele><time>2026-04-25T11:50:31.053Z</time></trkpt><trkpt lat="42.4145924" lon="-7.4148525"><ele>632.5999999999999</ele><time>2026-04-25T11:50:32.053Z</time></trkpt><trkpt lat="42.4145628" lon="-7.4147396"><ele>635.8</ele><time>2026-04-25T11:50:33.041Z</time></trkpt><trkpt lat="42.4145279" lon="-7.4146434"><ele>639.0</ele><time>2026-04-25T11:50:34.055Z</time></trkpt><trkpt lat="42.4145219" lon="-7.4145562"><ele>639.4</ele><time>2026-04-25T11:50:35.052Z</time></trkpt><trkpt lat="42.4145712" lon="-7.414445"><ele>639.8</ele><time>2026-04-25T11:50:37.051Z</time></trkpt><trkpt lat="42.4146833" lon="-7.414404"><ele>640.1999999999999</ele><time>2026-04-25T11:50:39.062Z</time></trkpt><trkpt lat="42.4147943" lon="-7.414426"><ele>640.5999999999999</ele><time>2026-04-25T11:50:40.051Z</time></trkpt><trkpt lat="42.4149051" lon="-7.4144424"><ele>641.0</ele><time>2026-04-25T11:50:41.051Z</time></trkpt><trkpt lat="42.4150052" lon="-7.4144217"><ele>638.5</ele><time>2026-04-25T11:50:42.051Z</time></trkpt><trkpt lat="42.4151089" lon="-7.414363"><ele>636.0</ele><time>2026-04-25T11:50:43.051Z</time></trkpt><trkpt lat="42.4152163" lon="-7.4142789"><ele>633.5</ele><time>2026-04-25T11:50:44.044Z</time></trkpt><trkpt lat="42.4153279" lon="-7.4141776"><ele>631.0</ele><time>2026-04-25T11:50:45.046Z</time></trkpt><trkpt lat="42.415442" lon="-7.4140501"><ele>630.4</ele><time>2026-04-25T11:50:46.052Z</time></trkpt><trkpt lat="42.4155327" lon="-7.4139341"><ele>629.8</ele><time>2026-04-25T11:50:47.044Z</time></trkpt><trkpt lat="42.4155892" lon="-7.4138278"><ele>629.1999999999999</ele><time>2026-04-25T11:50:48.06Z</time></trkpt><trkpt lat="42.4156164" lon="-7.4137222"><ele>628.6</ele><time>2026-04-25T11:50:49.053Z</time></trkpt><trkpt lat="42.4156228" lon="-7.4135806"><ele>628.0</ele><time>2026-04-25T11:50:50.049Z</time></trkpt><trkpt lat="42.4156295" lon="-7.4134188"><ele>631.0</ele><time>2026-04-25T11:50:51.044Z</time></trkpt><trkpt lat="42.4156278" lon="-7.4132243"><ele>634.0</ele><time>2026-04-25T11:50:52.051Z</time></trkpt><trkpt lat="42.4156488" lon="-7.4130577"><ele>637.0</ele><time>2026-04-25T11:50:53.058Z</time></trkpt><trkpt lat="42.4157045" lon="-7.4129388"><ele>640.0</ele><time>2026-04-25T11:50:54.056Z</time></trkpt><trkpt lat="42.4157572" lon="-7.4128207"><ele>641.0</ele><time>2026-04-25T11:50:55.058Z</time></trkpt><trkpt lat="42.4157912" lon="-7.4126962"><ele>642.0</ele><time>2026-04-25T11:50:56.06Z</time></trkpt><trkpt lat="42.4158206" lon="-7.4125578"><ele>643.0</ele><time>2026-04-25T11:50:57.049Z</time></trkpt><trkpt lat="42.4158156" lon="-7.412378"><ele>644.0</ele><time>2026-04-25T11:50:58.045Z</time></trkpt><trkpt lat="42.4158114" lon="-7.4122113"><ele>646.0</ele><time>2026-04-25T11:50:59.043Z</time></trkpt><trkpt lat="42.4158207" lon="-7.4120763"><ele>648.0</ele><time>2026-04-25T11:51:00.053Z</time></trkpt><trkpt lat="42.4158557" lon="-7.411963"><ele>650.0</ele><time>2026-04-25T11:51:01.058Z</time></trkpt><trkpt lat="42.4159569" lon="-7.4118582"><ele>652.0</ele><time>2026-04-25T11:51:02.054Z</time></trkpt><trkpt lat="42.4160622" lon="-7.4117632"><ele>654.0</ele><time>2026-04-25T11:51:03.047Z</time></trkpt><trkpt lat="42.4161574" lon="-7.4116739"><ele>654.0</ele><time>2026-04-25T11:51:04.051Z</time></trkpt><trkpt lat="42.4162018" lon="-7.4115698"><ele>654.0</ele><time>2026-04-25T11:51:05.048Z</time></trkpt><trkpt lat="42.4162462" lon="-7.4114567"><ele>654.0</ele><time>2026-04-25T11:51:06.056Z</time></trkpt><trkpt lat="42.4162716" lon="-7.4112844"><ele>654.0</ele><time>2026-04-25T11:51:07.062Z</time></trkpt><trkpt lat="42.4162948" lon="-7.411071"><ele>653.6666666666666</ele><time>2026-04-25T11:51:08.052Z</time></trkpt><trkpt lat="42.4163117" lon="-7.4108476"><ele>653.3333333333333</ele><time>2026-04-25T11:51:09.046Z</time></trkpt><trkpt lat="42.4163176" lon="-7.4106229"><ele>653.0</ele><time>2026-04-25T11:51:10.047Z</time></trkpt><trkpt lat="42.4163403" lon="-7.4103934"><ele>653.0</ele><time>2026-04-25T11:51:11.054Z</time></trkpt><trkpt lat="42.4163579" lon="-7.4102356"><ele>653.0</ele><time>2026-04-25T11:51:12.05Z</time></trkpt><trkpt lat="42.4163725" lon="-7.4100729"><ele>653.0</ele><time>2026-04-25T11:51:13.043Z</time></trkpt><trkpt lat="42.4164252" lon="-7.4099454"><ele>653.0</ele><time>2026-04-25T11:51:14.049Z</time></trkpt><trkpt lat="42.4164853" lon="-7.4098515"><ele>653.0</ele><time>2026-04-25T11:51:15.049Z</time></trkpt><trkpt lat="42.416529" lon="-7.4097798"><ele>653.0</ele><time>2026-04-25T11:51:16.051Z</time></trkpt><trkpt lat="42.4165934" lon="-7.4096913"><ele>653.0</ele><time>2026-04-25T11:51:18.054Z</time></trkpt><trkpt lat="42.4165772" lon="-7.4095339"><ele>653.0</ele><time>2026-04-25T11:58:37.057Z</time></trkpt><trkpt lat="42.4165536" lon="-7.4094182"><ele>653.0</ele><time>2026-04-25T11:58:38.053Z</time></trkpt><trkpt lat="42.4165201" lon="-7.4092699"><ele>653.0</ele><time>2026-04-25T11:58:39.046Z</time></trkpt><trkpt lat="42.4165016" lon="-7.4091477"><ele>654.0</ele><time>2026-04-25T11:58:40.052Z</time></trkpt><trkpt lat="42.4164823" lon="-7.4090095"><ele>655.0</ele><time>2026-04-25T11:58:41.047Z</time></trkpt><trkpt lat="42.4164996" lon="-7.4088642"><ele>656.0</ele><time>2026-04-25T11:58:42.049Z</time></trkpt><trkpt lat="42.4165285" lon="-7.4087284"><ele>657.0</ele><time>2026-04-25T11:58:43.051Z</time></trkpt><trkpt lat="42.4165605" lon="-7.4086"><ele>658.0</ele><time>2026-04-25T11:58:44.049Z</time></trkpt><trkpt lat="42.4165883" lon="-7.4084758"><ele>658.1666666666667</ele><time>2026-04-25T11:58:45.046Z</time></trkpt><trkpt lat="42.4165913" lon="-7.4083612"><ele>658.3333333333334</ele><time>2026-04-25T11:58:46.045Z</time></trkpt><trkpt lat="42.4165903" lon="-7.4082558"><ele>658.5</ele><time>2026-04-25T11:58:47.05Z</time></trkpt><trkpt lat="42.4165866" lon="-7.4081565"><ele>658.6666666666666</ele><time>2026-04-25T11:58:48.045Z</time></trkpt><trkpt lat="42.4165926" lon="-7.4080596"><ele>658.8333333333333</ele><time>2026-04-25T11:58:49.049Z</time></trkpt><trkpt lat="42.4166205" lon="-7.4079508"><ele>659.0</ele><time>2026-04-25T11:58:50.048Z</time></trkpt><trkpt lat="42.4166486" lon="-7.4078415"><ele>658.5</ele><time>2026-04-25T11:58:51.061Z</time></trkpt><trkpt lat="42.4166658" lon="-7.4077211"><ele>658.0</ele><time>2026-04-25T11:58:52.052Z</time></trkpt><trkpt lat="42.4166617" lon="-7.4076104"><ele>657.5</ele><time>2026-04-25T11:58:53.049Z</time></trkpt><trkpt lat="42.4166475" lon="-7.4074834"><ele>657.0</ele><time>2026-04-25T11:58:54.045Z</time></trkpt><trkpt lat="42.4166338" lon="-7.4073667"><ele>656.5</ele><time>2026-04-25T11:58:55.05Z</time></trkpt><trkpt lat="42.4166238" lon="-7.4072515"><ele>656.0</ele><time>2026-04-25T11:58:56.051Z</time></trkpt><trkpt lat="42.4166169" lon="-7.4071371"><ele>655.1999999999999</ele><time>2026-04-25T11:58:57.05Z</time></trkpt><trkpt lat="42.4166076" lon="-7.4070286"><ele>654.4</ele><time>2026-04-25T11:58:58.067Z</time></trkpt><trkpt lat="42.4165941" lon="-7.4068992"><ele>653.6</ele><time>2026-04-25T11:58:59.055Z</time></trkpt><trkpt lat="42.4165719" lon="-7.4067468"><ele>652.8</ele><time>2026-04-25T11:59:00.05Z</time></trkpt><trkpt lat="42.4165432" lon="-7.4066011"><ele>652.0</ele><time>2026-04-25T11:59:01.046Z</time></trkpt><trkpt lat="42.4165162" lon="-7.4064687"><ele>652.0</ele><time>2026-04-25T11:59:02.055Z</time></trkpt><trkpt lat="42.4164741" lon="-7.406376"><ele>652.0</ele><time>2026-04-25T11:59:03.046Z</time></trkpt><trkpt lat="42.4164292" lon="-7.4062992"><ele>652.0</ele><time>2026-04-25T11:59:04.049Z</time></trkpt><trkpt lat="42.4163791" lon="-7.4062341"><ele>652.0</ele><time>2026-04-25T11:59:05.049Z</time></trkpt><trkpt lat="42.4163295" lon="-7.4061727"><ele>652.0</ele><time>2026-04-25T11:59:06.053Z</time></trkpt><trkpt lat="42.4162084" lon="-7.4060977"><ele>652.0</ele><time>2026-04-25T11:59:08.05Z</time></trkpt><trkpt lat="42.4161166" lon="-7.406099"><ele>650.0</ele><time>2026-04-25T11:59:09.041Z</time></trkpt><trkpt lat="42.4160074" lon="-7.4061188"><ele>648.0</ele><time>2026-04-25T11:59:10.058Z</time></trkpt><trkpt lat="42.4159092" lon="-7.4061399"><ele>646.0</ele><time>2026-04-25T11:59:11.049Z</time></trkpt><trkpt lat="42.4158189" lon="-7.4061412"><ele>644.0</ele><time>2026-04-25T11:59:12.045Z</time></trkpt><trkpt lat="42.4157366" lon="-7.4061389"><ele>642.0</ele><time>2026-04-25T11:59:13.054Z</time></trkpt><trkpt lat="42.4156697" lon="-7.4060945"><ele>642.0</ele><time>2026-04-25T11:59:14.052Z</time></trkpt><trkpt lat="42.4156027" lon="-7.4060244"><ele>642.0</ele><time>2026-04-25T11:59:15.046Z</time></trkpt><trkpt lat="42.4155386" lon="-7.4059393"><ele>642.0</ele><time>2026-04-25T11:59:16.051Z</time></trkpt><trkpt lat="42.415472" lon="-7.405837"><ele>642.0</ele><time>2026-04-25T11:59:17.054Z</time></trkpt><trkpt lat="42.4153921" lon="-7.4057391"><ele>642.0</ele><time>2026-04-25T11:59:18.046Z</time></trkpt><trkpt lat="42.4152979" lon="-7.4056659"><ele>639.5</ele><time>2026-04-25T11:59:19.05Z</time></trkpt><trkpt lat="42.4151856" lon="-7.4055753"><ele>637.0</ele><time>2026-04-25T11:59:20.052Z</time></trkpt><trkpt lat="42.415075" lon="-7.4054704"><ele>634.5</ele><time>2026-04-25T11:59:21.046Z</time></trkpt><trkpt lat="42.4149734" lon="-7.4053698"><ele>632.0</ele><time>2026-04-25T11:59:22.055Z</time></trkpt><trkpt lat="42.4148681" lon="-7.4052814"><ele>632.0</ele><time>2026-04-25T11:59:23.059Z</time></trkpt><trkpt lat="42.4147616" lon="-7.4051954"><ele>632.0</ele><time>2026-04-25T11:59:24.054Z</time></trkpt><trkpt lat="42.4146541" lon="-7.4051078"><ele>632.0</ele><time>2026-04-25T11:59:25.051Z</time></trkpt><trkpt lat="42.4145375" lon="-7.4050285"><ele>632.0</ele><time>2026-04-25T11:59:26.05Z</time></trkpt><trkpt lat="42.4144094" lon="-7.4049458"><ele>628.5</ele><time>2026-04-25T11:59:27.053Z</time></trkpt><trkpt lat="42.4142844" lon="-7.4048661"><ele>625.0</ele><time>2026-04-25T11:59:28.047Z</time></trkpt><trkpt lat="42.4141713" lon="-7.4047958"><ele>621.5</ele><time>2026-04-25T11:59:29.051Z</time></trkpt><trkpt lat="42.4140688" lon="-7.4047247"><ele>618.0</ele><time>2026-04-25T11:59:30.05Z</time></trkpt><trkpt lat="42.4139713" lon="-7.4046613"><ele>618.0</ele><time>2026-04-25T11:59:31.056Z</time></trkpt><trkpt lat="42.4138885" lon="-7.4046026"><ele>618.0</ele><time>2026-04-25T11:59:32.043Z</time></trkpt><trkpt lat="42.4138073" lon="-7.4045448"><ele>618.0</ele><time>2026-04-25T11:59:33.05Z</time></trkpt><trkpt lat="42.413727" lon="-7.4045177"><ele>618.0</ele><time>2026-04-25T11:59:34.048Z</time></trkpt><trkpt lat="42.4136342" lon="-7.4045148"><ele>618.0</ele><time>2026-04-25T11:59:35.05Z</time></trkpt><trkpt lat="42.4135466" lon="-7.4045355"><ele>618.6</ele><time>2026-04-25T11:59:36.045Z</time></trkpt><trkpt lat="42.413451" lon="-7.4045596"><ele>619.1999999999999</ele><time>2026-04-25T11:59:37.047Z</time></trkpt><trkpt lat="42.4133504" lon="-7.4046098"><ele>619.8</ele><time>2026-04-25T11:59:38.052Z</time></trkpt><trkpt lat="42.4132523" lon="-7.4046518"><ele>620.4</ele><time>2026-04-25T11:59:39.053Z</time></trkpt><trkpt lat="42.4131644" lon="-7.4046855"><ele>621.0</ele><time>2026-04-25T11:59:40.048Z</time></trkpt><trkpt lat="42.4130845" lon="-7.4047113"><ele>621.0</ele><time>2026-04-25T11:59:41.05Z</time></trkpt><trkpt lat="42.4130138" lon="-7.4047275"><ele>621.0</ele><time>2026-04-25T11:59:42.073Z</time></trkpt><trkpt lat="42.4129419" lon="-7.4047365"><ele>621.0</ele><time>2026-04-25T11:59:43.043Z</time></trkpt><trkpt lat="42.4128976" lon="-7.4046523"><ele>621.0</ele><time>2026-04-25T11:59:46.047Z</time></trkpt><trkpt lat="42.4129873" lon="-7.4046001"><ele>621.0</ele><time>2026-04-25T11:59:48.045Z</time></trkpt><trkpt lat="42.4130601" lon="-7.4045707"><ele>621.0</ele><time>2026-04-25T11:59:49.05Z</time></trkpt><trkpt lat="42.4131464" lon="-7.4045266"><ele>621.0</ele><time>2026-04-25T11:59:50.045Z</time></trkpt><trkpt lat="42.4132161" lon="-7.4044745"><ele>621.0</ele><time>2026-04-25T11:59:51.05Z</time></trkpt><trkpt lat="42.4132904" lon="-7.4044059"><ele>621.0</ele><time>2026-04-25T11:59:52.053Z</time></trkpt><trkpt lat="42.413383" lon="-7.4043383"><ele>621.0</ele><time>2026-04-25T11:59:53.042Z</time></trkpt><trkpt lat="42.4134892" lon="-7.4042798"><ele>621.0</ele><time>2026-04-25T11:59:54.05Z</time></trkpt><trkpt lat="42.4136027" lon="-7.4042341"><ele>621.0</ele><time>2026-04-25T11:59:55.058Z</time></trkpt><trkpt lat="42.4137098" lon="-7.4042034"><ele>621.0</ele><time>2026-04-25T11:59:56.056Z</time></trkpt><trkpt lat="42.4138052" lon="-7.4041776"><ele>621.0</ele><time>2026-04-25T11:59:57.048Z</time></trkpt><trkpt lat="42.4138927" lon="-7.4041556"><ele>621.0</ele><time>2026-04-25T11:59:58.049Z</time></trkpt><trkpt lat="42.4139801" lon="-7.4041544"><ele>621.0</ele><time>2026-04-25T11:59:59.052Z</time></trkpt><trkpt lat="42.4140684" lon="-7.4041531"><ele>620.5</ele><time>2026-04-25T12:00:00.046Z</time></trkpt><trkpt lat="42.4141555" lon="-7.4041536"><ele>620.0</ele><time>2026-04-25T12:00:01.046Z</time></trkpt><trkpt lat="42.4142232" lon="-7.4041634"><ele>619.5</ele><time>2026-04-25T12:00:02.051Z</time></trkpt><trkpt lat="42.4143315" lon="-7.4042098"><ele>619.0</ele><time>2026-04-25T12:00:04.055Z</time></trkpt><trkpt lat="42.4144068" lon="-7.4042153"><ele>618.5</ele><time>2026-04-25T12:00:07.059Z</time></trkpt><trkpt lat="42.4143498" lon="-7.4041329"><ele>618.0</ele><time>2026-04-25T12:00:09.046Z</time></trkpt><trkpt lat="42.4142867" lon="-7.4040791"><ele>618.0</ele><time>2026-04-25T12:00:10.047Z</time></trkpt><trkpt lat="42.4141996" lon="-7.4040127"><ele>618.0</ele><time>2026-04-25T12:00:11.043Z</time></trkpt><trkpt lat="42.4140993" lon="-7.4039439"><ele>618.0</ele><time>2026-04-25T12:00:12.046Z</time></trkpt><trkpt lat="42.4140066" lon="-7.4038921"><ele>618.0</ele><time>2026-04-25T12:00:13.042Z</time></trkpt><trkpt lat="42.4139263" lon="-7.4038509"><ele>618.0</ele><time>2026-04-25T12:00:14.042Z</time></trkpt><trkpt lat="42.4138463" lon="-7.4038324"><ele>618.5</ele><time>2026-04-25T12:00:15.047Z</time></trkpt><trkpt lat="42.4137572" lon="-7.4038293"><ele>619.0</ele><time>2026-04-25T12:00:16.053Z</time></trkpt><trkpt lat="42.4136718" lon="-7.4038322"><ele>619.5</ele><time>2026-04-25T12:00:17.042Z</time></trkpt><trkpt lat="42.4135867" lon="-7.4038319"><ele>620.0</ele><time>2026-04-25T12:00:18.044Z</time></trkpt><trkpt lat="42.4134988" lon="-7.4038274"><ele>620.5</ele><time>2026-04-25T12:00:19.053Z</time></trkpt><trkpt lat="42.4134187" lon="-7.4038226"><ele>621.0</ele><time>2026-04-25T12:00:20.045Z</time></trkpt><trkpt lat="42.4133462" lon="-7.4038176"><ele>614.0</ele><time>2026-04-25T12:00:21.047Z</time></trkpt><trkpt lat="42.4132564" lon="-7.4037948"><ele>607.0</ele><time>2026-04-25T12:00:23.049Z</time></trkpt><trkpt lat="42.4133159" lon="-7.4037055"><ele>600.0</ele><time>2026-04-25T12:00:26.06Z</time></trkpt><trkpt lat="42.4133822" lon="-7.4036837"><ele>593.0</ele><time>2026-04-25T12:00:27.052Z</time></trkpt><trkpt lat="42.4134678" lon="-7.4036722"><ele>586.0</ele><time>2026-04-25T12:00:28.041Z</time></trkpt><trkpt lat="42.4135577" lon="-7.4036301"><ele>579.0</ele><time>2026-04-25T12:00:29.052Z</time></trkpt><trkpt lat="42.4136581" lon="-7.4035931"><ele>579.0</ele><time>2026-04-25T12:00:30.045Z</time></trkpt><trkpt lat="42.4137624" lon="-7.4035519"><ele>579.0</ele><time>2026-04-25T12:00:31.044Z</time></trkpt><trkpt lat="42.4138645" lon="-7.4035075"><ele>579.0</ele><time>2026-04-25T12:00:32.049Z</time></trkpt><trkpt lat="42.4139669" lon="-7.4034677"><ele>579.0</ele><time>2026-04-25T12:00:33.041Z</time></trkpt><trkpt lat="42.4140706" lon="-7.40343"><ele>579.0</ele><time>2026-04-25T12:00:34.044Z</time></trkpt><trkpt lat="42.4141714" lon="-7.4034061"><ele>579.5</ele><time>2026-04-25T12:00:35.047Z</time></trkpt><trkpt lat="42.4142655" lon="-7.403392"><ele>580.0</ele><time>2026-04-25T12:00:36.057Z</time></trkpt><trkpt lat="42.41434" lon="-7.4034008"><ele>580.5</ele><time>2026-04-25T12:00:37.042Z</time></trkpt><trkpt lat="42.4144137" lon="-7.4034152"><ele>581.0</ele><time>2026-04-25T12:00:38.049Z</time></trkpt><trkpt lat="42.4144899" lon="-7.4034408"><ele>581.5</ele><time>2026-04-25T12:00:39.045Z</time></trkpt><trkpt lat="42.4145702" lon="-7.4034701"><ele>582.0</ele><time>2026-04-25T12:00:40.042Z</time></trkpt><trkpt lat="42.4146341" lon="-7.4034992"><ele>582.0</ele><time>2026-04-25T12:00:41.042Z</time></trkpt><trkpt lat="42.4146046" lon="-7.4034059"><ele>582.0</ele><time>2026-04-25T12:00:45.046Z</time></trkpt><trkpt lat="42.4145486" lon="-7.4033588"><ele>582.0</ele><time>2026-04-25T12:00:46.042Z</time></trkpt><trkpt lat="42.4144774" lon="-7.4033027"><ele>582.0</ele><time>2026-04-25T12:00:47.054Z</time></trkpt><trkpt lat="42.4144089" lon="-7.4032412"><ele>582.0</ele><time>2026-04-25T12:00:48.054Z</time></trkpt><trkpt lat="42.41435" lon="-7.4031824"><ele>582.0</ele><time>2026-04-25T12:00:49.044Z</time></trkpt><trkpt lat="42.4142769" lon="-7.4031235"><ele>582.0</ele><time>2026-04-25T12:00:50.044Z</time></trkpt><trkpt lat="42.4141949" lon="-7.4030709"><ele>582.0</ele><time>2026-04-25T12:00:51.051Z</time></trkpt><trkpt lat="42.4141035" lon="-7.4030346"><ele>582.0</ele><time>2026-04-25T12:00:52.06Z</time></trkpt><trkpt lat="42.4140162" lon="-7.4030088"><ele>582.0</ele><time>2026-04-25T12:00:53.046Z</time></trkpt><trkpt lat="42.4139176" lon="-7.4030076"><ele>582.0</ele><time>2026-04-25T12:00:54.051Z</time></trkpt><trkpt lat="42.4138157" lon="-7.4030051"><ele>581.4</ele><time>2026-04-25T12:00:55.046Z</time></trkpt><trkpt lat="42.4137146" lon="-7.4030018"><ele>580.8000000000001</ele><time>2026-04-25T12:00:56.046Z</time></trkpt><trkpt lat="42.4136167" lon="-7.4029902"><ele>580.2</ele><time>2026-04-25T12:00:57.048Z</time></trkpt><trkpt lat="42.4135099" lon="-7.4029747"><ele>579.6</ele><time>2026-04-25T12:00:58.045Z</time></trkpt><trkpt lat="42.4134012" lon="-7.4029755"><ele>579.0</ele><time>2026-04-25T12:00:59.046Z</time></trkpt><trkpt lat="42.4132844" lon="-7.4029682"><ele>571.8</ele><time>2026-04-25T12:01:00.045Z</time></trkpt><trkpt lat="42.4131662" lon="-7.4029585"><ele>564.5999999999999</ele><time>2026-04-25T12:01:01.043Z</time></trkpt><trkpt lat="42.4130616" lon="-7.4029548"><ele>557.4</ele><time>2026-04-25T12:01:02.046Z</time></trkpt><trkpt lat="42.4129548" lon="-7.4029647"><ele>550.1999999999999</ele><time>2026-04-25T12:01:03.049Z</time></trkpt><trkpt lat="42.4128541" lon="-7.4029694"><ele>543.0</ele><time>2026-04-25T12:01:04.05Z</time></trkpt><trkpt lat="42.4127522" lon="-7.402974"><ele>541.4</ele><time>2026-04-25T12:01:05.049Z</time></trkpt><trkpt lat="42.4126575" lon="-7.402964"><ele>539.8</ele><time>2026-04-25T12:01:06.057Z</time></trkpt><trkpt lat="42.4125784" lon="-7.4029567"><ele>538.2</ele><time>2026-04-25T12:01:07.049Z</time></trkpt><trkpt lat="42.4124869" lon="-7.4029314"><ele>536.6</ele><time>2026-04-25T12:01:09.046Z</time></trkpt><trkpt lat="42.4125293" lon="-7.4028534"><ele>535.0</ele><time>2026-04-25T12:01:11.044Z</time></trkpt><trkpt lat="42.4126471" lon="-7.4028013"><ele>535.0</ele><time>2026-04-25T12:01:13.052Z</time></trkpt><trkpt lat="42.4127317" lon="-7.4027996"><ele>535.0</ele><time>2026-04-25T12:01:14.047Z</time></trkpt><trkpt lat="42.4128172" lon="-7.4027953"><ele>535.0</ele><time>2026-04-25T12:01:15.047Z</time></trkpt><trkpt lat="42.4129158" lon="-7.4027572"><ele>535.0</ele><time>2026-04-25T12:01:17.046Z</time></trkpt><trkpt lat="42.4127969" lon="-7.4027325"><ele>535.0</ele><time>2026-04-25T12:01:22.041Z</time></trkpt><trkpt lat="42.4126947" lon="-7.4027174"><ele>535.0</ele><time>2026-04-25T12:01:23.047Z</time></trkpt><trkpt lat="42.412592" lon="-7.4026632"><ele>535.0</ele><time>2026-04-25T12:01:24.043Z</time></trkpt><trkpt lat="42.4124632" lon="-7.4026576"><ele>535.0</ele><time>2026-04-25T12:01:25.049Z</time></trkpt><trkpt lat="42.4123423" lon="-7.402677"><ele>535.0</ele><time>2026-04-25T12:01:26.048Z</time></trkpt><trkpt lat="42.412217" lon="-7.4027053"><ele>533.25</ele><time>2026-04-25T12:01:27.04Z</time></trkpt><trkpt lat="42.4120937" lon="-7.4027421"><ele>531.5</ele><time>2026-04-25T12:01:28.046Z</time></trkpt><trkpt lat="42.4119748" lon="-7.4027824"><ele>529.75</ele><time>2026-04-25T12:01:29.04Z</time></trkpt><trkpt lat="42.4118657" lon="-7.4028235"><ele>528.0</ele><time>2026-04-25T12:01:30.043Z</time></trkpt><trkpt lat="42.4117651" lon="-7.4028483"><ele>528.0</ele><time>2026-04-25T12:01:31.043Z</time></trkpt><trkpt lat="42.4116645" lon="-7.4028684"><ele>528.0</ele><time>2026-04-25T12:01:32.05Z</time></trkpt><trkpt lat="42.4115709" lon="-7.4028899"><ele>528.0</ele><time>2026-04-25T12:01:33.042Z</time></trkpt><trkpt lat="42.411487" lon="-7.4029198"><ele>528.0</ele><time>2026-04-25T12:01:34.047Z</time></trkpt><trkpt lat="42.4114066" lon="-7.4029515"><ele>528.0</ele><time>2026-04-25T12:01:35.039Z</time></trkpt><trkpt lat="42.4113375" lon="-7.4029688"><ele>528.0</ele><time>2026-04-25T12:01:36.042Z</time></trkpt><trkpt lat="42.4112665" lon="-7.4029824"><ele>532.1999999999999</ele><time>2026-04-25T12:01:37.04Z</time></trkpt><trkpt lat="42.4112008" lon="-7.4029954"><ele>536.4</ele><time>2026-04-25T12:01:38.042Z</time></trkpt><trkpt lat="42.411097" lon="-7.4030315"><ele>540.5999999999999</ele><time>2026-04-25T12:01:40.047Z</time></trkpt><trkpt lat="42.4110142" lon="-7.4029879"><ele>544.8</ele><time>2026-04-25T12:01:42.048Z</time></trkpt><trkpt lat="42.4109861" lon="-7.4028748"><ele>549.0</ele><time>2026-04-25T12:01:44.047Z</time></trkpt><trkpt lat="42.4110388" lon="-7.4027182"><ele>549.0</ele><time>2026-04-25T12:01:46.045Z</time></trkpt><trkpt lat="42.4110896" lon="-7.4026475"><ele>549.0</ele><time>2026-04-25T12:01:47.041Z</time></trkpt><trkpt lat="42.411129" lon="-7.4025553"><ele>549.0</ele><time>2026-04-25T12:01:48.049Z</time></trkpt><trkpt lat="42.4111857" lon="-7.4024473"><ele>549.0</ele><time>2026-04-25T12:01:49.052Z</time></trkpt><trkpt lat="42.4112385" lon="-7.4023384"><ele>549.0</ele><time>2026-04-25T12:01:50.041Z</time></trkpt><trkpt lat="42.4112859" lon="-7.402248"><ele>549.0</ele><time>2026-04-25T12:01:51.046Z</time></trkpt><trkpt lat="42.4113265" lon="-7.4021028"><ele>550.6</ele><time>2026-04-25T12:01:53.044Z</time></trkpt><trkpt lat="42.4113373" lon="-7.4020172"><ele>552.2</ele><time>2026-04-25T12:01:54.045Z</time></trkpt><trkpt lat="42.4113353" lon="-7.401916"><ele>553.8000000000001</ele><time>2026-04-25T12:01:55.044Z</time></trkpt><trkpt lat="42.4113106" lon="-7.4017766"><ele>555.4</ele><time>2026-04-25T12:01:57.046Z</time></trkpt><trkpt lat="42.4112039" lon="-7.4016707"><ele>557.0</ele><time>2026-04-25T12:01:59.052Z</time></trkpt><trkpt lat="42.4111234" lon="-7.4016355"><ele>557.0</ele><time>2026-04-25T12:02:00.047Z</time></trkpt><trkpt lat="42.4110627" lon="-7.4015962"><ele>557.0</ele><time>2026-04-25T12:02:01.051Z</time></trkpt><trkpt lat="42.4109935" lon="-7.4015511"><ele>557.0</ele><time>2026-04-25T12:02:02.05Z</time></trkpt><trkpt lat="42.4109495" lon="-7.4014239"><ele>557.0</ele><time>2026-04-25T12:02:04.044Z</time></trkpt><trkpt lat="42.4109555" lon="-7.4013299"><ele>557.0</ele><time>2026-04-25T12:02:05.051Z</time></trkpt><trkpt lat="42.4109995" lon="-7.4012309"><ele>557.0</ele><time>2026-04-25T12:02:06.063Z</time></trkpt><trkpt lat="42.411061" lon="-7.4011694"><ele>558.6666666666666</ele><time>2026-04-25T12:02:07.046Z</time></trkpt><trkpt lat="42.4111151" lon="-7.4011141"><ele>560.3333333333333</ele><time>2026-04-25T12:02:08.049Z</time></trkpt><trkpt lat="42.4111581" lon="-7.4010224"><ele>562.0</ele><time>2026-04-25T12:02:09.05Z</time></trkpt><trkpt lat="42.4111871" lon="-7.4009171"><ele>563.6666666666666</ele><time>2026-04-25T12:02:10.048Z</time></trkpt><trkpt lat="42.4112161" lon="-7.400811"><ele>565.3333333333334</ele><time>2026-04-25T12:02:11.043Z</time></trkpt><trkpt lat="42.4112513" lon="-7.4006972"><ele>567.0</ele><time>2026-04-25T12:02:12.043Z</time></trkpt><trkpt lat="42.4112858" lon="-7.4006091"><ele>561.8333333333334</ele><time>2026-04-25T12:02:13.047Z</time></trkpt><trkpt lat="42.4113639" lon="-7.4004738"><ele>556.6666666666666</ele><time>2026-04-25T12:02:15.044Z</time></trkpt><trkpt lat="42.4114194" lon="-7.4004139"><ele>551.5</ele><time>2026-04-25T12:02:16.047Z</time></trkpt><trkpt lat="42.4114761" lon="-7.4003465"><ele>546.3333333333333</ele><time>2026-04-25T12:02:17.05Z</time></trkpt><trkpt lat="42.4115349" lon="-7.4002745"><ele>541.1666666666666</ele><time>2026-04-25T12:02:18.045Z</time></trkpt><trkpt lat="42.4115797" lon="-7.4001883"><ele>536.0</ele><time>2026-04-25T12:02:19.042Z</time></trkpt><trkpt lat="42.4116047" lon="-7.4001096"><ele>536.0</ele><time>2026-04-25T12:02:20.052Z</time></trkpt><trkpt lat="42.4116045" lon="-7.3999682"><ele>536.0</ele><time>2026-04-25T12:02:22.041Z</time></trkpt><trkpt lat="42.411563" lon="-7.3998973"><ele>536.0</ele><time>2026-04-25T12:02:23.053Z</time></trkpt><trkpt lat="42.4115041" lon="-7.3998263"><ele>536.0</ele><time>2026-04-25T12:02:24.052Z</time></trkpt><trkpt lat="42.4114375" lon="-7.399757"><ele>536.0</ele><time>2026-04-25T12:02:25.051Z</time></trkpt><trkpt lat="42.4113685" lon="-7.3996866"><ele>536.0</ele><time>2026-04-25T12:02:26.056Z</time></trkpt><trkpt lat="42.4113087" lon="-7.399622"><ele>542.5</ele><time>2026-04-25T12:02:27.049Z</time></trkpt><trkpt lat="42.4112468" lon="-7.3995545"><ele>549.0</ele><time>2026-04-25T12:02:28.044Z</time></trkpt><trkpt lat="42.4111972" lon="-7.3994762"><ele>555.5</ele><time>2026-04-25T12:02:29.045Z</time></trkpt><trkpt lat="42.4111461" lon="-7.3994049"><ele>562.0</ele><time>2026-04-25T12:02:30.049Z</time></trkpt><trkpt lat="42.4110651" lon="-7.3992685"><ele>568.5</ele><time>2026-04-25T12:02:32.044Z</time></trkpt><trkpt lat="42.411018" lon="-7.3991893"><ele>575.0</ele><time>2026-04-25T12:02:33.049Z</time></trkpt><trkpt lat="42.4109823" lon="-7.3991062"><ele>575.0</ele><time>2026-04-25T12:02:34.044Z</time></trkpt><trkpt lat="42.4109388" lon="-7.3990309"><ele>575.0</ele><time>2026-04-25T12:02:35.052Z</time></trkpt><trkpt lat="42.4108644" lon="-7.3988998"><ele>575.0</ele><time>2026-04-25T12:02:37.049Z</time></trkpt><trkpt lat="42.4107866" lon="-7.398751"><ele>575.0</ele><time>2026-04-25T12:02:39.051Z</time></trkpt><trkpt lat="42.4107486" lon="-7.3986653"><ele>575.0</ele><time>2026-04-25T12:02:40.042Z</time></trkpt><trkpt lat="42.4107109" lon="-7.3985862"><ele>572.5</ele><time>2026-04-25T12:02:41.049Z</time></trkpt><trkpt lat="42.4106789" lon="-7.3985053"><ele>570.0</ele><time>2026-04-25T12:02:42.053Z</time></trkpt><trkpt lat="42.4106449" lon="-7.3984128"><ele>567.5</ele><time>2026-04-25T12:02:43.05Z</time></trkpt><trkpt lat="42.4106166" lon="-7.3983248"><ele>565.0</ele><time>2026-04-25T12:02:44.044Z</time></trkpt><trkpt lat="42.4105655" lon="-7.3981776"><ele>562.5</ele><time>2026-04-25T12:02:46.048Z</time></trkpt><trkpt lat="42.4105267" lon="-7.3980638"><ele>560.0</ele><time>2026-04-25T12:02:48.055Z</time></trkpt><trkpt lat="42.4104828" lon="-7.3979671"><ele>561.4</ele><time>2026-04-25T12:02:50.044Z</time></trkpt><trkpt lat="42.4104298" lon="-7.3978243"><ele>562.8</ele><time>2026-04-25T12:02:52.057Z</time></trkpt><trkpt lat="42.4104173" lon="-7.3977175"><ele>564.2</ele><time>2026-04-25T12:02:54.05Z</time></trkpt><trkpt lat="42.4104427" lon="-7.3976006"><ele>565.6</ele><time>2026-04-25T12:02:56.05Z</time></trkpt><trkpt lat="42.4105223" lon="-7.3975861"><ele>567.0</ele><time>2026-04-25T12:02:59.053Z</time></trkpt><trkpt lat="42.4105979" lon="-7.3976754"><ele>567.0</ele><time>2026-04-25T12:03:01.049Z</time></trkpt><trkpt lat="42.4106906" lon="-7.3977352"><ele>567.0</ele><time>2026-04-25T12:03:02.053Z</time></trkpt><trkpt lat="42.4107703" lon="-7.397774"><ele>567.0</ele><time>2026-04-25T12:03:03.045Z</time></trkpt><trkpt lat="42.4108412" lon="-7.3977813"><ele>567.0</ele><time>2026-04-25T12:03:04.044Z</time></trkpt><trkpt lat="42.4109441" lon="-7.3977534"><ele>567.0</ele><time>2026-04-25T12:03:05.048Z</time></trkpt><trkpt lat="42.4110492" lon="-7.3977128"><ele>567.0</ele><time>2026-04-25T12:03:06.048Z</time></trkpt><trkpt lat="42.4111656" lon="-7.3976465"><ele>567.0</ele><time>2026-04-25T12:03:07.04Z</time></trkpt><trkpt lat="42.4112746" lon="-7.39759"><ele>567.0</ele><time>2026-04-25T12:03:08.046Z</time></trkpt><trkpt lat="42.4113725" lon="-7.3975417"><ele>567.0</ele><time>2026-04-25T12:03:09.048Z</time></trkpt><trkpt lat="42.4114776" lon="-7.3975156"><ele>565.3333333333334</ele><time>2026-04-25T12:03:10.041Z</time></trkpt><trkpt lat="42.4115921" lon="-7.3975066"><ele>563.6666666666666</ele><time>2026-04-25T12:03:11.049Z</time></trkpt><trkpt lat="42.4116965" lon="-7.3975044"><ele>562.0</ele><time>2026-04-25T12:03:12.052Z</time></trkpt><trkpt lat="42.411784" lon="-7.3974975"><ele>560.3333333333333</ele><time>2026-04-25T12:03:13.041Z</time></trkpt><trkpt lat="42.4118549" lon="-7.3974882"><ele>558.6666666666666</ele><time>2026-04-25T12:03:14.043Z</time></trkpt><trkpt lat="42.4119195" lon="-7.3974651"><ele>557.0</ele><time>2026-04-25T12:03:15.043Z</time></trkpt><trkpt lat="42.4120014" lon="-7.3973808"><ele>557.0</ele><time>2026-04-25T12:03:17.056Z</time></trkpt><trkpt lat="42.4120129" lon="-7.3972852"><ele>557.0</ele><time>2026-04-25T12:03:18.047Z</time></trkpt><trkpt lat="42.4120257" lon="-7.3971774"><ele>557.0</ele><time>2026-04-25T12:03:19.05Z</time></trkpt><trkpt lat="42.4120204" lon="-7.3970488"><ele>557.0</ele><time>2026-04-25T12:03:20.048Z</time></trkpt><trkpt lat="42.4120165" lon="-7.3969222"><ele>557.0</ele><time>2026-04-25T12:03:21.044Z</time></trkpt><trkpt lat="42.4120224" lon="-7.3968068"><ele>557.0</ele><time>2026-04-25T12:03:22.046Z</time></trkpt><trkpt lat="42.4120417" lon="-7.3966983"><ele>556.5</ele><time>2026-04-25T12:03:23.046Z</time></trkpt><trkpt lat="42.4120719" lon="-7.3965996"><ele>556.0</ele><time>2026-04-25T12:03:24.047Z</time></trkpt><trkpt lat="42.4121277" lon="-7.3964997"><ele>555.5</ele><time>2026-04-25T12:03:25.056Z</time></trkpt><trkpt lat="42.4121925" lon="-7.3964102"><ele>555.0</ele><time>2026-04-25T12:03:26.042Z</time></trkpt><trkpt lat="42.4122525" lon="-7.3963307"><ele>554.5</ele><time>2026-04-25T12:03:27.051Z</time></trkpt><trkpt lat="42.4123088" lon="-7.3962415"><ele>554.0</ele><time>2026-04-25T12:03:28.05Z</time></trkpt><trkpt lat="42.4123622" lon="-7.3961595"><ele>554.0</ele><time>2026-04-25T12:03:29.057Z</time></trkpt><trkpt lat="42.4124105" lon="-7.3960329"><ele>554.0</ele><time>2026-04-25T12:03:31.05Z</time></trkpt><trkpt lat="42.4124816" lon="-7.3960073"><ele>554.0</ele><time>2026-04-25T12:03:33.047Z</time></trkpt><trkpt lat="42.4125914" lon="-7.3960258"><ele>554.0</ele><time>2026-04-25T12:03:35.052Z</time></trkpt><trkpt lat="42.4126526" lon="-7.3960035"><ele>554.0</ele><time>2026-04-25T12:03:36.048Z</time></trkpt><trkpt lat="42.4127547" lon="-7.3960021"><ele>554.0</ele><time>2026-04-25T12:03:38.048Z</time></trkpt><trkpt lat="42.4128116" lon="-7.3961081"><ele>554.0</ele><time>2026-04-25T12:03:40.045Z</time></trkpt><trkpt lat="42.4128164" lon="-7.3962028"><ele>554.0</ele><time>2026-04-25T12:03:41.047Z</time></trkpt><trkpt lat="42.4128085" lon="-7.3963121"><ele>554.0</ele><time>2026-04-25T12:03:42.041Z</time></trkpt><trkpt lat="42.4128133" lon="-7.3964076"><ele>554.0</ele><time>2026-04-25T12:03:43.047Z</time></trkpt><trkpt lat="42.412815" lon="-7.3964987"><ele>554.0</ele><time>2026-04-25T12:03:44.051Z</time></trkpt><trkpt lat="42.4129097" lon="-7.3966479"><ele>550.2</ele><time>2026-04-25T12:03:46.045Z</time></trkpt><trkpt lat="42.4129902" lon="-7.3967268"><ele>546.4</ele><time>2026-04-25T12:03:47.051Z</time></trkpt><trkpt lat="42.4130767" lon="-7.3968015"><ele>542.6</ele><time>2026-04-25T12:03:48.045Z</time></trkpt><trkpt lat="42.4131637" lon="-7.3968726"><ele>538.8</ele><time>2026-04-25T12:03:49.05Z</time></trkpt><trkpt lat="42.4132505" lon="-7.3969431"><ele>535.0</ele><time>2026-04-25T12:03:50.046Z</time></trkpt><trkpt lat="42.4133306" lon="-7.3970007"><ele>535.0</ele><time>2026-04-25T12:03:51.056Z</time></trkpt><trkpt lat="42.4134025" lon="-7.3970337"><ele>535.0</ele><time>2026-04-25T12:03:52.039Z</time></trkpt><trkpt lat="42.4134712" lon="-7.3970404"><ele>535.0</ele><time>2026-04-25T12:03:53.045Z</time></trkpt><trkpt lat="42.4135578" lon="-7.397032"><ele>535.0</ele><time>2026-04-25T12:03:54.045Z</time></trkpt><trkpt lat="42.413646" lon="-7.3970456"><ele>535.0</ele><time>2026-04-25T12:03:55.052Z</time></trkpt><trkpt lat="42.4137396" lon="-7.397061"><ele>535.0</ele><time>2026-04-25T12:03:56.046Z</time></trkpt><trkpt lat="42.4138181" lon="-7.3970994"><ele>534.8571428571429</ele><time>2026-04-25T12:03:57.05Z</time></trkpt><trkpt lat="42.4138913" lon="-7.3971297"><ele>534.7142857142858</ele><time>2026-04-25T12:03:58.056Z</time></trkpt><trkpt lat="42.4139564" lon="-7.3971654"><ele>534.5714285714287</ele><time>2026-04-25T12:03:59.041Z</time></trkpt><trkpt lat="42.4140229" lon="-7.397192"><ele>534.4285714285714</ele><time>2026-04-25T12:04:00.048Z</time></trkpt><trkpt lat="42.4140884" lon="-7.3972321"><ele>534.2857142857143</ele><time>2026-04-25T12:04:01.052Z</time></trkpt><trkpt lat="42.4141525" lon="-7.3972728"><ele>534.1428571428572</ele><time>2026-04-25T12:04:02.042Z</time></trkpt><trkpt lat="42.4142267" lon="-7.3972933"><ele>534.0</ele><time>2026-04-25T12:04:03.053Z</time></trkpt><trkpt lat="42.4143123" lon="-7.3973178"><ele>527.4</ele><time>2026-04-25T12:04:04.054Z</time></trkpt><trkpt lat="42.4144164" lon="-7.3973114"><ele>520.8</ele><time>2026-04-25T12:04:05.05Z</time></trkpt><trkpt lat="42.4145314" lon="-7.397303"><ele>514.2</ele><time>2026-04-25T12:04:06.041Z</time></trkpt><trkpt lat="42.4146335" lon="-7.3972935"><ele>507.6</ele><time>2026-04-25T12:04:07.045Z</time></trkpt><trkpt lat="42.4147301" lon="-7.3972914"><ele>501.0</ele><time>2026-04-25T12:04:08.048Z</time></trkpt><trkpt lat="42.4148127" lon="-7.3972996"><ele>500.3333333333333</ele><time>2026-04-25T12:04:09.044Z</time></trkpt><trkpt lat="42.4148862" lon="-7.397303"><ele>499.66666666666663</ele><time>2026-04-25T12:04:10.049Z</time></trkpt><trkpt lat="42.4149592" lon="-7.3973005"><ele>499.0</ele><time>2026-04-25T12:04:11.049Z</time></trkpt><trkpt lat="42.4150296" lon="-7.3972895"><ele>498.3333333333333</ele><time>2026-04-25T12:04:12.041Z</time></trkpt><trkpt lat="42.4150962" lon="-7.397279"><ele>497.66666666666663</ele><time>2026-04-25T12:04:13.046Z</time></trkpt><trkpt lat="42.4151622" lon="-7.3972692"><ele>497.0</ele><time>2026-04-25T12:04:14.051Z</time></trkpt><trkpt lat="42.4152837" lon="-7.3972488"><ele>496.99999999999994</ele><time>2026-04-25T12:04:16.053Z</time></trkpt><trkpt lat="42.4153518" lon="-7.3972244"><ele>497.0</ele><time>2026-04-25T12:04:17.05Z</time></trkpt><trkpt lat="42.4154194" lon="-7.3972079"><ele>497.0</ele><time>2026-04-25T12:04:18.048Z</time></trkpt><trkpt lat="42.4154822" lon="-7.3971921"><ele>497.0</ele><time>2026-04-25T12:04:19.05Z</time></trkpt><trkpt lat="42.4155839" lon="-7.3971705"><ele>496.99999999999994</ele><time>2026-04-25T12:04:21.051Z</time></trkpt><trkpt lat="42.4156755" lon="-7.3971429"><ele>497.0</ele><time>2026-04-25T12:04:23.055Z</time></trkpt><trkpt lat="42.4157514" lon="-7.3970502"><ele>498.8</ele><time>2026-04-25T12:04:25.052Z</time></trkpt><trkpt lat="42.415788" lon="-7.3969778"><ele>500.6</ele><time>2026-04-25T12:04:26.056Z</time></trkpt><trkpt lat="42.4158286" lon="-7.3968758"><ele>502.40000000000003</ele><time>2026-04-25T12:04:27.049Z</time></trkpt><trkpt lat="42.4158845" lon="-7.3967464"><ele>504.20000000000005</ele><time>2026-04-25T12:04:28.05Z</time></trkpt><trkpt lat="42.4159448" lon="-7.3966109"><ele>506.0</ele><time>2026-04-25T12:04:29.056Z</time></trkpt><trkpt lat="42.4159999" lon="-7.3964939"><ele>506.0</ele><time>2026-04-25T12:04:30.045Z</time></trkpt><trkpt lat="42.4160437" lon="-7.3964271"><ele>506.0</ele><time>2026-04-25T12:04:31.048Z</time></trkpt><trkpt lat="42.4161163" lon="-7.3963437"><ele>506.0</ele><time>2026-04-25T12:04:33.051Z</time></trkpt><trkpt lat="42.4161938" lon="-7.3962435"><ele>506.0</ele><time>2026-04-25T12:04:35.047Z</time></trkpt><trkpt lat="42.4162656" lon="-7.3961201"><ele>506.0</ele><time>2026-04-25T12:04:37.087Z</time></trkpt><trkpt lat="42.4163431" lon="-7.3959897"><ele>506.8333333333333</ele><time>2026-04-25T12:04:39.066Z</time></trkpt><trkpt lat="42.4163897" lon="-7.3959183"><ele>507.66666666666663</ele><time>2026-04-25T12:04:40.07Z</time></trkpt><trkpt lat="42.4164421" lon="-7.3958445"><ele>508.5</ele><time>2026-04-25T12:04:41.053Z</time></trkpt><trkpt lat="42.4165029" lon="-7.395782"><ele>509.33333333333337</ele><time>2026-04-25T12:04:42.074Z</time></trkpt><trkpt lat="42.416571" lon="-7.3957252"><ele>510.1666666666667</ele><time>2026-04-25T12:04:43.071Z</time></trkpt><trkpt lat="42.4166444" lon="-7.3956621"><ele>511.0</ele><time>2026-04-25T12:04:44.059Z</time></trkpt><trkpt lat="42.4167278" lon="-7.3955857"><ele>513.4</ele><time>2026-04-25T12:04:45.053Z</time></trkpt><trkpt lat="42.416818" lon="-7.3955006"><ele>515.8</ele><time>2026-04-25T12:04:46.053Z</time></trkpt><trkpt lat="42.4169154" lon="-7.3954072"><ele>518.1999999999999</ele><time>2026-04-25T12:04:47.05Z</time></trkpt><trkpt lat="42.4170042" lon="-7.3953251"><ele>520.6</ele><time>2026-04-25T12:04:48.064Z</time></trkpt><trkpt lat="42.4170902" lon="-7.3952297"><ele>523.0</ele><time>2026-04-25T12:04:49.066Z</time></trkpt><trkpt lat="42.4171726" lon="-7.3951132"><ele>523.0</ele><time>2026-04-25T12:04:50.046Z</time></trkpt><trkpt lat="42.417252" lon="-7.3949897"><ele>523.0</ele><time>2026-04-25T12:04:51.062Z</time></trkpt><trkpt lat="42.4173334" lon="-7.3948639"><ele>523.0</ele><time>2026-04-25T12:04:52.053Z</time></trkpt><trkpt lat="42.4174082" lon="-7.3947415"><ele>523.0</ele><time>2026-04-25T12:04:53.045Z</time></trkpt><trkpt lat="42.4174758" lon="-7.394619"><ele>525.8</ele><time>2026-04-25T12:04:54.046Z</time></trkpt><trkpt lat="42.4175394" lon="-7.3945093"><ele>528.5999999999999</ele><time>2026-04-25T12:04:55.042Z</time></trkpt><trkpt lat="42.4175915" lon="-7.3943998"><ele>531.4000000000001</ele><time>2026-04-25T12:04:56.042Z</time></trkpt><trkpt lat="42.4176229" lon="-7.3942903"><ele>534.2</ele><time>2026-04-25T12:04:57.049Z</time></trkpt><trkpt lat="42.4176361" lon="-7.3941659"><ele>537.0</ele><time>2026-04-25T12:04:58.042Z</time></trkpt><trkpt lat="42.4176511" lon="-7.3940311"><ele>537.0</ele><time>2026-04-25T12:04:59.047Z</time></trkpt><trkpt lat="42.4176588" lon="-7.3938743"><ele>537.0</ele><time>2026-04-25T12:05:00.051Z</time></trkpt><trkpt lat="42.4176454" lon="-7.3937234"><ele>537.0</ele><time>2026-04-25T12:05:01.046Z</time></trkpt><trkpt lat="42.4176294" lon="-7.3935756"><ele>537.0</ele><time>2026-04-25T12:05:02.049Z</time></trkpt><trkpt lat="42.4176057" lon="-7.3934262"><ele>538.4</ele><time>2026-04-25T12:05:03.053Z</time></trkpt><trkpt lat="42.417576" lon="-7.3932739"><ele>539.8000000000001</ele><time>2026-04-25T12:05:04.048Z</time></trkpt><trkpt lat="42.417543" lon="-7.3931306"><ele>541.2</ele><time>2026-04-25T12:05:05.037Z</time></trkpt><trkpt lat="42.4175138" lon="-7.3929906"><ele>542.6</ele><time>2026-04-25T12:05:06.044Z</time></trkpt><trkpt lat="42.4174913" lon="-7.3928567"><ele>544.0</ele><time>2026-04-25T12:05:07.045Z</time></trkpt><trkpt lat="42.4174675" lon="-7.3927354"><ele>543.8333333333334</ele><time>2026-04-25T12:05:08.048Z</time></trkpt><trkpt lat="42.4174461" lon="-7.3926264"><ele>543.6666666666667</ele><time>2026-04-25T12:05:09.047Z</time></trkpt><trkpt lat="42.4174054" lon="-7.3925151"><ele>543.5</ele><time>2026-04-25T12:05:10.047Z</time></trkpt><trkpt lat="42.4173648" lon="-7.3924171"><ele>543.3333333333334</ele><time>2026-04-25T12:05:11.053Z</time></trkpt><trkpt lat="42.4173369" lon="-7.3923385"><ele>543.1666666666666</ele><time>2026-04-25T12:05:12.042Z</time></trkpt><trkpt lat="42.4173058" lon="-7.3922619"><ele>543.0</ele><time>2026-04-25T12:05:13.042Z</time></trkpt><trkpt lat="42.4172689" lon="-7.3921729"><ele>543.0</ele><time>2026-04-25T12:05:15.059Z</time></trkpt><trkpt lat="42.4172087" lon="-7.3921276"><ele>543.0</ele><time>2026-04-25T12:05:17.057Z</time></trkpt><trkpt lat="42.4171509" lon="-7.3922052"><ele>543.0</ele><time>2026-04-25T12:05:19.051Z</time></trkpt><trkpt lat="42.4171635" lon="-7.3923116"><ele>543.0</ele><time>2026-04-25T12:05:20.054Z</time></trkpt><trkpt lat="42.4171617" lon="-7.3924244"><ele>543.0</ele><time>2026-04-25T12:05:21.054Z</time></trkpt><trkpt lat="42.4171407" lon="-7.3925546"><ele>543.0</ele><time>2026-04-25T12:05:22.043Z</time></trkpt><trkpt lat="42.4171134" lon="-7.3927063"><ele>548.1999999999999</ele><time>2026-04-25T12:05:23.046Z</time></trkpt><trkpt lat="42.4170797" lon="-7.3928722"><ele>553.4</ele><time>2026-04-25T12:05:24.049Z</time></trkpt><trkpt lat="42.4170422" lon="-7.3930132"><ele>558.5999999999999</ele><time>2026-04-25T12:05:25.049Z</time></trkpt><trkpt lat="42.4170055" lon="-7.393126"><ele>563.8</ele><time>2026-04-25T12:05:26.052Z</time></trkpt><trkpt lat="42.4169563" lon="-7.3932361"><ele>569.0</ele><time>2026-04-25T12:05:27.05Z</time></trkpt><trkpt lat="42.4169066" lon="-7.393339"><ele>569.0</ele><time>2026-04-25T12:05:28.048Z</time></trkpt><trkpt lat="42.4168525" lon="-7.3934463"><ele>569.0</ele><time>2026-04-25T12:05:29.049Z</time></trkpt><trkpt lat="42.4167974" lon="-7.3935438"><ele>569.0</ele><time>2026-04-25T12:05:30.051Z</time></trkpt><trkpt lat="42.4167459" lon="-7.3936172"><ele>569.0</ele><time>2026-04-25T12:05:31.042Z</time></trkpt><trkpt lat="42.4166842" lon="-7.3936722"><ele>569.0</ele><time>2026-04-25T12:05:32.051Z</time></trkpt><trkpt lat="42.4166194" lon="-7.3937078"><ele>569.0</ele><time>2026-04-25T12:05:33.051Z</time></trkpt><trkpt lat="42.4165558" lon="-7.3937408"><ele>569.0</ele><time>2026-04-25T12:05:34.044Z</time></trkpt><trkpt lat="42.4164937" lon="-7.3937696"><ele>569.0</ele><time>2026-04-25T12:05:35.056Z</time></trkpt><trkpt lat="42.416424" lon="-7.3938029"><ele>569.0</ele><time>2026-04-25T12:05:36.048Z</time></trkpt><trkpt lat="42.4163482" lon="-7.3938364"><ele>569.0</ele><time>2026-04-25T12:05:37.064Z</time></trkpt><trkpt lat="42.4162714" lon="-7.3938754"><ele>569.0</ele><time>2026-04-25T12:05:38.054Z</time></trkpt><trkpt lat="42.4162049" lon="-7.393909"><ele>569.0</ele><time>2026-04-25T12:05:39.046Z</time></trkpt><trkpt lat="42.4160897" lon="-7.3939242"><ele>569.0000000000001</ele><time>2026-04-25T12:05:41.056Z</time></trkpt><trkpt lat="42.4160234" lon="-7.3939189"><ele>569.0</ele><time>2026-04-25T12:05:42.041Z</time></trkpt><trkpt lat="42.4159536" lon="-7.3939095"><ele>569.0</ele><time>2026-04-25T12:05:43.051Z</time></trkpt><trkpt lat="42.4158844" lon="-7.3938961"><ele>569.0</ele><time>2026-04-25T12:05:44.046Z</time></trkpt><trkpt lat="42.4158122" lon="-7.3938819"><ele>569.0</ele><time>2026-04-25T12:05:45.042Z</time></trkpt><trkpt lat="42.4157399" lon="-7.3938629"><ele>569.0000000000001</ele><time>2026-04-25T12:05:46.049Z</time></trkpt><trkpt lat="42.4156713" lon="-7.3938464"><ele>569.0</ele><time>2026-04-25T12:05:47.051Z</time></trkpt><trkpt lat="42.4156085" lon="-7.3938311"><ele>576.25</ele><time>2026-04-25T12:05:48.042Z</time></trkpt><trkpt lat="42.4154839" lon="-7.3938097"><ele>583.5</ele><time>2026-04-25T12:05:50.052Z</time></trkpt><trkpt lat="42.4153613" lon="-7.3938728"><ele>590.75</ele><time>2026-04-25T12:05:52.041Z</time></trkpt><trkpt lat="42.4153" lon="-7.3939733"><ele>598.0</ele><time>2026-04-25T12:05:53.044Z</time></trkpt><trkpt lat="42.4152315" lon="-7.3940764"><ele>598.0</ele><time>2026-04-25T12:05:54.048Z</time></trkpt><trkpt lat="42.4151611" lon="-7.3941764"><ele>598.0</ele><time>2026-04-25T12:05:55.054Z</time></trkpt><trkpt lat="42.4150956" lon="-7.3942655"><ele>598.0</ele><time>2026-04-25T12:05:56.056Z</time></trkpt><trkpt lat="42.4150183" lon="-7.3943651"><ele>598.0</ele><time>2026-04-25T12:05:57.052Z</time></trkpt><trkpt lat="42.41495" lon="-7.3944624"><ele>598.0</ele><time>2026-04-25T12:05:58.046Z</time></trkpt><trkpt lat="42.4148894" lon="-7.394563"><ele>598.0</ele><time>2026-04-25T12:05:59.043Z</time></trkpt><trkpt lat="42.4148344" lon="-7.3946589"><ele>598.0</ele><time>2026-04-25T12:06:00.054Z</time></trkpt><trkpt lat="42.4147717" lon="-7.3947407"><ele>598.0</ele><time>2026-04-25T12:06:01.051Z</time></trkpt><trkpt lat="42.4146965" lon="-7.3947917"><ele>598.0</ele><time>2026-04-25T12:06:02.047Z</time></trkpt><trkpt lat="42.4146326" lon="-7.394806"><ele>598.0</ele><time>2026-04-25T12:06:03.042Z</time></trkpt><trkpt lat="42.4145435" lon="-7.3947779"><ele>598.0</ele><time>2026-04-25T12:06:05.049Z</time></trkpt><trkpt lat="42.4145492" lon="-7.3946909"><ele>598.0</ele><time>2026-04-25T12:06:06.042Z</time></trkpt><trkpt lat="42.4145827" lon="-7.3945693"><ele>598.0</ele><time>2026-04-25T12:06:07.053Z</time></trkpt><trkpt lat="42.4146194" lon="-7.3944262"><ele>598.0</ele><time>2026-04-25T12:06:08.054Z</time></trkpt><trkpt lat="42.4146553" lon="-7.3942528"><ele>598.0</ele><time>2026-04-25T12:06:09.045Z</time></trkpt><trkpt lat="42.414696" lon="-7.3940724"><ele>598.0</ele><time>2026-04-25T12:06:10.048Z</time></trkpt><trkpt lat="42.4147398" lon="-7.3938886"><ele>598.0</ele><time>2026-04-25T12:06:11.046Z</time></trkpt><trkpt lat="42.4147971" lon="-7.3937125"><ele>598.0</ele><time>2026-04-25T12:06:12.043Z</time></trkpt><trkpt lat="42.4148607" lon="-7.3935447"><ele>598.0</ele><time>2026-04-25T12:06:13.049Z</time></trkpt><trkpt lat="42.4149344" lon="-7.3933864"><ele>601.5</ele><time>2026-04-25T12:06:14.066Z</time></trkpt><trkpt lat="42.4150068" lon="-7.393242"><ele>605.0</ele><time>2026-04-25T12:06:15.052Z</time></trkpt><trkpt lat="42.415114" lon="-7.3931347"><ele>608.5</ele><time>2026-04-25T12:06:16.05Z</time></trkpt><trkpt lat="42.4152311" lon="-7.3930506"><ele>612.0</ele><time>2026-04-25T12:06:17.061Z</time></trkpt><trkpt lat="42.415345" lon="-7.3929695"><ele>610.75</ele><time>2026-04-25T12:06:18.058Z</time></trkpt><trkpt lat="42.4154313" lon="-7.3928696"><ele>609.5</ele><time>2026-04-25T12:06:19.05Z</time></trkpt><trkpt lat="42.4154869" lon="-7.3927565"><ele>608.25</ele><time>2026-04-25T12:06:20.053Z</time></trkpt><trkpt lat="42.4155391" lon="-7.3926151"><ele>607.0</ele><time>2026-04-25T12:06:21.053Z</time></trkpt><trkpt lat="42.4155925" lon="-7.3924504"><ele>607.0</ele><time>2026-04-25T12:06:22.052Z</time></trkpt><trkpt lat="42.4156421" lon="-7.3922964"><ele>607.0</ele><time>2026-04-25T12:06:23.052Z</time></trkpt><trkpt lat="42.4156849" lon="-7.3921427"><ele>607.0</ele><time>2026-04-25T12:06:24.039Z</time></trkpt><trkpt lat="42.4157294" lon="-7.3919875"><ele>607.0</ele><time>2026-04-25T12:06:25.046Z</time></trkpt><trkpt lat="42.4157719" lon="-7.3918244"><ele>610.0</ele><time>2026-04-25T12:06:26.053Z</time></trkpt><trkpt lat="42.4158105" lon="-7.3916513"><ele>613.0</ele><time>2026-04-25T12:06:27.047Z</time></trkpt><trkpt lat="42.4158446" lon="-7.3914742"><ele>616.0</ele><time>2026-04-25T12:06:28.045Z</time></trkpt><trkpt lat="42.415883" lon="-7.3912949"><ele>619.0</ele><time>2026-04-25T12:06:29.042Z</time></trkpt><trkpt lat="42.4159313" lon="-7.391126"><ele>623.0</ele><time>2026-04-25T12:06:30.052Z</time></trkpt><trkpt lat="42.4159805" lon="-7.3909528"><ele>627.0</ele><time>2026-04-25T12:06:31.048Z</time></trkpt><trkpt lat="42.4160261" lon="-7.3907804"><ele>631.0</ele><time>2026-04-25T12:06:32.05Z</time></trkpt><trkpt lat="42.4160571" lon="-7.3906188"><ele>635.0</ele><time>2026-04-25T12:06:33.049Z</time></trkpt><trkpt lat="42.4160601" lon="-7.3904722"><ele>637.75</ele><time>2026-04-25T12:06:34.045Z</time></trkpt><trkpt lat="42.4160628" lon="-7.3903154"><ele>640.5</ele><time>2026-04-25T12:06:35.047Z</time></trkpt><trkpt lat="42.4160692" lon="-7.3901548"><ele>643.25</ele><time>2026-04-25T12:06:36.048Z</time></trkpt><trkpt lat="42.4160457" lon="-7.389985"><ele>646.0</ele><time>2026-04-25T12:06:37.048Z</time></trkpt><trkpt lat="42.4160147" lon="-7.3898349"><ele>646.0</ele><time>2026-04-25T12:06:38.049Z</time></trkpt><trkpt lat="42.4159781" lon="-7.3897013"><ele>646.0</ele><time>2026-04-25T12:06:39.044Z</time></trkpt><trkpt lat="42.4159404" lon="-7.3895852"><ele>646.0</ele><time>2026-04-25T12:06:40.046Z</time></trkpt><trkpt lat="42.4158954" lon="-7.3894789"><ele>646.0</ele><time>2026-04-25T12:06:41.042Z</time></trkpt><trkpt lat="42.4158532" lon="-7.3893823"><ele>646.0</ele><time>2026-04-25T12:06:42.048Z</time></trkpt><trkpt lat="42.4157916" lon="-7.3892835"><ele>645.1999999999999</ele><time>2026-04-25T12:06:43.045Z</time></trkpt><trkpt lat="42.4157235" lon="-7.3891786"><ele>644.4</ele><time>2026-04-25T12:06:44.046Z</time></trkpt><trkpt lat="42.415655" lon="-7.3890712"><ele>643.6</ele><time>2026-04-25T12:06:45.05Z</time></trkpt><trkpt lat="42.4155946" lon="-7.3889728"><ele>642.8</ele><time>2026-04-25T12:06:46.05Z</time></trkpt><trkpt lat="42.4155439" lon="-7.3888845"><ele>642.0</ele><time>2026-04-25T12:06:47.045Z</time></trkpt><trkpt lat="42.4155267" lon="-7.3887935"><ele>644.2</ele><time>2026-04-25T12:06:48.054Z</time></trkpt><trkpt lat="42.415582" lon="-7.3886361"><ele>646.4000000000001</ele><time>2026-04-25T12:06:50.046Z</time></trkpt><trkpt lat="42.4156573" lon="-7.3885714"><ele>648.5999999999999</ele><time>2026-04-25T12:06:51.042Z</time></trkpt><trkpt lat="42.4157338" lon="-7.3885056"><ele>650.8</ele><time>2026-04-25T12:06:52.042Z</time></trkpt><trkpt lat="42.4158275" lon="-7.3884503"><ele>653.0</ele><time>2026-04-25T12:06:53.049Z</time></trkpt><trkpt lat="42.4159371" lon="-7.3883719"><ele>653.0</ele><time>2026-04-25T12:06:54.054Z</time></trkpt><trkpt lat="42.4160531" lon="-7.3882943"><ele>653.0</ele><time>2026-04-25T12:06:55.049Z</time></trkpt><trkpt lat="42.4161676" lon="-7.3882277"><ele>653.0</ele><time>2026-04-25T12:06:56.053Z</time></trkpt><trkpt lat="42.4162847" lon="-7.3881651"><ele>653.0</ele><time>2026-04-25T12:06:57.045Z</time></trkpt><trkpt lat="42.4164093" lon="-7.3881449"><ele>652.4</ele><time>2026-04-25T12:06:58.047Z</time></trkpt><trkpt lat="42.4165269" lon="-7.3881535"><ele>651.8</ele><time>2026-04-25T12:06:59.049Z</time></trkpt><trkpt lat="42.4166281" lon="-7.3881812"><ele>651.2</ele><time>2026-04-25T12:07:00.044Z</time></trkpt><trkpt lat="42.4167195" lon="-7.3881974"><ele>650.6</ele><time>2026-04-25T12:07:01.046Z</time></trkpt><trkpt lat="42.4168228" lon="-7.388205"><ele>650.0</ele><time>2026-04-25T12:07:02.048Z</time></trkpt><trkpt lat="42.4169239" lon="-7.38821"><ele>650.0</ele><time>2026-04-25T12:07:03.043Z</time></trkpt><trkpt lat="42.4170003" lon="-7.3882233"><ele>650.0</ele><time>2026-04-25T12:07:04.044Z</time></trkpt><trkpt lat="42.4171128" lon="-7.3882411"><ele>650.0</ele><time>2026-04-25T12:07:06.045Z</time></trkpt><trkpt lat="42.4171763" lon="-7.3882555"><ele>650.0</ele><time>2026-04-25T12:07:07.045Z</time></trkpt><trkpt lat="42.4172614" lon="-7.388289"><ele>650.0</ele><time>2026-04-25T12:07:08.044Z</time></trkpt><trkpt lat="42.4173627" lon="-7.3883438"><ele>651.75</ele><time>2026-04-25T12:07:09.045Z</time></trkpt><trkpt lat="42.4174712" lon="-7.3884024"><ele>653.5</ele><time>2026-04-25T12:07:10.052Z</time></trkpt><trkpt lat="42.4175906" lon="-7.3884687"><ele>655.25</ele><time>2026-04-25T12:07:11.051Z</time></trkpt><trkpt lat="42.4177144" lon="-7.3885396"><ele>657.0</ele><time>2026-04-25T12:07:12.041Z</time></trkpt><trkpt lat="42.4178323" lon="-7.3886117"><ele>657.0</ele><time>2026-04-25T12:07:13.053Z</time></trkpt><trkpt lat="42.4179366" lon="-7.388676"><ele>657.0</ele><time>2026-04-25T12:07:14.053Z</time></trkpt><trkpt lat="42.4180294" lon="-7.3887246"><ele>657.0</ele><time>2026-04-25T12:07:15.055Z</time></trkpt><trkpt lat="42.4181142" lon="-7.3887532"><ele>657.0</ele><time>2026-04-25T12:07:16.051Z</time></trkpt><trkpt lat="42.4181909" lon="-7.3887778"><ele>657.0</ele><time>2026-04-25T12:07:17.05Z</time></trkpt><trkpt lat="42.4182513" lon="-7.3887265"><ele>655.6</ele><time>2026-04-25T12:07:18.053Z</time></trkpt><trkpt lat="42.4182842" lon="-7.3886367"><ele>654.2</ele><time>2026-04-25T12:07:19.056Z</time></trkpt><trkpt lat="42.418304" lon="-7.3885113"><ele>652.8</ele><time>2026-04-25T12:07:20.047Z</time></trkpt><trkpt lat="42.4183249" lon="-7.3883574"><ele>651.4</ele><time>2026-04-25T12:07:21.045Z</time></trkpt><trkpt lat="42.4183529" lon="-7.3881819"><ele>650.0</ele><time>2026-04-25T12:07:22.053Z</time></trkpt><trkpt lat="42.4183783" lon="-7.3880061"><ele>650.0</ele><time>2026-04-25T12:07:23.05Z</time></trkpt><trkpt lat="42.4184022" lon="-7.3878387"><ele>650.0</ele><time>2026-04-25T12:07:24.042Z</time></trkpt><trkpt lat="42.4184272" lon="-7.3876769"><ele>650.0</ele><time>2026-04-25T12:07:25.048Z</time></trkpt><trkpt lat="42.4184529" lon="-7.3875267"><ele>650.0</ele><time>2026-04-25T12:07:26.05Z</time></trkpt><trkpt lat="42.4184809" lon="-7.3873881"><ele>650.0</ele><time>2026-04-25T12:07:27.041Z</time></trkpt><trkpt lat="42.4185058" lon="-7.3872573"><ele>650.0</ele><time>2026-04-25T12:07:28.049Z</time></trkpt><trkpt lat="42.4185289" lon="-7.387135"><ele>650.0</ele><time>2026-04-25T12:07:29.048Z</time></trkpt><trkpt lat="42.4185503" lon="-7.3870187"><ele>650.0</ele><time>2026-04-25T12:07:30.052Z</time></trkpt><trkpt lat="42.4185696" lon="-7.3869111"><ele>650.0</ele><time>2026-04-25T12:07:31.051Z</time></trkpt><trkpt lat="42.4185864" lon="-7.3868081"><ele>650.0</ele><time>2026-04-25T12:07:32.046Z</time></trkpt><trkpt lat="42.4185967" lon="-7.3867009"><ele>651.1666666666666</ele><time>2026-04-25T12:07:33.045Z</time></trkpt><trkpt lat="42.4186012" lon="-7.3865809"><ele>652.3333333333333</ele><time>2026-04-25T12:07:34.051Z</time></trkpt><trkpt lat="42.4186015" lon="-7.3864613"><ele>653.5</ele><time>2026-04-25T12:07:35.044Z</time></trkpt><trkpt lat="42.4186087" lon="-7.3863584"><ele>654.6666666666666</ele><time>2026-04-25T12:07:36.05Z</time></trkpt><trkpt lat="42.4186586" lon="-7.3862195"><ele>655.8333333333334</ele><time>2026-04-25T12:07:38.052Z</time></trkpt><trkpt lat="42.4187246" lon="-7.3862175"><ele>657.0</ele><time>2026-04-25T12:07:39.043Z</time></trkpt><trkpt lat="42.4188016" lon="-7.3862468"><ele>657.0</ele><time>2026-04-25T12:07:40.047Z</time></trkpt><trkpt lat="42.4188816" lon="-7.3863042"><ele>657.0</ele><time>2026-04-25T12:07:41.049Z</time></trkpt><trkpt lat="42.4189591" lon="-7.3863937"><ele>657.0</ele><time>2026-04-25T12:07:42.043Z</time></trkpt><trkpt lat="42.4190326" lon="-7.3865001"><ele>657.0</ele><time>2026-04-25T12:07:43.05Z</time></trkpt><trkpt lat="42.4191072" lon="-7.3866111"><ele>657.0</ele><time>2026-04-25T12:07:44.048Z</time></trkpt><trkpt lat="42.4191812" lon="-7.386707"><ele>651.6</ele><time>2026-04-25T12:07:45.051Z</time></trkpt><trkpt lat="42.4192636" lon="-7.3867678"><ele>646.2</ele><time>2026-04-25T12:07:46.053Z</time></trkpt><trkpt lat="42.4193425" lon="-7.3868234"><ele>640.8</ele><time>2026-04-25T12:07:47.048Z</time></trkpt><trkpt lat="42.4194406" lon="-7.3867823"><ele>635.4</ele><time>2026-04-25T12:07:48.038Z</time></trkpt><trkpt lat="42.4195431" lon="-7.3867114"><ele>630.0</ele><time>2026-04-25T12:07:49.05Z</time></trkpt><trkpt lat="42.4196391" lon="-7.3866384"><ele>630.5</ele><time>2026-04-25T12:07:50.046Z</time></trkpt><trkpt lat="42.4197184" lon="-7.3865548"><ele>631.0</ele><time>2026-04-25T12:07:51.044Z</time></trkpt><trkpt lat="42.4197694" lon="-7.3864608"><ele>631.5</ele><time>2026-04-25T12:07:52.053Z</time></trkpt><trkpt lat="42.4197897" lon="-7.3863625"><ele>632.0</ele><time>2026-04-25T12:07:53.046Z</time></trkpt><trkpt lat="42.4198021" lon="-7.3862559"><ele>632.5</ele><time>2026-04-25T12:07:54.043Z</time></trkpt><trkpt lat="42.4198154" lon="-7.3861454"><ele>633.0</ele><time>2026-04-25T12:07:55.051Z</time></trkpt><trkpt lat="42.4198364" lon="-7.3860571"><ele>633.0</ele><time>2026-04-25T12:07:56.053Z</time></trkpt><trkpt lat="42.4199141" lon="-7.3859328"><ele>633.0</ele><time>2026-04-25T12:07:58.052Z</time></trkpt><trkpt lat="42.4200233" lon="-7.3859057"><ele>633.0</ele><time>2026-04-25T12:08:00.045Z</time></trkpt><trkpt lat="42.4200744" lon="-7.3859711"><ele>633.0</ele><time>2026-04-25T12:08:01.049Z</time></trkpt><trkpt lat="42.4201404" lon="-7.3860512"><ele>633.0</ele><time>2026-04-25T12:08:02.043Z</time></trkpt><trkpt lat="42.4202059" lon="-7.3861387"><ele>633.0</ele><time>2026-04-25T12:08:03.045Z</time></trkpt><trkpt lat="42.4202638" lon="-7.3862355"><ele>633.0</ele><time>2026-04-25T12:08:04.045Z</time></trkpt><trkpt lat="42.4203216" lon="-7.3863372"><ele>633.0</ele><time>2026-04-25T12:08:05.045Z</time></trkpt><trkpt lat="42.4203746" lon="-7.386437"><ele>633.0</ele><time>2026-04-25T12:08:06.046Z</time></trkpt><trkpt lat="42.4204341" lon="-7.3865283"><ele>633.0</ele><time>2026-04-25T12:08:07.054Z</time></trkpt><trkpt lat="42.4204904" lon="-7.3866068"><ele>633.0</ele><time>2026-04-25T12:08:08.048Z</time></trkpt><trkpt lat="42.4205578" lon="-7.3866568"><ele>627.0</ele><time>2026-04-25T12:08:09.041Z</time></trkpt><trkpt lat="42.4206315" lon="-7.3866682"><ele>621.0</ele><time>2026-04-25T12:08:10.053Z</time></trkpt><trkpt lat="42.4207217" lon="-7.3866573"><ele>615.0</ele><time>2026-04-25T12:08:11.048Z</time></trkpt><trkpt lat="42.4208303" lon="-7.3866329"><ele>609.0</ele><time>2026-04-25T12:08:12.043Z</time></trkpt><trkpt lat="42.42094" lon="-7.38661"><ele>603.0</ele><time>2026-04-25T12:08:13.04Z</time></trkpt><trkpt lat="42.4210452" lon="-7.3865908"><ele>603.0</ele><time>2026-04-25T12:08:14.045Z</time></trkpt><trkpt lat="42.4211443" lon="-7.3865765"><ele>603.0</ele><time>2026-04-25T12:08:15.042Z</time></trkpt><trkpt lat="42.4212343" lon="-7.3865586"><ele>603.0</ele><time>2026-04-25T12:08:16.044Z</time></trkpt><trkpt lat="42.4213101" lon="-7.3865279"><ele>603.0</ele><time>2026-04-25T12:08:17.045Z</time></trkpt><trkpt lat="42.4213687" lon="-7.3864892"><ele>603.0</ele><time>2026-04-25T12:08:18.048Z</time></trkpt><trkpt lat="42.4214665" lon="-7.3864539"><ele>603.0</ele><time>2026-04-25T12:08:20.046Z</time></trkpt><trkpt lat="42.4214824" lon="-7.3865463"><ele>603.0</ele><time>2026-04-25T12:08:23.047Z</time></trkpt><trkpt lat="42.4213917" lon="-7.3866199"><ele>603.0</ele><time>2026-04-25T12:08:25.046Z</time></trkpt><trkpt lat="42.4213273" lon="-7.3866531"><ele>603.0</ele><time>2026-04-25T12:08:26.05Z</time></trkpt><trkpt lat="42.4212588" lon="-7.3866866"><ele>603.0</ele><time>2026-04-25T12:08:27.044Z</time></trkpt><trkpt lat="42.4211964" lon="-7.3867214"><ele>603.0</ele><time>2026-04-25T12:08:28.049Z</time></trkpt><trkpt lat="42.4211358" lon="-7.3867604"><ele>603.0</ele><time>2026-04-25T12:08:29.051Z</time></trkpt><trkpt lat="42.4210811" lon="-7.386806"><ele>603.0</ele><time>2026-04-25T12:08:30.044Z</time></trkpt><trkpt lat="42.4210235" lon="-7.3868566"><ele>603.0</ele><time>2026-04-25T12:08:31.059Z</time></trkpt><trkpt lat="42.4209669" lon="-7.3869197"><ele>603.0</ele><time>2026-04-25T12:08:32.045Z</time></trkpt><trkpt lat="42.4209131" lon="-7.3869876"><ele>603.0</ele><time>2026-04-25T12:08:33.046Z</time></trkpt><trkpt lat="42.4208645" lon="-7.3870605"><ele>603.0</ele><time>2026-04-25T12:08:34.054Z</time></trkpt><trkpt lat="42.4208178" lon="-7.3871331"><ele>603.0</ele><time>2026-04-25T12:08:35.046Z</time></trkpt><trkpt lat="42.4207806" lon="-7.3872197"><ele>603.0</ele><time>2026-04-25T12:08:36.038Z</time></trkpt><trkpt lat="42.4207505" lon="-7.3873028"><ele>603.0</ele><time>2026-04-25T12:08:37.056Z</time></trkpt><trkpt lat="42.4207175" lon="-7.3873948"><ele>600.1666666666666</ele><time>2026-04-25T12:08:38.056Z</time></trkpt><trkpt lat="42.4206857" lon="-7.3874859"><ele>597.3333333333334</ele><time>2026-04-25T12:08:39.042Z</time></trkpt><trkpt lat="42.4206513" lon="-7.3875741"><ele>594.5</ele><time>2026-04-25T12:08:40.046Z</time></trkpt><trkpt lat="42.4206147" lon="-7.3876597"><ele>591.6666666666667</ele><time>2026-04-25T12:08:41.045Z</time></trkpt><trkpt lat="42.420573" lon="-7.3877436"><ele>588.8333333333334</ele><time>2026-04-25T12:08:42.044Z</time></trkpt><trkpt lat="42.4205242" lon="-7.3878269"><ele>586.0</ele><time>2026-04-25T12:08:43.044Z</time></trkpt><trkpt lat="42.4204775" lon="-7.3879097"><ele>584.0</ele><time>2026-04-25T12:08:44.049Z</time></trkpt><trkpt lat="42.4204463" lon="-7.3880555"><ele>582.0</ele><time>2026-04-25T12:08:46.047Z</time></trkpt><trkpt lat="42.4205296" lon="-7.388097"><ele>580.0</ele><time>2026-04-25T12:08:48.044Z</time></trkpt><trkpt lat="42.4205946" lon="-7.3880864"><ele>578.0</ele><time>2026-04-25T12:08:49.049Z</time></trkpt><trkpt lat="42.4206715" lon="-7.38799"><ele>576.0</ele><time>2026-04-25T12:08:50.051Z</time></trkpt><trkpt lat="42.4207536" lon="-7.3878844"><ele>576.0</ele><time>2026-04-25T12:08:51.052Z</time></trkpt><trkpt lat="42.4208318" lon="-7.3877786"><ele>576.0</ele><time>2026-04-25T12:08:52.05Z</time></trkpt><trkpt lat="42.4209168" lon="-7.3876701"><ele>576.0</ele><time>2026-04-25T12:08:53.048Z</time></trkpt><trkpt lat="42.4210085" lon="-7.3875639"><ele>576.0</ele><time>2026-04-25T12:08:54.05Z</time></trkpt><trkpt lat="42.4210987" lon="-7.3874656"><ele>576.0</ele><time>2026-04-25T12:08:55.047Z</time></trkpt><trkpt lat="42.4211913" lon="-7.387373"><ele>576.0</ele><time>2026-04-25T12:08:56.041Z</time></trkpt><trkpt lat="42.4212868" lon="-7.3872928"><ele>576.0</ele><time>2026-04-25T12:08:57.049Z</time></trkpt><trkpt lat="42.4213826" lon="-7.3872142"><ele>576.0</ele><time>2026-04-25T12:08:58.051Z</time></trkpt><trkpt lat="42.4214915" lon="-7.3871626"><ele>577.8</ele><time>2026-04-25T12:08:59.052Z</time></trkpt><trkpt lat="42.421602" lon="-7.3871208"><ele>579.6</ele><time>2026-04-25T12:09:00.045Z</time></trkpt><trkpt lat="42.4217093" lon="-7.3870866"><ele>581.4</ele><time>2026-04-25T12:09:01.055Z</time></trkpt><trkpt lat="42.421813" lon="-7.3870534"><ele>583.2</ele><time>2026-04-25T12:09:02.046Z</time></trkpt><trkpt lat="42.4219143" lon="-7.3870186"><ele>585.0</ele><time>2026-04-25T12:09:03.053Z</time></trkpt><trkpt lat="42.4220126" lon="-7.386989"><ele>585.0</ele><time>2026-04-25T12:09:04.045Z</time></trkpt><trkpt lat="42.4221101" lon="-7.3869637"><ele>585.0</ele><time>2026-04-25T12:09:05.047Z</time></trkpt><trkpt lat="42.4222022" lon="-7.3869317"><ele>585.0</ele><time>2026-04-25T12:09:06.047Z</time></trkpt><trkpt lat="42.4222918" lon="-7.3868981"><ele>585.0</ele><time>2026-04-25T12:09:07.047Z</time></trkpt><trkpt lat="42.4223732" lon="-7.3868316"><ele>585.0</ele><time>2026-04-25T12:09:08.061Z</time></trkpt><trkpt lat="42.4224451" lon="-7.3867509"><ele>579.0</ele><time>2026-04-25T12:09:09.051Z</time></trkpt><trkpt lat="42.422516" lon="-7.3866604"><ele>573.0</ele><time>2026-04-25T12:09:10.056Z</time></trkpt><trkpt lat="42.4225877" lon="-7.3865749"><ele>567.0</ele><time>2026-04-25T12:09:11.052Z</time></trkpt><trkpt lat="42.4226538" lon="-7.3864971"><ele>561.0</ele><time>2026-04-25T12:09:12.042Z</time></trkpt><trkpt lat="42.4227249" lon="-7.3864271"><ele>555.0</ele><time>2026-04-25T12:09:13.046Z</time></trkpt><trkpt lat="42.4228024" lon="-7.3863711"><ele>557.1666666666666</ele><time>2026-04-25T12:09:14.049Z</time></trkpt><trkpt lat="42.4228841" lon="-7.386336"><ele>559.3333333333334</ele><time>2026-04-25T12:09:15.055Z</time></trkpt><trkpt lat="42.4229698" lon="-7.3863208"><ele>561.5</ele><time>2026-04-25T12:09:16.044Z</time></trkpt><trkpt lat="42.423057" lon="-7.386313"><ele>563.6666666666667</ele><time>2026-04-25T12:09:17.047Z</time></trkpt><trkpt lat="42.4231445" lon="-7.3863151"><ele>565.8333333333334</ele><time>2026-04-25T12:09:18.047Z</time></trkpt><trkpt lat="42.4232314" lon="-7.3863194"><ele>568.0</ele><time>2026-04-25T12:09:19.042Z</time></trkpt><trkpt lat="42.4233156" lon="-7.3863594"><ele>563.0</ele><time>2026-04-25T12:09:20.053Z</time></trkpt><trkpt lat="42.4233975" lon="-7.386407"><ele>558.0</ele><time>2026-04-25T12:09:21.049Z</time></trkpt><trkpt lat="42.4234791" lon="-7.3864496"><ele>553.0</ele><time>2026-04-25T12:09:22.04Z</time></trkpt><trkpt lat="42.4235651" lon="-7.3864798"><ele>548.0</ele><time>2026-04-25T12:09:23.046Z</time></trkpt><trkpt lat="42.423645" lon="-7.3864939"><ele>543.0</ele><time>2026-04-25T12:09:24.05Z</time></trkpt><trkpt lat="42.4237165" lon="-7.3865074"><ele>538.0</ele><time>2026-04-25T12:09:25.048Z</time></trkpt><trkpt lat="42.4237815" lon="-7.3864827"><ele>537.6666666666667</ele><time>2026-04-25T12:09:26.044Z</time></trkpt><trkpt lat="42.4238451" lon="-7.38645"><ele>537.3333333333334</ele><time>2026-04-25T12:09:27.047Z</time></trkpt><trkpt lat="42.4238775" lon="-7.3863685"><ele>537.0</ele><time>2026-04-25T12:09:28.061Z</time></trkpt><trkpt lat="42.4239742" lon="-7.3862875"><ele>536.6666666666666</ele><time>2026-04-25T12:09:30.05Z</time></trkpt><trkpt lat="42.4240867" lon="-7.3863435"><ele>536.3333333333333</ele><time>2026-04-25T12:09:32.041Z</time></trkpt><trkpt lat="42.4241568" lon="-7.3863869"><ele>536.0</ele><time>2026-04-25T12:09:33.046Z</time></trkpt><trkpt lat="42.4242421" lon="-7.3864229"><ele>536.0</ele><time>2026-04-25T12:09:34.043Z</time></trkpt><trkpt lat="42.4243412" lon="-7.3864395"><ele>536.0</ele><time>2026-04-25T12:09:35.051Z</time></trkpt><trkpt lat="42.4244373" lon="-7.3864425"><ele>536.0</ele><time>2026-04-25T12:09:36.049Z</time></trkpt><trkpt lat="42.4245279" lon="-7.3864408"><ele>536.0</ele><time>2026-04-25T12:09:37.045Z</time></trkpt><trkpt lat="42.4246013" lon="-7.3864315"><ele>536.0</ele><time>2026-04-25T12:09:38.042Z</time></trkpt><trkpt lat="42.4247114" lon="-7.3864233"><ele>536.0</ele><time>2026-04-25T12:09:40.049Z</time></trkpt><trkpt lat="42.4247381" lon="-7.3865354"><ele>536.0</ele><time>2026-04-25T12:09:42.04Z</time></trkpt><trkpt lat="42.4246903" lon="-7.3866522"><ele>536.0</ele><time>2026-04-25T12:09:44.041Z</time></trkpt><trkpt lat="42.4245999" lon="-7.3867908"><ele>536.0</ele><time>2026-04-25T12:09:46.049Z</time></trkpt><trkpt lat="42.4245535" lon="-7.3868551"><ele>536.0</ele><time>2026-04-25T12:09:47.047Z</time></trkpt><trkpt lat="42.4245132" lon="-7.3869239"><ele>536.0</ele><time>2026-04-25T12:09:48.043Z</time></trkpt><trkpt lat="42.4244509" lon="-7.3870645"><ele>536.0</ele><time>2026-04-25T12:09:50.04Z</time></trkpt><trkpt lat="42.4244212" lon="-7.3871594"><ele>536.0</ele><time>2026-04-25T12:09:51.045Z</time></trkpt><trkpt lat="42.4243822" lon="-7.3872937"><ele>536.0</ele><time>2026-04-25T12:09:52.047Z</time></trkpt><trkpt lat="42.4243488" lon="-7.3874385"><ele>536.0</ele><time>2026-04-25T12:09:53.045Z</time></trkpt><trkpt lat="42.4243205" lon="-7.3875905"><ele>534.0</ele><time>2026-04-25T12:09:54.042Z</time></trkpt><trkpt lat="42.4242896" lon="-7.387732"><ele>532.0</ele><time>2026-04-25T12:09:55.053Z</time></trkpt><trkpt lat="42.4242508" lon="-7.387856"><ele>530.0</ele><time>2026-04-25T12:09:56.053Z</time></trkpt><trkpt lat="42.4242035" lon="-7.3879763"><ele>528.0</ele><time>2026-04-25T12:09:57.045Z</time></trkpt><trkpt lat="42.4241627" lon="-7.3880939"><ele>526.0</ele><time>2026-04-25T12:09:58.043Z</time></trkpt><trkpt lat="42.4241207" lon="-7.3882112"><ele>525.8</ele><time>2026-04-25T12:09:59.047Z</time></trkpt><trkpt lat="42.4241066" lon="-7.3883324"><ele>525.6</ele><time>2026-04-25T12:10:00.044Z</time></trkpt><trkpt lat="42.4241169" lon="-7.3884565"><ele>525.4</ele><time>2026-04-25T12:10:01.045Z</time></trkpt><trkpt lat="42.4241415" lon="-7.3885919"><ele>525.2</ele><time>2026-04-25T12:10:02.046Z</time></trkpt><trkpt lat="42.4241629" lon="-7.3887242"><ele>525.0</ele><time>2026-04-25T12:10:03.049Z</time></trkpt><trkpt lat="42.4241664" lon="-7.3888529"><ele>524.5</ele><time>2026-04-25T12:10:04.045Z</time></trkpt><trkpt lat="42.4241589" lon="-7.3889789"><ele>524.0</ele><time>2026-04-25T12:10:05.044Z</time></trkpt><trkpt lat="42.4241438" lon="-7.3891064"><ele>523.5</ele><time>2026-04-25T12:10:06.042Z</time></trkpt><trkpt lat="42.4241308" lon="-7.389226"><ele>523.0</ele><time>2026-04-25T12:10:07.048Z</time></trkpt><trkpt lat="42.4241271" lon="-7.3893321"><ele>522.5</ele><time>2026-04-25T12:10:08.049Z</time></trkpt><trkpt lat="42.4241231" lon="-7.3894297"><ele>522.0</ele><time>2026-04-25T12:10:09.045Z</time></trkpt><trkpt lat="42.4241413" lon="-7.389525"><ele>522.0</ele><time>2026-04-25T12:10:10.047Z</time></trkpt><trkpt lat="42.4241781" lon="-7.3896064"><ele>522.0</ele><time>2026-04-25T12:10:11.049Z</time></trkpt><trkpt lat="42.4242318" lon="-7.3896667"><ele>522.0</ele><time>2026-04-25T12:10:12.057Z</time></trkpt><trkpt lat="42.4242958" lon="-7.3897044"><ele>522.0</ele><time>2026-04-25T12:10:13.048Z</time></trkpt><trkpt lat="42.4243541" lon="-7.3897372"><ele>522.0</ele><time>2026-04-25T12:10:14.04Z</time></trkpt><trkpt lat="42.4244396" lon="-7.3898161"><ele>522.0</ele><time>2026-04-25T12:10:16.043Z</time></trkpt><trkpt lat="42.4244924" lon="-7.3899185"><ele>521.2</ele><time>2026-04-25T12:10:18.049Z</time></trkpt><trkpt lat="42.4245319" lon="-7.3900406"><ele>520.4000000000001</ele><time>2026-04-25T12:10:20.047Z</time></trkpt><trkpt lat="42.4245833" lon="-7.3901702"><ele>519.5999999999999</ele><time>2026-04-25T12:10:22.05Z</time></trkpt><trkpt lat="42.4246401" lon="-7.3903143"><ele>518.8</ele><time>2026-04-25T12:10:24.047Z</time></trkpt><trkpt lat="42.4246685" lon="-7.3903936"><ele>518.0</ele><time>2026-04-25T12:10:25.044Z</time></trkpt><trkpt lat="42.4246841" lon="-7.3904809"><ele>520.1666666666666</ele><time>2026-04-25T12:10:26.05Z</time></trkpt><trkpt lat="42.4246999" lon="-7.3905662"><ele>522.3333333333333</ele><time>2026-04-25T12:10:27.051Z</time></trkpt><trkpt lat="42.4247353" lon="-7.3906996"><ele>524.5</ele><time>2026-04-25T12:10:29.05Z</time></trkpt><trkpt lat="42.424765" lon="-7.3907749"><ele>526.6666666666666</ele><time>2026-04-25T12:10:30.05Z</time></trkpt><trkpt lat="42.4248404" lon="-7.3909059"><ele>528.8333333333334</ele><time>2026-04-25T12:10:32.05Z</time></trkpt><trkpt lat="42.4248886" lon="-7.3909644"><ele>531.0</ele><time>2026-04-25T12:10:33.049Z</time></trkpt><trkpt lat="42.4249348" lon="-7.3910239"><ele>531.0</ele><time>2026-04-25T12:10:34.047Z</time></trkpt><trkpt lat="42.4249829" lon="-7.3910861"><ele>531.0</ele><time>2026-04-25T12:10:35.047Z</time></trkpt><trkpt lat="42.4250332" lon="-7.3911468"><ele>531.0</ele><time>2026-04-25T12:10:36.056Z</time></trkpt><trkpt lat="42.4250818" lon="-7.3912053"><ele>531.0</ele><time>2026-04-25T12:10:37.05Z</time></trkpt><trkpt lat="42.4251335" lon="-7.3912623"><ele>531.0</ele><time>2026-04-25T12:10:38.053Z</time></trkpt><trkpt lat="42.4252397" lon="-7.3913514"><ele>531.0</ele><time>2026-04-25T12:10:40.053Z</time></trkpt><trkpt lat="42.4253308" lon="-7.3914241"><ele>531.6</ele><time>2026-04-25T12:10:42.043Z</time></trkpt><trkpt lat="42.425418" lon="-7.3914828"><ele>532.2</ele><time>2026-04-25T12:10:44.044Z</time></trkpt><trkpt lat="42.4255177" lon="-7.3915291"><ele>532.8</ele><time>2026-04-25T12:10:46.048Z</time></trkpt><trkpt lat="42.4256325" lon="-7.3915521"><ele>533.4</ele><time>2026-04-25T12:10:48.048Z</time></trkpt><trkpt lat="42.4257561" lon="-7.3915629"><ele>534.0</ele><time>2026-04-25T12:10:50.048Z</time></trkpt><trkpt lat="42.4258175" lon="-7.3915857"><ele>534.0</ele><time>2026-04-25T12:10:51.049Z</time></trkpt><trkpt lat="42.4259337" lon="-7.3916334"><ele>534.0</ele><time>2026-04-25T12:10:53.043Z</time></trkpt><trkpt lat="42.4259997" lon="-7.3916646"><ele>534.0</ele><time>2026-04-25T12:10:54.047Z</time></trkpt><trkpt lat="42.4260685" lon="-7.3916962"><ele>534.0</ele><time>2026-04-25T12:10:55.054Z</time></trkpt><trkpt lat="42.4261404" lon="-7.3917284"><ele>534.0</ele><time>2026-04-25T12:10:56.051Z</time></trkpt><trkpt lat="42.4262113" lon="-7.3917604"><ele>534.0</ele><time>2026-04-25T12:10:57.046Z</time></trkpt><trkpt lat="42.4262814" lon="-7.3917896"><ele>537.1428571428572</ele><time>2026-04-25T12:10:58.052Z</time></trkpt><trkpt lat="42.4263516" lon="-7.3918203"><ele>540.2857142857143</ele><time>2026-04-25T12:10:59.049Z</time></trkpt><trkpt lat="42.4264187" lon="-7.3918611"><ele>543.4285714285714</ele><time>2026-04-25T12:11:00.043Z</time></trkpt><trkpt lat="42.4264894" lon="-7.3919066"><ele>546.5714285714287</ele><time>2026-04-25T12:11:01.043Z</time></trkpt><trkpt lat="42.4265555" lon="-7.3919533"><ele>549.7142857142858</ele><time>2026-04-25T12:11:02.045Z</time></trkpt><trkpt lat="42.4266175" lon="-7.3919979"><ele>552.8571428571429</ele><time>2026-04-25T12:11:03.048Z</time></trkpt><trkpt lat="42.4266844" lon="-7.3920489"><ele>556.0</ele><time>2026-04-25T12:11:04.044Z</time></trkpt><trkpt lat="42.4267521" lon="-7.3921017"><ele>556.0</ele><time>2026-04-25T12:11:05.038Z</time></trkpt><trkpt lat="42.4268217" lon="-7.3921587"><ele>556.0</ele><time>2026-04-25T12:11:06.049Z</time></trkpt><trkpt lat="42.4268894" lon="-7.3922173"><ele>556.0</ele><time>2026-04-25T12:11:07.051Z</time></trkpt><trkpt lat="42.4269524" lon="-7.3922812"><ele>556.0</ele><time>2026-04-25T12:11:08.051Z</time></trkpt><trkpt lat="42.427015" lon="-7.392352"><ele>556.0</ele><time>2026-04-25T12:11:09.055Z</time></trkpt><trkpt lat="42.427065" lon="-7.3924131"><ele>556.0</ele><time>2026-04-25T12:11:10.05Z</time></trkpt><trkpt lat="42.4271316" lon="-7.3924987"><ele>556.5</ele><time>2026-04-25T12:11:12.045Z</time></trkpt><trkpt lat="42.4271483" lon="-7.3925879"><ele>557.0</ele><time>2026-04-25T12:11:17.054Z</time></trkpt><trkpt lat="42.4271401" lon="-7.3926959"><ele>557.5</ele><time>2026-04-25T12:11:31.06Z</time></trkpt><trkpt lat="42.4271429" lon="-7.3928259"><ele>558.0</ele><time>2026-04-25T12:11:33.06Z</time></trkpt><trkpt lat="42.4271391" lon="-7.3929261"><ele>558.5</ele><time>2026-04-25T12:11:35.054Z</time></trkpt><trkpt lat="42.4271428" lon="-7.3927686"><ele>559.0</ele><time>2026-04-25T12:11:54.047Z</time></trkpt><trkpt lat="42.4271316" lon="-7.3926698"><ele>559.0</ele><time>2026-04-25T12:11:55.051Z</time></trkpt><trkpt lat="42.4271271" lon="-7.392545"><ele>559.0</ele><time>2026-04-25T12:11:57.048Z</time></trkpt><trkpt lat="42.427191" lon="-7.3926606"><ele>559.0</ele><time>2026-04-25T12:12:00.057Z</time></trkpt><trkpt lat="42.4272113" lon="-7.3927517"><ele>559.0</ele><time>2026-04-25T12:12:01.05Z</time></trkpt><trkpt lat="42.4272417" lon="-7.3928805"><ele>559.0</ele><time>2026-04-25T12:12:02.055Z</time></trkpt><trkpt lat="42.4272863" lon="-7.3930274"><ele>557.2</ele><time>2026-04-25T12:12:03.049Z</time></trkpt><trkpt lat="42.4273287" lon="-7.3931928"><ele>555.4</ele><time>2026-04-25T12:12:04.051Z</time></trkpt><trkpt lat="42.4273663" lon="-7.3933375"><ele>553.6</ele><time>2026-04-25T12:12:05.046Z</time></trkpt><trkpt lat="42.4273891" lon="-7.3934605"><ele>551.8</ele><time>2026-04-25T12:12:06.051Z</time></trkpt><trkpt lat="42.4274077" lon="-7.3935694"><ele>550.0</ele><time>2026-04-25T12:12:07.05Z</time></trkpt><trkpt lat="42.4274244" lon="-7.3937228"><ele>550.0</ele><time>2026-04-25T12:12:09.05Z</time></trkpt><trkpt lat="42.4274645" lon="-7.3938263"><ele>550.0</ele><time>2026-04-25T12:12:11.045Z</time></trkpt><trkpt lat="42.4275425" lon="-7.3938666"><ele>550.0</ele><time>2026-04-25T12:12:13.058Z</time></trkpt><trkpt lat="42.4275812" lon="-7.3937669"><ele>550.0</ele><time>2026-04-25T12:12:15.052Z</time></trkpt><trkpt lat="42.4275803" lon="-7.3936175"><ele>550.0</ele><time>2026-04-25T12:12:17.047Z</time></trkpt><trkpt lat="42.4275772" lon="-7.3935154"><ele>550.0</ele><time>2026-04-25T12:12:18.047Z</time></trkpt><trkpt lat="42.4275765" lon="-7.3934026"><ele>550.0</ele><time>2026-04-25T12:12:19.054Z</time></trkpt><trkpt lat="42.4275777" lon="-7.3932811"><ele>550.0</ele><time>2026-04-25T12:12:20.052Z</time></trkpt><trkpt lat="42.4275792" lon="-7.3931443"><ele>550.0</ele><time>2026-04-25T12:12:21.056Z</time></trkpt><trkpt lat="42.4275819" lon="-7.3930221"><ele>550.0</ele><time>2026-04-25T12:12:22.057Z</time></trkpt><trkpt lat="42.4275798" lon="-7.3929142"><ele>550.0</ele><time>2026-04-25T12:12:23.055Z</time></trkpt><trkpt lat="42.4275743" lon="-7.3928217"><ele>550.0</ele><time>2026-04-25T12:12:24.053Z</time></trkpt><trkpt lat="42.4275828" lon="-7.3927318"><ele>551.5</ele><time>2026-04-25T12:12:25.057Z</time></trkpt><trkpt lat="42.4276159" lon="-7.3926373"><ele>553.0</ele><time>2026-04-25T12:12:26.051Z</time></trkpt><trkpt lat="42.4276501" lon="-7.3925394"><ele>554.5</ele><time>2026-04-25T12:12:27.053Z</time></trkpt><trkpt lat="42.4277069" lon="-7.39246"><ele>556.0</ele><time>2026-04-25T12:12:28.048Z</time></trkpt><trkpt lat="42.4277582" lon="-7.3923744"><ele>557.5</ele><time>2026-04-25T12:12:29.054Z</time></trkpt><trkpt lat="42.4277871" lon="-7.3922953"><ele>559.0</ele><time>2026-04-25T12:12:30.048Z</time></trkpt><trkpt lat="42.4278223" lon="-7.3921245"><ele>559.6666666666667</ele><time>2026-04-25T12:12:32.051Z</time></trkpt><trkpt lat="42.4278436" lon="-7.3920335"><ele>560.3333333333334</ele><time>2026-04-25T12:12:33.045Z</time></trkpt><trkpt lat="42.4278731" lon="-7.3919539"><ele>561.0</ele><time>2026-04-25T12:12:34.053Z</time></trkpt><trkpt lat="42.4279106" lon="-7.3918698"><ele>561.6666666666666</ele><time>2026-04-25T12:12:35.048Z</time></trkpt><trkpt lat="42.4279504" lon="-7.3917736"><ele>562.3333333333333</ele><time>2026-04-25T12:12:36.046Z</time></trkpt><trkpt lat="42.4279954" lon="-7.3916595"><ele>563.0</ele><time>2026-04-25T12:12:37.051Z</time></trkpt><trkpt lat="42.428053" lon="-7.3915254"><ele>563.0</ele><time>2026-04-25T12:12:38.053Z</time></trkpt><trkpt lat="42.428108" lon="-7.3914054"><ele>563.0</ele><time>2026-04-25T12:12:39.052Z</time></trkpt><trkpt lat="42.4281596" lon="-7.391281"><ele>563.0</ele><time>2026-04-25T12:12:40.048Z</time></trkpt><trkpt lat="42.4282087" lon="-7.3911445"><ele>563.0</ele><time>2026-04-25T12:12:41.06Z</time></trkpt><trkpt lat="42.42825" lon="-7.3909981"><ele>563.0</ele><time>2026-04-25T12:12:42.047Z</time></trkpt><trkpt lat="42.4282795" lon="-7.390867"><ele>565.3333333333333</ele><time>2026-04-25T12:12:43.054Z</time></trkpt><trkpt lat="42.4283051" lon="-7.3907511"><ele>567.6666666666666</ele><time>2026-04-25T12:12:44.053Z</time></trkpt><trkpt lat="42.4283289" lon="-7.3906398"><ele>570.0</ele><time>2026-04-25T12:12:45.05Z</time></trkpt><trkpt lat="42.4283538" lon="-7.3905307"><ele>572.3333333333334</ele><time>2026-04-25T12:12:46.046Z</time></trkpt><trkpt lat="42.428378" lon="-7.3904189"><ele>574.6666666666667</ele><time>2026-04-25T12:12:47.051Z</time></trkpt><trkpt lat="42.4283905" lon="-7.390298"><ele>577.0</ele><time>2026-04-25T12:12:48.05Z</time></trkpt><trkpt lat="42.4283984" lon="-7.3901738"><ele>579.2</ele><time>2026-04-25T12:12:49.053Z</time></trkpt><trkpt lat="42.4284045" lon="-7.3900472"><ele>581.4000000000001</ele><time>2026-04-25T12:12:50.05Z</time></trkpt><trkpt lat="42.42841" lon="-7.3899175"><ele>583.5999999999999</ele><time>2026-04-25T12:12:51.051Z</time></trkpt><trkpt lat="42.4284239" lon="-7.3897976"><ele>585.8</ele><time>2026-04-25T12:12:52.044Z</time></trkpt><trkpt lat="42.4284581" lon="-7.3896787"><ele>588.0</ele><time>2026-04-25T12:12:53.046Z</time></trkpt><trkpt lat="42.428475" lon="-7.3895379"><ele>589.25</ele><time>2026-04-25T12:12:54.044Z</time></trkpt><trkpt lat="42.4285033" lon="-7.3893905"><ele>590.5</ele><time>2026-04-25T12:12:55.044Z</time></trkpt><trkpt lat="42.4285264" lon="-7.3892322"><ele>591.75</ele><time>2026-04-25T12:12:56.043Z</time></trkpt><trkpt lat="42.42854" lon="-7.3890684"><ele>593.0</ele><time>2026-04-25T12:12:57.055Z</time></trkpt><trkpt lat="42.4285654" lon="-7.3889057"><ele>596.0</ele><time>2026-04-25T12:12:58.051Z</time></trkpt><trkpt lat="42.4286164" lon="-7.3887544"><ele>599.0</ele><time>2026-04-25T12:12:59.041Z</time></trkpt><trkpt lat="42.428685" lon="-7.3885951"><ele>602.0</ele><time>2026-04-25T12:13:00.049Z</time></trkpt><trkpt lat="42.4287605" lon="-7.3884409"><ele>605.0</ele><time>2026-04-25T12:13:01.049Z</time></trkpt><trkpt lat="42.4288276" lon="-7.3883011"><ele>599.75</ele><time>2026-04-25T12:13:02.045Z</time></trkpt><trkpt lat="42.4288905" lon="-7.388162"><ele>594.5</ele><time>2026-04-25T12:13:03.045Z</time></trkpt><trkpt lat="42.4289372" lon="-7.3880177"><ele>589.25</ele><time>2026-04-25T12:13:04.046Z</time></trkpt><trkpt lat="42.4289799" lon="-7.3878618"><ele>584.0</ele><time>2026-04-25T12:13:05.046Z</time></trkpt><trkpt lat="42.4290262" lon="-7.3876862"><ele>584.0</ele><time>2026-04-25T12:13:06.053Z</time></trkpt><trkpt lat="42.4290691" lon="-7.387516"><ele>584.0</ele><time>2026-04-25T12:13:07.045Z</time></trkpt><trkpt lat="42.4291086" lon="-7.3873718"><ele>584.0</ele><time>2026-04-25T12:13:08.05Z</time></trkpt><trkpt lat="42.4291692" lon="-7.3872377"><ele>584.0</ele><time>2026-04-25T12:13:09.056Z</time></trkpt><trkpt lat="42.4292302" lon="-7.3871226"><ele>587.0</ele><time>2026-04-25T12:13:10.046Z</time></trkpt><trkpt lat="42.429283" lon="-7.3870154"><ele>590.0</ele><time>2026-04-25T12:13:11.049Z</time></trkpt><trkpt lat="42.4293295" lon="-7.3869117"><ele>593.0</ele><time>2026-04-25T12:13:12.053Z</time></trkpt><trkpt lat="42.4293648" lon="-7.3867843"><ele>596.0</ele><time>2026-04-25T12:13:13.044Z</time></trkpt><trkpt lat="42.4294058" lon="-7.3866121"><ele>599.0</ele><time>2026-04-25T12:13:14.045Z</time></trkpt><trkpt lat="42.4294289" lon="-7.3864525"><ele>601.8</ele><time>2026-04-25T12:13:15.052Z</time></trkpt><trkpt lat="42.4294775" lon="-7.3863228"><ele>604.5999999999999</ele><time>2026-04-25T12:13:16.047Z</time></trkpt><trkpt lat="42.4295279" lon="-7.3862013"><ele>607.4</ele><time>2026-04-25T12:13:17.049Z</time></trkpt><trkpt lat="42.4295684" lon="-7.3861331"><ele>610.1999999999999</ele><time>2026-04-25T12:13:18.052Z</time></trkpt><trkpt lat="42.4296912" lon="-7.3861238"><ele>613.0</ele><time>2026-04-25T12:13:20.056Z</time></trkpt><trkpt lat="42.4297751" lon="-7.3861605"><ele>613.0</ele><time>2026-04-25T12:13:21.044Z</time></trkpt><trkpt lat="42.4298303" lon="-7.38623"><ele>613.0</ele><time>2026-04-25T12:13:22.046Z</time></trkpt><trkpt lat="42.4298942" lon="-7.386308"><ele>613.0</ele><time>2026-04-25T12:13:23.042Z</time></trkpt><trkpt lat="42.4299819" lon="-7.3864388"><ele>613.0</ele><time>2026-04-25T12:13:24.046Z</time></trkpt><trkpt lat="42.4300592" lon="-7.386554"><ele>613.0</ele><time>2026-04-25T12:13:25.049Z</time></trkpt><trkpt lat="42.4301453" lon="-7.38663"><ele>609.5</ele><time>2026-04-25T12:13:26.047Z</time></trkpt><trkpt lat="42.4302287" lon="-7.3866985"><ele>606.0</ele><time>2026-04-25T12:13:27.048Z</time></trkpt><trkpt lat="42.4303512" lon="-7.3867514"><ele>602.5</ele><time>2026-04-25T12:13:28.055Z</time></trkpt><trkpt lat="42.4304757" lon="-7.3868019"><ele>599.0</ele><time>2026-04-25T12:13:29.051Z</time></trkpt><trkpt lat="42.4306274" lon="-7.3868709"><ele>599.0</ele><time>2026-04-25T12:13:30.049Z</time></trkpt><trkpt lat="42.4307481" lon="-7.3869343"><ele>599.0</ele><time>2026-04-25T12:13:31.046Z</time></trkpt><trkpt lat="42.4308502" lon="-7.3869821"><ele>599.0</ele><time>2026-04-25T12:13:32.054Z</time></trkpt><trkpt lat="42.4309442" lon="-7.3870115"><ele>599.0</ele><time>2026-04-25T12:13:33.047Z</time></trkpt><trkpt lat="42.4310423" lon="-7.387024"><ele>599.0</ele><time>2026-04-25T12:13:34.052Z</time></trkpt><trkpt lat="42.4311498" lon="-7.3870213"><ele>599.0</ele><time>2026-04-25T12:13:35.053Z</time></trkpt><trkpt lat="42.4312506" lon="-7.3870119"><ele>599.0</ele><time>2026-04-25T12:13:36.054Z</time></trkpt><trkpt lat="42.4313539" lon="-7.3869991"><ele>599.0</ele><time>2026-04-25T12:13:37.046Z</time></trkpt><trkpt lat="42.4314458" lon="-7.3869689"><ele>599.0</ele><time>2026-04-25T12:13:38.049Z</time></trkpt><trkpt lat="42.4315218" lon="-7.3869376"><ele>599.0</ele><time>2026-04-25T12:13:39.053Z</time></trkpt><trkpt lat="42.4315829" lon="-7.3869102"><ele>599.0</ele><time>2026-04-25T12:13:40.047Z</time></trkpt><trkpt lat="42.4316664" lon="-7.3868296"><ele>599.0</ele><time>2026-04-25T12:13:42.051Z</time></trkpt><trkpt lat="42.4316549" lon="-7.3867381"><ele>599.0</ele><time>2026-04-25T12:13:44.059Z</time></trkpt><trkpt lat="42.4315945" lon="-7.3866924"><ele>599.0</ele><time>2026-04-25T12:13:45.056Z</time></trkpt><trkpt lat="42.4315176" lon="-7.3866748"><ele>599.0</ele><time>2026-04-25T12:13:46.045Z</time></trkpt><trkpt lat="42.4314254" lon="-7.3866712"><ele>599.0</ele><time>2026-04-25T12:13:47.05Z</time></trkpt><trkpt lat="42.4313287" lon="-7.3866694"><ele>599.0</ele><time>2026-04-25T12:13:48.074Z</time></trkpt><trkpt lat="42.4312518" lon="-7.3866626"><ele>599.0</ele><time>2026-04-25T12:13:49.051Z</time></trkpt><trkpt lat="42.4311633" lon="-7.3866101"><ele>599.0</ele><time>2026-04-25T12:13:51.045Z</time></trkpt><trkpt lat="42.4311537" lon="-7.3865064"><ele>599.0</ele><time>2026-04-25T12:13:53.053Z</time></trkpt><trkpt lat="42.4312495" lon="-7.3864366"><ele>599.0</ele><time>2026-04-25T12:13:55.052Z</time></trkpt><trkpt lat="42.4313518" lon="-7.3864485"><ele>599.0</ele><time>2026-04-25T12:13:56.057Z</time></trkpt><trkpt lat="42.4314593" lon="-7.3864619"><ele>600.1666666666666</ele><time>2026-04-25T12:13:57.053Z</time></trkpt><trkpt lat="42.4315585" lon="-7.386424"><ele>601.3333333333333</ele><time>2026-04-25T12:13:58.056Z</time></trkpt><trkpt lat="42.4316309" lon="-7.3863767"><ele>602.5</ele><time>2026-04-25T12:13:59.059Z</time></trkpt><trkpt lat="42.4317256" lon="-7.3863413"><ele>603.6666666666666</ele><time>2026-04-25T12:14:01.058Z</time></trkpt><trkpt lat="42.4317922" lon="-7.3863316"><ele>604.8333333333334</ele><time>2026-04-25T12:14:02.058Z</time></trkpt><trkpt lat="42.4318655" lon="-7.3863115"><ele>606.0</ele><time>2026-04-25T12:14:03.055Z</time></trkpt><trkpt lat="42.4319447" lon="-7.3862925"><ele>606.3333333333334</ele><time>2026-04-25T12:14:04.058Z</time></trkpt><trkpt lat="42.4320315" lon="-7.3862874"><ele>606.6666666666666</ele><time>2026-04-25T12:14:05.053Z</time></trkpt><trkpt lat="42.4321214" lon="-7.3862964"><ele>607.0</ele><time>2026-04-25T12:14:06.051Z</time></trkpt><trkpt lat="42.4322021" lon="-7.386321"><ele>607.3333333333333</ele><time>2026-04-25T12:14:07.053Z</time></trkpt><trkpt lat="42.4322733" lon="-7.3863519"><ele>607.6666666666666</ele><time>2026-04-25T12:14:08.047Z</time></trkpt><trkpt lat="42.4323447" lon="-7.3863928"><ele>608.0</ele><time>2026-04-25T12:14:09.056Z</time></trkpt><trkpt lat="42.4324098" lon="-7.3864401"><ele>608.0</ele><time>2026-04-25T12:14:10.046Z</time></trkpt><trkpt lat="42.4324674" lon="-7.38649"><ele>608.0</ele><time>2026-04-25T12:14:11.044Z</time></trkpt><trkpt lat="42.4325182" lon="-7.386541"><ele>608.0</ele><time>2026-04-25T12:14:12.045Z</time></trkpt><trkpt lat="42.4326098" lon="-7.3866458"><ele>608.0</ele><time>2026-04-25T12:14:14.051Z</time></trkpt><trkpt lat="42.4326776" lon="-7.3866691"><ele>608.0</ele><time>2026-04-25T12:14:17.054Z</time></trkpt><trkpt lat="42.432662" lon="-7.3865414"><ele>608.0</ele><time>2026-04-25T12:14:30.051Z</time></trkpt><trkpt lat="42.4326415" lon="-7.3864408"><ele>606.5</ele><time>2026-04-25T12:14:31.048Z</time></trkpt><trkpt lat="42.4326212" lon="-7.386332"><ele>605.0</ele><time>2026-04-25T12:14:32.049Z</time></trkpt><trkpt lat="42.4325982" lon="-7.3862193"><ele>603.5</ele><time>2026-04-25T12:14:33.052Z</time></trkpt><trkpt lat="42.4325755" lon="-7.3861114"><ele>602.0</ele><time>2026-04-25T12:14:34.052Z</time></trkpt><trkpt lat="42.4325529" lon="-7.3860011"><ele>600.5</ele><time>2026-04-25T12:14:35.05Z</time></trkpt><trkpt lat="42.4325372" lon="-7.385885"><ele>599.0</ele><time>2026-04-25T12:14:36.051Z</time></trkpt><trkpt lat="42.4325468" lon="-7.3857896"><ele>599.0</ele><time>2026-04-25T12:14:37.047Z</time></trkpt><trkpt lat="42.4325592" lon="-7.3856961"><ele>599.0</ele><time>2026-04-25T12:14:38.051Z</time></trkpt><trkpt lat="42.4325737" lon="-7.3855933"><ele>599.0</ele><time>2026-04-25T12:14:39.051Z</time></trkpt><trkpt lat="42.4325928" lon="-7.3854964"><ele>599.0</ele><time>2026-04-25T12:14:40.059Z</time></trkpt><trkpt lat="42.4326298" lon="-7.385394"><ele>599.0</ele><time>2026-04-25T12:14:41.044Z</time></trkpt><trkpt lat="42.4326821" lon="-7.3852962"><ele>599.0</ele><time>2026-04-25T12:14:42.055Z</time></trkpt><trkpt lat="42.4327366" lon="-7.3851952"><ele>599.1666666666666</ele><time>2026-04-25T12:14:43.049Z</time></trkpt><trkpt lat="42.4327883" lon="-7.3850972"><ele>599.3333333333333</ele><time>2026-04-25T12:14:44.041Z</time></trkpt><trkpt lat="42.432828" lon="-7.3849908"><ele>599.5</ele><time>2026-04-25T12:14:45.061Z</time></trkpt><trkpt lat="42.4328561" lon="-7.384877"><ele>599.6666666666666</ele><time>2026-04-25T12:14:46.044Z</time></trkpt><trkpt lat="42.4328772" lon="-7.3847633"><ele>599.8333333333334</ele><time>2026-04-25T12:14:47.044Z</time></trkpt><trkpt lat="42.432898" lon="-7.3846478"><ele>600.0</ele><time>2026-04-25T12:14:48.05Z</time></trkpt><trkpt lat="42.432919" lon="-7.3845314"><ele>600.0</ele><time>2026-04-25T12:14:49.046Z</time></trkpt><trkpt lat="42.4329425" lon="-7.3844178"><ele>600.0</ele><time>2026-04-25T12:14:50.046Z</time></trkpt><trkpt lat="42.4329655" lon="-7.3843043"><ele>600.0</ele><time>2026-04-25T12:14:51.046Z</time></trkpt><trkpt lat="42.4329907" lon="-7.3841879"><ele>600.0</ele><time>2026-04-25T12:14:52.04Z</time></trkpt><trkpt lat="42.4330153" lon="-7.3840647"><ele>600.0</ele><time>2026-04-25T12:14:53.045Z</time></trkpt><trkpt lat="42.4330503" lon="-7.3839271"><ele>592.4</ele><time>2026-04-25T12:14:54.048Z</time></trkpt><trkpt lat="42.433086" lon="-7.3837866"><ele>584.8</ele><time>2026-04-25T12:14:55.044Z</time></trkpt><trkpt lat="42.4331318" lon="-7.3836626"><ele>577.2</ele><time>2026-04-25T12:14:56.041Z</time></trkpt><trkpt lat="42.4331727" lon="-7.3835249"><ele>569.6</ele><time>2026-04-25T12:14:57.043Z</time></trkpt><trkpt lat="42.4332012" lon="-7.3833717"><ele>562.0</ele><time>2026-04-25T12:14:58.047Z</time></trkpt><trkpt lat="42.4332269" lon="-7.3832295"><ele>562.0</ele><time>2026-04-25T12:14:59.058Z</time></trkpt><trkpt lat="42.4332485" lon="-7.3830929"><ele>562.0</ele><time>2026-04-25T12:15:00.05Z</time></trkpt><trkpt lat="42.4332728" lon="-7.3829704"><ele>562.0</ele><time>2026-04-25T12:15:01.042Z</time></trkpt><trkpt lat="42.4332951" lon="-7.3828408"><ele>562.0</ele><time>2026-04-25T12:15:02.049Z</time></trkpt><trkpt lat="42.4333069" lon="-7.3827287"><ele>562.0</ele><time>2026-04-25T12:15:03.051Z</time></trkpt><trkpt lat="42.4333018" lon="-7.3826167"><ele>563.0</ele><time>2026-04-25T12:15:04.044Z</time></trkpt><trkpt lat="42.43329" lon="-7.3824782"><ele>564.0</ele><time>2026-04-25T12:15:05.048Z</time></trkpt><trkpt lat="42.4332479" lon="-7.382364"><ele>565.0</ele><time>2026-04-25T12:15:06.046Z</time></trkpt><trkpt lat="42.4332121" lon="-7.3822553"><ele>566.0</ele><time>2026-04-25T12:15:07.048Z</time></trkpt><trkpt lat="42.4331824" lon="-7.3821112"><ele>567.0</ele><time>2026-04-25T12:15:08.037Z</time></trkpt><trkpt lat="42.4331369" lon="-7.3819926"><ele>568.5</ele><time>2026-04-25T12:15:09.056Z</time></trkpt><trkpt lat="42.4331127" lon="-7.3818854"><ele>570.0</ele><time>2026-04-25T12:15:10.049Z</time></trkpt><trkpt lat="42.4330987" lon="-7.3818017"><ele>571.5</ele><time>2026-04-25T12:15:11.042Z</time></trkpt><trkpt lat="42.4330976" lon="-7.3817083"><ele>573.0</ele><time>2026-04-25T12:15:14.054Z</time></trkpt><trkpt lat="42.4332009" lon="-7.3816984"><ele>574.5</ele><time>2026-04-25T12:15:16.049Z</time></trkpt><trkpt lat="42.43326" lon="-7.3817303"><ele>576.0</ele><time>2026-04-25T12:15:17.049Z</time></trkpt><trkpt lat="42.4333465" lon="-7.38178"><ele>576.0</ele><time>2026-04-25T12:15:18.042Z</time></trkpt><trkpt lat="42.4334477" lon="-7.3818457"><ele>576.0</ele><time>2026-04-25T12:15:19.043Z</time></trkpt><trkpt lat="42.4335528" lon="-7.3819309"><ele>576.0</ele><time>2026-04-25T12:15:20.052Z</time></trkpt><trkpt lat="42.4336719" lon="-7.3820184"><ele>576.0</ele><time>2026-04-25T12:15:21.049Z</time></trkpt><trkpt lat="42.4337782" lon="-7.3821151"><ele>576.5</ele><time>2026-04-25T12:15:22.042Z</time></trkpt><trkpt lat="42.433861" lon="-7.3822093"><ele>577.0</ele><time>2026-04-25T12:15:23.044Z</time></trkpt><trkpt lat="42.4339544" lon="-7.3823098"><ele>577.5</ele><time>2026-04-25T12:15:24.046Z</time></trkpt><trkpt lat="42.4340706" lon="-7.3824248"><ele>578.0</ele><time>2026-04-25T12:15:25.042Z</time></trkpt><trkpt lat="42.4341806" lon="-7.3825192"><ele>578.0</ele><time>2026-04-25T12:15:26.045Z</time></trkpt><trkpt lat="42.4342782" lon="-7.3826025"><ele>578.0</ele><time>2026-04-25T12:15:27.057Z</time></trkpt><trkpt lat="42.4343679" lon="-7.3826934"><ele>578.0</ele><time>2026-04-25T12:15:28.04Z</time></trkpt><trkpt lat="42.434456" lon="-7.3828195"><ele>578.0</ele><time>2026-04-25T12:15:29.049Z</time></trkpt><trkpt lat="42.4345288" lon="-7.382984"><ele>573.5</ele><time>2026-04-25T12:15:30.047Z</time></trkpt><trkpt lat="42.4345928" lon="-7.3831494"><ele>569.0</ele><time>2026-04-25T12:15:31.037Z</time></trkpt><trkpt lat="42.4346767" lon="-7.3833015"><ele>564.5</ele><time>2026-04-25T12:15:32.044Z</time></trkpt><trkpt lat="42.4347741" lon="-7.3834244"><ele>560.0</ele><time>2026-04-25T12:15:33.043Z</time></trkpt><trkpt lat="42.4348818" lon="-7.383559"><ele>564.0</ele><time>2026-04-25T12:15:34.043Z</time></trkpt><trkpt lat="42.4350112" lon="-7.3836704"><ele>568.0</ele><time>2026-04-25T12:15:35.05Z</time></trkpt><trkpt lat="42.4351211" lon="-7.3837757"><ele>572.0</ele><time>2026-04-25T12:15:36.045Z</time></trkpt><trkpt lat="42.435204" lon="-7.3838899"><ele>576.0</ele><time>2026-04-25T12:15:37.042Z</time></trkpt><trkpt lat="42.4352694" lon="-7.3840309"><ele>576.0</ele><time>2026-04-25T12:15:38.051Z</time></trkpt><trkpt lat="42.4353371" lon="-7.3841902"><ele>576.0</ele><time>2026-04-25T12:15:39.05Z</time></trkpt><trkpt lat="42.4354066" lon="-7.384351"><ele>576.0</ele><time>2026-04-25T12:15:40.043Z</time></trkpt><trkpt lat="42.4354768" lon="-7.3845333"><ele>576.0</ele><time>2026-04-25T12:15:41.054Z</time></trkpt><trkpt lat="42.4355384" lon="-7.3847383"><ele>581.25</ele><time>2026-04-25T12:15:42.054Z</time></trkpt><trkpt lat="42.4355946" lon="-7.3849285"><ele>586.5</ele><time>2026-04-25T12:15:43.046Z</time></trkpt><trkpt lat="42.4356489" lon="-7.3850984"><ele>591.75</ele><time>2026-04-25T12:15:44.054Z</time></trkpt><trkpt lat="42.4356891" lon="-7.3852504"><ele>597.0</ele><time>2026-04-25T12:15:45.05Z</time></trkpt><trkpt lat="42.4357266" lon="-7.3853925"><ele>594.0</ele><time>2026-04-25T12:15:46.046Z</time></trkpt><trkpt lat="42.4357684" lon="-7.3855217"><ele>591.0</ele><time>2026-04-25T12:15:47.053Z</time></trkpt><trkpt lat="42.4358262" lon="-7.3856448"><ele>588.0</ele><time>2026-04-25T12:15:48.051Z</time></trkpt><trkpt lat="42.4358952" lon="-7.3857595"><ele>585.0</ele><time>2026-04-25T12:15:49.047Z</time></trkpt><trkpt lat="42.4359621" lon="-7.385864"><ele>582.0</ele><time>2026-04-25T12:15:50.051Z</time></trkpt><trkpt lat="42.436024" lon="-7.3859588"><ele>582.0</ele><time>2026-04-25T12:15:51.053Z</time></trkpt><trkpt lat="42.4360851" lon="-7.3860345"><ele>582.0</ele><time>2026-04-25T12:15:52.048Z</time></trkpt><trkpt lat="42.4361457" lon="-7.3861099"><ele>582.0</ele><time>2026-04-25T12:15:53.05Z</time></trkpt><trkpt lat="42.436227" lon="-7.3861607"><ele>582.0</ele><time>2026-04-25T12:15:54.058Z</time></trkpt><trkpt lat="42.4363247" lon="-7.3861966"><ele>582.0</ele><time>2026-04-25T12:15:55.043Z</time></trkpt><trkpt lat="42.4364329" lon="-7.3862099"><ele>586.75</ele><time>2026-04-25T12:15:56.05Z</time></trkpt><trkpt lat="42.4365485" lon="-7.3862114"><ele>591.5</ele><time>2026-04-25T12:15:57.05Z</time></trkpt><trkpt lat="42.4366699" lon="-7.3862116"><ele>596.25</ele><time>2026-04-25T12:15:58.05Z</time></trkpt><trkpt lat="42.4367974" lon="-7.3862177"><ele>601.0</ele><time>2026-04-25T12:15:59.052Z</time></trkpt><trkpt lat="42.4369228" lon="-7.386226"><ele>601.0</ele><time>2026-04-25T12:16:00.053Z</time></trkpt><trkpt lat="42.4370385" lon="-7.3862373"><ele>601.0</ele><time>2026-04-25T12:16:01.048Z</time></trkpt><trkpt lat="42.4371401" lon="-7.386264"><ele>601.0</ele><time>2026-04-25T12:16:02.043Z</time></trkpt><trkpt lat="42.4372382" lon="-7.38631"><ele>601.0</ele><time>2026-04-25T12:16:03.054Z</time></trkpt><trkpt lat="42.4373294" lon="-7.3863745"><ele>601.0</ele><time>2026-04-25T12:16:04.052Z</time></trkpt><trkpt lat="42.4374068" lon="-7.3864396"><ele>600.4</ele><time>2026-04-25T12:16:05.049Z</time></trkpt><trkpt lat="42.4374829" lon="-7.3865116"><ele>599.8</ele><time>2026-04-25T12:16:06.056Z</time></trkpt><trkpt lat="42.4375558" lon="-7.3865916"><ele>599.1999999999999</ele><time>2026-04-25T12:16:07.058Z</time></trkpt><trkpt lat="42.4376259" lon="-7.3866802"><ele>598.6</ele><time>2026-04-25T12:16:08.047Z</time></trkpt><trkpt lat="42.4376967" lon="-7.3867729"><ele>598.0</ele><time>2026-04-25T12:16:09.061Z</time></trkpt><trkpt lat="42.4377537" lon="-7.3868872"><ele>598.0</ele><time>2026-04-25T12:16:10.052Z</time></trkpt><trkpt lat="42.4378062" lon="-7.3870044"><ele>598.0</ele><time>2026-04-25T12:16:11.048Z</time></trkpt><trkpt lat="42.4378651" lon="-7.387126"><ele>598.0</ele><time>2026-04-25T12:16:12.053Z</time></trkpt><trkpt lat="42.4379262" lon="-7.3872524"><ele>598.0</ele><time>2026-04-25T12:16:13.053Z</time></trkpt><trkpt lat="42.4379801" lon="-7.3873844"><ele>598.0</ele><time>2026-04-25T12:16:14.053Z</time></trkpt><trkpt lat="42.4380213" lon="-7.3875122"><ele>599.8</ele><time>2026-04-25T12:16:15.054Z</time></trkpt><trkpt lat="42.4380569" lon="-7.3876412"><ele>601.5999999999999</ele><time>2026-04-25T12:16:16.049Z</time></trkpt><trkpt lat="42.4380923" lon="-7.387769"><ele>603.4000000000001</ele><time>2026-04-25T12:16:17.057Z</time></trkpt><trkpt lat="42.4381245" lon="-7.387884"><ele>605.2</ele><time>2026-04-25T12:16:18.047Z</time></trkpt><trkpt lat="42.4381495" lon="-7.387978"><ele>607.0</ele><time>2026-04-25T12:16:19.053Z</time></trkpt><trkpt lat="42.4381828" lon="-7.388091"><ele>607.0</ele><time>2026-04-25T12:16:21.054Z</time></trkpt><trkpt lat="42.4382591" lon="-7.3881032"><ele>607.0</ele><time>2026-04-25T12:16:24.057Z</time></trkpt><trkpt lat="42.4382922" lon="-7.3879905"><ele>607.0</ele><time>2026-04-25T12:16:26.054Z</time></trkpt><trkpt lat="42.4383158" lon="-7.3879017"><ele>607.0</ele><time>2026-04-25T12:16:27.051Z</time></trkpt><trkpt lat="42.4383587" lon="-7.3878349"><ele>607.0</ele><time>2026-04-25T12:16:28.058Z</time></trkpt><trkpt lat="42.4384485" lon="-7.3877215"><ele>607.0</ele><time>2026-04-25T12:16:30.049Z</time></trkpt><trkpt lat="42.438492" lon="-7.3876557"><ele>607.6666666666667</ele><time>2026-04-25T12:16:31.053Z</time></trkpt><trkpt lat="42.438536" lon="-7.3875847"><ele>608.3333333333334</ele><time>2026-04-25T12:16:32.053Z</time></trkpt><trkpt lat="42.4385559" lon="-7.3874778"><ele>609.0</ele><time>2026-04-25T12:16:33.061Z</time></trkpt><trkpt lat="42.4385688" lon="-7.3873467"><ele>609.6666666666666</ele><time>2026-04-25T12:16:34.05Z</time></trkpt><trkpt lat="42.4385965" lon="-7.3872217"><ele>610.3333333333333</ele><time>2026-04-25T12:16:35.05Z</time></trkpt><trkpt lat="42.4386409" lon="-7.3871123"><ele>611.0</ele><time>2026-04-25T12:16:36.046Z</time></trkpt><trkpt lat="42.4386945" lon="-7.386997"><ele>611.5</ele><time>2026-04-25T12:16:37.056Z</time></trkpt><trkpt lat="42.4387537" lon="-7.3868693"><ele>612.0</ele><time>2026-04-25T12:16:38.064Z</time></trkpt><trkpt lat="42.4388168" lon="-7.3867244"><ele>612.5</ele><time>2026-04-25T12:16:39.05Z</time></trkpt><trkpt lat="42.4388823" lon="-7.3865642"><ele>613.0</ele><time>2026-04-25T12:16:40.052Z</time></trkpt><trkpt lat="42.4389513" lon="-7.3863871"><ele>612.75</ele><time>2026-04-25T12:16:41.052Z</time></trkpt><trkpt lat="42.4390163" lon="-7.3862026"><ele>612.5</ele><time>2026-04-25T12:16:42.049Z</time></trkpt><trkpt lat="42.4390701" lon="-7.3860258"><ele>612.25</ele><time>2026-04-25T12:16:43.046Z</time></trkpt><trkpt lat="42.4391262" lon="-7.3858688"><ele>612.0</ele><time>2026-04-25T12:16:44.044Z</time></trkpt><trkpt lat="42.4391996" lon="-7.385749"><ele>612.0</ele><time>2026-04-25T12:16:45.054Z</time></trkpt><trkpt lat="42.4392963" lon="-7.3856563"><ele>612.0</ele><time>2026-04-25T12:16:46.054Z</time></trkpt><trkpt lat="42.439412" lon="-7.3855824"><ele>612.0</ele><time>2026-04-25T12:16:47.049Z</time></trkpt><trkpt lat="42.4395351" lon="-7.3855271"><ele>612.0</ele><time>2026-04-25T12:16:48.05Z</time></trkpt><trkpt lat="42.4396796" lon="-7.3854856"><ele>614.25</ele><time>2026-04-25T12:16:49.059Z</time></trkpt><trkpt lat="42.4398269" lon="-7.3854642"><ele>616.5</ele><time>2026-04-25T12:16:50.055Z</time></trkpt><trkpt lat="42.4399599" lon="-7.3854596"><ele>618.75</ele><time>2026-04-25T12:16:51.054Z</time></trkpt><trkpt lat="42.4400796" lon="-7.3854562"><ele>621.0</ele><time>2026-04-25T12:16:52.047Z</time></trkpt><trkpt lat="42.440187" lon="-7.3854429"><ele>621.0</ele><time>2026-04-25T12:16:53.051Z</time></trkpt><trkpt lat="42.4402849" lon="-7.3854205"><ele>621.0</ele><time>2026-04-25T12:16:54.054Z</time></trkpt><trkpt lat="42.4403725" lon="-7.3853779"><ele>621.0</ele><time>2026-04-25T12:16:55.049Z</time></trkpt><trkpt lat="42.4404627" lon="-7.3853149"><ele>621.0</ele><time>2026-04-25T12:16:56.055Z</time></trkpt><trkpt lat="42.4405651" lon="-7.3852387"><ele>621.0</ele><time>2026-04-25T12:16:57.057Z</time></trkpt><trkpt lat="42.4406781" lon="-7.3851524"><ele>619.0</ele><time>2026-04-25T12:16:58.056Z</time></trkpt><trkpt lat="42.4407915" lon="-7.3850556"><ele>617.0</ele><time>2026-04-25T12:16:59.05Z</time></trkpt><trkpt lat="42.4408851" lon="-7.3849517"><ele>615.0</ele><time>2026-04-25T12:17:00.051Z</time></trkpt><trkpt lat="42.440947" lon="-7.3848337"><ele>613.0</ele><time>2026-04-25T12:17:01.049Z</time></trkpt><trkpt lat="42.4409767" lon="-7.3847105"><ele>614.8</ele><time>2026-04-25T12:17:02.052Z</time></trkpt><trkpt lat="42.4409906" lon="-7.3845817"><ele>616.5999999999999</ele><time>2026-04-25T12:17:03.051Z</time></trkpt><trkpt lat="42.4410006" lon="-7.3844468"><ele>618.4000000000001</ele><time>2026-04-25T12:17:04.054Z</time></trkpt><trkpt lat="42.4410092" lon="-7.3843046"><ele>620.2</ele><time>2026-04-25T12:17:05.056Z</time></trkpt><trkpt lat="42.4410138" lon="-7.3841533"><ele>622.0</ele><time>2026-04-25T12:17:06.05Z</time></trkpt><trkpt lat="42.4410123" lon="-7.3839909"><ele>621.25</ele><time>2026-04-25T12:17:07.054Z</time></trkpt><trkpt lat="42.4410034" lon="-7.3838194"><ele>620.5</ele><time>2026-04-25T12:17:08.049Z</time></trkpt><trkpt lat="42.4409859" lon="-7.3836589"><ele>619.75</ele><time>2026-04-25T12:17:09.051Z</time></trkpt><trkpt lat="42.4409586" lon="-7.3835055"><ele>619.0</ele><time>2026-04-25T12:17:10.049Z</time></trkpt><trkpt lat="42.4409187" lon="-7.3833624"><ele>619.0</ele><time>2026-04-25T12:17:11.049Z</time></trkpt><trkpt lat="42.4408612" lon="-7.3832371"><ele>619.0</ele><time>2026-04-25T12:17:12.054Z</time></trkpt><trkpt lat="42.440785" lon="-7.3831261"><ele>619.0</ele><time>2026-04-25T12:17:13.056Z</time></trkpt><trkpt lat="42.4407057" lon="-7.3830311"><ele>619.0</ele><time>2026-04-25T12:17:14.049Z</time></trkpt><trkpt lat="42.440628" lon="-7.3829394"><ele>619.0</ele><time>2026-04-25T12:17:15.054Z</time></trkpt><trkpt lat="42.4405541" lon="-7.3828462"><ele>618.1666666666667</ele><time>2026-04-25T12:17:16.058Z</time></trkpt><trkpt lat="42.4404897" lon="-7.3827472"><ele>617.3333333333334</ele><time>2026-04-25T12:17:17.056Z</time></trkpt><trkpt lat="42.4404334" lon="-7.3826451"><ele>616.5</ele><time>2026-04-25T12:17:18.054Z</time></trkpt><trkpt lat="42.44038" lon="-7.3825431"><ele>615.6666666666666</ele><time>2026-04-25T12:17:19.045Z</time></trkpt><trkpt lat="42.4403325" lon="-7.3824458"><ele>614.8333333333333</ele><time>2026-04-25T12:17:20.05Z</time></trkpt><trkpt lat="42.4403003" lon="-7.382359"><ele>614.0</ele><time>2026-04-25T12:17:21.057Z</time></trkpt><trkpt lat="42.4402863" lon="-7.3822709"><ele>616.4</ele><time>2026-04-25T12:17:22.048Z</time></trkpt><trkpt lat="42.4403435" lon="-7.3821415"><ele>618.8</ele><time>2026-04-25T12:17:24.045Z</time></trkpt><trkpt lat="42.4404128" lon="-7.3821167"><ele>621.2</ele><time>2026-04-25T12:17:25.058Z</time></trkpt><trkpt lat="42.440494" lon="-7.3820909"><ele>623.6</ele><time>2026-04-25T12:17:26.052Z</time></trkpt><trkpt lat="42.4406023" lon="-7.382103"><ele>626.0</ele><time>2026-04-25T12:17:27.046Z</time></trkpt><trkpt lat="42.440731" lon="-7.3821004"><ele>626.0</ele><time>2026-04-25T12:17:28.048Z</time></trkpt><trkpt lat="42.440848" lon="-7.3820958"><ele>626.0</ele><time>2026-04-25T12:17:29.048Z</time></trkpt><trkpt lat="42.4409537" lon="-7.3820876"><ele>626.0</ele><time>2026-04-25T12:17:30.047Z</time></trkpt><trkpt lat="42.4410502" lon="-7.3820702"><ele>626.0</ele><time>2026-04-25T12:17:31.057Z</time></trkpt><trkpt lat="42.4411382" lon="-7.382045"><ele>626.0</ele><time>2026-04-25T12:17:32.055Z</time></trkpt><trkpt lat="42.4412204" lon="-7.3820194"><ele>626.0</ele><time>2026-04-25T12:17:33.053Z</time></trkpt><trkpt lat="42.4412975" lon="-7.3819634"><ele>626.0</ele><time>2026-04-25T12:17:34.05Z</time></trkpt><trkpt lat="42.4413742" lon="-7.3818901"><ele>626.0</ele><time>2026-04-25T12:17:35.054Z</time></trkpt><trkpt lat="42.4414622" lon="-7.3818114"><ele>626.0</ele><time>2026-04-25T12:17:36.058Z</time></trkpt><trkpt lat="42.4415502" lon="-7.3817352"><ele>626.0</ele><time>2026-04-25T12:17:37.055Z</time></trkpt><trkpt lat="42.4416376" lon="-7.3816826"><ele>625.6</ele><time>2026-04-25T12:17:38.056Z</time></trkpt><trkpt lat="42.4417287" lon="-7.3816346"><ele>625.2</ele><time>2026-04-25T12:17:39.046Z</time></trkpt><trkpt lat="42.4418189" lon="-7.3815863"><ele>624.8</ele><time>2026-04-25T12:17:40.056Z</time></trkpt><trkpt lat="42.4419126" lon="-7.3815473"><ele>624.4</ele><time>2026-04-25T12:17:41.056Z</time></trkpt><trkpt lat="42.4420047" lon="-7.3815224"><ele>624.0</ele><time>2026-04-25T12:17:42.05Z</time></trkpt><trkpt lat="42.4420928" lon="-7.3815024"><ele>623.6666666666666</ele><time>2026-04-25T12:17:43.048Z</time></trkpt><trkpt lat="42.4421808" lon="-7.3814985"><ele>623.3333333333334</ele><time>2026-04-25T12:17:44.043Z</time></trkpt><trkpt lat="42.4422632" lon="-7.3814946"><ele>623.0</ele><time>2026-04-25T12:17:45.044Z</time></trkpt><trkpt lat="42.4423448" lon="-7.381508"><ele>622.6666666666667</ele><time>2026-04-25T12:17:46.046Z</time></trkpt><trkpt lat="42.4424211" lon="-7.3815324"><ele>622.3333333333334</ele><time>2026-04-25T12:17:47.048Z</time></trkpt><trkpt lat="42.4424879" lon="-7.3815452"><ele>622.0</ele><time>2026-04-25T12:17:48.046Z</time></trkpt><trkpt lat="42.4425558" lon="-7.3815272"><ele>622.0</ele><time>2026-04-25T12:17:49.047Z</time></trkpt><trkpt lat="42.4426205" lon="-7.3814719"><ele>622.0</ele><time>2026-04-25T12:17:50.047Z</time></trkpt><trkpt lat="42.4426812" lon="-7.3813952"><ele>622.0</ele><time>2026-04-25T12:17:51.049Z</time></trkpt><trkpt lat="42.442744" lon="-7.3813206"><ele>622.0</ele><time>2026-04-25T12:17:52.058Z</time></trkpt><trkpt lat="42.4427993" lon="-7.381258"><ele>622.0</ele><time>2026-04-25T12:17:53.066Z</time></trkpt><trkpt lat="42.4428644" lon="-7.3812039"><ele>622.0</ele><time>2026-04-25T12:17:54.061Z</time></trkpt><trkpt lat="42.4429274" lon="-7.3811497"><ele>622.6666666666667</ele><time>2026-04-25T12:17:55.048Z</time></trkpt><trkpt lat="42.4429882" lon="-7.3810974"><ele>623.3333333333334</ele><time>2026-04-25T12:17:56.046Z</time></trkpt><trkpt lat="42.4430376" lon="-7.3810284"><ele>624.0</ele><time>2026-04-25T12:17:57.064Z</time></trkpt><trkpt lat="42.4430727" lon="-7.3809535"><ele>624.6666666666666</ele><time>2026-04-25T12:17:58.055Z</time></trkpt><trkpt lat="42.4430986" lon="-7.3808117"><ele>625.3333333333333</ele><time>2026-04-25T12:18:00.052Z</time></trkpt><trkpt lat="42.4430969" lon="-7.3806835"><ele>626.0</ele><time>2026-04-25T12:18:02.047Z</time></trkpt><trkpt lat="42.4430852" lon="-7.3805172"><ele>627.0</ele><time>2026-04-25T12:18:04.052Z</time></trkpt><trkpt lat="42.4430643" lon="-7.3804254"><ele>628.0</ele><time>2026-04-25T12:18:05.057Z</time></trkpt><trkpt lat="42.4430363" lon="-7.3803305"><ele>629.0</ele><time>2026-04-25T12:18:06.054Z</time></trkpt><trkpt lat="42.4430041" lon="-7.3802322"><ele>630.0</ele><time>2026-04-25T12:18:07.051Z</time></trkpt><trkpt lat="42.4429708" lon="-7.3801403"><ele>631.0</ele><time>2026-04-25T12:18:08.066Z</time></trkpt><trkpt lat="42.4429365" lon="-7.3800482"><ele>632.0</ele><time>2026-04-25T12:18:09.069Z</time></trkpt><trkpt lat="42.4428993" lon="-7.3799533"><ele>632.6666666666666</ele><time>2026-04-25T12:18:10.064Z</time></trkpt><trkpt lat="42.4428582" lon="-7.3798536"><ele>633.3333333333333</ele><time>2026-04-25T12:18:11.066Z</time></trkpt><trkpt lat="42.442817" lon="-7.3797485"><ele>634.0</ele><time>2026-04-25T12:18:12.06Z</time></trkpt><trkpt lat="42.4427757" lon="-7.3796422"><ele>634.6666666666666</ele><time>2026-04-25T12:18:13.065Z</time></trkpt><trkpt lat="42.4427356" lon="-7.3795371"><ele>635.3333333333334</ele><time>2026-04-25T12:18:14.059Z</time></trkpt><trkpt lat="42.4427045" lon="-7.3794441"><ele>636.0</ele><time>2026-04-25T12:18:15.063Z</time></trkpt><trkpt lat="42.4426795" lon="-7.3793563"><ele>637.5</ele><time>2026-04-25T12:18:16.056Z</time></trkpt><trkpt lat="42.4426674" lon="-7.3792609"><ele>639.0</ele><time>2026-04-25T12:18:17.053Z</time></trkpt><trkpt lat="42.4426653" lon="-7.379158"><ele>640.5</ele><time>2026-04-25T12:18:18.053Z</time></trkpt><trkpt lat="42.4426662" lon="-7.3790552"><ele>642.0</ele><time>2026-04-25T12:18:19.05Z</time></trkpt><trkpt lat="42.4426683" lon="-7.3789523"><ele>643.5</ele><time>2026-04-25T12:18:20.06Z</time></trkpt><trkpt lat="42.442673" lon="-7.3788501"><ele>645.0</ele><time>2026-04-25T12:18:21.053Z</time></trkpt><trkpt lat="42.4426928" lon="-7.3787259"><ele>645.0</ele><time>2026-04-25T12:18:23.052Z</time></trkpt><trkpt lat="42.4427341" lon="-7.3786334"><ele>645.0</ele><time>2026-04-25T12:18:25.062Z</time></trkpt><trkpt lat="42.4428409" lon="-7.3785336"><ele>645.0</ele><time>2026-04-25T12:18:27.063Z</time></trkpt><trkpt lat="42.4429048" lon="-7.3784827"><ele>645.0</ele><time>2026-04-25T12:18:28.058Z</time></trkpt><trkpt lat="42.4429673" lon="-7.3784261"><ele>645.0</ele><time>2026-04-25T12:18:29.056Z</time></trkpt><trkpt lat="42.443031" lon="-7.3783585"><ele>645.0</ele><time>2026-04-25T12:18:30.051Z</time></trkpt><trkpt lat="42.4430943" lon="-7.3782798"><ele>645.0</ele><time>2026-04-25T12:18:31.059Z</time></trkpt><trkpt lat="42.4431594" lon="-7.378193"><ele>645.0</ele><time>2026-04-25T12:18:32.051Z</time></trkpt><trkpt lat="42.443226" lon="-7.3781004"><ele>645.0</ele><time>2026-04-25T12:18:33.054Z</time></trkpt><trkpt lat="42.443294" lon="-7.3780028"><ele>645.0</ele><time>2026-04-25T12:18:34.058Z</time></trkpt><trkpt lat="42.4433624" lon="-7.3778991"><ele>645.0</ele><time>2026-04-25T12:18:35.053Z</time></trkpt><trkpt lat="42.4434304" lon="-7.3777935"><ele>646.2</ele><time>2026-04-25T12:18:36.06Z</time></trkpt><trkpt lat="42.4435061" lon="-7.3776814"><ele>647.4</ele><time>2026-04-25T12:18:37.059Z</time></trkpt><trkpt lat="42.443578" lon="-7.3775845"><ele>648.5999999999999</ele><time>2026-04-25T12:18:38.06Z</time></trkpt><trkpt lat="42.4436458" lon="-7.3774981"><ele>649.8</ele><time>2026-04-25T12:18:39.062Z</time></trkpt><trkpt lat="42.4437071" lon="-7.3774183"><ele>651.0</ele><time>2026-04-25T12:18:40.062Z</time></trkpt><trkpt lat="42.4437577" lon="-7.3773368"><ele>649.6666666666666</ele><time>2026-04-25T12:18:41.062Z</time></trkpt><trkpt lat="42.4437978" lon="-7.3772483"><ele>648.3333333333334</ele><time>2026-04-25T12:18:42.057Z</time></trkpt><trkpt lat="42.4438311" lon="-7.3771518"><ele>647.0</ele><time>2026-04-25T12:18:43.059Z</time></trkpt><trkpt lat="42.4438606" lon="-7.37705"><ele>645.6666666666667</ele><time>2026-04-25T12:18:44.049Z</time></trkpt><trkpt lat="42.4438911" lon="-7.3769404"><ele>644.3333333333334</ele><time>2026-04-25T12:18:45.058Z</time></trkpt><trkpt lat="42.443921" lon="-7.3768218"><ele>643.0</ele><time>2026-04-25T12:18:46.053Z</time></trkpt><trkpt lat="42.4439508" lon="-7.376695"><ele>643.0</ele><time>2026-04-25T12:18:47.054Z</time></trkpt><trkpt lat="42.4439815" lon="-7.376562"><ele>643.0</ele><time>2026-04-25T12:18:48.05Z</time></trkpt><trkpt lat="42.4440107" lon="-7.3764317"><ele>643.0</ele><time>2026-04-25T12:18:49.057Z</time></trkpt><trkpt lat="42.4440374" lon="-7.3763137"><ele>643.0</ele><time>2026-04-25T12:18:50.053Z</time></trkpt><trkpt lat="42.4440587" lon="-7.3762055"><ele>643.0</ele><time>2026-04-25T12:18:51.059Z</time></trkpt><trkpt lat="42.4440808" lon="-7.376108"><ele>643.1666666666667</ele><time>2026-04-25T12:18:52.05Z</time></trkpt><trkpt lat="42.4441073" lon="-7.3760125"><ele>643.3333333333334</ele><time>2026-04-25T12:18:53.053Z</time></trkpt><trkpt lat="42.4441299" lon="-7.3759078"><ele>643.5</ele><time>2026-04-25T12:18:54.056Z</time></trkpt><trkpt lat="42.4441532" lon="-7.3757972"><ele>643.6666666666666</ele><time>2026-04-25T12:18:55.049Z</time></trkpt><trkpt lat="42.4441798" lon="-7.375682"><ele>643.8333333333333</ele><time>2026-04-25T12:18:56.052Z</time></trkpt><trkpt lat="42.4442046" lon="-7.3755619"><ele>644.0</ele><time>2026-04-25T12:18:57.062Z</time></trkpt><trkpt lat="42.4442263" lon="-7.3754383"><ele>644.6</ele><time>2026-04-25T12:18:58.047Z</time></trkpt><trkpt lat="42.4442478" lon="-7.3753113"><ele>645.2</ele><time>2026-04-25T12:18:59.062Z</time></trkpt><trkpt lat="42.4442699" lon="-7.3751852"><ele>645.8000000000001</ele><time>2026-04-25T12:19:00.049Z</time></trkpt><trkpt lat="42.4442887" lon="-7.3750523"><ele>646.4000000000001</ele><time>2026-04-25T12:19:01.057Z</time></trkpt><trkpt lat="42.4443087" lon="-7.374916"><ele>647.0</ele><time>2026-04-25T12:19:02.06Z</time></trkpt><trkpt lat="42.4443296" lon="-7.3747754"><ele>647.25</ele><time>2026-04-25T12:19:03.056Z</time></trkpt><trkpt lat="42.4443487" lon="-7.3746262"><ele>647.5</ele><time>2026-04-25T12:19:04.053Z</time></trkpt><trkpt lat="42.4443667" lon="-7.3744663"><ele>647.75</ele><time>2026-04-25T12:19:05.053Z</time></trkpt><trkpt lat="42.4443788" lon="-7.3742973"><ele>648.0</ele><time>2026-04-25T12:19:06.069Z</time></trkpt><trkpt lat="42.4443859" lon="-7.3741213"><ele>648.0</ele><time>2026-04-25T12:19:07.06Z</time></trkpt><trkpt lat="42.4443932" lon="-7.3739484"><ele>648.0</ele><time>2026-04-25T12:19:08.056Z</time></trkpt><trkpt lat="42.4443999" lon="-7.3737883"><ele>648.0</ele><time>2026-04-25T12:19:09.056Z</time></trkpt><trkpt lat="42.4444087" lon="-7.3736345"><ele>648.0</ele><time>2026-04-25T12:19:10.056Z</time></trkpt><trkpt lat="42.4444184" lon="-7.373481"><ele>647.75</ele><time>2026-04-25T12:19:11.06Z</time></trkpt><trkpt lat="42.4444254" lon="-7.3733266"><ele>647.5</ele><time>2026-04-25T12:19:12.058Z</time></trkpt><trkpt lat="42.4444311" lon="-7.3731716"><ele>647.25</ele><time>2026-04-25T12:19:13.061Z</time></trkpt><trkpt lat="42.4444337" lon="-7.3730149"><ele>647.0</ele><time>2026-04-25T12:19:14.055Z</time></trkpt><trkpt lat="42.444435" lon="-7.3728577"><ele>646.2</ele><time>2026-04-25T12:19:15.059Z</time></trkpt><trkpt lat="42.4444289" lon="-7.3727088"><ele>645.4000000000001</ele><time>2026-04-25T12:19:16.062Z</time></trkpt><trkpt lat="42.4444105" lon="-7.3725648"><ele>644.5999999999999</ele><time>2026-04-25T12:19:17.054Z</time></trkpt><trkpt lat="42.4443843" lon="-7.3724197"><ele>643.8</ele><time>2026-04-25T12:19:18.054Z</time></trkpt><trkpt lat="42.4443595" lon="-7.3722699"><ele>643.0</ele><time>2026-04-25T12:19:19.06Z</time></trkpt><trkpt lat="42.4443416" lon="-7.3721178"><ele>642.4</ele><time>2026-04-25T12:19:20.059Z</time></trkpt><trkpt lat="42.444333" lon="-7.3719707"><ele>641.8</ele><time>2026-04-25T12:19:21.047Z</time></trkpt><trkpt lat="42.4443255" lon="-7.3718324"><ele>641.2</ele><time>2026-04-25T12:19:22.05Z</time></trkpt><trkpt lat="42.444328" lon="-7.3717044"><ele>640.6</ele><time>2026-04-25T12:19:23.053Z</time></trkpt><trkpt lat="42.4443267" lon="-7.3715887"><ele>640.0</ele><time>2026-04-25T12:19:24.056Z</time></trkpt><trkpt lat="42.4443184" lon="-7.3714904"><ele>640.0</ele><time>2026-04-25T12:19:25.061Z</time></trkpt><trkpt lat="42.4442971" lon="-7.3713829"><ele>640.0</ele><time>2026-04-25T12:19:27.053Z</time></trkpt><trkpt lat="42.4443431" lon="-7.3713148"><ele>640.0</ele><time>2026-04-25T12:19:32.063Z</time></trkpt><trkpt lat="42.4444364" lon="-7.3713719"><ele>640.0</ele><time>2026-04-25T12:19:34.053Z</time></trkpt><trkpt lat="42.444539" lon="-7.3714564"><ele>640.0</ele><time>2026-04-25T12:19:36.057Z</time></trkpt><trkpt lat="42.4446122" lon="-7.371574"><ele>635.5</ele><time>2026-04-25T12:19:38.059Z</time></trkpt><trkpt lat="42.4446624" lon="-7.3717012"><ele>631.0</ele><time>2026-04-25T12:19:40.054Z</time></trkpt><trkpt lat="42.4446786" lon="-7.3718098"><ele>626.5</ele><time>2026-04-25T12:19:42.049Z</time></trkpt><trkpt lat="42.4447241" lon="-7.3718825"><ele>622.0</ele><time>2026-04-25T12:19:44.067Z</time></trkpt><trkpt lat="42.4447889" lon="-7.3718283"><ele>617.5</ele><time>2026-04-25T12:19:46.074Z</time></trkpt><trkpt lat="42.4448493" lon="-7.3717163"><ele>613.0</ele><time>2026-04-25T12:19:48.068Z</time></trkpt><trkpt lat="42.4448742" lon="-7.3715829"><ele>613.0</ele><time>2026-04-25T12:19:50.061Z</time></trkpt><trkpt lat="42.4448586" lon="-7.3714537"><ele>613.0</ele><time>2026-04-25T12:19:52.064Z</time></trkpt><trkpt lat="42.4448271" lon="-7.3713177"><ele>613.0</ele><time>2026-04-25T12:19:54.056Z</time></trkpt><trkpt lat="42.4447777" lon="-7.3711998"><ele>613.0</ele><time>2026-04-25T12:19:56.064Z</time></trkpt><trkpt lat="42.4447226" lon="-7.3711003"><ele>613.0</ele><time>2026-04-25T12:19:58.062Z</time></trkpt><trkpt lat="42.4446578" lon="-7.3710012"><ele>612.3333333333334</ele><time>2026-04-25T12:20:00.062Z</time></trkpt><trkpt lat="42.4445809" lon="-7.3708735"><ele>611.6666666666667</ele><time>2026-04-25T12:20:02.051Z</time></trkpt><trkpt lat="42.4445363" lon="-7.3708033"><ele>611.0</ele><time>2026-04-25T12:20:03.05Z</time></trkpt><trkpt lat="42.4444897" lon="-7.3707258"><ele>610.3333333333334</ele><time>2026-04-25T12:20:04.046Z</time></trkpt><trkpt lat="42.4444462" lon="-7.3706602"><ele>609.6666666666666</ele><time>2026-04-25T12:20:05.048Z</time></trkpt><trkpt lat="42.4444005" lon="-7.3705972"><ele>609.0</ele><time>2026-04-25T12:20:06.053Z</time></trkpt><trkpt lat="42.4443497" lon="-7.3705019"><ele>609.0</ele><time>2026-04-25T12:20:07.055Z</time></trkpt><trkpt lat="42.4442984" lon="-7.3704004"><ele>609.0</ele><time>2026-04-25T12:20:08.048Z</time></trkpt><trkpt lat="42.4442536" lon="-7.3703091"><ele>609.0</ele><time>2026-04-25T12:20:09.056Z</time></trkpt><trkpt lat="42.4442129" lon="-7.3702158"><ele>609.0</ele><time>2026-04-25T12:20:10.049Z</time></trkpt><trkpt lat="42.4441742" lon="-7.3701363"><ele>609.0</ele><time>2026-04-25T12:20:11.045Z</time></trkpt><trkpt lat="42.4441391" lon="-7.370064"><ele>609.0</ele><time>2026-04-25T12:20:12.058Z</time></trkpt><trkpt lat="42.4440881" lon="-7.3699364"><ele>609.0</ele><time>2026-04-25T12:20:14.043Z</time></trkpt><trkpt lat="42.4441144" lon="-7.3698108"><ele>609.0</ele><time>2026-04-25T12:20:16.048Z</time></trkpt><trkpt lat="42.4442016" lon="-7.3697874"><ele>609.0</ele><time>2026-04-25T12:20:18.052Z</time></trkpt><trkpt lat="42.4442744" lon="-7.3697963"><ele>609.0</ele><time>2026-04-25T12:20:19.062Z</time></trkpt><trkpt lat="42.4443508" lon="-7.369805"><ele>609.0</ele><time>2026-04-25T12:20:20.051Z</time></trkpt><trkpt lat="42.4444323" lon="-7.369811"><ele>609.0</ele><time>2026-04-25T12:20:21.047Z</time></trkpt><trkpt lat="42.4445219" lon="-7.3698214"><ele>609.0</ele><time>2026-04-25T12:20:22.054Z</time></trkpt><trkpt lat="42.4446178" lon="-7.3698338"><ele>609.0</ele><time>2026-04-25T12:20:23.046Z</time></trkpt><trkpt lat="42.4447113" lon="-7.3698492"><ele>609.0</ele><time>2026-04-25T12:20:24.048Z</time></trkpt><trkpt lat="42.4448022" lon="-7.3698489"><ele>609.0</ele><time>2026-04-25T12:20:25.044Z</time></trkpt><trkpt lat="42.4448892" lon="-7.3698488"><ele>609.0</ele><time>2026-04-25T12:20:26.047Z</time></trkpt><trkpt lat="42.444974" lon="-7.3698359"><ele>605.6666666666666</ele><time>2026-04-25T12:20:27.051Z</time></trkpt><trkpt lat="42.4450613" lon="-7.3698221"><ele>602.3333333333334</ele><time>2026-04-25T12:20:28.05Z</time></trkpt><trkpt lat="42.4451527" lon="-7.3698115"><ele>599.0</ele><time>2026-04-25T12:20:29.05Z</time></trkpt><trkpt lat="42.4452423" lon="-7.3698071"><ele>595.6666666666667</ele><time>2026-04-25T12:20:30.048Z</time></trkpt><trkpt lat="42.4453234" lon="-7.3698076"><ele>592.3333333333334</ele><time>2026-04-25T12:20:31.049Z</time></trkpt><trkpt lat="42.4453921" lon="-7.3698081"><ele>589.0</ele><time>2026-04-25T12:20:32.046Z</time></trkpt><trkpt lat="42.4455102" lon="-7.3698138"><ele>590.6</ele><time>2026-04-25T12:20:34.057Z</time></trkpt><trkpt lat="42.4456297" lon="-7.3698175"><ele>592.2</ele><time>2026-04-25T12:20:36.058Z</time></trkpt><trkpt lat="42.4457063" lon="-7.3698021"><ele>593.8000000000001</ele><time>2026-04-25T12:20:37.051Z</time></trkpt><trkpt lat="42.4458195" lon="-7.3697495"><ele>595.4</ele><time>2026-04-25T12:20:39.057Z</time></trkpt><trkpt lat="42.4459183" lon="-7.3696694"><ele>597.0</ele><time>2026-04-25T12:20:41.058Z</time></trkpt><trkpt lat="42.4459974" lon="-7.3695783"><ele>597.0</ele><time>2026-04-25T12:20:43.049Z</time></trkpt><trkpt lat="42.4460992" lon="-7.3694606"><ele>597.0</ele><time>2026-04-25T12:20:45.042Z</time></trkpt><trkpt lat="42.446164" lon="-7.3693993"><ele>597.0</ele><time>2026-04-25T12:20:46.051Z</time></trkpt><trkpt lat="42.4462273" lon="-7.3693428"><ele>597.0</ele><time>2026-04-25T12:20:47.048Z</time></trkpt><trkpt lat="42.4462948" lon="-7.3693091"><ele>597.0</ele><time>2026-04-25T12:20:48.049Z</time></trkpt><trkpt lat="42.4463724" lon="-7.3692669"><ele>597.0</ele><time>2026-04-25T12:20:49.049Z</time></trkpt><trkpt lat="42.4464519" lon="-7.3692321"><ele>592.2</ele><time>2026-04-25T12:20:50.054Z</time></trkpt><trkpt lat="42.4465399" lon="-7.3691945"><ele>587.4000000000001</ele><time>2026-04-25T12:20:51.053Z</time></trkpt><trkpt lat="42.44663" lon="-7.3691543"><ele>582.5999999999999</ele><time>2026-04-25T12:20:52.05Z</time></trkpt><trkpt lat="42.4467148" lon="-7.3691157"><ele>577.8</ele><time>2026-04-25T12:20:53.052Z</time></trkpt><trkpt lat="42.4467982" lon="-7.3690794"><ele>573.0</ele><time>2026-04-25T12:20:54.05Z</time></trkpt><trkpt lat="42.4468801" lon="-7.3690437"><ele>573.0</ele><time>2026-04-25T12:20:55.046Z</time></trkpt><trkpt lat="42.4469589" lon="-7.3690106"><ele>573.0</ele><time>2026-04-25T12:20:56.06Z</time></trkpt><trkpt lat="42.4470363" lon="-7.3689681"><ele>573.0</ele><time>2026-04-25T12:20:57.053Z</time></trkpt><trkpt lat="42.447111" lon="-7.368884"><ele>573.0</ele><time>2026-04-25T12:20:58.057Z</time></trkpt><trkpt lat="42.4471872" lon="-7.368795"><ele>573.0</ele><time>2026-04-25T12:20:59.051Z</time></trkpt><trkpt lat="42.4472413" lon="-7.3686841"><ele>570.0</ele><time>2026-04-25T12:21:00.053Z</time></trkpt><trkpt lat="42.4472858" lon="-7.3685703"><ele>567.0</ele><time>2026-04-25T12:21:01.047Z</time></trkpt><trkpt lat="42.4473245" lon="-7.3684633"><ele>564.0</ele><time>2026-04-25T12:21:02.047Z</time></trkpt><trkpt lat="42.4473505" lon="-7.3683704"><ele>561.0</ele><time>2026-04-25T12:21:03.046Z</time></trkpt><trkpt lat="42.4473837" lon="-7.3682543"><ele>558.0</ele><time>2026-04-25T12:21:05.042Z</time></trkpt><trkpt lat="42.4474627" lon="-7.3682989"><ele>555.0</ele><time>2026-04-25T12:21:17.05Z</time></trkpt><trkpt lat="42.4475018" lon="-7.3684108"><ele>555.0</ele><time>2026-04-25T12:21:20.052Z</time></trkpt><trkpt lat="42.4475163" lon="-7.3684997"><ele>555.0</ele><time>2026-04-25T12:21:22.054Z</time></trkpt><trkpt lat="42.4475416" lon="-7.3685894"><ele>555.0</ele><time>2026-04-25T12:21:24.05Z</time></trkpt><trkpt lat="42.4475822" lon="-7.3686909"><ele>555.0</ele><time>2026-04-25T12:21:26.042Z</time></trkpt><trkpt lat="42.4476219" lon="-7.3688033"><ele>555.0</ele><time>2026-04-25T12:21:28.05Z</time></trkpt><trkpt lat="42.4476736" lon="-7.3689111"><ele>555.0</ele><time>2026-04-25T12:21:30.05Z</time></trkpt><trkpt lat="42.4477127" lon="-7.3690148"><ele>554.1666666666666</ele><time>2026-04-25T12:21:32.05Z</time></trkpt><trkpt lat="42.4477386" lon="-7.3691011"><ele>553.3333333333334</ele><time>2026-04-25T12:21:35.069Z</time></trkpt><trkpt lat="42.447755" lon="-7.3691883"><ele>552.5</ele><time>2026-04-25T12:21:37.049Z</time></trkpt><trkpt lat="42.4477727" lon="-7.3692887"><ele>551.6666666666667</ele><time>2026-04-25T12:21:39.058Z</time></trkpt><trkpt lat="42.4477869" lon="-7.3694112"><ele>550.8333333333334</ele><time>2026-04-25T12:21:41.052Z</time></trkpt><trkpt lat="42.4477815" lon="-7.3695498"><ele>550.0</ele><time>2026-04-25T12:21:43.051Z</time></trkpt><trkpt lat="42.447766" lon="-7.3696758"><ele>546.1666666666667</ele><time>2026-04-25T12:21:45.053Z</time></trkpt><trkpt lat="42.4477386" lon="-7.3697915"><ele>542.3333333333334</ele><time>2026-04-25T12:21:47.054Z</time></trkpt><trkpt lat="42.4477185" lon="-7.369915"><ele>538.5</ele><time>2026-04-25T12:21:49.059Z</time></trkpt><trkpt lat="42.4477502" lon="-7.3699982"><ele>534.6666666666666</ele><time>2026-04-25T12:21:51.055Z</time></trkpt><trkpt lat="42.4478229" lon="-7.3699799"><ele>530.8333333333333</ele><time>2026-04-25T12:21:53.053Z</time></trkpt><trkpt lat="42.4478966" lon="-7.3699154"><ele>527.0</ele><time>2026-04-25T12:21:55.051Z</time></trkpt><trkpt lat="42.4479616" lon="-7.3698588"><ele>525.1666666666666</ele><time>2026-04-25T12:21:57.051Z</time></trkpt><trkpt lat="42.4480249" lon="-7.3698116"><ele>523.3333333333333</ele><time>2026-04-25T12:21:59.054Z</time></trkpt><trkpt lat="42.4480915" lon="-7.3697539"><ele>521.5</ele><time>2026-04-25T12:22:01.051Z</time></trkpt><trkpt lat="42.4481486" lon="-7.3696869"><ele>519.6666666666666</ele><time>2026-04-25T12:22:03.052Z</time></trkpt><trkpt lat="42.4481938" lon="-7.3696179"><ele>517.8333333333334</ele><time>2026-04-25T12:22:05.058Z</time></trkpt><trkpt lat="42.4482372" lon="-7.369534"><ele>516.0</ele><time>2026-04-25T12:22:07.058Z</time></trkpt><trkpt lat="42.4482659" lon="-7.3694224"><ele>516.0</ele><time>2026-04-25T12:22:09.052Z</time></trkpt><trkpt lat="42.4482906" lon="-7.369306"><ele>516.0</ele><time>2026-04-25T12:22:11.048Z</time></trkpt><trkpt lat="42.4483115" lon="-7.3691922"><ele>516.0</ele><time>2026-04-25T12:22:13.053Z</time></trkpt><trkpt lat="42.4483286" lon="-7.3690915"><ele>516.0</ele><time>2026-04-25T12:22:15.053Z</time></trkpt><trkpt lat="42.4483595" lon="-7.3689922"><ele>516.0</ele><time>2026-04-25T12:22:17.048Z</time></trkpt><trkpt lat="42.4483757" lon="-7.3689089"><ele>516.0</ele><time>2026-04-25T12:22:18.046Z</time></trkpt><trkpt lat="42.4483964" lon="-7.3687678"><ele>515.6666666666666</ele><time>2026-04-25T12:22:20.051Z</time></trkpt><trkpt lat="42.4484092" lon="-7.3686221"><ele>515.3333333333334</ele><time>2026-04-25T12:22:22.049Z</time></trkpt><trkpt lat="42.4484129" lon="-7.3684909"><ele>515.0</ele><time>2026-04-25T12:22:24.054Z</time></trkpt><trkpt lat="42.4484082" lon="-7.3683837"><ele>514.6666666666667</ele><time>2026-04-25T12:22:26.053Z</time></trkpt><trkpt lat="42.4484425" lon="-7.3682958"><ele>514.3333333333334</ele><time>2026-04-25T12:22:29.057Z</time></trkpt><trkpt lat="42.4485022" lon="-7.3683355"><ele>514.0</ele><time>2026-04-25T12:22:31.048Z</time></trkpt><trkpt lat="42.4485354" lon="-7.3684161"><ele>514.0</ele><time>2026-04-25T12:22:33.053Z</time></trkpt><trkpt lat="42.4485823" lon="-7.3685113"><ele>514.0</ele><time>2026-04-25T12:22:35.046Z</time></trkpt><trkpt lat="42.44864" lon="-7.3685906"><ele>514.0</ele><time>2026-04-25T12:22:37.064Z</time></trkpt><trkpt lat="42.4486893" lon="-7.3686617"><ele>514.0</ele><time>2026-04-25T12:22:38.964Z</time></trkpt><trkpt lat="42.4487457" lon="-7.368739"><ele>514.0</ele><time>2026-04-25T12:22:40.984Z</time></trkpt><trkpt lat="42.4488198" lon="-7.3688664"><ele>514.0</ele><time>2026-04-25T12:22:43.054Z</time></trkpt><trkpt lat="42.4488939" lon="-7.3689889"><ele>506.4</ele><time>2026-04-25T12:22:45.051Z</time></trkpt><trkpt lat="42.4489554" lon="-7.3691023"><ele>498.79999999999995</ele><time>2026-04-25T12:22:47.055Z</time></trkpt><trkpt lat="42.449007" lon="-7.3692251"><ele>491.20000000000005</ele><time>2026-04-25T12:22:49.056Z</time></trkpt><trkpt lat="42.4490515" lon="-7.3693507"><ele>483.6</ele><time>2026-04-25T12:22:51.055Z</time></trkpt><trkpt lat="42.4490924" lon="-7.369472"><ele>476.0</ele><time>2026-04-25T12:22:53.052Z</time></trkpt><trkpt lat="42.449133" lon="-7.369595"><ele>474.8333333333333</ele><time>2026-04-25T12:22:55.05Z</time></trkpt><trkpt lat="42.4491644" lon="-7.3697292"><ele>473.66666666666663</ele><time>2026-04-25T12:22:57.055Z</time></trkpt><trkpt lat="42.4491905" lon="-7.3698418"><ele>472.5</ele><time>2026-04-25T12:22:59.049Z</time></trkpt><trkpt lat="42.4492141" lon="-7.3699623"><ele>471.33333333333337</ele><time>2026-04-25T12:23:01.064Z</time></trkpt><trkpt lat="42.449242" lon="-7.3700549"><ele>470.1666666666667</ele><time>2026-04-25T12:23:03.05Z</time></trkpt><trkpt lat="42.4493273" lon="-7.3700283"><ele>469.0</ele><time>2026-04-25T12:23:07.102Z</time></trkpt><trkpt lat="42.4494212" lon="-7.3699393"><ele>469.0</ele><time>2026-04-25T12:23:09.045Z</time></trkpt><trkpt lat="42.4494847" lon="-7.3698253"><ele>469.0</ele><time>2026-04-25T12:23:11.053Z</time></trkpt><trkpt lat="42.4495283" lon="-7.3697285"><ele>469.0</ele><time>2026-04-25T12:23:13.053Z</time></trkpt><trkpt lat="42.4495897" lon="-7.3696119"><ele>469.0</ele><time>2026-04-25T12:23:15.05Z</time></trkpt><trkpt lat="42.4496368" lon="-7.3694856"><ele>469.0</ele><time>2026-04-25T12:23:17.051Z</time></trkpt><trkpt lat="42.449665" lon="-7.3693668"><ele>462.6</ele><time>2026-04-25T12:23:19.046Z</time></trkpt><trkpt lat="42.4496786" lon="-7.3692329"><ele>456.2</ele><time>2026-04-25T12:23:21.053Z</time></trkpt><trkpt lat="42.4496818" lon="-7.3690925"><ele>449.80000000000007</ele><time>2026-04-25T12:23:23.042Z</time></trkpt><trkpt lat="42.4496863" lon="-7.3689431"><ele>443.40000000000003</ele><time>2026-04-25T12:23:25.048Z</time></trkpt><trkpt lat="42.4496858" lon="-7.3688092"><ele>437.0</ele><time>2026-04-25T12:23:27.053Z</time></trkpt><trkpt lat="42.4496885" lon="-7.3687002"><ele>434.6</ele><time>2026-04-25T12:23:29.045Z</time></trkpt><trkpt lat="42.4496883" lon="-7.3685631"><ele>432.20000000000005</ele><time>2026-04-25T12:23:31.059Z</time></trkpt><trkpt lat="42.4496888" lon="-7.3684137"><ele>429.8</ele><time>2026-04-25T12:23:33.042Z</time></trkpt><trkpt lat="42.4496807" lon="-7.3682772"><ele>427.4</ele><time>2026-04-25T12:23:35.051Z</time></trkpt><trkpt lat="42.4496714" lon="-7.368148"><ele>425.0</ele><time>2026-04-25T12:23:37.055Z</time></trkpt><trkpt lat="42.4496663" lon="-7.3680446"><ele>424.99999999999994</ele><time>2026-04-25T12:23:39.051Z</time></trkpt><trkpt lat="42.4496568" lon="-7.3679156"><ele>425.0</ele><time>2026-04-25T12:23:41.065Z</time></trkpt><trkpt lat="42.4496597" lon="-7.3678196"><ele>425.0</ele><time>2026-04-25T12:23:43.053Z</time></trkpt><trkpt lat="42.4496675" lon="-7.3679329"><ele>425.0</ele><time>2026-04-25T12:32:38.082Z</time></trkpt><trkpt lat="42.4496413" lon="-7.3680517"><ele>424.99999999999994</ele><time>2026-04-25T12:32:39.061Z</time></trkpt><trkpt lat="42.4496365" lon="-7.3681573"><ele>425.0</ele><time>2026-04-25T12:32:40.056Z</time></trkpt><trkpt lat="42.4496407" lon="-7.3682517"><ele>424.99999999999994</ele><time>2026-04-25T12:32:41.056Z</time></trkpt><trkpt lat="42.4496372" lon="-7.3683542"><ele>425.0</ele><time>2026-04-25T12:32:42.057Z</time></trkpt><trkpt lat="42.4496443" lon="-7.3684748"><ele>425.0</ele><time>2026-04-25T12:32:43.053Z</time></trkpt><trkpt lat="42.4496497" lon="-7.3685673"><ele>425.0</ele><time>2026-04-25T12:32:44.05Z</time></trkpt><trkpt lat="42.4496413" lon="-7.3686606"><ele>424.99999999999994</ele><time>2026-04-25T12:32:45.053Z</time></trkpt><trkpt lat="42.4496437" lon="-7.3687582"><ele>425.0</ele><time>2026-04-25T12:32:46.052Z</time></trkpt><trkpt lat="42.4496388" lon="-7.3689224"><ele>426.99999999999994</ele><time>2026-04-25T12:32:48.053Z</time></trkpt><trkpt lat="42.4496336" lon="-7.3690235"><ele>429.0</ele><time>2026-04-25T12:32:49.053Z</time></trkpt><trkpt lat="42.4496314" lon="-7.3691201"><ele>431.0</ele><time>2026-04-25T12:32:50.05Z</time></trkpt><trkpt lat="42.4496349" lon="-7.36927"><ele>433.0</ele><time>2026-04-25T12:32:52.065Z</time></trkpt><trkpt lat="42.449613" lon="-7.3693839"><ele>434.99999999999994</ele><time>2026-04-25T12:32:54.059Z</time></trkpt><trkpt lat="42.4495852" lon="-7.3695008"><ele>437.0</ele><time>2026-04-25T12:32:56.056Z</time></trkpt><trkpt lat="42.4495596" lon="-7.3695879"><ele>443.40000000000003</ele><time>2026-04-25T12:32:57.055Z</time></trkpt><trkpt lat="42.4495249" lon="-7.3696641"><ele>449.80000000000007</ele><time>2026-04-25T12:32:58.063Z</time></trkpt><trkpt lat="42.4494935" lon="-7.3697392"><ele>456.2</ele><time>2026-04-25T12:32:59.054Z</time></trkpt><trkpt lat="42.4494374" lon="-7.3698508"><ele>462.6</ele><time>2026-04-25T12:33:01.053Z</time></trkpt><trkpt lat="42.4493615" lon="-7.3699837"><ele>469.0</ele><time>2026-04-25T12:33:03.057Z</time></trkpt><trkpt lat="42.449283" lon="-7.3700754"><ele>469.00000000000006</ele><time>2026-04-25T12:33:05.054Z</time></trkpt><trkpt lat="42.4492087" lon="-7.3700494"><ele>469.0</ele><time>2026-04-25T12:33:08.063Z</time></trkpt><trkpt lat="42.4491865" lon="-7.3699386"><ele>469.0</ele><time>2026-04-25T12:33:10.054Z</time></trkpt><trkpt lat="42.449147" lon="-7.3698012"><ele>469.0</ele><time>2026-04-25T12:33:12.069Z</time></trkpt><trkpt lat="42.449118" lon="-7.3696956"><ele>469.00000000000006</ele><time>2026-04-25T12:33:14.059Z</time></trkpt><trkpt lat="42.4491006" lon="-7.3695921"><ele>469.0</ele><time>2026-04-25T12:33:16.056Z</time></trkpt><trkpt lat="42.449067" lon="-7.369447"><ele>470.4</ele><time>2026-04-25T12:33:18.054Z</time></trkpt><trkpt lat="42.4490129" lon="-7.3692905"><ele>471.79999999999995</ele><time>2026-04-25T12:33:20.053Z</time></trkpt><trkpt lat="42.4489764" lon="-7.3692006"><ele>473.20000000000005</ele><time>2026-04-25T12:33:21.063Z</time></trkpt><trkpt lat="42.4489374" lon="-7.3691028"><ele>474.6</ele><time>2026-04-25T12:33:22.05Z</time></trkpt><trkpt lat="42.4488926" lon="-7.3690142"><ele>476.0</ele><time>2026-04-25T12:33:23.046Z</time></trkpt><trkpt lat="42.4488357" lon="-7.3689257"><ele>483.6</ele><time>2026-04-25T12:33:24.05Z</time></trkpt><trkpt lat="42.4487749" lon="-7.3688341"><ele>491.20000000000005</ele><time>2026-04-25T12:33:25.047Z</time></trkpt><trkpt lat="42.4487079" lon="-7.3687346"><ele>498.79999999999995</ele><time>2026-04-25T12:33:26.049Z</time></trkpt><trkpt lat="42.4486291" lon="-7.3686396"><ele>506.4</ele><time>2026-04-25T12:33:27.053Z</time></trkpt><trkpt lat="42.4485627" lon="-7.3685499"><ele>514.0</ele><time>2026-04-25T12:33:28.045Z</time></trkpt><trkpt lat="42.4485133" lon="-7.3684668"><ele>514.0</ele><time>2026-04-25T12:33:29.05Z</time></trkpt><trkpt lat="42.4484722" lon="-7.368387"><ele>514.0</ele><time>2026-04-25T12:33:30.045Z</time></trkpt><trkpt lat="42.4484267" lon="-7.3682853"><ele>514.0</ele><time>2026-04-25T12:33:32.053Z</time></trkpt><trkpt lat="42.4484078" lon="-7.3684509"><ele>514.0</ele><time>2026-04-25T12:33:38.061Z</time></trkpt><trkpt lat="42.4484065" lon="-7.3685371"><ele>514.0</ele><time>2026-04-25T12:33:39.061Z</time></trkpt><trkpt lat="42.4484022" lon="-7.3686287"><ele>514.0</ele><time>2026-04-25T12:33:40.052Z</time></trkpt><trkpt lat="42.4483876" lon="-7.3687385"><ele>514.0</ele><time>2026-04-25T12:33:41.048Z</time></trkpt><trkpt lat="42.4483736" lon="-7.3688371"><ele>514.0</ele><time>2026-04-25T12:33:42.062Z</time></trkpt><trkpt lat="42.4483603" lon="-7.3689221"><ele>514.0</ele><time>2026-04-25T12:33:43.053Z</time></trkpt><trkpt lat="42.4483471" lon="-7.3690093"><ele>514.0</ele><time>2026-04-25T12:33:44.049Z</time></trkpt><trkpt lat="42.448332" lon="-7.3690932"><ele>514.0</ele><time>2026-04-25T12:33:45.055Z</time></trkpt><trkpt lat="42.4483126" lon="-7.3691865"><ele>514.0</ele><time>2026-04-25T12:33:46.055Z</time></trkpt><trkpt lat="42.4482909" lon="-7.3692869"><ele>514.0</ele><time>2026-04-25T12:33:47.052Z</time></trkpt><trkpt lat="42.4482625" lon="-7.3693959"><ele>514.4</ele><time>2026-04-25T12:33:48.05Z</time></trkpt><trkpt lat="42.4482397" lon="-7.3694866"><ele>514.8</ele><time>2026-04-25T12:33:49.066Z</time></trkpt><trkpt lat="42.4481878" lon="-7.3696147"><ele>515.2</ele><time>2026-04-25T12:33:51.054Z</time></trkpt><trkpt lat="42.4480854" lon="-7.36972"><ele>515.6</ele><time>2026-04-25T12:33:53.053Z</time></trkpt><trkpt lat="42.4480254" lon="-7.3697782"><ele>516.0</ele><time>2026-04-25T12:33:54.066Z</time></trkpt><trkpt lat="42.4479627" lon="-7.3698242"><ele>517.8333333333334</ele><time>2026-04-25T12:33:55.054Z</time></trkpt><trkpt lat="42.4479031" lon="-7.3698729"><ele>519.6666666666666</ele><time>2026-04-25T12:33:56.052Z</time></trkpt><trkpt lat="42.4478475" lon="-7.3699255"><ele>521.5</ele><time>2026-04-25T12:33:57.053Z</time></trkpt><trkpt lat="42.4477896" lon="-7.3699727"><ele>523.3333333333333</ele><time>2026-04-25T12:33:58.057Z</time></trkpt><trkpt lat="42.4477063" lon="-7.3699798"><ele>525.1666666666666</ele><time>2026-04-25T12:34:00.057Z</time></trkpt><trkpt lat="42.4476635" lon="-7.3698804"><ele>527.0</ele><time>2026-04-25T12:34:02.058Z</time></trkpt><trkpt lat="42.4476895" lon="-7.3697815"><ele>530.8333333333333</ele><time>2026-04-25T12:34:03.056Z</time></trkpt><trkpt lat="42.4477137" lon="-7.3696634"><ele>534.6666666666666</ele><time>2026-04-25T12:34:04.054Z</time></trkpt><trkpt lat="42.447727" lon="-7.3695693"><ele>538.5</ele><time>2026-04-25T12:34:05.059Z</time></trkpt><trkpt lat="42.4477346" lon="-7.3694614"><ele>542.3333333333334</ele><time>2026-04-25T12:34:06.062Z</time></trkpt><trkpt lat="42.4477319" lon="-7.3693606"><ele>546.1666666666667</ele><time>2026-04-25T12:34:07.056Z</time></trkpt><trkpt lat="42.4477158" lon="-7.3692439"><ele>550.0</ele><time>2026-04-25T12:34:08.054Z</time></trkpt><trkpt lat="42.4476993" lon="-7.3691477"><ele>550.0</ele><time>2026-04-25T12:34:09.07Z</time></trkpt><trkpt lat="42.4476806" lon="-7.3690364"><ele>550.0</ele><time>2026-04-25T12:34:11.054Z</time></trkpt><trkpt lat="42.447644" lon="-7.3689309"><ele>550.0</ele><time>2026-04-25T12:34:13.057Z</time></trkpt><trkpt lat="42.4475999" lon="-7.3687713"><ele>550.0</ele><time>2026-04-25T12:34:15.055Z</time></trkpt><trkpt lat="42.4475756" lon="-7.3686879"><ele>550.0</ele><time>2026-04-25T12:34:16.054Z</time></trkpt><trkpt lat="42.4475247" lon="-7.368517"><ele>550.1428571428571</ele><time>2026-04-25T12:34:18.059Z</time></trkpt><trkpt lat="42.4474987" lon="-7.3684223"><ele>550.2857142857142</ele><time>2026-04-25T12:34:19.05Z</time></trkpt><trkpt lat="42.4474732" lon="-7.3683244"><ele>550.4285714285713</ele><time>2026-04-25T12:34:20.053Z</time></trkpt><trkpt lat="42.4474445" lon="-7.3682464"><ele>550.5714285714286</ele><time>2026-04-25T12:34:21.057Z</time></trkpt><trkpt lat="42.4474091" lon="-7.3681493"><ele>550.7142857142857</ele><time>2026-04-25T12:34:23.055Z</time></trkpt><trkpt lat="42.4474038" lon="-7.36806"><ele>550.8571428571428</ele><time>2026-04-25T12:34:25.064Z</time></trkpt><trkpt lat="42.4474297" lon="-7.3679669"><ele>551.0</ele><time>2026-04-25T12:34:27.056Z</time></trkpt><trkpt lat="42.4474519" lon="-7.3678592"><ele>551.0</ele><time>2026-04-25T12:34:29.054Z</time></trkpt><trkpt lat="42.4474697" lon="-7.3677316"><ele>551.0</ele><time>2026-04-25T12:34:31.05Z</time></trkpt><trkpt lat="42.4474926" lon="-7.3675746"><ele>551.0</ele><time>2026-04-25T12:34:33.05Z</time></trkpt><trkpt lat="42.447505" lon="-7.367372"><ele>551.0</ele><time>2026-04-25T12:34:35.064Z</time></trkpt><trkpt lat="42.4475019" lon="-7.3672455"><ele>550.6</ele><time>2026-04-25T12:34:36.058Z</time></trkpt><trkpt lat="42.447496" lon="-7.3670979"><ele>550.2</ele><time>2026-04-25T12:34:37.048Z</time></trkpt><trkpt lat="42.4474921" lon="-7.3669501"><ele>549.8</ele><time>2026-04-25T12:34:38.048Z</time></trkpt><trkpt lat="42.4474925" lon="-7.3668014"><ele>549.4</ele><time>2026-04-25T12:34:39.056Z</time></trkpt><trkpt lat="42.4475081" lon="-7.3666596"><ele>549.0</ele><time>2026-04-25T12:34:40.067Z</time></trkpt><trkpt lat="42.4475235" lon="-7.3665249"><ele>549.0</ele><time>2026-04-25T12:34:41.056Z</time></trkpt><trkpt lat="42.4475684" lon="-7.3663763"><ele>549.0</ele><time>2026-04-25T12:34:42.08Z</time></trkpt><trkpt lat="42.447616" lon="-7.3661911"><ele>549.0</ele><time>2026-04-25T12:34:43.055Z</time></trkpt><trkpt lat="42.4476634" lon="-7.3660112"><ele>549.0</ele><time>2026-04-25T12:34:44.049Z</time></trkpt><trkpt lat="42.4477027" lon="-7.3658255"><ele>549.25</ele><time>2026-04-25T12:34:45.055Z</time></trkpt><trkpt lat="42.4477381" lon="-7.3656402"><ele>549.5</ele><time>2026-04-25T12:34:46.052Z</time></trkpt><trkpt lat="42.4477655" lon="-7.3654643"><ele>549.75</ele><time>2026-04-25T12:34:47.054Z</time></trkpt><trkpt lat="42.4477923" lon="-7.3652983"><ele>550.0</ele><time>2026-04-25T12:34:48.052Z</time></trkpt><trkpt lat="42.4478046" lon="-7.3651304"><ele>550.0</ele><time>2026-04-25T12:34:49.05Z</time></trkpt><trkpt lat="42.4478102" lon="-7.3649628"><ele>550.0</ele><time>2026-04-25T12:34:50.049Z</time></trkpt><trkpt lat="42.4478242" lon="-7.3648059"><ele>550.0</ele><time>2026-04-25T12:34:51.055Z</time></trkpt><trkpt lat="42.4478361" lon="-7.3646596"><ele>550.0</ele><time>2026-04-25T12:34:52.05Z</time></trkpt><trkpt lat="42.4478896" lon="-7.3645192"><ele>550.75</ele><time>2026-04-25T12:34:53.063Z</time></trkpt><trkpt lat="42.4479448" lon="-7.3643761"><ele>551.5</ele><time>2026-04-25T12:34:54.053Z</time></trkpt><trkpt lat="42.4480383" lon="-7.3642237"><ele>552.25</ele><time>2026-04-25T12:34:55.059Z</time></trkpt><trkpt lat="42.4481228" lon="-7.3640613"><ele>553.0</ele><time>2026-04-25T12:34:56.049Z</time></trkpt><trkpt lat="42.4481948" lon="-7.3638971"><ele>544.0</ele><time>2026-04-25T12:34:57.056Z</time></trkpt><trkpt lat="42.4482633" lon="-7.3637349"><ele>535.0</ele><time>2026-04-25T12:34:58.059Z</time></trkpt><trkpt lat="42.4483264" lon="-7.3635759"><ele>526.0</ele><time>2026-04-25T12:34:59.049Z</time></trkpt><trkpt lat="42.4483869" lon="-7.3634265"><ele>517.0</ele><time>2026-04-25T12:35:00.049Z</time></trkpt><trkpt lat="42.4484601" lon="-7.363287"><ele>517.0</ele><time>2026-04-25T12:35:01.055Z</time></trkpt><trkpt lat="42.4485387" lon="-7.3631589"><ele>517.0</ele><time>2026-04-25T12:35:02.051Z</time></trkpt><trkpt lat="42.4486211" lon="-7.3630379"><ele>517.0</ele><time>2026-04-25T12:35:03.045Z</time></trkpt><trkpt lat="42.4487038" lon="-7.3629282"><ele>517.0</ele><time>2026-04-25T12:35:04.048Z</time></trkpt><trkpt lat="42.4487888" lon="-7.3628151"><ele>510.0</ele><time>2026-04-25T12:35:05.05Z</time></trkpt><trkpt lat="42.4488646" lon="-7.3627002"><ele>503.00000000000006</ele><time>2026-04-25T12:35:06.047Z</time></trkpt><trkpt lat="42.4489271" lon="-7.3625892"><ele>496.00000000000006</ele><time>2026-04-25T12:35:07.06Z</time></trkpt><trkpt lat="42.4489782" lon="-7.3624686"><ele>489.0</ele><time>2026-04-25T12:35:08.05Z</time></trkpt><trkpt lat="42.4490301" lon="-7.3623377"><ele>482.0</ele><time>2026-04-25T12:35:09.056Z</time></trkpt><trkpt lat="42.4490816" lon="-7.3622047"><ele>482.20000000000005</ele><time>2026-04-25T12:35:10.061Z</time></trkpt><trkpt lat="42.4491292" lon="-7.3620678"><ele>482.40000000000003</ele><time>2026-04-25T12:35:11.058Z</time></trkpt><trkpt lat="42.4491725" lon="-7.3619271"><ele>482.59999999999997</ele><time>2026-04-25T12:35:12.048Z</time></trkpt><trkpt lat="42.4492068" lon="-7.3618023"><ele>482.79999999999995</ele><time>2026-04-25T12:35:13.055Z</time></trkpt><trkpt lat="42.4492313" lon="-7.3616909"><ele>483.0</ele><time>2026-04-25T12:35:14.06Z</time></trkpt><trkpt lat="42.4492446" lon="-7.3616029"><ele>483.0</ele><time>2026-04-25T12:35:15.063Z</time></trkpt><trkpt lat="42.4492105" lon="-7.3614564"><ele>483.0</ele><time>2026-04-25T12:35:17.058Z</time></trkpt><trkpt lat="42.4491612" lon="-7.3613763"><ele>483.0</ele><time>2026-04-25T12:35:18.058Z</time></trkpt><trkpt lat="42.4491026" lon="-7.3613049"><ele>483.0</ele><time>2026-04-25T12:35:19.05Z</time></trkpt><trkpt lat="42.4490351" lon="-7.3612392"><ele>483.0</ele><time>2026-04-25T12:35:20.057Z</time></trkpt><trkpt lat="42.448961" lon="-7.3611793"><ele>483.0</ele><time>2026-04-25T12:35:21.059Z</time></trkpt><trkpt lat="42.4488784" lon="-7.3611166"><ele>479.79999999999995</ele><time>2026-04-25T12:35:22.066Z</time></trkpt><trkpt lat="42.4487832" lon="-7.3610485"><ele>476.59999999999997</ele><time>2026-04-25T12:35:23.058Z</time></trkpt><trkpt lat="42.4486882" lon="-7.3609804"><ele>473.40000000000003</ele><time>2026-04-25T12:35:24.05Z</time></trkpt><trkpt lat="42.4485947" lon="-7.3609133"><ele>470.20000000000005</ele><time>2026-04-25T12:35:25.051Z</time></trkpt><trkpt lat="42.4485011" lon="-7.3608465"><ele>467.0</ele><time>2026-04-25T12:35:26.049Z</time></trkpt><trkpt lat="42.448407" lon="-7.3607822"><ele>467.0</ele><time>2026-04-25T12:35:27.053Z</time></trkpt><trkpt lat="42.4483149" lon="-7.3607189"><ele>467.00000000000006</ele><time>2026-04-25T12:35:28.059Z</time></trkpt><trkpt lat="42.4482204" lon="-7.360652"><ele>467.00000000000006</ele><time>2026-04-25T12:35:29.052Z</time></trkpt><trkpt lat="42.4481314" lon="-7.3605836"><ele>467.0</ele><time>2026-04-25T12:35:30.048Z</time></trkpt><trkpt lat="42.4480397" lon="-7.3605229"><ele>467.0</ele><time>2026-04-25T12:35:31.049Z</time></trkpt><trkpt lat="42.4479529" lon="-7.3604508"><ele>463.8</ele><time>2026-04-25T12:35:32.055Z</time></trkpt><trkpt lat="42.4478719" lon="-7.3603692"><ele>460.6</ele><time>2026-04-25T12:35:33.051Z</time></trkpt><trkpt lat="42.447784" lon="-7.3602844"><ele>457.40000000000003</ele><time>2026-04-25T12:35:34.06Z</time></trkpt><trkpt lat="42.4477052" lon="-7.3601951"><ele>454.20000000000005</ele><time>2026-04-25T12:35:35.05Z</time></trkpt><trkpt lat="42.4476273" lon="-7.3601055"><ele>451.0</ele><time>2026-04-25T12:35:36.041Z</time></trkpt><trkpt lat="42.4475506" lon="-7.3600127"><ele>451.0</ele><time>2026-04-25T12:35:37.044Z</time></trkpt><trkpt lat="42.4474756" lon="-7.3599151"><ele>451.0</ele><time>2026-04-25T12:35:38.056Z</time></trkpt><trkpt lat="42.4474047" lon="-7.3598116"><ele>451.0</ele><time>2026-04-25T12:35:39.055Z</time></trkpt><trkpt lat="42.447335" lon="-7.3597103"><ele>451.0</ele><time>2026-04-25T12:35:40.05Z</time></trkpt><trkpt lat="42.4472693" lon="-7.3595983"><ele>451.0</ele><time>2026-04-25T12:35:41.057Z</time></trkpt><trkpt lat="42.4472107" lon="-7.3594652"><ele>452.75</ele><time>2026-04-25T12:35:42.051Z</time></trkpt><trkpt lat="42.4471551" lon="-7.3593225"><ele>454.5</ele><time>2026-04-25T12:35:43.056Z</time></trkpt><trkpt lat="42.4471003" lon="-7.3591758"><ele>456.25</ele><time>2026-04-25T12:35:44.048Z</time></trkpt><trkpt lat="42.4470499" lon="-7.3590281"><ele>458.0</ele><time>2026-04-25T12:35:45.056Z</time></trkpt><trkpt lat="42.4470078" lon="-7.3588913"><ele>453.99999999999994</ele><time>2026-04-25T12:35:46.052Z</time></trkpt><trkpt lat="42.4469833" lon="-7.3587732"><ele>450.0</ele><time>2026-04-25T12:35:47.057Z</time></trkpt><trkpt lat="42.4469661" lon="-7.3586666"><ele>446.0</ele><time>2026-04-25T12:35:48.049Z</time></trkpt><trkpt lat="42.4469483" lon="-7.3585363"><ele>442.0</ele><time>2026-04-25T12:35:49.048Z</time></trkpt><trkpt lat="42.4469305" lon="-7.3584214"><ele>437.99999999999994</ele><time>2026-04-25T12:35:50.057Z</time></trkpt><trkpt lat="42.4468913" lon="-7.3583182"><ele>434.0</ele><time>2026-04-25T12:35:51.051Z</time></trkpt><trkpt lat="42.4468331" lon="-7.3582256"><ele>434.0</ele><time>2026-04-25T12:35:52.053Z</time></trkpt><trkpt lat="42.4467677" lon="-7.358123"><ele>434.0</ele><time>2026-04-25T12:35:53.048Z</time></trkpt><trkpt lat="42.4466942" lon="-7.3580249"><ele>434.0</ele><time>2026-04-25T12:35:54.053Z</time></trkpt><trkpt lat="42.4466231" lon="-7.3579464"><ele>434.0</ele><time>2026-04-25T12:35:55.049Z</time></trkpt><trkpt lat="42.4465546" lon="-7.3578715"><ele>434.0</ele><time>2026-04-25T12:35:56.05Z</time></trkpt><trkpt lat="42.4464993" lon="-7.3578092"><ele>431.8333333333333</ele><time>2026-04-25T12:35:57.048Z</time></trkpt><trkpt lat="42.4464604" lon="-7.3577401"><ele>429.66666666666663</ele><time>2026-04-25T12:35:58.057Z</time></trkpt><trkpt lat="42.446417" lon="-7.3576617"><ele>427.5</ele><time>2026-04-25T12:35:59.05Z</time></trkpt><trkpt lat="42.4463875" lon="-7.3575748"><ele>425.33333333333337</ele><time>2026-04-25T12:36:00.055Z</time></trkpt><trkpt lat="42.4463949" lon="-7.3574424"><ele>423.1666666666667</ele><time>2026-04-25T12:36:02.047Z</time></trkpt><trkpt lat="42.4465254" lon="-7.3574609"><ele>421.0</ele><time>2026-04-25T12:36:04.058Z</time></trkpt><trkpt lat="42.4466129" lon="-7.3575054"><ele>421.0</ele><time>2026-04-25T12:36:05.053Z</time></trkpt><trkpt lat="42.4467236" lon="-7.3575686"><ele>421.0</ele><time>2026-04-25T12:36:06.05Z</time></trkpt><trkpt lat="42.4468453" lon="-7.3575721"><ele>421.0</ele><time>2026-04-25T12:36:07.051Z</time></trkpt><trkpt lat="42.44699" lon="-7.3575627"><ele>421.0</ele><time>2026-04-25T12:36:08.059Z</time></trkpt><trkpt lat="42.4471531" lon="-7.3575537"><ele>418.0</ele><time>2026-04-25T12:36:09.054Z</time></trkpt><trkpt lat="42.4473369" lon="-7.3575271"><ele>415.0</ele><time>2026-04-25T12:36:10.052Z</time></trkpt><trkpt lat="42.4474978" lon="-7.3575051"><ele>412.0</ele><time>2026-04-25T12:36:11.056Z</time></trkpt><trkpt lat="42.4476452" lon="-7.3574905"><ele>412.0</ele><time>2026-04-25T12:36:12.056Z</time></trkpt><trkpt lat="42.447789" lon="-7.3575127"><ele>412.0</ele><time>2026-04-25T12:36:13.054Z</time></trkpt><trkpt lat="42.4479522" lon="-7.3575368"><ele>412.0</ele><time>2026-04-25T12:36:14.042Z</time></trkpt><trkpt lat="42.4481094" lon="-7.3575657"><ele>410.75</ele><time>2026-04-25T12:36:15.061Z</time></trkpt><trkpt lat="42.4482586" lon="-7.3575943"><ele>409.5</ele><time>2026-04-25T12:36:16.058Z</time></trkpt><trkpt lat="42.4483904" lon="-7.3576179"><ele>408.25</ele><time>2026-04-25T12:36:17.048Z</time></trkpt><trkpt lat="42.4485" lon="-7.3576349"><ele>407.0</ele><time>2026-04-25T12:36:18.049Z</time></trkpt><trkpt lat="42.4486002" lon="-7.3576405"><ele>407.0</ele><time>2026-04-25T12:36:19.05Z</time></trkpt><trkpt lat="42.4486903" lon="-7.3576301"><ele>407.0</ele><time>2026-04-25T12:36:20.054Z</time></trkpt><trkpt lat="42.4487864" lon="-7.3575973"><ele>407.0</ele><time>2026-04-25T12:36:21.058Z</time></trkpt><trkpt lat="42.4489109" lon="-7.357551"><ele>407.0</ele><time>2026-04-25T12:36:22.051Z</time></trkpt><trkpt lat="42.4490467" lon="-7.3574672"><ele>404.5</ele><time>2026-04-25T12:36:23.045Z</time></trkpt><trkpt lat="42.4491891" lon="-7.3574121"><ele>402.0</ele><time>2026-04-25T12:36:24.048Z</time></trkpt><trkpt lat="42.4493186" lon="-7.3573325"><ele>399.5</ele><time>2026-04-25T12:36:25.053Z</time></trkpt><trkpt lat="42.4494418" lon="-7.3572476"><ele>397.0</ele><time>2026-04-25T12:36:26.061Z</time></trkpt><trkpt lat="42.4495536" lon="-7.3571743"><ele>395.1666666666667</ele><time>2026-04-25T12:36:27.049Z</time></trkpt><trkpt lat="42.4496322" lon="-7.3570966"><ele>393.33333333333337</ele><time>2026-04-25T12:36:28.051Z</time></trkpt><trkpt lat="42.4496933" lon="-7.3570177"><ele>391.5</ele><time>2026-04-25T12:36:29.052Z</time></trkpt><trkpt lat="42.449744" lon="-7.3569319"><ele>389.66666666666663</ele><time>2026-04-25T12:36:30.053Z</time></trkpt><trkpt lat="42.4497953" lon="-7.3568618"><ele>387.8333333333333</ele><time>2026-04-25T12:36:31.047Z</time></trkpt><trkpt lat="42.4498161" lon="-7.3567501"><ele>386.0</ele><time>2026-04-25T12:36:32.054Z</time></trkpt><trkpt lat="42.4498166" lon="-7.3566307"><ele>386.0</ele><time>2026-04-25T12:36:33.053Z</time></trkpt><trkpt lat="42.4497906" lon="-7.3564873"><ele>386.0</ele><time>2026-04-25T12:36:34.046Z</time></trkpt><trkpt lat="42.4497435" lon="-7.3563207"><ele>386.0</ele><time>2026-04-25T12:36:35.046Z</time></trkpt><trkpt lat="42.4496762" lon="-7.3561403"><ele>386.0</ele><time>2026-04-25T12:36:36.045Z</time></trkpt><trkpt lat="42.4496159" lon="-7.3559813"><ele>391.20000000000005</ele><time>2026-04-25T12:36:37.046Z</time></trkpt><trkpt lat="42.4495734" lon="-7.3558304"><ele>396.40000000000003</ele><time>2026-04-25T12:36:38.049Z</time></trkpt><trkpt lat="42.4495468" lon="-7.3557054"><ele>401.6</ele><time>2026-04-25T12:36:39.046Z</time></trkpt><trkpt lat="42.4495273" lon="-7.3555772"><ele>406.8</ele><time>2026-04-25T12:36:40.051Z</time></trkpt><trkpt lat="42.4495104" lon="-7.3554429"><ele>412.0</ele><time>2026-04-25T12:36:41.052Z</time></trkpt><trkpt lat="42.4495233" lon="-7.3553146"><ele>412.0</ele><time>2026-04-25T12:36:42.051Z</time></trkpt><trkpt lat="42.4495333" lon="-7.3551747"><ele>412.0</ele><time>2026-04-25T12:36:43.052Z</time></trkpt><trkpt lat="42.4495594" lon="-7.3550478"><ele>412.0</ele><time>2026-04-25T12:36:44.052Z</time></trkpt><trkpt lat="42.4495896" lon="-7.3549347"><ele>412.0</ele><time>2026-04-25T12:36:45.046Z</time></trkpt><trkpt lat="42.4496119" lon="-7.3548107"><ele>412.0</ele><time>2026-04-25T12:36:46.048Z</time></trkpt><trkpt lat="42.4496496" lon="-7.354706"><ele>404.0</ele><time>2026-04-25T12:36:47.051Z</time></trkpt><trkpt lat="42.4496968" lon="-7.3545713"><ele>396.0</ele><time>2026-04-25T12:36:48.057Z</time></trkpt><trkpt lat="42.4497487" lon="-7.354453"><ele>388.0</ele><time>2026-04-25T12:36:49.047Z</time></trkpt><trkpt lat="42.4497772" lon="-7.3543117"><ele>380.0</ele><time>2026-04-25T12:36:50.048Z</time></trkpt><trkpt lat="42.4497855" lon="-7.3541553"><ele>372.0</ele><time>2026-04-25T12:36:51.049Z</time></trkpt><trkpt lat="42.449811" lon="-7.3540256"><ele>372.0</ele><time>2026-04-25T12:36:52.053Z</time></trkpt><trkpt lat="42.4498203" lon="-7.3539177"><ele>372.0</ele><time>2026-04-25T12:36:53.046Z</time></trkpt><trkpt lat="42.4498519" lon="-7.3538436"><ele>372.0</ele><time>2026-04-25T12:36:54.051Z</time></trkpt><trkpt lat="42.4498971" lon="-7.3537536"><ele>372.0</ele><time>2026-04-25T12:36:55.046Z</time></trkpt><trkpt lat="42.4499453" lon="-7.35369"><ele>372.0</ele><time>2026-04-25T12:36:56.046Z</time></trkpt><trkpt lat="42.4500232" lon="-7.3535976"><ele>372.0</ele><time>2026-04-25T12:36:58.058Z</time></trkpt><trkpt lat="42.4500594" lon="-7.3534953"><ele>372.20000000000005</ele><time>2026-04-25T12:37:00.049Z</time></trkpt><trkpt lat="42.4500931" lon="-7.3533436"><ele>372.4</ele><time>2026-04-25T12:37:02.054Z</time></trkpt><trkpt lat="42.4501278" lon="-7.3532654"><ele>372.6</ele><time>2026-04-25T12:37:03.052Z</time></trkpt><trkpt lat="42.4501427" lon="-7.3531756"><ele>372.79999999999995</ele><time>2026-04-25T12:37:04.047Z</time></trkpt><trkpt lat="42.4501699" lon="-7.3530127"><ele>373.0</ele><time>2026-04-25T12:37:06.047Z</time></trkpt><trkpt lat="42.4502116" lon="-7.3528693"><ele>373.0</ele><time>2026-04-25T12:37:08.045Z</time></trkpt><trkpt lat="42.450295" lon="-7.352729"><ele>373.0</ele><time>2026-04-25T12:37:10.055Z</time></trkpt><trkpt lat="42.4503647" lon="-7.3526299"><ele>373.0</ele><time>2026-04-25T12:37:11.046Z</time></trkpt><trkpt lat="42.4504322" lon="-7.3525757"><ele>373.0</ele><time>2026-04-25T12:37:12.054Z</time></trkpt><trkpt lat="42.4505011" lon="-7.3525386"><ele>373.0</ele><time>2026-04-25T12:37:13.049Z</time></trkpt><trkpt lat="42.4505792" lon="-7.3525002"><ele>368.5</ele><time>2026-04-25T12:37:14.055Z</time></trkpt><trkpt lat="42.4506626" lon="-7.3524744"><ele>364.0</ele><time>2026-04-25T12:37:15.061Z</time></trkpt><trkpt lat="42.4507298" lon="-7.3524332"><ele>359.5</ele><time>2026-04-25T12:37:16.052Z</time></trkpt><trkpt lat="42.4508368" lon="-7.3523422"><ele>355.0</ele><time>2026-04-25T12:37:18.051Z</time></trkpt><trkpt lat="42.4508868" lon="-7.3522641"><ele>350.5</ele><time>2026-04-25T12:37:19.053Z</time></trkpt><trkpt lat="42.4509114" lon="-7.3521686"><ele>346.0</ele><time>2026-04-25T12:37:20.049Z</time></trkpt><trkpt lat="42.4509141" lon="-7.3520801"><ele>345.8333333333333</ele><time>2026-04-25T12:37:21.047Z</time></trkpt><trkpt lat="42.4509157" lon="-7.3519861"><ele>345.66666666666663</ele><time>2026-04-25T12:37:22.051Z</time></trkpt><trkpt lat="42.4509099" lon="-7.351899"><ele>345.5</ele><time>2026-04-25T12:37:23.052Z</time></trkpt><trkpt lat="42.4509469" lon="-7.3517842"><ele>345.3333333333333</ele><time>2026-04-25T12:37:25.048Z</time></trkpt><trkpt lat="42.4510052" lon="-7.3517435"><ele>345.1666666666667</ele><time>2026-04-25T12:37:26.051Z</time></trkpt><trkpt lat="42.4510821" lon="-7.3517358"><ele>345.0</ele><time>2026-04-25T12:37:27.046Z</time></trkpt><trkpt lat="42.4511771" lon="-7.3517147"><ele>345.0</ele><time>2026-04-25T12:37:28.047Z</time></trkpt><trkpt lat="42.4512898" lon="-7.3516806"><ele>345.0</ele><time>2026-04-25T12:37:29.051Z</time></trkpt><trkpt lat="42.4514002" lon="-7.3516654"><ele>345.0</ele><time>2026-04-25T12:37:30.057Z</time></trkpt><trkpt lat="42.4515131" lon="-7.3516387"><ele>345.0</ele><time>2026-04-25T12:37:31.049Z</time></trkpt><trkpt lat="42.4516209" lon="-7.3516093"><ele>341.8</ele><time>2026-04-25T12:37:32.047Z</time></trkpt><trkpt lat="42.4517171" lon="-7.3515588"><ele>338.6</ele><time>2026-04-25T12:37:33.049Z</time></trkpt><trkpt lat="42.4517986" lon="-7.3515085"><ele>335.4</ele><time>2026-04-25T12:37:34.051Z</time></trkpt><trkpt lat="42.4518836" lon="-7.3514106"><ele>332.2</ele><time>2026-04-25T12:37:36.058Z</time></trkpt><trkpt lat="42.4519342" lon="-7.3513293"><ele>329.0</ele><time>2026-04-25T12:37:37.053Z</time></trkpt><trkpt lat="42.4519844" lon="-7.3512278"><ele>329.0</ele><time>2026-04-25T12:37:38.061Z</time></trkpt><trkpt lat="42.4520293" lon="-7.3511086"><ele>329.0</ele><time>2026-04-25T12:37:39.049Z</time></trkpt><trkpt lat="42.4520892" lon="-7.3510145"><ele>329.0</ele><time>2026-04-25T12:37:40.055Z</time></trkpt><trkpt lat="42.452164" lon="-7.3509379"><ele>329.0</ele><time>2026-04-25T12:37:41.052Z</time></trkpt><trkpt lat="42.4522625" lon="-7.3508868"><ele>329.0</ele><time>2026-04-25T12:37:42.061Z</time></trkpt><trkpt lat="42.4523646" lon="-7.3508446"><ele>324.4</ele><time>2026-04-25T12:37:43.047Z</time></trkpt><trkpt lat="42.4524688" lon="-7.3507994"><ele>319.79999999999995</ele><time>2026-04-25T12:37:44.066Z</time></trkpt><trkpt lat="42.4525715" lon="-7.3507668"><ele>315.20000000000005</ele><time>2026-04-25T12:37:45.05Z</time></trkpt><trkpt lat="42.4526712" lon="-7.3507441"><ele>310.6</ele><time>2026-04-25T12:37:46.044Z</time></trkpt><trkpt lat="42.4527671" lon="-7.3507215"><ele>306.0</ele><time>2026-04-25T12:37:47.051Z</time></trkpt><trkpt lat="42.4528492" lon="-7.3507047"><ele>306.0</ele><time>2026-04-25T12:37:48.049Z</time></trkpt><trkpt lat="42.4529398" lon="-7.3506719"><ele>306.0</ele><time>2026-04-25T12:37:49.057Z</time></trkpt><trkpt lat="42.4530236" lon="-7.3506511"><ele>306.0</ele><time>2026-04-25T12:37:50.052Z</time></trkpt><trkpt lat="42.4530965" lon="-7.3506411"><ele>306.0</ele><time>2026-04-25T12:37:51.048Z</time></trkpt><trkpt lat="42.453175" lon="-7.3506735"><ele>306.0</ele><time>2026-04-25T12:37:53.05Z</time></trkpt><trkpt lat="42.4531934" lon="-7.350769"><ele>306.0</ele><time>2026-04-25T12:37:55.058Z</time></trkpt><trkpt lat="42.4531775" lon="-7.3508855"><ele>303.0</ele><time>2026-04-25T12:37:57.059Z</time></trkpt><trkpt lat="42.4531372" lon="-7.3510318"><ele>300.0</ele><time>2026-04-25T12:37:59.049Z</time></trkpt><trkpt lat="42.4531097" lon="-7.3511111"><ele>297.0</ele><time>2026-04-25T12:38:00.046Z</time></trkpt><trkpt lat="42.4530867" lon="-7.351209"><ele>294.0</ele><time>2026-04-25T12:38:01.054Z</time></trkpt><trkpt lat="42.4530818" lon="-7.3513156"><ele>291.0</ele><time>2026-04-25T12:38:02.05Z</time></trkpt><trkpt lat="42.4531081" lon="-7.3514325"><ele>288.0</ele><time>2026-04-25T12:38:03.06Z</time></trkpt><trkpt lat="42.4531459" lon="-7.351554"><ele>286.0</ele><time>2026-04-25T12:38:04.052Z</time></trkpt><trkpt lat="42.4531801" lon="-7.3516635"><ele>284.0</ele><time>2026-04-25T12:38:05.055Z</time></trkpt><trkpt lat="42.4532004" lon="-7.3517646"><ele>282.0</ele><time>2026-04-25T12:38:06.053Z</time></trkpt><trkpt lat="42.4532063" lon="-7.3518661"><ele>280.0</ele><time>2026-04-25T12:38:07.05Z</time></trkpt><trkpt lat="42.4532103" lon="-7.3519679"><ele>278.0</ele><time>2026-04-25T12:38:08.058Z</time></trkpt><trkpt lat="42.4531955" lon="-7.3520605"><ele>276.0</ele><time>2026-04-25T12:38:09.054Z</time></trkpt><trkpt lat="42.4531588" lon="-7.3521437"><ele>277.0</ele><time>2026-04-25T12:38:10.049Z</time></trkpt><trkpt lat="42.4531225" lon="-7.3522328"><ele>278.0</ele><time>2026-04-25T12:38:11.052Z</time></trkpt><trkpt lat="42.453086" lon="-7.3523173"><ele>279.0</ele><time>2026-04-25T12:38:12.055Z</time></trkpt><trkpt lat="42.4530453" lon="-7.3524003"><ele>280.0</ele><time>2026-04-25T12:38:13.057Z</time></trkpt><trkpt lat="42.4529947" lon="-7.3524832"><ele>281.0</ele><time>2026-04-25T12:38:14.061Z</time></trkpt><trkpt lat="42.452934" lon="-7.3525568"><ele>282.0</ele><time>2026-04-25T12:38:15.051Z</time></trkpt><trkpt lat="42.4528691" lon="-7.3526247"><ele>282.0</ele><time>2026-04-25T12:38:16.051Z</time></trkpt><trkpt lat="42.4528002" lon="-7.3526979"><ele>282.0</ele><time>2026-04-25T12:38:17.057Z</time></trkpt><trkpt lat="42.4527243" lon="-7.3527835"><ele>282.0</ele><time>2026-04-25T12:38:18.06Z</time></trkpt><trkpt lat="42.4526507" lon="-7.3528629"><ele>282.0</ele><time>2026-04-25T12:38:19.058Z</time></trkpt><trkpt lat="42.4525629" lon="-7.3529604"><ele>282.0</ele><time>2026-04-25T12:38:20.057Z</time></trkpt><trkpt lat="42.4524947" lon="-7.3530269"><ele>281.4</ele><time>2026-04-25T12:38:21.049Z</time></trkpt><trkpt lat="42.4524375" lon="-7.3530697"><ele>280.79999999999995</ele><time>2026-04-25T12:38:22.051Z</time></trkpt><trkpt lat="42.4523721" lon="-7.353129"><ele>280.2</ele><time>2026-04-25T12:38:23.057Z</time></trkpt><trkpt lat="42.4523008" lon="-7.3532117"><ele>279.59999999999997</ele><time>2026-04-25T12:38:24.056Z</time></trkpt><trkpt lat="42.4522568" lon="-7.3533418"><ele>279.0</ele><time>2026-04-25T12:38:25.046Z</time></trkpt><trkpt lat="42.4522385" lon="-7.3534835"><ele>279.0</ele><time>2026-04-25T12:38:26.053Z</time></trkpt><trkpt lat="42.4522655" lon="-7.3536156"><ele>279.0</ele><time>2026-04-25T12:38:27.061Z</time></trkpt><trkpt lat="42.4522872" lon="-7.353733"><ele>279.0</ele><time>2026-04-25T12:38:28.053Z</time></trkpt><trkpt lat="42.4523421" lon="-7.3538327"><ele>279.0</ele><time>2026-04-25T12:38:30.059Z</time></trkpt><trkpt lat="42.452394" lon="-7.3539786"><ele>279.0</ele><time>2026-04-25T12:38:33.055Z</time></trkpt><trkpt lat="42.4524253" lon="-7.3540766"><ele>278.8333333333333</ele><time>2026-04-25T12:38:34.06Z</time></trkpt><trkpt lat="42.452446" lon="-7.3541846"><ele>278.6666666666667</ele><time>2026-04-25T12:38:35.048Z</time></trkpt><trkpt lat="42.4524519" lon="-7.3542944"><ele>278.5</ele><time>2026-04-25T12:38:36.048Z</time></trkpt><trkpt lat="42.4524506" lon="-7.3544061"><ele>278.33333333333337</ele><time>2026-04-25T12:38:37.051Z</time></trkpt><trkpt lat="42.4524503" lon="-7.3545194"><ele>278.1666666666667</ele><time>2026-04-25T12:38:38.055Z</time></trkpt><trkpt lat="42.4524492" lon="-7.3546464"><ele>278.0</ele><time>2026-04-25T12:38:39.046Z</time></trkpt><trkpt lat="42.4524531" lon="-7.3547797"><ele>277.6666666666667</ele><time>2026-04-25T12:38:40.06Z</time></trkpt><trkpt lat="42.4524622" lon="-7.3549149"><ele>277.33333333333337</ele><time>2026-04-25T12:38:41.05Z</time></trkpt><trkpt lat="42.452507" lon="-7.3550285"><ele>277.0</ele><time>2026-04-25T12:38:42.054Z</time></trkpt><trkpt lat="42.452552" lon="-7.3551218"><ele>276.6666666666667</ele><time>2026-04-25T12:38:43.062Z</time></trkpt><trkpt lat="42.4525999" lon="-7.3552006"><ele>276.3333333333333</ele><time>2026-04-25T12:38:44.051Z</time></trkpt><trkpt lat="42.4526395" lon="-7.3552741"><ele>276.0</ele><time>2026-04-25T12:38:45.042Z</time></trkpt><trkpt lat="42.4526888" lon="-7.3554118"><ele>277.2</ele><time>2026-04-25T12:38:47.051Z</time></trkpt><trkpt lat="42.4527529" lon="-7.3555491"><ele>278.40000000000003</ele><time>2026-04-25T12:38:49.048Z</time></trkpt><trkpt lat="42.4528504" lon="-7.3556549"><ele>279.6</ele><time>2026-04-25T12:38:51.049Z</time></trkpt><trkpt lat="42.4529097" lon="-7.3557052"><ele>280.8</ele><time>2026-04-25T12:38:52.049Z</time></trkpt><trkpt lat="42.4529813" lon="-7.3557632"><ele>282.0</ele><time>2026-04-25T12:38:53.06Z</time></trkpt><trkpt lat="42.4530494" lon="-7.3558267"><ele>280.2857142857143</ele><time>2026-04-25T12:38:54.049Z</time></trkpt><trkpt lat="42.4531112" lon="-7.3558883"><ele>278.57142857142856</ele><time>2026-04-25T12:38:55.05Z</time></trkpt><trkpt lat="42.4531672" lon="-7.3559408"><ele>276.85714285714283</ele><time>2026-04-25T12:38:56.054Z</time></trkpt><trkpt lat="42.4532244" lon="-7.3559892"><ele>275.1428571428571</ele><time>2026-04-25T12:38:57.057Z</time></trkpt><trkpt lat="42.4532832" lon="-7.356039"><ele>273.4285714285714</ele><time>2026-04-25T12:38:58.05Z</time></trkpt><trkpt lat="42.45334" lon="-7.3560974"><ele>271.7142857142857</ele><time>2026-04-25T12:38:59.05Z</time></trkpt><trkpt lat="42.4533898" lon="-7.3561628"><ele>270.0</ele><time>2026-04-25T12:39:00.06Z</time></trkpt><trkpt lat="42.4534612" lon="-7.3562831"><ele>270.6</ele><time>2026-04-25T12:39:02.051Z</time></trkpt><trkpt lat="42.4535044" lon="-7.356431"><ele>271.2</ele><time>2026-04-25T12:39:04.058Z</time></trkpt><trkpt lat="42.4535006" lon="-7.3565892"><ele>271.8</ele><time>2026-04-25T12:39:06.057Z</time></trkpt><trkpt lat="42.4534739" lon="-7.3567069"><ele>272.4</ele><time>2026-04-25T12:39:08.049Z</time></trkpt><trkpt lat="42.4535206" lon="-7.3568175"><ele>273.0</ele><time>2026-04-25T12:39:11.055Z</time></trkpt><trkpt lat="42.4536194" lon="-7.3568211"><ele>273.0</ele><time>2026-04-25T12:39:13.06Z</time></trkpt><trkpt lat="42.4537306" lon="-7.3568119"><ele>273.0</ele><time>2026-04-25T12:39:15.055Z</time></trkpt><trkpt lat="42.4538301" lon="-7.356774"><ele>273.0</ele><time>2026-04-25T12:39:17.057Z</time></trkpt><trkpt lat="42.4539213" lon="-7.3567395"><ele>273.0</ele><time>2026-04-25T12:39:19.05Z</time></trkpt><trkpt lat="42.4540095" lon="-7.356735"><ele>273.0</ele><time>2026-04-25T12:39:21.056Z</time></trkpt><trkpt lat="42.4540961" lon="-7.3567197"><ele>270.8333333333333</ele><time>2026-04-25T12:39:23.045Z</time></trkpt><trkpt lat="42.4541643" lon="-7.3566625"><ele>268.6666666666667</ele><time>2026-04-25T12:39:25.063Z</time></trkpt><trkpt lat="42.4542227" lon="-7.356609"><ele>266.5</ele><time>2026-04-25T12:39:27.053Z</time></trkpt><trkpt lat="42.4542745" lon="-7.356545"><ele>264.33333333333337</ele><time>2026-04-25T12:39:29.05Z</time></trkpt><trkpt lat="42.4543291" lon="-7.3564708"><ele>262.1666666666667</ele><time>2026-04-25T12:39:31.053Z</time></trkpt><trkpt lat="42.4543356" lon="-7.3563798"><ele>260.0</ele><time>2026-04-25T12:39:33.064Z</time></trkpt><trkpt lat="42.4542589" lon="-7.3562774"><ele>259.4</ele><time>2026-04-25T12:39:35.05Z</time></trkpt><trkpt lat="42.4542025" lon="-7.3561847"><ele>258.8</ele><time>2026-04-25T12:39:37.051Z</time></trkpt><trkpt lat="42.4541909" lon="-7.3560695"><ele>258.2</ele><time>2026-04-25T12:39:39.053Z</time></trkpt><trkpt lat="42.4541993" lon="-7.3559446"><ele>257.6</ele><time>2026-04-25T12:39:41.053Z</time></trkpt><trkpt lat="42.4542113" lon="-7.3558182"><ele>257.0</ele><time>2026-04-25T12:39:43.048Z</time></trkpt><trkpt lat="42.4542124" lon="-7.3556713"><ele>256.5</ele><time>2026-04-25T12:39:45.052Z</time></trkpt><trkpt lat="42.4542094" lon="-7.3555193"><ele>256.0</ele><time>2026-04-25T12:39:47.053Z</time></trkpt><trkpt lat="42.4542136" lon="-7.3553656"><ele>255.5</ele><time>2026-04-25T12:39:49.047Z</time></trkpt><trkpt lat="42.4542292" lon="-7.355209"><ele>255.0</ele><time>2026-04-25T12:39:51.049Z</time></trkpt><trkpt lat="42.4542502" lon="-7.3550596"><ele>255.0</ele><time>2026-04-25T12:39:53.046Z</time></trkpt><trkpt lat="42.4542558" lon="-7.3549743"><ele>255.0</ele><time>2026-04-25T12:39:54.051Z</time></trkpt><trkpt lat="42.4542714" lon="-7.3548093"><ele>255.0</ele><time>2026-04-25T12:39:56.058Z</time></trkpt><trkpt lat="42.4542811" lon="-7.3547236"><ele>255.0</ele><time>2026-04-25T12:39:57.054Z</time></trkpt><trkpt lat="42.4542897" lon="-7.3546338"><ele>255.0</ele><time>2026-04-25T12:39:58.057Z</time></trkpt><trkpt lat="42.4543024" lon="-7.3545486"><ele>255.0</ele><time>2026-04-25T12:39:59.055Z</time></trkpt><trkpt lat="42.4543166" lon="-7.3543942"><ele>254.16666666666666</ele><time>2026-04-25T12:40:01.058Z</time></trkpt><trkpt lat="42.4543302" lon="-7.3542237"><ele>253.33333333333331</ele><time>2026-04-25T12:40:03.053Z</time></trkpt><trkpt lat="42.4543437" lon="-7.3541241"><ele>252.5</ele><time>2026-04-25T12:40:04.046Z</time></trkpt><trkpt lat="42.454357" lon="-7.3540273"><ele>251.66666666666666</ele><time>2026-04-25T12:40:05.058Z</time></trkpt><trkpt lat="42.4543782" lon="-7.3539359"><ele>250.83333333333331</ele><time>2026-04-25T12:40:06.049Z</time></trkpt><trkpt lat="42.4544037" lon="-7.3538442"><ele>250.0</ele><time>2026-04-25T12:40:07.053Z</time></trkpt><trkpt lat="42.454427" lon="-7.3537501"><ele>249.49999999999997</ele><time>2026-04-25T12:40:08.05Z</time></trkpt><trkpt lat="42.4544537" lon="-7.3536502"><ele>249.0</ele><time>2026-04-25T12:40:09.059Z</time></trkpt><trkpt lat="42.4544803" lon="-7.3535456"><ele>248.5</ele><time>2026-04-25T12:40:10.046Z</time></trkpt><trkpt lat="42.4544989" lon="-7.3534358"><ele>248.0</ele><time>2026-04-25T12:40:11.052Z</time></trkpt><trkpt lat="42.4545083" lon="-7.3533232"><ele>247.49999999999997</ele><time>2026-04-25T12:40:12.053Z</time></trkpt><trkpt lat="42.454509" lon="-7.3532062"><ele>247.0</ele><time>2026-04-25T12:40:13.057Z</time></trkpt><trkpt lat="42.4545032" lon="-7.3530878"><ele>247.0</ele><time>2026-04-25T12:40:14.054Z</time></trkpt><trkpt lat="42.4544884" lon="-7.3529657"><ele>247.0</ele><time>2026-04-25T12:40:15.054Z</time></trkpt><trkpt lat="42.4544702" lon="-7.3528398"><ele>247.0</ele><time>2026-04-25T12:40:16.049Z</time></trkpt><trkpt lat="42.454453" lon="-7.3527125"><ele>247.0</ele><time>2026-04-25T12:40:17.046Z</time></trkpt><trkpt lat="42.4544362" lon="-7.3525907"><ele>247.0</ele><time>2026-04-25T12:40:18.05Z</time></trkpt><trkpt lat="42.4544185" lon="-7.352468"><ele>247.0</ele><time>2026-04-25T12:40:19.053Z</time></trkpt><trkpt lat="42.454403" lon="-7.3523546"><ele>247.0</ele><time>2026-04-25T12:40:20.045Z</time></trkpt><trkpt lat="42.4543888" lon="-7.3522257"><ele>247.0</ele><time>2026-04-25T12:40:21.046Z</time></trkpt><trkpt lat="42.4543782" lon="-7.3520936"><ele>247.0</ele><time>2026-04-25T12:40:22.055Z</time></trkpt><trkpt lat="42.4543696" lon="-7.3519653"><ele>247.0</ele><time>2026-04-25T12:40:23.056Z</time></trkpt><trkpt lat="42.4543642" lon="-7.3518234"><ele>248.6</ele><time>2026-04-25T12:40:24.047Z</time></trkpt><trkpt lat="42.4543619" lon="-7.3516779"><ele>250.2</ele><time>2026-04-25T12:40:25.054Z</time></trkpt><trkpt lat="42.4543564" lon="-7.3515333"><ele>251.8</ele><time>2026-04-25T12:40:26.046Z</time></trkpt><trkpt lat="42.4543541" lon="-7.351385"><ele>253.4</ele><time>2026-04-25T12:40:27.049Z</time></trkpt><trkpt lat="42.4543529" lon="-7.3512379"><ele>255.0</ele><time>2026-04-25T12:40:28.047Z</time></trkpt><trkpt lat="42.4543548" lon="-7.3510837"><ele>256.25</ele><time>2026-04-25T12:40:29.049Z</time></trkpt><trkpt lat="42.4543574" lon="-7.3509301"><ele>257.5</ele><time>2026-04-25T12:40:30.052Z</time></trkpt><trkpt lat="42.4543598" lon="-7.3507737"><ele>258.75</ele><time>2026-04-25T12:40:31.059Z</time></trkpt><trkpt lat="42.4543675" lon="-7.350617"><ele>260.0</ele><time>2026-04-25T12:40:32.054Z</time></trkpt><trkpt lat="42.454369" lon="-7.3504707"><ele>260.2</ele><time>2026-04-25T12:40:33.046Z</time></trkpt><trkpt lat="42.4543727" lon="-7.3503325"><ele>260.4</ele><time>2026-04-25T12:40:34.061Z</time></trkpt><trkpt lat="42.4543796" lon="-7.3501954"><ele>260.6</ele><time>2026-04-25T12:40:35.053Z</time></trkpt><trkpt lat="42.4543917" lon="-7.3500502"><ele>260.8</ele><time>2026-04-25T12:40:36.046Z</time></trkpt><trkpt lat="42.4544121" lon="-7.3499062"><ele>261.0</ele><time>2026-04-25T12:40:37.062Z</time></trkpt><trkpt lat="42.4544332" lon="-7.3497696"><ele>262.2</ele><time>2026-04-25T12:40:38.081Z</time></trkpt><trkpt lat="42.4544542" lon="-7.3496374"><ele>263.40000000000003</ele><time>2026-04-25T12:40:39.055Z</time></trkpt><trkpt lat="42.4544789" lon="-7.3495171"><ele>264.6</ele><time>2026-04-25T12:40:40.05Z</time></trkpt><trkpt lat="42.4545048" lon="-7.3494199"><ele>265.8</ele><time>2026-04-25T12:40:41.056Z</time></trkpt><trkpt lat="42.4545542" lon="-7.3492738"><ele>267.0</ele><time>2026-04-25T12:40:43.054Z</time></trkpt><trkpt lat="42.4546233" lon="-7.349134"><ele>261.5</ele><time>2026-04-25T12:40:45.049Z</time></trkpt><trkpt lat="42.4546745" lon="-7.3490515"><ele>256.0</ele><time>2026-04-25T12:40:46.052Z</time></trkpt><trkpt lat="42.4547223" lon="-7.348974"><ele>250.5</ele><time>2026-04-25T12:40:47.054Z</time></trkpt><trkpt lat="42.4547641" lon="-7.3488837"><ele>245.0</ele><time>2026-04-25T12:40:48.06Z</time></trkpt><trkpt lat="42.4547956" lon="-7.3487766"><ele>239.5</ele><time>2026-04-25T12:40:49.061Z</time></trkpt><trkpt lat="42.4548185" lon="-7.3486543"><ele>234.0</ele><time>2026-04-25T12:40:50.052Z</time></trkpt><trkpt lat="42.4548352" lon="-7.348524"><ele>234.0</ele><time>2026-04-25T12:40:51.05Z</time></trkpt><trkpt lat="42.4548405" lon="-7.3483859"><ele>233.99999999999997</ele><time>2026-04-25T12:40:52.048Z</time></trkpt><trkpt lat="42.4548274" lon="-7.3482568"><ele>233.99999999999997</ele><time>2026-04-25T12:40:53.045Z</time></trkpt><trkpt lat="42.4548025" lon="-7.3481513"><ele>234.0</ele><time>2026-04-25T12:40:54.053Z</time></trkpt><trkpt lat="42.4547837" lon="-7.3480083"><ele>234.0</ele><time>2026-04-25T12:40:56.044Z</time></trkpt><trkpt lat="42.4548226" lon="-7.3481312"><ele>234.0</ele><time>2026-04-25T12:41:13.056Z</time></trkpt><trkpt lat="42.4548324" lon="-7.3482338"><ele>234.0</ele><time>2026-04-25T12:41:14.054Z</time></trkpt><trkpt lat="42.4548452" lon="-7.348368"><ele>234.0</ele><time>2026-04-25T12:41:15.057Z</time></trkpt><trkpt lat="42.4548458" lon="-7.348495"><ele>234.0</ele><time>2026-04-25T12:41:16.054Z</time></trkpt><trkpt lat="42.4548343" lon="-7.348613"><ele>234.0</ele><time>2026-04-25T12:41:17.051Z</time></trkpt><trkpt lat="42.4548144" lon="-7.3487262"><ele>234.0</ele><time>2026-04-25T12:41:18.06Z</time></trkpt><trkpt lat="42.4547943" lon="-7.3488383"><ele>233.33333333333334</ele><time>2026-04-25T12:41:19.05Z</time></trkpt><trkpt lat="42.4547529" lon="-7.3489443"><ele>232.66666666666669</ele><time>2026-04-25T12:41:20.051Z</time></trkpt><trkpt lat="42.4547039" lon="-7.3490406"><ele>232.0</ele><time>2026-04-25T12:41:21.045Z</time></trkpt><trkpt lat="42.4546554" lon="-7.3491177"><ele>231.33333333333334</ele><time>2026-04-25T12:41:22.054Z</time></trkpt><trkpt lat="42.4546195" lon="-7.3491917"><ele>230.66666666666669</ele><time>2026-04-25T12:41:23.048Z</time></trkpt><trkpt lat="42.4546181" lon="-7.349314"><ele>230.0</ele><time>2026-04-25T12:41:25.045Z</time></trkpt><trkpt lat="42.4547141" lon="-7.3493025"><ele>230.0</ele><time>2026-04-25T12:41:27.047Z</time></trkpt><trkpt lat="42.4547921" lon="-7.3492233"><ele>230.0</ele><time>2026-04-25T12:41:28.048Z</time></trkpt><trkpt lat="42.454879" lon="-7.3491132"><ele>230.0</ele><time>2026-04-25T12:41:29.055Z</time></trkpt><trkpt lat="42.4549569" lon="-7.3489873"><ele>230.0</ele><time>2026-04-25T12:41:30.051Z</time></trkpt><trkpt lat="42.4550324" lon="-7.3488628"><ele>230.8</ele><time>2026-04-25T12:41:31.055Z</time></trkpt><trkpt lat="42.4550892" lon="-7.3487247"><ele>231.6</ele><time>2026-04-25T12:41:32.064Z</time></trkpt><trkpt lat="42.4551317" lon="-7.3485864"><ele>232.39999999999998</ele><time>2026-04-25T12:41:33.047Z</time></trkpt><trkpt lat="42.4551397" lon="-7.3484437"><ele>233.2</ele><time>2026-04-25T12:41:34.058Z</time></trkpt><trkpt lat="42.455139" lon="-7.3483008"><ele>234.0</ele><time>2026-04-25T12:41:35.062Z</time></trkpt><trkpt lat="42.4551272" lon="-7.348175"><ele>234.0</ele><time>2026-04-25T12:41:36.046Z</time></trkpt><trkpt lat="42.4551165" lon="-7.3480696"><ele>233.99999999999997</ele><time>2026-04-25T12:41:37.054Z</time></trkpt><trkpt lat="42.4551046" lon="-7.3479835"><ele>233.99999999999997</ele><time>2026-04-25T12:41:38.058Z</time></trkpt><trkpt lat="42.4550437" lon="-7.3478645"><ele>234.0</ele><time>2026-04-25T12:41:40.054Z</time></trkpt><trkpt lat="42.454978" lon="-7.3479214"><ele>234.0</ele><time>2026-04-25T12:41:42.048Z</time></trkpt><trkpt lat="42.4549578" lon="-7.348122"><ele>234.0</ele><time>2026-04-25T12:42:05.056Z</time></trkpt><trkpt lat="42.4549737" lon="-7.3482539"><ele>234.0</ele><time>2026-04-25T12:42:06.048Z</time></trkpt><trkpt lat="42.4549992" lon="-7.3484138"><ele>234.0</ele><time>2026-04-25T12:42:07.049Z</time></trkpt><trkpt lat="42.4550338" lon="-7.3485889"><ele>234.0</ele><time>2026-04-25T12:42:08.041Z</time></trkpt><trkpt lat="42.4550787" lon="-7.3487684"><ele>232.66666666666669</ele><time>2026-04-25T12:42:09.051Z</time></trkpt><trkpt lat="42.4551408" lon="-7.3489496"><ele>231.33333333333334</ele><time>2026-04-25T12:42:10.045Z</time></trkpt><trkpt lat="42.4552206" lon="-7.349144"><ele>230.0</ele><time>2026-04-25T12:42:11.044Z</time></trkpt><trkpt lat="42.4553131" lon="-7.349337"><ele>230.0</ele><time>2026-04-25T12:42:12.051Z</time></trkpt><trkpt lat="42.4554144" lon="-7.3495291"><ele>230.0</ele><time>2026-04-25T12:42:13.049Z</time></trkpt><trkpt lat="42.4555169" lon="-7.3497223"><ele>230.0</ele><time>2026-04-25T12:42:14.045Z</time></trkpt><trkpt lat="42.4556513" lon="-7.3498929"><ele>229.0</ele><time>2026-04-25T12:42:15.047Z</time></trkpt><trkpt lat="42.4557962" lon="-7.3500487"><ele>228.0</ele><time>2026-04-25T12:42:16.063Z</time></trkpt><trkpt lat="42.4559515" lon="-7.3501855"><ele>227.0</ele><time>2026-04-25T12:42:17.052Z</time></trkpt><trkpt lat="42.4561137" lon="-7.3503059"><ele>227.0</ele><time>2026-04-25T12:42:18.048Z</time></trkpt><trkpt lat="42.4562777" lon="-7.3504088"><ele>227.0</ele><time>2026-04-25T12:42:19.048Z</time></trkpt><trkpt lat="42.4564421" lon="-7.3504992"><ele>227.0</ele><time>2026-04-25T12:42:20.048Z</time></trkpt><trkpt lat="42.4565926" lon="-7.350572"><ele>229.2</ele><time>2026-04-25T12:42:21.05Z</time></trkpt><trkpt lat="42.4567185" lon="-7.350617"><ele>231.39999999999998</ele><time>2026-04-25T12:42:22.045Z</time></trkpt><trkpt lat="42.4568156" lon="-7.3506403"><ele>233.60000000000002</ele><time>2026-04-25T12:42:23.049Z</time></trkpt><trkpt lat="42.4568821" lon="-7.3506426"><ele>235.8</ele><time>2026-04-25T12:42:24.065Z</time></trkpt><trkpt lat="42.456946" lon="-7.3505714"><ele>238.0</ele><time>2026-04-25T12:42:26.049Z</time></trkpt><trkpt lat="42.4569593" lon="-7.3504604"><ele>238.0</ele><time>2026-04-25T12:42:28.062Z</time></trkpt><trkpt lat="42.4569467" lon="-7.3503691"><ele>238.0</ele><time>2026-04-25T12:42:29.058Z</time></trkpt><trkpt lat="42.4569285" lon="-7.3502456"><ele>238.0</ele><time>2026-04-25T12:42:30.059Z</time></trkpt><trkpt lat="42.4569101" lon="-7.3500998"><ele>238.0</ele><time>2026-04-25T12:42:31.048Z</time></trkpt><trkpt lat="42.456895" lon="-7.3499426"><ele>238.0</ele><time>2026-04-25T12:42:32.053Z</time></trkpt><trkpt lat="42.456886" lon="-7.3497702"><ele>237.75</ele><time>2026-04-25T12:42:33.061Z</time></trkpt><trkpt lat="42.4568834" lon="-7.3495772"><ele>237.5</ele><time>2026-04-25T12:42:34.051Z</time></trkpt><trkpt lat="42.4568805" lon="-7.3494"><ele>237.25</ele><time>2026-04-25T12:42:35.058Z</time></trkpt><trkpt lat="42.4568915" lon="-7.349247"><ele>237.0</ele><time>2026-04-25T12:42:36.051Z</time></trkpt><trkpt lat="42.4569353" lon="-7.3491112"><ele>237.0</ele><time>2026-04-25T12:42:37.048Z</time></trkpt><trkpt lat="42.4570098" lon="-7.348965"><ele>237.0</ele><time>2026-04-25T12:42:38.055Z</time></trkpt><trkpt lat="42.4570769" lon="-7.3488004"><ele>237.0</ele><time>2026-04-25T12:42:39.049Z</time></trkpt><trkpt lat="42.4571441" lon="-7.3485902"><ele>237.0</ele><time>2026-04-25T12:42:40.047Z</time></trkpt><trkpt lat="42.4572374" lon="-7.3483915"><ele>241.5</ele><time>2026-04-25T12:42:41.045Z</time></trkpt><trkpt lat="42.4573252" lon="-7.3482176"><ele>246.0</ele><time>2026-04-25T12:42:42.052Z</time></trkpt><trkpt lat="42.4574096" lon="-7.3480631"><ele>250.5</ele><time>2026-04-25T12:42:43.06Z</time></trkpt><trkpt lat="42.4574842" lon="-7.3479197"><ele>255.0</ele><time>2026-04-25T12:42:44.049Z</time></trkpt><trkpt lat="42.4575312" lon="-7.3477831"><ele>255.0</ele><time>2026-04-25T12:42:45.056Z</time></trkpt><trkpt lat="42.4575406" lon="-7.3476485"><ele>255.0</ele><time>2026-04-25T12:42:46.045Z</time></trkpt><trkpt lat="42.4575373" lon="-7.3475519"><ele>255.0</ele><time>2026-04-25T12:42:47.052Z</time></trkpt><trkpt lat="42.4575643" lon="-7.347473"><ele>255.0</ele><time>2026-04-25T12:42:48.052Z</time></trkpt><trkpt lat="42.4576645" lon="-7.347475"><ele>255.0</ele><time>2026-04-25T12:42:50.053Z</time></trkpt><trkpt lat="42.4576996" lon="-7.3475565"><ele>255.0</ele><time>2026-04-25T12:42:51.059Z</time></trkpt><trkpt lat="42.4577058" lon="-7.3476841"><ele>255.0</ele><time>2026-04-25T12:42:52.052Z</time></trkpt><trkpt lat="42.4577052" lon="-7.347859"><ele>255.0</ele><time>2026-04-25T12:42:53.049Z</time></trkpt><trkpt lat="42.4577097" lon="-7.3480509"><ele>255.0</ele><time>2026-04-25T12:42:54.051Z</time></trkpt><trkpt lat="42.4577107" lon="-7.3482273"><ele>255.0</ele><time>2026-04-25T12:42:55.058Z</time></trkpt><trkpt lat="42.4577377" lon="-7.3483868"><ele>256.0</ele><time>2026-04-25T12:42:56.046Z</time></trkpt><trkpt lat="42.4577659" lon="-7.3485556"><ele>257.0</ele><time>2026-04-25T12:42:57.048Z</time></trkpt><trkpt lat="42.4577966" lon="-7.3487266"><ele>258.0</ele><time>2026-04-25T12:42:58.059Z</time></trkpt><trkpt lat="42.4578308" lon="-7.3489047"><ele>259.0</ele><time>2026-04-25T12:42:59.056Z</time></trkpt><trkpt lat="42.4578608" lon="-7.3490575"><ele>259.8333333333333</ele><time>2026-04-25T12:43:00.063Z</time></trkpt><trkpt lat="42.4578933" lon="-7.3491893"><ele>260.66666666666663</ele><time>2026-04-25T12:43:01.059Z</time></trkpt><trkpt lat="42.4579202" lon="-7.3493016"><ele>261.5</ele><time>2026-04-25T12:43:02.053Z</time></trkpt><trkpt lat="42.4579724" lon="-7.3493761"><ele>262.3333333333333</ele><time>2026-04-25T12:43:03.055Z</time></trkpt><trkpt lat="42.4580431" lon="-7.3494057"><ele>263.1666666666667</ele><time>2026-04-25T12:43:04.058Z</time></trkpt><trkpt lat="42.4581265" lon="-7.3493931"><ele>264.0</ele><time>2026-04-25T12:43:05.062Z</time></trkpt><trkpt lat="42.4582251" lon="-7.3493312"><ele>265.59999999999997</ele><time>2026-04-25T12:43:06.049Z</time></trkpt><trkpt lat="42.4583131" lon="-7.3492543"><ele>267.2</ele><time>2026-04-25T12:43:07.052Z</time></trkpt><trkpt lat="42.4584277" lon="-7.349181"><ele>268.79999999999995</ele><time>2026-04-25T12:43:08.051Z</time></trkpt><trkpt lat="42.4585118" lon="-7.3491538"><ele>270.4</ele><time>2026-04-25T12:43:09.05Z</time></trkpt><trkpt lat="42.4585851" lon="-7.349146"><ele>272.0</ele><time>2026-04-25T12:43:10.055Z</time></trkpt><trkpt lat="42.4586552" lon="-7.3491229"><ele>272.0</ele><time>2026-04-25T12:43:11.046Z</time></trkpt><trkpt lat="42.4587267" lon="-7.3490899"><ele>272.0</ele><time>2026-04-25T12:43:12.055Z</time></trkpt><trkpt lat="42.4587908" lon="-7.3490774"><ele>272.0</ele><time>2026-04-25T12:43:13.051Z</time></trkpt><trkpt lat="42.4588836" lon="-7.349023"><ele>272.0</ele><time>2026-04-25T12:43:15.048Z</time></trkpt><trkpt lat="42.4589975" lon="-7.3489866"><ele>272.0</ele><time>2026-04-25T12:43:17.052Z</time></trkpt><trkpt lat="42.4590619" lon="-7.3489776"><ele>272.0</ele><time>2026-04-25T12:43:18.041Z</time></trkpt><trkpt lat="42.4591292" lon="-7.3489704"><ele>271.0</ele><time>2026-04-25T12:43:19.047Z</time></trkpt><trkpt lat="42.459203" lon="-7.3489667"><ele>270.0</ele><time>2026-04-25T12:43:20.05Z</time></trkpt><trkpt lat="42.4592783" lon="-7.3489595"><ele>269.0</ele><time>2026-04-25T12:43:21.053Z</time></trkpt><trkpt lat="42.4593542" lon="-7.3489523"><ele>268.0</ele><time>2026-04-25T12:43:22.056Z</time></trkpt><trkpt lat="42.4594357" lon="-7.3489345"><ele>267.0</ele><time>2026-04-25T12:43:23.05Z</time></trkpt><trkpt lat="42.4595225" lon="-7.3489093"><ele>266.0</ele><time>2026-04-25T12:43:24.048Z</time></trkpt><trkpt lat="42.4596096" lon="-7.3488838"><ele>271.6666666666667</ele><time>2026-04-25T12:43:25.042Z</time></trkpt><trkpt lat="42.4596983" lon="-7.3488677"><ele>277.33333333333337</ele><time>2026-04-25T12:43:26.049Z</time></trkpt><trkpt lat="42.4597923" lon="-7.3488462"><ele>283.0</ele><time>2026-04-25T12:43:27.049Z</time></trkpt><trkpt lat="42.4598854" lon="-7.3488293"><ele>288.6666666666667</ele><time>2026-04-25T12:43:28.048Z</time></trkpt><trkpt lat="42.4599708" lon="-7.3488029"><ele>294.3333333333333</ele><time>2026-04-25T12:43:29.05Z</time></trkpt><trkpt lat="42.460045" lon="-7.3487698"><ele>300.0</ele><time>2026-04-25T12:43:30.053Z</time></trkpt><trkpt lat="42.4601219" lon="-7.3487407"><ele>300.0</ele><time>2026-04-25T12:43:31.051Z</time></trkpt><trkpt lat="42.460202" lon="-7.3487368"><ele>300.0</ele><time>2026-04-25T12:43:32.05Z</time></trkpt><trkpt lat="42.46029" lon="-7.3487439"><ele>300.0</ele><time>2026-04-25T12:43:33.049Z</time></trkpt><trkpt lat="42.4603809" lon="-7.3487662"><ele>300.0</ele><time>2026-04-25T12:43:34.041Z</time></trkpt><trkpt lat="42.4604488" lon="-7.3487748"><ele>300.0</ele><time>2026-04-25T12:43:35.05Z</time></trkpt><trkpt lat="42.4604913" lon="-7.3486742"><ele>300.0</ele><time>2026-04-25T12:43:38.063Z</time></trkpt><trkpt lat="42.4604317" lon="-7.348542"><ele>300.0</ele><time>2026-04-25T12:43:40.046Z</time></trkpt><trkpt lat="42.4603294" lon="-7.3484449"><ele>300.0</ele><time>2026-04-25T12:43:42.05Z</time></trkpt><trkpt lat="42.460296" lon="-7.3482864"><ele>300.0</ele><time>2026-04-25T12:43:44.056Z</time></trkpt><trkpt lat="42.4602901" lon="-7.3481129"><ele>300.0</ele><time>2026-04-25T12:43:46.054Z</time></trkpt><trkpt lat="42.4603044" lon="-7.3480166"><ele>300.0</ele><time>2026-04-25T12:43:47.05Z</time></trkpt><trkpt lat="42.4603251" lon="-7.347916"><ele>302.0</ele><time>2026-04-25T12:43:48.051Z</time></trkpt><trkpt lat="42.4603487" lon="-7.3478188"><ele>304.0</ele><time>2026-04-25T12:43:49.06Z</time></trkpt><trkpt lat="42.4603721" lon="-7.347719"><ele>306.0</ele><time>2026-04-25T12:43:50.044Z</time></trkpt><trkpt lat="42.4603957" lon="-7.3476196"><ele>308.0</ele><time>2026-04-25T12:43:51.044Z</time></trkpt><trkpt lat="42.4604161" lon="-7.3475201"><ele>310.0</ele><time>2026-04-25T12:43:52.061Z</time></trkpt><trkpt lat="42.4604338" lon="-7.3474155"><ele>312.0</ele><time>2026-04-25T12:43:53.064Z</time></trkpt><trkpt lat="42.4604442" lon="-7.3473017"><ele>312.6666666666667</ele><time>2026-04-25T12:43:54.046Z</time></trkpt><trkpt lat="42.4604463" lon="-7.3471931"><ele>313.3333333333333</ele><time>2026-04-25T12:43:55.053Z</time></trkpt><trkpt lat="42.4604414" lon="-7.347091"><ele>314.0</ele><time>2026-04-25T12:43:56.06Z</time></trkpt><trkpt lat="42.4604411" lon="-7.3469873"><ele>314.66666666666663</ele><time>2026-04-25T12:43:57.055Z</time></trkpt><trkpt lat="42.4604424" lon="-7.3468779"><ele>315.3333333333333</ele><time>2026-04-25T12:43:58.054Z</time></trkpt><trkpt lat="42.4604413" lon="-7.3467678"><ele>316.0</ele><time>2026-04-25T12:43:59.056Z</time></trkpt><trkpt lat="42.4604352" lon="-7.3466514"><ele>316.0</ele><time>2026-04-25T12:44:00.055Z</time></trkpt><trkpt lat="42.4604283" lon="-7.3465368"><ele>316.0</ele><time>2026-04-25T12:44:01.052Z</time></trkpt><trkpt lat="42.4604274" lon="-7.3464223"><ele>316.0</ele><time>2026-04-25T12:44:02.048Z</time></trkpt><trkpt lat="42.4604382" lon="-7.346301"><ele>316.0</ele><time>2026-04-25T12:44:03.049Z</time></trkpt><trkpt lat="42.4604526" lon="-7.3461861"><ele>316.0</ele><time>2026-04-25T12:44:04.064Z</time></trkpt><trkpt lat="42.4604803" lon="-7.3460507"><ele>316.0</ele><time>2026-04-25T12:44:05.054Z</time></trkpt><trkpt lat="42.4604993" lon="-7.3459226"><ele>317.4</ele><time>2026-04-25T12:44:06.05Z</time></trkpt><trkpt lat="42.4604843" lon="-7.3457952"><ele>318.8</ele><time>2026-04-25T12:44:07.051Z</time></trkpt><trkpt lat="42.46047" lon="-7.3456642"><ele>320.2</ele><time>2026-04-25T12:44:08.046Z</time></trkpt><trkpt lat="42.4604418" lon="-7.3455215"><ele>321.59999999999997</ele><time>2026-04-25T12:44:09.051Z</time></trkpt><trkpt lat="42.4604" lon="-7.3453578"><ele>323.0</ele><time>2026-04-25T12:44:10.054Z</time></trkpt><trkpt lat="42.4603658" lon="-7.3452108"><ele>326.0</ele><time>2026-04-25T12:44:11.049Z</time></trkpt><trkpt lat="42.4603355" lon="-7.3450964"><ele>329.0</ele><time>2026-04-25T12:44:12.048Z</time></trkpt><trkpt lat="42.4603118" lon="-7.3449979"><ele>332.0</ele><time>2026-04-25T12:44:13.06Z</time></trkpt><trkpt lat="42.4603223" lon="-7.3448554"><ele>335.0</ele><time>2026-04-25T12:44:15.045Z</time></trkpt><trkpt lat="42.4603851" lon="-7.3448426"><ele>338.0</ele><time>2026-04-25T12:44:16.042Z</time></trkpt><trkpt lat="42.4604483" lon="-7.3448493"><ele>341.0</ele><time>2026-04-25T12:44:17.046Z</time></trkpt><trkpt lat="42.4605294" lon="-7.3448718"><ele>341.83333333333337</ele><time>2026-04-25T12:44:18.048Z</time></trkpt><trkpt lat="42.4605926" lon="-7.3449039"><ele>342.6666666666667</ele><time>2026-04-25T12:44:19.046Z</time></trkpt><trkpt lat="42.4606785" lon="-7.3448923"><ele>343.5</ele><time>2026-04-25T12:44:21.043Z</time></trkpt><trkpt lat="42.4606758" lon="-7.3447986"><ele>344.3333333333333</ele><time>2026-04-25T12:44:23.058Z</time></trkpt><trkpt lat="42.4605935" lon="-7.3446817"><ele>345.16666666666663</ele><time>2026-04-25T12:44:25.055Z</time></trkpt><trkpt lat="42.4605492" lon="-7.3445868"><ele>346.0</ele><time>2026-04-25T12:44:26.052Z</time></trkpt><trkpt lat="42.460513" lon="-7.3444755"><ele>348.75</ele><time>2026-04-25T12:44:27.057Z</time></trkpt><trkpt lat="42.4604765" lon="-7.3443455"><ele>351.5</ele><time>2026-04-25T12:44:28.052Z</time></trkpt><trkpt lat="42.4604312" lon="-7.344188"><ele>354.25</ele><time>2026-04-25T12:44:29.054Z</time></trkpt><trkpt lat="42.4603749" lon="-7.3440072"><ele>357.0</ele><time>2026-04-25T12:44:30.051Z</time></trkpt><trkpt lat="42.4603092" lon="-7.3438192"><ele>360.75</ele><time>2026-04-25T12:44:31.05Z</time></trkpt><trkpt lat="42.460237" lon="-7.3436261"><ele>364.5</ele><time>2026-04-25T12:44:32.05Z</time></trkpt><trkpt lat="42.4601723" lon="-7.3434541"><ele>368.25</ele><time>2026-04-25T12:44:33.054Z</time></trkpt><trkpt lat="42.4601142" lon="-7.343283"><ele>372.0</ele><time>2026-04-25T12:44:34.053Z</time></trkpt><trkpt lat="42.4600707" lon="-7.3431364"><ele>376.0</ele><time>2026-04-25T12:44:35.051Z</time></trkpt><trkpt lat="42.4600294" lon="-7.343005"><ele>380.0</ele><time>2026-04-25T12:44:36.063Z</time></trkpt><trkpt lat="42.4599866" lon="-7.3428724"><ele>384.0</ele><time>2026-04-25T12:44:37.05Z</time></trkpt><trkpt lat="42.4599489" lon="-7.3427421"><ele>388.0</ele><time>2026-04-25T12:44:38.054Z</time></trkpt><trkpt lat="42.4599157" lon="-7.3426218"><ele>392.0</ele><time>2026-04-25T12:44:39.054Z</time></trkpt><trkpt lat="42.4598902" lon="-7.3425099"><ele>391.99999999999994</ele><time>2026-04-25T12:44:40.05Z</time></trkpt><trkpt lat="42.4598718" lon="-7.3423954"><ele>392.0</ele><time>2026-04-25T12:44:41.051Z</time></trkpt><trkpt lat="42.4598594" lon="-7.3422782"><ele>392.0</ele><time>2026-04-25T12:44:42.05Z</time></trkpt><trkpt lat="42.4598526" lon="-7.3421627"><ele>392.0</ele><time>2026-04-25T12:44:43.048Z</time></trkpt><trkpt lat="42.459846" lon="-7.3420483"><ele>391.99999999999994</ele><time>2026-04-25T12:44:44.052Z</time></trkpt><trkpt lat="42.4598384" lon="-7.3419308"><ele>392.0</ele><time>2026-04-25T12:44:45.046Z</time></trkpt><trkpt lat="42.4598355" lon="-7.3418078"><ele>396.0</ele><time>2026-04-25T12:44:46.051Z</time></trkpt><trkpt lat="42.4598358" lon="-7.3416734"><ele>400.0</ele><time>2026-04-25T12:44:47.05Z</time></trkpt><trkpt lat="42.4598348" lon="-7.3415222"><ele>404.0</ele><time>2026-04-25T12:44:48.051Z</time></trkpt><trkpt lat="42.4598312" lon="-7.3413551"><ele>408.0</ele><time>2026-04-25T12:44:49.049Z</time></trkpt><trkpt lat="42.4598269" lon="-7.3411763"><ele>410.25</ele><time>2026-04-25T12:44:50.057Z</time></trkpt><trkpt lat="42.4598181" lon="-7.341004"><ele>412.5</ele><time>2026-04-25T12:44:51.052Z</time></trkpt><trkpt lat="42.4598077" lon="-7.3408413"><ele>414.75</ele><time>2026-04-25T12:44:52.052Z</time></trkpt><trkpt lat="42.4597922" lon="-7.3406749"><ele>417.0</ele><time>2026-04-25T12:44:53.054Z</time></trkpt><trkpt lat="42.4597729" lon="-7.3405068"><ele>419.25</ele><time>2026-04-25T12:44:54.053Z</time></trkpt><trkpt lat="42.4597456" lon="-7.3403346"><ele>421.5</ele><time>2026-04-25T12:44:55.057Z</time></trkpt><trkpt lat="42.4596985" lon="-7.3401743"><ele>423.75</ele><time>2026-04-25T12:44:56.055Z</time></trkpt><trkpt lat="42.4596402" lon="-7.3400296"><ele>426.0</ele><time>2026-04-25T12:44:57.048Z</time></trkpt><trkpt lat="42.4595879" lon="-7.3399082"><ele>421.6</ele><time>2026-04-25T12:44:58.051Z</time></trkpt><trkpt lat="42.4595355" lon="-7.339792"><ele>417.20000000000005</ele><time>2026-04-25T12:44:59.051Z</time></trkpt><trkpt lat="42.4594933" lon="-7.3396981"><ele>412.79999999999995</ele><time>2026-04-25T12:45:00.053Z</time></trkpt><trkpt lat="42.4594328" lon="-7.3395516"><ele>408.4</ele><time>2026-04-25T12:45:02.055Z</time></trkpt><trkpt lat="42.459408" lon="-7.3394651"><ele>404.0</ele><time>2026-04-25T12:45:04.056Z</time></trkpt><trkpt lat="42.4594789" lon="-7.339408"><ele>404.0</ele><time>2026-04-25T12:46:34.064Z</time></trkpt><trkpt lat="42.459593" lon="-7.3394053"><ele>404.0</ele><time>2026-04-25T12:46:36.056Z</time></trkpt><trkpt lat="42.459669" lon="-7.3394242"><ele>404.0</ele><time>2026-04-25T12:46:37.061Z</time></trkpt><trkpt lat="42.459759" lon="-7.3394576"><ele>404.0</ele><time>2026-04-25T12:46:38.051Z</time></trkpt><trkpt lat="42.4598651" lon="-7.3394972"><ele>404.0</ele><time>2026-04-25T12:46:39.056Z</time></trkpt><trkpt lat="42.4600022" lon="-7.3395565"><ele>409.5</ele><time>2026-04-25T12:46:40.051Z</time></trkpt><trkpt lat="42.4601503" lon="-7.3396204"><ele>415.0</ele><time>2026-04-25T12:46:41.048Z</time></trkpt><trkpt lat="42.4602805" lon="-7.3396875"><ele>420.5</ele><time>2026-04-25T12:46:42.05Z</time></trkpt><trkpt lat="42.4603824" lon="-7.3397723"><ele>426.0</ele><time>2026-04-25T12:46:43.057Z</time></trkpt><trkpt lat="42.4604857" lon="-7.3398981"><ele>429.4</ele><time>2026-04-25T12:46:44.056Z</time></trkpt><trkpt lat="42.4605883" lon="-7.3400312"><ele>432.8</ele><time>2026-04-25T12:46:45.048Z</time></trkpt><trkpt lat="42.4606759" lon="-7.3401375"><ele>436.19999999999993</ele><time>2026-04-25T12:46:46.054Z</time></trkpt><trkpt lat="42.4607503" lon="-7.3402096"><ele>439.59999999999997</ele><time>2026-04-25T12:46:47.06Z</time></trkpt><trkpt lat="42.4608157" lon="-7.3402462"><ele>443.0</ele><time>2026-04-25T12:46:48.049Z</time></trkpt><trkpt lat="42.4609418" lon="-7.3402143"><ele>443.0</ele><time>2026-04-25T12:46:50.049Z</time></trkpt><trkpt lat="42.4610134" lon="-7.3401481"><ele>442.99999999999994</ele><time>2026-04-25T12:46:51.055Z</time></trkpt><trkpt lat="42.461089" lon="-7.3400487"><ele>442.99999999999994</ele><time>2026-04-25T12:46:52.055Z</time></trkpt><trkpt lat="42.4611699" lon="-7.339941"><ele>443.0</ele><time>2026-04-25T12:46:53.049Z</time></trkpt><trkpt lat="42.4612739" lon="-7.3398254"><ele>443.0</ele><time>2026-04-25T12:46:54.055Z</time></trkpt><trkpt lat="42.461391" lon="-7.3397217"><ele>448.75</ele><time>2026-04-25T12:46:55.053Z</time></trkpt><trkpt lat="42.4614997" lon="-7.3396358"><ele>454.5</ele><time>2026-04-25T12:46:56.06Z</time></trkpt><trkpt lat="42.4616167" lon="-7.3395609"><ele>460.25</ele><time>2026-04-25T12:46:57.071Z</time></trkpt><trkpt lat="42.4617479" lon="-7.3394855"><ele>466.0</ele><time>2026-04-25T12:46:58.055Z</time></trkpt><trkpt lat="42.4618821" lon="-7.3394181"><ele>466.0</ele><time>2026-04-25T12:46:59.057Z</time></trkpt><trkpt lat="42.4620182" lon="-7.3393583"><ele>466.0</ele><time>2026-04-25T12:47:00.055Z</time></trkpt><trkpt lat="42.4621465" lon="-7.3393019"><ele>466.0</ele><time>2026-04-25T12:47:01.059Z</time></trkpt><trkpt lat="42.4622521" lon="-7.339244"><ele>466.0</ele><time>2026-04-25T12:47:02.068Z</time></trkpt><trkpt lat="42.4623362" lon="-7.339175"><ele>463.0</ele><time>2026-04-25T12:47:03.049Z</time></trkpt><trkpt lat="42.4624125" lon="-7.3390875"><ele>460.0</ele><time>2026-04-25T12:47:04.058Z</time></trkpt><trkpt lat="42.4624862" lon="-7.3389798"><ele>457.0</ele><time>2026-04-25T12:47:05.054Z</time></trkpt><trkpt lat="42.46257" lon="-7.3388442"><ele>454.0</ele><time>2026-04-25T12:47:06.058Z</time></trkpt><trkpt lat="42.4626577" lon="-7.3387217"><ele>456.0</ele><time>2026-04-25T12:47:07.052Z</time></trkpt><trkpt lat="42.4627609" lon="-7.3386006"><ele>458.0</ele><time>2026-04-25T12:47:08.05Z</time></trkpt><trkpt lat="42.4628594" lon="-7.3385086"><ele>460.0</ele><time>2026-04-25T12:47:09.058Z</time></trkpt><trkpt lat="42.462961" lon="-7.3384275"><ele>462.0</ele><time>2026-04-25T12:47:10.052Z</time></trkpt><trkpt lat="42.4630804" lon="-7.3383626"><ele>462.0</ele><time>2026-04-25T12:47:11.045Z</time></trkpt><trkpt lat="42.4632279" lon="-7.3383069"><ele>462.0</ele><time>2026-04-25T12:47:12.047Z</time></trkpt><trkpt lat="42.4633766" lon="-7.3382696"><ele>462.0</ele><time>2026-04-25T12:47:13.053Z</time></trkpt><trkpt lat="42.4635212" lon="-7.3382578"><ele>462.0</ele><time>2026-04-25T12:47:14.048Z</time></trkpt><trkpt lat="42.4636781" lon="-7.338267"><ele>462.66666666666663</ele><time>2026-04-25T12:47:15.052Z</time></trkpt><trkpt lat="42.4638483" lon="-7.3382953"><ele>463.3333333333333</ele><time>2026-04-25T12:47:16.047Z</time></trkpt><trkpt lat="42.4640284" lon="-7.3383394"><ele>464.0</ele><time>2026-04-25T12:47:17.046Z</time></trkpt><trkpt lat="42.4641955" lon="-7.338391"><ele>464.0</ele><time>2026-04-25T12:47:18.05Z</time></trkpt><trkpt lat="42.4643472" lon="-7.3384468"><ele>464.0</ele><time>2026-04-25T12:47:19.053Z</time></trkpt><trkpt lat="42.4644909" lon="-7.3385161"><ele>464.0</ele><time>2026-04-25T12:47:20.052Z</time></trkpt><trkpt lat="42.4646222" lon="-7.3385871"><ele>466.75</ele><time>2026-04-25T12:47:21.062Z</time></trkpt><trkpt lat="42.4647382" lon="-7.3386541"><ele>469.5</ele><time>2026-04-25T12:47:22.046Z</time></trkpt><trkpt lat="42.4648732" lon="-7.3387139"><ele>472.25</ele><time>2026-04-25T12:47:23.051Z</time></trkpt><trkpt lat="42.4650423" lon="-7.3387709"><ele>475.0</ele><time>2026-04-25T12:47:24.058Z</time></trkpt><trkpt lat="42.4652274" lon="-7.3388116"><ele>475.0</ele><time>2026-04-25T12:47:25.049Z</time></trkpt><trkpt lat="42.4654173" lon="-7.3388498"><ele>475.0</ele><time>2026-04-25T12:47:26.053Z</time></trkpt><trkpt lat="42.4655948" lon="-7.3388814"><ele>475.0</ele><time>2026-04-25T12:47:27.06Z</time></trkpt><trkpt lat="42.4657791" lon="-7.3389157"><ele>472.6666666666667</ele><time>2026-04-25T12:47:28.05Z</time></trkpt><trkpt lat="42.4659682" lon="-7.3389572"><ele>470.33333333333337</ele><time>2026-04-25T12:47:29.057Z</time></trkpt><trkpt lat="42.4661665" lon="-7.3390098"><ele>468.0</ele><time>2026-04-25T12:47:30.055Z</time></trkpt><trkpt lat="42.4663628" lon="-7.3390756"><ele>468.0</ele><time>2026-04-25T12:47:31.055Z</time></trkpt><trkpt lat="42.4665571" lon="-7.3391564"><ele>468.0</ele><time>2026-04-25T12:47:32.046Z</time></trkpt><trkpt lat="42.466742" lon="-7.3392331"><ele>468.0</ele><time>2026-04-25T12:47:33.047Z</time></trkpt><trkpt lat="42.4669196" lon="-7.3393175"><ele>468.0</ele><time>2026-04-25T12:47:34.045Z</time></trkpt><trkpt lat="42.4671036" lon="-7.339403"><ele>468.0</ele><time>2026-04-25T12:47:35.05Z</time></trkpt><trkpt lat="42.4672892" lon="-7.3394818"><ele>468.0</ele><time>2026-04-25T12:47:36.046Z</time></trkpt><trkpt lat="42.4674569" lon="-7.3395719"><ele>470.0</ele><time>2026-04-25T12:47:37.053Z</time></trkpt><trkpt lat="42.4675928" lon="-7.3396397"><ele>472.0</ele><time>2026-04-25T12:47:38.052Z</time></trkpt><trkpt lat="42.4677041" lon="-7.3396915"><ele>474.0</ele><time>2026-04-25T12:47:39.046Z</time></trkpt><trkpt lat="42.4677857" lon="-7.3397406"><ele>476.0</ele><time>2026-04-25T12:47:40.048Z</time></trkpt><trkpt lat="42.4678953" lon="-7.3397961"><ele>473.66666666666663</ele><time>2026-04-25T12:47:42.045Z</time></trkpt><trkpt lat="42.4679908" lon="-7.3398144"><ele>471.3333333333333</ele><time>2026-04-25T12:47:44.063Z</time></trkpt><trkpt lat="42.4680609" lon="-7.339794"><ele>469.0</ele><time>2026-04-25T12:47:46.051Z</time></trkpt><trkpt lat="42.4680892" lon="-7.3396989"><ele>466.66666666666663</ele><time>2026-04-25T12:50:32.051Z</time></trkpt><trkpt lat="42.4681044" lon="-7.3396157"><ele>464.3333333333333</ele><time>2026-04-25T12:50:33.05Z</time></trkpt><trkpt lat="42.4681194" lon="-7.3395185"><ele>462.0</ele><time>2026-04-25T12:50:34.054Z</time></trkpt><trkpt lat="42.468138" lon="-7.3393929"><ele>462.0</ele><time>2026-04-25T12:50:35.066Z</time></trkpt><trkpt lat="42.4681579" lon="-7.3392563"><ele>462.00000000000006</ele><time>2026-04-25T12:50:36.055Z</time></trkpt><trkpt lat="42.4681761" lon="-7.3391298"><ele>462.00000000000006</ele><time>2026-04-25T12:50:37.057Z</time></trkpt><trkpt lat="42.4681874" lon="-7.339026"><ele>462.0</ele><time>2026-04-25T12:50:38.053Z</time></trkpt><trkpt lat="42.4681969" lon="-7.3389143"><ele>462.0</ele><time>2026-04-25T12:50:39.057Z</time></trkpt><trkpt lat="42.4682022" lon="-7.3387806"><ele>463.25</ele><time>2026-04-25T12:50:40.06Z</time></trkpt><trkpt lat="42.4682016" lon="-7.3386096"><ele>464.5</ele><time>2026-04-25T12:50:41.058Z</time></trkpt><trkpt lat="42.4681978" lon="-7.338418"><ele>465.75</ele><time>2026-04-25T12:50:42.057Z</time></trkpt><trkpt lat="42.4681955" lon="-7.3382233"><ele>467.0</ele><time>2026-04-25T12:50:43.059Z</time></trkpt><trkpt lat="42.4681959" lon="-7.3380133"><ele>467.0</ele><time>2026-04-25T12:50:44.054Z</time></trkpt><trkpt lat="42.4681961" lon="-7.3378029"><ele>467.0</ele><time>2026-04-25T12:50:45.064Z</time></trkpt><trkpt lat="42.4681944" lon="-7.3376147"><ele>467.0</ele><time>2026-04-25T12:50:46.054Z</time></trkpt><trkpt lat="42.4681872" lon="-7.3374431"><ele>467.0</ele><time>2026-04-25T12:50:47.051Z</time></trkpt><trkpt lat="42.46818" lon="-7.3372872"><ele>465.75</ele><time>2026-04-25T12:50:48.073Z</time></trkpt><trkpt lat="42.4681665" lon="-7.3371448"><ele>464.5</ele><time>2026-04-25T12:50:49.052Z</time></trkpt><trkpt lat="42.46815" lon="-7.3369936"><ele>463.25</ele><time>2026-04-25T12:50:50.045Z</time></trkpt><trkpt lat="42.4681243" lon="-7.3368209"><ele>462.0</ele><time>2026-04-25T12:50:51.065Z</time></trkpt><trkpt lat="42.4680992" lon="-7.3366517"><ele>462.0</ele><time>2026-04-25T12:50:52.056Z</time></trkpt><trkpt lat="42.4680666" lon="-7.3364661"><ele>462.0</ele><time>2026-04-25T12:50:53.055Z</time></trkpt><trkpt lat="42.4680354" lon="-7.3362915"><ele>462.0</ele><time>2026-04-25T12:50:54.061Z</time></trkpt><trkpt lat="42.4679945" lon="-7.3361452"><ele>462.0</ele><time>2026-04-25T12:50:55.065Z</time></trkpt><trkpt lat="42.4679613" lon="-7.335999"><ele>470.20000000000005</ele><time>2026-04-25T12:50:56.067Z</time></trkpt><trkpt lat="42.4679299" lon="-7.3358603"><ele>478.40000000000003</ele><time>2026-04-25T12:50:57.057Z</time></trkpt><trkpt lat="42.4679151" lon="-7.3357094"><ele>486.59999999999997</ele><time>2026-04-25T12:50:58.047Z</time></trkpt><trkpt lat="42.4679166" lon="-7.3355748"><ele>494.79999999999995</ele><time>2026-04-25T12:50:59.049Z</time></trkpt><trkpt lat="42.4679259" lon="-7.3354264"><ele>503.0</ele><time>2026-04-25T12:51:00.052Z</time></trkpt><trkpt lat="42.4679325" lon="-7.3352513"><ele>503.0</ele><time>2026-04-25T12:51:01.055Z</time></trkpt><trkpt lat="42.4679313" lon="-7.3350604"><ele>503.0</ele><time>2026-04-25T12:51:02.049Z</time></trkpt><trkpt lat="42.4679239" lon="-7.3348471"><ele>503.0</ele><time>2026-04-25T12:51:03.066Z</time></trkpt><trkpt lat="42.4679167" lon="-7.3346282"><ele>503.0</ele><time>2026-04-25T12:51:04.053Z</time></trkpt><trkpt lat="42.4679114" lon="-7.3344286"><ele>503.0</ele><time>2026-04-25T12:51:05.053Z</time></trkpt><trkpt lat="42.4679059" lon="-7.3342436"><ele>503.0</ele><time>2026-04-25T12:51:06.047Z</time></trkpt><trkpt lat="42.4678999" lon="-7.3340707"><ele>503.0</ele><time>2026-04-25T12:51:07.051Z</time></trkpt><trkpt lat="42.4678892" lon="-7.3339044"><ele>502.79999999999995</ele><time>2026-04-25T12:51:08.052Z</time></trkpt><trkpt lat="42.4678775" lon="-7.3337328"><ele>502.59999999999997</ele><time>2026-04-25T12:51:09.047Z</time></trkpt><trkpt lat="42.4678654" lon="-7.3335837"><ele>502.40000000000003</ele><time>2026-04-25T12:51:10.052Z</time></trkpt><trkpt lat="42.4678433" lon="-7.3334455"><ele>502.20000000000005</ele><time>2026-04-25T12:51:11.053Z</time></trkpt><trkpt lat="42.4678224" lon="-7.3333231"><ele>502.0</ele><time>2026-04-25T12:51:12.052Z</time></trkpt><trkpt lat="42.4678206" lon="-7.3332145"><ele>502.0</ele><time>2026-04-25T12:51:13.052Z</time></trkpt><trkpt lat="42.4678463" lon="-7.3331067"><ele>502.00000000000006</ele><time>2026-04-25T12:51:14.054Z</time></trkpt><trkpt lat="42.467902" lon="-7.3329968"><ele>502.00000000000006</ele><time>2026-04-25T12:51:15.058Z</time></trkpt><trkpt lat="42.4679922" lon="-7.3328769"><ele>502.0</ele><time>2026-04-25T12:51:16.057Z</time></trkpt><trkpt lat="42.4680979" lon="-7.332755"><ele>502.0</ele><time>2026-04-25T12:51:17.06Z</time></trkpt><trkpt lat="42.4681913" lon="-7.3326457"><ele>500.40000000000003</ele><time>2026-04-25T12:51:18.062Z</time></trkpt><trkpt lat="42.4682641" lon="-7.3325236"><ele>498.80000000000007</ele><time>2026-04-25T12:51:19.055Z</time></trkpt><trkpt lat="42.468336" lon="-7.3324137"><ele>497.2</ele><time>2026-04-25T12:51:20.063Z</time></trkpt><trkpt lat="42.4684149" lon="-7.3323299"><ele>495.6</ele><time>2026-04-25T12:51:21.06Z</time></trkpt><trkpt lat="42.468508" lon="-7.3322627"><ele>494.0</ele><time>2026-04-25T12:51:22.058Z</time></trkpt><trkpt lat="42.4686223" lon="-7.3322064"><ele>494.0</ele><time>2026-04-25T12:51:23.051Z</time></trkpt><trkpt lat="42.4687277" lon="-7.3321598"><ele>494.0</ele><time>2026-04-25T12:51:24.056Z</time></trkpt><trkpt lat="42.4688248" lon="-7.332121"><ele>494.0</ele><time>2026-04-25T12:51:25.046Z</time></trkpt><trkpt lat="42.4689306" lon="-7.3321087"><ele>494.0</ele><time>2026-04-25T12:51:26.053Z</time></trkpt><trkpt lat="42.4690517" lon="-7.3321077"><ele>494.0</ele><time>2026-04-25T12:51:27.053Z</time></trkpt><trkpt lat="42.4691684" lon="-7.3321023"><ele>490.8333333333333</ele><time>2026-04-25T12:51:28.053Z</time></trkpt><trkpt lat="42.4692669" lon="-7.3320814"><ele>487.66666666666663</ele><time>2026-04-25T12:51:29.062Z</time></trkpt><trkpt lat="42.4693443" lon="-7.3320389"><ele>484.5</ele><time>2026-04-25T12:51:30.056Z</time></trkpt><trkpt lat="42.4694013" lon="-7.3319827"><ele>481.33333333333337</ele><time>2026-04-25T12:51:31.06Z</time></trkpt><trkpt lat="42.4694454" lon="-7.3319175"><ele>478.1666666666667</ele><time>2026-04-25T12:51:32.062Z</time></trkpt><trkpt lat="42.4694811" lon="-7.3318277"><ele>475.0</ele><time>2026-04-25T12:51:34.058Z</time></trkpt><trkpt lat="42.4695579" lon="-7.3318115"><ele>474.33333333333337</ele><time>2026-04-25T12:51:38.058Z</time></trkpt><trkpt lat="42.469622" lon="-7.3319188"><ele>473.6666666666667</ele><time>2026-04-25T12:51:40.054Z</time></trkpt><trkpt lat="42.4696841" lon="-7.3320081"><ele>473.0</ele><time>2026-04-25T12:51:42.057Z</time></trkpt><trkpt lat="42.469738" lon="-7.3320734"><ele>472.33333333333337</ele><time>2026-04-25T12:51:44.055Z</time></trkpt><trkpt lat="42.4698052" lon="-7.3321615"><ele>471.6666666666667</ele><time>2026-04-25T12:51:46.062Z</time></trkpt><trkpt lat="42.4698753" lon="-7.3322072"><ele>471.0</ele><time>2026-04-25T12:51:48.06Z</time></trkpt><trkpt lat="42.4699355" lon="-7.3322403"><ele>471.0</ele><time>2026-04-25T12:51:50.057Z</time></trkpt><trkpt lat="42.4698745" lon="-7.3322651"><ele>471.0</ele><time>2026-04-25T12:51:55.053Z</time></trkpt><trkpt lat="42.4697899" lon="-7.3321682"><ele>471.0</ele><time>2026-04-25T12:51:56.054Z</time></trkpt><trkpt lat="42.4697101" lon="-7.3320839"><ele>471.0</ele><time>2026-04-25T12:51:57.062Z</time></trkpt><trkpt lat="42.4696412" lon="-7.332023"><ele>471.0</ele><time>2026-04-25T12:51:58.056Z</time></trkpt><trkpt lat="42.4695778" lon="-7.331998"><ele>471.0</ele><time>2026-04-25T12:51:59.056Z</time></trkpt><trkpt lat="42.4695133" lon="-7.3319998"><ele>471.6666666666667</ele><time>2026-04-25T12:52:00.051Z</time></trkpt><trkpt lat="42.4694392" lon="-7.3320007"><ele>472.33333333333337</ele><time>2026-04-25T12:52:01.059Z</time></trkpt><trkpt lat="42.4693764" lon="-7.3320303"><ele>473.0</ele><time>2026-04-25T12:52:02.058Z</time></trkpt><trkpt lat="42.4693253" lon="-7.3321175"><ele>473.6666666666667</ele><time>2026-04-25T12:52:04.055Z</time></trkpt><trkpt lat="42.4693917" lon="-7.3322304"><ele>474.33333333333337</ele><time>2026-04-25T12:52:06.067Z</time></trkpt><trkpt lat="42.4694701" lon="-7.3323015"><ele>475.0</ele><time>2026-04-25T12:52:07.061Z</time></trkpt><trkpt lat="42.4695672" lon="-7.3323884"><ele>472.2</ele><time>2026-04-25T12:52:08.051Z</time></trkpt><trkpt lat="42.4696595" lon="-7.3324732"><ele>469.4</ele><time>2026-04-25T12:52:09.059Z</time></trkpt><trkpt lat="42.4697567" lon="-7.3325474"><ele>466.6</ele><time>2026-04-25T12:52:10.094Z</time></trkpt><trkpt lat="42.4698538" lon="-7.3326219"><ele>463.8</ele><time>2026-04-25T12:52:11.064Z</time></trkpt><trkpt lat="42.4699512" lon="-7.3326835"><ele>461.0</ele><time>2026-04-25T12:52:12.057Z</time></trkpt><trkpt lat="42.470056" lon="-7.3327352"><ele>461.0</ele><time>2026-04-25T12:52:13.065Z</time></trkpt><trkpt lat="42.4701625" lon="-7.3327829"><ele>461.0</ele><time>2026-04-25T12:52:14.063Z</time></trkpt><trkpt lat="42.4702731" lon="-7.3328335"><ele>461.0</ele><time>2026-04-25T12:52:15.059Z</time></trkpt><trkpt lat="42.4703982" lon="-7.3328861"><ele>461.0</ele><time>2026-04-25T12:52:16.059Z</time></trkpt><trkpt lat="42.4705345" lon="-7.3329347"><ele>460.0</ele><time>2026-04-25T12:52:17.06Z</time></trkpt><trkpt lat="42.4706719" lon="-7.3329769"><ele>459.0</ele><time>2026-04-25T12:52:18.053Z</time></trkpt><trkpt lat="42.4708173" lon="-7.3330208"><ele>458.0</ele><time>2026-04-25T12:52:19.06Z</time></trkpt><trkpt lat="42.4709647" lon="-7.3330695"><ele>457.0</ele><time>2026-04-25T12:52:20.061Z</time></trkpt><trkpt lat="42.4711147" lon="-7.3331197"><ele>448.0</ele><time>2026-04-25T12:52:21.061Z</time></trkpt><trkpt lat="42.471262" lon="-7.3331684"><ele>439.0</ele><time>2026-04-25T12:52:22.054Z</time></trkpt><trkpt lat="42.4714111" lon="-7.333232"><ele>430.0</ele><time>2026-04-25T12:52:23.052Z</time></trkpt><trkpt lat="42.4715585" lon="-7.3332973"><ele>429.5</ele><time>2026-04-25T12:52:24.053Z</time></trkpt><trkpt lat="42.4716996" lon="-7.3333576"><ele>429.0</ele><time>2026-04-25T12:52:25.057Z</time></trkpt><trkpt lat="42.4718335" lon="-7.3334147"><ele>428.5</ele><time>2026-04-25T12:52:26.05Z</time></trkpt><trkpt lat="42.4719528" lon="-7.3334687"><ele>428.0</ele><time>2026-04-25T12:52:27.046Z</time></trkpt><trkpt lat="42.4720627" lon="-7.333519"><ele>426.16666666666663</ele><time>2026-04-25T12:52:28.05Z</time></trkpt><trkpt lat="42.4721588" lon="-7.3335624"><ele>424.3333333333333</ele><time>2026-04-25T12:52:29.053Z</time></trkpt><trkpt lat="42.4722531" lon="-7.3336022"><ele>422.5</ele><time>2026-04-25T12:52:30.048Z</time></trkpt><trkpt lat="42.4723397" lon="-7.3336341"><ele>420.66666666666663</ele><time>2026-04-25T12:52:31.052Z</time></trkpt><trkpt lat="42.4724183" lon="-7.3336606"><ele>418.8333333333333</ele><time>2026-04-25T12:52:32.053Z</time></trkpt><trkpt lat="42.472481" lon="-7.3336814"><ele>417.0</ele><time>2026-04-25T12:52:33.046Z</time></trkpt><trkpt lat="42.4725649" lon="-7.333721"><ele>417.0</ele><time>2026-04-25T12:52:35.051Z</time></trkpt><trkpt lat="42.4725671" lon="-7.3338486"><ele>417.0</ele><time>2026-04-25T12:52:38.057Z</time></trkpt><trkpt lat="42.4724509" lon="-7.3339244"><ele>417.0</ele><time>2026-04-25T12:52:40.051Z</time></trkpt><trkpt lat="42.4723436" lon="-7.3339546"><ele>417.0</ele><time>2026-04-25T12:52:41.046Z</time></trkpt><trkpt lat="42.4722164" lon="-7.3339754"><ele>411.75</ele><time>2026-04-25T12:52:42.054Z</time></trkpt><trkpt lat="42.4720883" lon="-7.3339888"><ele>406.5</ele><time>2026-04-25T12:52:43.056Z</time></trkpt><trkpt lat="42.4719569" lon="-7.3339908"><ele>401.25</ele><time>2026-04-25T12:52:44.049Z</time></trkpt><trkpt lat="42.4718084" lon="-7.3339853"><ele>396.0</ele><time>2026-04-25T12:52:45.054Z</time></trkpt><trkpt lat="42.4716537" lon="-7.3339765"><ele>396.0</ele><time>2026-04-25T12:52:46.054Z</time></trkpt><trkpt lat="42.4715047" lon="-7.3339627"><ele>396.0</ele><time>2026-04-25T12:52:47.056Z</time></trkpt><trkpt lat="42.4713685" lon="-7.3339575"><ele>396.0</ele><time>2026-04-25T12:52:48.052Z</time></trkpt><trkpt lat="42.471235" lon="-7.3339761"><ele>396.0</ele><time>2026-04-25T12:52:49.054Z</time></trkpt><trkpt lat="42.4710953" lon="-7.3339968"><ele>396.25</ele><time>2026-04-25T12:52:50.049Z</time></trkpt><trkpt lat="42.4709561" lon="-7.3340541"><ele>396.5</ele><time>2026-04-25T12:52:51.053Z</time></trkpt><trkpt lat="42.4708131" lon="-7.3341244"><ele>396.75</ele><time>2026-04-25T12:52:52.051Z</time></trkpt><trkpt lat="42.4706836" lon="-7.3341857"><ele>397.0</ele><time>2026-04-25T12:52:53.052Z</time></trkpt><trkpt lat="42.4705757" lon="-7.3342314"><ele>397.0</ele><time>2026-04-25T12:52:54.043Z</time></trkpt><trkpt lat="42.4704824" lon="-7.3342725"><ele>397.0</ele><time>2026-04-25T12:52:55.057Z</time></trkpt><trkpt lat="42.4704036" lon="-7.33428"><ele>397.0</ele><time>2026-04-25T12:52:56.053Z</time></trkpt><trkpt lat="42.4703047" lon="-7.3342718"><ele>397.0</ele><time>2026-04-25T12:52:57.045Z</time></trkpt><trkpt lat="42.470182" lon="-7.3342496"><ele>397.0</ele><time>2026-04-25T12:52:58.052Z</time></trkpt><trkpt lat="42.4700573" lon="-7.3342217"><ele>397.25</ele><time>2026-04-25T12:52:59.053Z</time></trkpt><trkpt lat="42.4699301" lon="-7.3341951"><ele>397.5</ele><time>2026-04-25T12:53:00.051Z</time></trkpt><trkpt lat="42.4698026" lon="-7.3341693"><ele>397.75</ele><time>2026-04-25T12:53:01.049Z</time></trkpt><trkpt lat="42.4696794" lon="-7.3341423"><ele>398.0</ele><time>2026-04-25T12:53:02.062Z</time></trkpt><trkpt lat="42.4695709" lon="-7.3341206"><ele>398.99999999999994</ele><time>2026-04-25T12:53:03.049Z</time></trkpt><trkpt lat="42.4694866" lon="-7.3341082"><ele>400.0</ele><time>2026-04-25T12:53:04.045Z</time></trkpt><trkpt lat="42.469419" lon="-7.3341235"><ele>401.0</ele><time>2026-04-25T12:53:05.05Z</time></trkpt><trkpt lat="42.4693491" lon="-7.3342517"><ele>402.0</ele><time>2026-04-25T12:53:07.057Z</time></trkpt><trkpt lat="42.4693453" lon="-7.3343564"><ele>402.99999999999994</ele><time>2026-04-25T12:53:08.05Z</time></trkpt><trkpt lat="42.4693426" lon="-7.3344815"><ele>404.0</ele><time>2026-04-25T12:53:09.054Z</time></trkpt><trkpt lat="42.4693649" lon="-7.3346484"><ele>402.0</ele><time>2026-04-25T12:53:10.049Z</time></trkpt><trkpt lat="42.4693835" lon="-7.3348347"><ele>400.0</ele><time>2026-04-25T12:53:11.05Z</time></trkpt><trkpt lat="42.4693977" lon="-7.3350387"><ele>398.0</ele><time>2026-04-25T12:53:12.052Z</time></trkpt><trkpt lat="42.4694121" lon="-7.3352183"><ele>396.0</ele><time>2026-04-25T12:53:13.058Z</time></trkpt><trkpt lat="42.4694281" lon="-7.3353615"><ele>396.0</ele><time>2026-04-25T12:53:14.049Z</time></trkpt><trkpt lat="42.4694415" lon="-7.3354698"><ele>396.0</ele><time>2026-04-25T12:53:15.058Z</time></trkpt><trkpt lat="42.4694012" lon="-7.3355669"><ele>396.0</ele><time>2026-04-25T12:53:16.056Z</time></trkpt><trkpt lat="42.4693601" lon="-7.335667"><ele>396.0</ele><time>2026-04-25T12:53:17.048Z</time></trkpt><trkpt lat="42.4693153" lon="-7.3357443"><ele>396.0</ele><time>2026-04-25T12:53:18.053Z</time></trkpt><trkpt lat="42.4693407" lon="-7.3359233"><ele>396.4</ele><time>2026-04-25T12:53:20.053Z</time></trkpt><trkpt lat="42.4694109" lon="-7.3360251"><ele>396.8</ele><time>2026-04-25T12:53:21.056Z</time></trkpt><trkpt lat="42.4694898" lon="-7.3361269"><ele>397.2</ele><time>2026-04-25T12:53:22.058Z</time></trkpt><trkpt lat="42.4695537" lon="-7.3362237"><ele>397.59999999999997</ele><time>2026-04-25T12:53:23.05Z</time></trkpt><trkpt lat="42.4696146" lon="-7.3363189"><ele>398.0</ele><time>2026-04-25T12:53:24.051Z</time></trkpt><trkpt lat="42.4696495" lon="-7.3364937"><ele>384.66666666666663</ele><time>2026-04-25T12:53:25.051Z</time></trkpt><trkpt lat="42.4696794" lon="-7.3366966"><ele>371.3333333333333</ele><time>2026-04-25T12:53:26.053Z</time></trkpt><trkpt lat="42.4696999" lon="-7.336903"><ele>358.0</ele><time>2026-04-25T12:53:27.05Z</time></trkpt><trkpt lat="42.4697061" lon="-7.3371185"><ele>360.3333333333333</ele><time>2026-04-25T12:53:28.05Z</time></trkpt><trkpt lat="42.4697117" lon="-7.33732"><ele>362.6666666666667</ele><time>2026-04-25T12:53:29.052Z</time></trkpt><trkpt lat="42.4697302" lon="-7.3375326"><ele>365.0</ele><time>2026-04-25T12:53:30.057Z</time></trkpt><trkpt lat="42.4697506" lon="-7.3377394"><ele>365.0</ele><time>2026-04-25T12:53:31.054Z</time></trkpt><trkpt lat="42.4697713" lon="-7.3379307"><ele>365.0</ele><time>2026-04-25T12:53:32.055Z</time></trkpt><trkpt lat="42.469789" lon="-7.338137"><ele>365.0</ele><time>2026-04-25T12:53:33.051Z</time></trkpt><trkpt lat="42.4698017" lon="-7.3383554"><ele>365.0</ele><time>2026-04-25T12:53:34.057Z</time></trkpt><trkpt lat="42.4698117" lon="-7.3385612"><ele>365.0</ele><time>2026-04-25T12:53:35.053Z</time></trkpt><trkpt lat="42.4698215" lon="-7.3387667"><ele>365.0</ele><time>2026-04-25T12:53:36.045Z</time></trkpt><trkpt lat="42.4698303" lon="-7.3389824"><ele>365.0</ele><time>2026-04-25T12:53:37.049Z</time></trkpt><trkpt lat="42.4698441" lon="-7.3391914"><ele>365.0</ele><time>2026-04-25T12:53:38.053Z</time></trkpt><trkpt lat="42.4698536" lon="-7.3393719"><ele>365.0</ele><time>2026-04-25T12:53:39.053Z</time></trkpt><trkpt lat="42.4698653" lon="-7.3395404"><ele>365.0</ele><time>2026-04-25T12:53:40.047Z</time></trkpt><trkpt lat="42.4698711" lon="-7.3397051"><ele>364.25</ele><time>2026-04-25T12:53:41.058Z</time></trkpt><trkpt lat="42.469883" lon="-7.3398634"><ele>363.5</ele><time>2026-04-25T12:53:42.05Z</time></trkpt><trkpt lat="42.4698981" lon="-7.3400312"><ele>362.75</ele><time>2026-04-25T12:53:43.061Z</time></trkpt><trkpt lat="42.4699076" lon="-7.3401874"><ele>362.0</ele><time>2026-04-25T12:53:44.052Z</time></trkpt><trkpt lat="42.4699151" lon="-7.3403194"><ele>362.0</ele><time>2026-04-25T12:53:45.064Z</time></trkpt><trkpt lat="42.4699185" lon="-7.3404261"><ele>362.0</ele><time>2026-04-25T12:53:46.075Z</time></trkpt><trkpt lat="42.469914" lon="-7.3405136"><ele>362.0</ele><time>2026-04-25T12:53:47.052Z</time></trkpt><trkpt lat="42.4699115" lon="-7.3406647"><ele>362.0</ele><time>2026-04-25T12:53:49.064Z</time></trkpt><trkpt lat="42.4699645" lon="-7.340597"><ele>362.0</ele><time>2026-04-25T12:53:55.062Z</time></trkpt><trkpt lat="42.4699856" lon="-7.3404999"><ele>362.0</ele><time>2026-04-25T12:53:56.05Z</time></trkpt><trkpt lat="42.4700272" lon="-7.3403592"><ele>362.0</ele><time>2026-04-25T12:53:57.046Z</time></trkpt><trkpt lat="42.4700726" lon="-7.3402023"><ele>362.0</ele><time>2026-04-25T12:53:58.053Z</time></trkpt><trkpt lat="42.4701176" lon="-7.3400499"><ele>362.0</ele><time>2026-04-25T12:53:59.045Z</time></trkpt><trkpt lat="42.4701637" lon="-7.3398905"><ele>362.0</ele><time>2026-04-25T12:54:00.045Z</time></trkpt><trkpt lat="42.4702101" lon="-7.3397341"><ele>362.75</ele><time>2026-04-25T12:54:01.052Z</time></trkpt><trkpt lat="42.4702538" lon="-7.3395812"><ele>363.5</ele><time>2026-04-25T12:54:02.053Z</time></trkpt><trkpt lat="42.4702966" lon="-7.3394328"><ele>364.25</ele><time>2026-04-25T12:54:03.05Z</time></trkpt><trkpt lat="42.4703403" lon="-7.339281"><ele>365.0</ele><time>2026-04-25T12:54:04.049Z</time></trkpt><trkpt lat="42.470383" lon="-7.3391334"><ele>365.0</ele><time>2026-04-25T12:54:05.059Z</time></trkpt><trkpt lat="42.4704229" lon="-7.3389888"><ele>365.0</ele><time>2026-04-25T12:54:06.065Z</time></trkpt><trkpt lat="42.470465" lon="-7.3388536"><ele>365.0</ele><time>2026-04-25T12:54:07.052Z</time></trkpt><trkpt lat="42.4705083" lon="-7.3387233"><ele>365.0</ele><time>2026-04-25T12:54:08.049Z</time></trkpt><trkpt lat="42.4705529" lon="-7.3385903"><ele>365.0</ele><time>2026-04-25T12:54:09.052Z</time></trkpt><trkpt lat="42.4705924" lon="-7.3384683"><ele>358.2</ele><time>2026-04-25T12:54:10.066Z</time></trkpt><trkpt lat="42.4706268" lon="-7.3383508"><ele>351.4</ele><time>2026-04-25T12:54:11.05Z</time></trkpt><trkpt lat="42.4706531" lon="-7.3382328"><ele>344.6</ele><time>2026-04-25T12:54:12.056Z</time></trkpt><trkpt lat="42.4706655" lon="-7.338101"><ele>337.8</ele><time>2026-04-25T12:54:13.051Z</time></trkpt><trkpt lat="42.4706718" lon="-7.3379428"><ele>331.0</ele><time>2026-04-25T12:54:14.052Z</time></trkpt><trkpt lat="42.470674" lon="-7.3377657"><ele>329.75</ele><time>2026-04-25T12:54:15.055Z</time></trkpt><trkpt lat="42.4706748" lon="-7.337594"><ele>328.5</ele><time>2026-04-25T12:54:16.057Z</time></trkpt><trkpt lat="42.4706734" lon="-7.3374279"><ele>327.25</ele><time>2026-04-25T12:54:17.055Z</time></trkpt><trkpt lat="42.4706698" lon="-7.3372529"><ele>326.0</ele><time>2026-04-25T12:54:18.045Z</time></trkpt><trkpt lat="42.4706648" lon="-7.3370854"><ele>325.0</ele><time>2026-04-25T12:54:19.059Z</time></trkpt><trkpt lat="42.4706523" lon="-7.3369291"><ele>324.0</ele><time>2026-04-25T12:54:20.055Z</time></trkpt><trkpt lat="42.4706336" lon="-7.3367857"><ele>323.0</ele><time>2026-04-25T12:54:21.057Z</time></trkpt><trkpt lat="42.4706052" lon="-7.3366338"><ele>322.0</ele><time>2026-04-25T12:54:22.053Z</time></trkpt><trkpt lat="42.4705753" lon="-7.3364898"><ele>321.0</ele><time>2026-04-25T12:54:23.058Z</time></trkpt><trkpt lat="42.470546" lon="-7.3363584"><ele>324.20000000000005</ele><time>2026-04-25T12:54:24.056Z</time></trkpt><trkpt lat="42.4705228" lon="-7.3362468"><ele>327.40000000000003</ele><time>2026-04-25T12:54:25.058Z</time></trkpt><trkpt lat="42.4705269" lon="-7.3361011"><ele>330.6</ele><time>2026-04-25T12:54:27.05Z</time></trkpt><trkpt lat="42.4706092" lon="-7.3360392"><ele>333.8</ele><time>2026-04-25T12:54:29.052Z</time></trkpt><trkpt lat="42.4706935" lon="-7.3360769"><ele>337.0</ele><time>2026-04-25T12:54:30.056Z</time></trkpt><trkpt lat="42.4707987" lon="-7.3361482"><ele>337.0</ele><time>2026-04-25T12:54:31.059Z</time></trkpt><trkpt lat="42.470931" lon="-7.3362325"><ele>337.0</ele><time>2026-04-25T12:54:32.06Z</time></trkpt><trkpt lat="42.471074" lon="-7.3363133"><ele>337.0</ele><time>2026-04-25T12:54:33.051Z</time></trkpt><trkpt lat="42.471209" lon="-7.3363839"><ele>337.0</ele><time>2026-04-25T12:54:34.06Z</time></trkpt><trkpt lat="42.471315" lon="-7.3364297"><ele>336.16666666666663</ele><time>2026-04-25T12:54:35.064Z</time></trkpt><trkpt lat="42.4714011" lon="-7.336453"><ele>335.3333333333333</ele><time>2026-04-25T12:54:36.051Z</time></trkpt><trkpt lat="42.4714663" lon="-7.3364497"><ele>334.5</ele><time>2026-04-25T12:54:37.054Z</time></trkpt><trkpt lat="42.4715549" lon="-7.3363639"><ele>333.6666666666667</ele><time>2026-04-25T12:54:39.051Z</time></trkpt><trkpt lat="42.4715965" lon="-7.3362894"><ele>332.83333333333337</ele><time>2026-04-25T12:54:40.047Z</time></trkpt><trkpt lat="42.4716601" lon="-7.3361838"><ele>332.0</ele><time>2026-04-25T12:54:42.056Z</time></trkpt><trkpt lat="42.4717422" lon="-7.3361886"><ele>332.0</ele><time>2026-04-25T12:54:44.047Z</time></trkpt><trkpt lat="42.4717743" lon="-7.3362802"><ele>332.0</ele><time>2026-04-25T12:54:45.063Z</time></trkpt><trkpt lat="42.4718268" lon="-7.3363781"><ele>332.0</ele><time>2026-04-25T12:54:46.054Z</time></trkpt><trkpt lat="42.4718685" lon="-7.3364901"><ele>332.0</ele><time>2026-04-25T12:54:47.057Z</time></trkpt><trkpt lat="42.4719181" lon="-7.3365823"><ele>332.0</ele><time>2026-04-25T12:54:48.053Z</time></trkpt><trkpt lat="42.4720061" lon="-7.3367074"><ele>326.75</ele><time>2026-04-25T12:54:49.051Z</time></trkpt><trkpt lat="42.4720913" lon="-7.3368036"><ele>321.5</ele><time>2026-04-25T12:54:50.05Z</time></trkpt><trkpt lat="42.4721816" lon="-7.3368961"><ele>316.25</ele><time>2026-04-25T12:54:51.049Z</time></trkpt><trkpt lat="42.4722842" lon="-7.3369903"><ele>311.0</ele><time>2026-04-25T12:54:52.052Z</time></trkpt><trkpt lat="42.4723819" lon="-7.3370742"><ele>311.0</ele><time>2026-04-25T12:54:53.058Z</time></trkpt><trkpt lat="42.4724714" lon="-7.3371439"><ele>311.0</ele><time>2026-04-25T12:54:54.052Z</time></trkpt><trkpt lat="42.4725524" lon="-7.3371991"><ele>311.0</ele><time>2026-04-25T12:54:55.067Z</time></trkpt><trkpt lat="42.4726195" lon="-7.3372261"><ele>311.0</ele><time>2026-04-25T12:54:56.055Z</time></trkpt><trkpt lat="42.4727172" lon="-7.3372023"><ele>311.0</ele><time>2026-04-25T12:54:58.054Z</time></trkpt><trkpt lat="42.4727883" lon="-7.3370861"><ele>311.0</ele><time>2026-04-25T12:55:00.055Z</time></trkpt><trkpt lat="42.4728245" lon="-7.3369741"><ele>311.0</ele><time>2026-04-25T12:55:01.056Z</time></trkpt><trkpt lat="42.4728707" lon="-7.33683"><ele>311.0</ele><time>2026-04-25T12:55:02.048Z</time></trkpt><trkpt lat="42.472927" lon="-7.3366645"><ele>311.0</ele><time>2026-04-25T12:55:03.052Z</time></trkpt><trkpt lat="42.4730243" lon="-7.3364862"><ele>310.0</ele><time>2026-04-25T12:55:04.046Z</time></trkpt><trkpt lat="42.4731283" lon="-7.3362903"><ele>309.0</ele><time>2026-04-25T12:55:05.05Z</time></trkpt><trkpt lat="42.4732398" lon="-7.3360889"><ele>308.0</ele><time>2026-04-25T12:55:06.051Z</time></trkpt><trkpt lat="42.4733533" lon="-7.3359102"><ele>308.0</ele><time>2026-04-25T12:55:07.052Z</time></trkpt><trkpt lat="42.4734721" lon="-7.3357609"><ele>308.0</ele><time>2026-04-25T12:55:08.049Z</time></trkpt><trkpt lat="42.4736033" lon="-7.3356324"><ele>308.0</ele><time>2026-04-25T12:55:09.056Z</time></trkpt><trkpt lat="42.4737163" lon="-7.3355412"><ele>304.75</ele><time>2026-04-25T12:55:10.047Z</time></trkpt><trkpt lat="42.4738157" lon="-7.3354675"><ele>301.5</ele><time>2026-04-25T12:55:11.054Z</time></trkpt><trkpt lat="42.4738993" lon="-7.3353792"><ele>298.25</ele><time>2026-04-25T12:55:12.057Z</time></trkpt><trkpt lat="42.4739735" lon="-7.335257"><ele>295.0</ele><time>2026-04-25T12:55:13.052Z</time></trkpt><trkpt lat="42.4740519" lon="-7.3350952"><ele>295.0</ele><time>2026-04-25T12:55:14.047Z</time></trkpt><trkpt lat="42.474137" lon="-7.3349023"><ele>295.0</ele><time>2026-04-25T12:55:15.056Z</time></trkpt><trkpt lat="42.4742081" lon="-7.3347047"><ele>295.0</ele><time>2026-04-25T12:55:16.05Z</time></trkpt><trkpt lat="42.4742561" lon="-7.3345405"><ele>294.8</ele><time>2026-04-25T12:55:17.05Z</time></trkpt><trkpt lat="42.4743024" lon="-7.3343882"><ele>294.6</ele><time>2026-04-25T12:55:18.051Z</time></trkpt><trkpt lat="42.4743496" lon="-7.3342746"><ele>294.4</ele><time>2026-04-25T12:55:19.053Z</time></trkpt><trkpt lat="42.4744019" lon="-7.3341689"><ele>294.2</ele><time>2026-04-25T12:55:20.044Z</time></trkpt><trkpt lat="42.4745029" lon="-7.3340718"><ele>294.0</ele><time>2026-04-25T12:55:22.047Z</time></trkpt><trkpt lat="42.4746064" lon="-7.3340701"><ele>294.0</ele><time>2026-04-25T12:55:23.053Z</time></trkpt><trkpt lat="42.4747264" lon="-7.334066"><ele>294.0</ele><time>2026-04-25T12:55:24.05Z</time></trkpt><trkpt lat="42.4748377" lon="-7.3340541"><ele>294.0</ele><time>2026-04-25T12:55:25.049Z</time></trkpt><trkpt lat="42.4749264" lon="-7.334027"><ele>294.0</ele><time>2026-04-25T12:55:26.046Z</time></trkpt><trkpt lat="42.4749948" lon="-7.3340144"><ele>294.0</ele><time>2026-04-25T12:55:27.05Z</time></trkpt><trkpt lat="42.4750636" lon="-7.3339362"><ele>298.5</ele><time>2026-04-25T12:55:28.058Z</time></trkpt><trkpt lat="42.4751312" lon="-7.3338607"><ele>303.0</ele><time>2026-04-25T12:55:29.05Z</time></trkpt><trkpt lat="42.4751852" lon="-7.3337811"><ele>307.5</ele><time>2026-04-25T12:55:30.053Z</time></trkpt><trkpt lat="42.4752196" lon="-7.333693"><ele>312.0</ele><time>2026-04-25T12:55:31.053Z</time></trkpt><trkpt lat="42.4752758" lon="-7.3335806"><ele>316.5</ele><time>2026-04-25T12:55:33.055Z</time></trkpt><trkpt lat="42.4753454" lon="-7.333614"><ele>321.0</ele><time>2026-04-25T12:55:35.054Z</time></trkpt><trkpt lat="42.4754258" lon="-7.3336903"><ele>321.5</ele><time>2026-04-25T12:55:36.063Z</time></trkpt><trkpt lat="42.4755273" lon="-7.3337768"><ele>322.0</ele><time>2026-04-25T12:55:37.048Z</time></trkpt><trkpt lat="42.4756457" lon="-7.3338299"><ele>322.5</ele><time>2026-04-25T12:55:38.05Z</time></trkpt><trkpt lat="42.4757725" lon="-7.3338775"><ele>323.0</ele><time>2026-04-25T12:55:39.046Z</time></trkpt><trkpt lat="42.47592" lon="-7.3339226"><ele>318.25</ele><time>2026-04-25T12:55:40.049Z</time></trkpt><trkpt lat="42.4760596" lon="-7.3339705"><ele>313.5</ele><time>2026-04-25T12:55:41.049Z</time></trkpt><trkpt lat="42.4761959" lon="-7.3340456"><ele>308.75</ele><time>2026-04-25T12:55:42.047Z</time></trkpt><trkpt lat="42.4763201" lon="-7.3341105"><ele>304.0</ele><time>2026-04-25T12:55:43.053Z</time></trkpt><trkpt lat="42.4764273" lon="-7.3341675"><ele>304.0</ele><time>2026-04-25T12:55:44.049Z</time></trkpt><trkpt lat="42.4764955" lon="-7.3342124"><ele>304.0</ele><time>2026-04-25T12:55:45.049Z</time></trkpt><trkpt lat="42.4765624" lon="-7.3342303"><ele>304.0</ele><time>2026-04-25T12:55:46.051Z</time></trkpt><trkpt lat="42.476683" lon="-7.3341783"><ele>304.0</ele><time>2026-04-25T12:55:48.057Z</time></trkpt><trkpt lat="42.4767712" lon="-7.3342066"><ele>304.0</ele><time>2026-04-25T12:55:50.056Z</time></trkpt><trkpt lat="42.4768173" lon="-7.3343956"><ele>304.0</ele><time>2026-04-25T12:55:52.059Z</time></trkpt><trkpt lat="42.4768429" lon="-7.3345365"><ele>304.0</ele><time>2026-04-25T12:55:53.045Z</time></trkpt><trkpt lat="42.4768876" lon="-7.3346638"><ele>304.0</ele><time>2026-04-25T12:55:54.052Z</time></trkpt><trkpt lat="42.4769766" lon="-7.3347967"><ele>304.0</ele><time>2026-04-25T12:55:55.055Z</time></trkpt><trkpt lat="42.4770719" lon="-7.334931"><ele>306.5</ele><time>2026-04-25T12:55:56.052Z</time></trkpt><trkpt lat="42.4771538" lon="-7.3350562"><ele>309.0</ele><time>2026-04-25T12:55:57.06Z</time></trkpt><trkpt lat="42.4772218" lon="-7.3351852"><ele>311.5</ele><time>2026-04-25T12:55:58.054Z</time></trkpt><trkpt lat="42.4772785" lon="-7.3353072"><ele>314.0</ele><time>2026-04-25T12:55:59.062Z</time></trkpt><trkpt lat="42.4773462" lon="-7.3354348"><ele>314.0</ele><time>2026-04-25T12:56:00.054Z</time></trkpt><trkpt lat="42.4774078" lon="-7.3355455"><ele>314.0</ele><time>2026-04-25T12:56:01.049Z</time></trkpt><trkpt lat="42.4775046" lon="-7.3356595"><ele>314.0</ele><time>2026-04-25T12:56:02.053Z</time></trkpt><trkpt lat="42.4776227" lon="-7.3358047"><ele>314.0</ele><time>2026-04-25T12:56:03.057Z</time></trkpt><trkpt lat="42.4777123" lon="-7.3359406"><ele>314.25</ele><time>2026-04-25T12:56:04.05Z</time></trkpt><trkpt lat="42.4778058" lon="-7.3360477"><ele>314.5</ele><time>2026-04-25T12:56:05.049Z</time></trkpt><trkpt lat="42.4778846" lon="-7.3361546"><ele>314.75</ele><time>2026-04-25T12:56:06.046Z</time></trkpt><trkpt lat="42.4779833" lon="-7.3362663"><ele>315.0</ele><time>2026-04-25T12:56:07.054Z</time></trkpt><trkpt lat="42.4780839" lon="-7.3363682"><ele>309.75</ele><time>2026-04-25T12:56:08.053Z</time></trkpt><trkpt lat="42.4781994" lon="-7.336486"><ele>304.5</ele><time>2026-04-25T12:56:09.061Z</time></trkpt><trkpt lat="42.4783135" lon="-7.3365939"><ele>299.25</ele><time>2026-04-25T12:56:10.066Z</time></trkpt><trkpt lat="42.478408" lon="-7.3366814"><ele>294.0</ele><time>2026-04-25T12:56:11.053Z</time></trkpt><trkpt lat="42.4784932" lon="-7.3367953"><ele>294.0</ele><time>2026-04-25T12:56:12.055Z</time></trkpt><trkpt lat="42.4785471" lon="-7.3369174"><ele>294.0</ele><time>2026-04-25T12:56:13.053Z</time></trkpt><trkpt lat="42.4786004" lon="-7.3370728"><ele>294.0</ele><time>2026-04-25T12:56:14.061Z</time></trkpt><trkpt lat="42.4786646" lon="-7.3372187"><ele>294.0</ele><time>2026-04-25T12:56:15.05Z</time></trkpt><trkpt lat="42.4787326" lon="-7.3373466"><ele>297.75</ele><time>2026-04-25T12:56:16.053Z</time></trkpt><trkpt lat="42.4788185" lon="-7.3374757"><ele>301.5</ele><time>2026-04-25T12:56:17.057Z</time></trkpt><trkpt lat="42.478907" lon="-7.3376232"><ele>305.25</ele><time>2026-04-25T12:56:18.074Z</time></trkpt><trkpt lat="42.4789826" lon="-7.3377795"><ele>309.0</ele><time>2026-04-25T12:56:19.054Z</time></trkpt><trkpt lat="42.4790399" lon="-7.3379339"><ele>305.8</ele><time>2026-04-25T12:56:20.059Z</time></trkpt><trkpt lat="42.479101" lon="-7.3380629"><ele>302.59999999999997</ele><time>2026-04-25T12:56:21.056Z</time></trkpt><trkpt lat="42.479159" lon="-7.3382028"><ele>299.4</ele><time>2026-04-25T12:56:22.057Z</time></trkpt><trkpt lat="42.4792176" lon="-7.3383255"><ele>296.2</ele><time>2026-04-25T12:56:23.049Z</time></trkpt><trkpt lat="42.4792741" lon="-7.3384414"><ele>293.0</ele><time>2026-04-25T12:56:24.053Z</time></trkpt><trkpt lat="42.4793234" lon="-7.3385372"><ele>293.0</ele><time>2026-04-25T12:56:25.058Z</time></trkpt><trkpt lat="42.4793605" lon="-7.3386093"><ele>293.0</ele><time>2026-04-25T12:56:26.061Z</time></trkpt><trkpt lat="42.479447" lon="-7.3386926"><ele>293.0</ele><time>2026-04-25T12:56:28.052Z</time></trkpt><trkpt lat="42.4795183" lon="-7.338712"><ele>293.0</ele><time>2026-04-25T12:56:29.048Z</time></trkpt><trkpt lat="42.4795974" lon="-7.3387356"><ele>293.0</ele><time>2026-04-25T12:56:30.054Z</time></trkpt><trkpt lat="42.4796798" lon="-7.3387707"><ele>293.0</ele><time>2026-04-25T12:56:31.046Z</time></trkpt><trkpt lat="42.4797403" lon="-7.3388094"><ele>293.99999999999994</ele><time>2026-04-25T12:56:32.051Z</time></trkpt><trkpt lat="42.4798001" lon="-7.338841"><ele>295.0</ele><time>2026-04-25T12:56:33.053Z</time></trkpt><trkpt lat="42.4798631" lon="-7.3388653"><ele>296.0</ele><time>2026-04-25T12:56:34.05Z</time></trkpt><trkpt lat="42.4799306" lon="-7.3389002"><ele>297.0</ele><time>2026-04-25T12:56:35.055Z</time></trkpt><trkpt lat="42.4799938" lon="-7.3389343"><ele>298.0</ele><time>2026-04-25T12:56:36.057Z</time></trkpt><trkpt lat="42.4800467" lon="-7.3389852"><ele>298.99999999999994</ele><time>2026-04-25T12:56:37.052Z</time></trkpt><trkpt lat="42.4801326" lon="-7.3390816"><ele>300.0</ele><time>2026-04-25T12:56:39.047Z</time></trkpt><trkpt lat="42.4802058" lon="-7.3391501"><ele>300.0</ele><time>2026-04-25T12:56:41.051Z</time></trkpt><trkpt lat="42.4802885" lon="-7.339172"><ele>300.0</ele><time>2026-04-25T12:56:43.061Z</time></trkpt><trkpt lat="42.4803774" lon="-7.3392104"><ele>300.0</ele><time>2026-04-25T12:56:45.05Z</time></trkpt><trkpt lat="42.4804754" lon="-7.3392409"><ele>300.0</ele><time>2026-04-25T12:56:47.056Z</time></trkpt><trkpt lat="42.4805872" lon="-7.339274"><ele>300.0</ele><time>2026-04-25T12:56:49.053Z</time></trkpt><trkpt lat="42.4806742" lon="-7.3393278"><ele>299.8</ele><time>2026-04-25T12:56:51.053Z</time></trkpt><trkpt lat="42.4807621" lon="-7.3394007"><ele>299.6</ele><time>2026-04-25T12:56:53.05Z</time></trkpt><trkpt lat="42.4808493" lon="-7.3394994"><ele>299.4</ele><time>2026-04-25T12:56:55.06Z</time></trkpt><trkpt lat="42.4809177" lon="-7.339582"><ele>299.2</ele><time>2026-04-25T12:56:57.049Z</time></trkpt><trkpt lat="42.4809563" lon="-7.3397032"><ele>299.0</ele><time>2026-04-25T12:56:59.054Z</time></trkpt><trkpt lat="42.4810029" lon="-7.3398293"><ele>299.0</ele><time>2026-04-25T12:57:01.068Z</time></trkpt><trkpt lat="42.4810569" lon="-7.339943"><ele>299.0</ele><time>2026-04-25T12:57:03.051Z</time></trkpt><trkpt lat="42.4811177" lon="-7.3400124"><ele>299.0</ele><time>2026-04-25T12:57:05.058Z</time></trkpt><trkpt lat="42.4811814" lon="-7.3399579"><ele>299.0</ele><time>2026-04-25T12:57:09.063Z</time></trkpt><trkpt lat="42.4811744" lon="-7.3398382"><ele>299.0</ele><time>2026-04-25T12:57:11.054Z</time></trkpt><trkpt lat="42.4811656" lon="-7.3397534"><ele>299.0</ele><time>2026-04-25T12:57:12.057Z</time></trkpt><trkpt lat="42.4811636" lon="-7.3396584"><ele>299.0</ele><time>2026-04-25T12:57:13.058Z</time></trkpt><trkpt lat="42.4811721" lon="-7.3395675"><ele>299.0</ele><time>2026-04-25T12:57:14.049Z</time></trkpt><trkpt lat="42.481192" lon="-7.3394354"><ele>299.0</ele><time>2026-04-25T12:57:16.048Z</time></trkpt><trkpt lat="42.4812035" lon="-7.3393149"><ele>299.0</ele><time>2026-04-25T12:57:18.058Z</time></trkpt><trkpt lat="42.4812219" lon="-7.339405"><ele>299.0</ele><time>2026-04-25T12:57:29.055Z</time></trkpt><trkpt lat="42.4812043" lon="-7.339523"><ele>299.0</ele><time>2026-04-25T12:57:31.056Z</time></trkpt><trkpt lat="42.4811927" lon="-7.3396713"><ele>298.2857142857143</ele><time>2026-04-25T12:57:33.049Z</time></trkpt><trkpt lat="42.4811887" lon="-7.3397579"><ele>297.57142857142856</ele><time>2026-04-25T12:57:34.065Z</time></trkpt><trkpt lat="42.4811886" lon="-7.339847"><ele>296.8571428571429</ele><time>2026-04-25T12:57:35.056Z</time></trkpt><trkpt lat="42.4811888" lon="-7.3399507"><ele>296.1428571428571</ele><time>2026-04-25T12:57:36.081Z</time></trkpt><trkpt lat="42.481189" lon="-7.3400543"><ele>295.42857142857144</ele><time>2026-04-25T12:57:37.049Z</time></trkpt><trkpt lat="42.4811974" lon="-7.3401482"><ele>294.7142857142857</ele><time>2026-04-25T12:57:38.057Z</time></trkpt><trkpt lat="42.4812013" lon="-7.3402552"><ele>294.0</ele><time>2026-04-25T12:57:39.049Z</time></trkpt><trkpt lat="42.4812084" lon="-7.3403633"><ele>294.0</ele><time>2026-04-25T12:57:40.054Z</time></trkpt><trkpt lat="42.4812238" lon="-7.3404611"><ele>294.0</ele><time>2026-04-25T12:57:41.053Z</time></trkpt><trkpt lat="42.4812347" lon="-7.3405501"><ele>294.0</ele><time>2026-04-25T12:57:42.05Z</time></trkpt><trkpt lat="42.4812922" lon="-7.3406191"><ele>294.0</ele><time>2026-04-25T12:57:43.055Z</time></trkpt><trkpt lat="42.4813584" lon="-7.3406432"><ele>294.0</ele><time>2026-04-25T12:57:44.05Z</time></trkpt><trkpt lat="42.4814266" lon="-7.3406496"><ele>294.0</ele><time>2026-04-25T12:57:45.055Z</time></trkpt><trkpt lat="42.481498" lon="-7.3406399"><ele>294.0</ele><time>2026-04-25T12:57:46.058Z</time></trkpt><trkpt lat="42.4815706" lon="-7.3406173"><ele>293.1666666666667</ele><time>2026-04-25T12:57:47.051Z</time></trkpt><trkpt lat="42.4816492" lon="-7.3405843"><ele>292.3333333333333</ele><time>2026-04-25T12:57:48.053Z</time></trkpt><trkpt lat="42.4817315" lon="-7.3405401"><ele>291.5</ele><time>2026-04-25T12:57:49.055Z</time></trkpt><trkpt lat="42.4818106" lon="-7.3405086"><ele>290.66666666666663</ele><time>2026-04-25T12:57:50.052Z</time></trkpt><trkpt lat="42.4818931" lon="-7.3404825"><ele>289.8333333333333</ele><time>2026-04-25T12:57:51.053Z</time></trkpt><trkpt lat="42.4819714" lon="-7.3404557"><ele>289.0</ele><time>2026-04-25T12:57:52.053Z</time></trkpt><trkpt lat="42.4820514" lon="-7.3404394"><ele>288.0</ele><time>2026-04-25T12:57:53.06Z</time></trkpt><trkpt lat="42.4821552" lon="-7.3404184"><ele>287.0</ele><time>2026-04-25T12:57:54.048Z</time></trkpt><trkpt lat="42.4822679" lon="-7.3404007"><ele>286.0</ele><time>2026-04-25T12:57:55.049Z</time></trkpt><trkpt lat="42.4823811" lon="-7.3403869"><ele>285.0</ele><time>2026-04-25T12:57:56.05Z</time></trkpt><trkpt lat="42.4824869" lon="-7.3403717"><ele>284.0</ele><time>2026-04-25T12:57:57.053Z</time></trkpt><trkpt lat="42.4825855" lon="-7.3403527"><ele>284.0</ele><time>2026-04-25T12:57:58.049Z</time></trkpt><trkpt lat="42.482678" lon="-7.3403177"><ele>284.0</ele><time>2026-04-25T12:57:59.066Z</time></trkpt><trkpt lat="42.4827677" lon="-7.340263"><ele>284.0</ele><time>2026-04-25T12:58:00.056Z</time></trkpt><trkpt lat="42.4828612" lon="-7.3401948"><ele>284.0</ele><time>2026-04-25T12:58:01.049Z</time></trkpt><trkpt lat="42.4829548" lon="-7.3400976"><ele>284.0</ele><time>2026-04-25T12:58:02.049Z</time></trkpt><trkpt lat="42.4830622" lon="-7.3399927"><ele>282.0</ele><time>2026-04-25T12:58:03.049Z</time></trkpt><trkpt lat="42.4831695" lon="-7.3399194"><ele>280.0</ele><time>2026-04-25T12:58:04.05Z</time></trkpt><trkpt lat="42.4832598" lon="-7.3398427"><ele>278.0</ele><time>2026-04-25T12:58:05.046Z</time></trkpt><trkpt lat="42.4833451" lon="-7.3397555"><ele>276.0</ele><time>2026-04-25T12:58:06.046Z</time></trkpt><trkpt lat="42.4834215" lon="-7.3396721"><ele>274.0</ele><time>2026-04-25T12:58:07.053Z</time></trkpt><trkpt lat="42.483488" lon="-7.3395985"><ele>274.0</ele><time>2026-04-25T12:58:08.043Z</time></trkpt><trkpt lat="42.4835915" lon="-7.3395367"><ele>274.0</ele><time>2026-04-25T12:58:10.05Z</time></trkpt><trkpt lat="42.483686" lon="-7.3396247"><ele>274.0</ele><time>2026-04-25T12:58:12.052Z</time></trkpt><trkpt lat="42.4837044" lon="-7.3397282"><ele>274.0</ele><time>2026-04-25T12:58:13.06Z</time></trkpt><trkpt lat="42.4836807" lon="-7.3398534"><ele>274.0</ele><time>2026-04-25T12:58:14.044Z</time></trkpt><trkpt lat="42.4837057" lon="-7.3400024"><ele>274.0</ele><time>2026-04-25T12:58:15.044Z</time></trkpt><trkpt lat="42.4837562" lon="-7.3401162"><ele>274.0</ele><time>2026-04-25T12:58:16.046Z</time></trkpt><trkpt lat="42.4838115" lon="-7.3402256"><ele>274.0</ele><time>2026-04-25T12:58:17.045Z</time></trkpt><trkpt lat="42.4839332" lon="-7.3403027"><ele>274.0</ele><time>2026-04-25T12:58:18.05Z</time></trkpt><trkpt lat="42.484063" lon="-7.3403777"><ele>271.0</ele><time>2026-04-25T12:58:19.056Z</time></trkpt><trkpt lat="42.4842295" lon="-7.3404568"><ele>268.0</ele><time>2026-04-25T12:58:20.048Z</time></trkpt><trkpt lat="42.4844034" lon="-7.3405455"><ele>265.0</ele><time>2026-04-25T12:58:21.055Z</time></trkpt><trkpt lat="42.4845718" lon="-7.3406591"><ele>272.3333333333333</ele><time>2026-04-25T12:58:22.049Z</time></trkpt><trkpt lat="42.4847236" lon="-7.3408071"><ele>279.6666666666667</ele><time>2026-04-25T12:58:23.054Z</time></trkpt><trkpt lat="42.4848736" lon="-7.3409861"><ele>287.0</ele><time>2026-04-25T12:58:24.056Z</time></trkpt><trkpt lat="42.4850243" lon="-7.3411765"><ele>287.0</ele><time>2026-04-25T12:58:25.051Z</time></trkpt><trkpt lat="42.4851654" lon="-7.3413577"><ele>287.0</ele><time>2026-04-25T12:58:26.056Z</time></trkpt><trkpt lat="42.4853082" lon="-7.3415427"><ele>287.0</ele><time>2026-04-25T12:58:27.055Z</time></trkpt><trkpt lat="42.4854198" lon="-7.3417605"><ele>284.6666666666667</ele><time>2026-04-25T12:58:28.048Z</time></trkpt><trkpt lat="42.4855365" lon="-7.3420014"><ele>282.3333333333333</ele><time>2026-04-25T12:58:29.055Z</time></trkpt><trkpt lat="42.4856331" lon="-7.3422826"><ele>280.0</ele><time>2026-04-25T12:58:30.057Z</time></trkpt><trkpt lat="42.4857392" lon="-7.3425752"><ele>280.0</ele><time>2026-04-25T12:58:31.05Z</time></trkpt><trkpt lat="42.4858609" lon="-7.3428662"><ele>280.0</ele><time>2026-04-25T12:58:32.056Z</time></trkpt><trkpt lat="42.4859737" lon="-7.3431309"><ele>276.0</ele><time>2026-04-25T12:58:33.06Z</time></trkpt><trkpt lat="42.4860817" lon="-7.3433703"><ele>272.0</ele><time>2026-04-25T12:58:34.057Z</time></trkpt><trkpt lat="42.4861836" lon="-7.3435961"><ele>268.0</ele><time>2026-04-25T12:58:35.055Z</time></trkpt><trkpt lat="42.4862602" lon="-7.3437956"><ele>270.75</ele><time>2026-04-25T12:58:36.058Z</time></trkpt><trkpt lat="42.486322" lon="-7.3439729"><ele>273.5</ele><time>2026-04-25T12:58:37.05Z</time></trkpt><trkpt lat="42.4863838" lon="-7.3441365"><ele>276.25</ele><time>2026-04-25T12:58:38.05Z</time></trkpt><trkpt lat="42.4864392" lon="-7.3442759"><ele>279.0</ele><time>2026-04-25T12:58:39.054Z</time></trkpt><trkpt lat="42.4864926" lon="-7.3443869"><ele>279.0</ele><time>2026-04-25T12:58:40.071Z</time></trkpt><trkpt lat="42.4865416" lon="-7.3444835"><ele>279.0</ele><time>2026-04-25T12:58:41.055Z</time></trkpt><trkpt lat="42.4865874" lon="-7.3445852"><ele>279.0</ele><time>2026-04-25T12:58:42.054Z</time></trkpt><trkpt lat="42.4865998" lon="-7.3446914"><ele>279.0</ele><time>2026-04-25T12:58:43.057Z</time></trkpt><trkpt lat="42.4865995" lon="-7.3447823"><ele>279.0</ele><time>2026-04-25T12:58:44.059Z</time></trkpt><trkpt lat="42.4865532" lon="-7.344924"><ele>279.0</ele><time>2026-04-25T12:58:46.06Z</time></trkpt><trkpt lat="42.4864728" lon="-7.3449844"><ele>278.0</ele><time>2026-04-25T12:58:48.062Z</time></trkpt><trkpt lat="42.4863937" lon="-7.3450092"><ele>277.0</ele><time>2026-04-25T12:58:50.062Z</time></trkpt><trkpt lat="42.486325" lon="-7.3450199"><ele>276.0</ele><time>2026-04-25T12:58:52.054Z</time></trkpt><trkpt lat="42.4862445" lon="-7.3450316"><ele>275.0</ele><time>2026-04-25T12:58:54.05Z</time></trkpt><trkpt lat="42.4861791" lon="-7.3450409"><ele>274.0</ele><time>2026-04-25T12:58:55.061Z</time></trkpt><trkpt lat="42.486114" lon="-7.3450518"><ele>273.0</ele><time>2026-04-25T12:58:56.062Z</time></trkpt><trkpt lat="42.4860224" lon="-7.3450835"><ele>273.0</ele><time>2026-04-25T12:58:58.051Z</time></trkpt><trkpt lat="42.4861334" lon="-7.3450312"><ele>273.0</ele><time>2026-04-25T12:59:06.057Z</time></trkpt><trkpt lat="42.4862148" lon="-7.3450226"><ele>273.0</ele><time>2026-04-25T12:59:07.058Z</time></trkpt><trkpt lat="42.4862986" lon="-7.3450141"><ele>273.0</ele><time>2026-04-25T12:59:08.058Z</time></trkpt><trkpt lat="42.4863799" lon="-7.3449895"><ele>273.0</ele><time>2026-04-25T12:59:09.072Z</time></trkpt><trkpt lat="42.486441" lon="-7.3449638"><ele>273.0</ele><time>2026-04-25T12:59:10.049Z</time></trkpt><trkpt lat="42.4864975" lon="-7.3449248"><ele>273.0</ele><time>2026-04-25T12:59:11.051Z</time></trkpt><trkpt lat="42.4865675" lon="-7.3448463"><ele>273.0</ele><time>2026-04-25T12:59:13.049Z</time></trkpt><trkpt lat="42.4866705" lon="-7.3448183"><ele>273.0</ele><time>2026-04-25T12:59:16.056Z</time></trkpt><trkpt lat="42.4867506" lon="-7.3449483"><ele>273.0</ele><time>2026-04-25T12:59:18.052Z</time></trkpt><trkpt lat="42.4867821" lon="-7.3450269"><ele>273.0</ele><time>2026-04-25T12:59:19.044Z</time></trkpt><trkpt lat="42.4868092" lon="-7.3451226"><ele>273.0</ele><time>2026-04-25T12:59:20.052Z</time></trkpt><trkpt lat="42.4868491" lon="-7.3452293"><ele>273.0</ele><time>2026-04-25T12:59:21.046Z</time></trkpt><trkpt lat="42.4869007" lon="-7.3453407"><ele>273.0</ele><time>2026-04-25T12:59:22.052Z</time></trkpt><trkpt lat="42.4869521" lon="-7.3454469"><ele>273.0</ele><time>2026-04-25T12:59:23.052Z</time></trkpt><trkpt lat="42.4870164" lon="-7.3455517"><ele>273.0</ele><time>2026-04-25T12:59:24.05Z</time></trkpt><trkpt lat="42.4870889" lon="-7.3456682"><ele>275.6</ele><time>2026-04-25T12:59:25.054Z</time></trkpt><trkpt lat="42.487162" lon="-7.3457851"><ele>278.20000000000005</ele><time>2026-04-25T12:59:26.052Z</time></trkpt><trkpt lat="42.4872211" lon="-7.3458826"><ele>280.8</ele><time>2026-04-25T12:59:27.051Z</time></trkpt><trkpt lat="42.4872631" lon="-7.3459591"><ele>283.40000000000003</ele><time>2026-04-25T12:59:28.052Z</time></trkpt><trkpt lat="42.4873081" lon="-7.3460754"><ele>286.0</ele><time>2026-04-25T12:59:30.059Z</time></trkpt><trkpt lat="42.4873929" lon="-7.3461568"><ele>286.0</ele><time>2026-04-25T12:59:32.049Z</time></trkpt><trkpt lat="42.4874648" lon="-7.3461355"><ele>286.0</ele><time>2026-04-25T12:59:34.057Z</time></trkpt><trkpt lat="42.487507" lon="-7.3459956"><ele>286.0</ele><time>2026-04-25T12:59:36.055Z</time></trkpt><trkpt lat="42.4874769" lon="-7.3458909"><ele>286.0</ele><time>2026-04-25T12:59:37.057Z</time></trkpt><trkpt lat="42.4874506" lon="-7.3457712"><ele>286.0</ele><time>2026-04-25T12:59:38.055Z</time></trkpt><trkpt lat="42.4874143" lon="-7.3456559"><ele>286.0</ele><time>2026-04-25T12:59:39.049Z</time></trkpt><trkpt lat="42.4873879" lon="-7.3455659"><ele>286.0</ele><time>2026-04-25T12:59:40.056Z</time></trkpt><trkpt lat="42.4873743" lon="-7.3454503"><ele>286.0</ele><time>2026-04-25T12:59:41.049Z</time></trkpt><trkpt lat="42.4873681" lon="-7.3453222"><ele>286.0</ele><time>2026-04-25T12:59:42.052Z</time></trkpt><trkpt lat="42.4873754" lon="-7.3452093"><ele>286.0</ele><time>2026-04-25T12:59:43.056Z</time></trkpt><trkpt lat="42.4874081" lon="-7.3450822"><ele>286.0</ele><time>2026-04-25T12:59:45.046Z</time></trkpt><trkpt lat="42.4875193" lon="-7.34508"><ele>286.0</ele><time>2026-04-25T12:59:47.051Z</time></trkpt><trkpt lat="42.4875787" lon="-7.3451598"><ele>286.0</ele><time>2026-04-25T12:59:48.054Z</time></trkpt><trkpt lat="42.4876143" lon="-7.3452443"><ele>286.0</ele><time>2026-04-25T12:59:49.056Z</time></trkpt><trkpt lat="42.4876483" lon="-7.3453367"><ele>286.0</ele><time>2026-04-25T12:59:50.054Z</time></trkpt><trkpt lat="42.4877004" lon="-7.3454497"><ele>286.0</ele><time>2026-04-25T12:59:51.058Z</time></trkpt><trkpt lat="42.4877689" lon="-7.3455533"><ele>286.0</ele><time>2026-04-25T12:59:52.052Z</time></trkpt><trkpt lat="42.4878507" lon="-7.3456433"><ele>286.0</ele><time>2026-04-25T12:59:53.051Z</time></trkpt><trkpt lat="42.4879135" lon="-7.3457208"><ele>286.0</ele><time>2026-04-25T12:59:54.049Z</time></trkpt><trkpt lat="42.4879707" lon="-7.3457891"><ele>286.0</ele><time>2026-04-25T12:59:55.055Z</time></trkpt><trkpt lat="42.4880505" lon="-7.3458374"><ele>286.0</ele><time>2026-04-25T12:59:56.052Z</time></trkpt><trkpt lat="42.4881546" lon="-7.345854"><ele>286.0</ele><time>2026-04-25T12:59:57.05Z</time></trkpt><trkpt lat="42.4882531" lon="-7.3458546"><ele>288.0</ele><time>2026-04-25T12:59:58.048Z</time></trkpt><trkpt lat="42.4883383" lon="-7.3458263"><ele>290.0</ele><time>2026-04-25T12:59:59.05Z</time></trkpt><trkpt lat="42.4884218" lon="-7.3458026"><ele>292.0</ele><time>2026-04-25T13:00:00.051Z</time></trkpt><trkpt lat="42.4885037" lon="-7.3457653"><ele>294.0</ele><time>2026-04-25T13:00:01.055Z</time></trkpt><trkpt lat="42.4885854" lon="-7.3457008"><ele>296.0</ele><time>2026-04-25T13:00:02.047Z</time></trkpt><trkpt lat="42.488655" lon="-7.3456399"><ele>298.0</ele><time>2026-04-25T13:00:03.054Z</time></trkpt><trkpt lat="42.4887045" lon="-7.3455785"><ele>301.0</ele><time>2026-04-25T13:00:04.054Z</time></trkpt><trkpt lat="42.4887177" lon="-7.3454367"><ele>304.0</ele><time>2026-04-25T13:00:06.057Z</time></trkpt><trkpt lat="42.4886348" lon="-7.3453726"><ele>307.0</ele><time>2026-04-25T13:00:08.063Z</time></trkpt><trkpt lat="42.4885707" lon="-7.3453805"><ele>310.0</ele><time>2026-04-25T13:00:09.052Z</time></trkpt><trkpt lat="42.488474" lon="-7.3453343"><ele>313.0</ele><time>2026-04-25T13:00:10.06Z</time></trkpt><trkpt lat="42.4884072" lon="-7.3452283"><ele>313.0</ele><time>2026-04-25T13:00:11.062Z</time></trkpt><trkpt lat="42.4883404" lon="-7.3451016"><ele>313.0</ele><time>2026-04-25T13:00:12.057Z</time></trkpt><trkpt lat="42.4882757" lon="-7.344955"><ele>313.0</ele><time>2026-04-25T13:00:13.051Z</time></trkpt><trkpt lat="42.4882218" lon="-7.3448259"><ele>313.0</ele><time>2026-04-25T13:00:14.057Z</time></trkpt><trkpt lat="42.4881906" lon="-7.3446986"><ele>313.0</ele><time>2026-04-25T13:00:15.06Z</time></trkpt><trkpt lat="42.4881726" lon="-7.3445681"><ele>317.0</ele><time>2026-04-25T13:00:16.059Z</time></trkpt><trkpt lat="42.4881524" lon="-7.344415"><ele>321.0</ele><time>2026-04-25T13:00:17.054Z</time></trkpt><trkpt lat="42.4881262" lon="-7.3442442"><ele>325.0</ele><time>2026-04-25T13:00:18.053Z</time></trkpt><trkpt lat="42.488096" lon="-7.3440639"><ele>329.0</ele><time>2026-04-25T13:00:19.053Z</time></trkpt><trkpt lat="42.4880771" lon="-7.3438944"><ele>330.6666666666667</ele><time>2026-04-25T13:00:20.059Z</time></trkpt><trkpt lat="42.4880647" lon="-7.3437559"><ele>332.33333333333337</ele><time>2026-04-25T13:00:21.05Z</time></trkpt><trkpt lat="42.4880576" lon="-7.3436481"><ele>334.0</ele><time>2026-04-25T13:00:22.049Z</time></trkpt><trkpt lat="42.4881152" lon="-7.3435322"><ele>335.6666666666667</ele><time>2026-04-25T13:00:24.052Z</time></trkpt><trkpt lat="42.4882028" lon="-7.3435662"><ele>337.3333333333333</ele><time>2026-04-25T13:00:26.056Z</time></trkpt><trkpt lat="42.4882501" lon="-7.3436308"><ele>339.0</ele><time>2026-04-25T13:00:27.06Z</time></trkpt><trkpt lat="42.4883039" lon="-7.3437266"><ele>339.0</ele><time>2026-04-25T13:00:28.055Z</time></trkpt><trkpt lat="42.4883875" lon="-7.3438207"><ele>339.0</ele><time>2026-04-25T13:00:29.054Z</time></trkpt><trkpt lat="42.4884848" lon="-7.3439089"><ele>339.0</ele><time>2026-04-25T13:00:30.058Z</time></trkpt><trkpt lat="42.4885788" lon="-7.3439739"><ele>339.0</ele><time>2026-04-25T13:00:31.052Z</time></trkpt><trkpt lat="42.4886677" lon="-7.3440264"><ele>339.0</ele><time>2026-04-25T13:00:32.055Z</time></trkpt><trkpt lat="42.4887615" lon="-7.3440285"><ele>337.4</ele><time>2026-04-25T13:00:33.055Z</time></trkpt><trkpt lat="42.4888932" lon="-7.3440023"><ele>335.79999999999995</ele><time>2026-04-25T13:00:34.061Z</time></trkpt><trkpt lat="42.4890049" lon="-7.3439695"><ele>334.20000000000005</ele><time>2026-04-25T13:00:35.052Z</time></trkpt><trkpt lat="42.4890906" lon="-7.3439315"><ele>332.6</ele><time>2026-04-25T13:00:36.055Z</time></trkpt><trkpt lat="42.4891429" lon="-7.3438755"><ele>331.0</ele><time>2026-04-25T13:00:37.058Z</time></trkpt><trkpt lat="42.4891236" lon="-7.3437461"><ele>336.75</ele><time>2026-04-25T13:00:39.055Z</time></trkpt><trkpt lat="42.4890162" lon="-7.3436323"><ele>342.5</ele><time>2026-04-25T13:00:41.061Z</time></trkpt><trkpt lat="42.4889442" lon="-7.3435469"><ele>348.25</ele><time>2026-04-25T13:00:42.056Z</time></trkpt><trkpt lat="42.4888702" lon="-7.3434247"><ele>354.0</ele><time>2026-04-25T13:00:43.06Z</time></trkpt><trkpt lat="42.4888058" lon="-7.3432885"><ele>353.2</ele><time>2026-04-25T13:00:44.055Z</time></trkpt><trkpt lat="42.4887539" lon="-7.3431299"><ele>352.4</ele><time>2026-04-25T13:00:45.05Z</time></trkpt><trkpt lat="42.4887241" lon="-7.3429902"><ele>351.6</ele><time>2026-04-25T13:00:46.054Z</time></trkpt><trkpt lat="42.4887153" lon="-7.3428511"><ele>350.8</ele><time>2026-04-25T13:00:47.058Z</time></trkpt><trkpt lat="42.4887233" lon="-7.3427099"><ele>350.0</ele><time>2026-04-25T13:00:48.067Z</time></trkpt><trkpt lat="42.4887495" lon="-7.3425853"><ele>352.83333333333337</ele><time>2026-04-25T13:00:49.054Z</time></trkpt><trkpt lat="42.4887789" lon="-7.3424963"><ele>355.6666666666667</ele><time>2026-04-25T13:00:50.058Z</time></trkpt><trkpt lat="42.4888207" lon="-7.3424114"><ele>358.5</ele><time>2026-04-25T13:00:52.061Z</time></trkpt><trkpt lat="42.4888308" lon="-7.3423175"><ele>361.3333333333333</ele><time>2026-04-25T13:00:54.066Z</time></trkpt><trkpt lat="42.4888082" lon="-7.3422309"><ele>364.16666666666663</ele><time>2026-04-25T13:00:56.062Z</time></trkpt><trkpt lat="42.4888208" lon="-7.3421085"><ele>367.0</ele><time>2026-04-25T13:00:58.06Z</time></trkpt><trkpt lat="42.4888713" lon="-7.3419842"><ele>369.0</ele><time>2026-04-25T13:01:00.059Z</time></trkpt><trkpt lat="42.4889277" lon="-7.3418537"><ele>371.0</ele><time>2026-04-25T13:01:02.052Z</time></trkpt><trkpt lat="42.4889962" lon="-7.3416889"><ele>373.0</ele><time>2026-04-25T13:01:04.059Z</time></trkpt><trkpt lat="42.489025" lon="-7.3416059"><ele>375.0</ele><time>2026-04-25T13:01:05.06Z</time></trkpt><trkpt lat="42.4890386" lon="-7.3414659"><ele>377.0</ele><time>2026-04-25T13:01:07.06Z</time></trkpt><trkpt lat="42.4889702" lon="-7.3413704"><ele>378.8</ele><time>2026-04-25T13:01:09.055Z</time></trkpt><trkpt lat="42.4888952" lon="-7.3413451"><ele>380.6</ele><time>2026-04-25T13:01:10.05Z</time></trkpt><trkpt lat="42.4888081" lon="-7.3413192"><ele>382.40000000000003</ele><time>2026-04-25T13:01:11.057Z</time></trkpt><trkpt lat="42.4887087" lon="-7.3412418"><ele>384.20000000000005</ele><time>2026-04-25T13:01:12.056Z</time></trkpt><trkpt lat="42.488599" lon="-7.3411525"><ele>386.0</ele><time>2026-04-25T13:01:13.058Z</time></trkpt><trkpt lat="42.4884714" lon="-7.3410735"><ele>386.0</ele><time>2026-04-25T13:01:14.055Z</time></trkpt><trkpt lat="42.4883357" lon="-7.340997"><ele>386.0</ele><time>2026-04-25T13:01:15.054Z</time></trkpt><trkpt lat="42.4881967" lon="-7.3409025"><ele>386.0</ele><time>2026-04-25T13:01:16.055Z</time></trkpt><trkpt lat="42.4880595" lon="-7.3407893"><ele>385.0</ele><time>2026-04-25T13:01:17.058Z</time></trkpt><trkpt lat="42.4879266" lon="-7.3406559"><ele>384.0</ele><time>2026-04-25T13:01:18.05Z</time></trkpt><trkpt lat="42.4877933" lon="-7.3405124"><ele>383.0</ele><time>2026-04-25T13:01:19.052Z</time></trkpt><trkpt lat="42.4876751" lon="-7.3403535"><ele>387.5</ele><time>2026-04-25T13:01:20.059Z</time></trkpt><trkpt lat="42.4875796" lon="-7.3402189"><ele>392.0</ele><time>2026-04-25T13:01:21.051Z</time></trkpt><trkpt lat="42.4874971" lon="-7.3400798"><ele>396.5</ele><time>2026-04-25T13:01:22.057Z</time></trkpt><trkpt lat="42.4874273" lon="-7.339929"><ele>401.0</ele><time>2026-04-25T13:01:23.054Z</time></trkpt><trkpt lat="42.4873684" lon="-7.3397661"><ele>404.0</ele><time>2026-04-25T13:01:24.053Z</time></trkpt><trkpt lat="42.4873181" lon="-7.3395912"><ele>407.0</ele><time>2026-04-25T13:01:25.066Z</time></trkpt><trkpt lat="42.4872889" lon="-7.3394385"><ele>410.0</ele><time>2026-04-25T13:01:26.067Z</time></trkpt><trkpt lat="42.4872803" lon="-7.3392981"><ele>413.0</ele><time>2026-04-25T13:01:27.056Z</time></trkpt><trkpt lat="42.487283" lon="-7.3391591"><ele>413.0</ele><time>2026-04-25T13:01:28.048Z</time></trkpt><trkpt lat="42.4873177" lon="-7.339006"><ele>413.0</ele><time>2026-04-25T13:01:29.055Z</time></trkpt><trkpt lat="42.4873793" lon="-7.3388662"><ele>413.0</ele><time>2026-04-25T13:01:30.058Z</time></trkpt><trkpt lat="42.4874567" lon="-7.3387341"><ele>413.0</ele><time>2026-04-25T13:01:31.054Z</time></trkpt><trkpt lat="42.4875599" lon="-7.3385811"><ele>415.0</ele><time>2026-04-25T13:01:32.051Z</time></trkpt><trkpt lat="42.4876516" lon="-7.3384227"><ele>417.0</ele><time>2026-04-25T13:01:33.057Z</time></trkpt><trkpt lat="42.4877411" lon="-7.3382406"><ele>419.0</ele><time>2026-04-25T13:01:34.065Z</time></trkpt><trkpt lat="42.4878223" lon="-7.338053"><ele>416.25</ele><time>2026-04-25T13:01:35.056Z</time></trkpt><trkpt lat="42.4879074" lon="-7.3378893"><ele>413.5</ele><time>2026-04-25T13:01:36.055Z</time></trkpt><trkpt lat="42.4879927" lon="-7.3377401"><ele>410.75</ele><time>2026-04-25T13:01:37.066Z</time></trkpt><trkpt lat="42.4881054" lon="-7.3375856"><ele>408.0</ele><time>2026-04-25T13:01:38.066Z</time></trkpt><trkpt lat="42.4882391" lon="-7.3374353"><ele>413.0</ele><time>2026-04-25T13:01:39.058Z</time></trkpt><trkpt lat="42.4883958" lon="-7.3372869"><ele>418.0</ele><time>2026-04-25T13:01:40.062Z</time></trkpt><trkpt lat="42.4885607" lon="-7.3371163"><ele>423.0</ele><time>2026-04-25T13:01:41.059Z</time></trkpt><trkpt lat="42.4887268" lon="-7.3369322"><ele>435.0</ele><time>2026-04-25T13:01:42.062Z</time></trkpt><trkpt lat="42.4888897" lon="-7.3367466"><ele>447.0</ele><time>2026-04-25T13:01:43.064Z</time></trkpt><trkpt lat="42.4890291" lon="-7.3365791"><ele>459.0</ele><time>2026-04-25T13:01:44.062Z</time></trkpt><trkpt lat="42.4891595" lon="-7.3364235"><ele>451.66666666666663</ele><time>2026-04-25T13:01:45.054Z</time></trkpt><trkpt lat="42.4892874" lon="-7.3362722"><ele>444.3333333333333</ele><time>2026-04-25T13:01:46.068Z</time></trkpt><trkpt lat="42.4894095" lon="-7.3361277"><ele>437.0</ele><time>2026-04-25T13:01:47.06Z</time></trkpt><trkpt lat="42.4895311" lon="-7.3359863"><ele>448.0</ele><time>2026-04-25T13:01:48.053Z</time></trkpt><trkpt lat="42.4896645" lon="-7.3358441"><ele>459.0</ele><time>2026-04-25T13:01:49.057Z</time></trkpt><trkpt lat="42.4897932" lon="-7.335715"><ele>470.0</ele><time>2026-04-25T13:01:50.058Z</time></trkpt><trkpt lat="42.4899089" lon="-7.3355895"><ele>464.75</ele><time>2026-04-25T13:01:51.055Z</time></trkpt><trkpt lat="42.4900093" lon="-7.3354604"><ele>459.5</ele><time>2026-04-25T13:01:52.058Z</time></trkpt><trkpt lat="42.4900928" lon="-7.3353322"><ele>454.25</ele><time>2026-04-25T13:01:53.055Z</time></trkpt><trkpt lat="42.4901797" lon="-7.3352083"><ele>449.0</ele><time>2026-04-25T13:01:54.058Z</time></trkpt><trkpt lat="42.4902908" lon="-7.335083"><ele>449.0</ele><time>2026-04-25T13:01:55.061Z</time></trkpt><trkpt lat="42.4904075" lon="-7.3349689"><ele>449.0</ele><time>2026-04-25T13:01:56.06Z</time></trkpt><trkpt lat="42.4905284" lon="-7.3348625"><ele>449.0</ele><time>2026-04-25T13:01:57.054Z</time></trkpt><trkpt lat="42.490664" lon="-7.3347551"><ele>449.0</ele><time>2026-04-25T13:01:58.06Z</time></trkpt><trkpt lat="42.4908129" lon="-7.3346488"><ele>445.3333333333333</ele><time>2026-04-25T13:01:59.066Z</time></trkpt><trkpt lat="42.4909568" lon="-7.3345466"><ele>441.66666666666663</ele><time>2026-04-25T13:02:00.049Z</time></trkpt><trkpt lat="42.4910965" lon="-7.3344536"><ele>438.0</ele><time>2026-04-25T13:02:01.051Z</time></trkpt><trkpt lat="42.4912319" lon="-7.3343695"><ele>445.0</ele><time>2026-04-25T13:02:02.062Z</time></trkpt><trkpt lat="42.4913577" lon="-7.3342909"><ele>452.0</ele><time>2026-04-25T13:02:03.059Z</time></trkpt><trkpt lat="42.4914692" lon="-7.3342259"><ele>459.0</ele><time>2026-04-25T13:02:04.064Z</time></trkpt><trkpt lat="42.4915698" lon="-7.3341704"><ele>466.0</ele><time>2026-04-25T13:02:05.053Z</time></trkpt><trkpt lat="42.491651" lon="-7.3341168"><ele>466.0</ele><time>2026-04-25T13:02:06.057Z</time></trkpt><trkpt lat="42.4917088" lon="-7.3340523"><ele>466.0</ele><time>2026-04-25T13:02:07.051Z</time></trkpt><trkpt lat="42.4917401" lon="-7.333961"><ele>466.0</ele><time>2026-04-25T13:02:08.055Z</time></trkpt><trkpt lat="42.491771" lon="-7.3338559"><ele>466.0</ele><time>2026-04-25T13:02:09.049Z</time></trkpt><trkpt lat="42.4917471" lon="-7.3336888"><ele>466.0</ele><time>2026-04-25T13:02:10.052Z</time></trkpt><trkpt lat="42.4917083" lon="-7.3334994"><ele>460.5</ele><time>2026-04-25T13:02:11.058Z</time></trkpt><trkpt lat="42.4916831" lon="-7.333318"><ele>455.0</ele><time>2026-04-25T13:02:12.05Z</time></trkpt><trkpt lat="42.4916961" lon="-7.3331457"><ele>449.5</ele><time>2026-04-25T13:02:13.053Z</time></trkpt><trkpt lat="42.4917267" lon="-7.3329865"><ele>444.0</ele><time>2026-04-25T13:02:14.054Z</time></trkpt><trkpt lat="42.4917735" lon="-7.3328308"><ele>441.0</ele><time>2026-04-25T13:02:15.049Z</time></trkpt><trkpt lat="42.4918423" lon="-7.3326937"><ele>438.0</ele><time>2026-04-25T13:02:16.056Z</time></trkpt><trkpt lat="42.4919291" lon="-7.3325731"><ele>435.0</ele><time>2026-04-25T13:02:17.114Z</time></trkpt><trkpt lat="42.4920285" lon="-7.3324818"><ele>432.0</ele><time>2026-04-25T13:02:18.054Z</time></trkpt><trkpt lat="42.4921319" lon="-7.3324284"><ele>439.25</ele><time>2026-04-25T13:02:19.05Z</time></trkpt><trkpt lat="42.4922526" lon="-7.3323994"><ele>446.5</ele><time>2026-04-25T13:02:20.057Z</time></trkpt><trkpt lat="42.4923925" lon="-7.3323867"><ele>453.75</ele><time>2026-04-25T13:02:21.051Z</time></trkpt><trkpt lat="42.4925408" lon="-7.3323935"><ele>461.0</ele><time>2026-04-25T13:02:22.056Z</time></trkpt><trkpt lat="42.4926672" lon="-7.3323809"><ele>461.0</ele><time>2026-04-25T13:02:23.05Z</time></trkpt><trkpt lat="42.4927701" lon="-7.3323219"><ele>461.0</ele><time>2026-04-25T13:02:24.061Z</time></trkpt><trkpt lat="42.4928702" lon="-7.3322151"><ele>461.0</ele><time>2026-04-25T13:02:25.048Z</time></trkpt><trkpt lat="42.4929678" lon="-7.3320662"><ele>461.0</ele><time>2026-04-25T13:02:26.051Z</time></trkpt><trkpt lat="42.4930529" lon="-7.3318976"><ele>462.75</ele><time>2026-04-25T13:02:27.048Z</time></trkpt><trkpt lat="42.4931177" lon="-7.3317432"><ele>464.5</ele><time>2026-04-25T13:02:28.058Z</time></trkpt><trkpt lat="42.4931588" lon="-7.3316015"><ele>466.25</ele><time>2026-04-25T13:02:29.055Z</time></trkpt><trkpt lat="42.4931601" lon="-7.3314628"><ele>468.0</ele><time>2026-04-25T13:02:30.048Z</time></trkpt><trkpt lat="42.4931575" lon="-7.3313069"><ele>468.0</ele><time>2026-04-25T13:02:31.049Z</time></trkpt><trkpt lat="42.4931368" lon="-7.3311253"><ele>468.0</ele><time>2026-04-25T13:02:32.047Z</time></trkpt><trkpt lat="42.4931361" lon="-7.3309588"><ele>468.0</ele><time>2026-04-25T13:02:33.049Z</time></trkpt><trkpt lat="42.4931652" lon="-7.3308023"><ele>468.0</ele><time>2026-04-25T13:02:34.051Z</time></trkpt><trkpt lat="42.493216" lon="-7.330631"><ele>466.33333333333337</ele><time>2026-04-25T13:02:35.059Z</time></trkpt><trkpt lat="42.493292" lon="-7.3304328"><ele>464.6666666666667</ele><time>2026-04-25T13:02:36.062Z</time></trkpt><trkpt lat="42.4933748" lon="-7.3302185"><ele>463.0</ele><time>2026-04-25T13:02:37.059Z</time></trkpt><trkpt lat="42.4934466" lon="-7.330054"><ele>463.0</ele><time>2026-04-25T13:02:38.055Z</time></trkpt><trkpt lat="42.4935382" lon="-7.3299117"><ele>463.0</ele><time>2026-04-25T13:02:39.055Z</time></trkpt><trkpt lat="42.4936563" lon="-7.3297779"><ele>463.0</ele><time>2026-04-25T13:02:40.049Z</time></trkpt><trkpt lat="42.4938007" lon="-7.3296377"><ele>467.0</ele><time>2026-04-25T13:02:41.052Z</time></trkpt><trkpt lat="42.4939524" lon="-7.3295032"><ele>471.0</ele><time>2026-04-25T13:02:42.052Z</time></trkpt><trkpt lat="42.4940877" lon="-7.3293778"><ele>475.0</ele><time>2026-04-25T13:02:43.047Z</time></trkpt><trkpt lat="42.4941981" lon="-7.3292482"><ele>475.0</ele><time>2026-04-25T13:02:44.053Z</time></trkpt><trkpt lat="42.4942905" lon="-7.3290899"><ele>475.0</ele><time>2026-04-25T13:02:45.049Z</time></trkpt><trkpt lat="42.4943699" lon="-7.3288969"><ele>475.0</ele><time>2026-04-25T13:02:46.057Z</time></trkpt><trkpt lat="42.4944391" lon="-7.3286655"><ele>472.33333333333337</ele><time>2026-04-25T13:02:47.05Z</time></trkpt><trkpt lat="42.4945127" lon="-7.328413"><ele>469.66666666666663</ele><time>2026-04-25T13:02:48.054Z</time></trkpt><trkpt lat="42.4945778" lon="-7.3281716"><ele>467.0</ele><time>2026-04-25T13:02:49.057Z</time></trkpt><trkpt lat="42.4946183" lon="-7.3279342"><ele>474.25</ele><time>2026-04-25T13:02:50.051Z</time></trkpt><trkpt lat="42.4946445" lon="-7.327708"><ele>481.5</ele><time>2026-04-25T13:02:51.052Z</time></trkpt><trkpt lat="42.4946582" lon="-7.3275338"><ele>488.75</ele><time>2026-04-25T13:02:52.051Z</time></trkpt><trkpt lat="42.4946641" lon="-7.3273939"><ele>496.0</ele><time>2026-04-25T13:02:53.06Z</time></trkpt><trkpt lat="42.4946921" lon="-7.3273009"><ele>493.6</ele><time>2026-04-25T13:02:54.058Z</time></trkpt><trkpt lat="42.4947419" lon="-7.327211"><ele>491.20000000000005</ele><time>2026-04-25T13:02:55.062Z</time></trkpt><trkpt lat="42.4948172" lon="-7.3271374"><ele>488.79999999999995</ele><time>2026-04-25T13:02:56.068Z</time></trkpt><trkpt lat="42.4949116" lon="-7.327082"><ele>486.4</ele><time>2026-04-25T13:02:57.059Z</time></trkpt><trkpt lat="42.4950284" lon="-7.3270395"><ele>484.0</ele><time>2026-04-25T13:02:58.061Z</time></trkpt><trkpt lat="42.4951407" lon="-7.3270304"><ele>484.0</ele><time>2026-04-25T13:02:59.057Z</time></trkpt><trkpt lat="42.4952519" lon="-7.3270591"><ele>484.0</ele><time>2026-04-25T13:03:00.052Z</time></trkpt><trkpt lat="42.4953754" lon="-7.3271151"><ele>484.0</ele><time>2026-04-25T13:03:01.052Z</time></trkpt><trkpt lat="42.4954949" lon="-7.3271584"><ele>484.0</ele><time>2026-04-25T13:03:02.055Z</time></trkpt><trkpt lat="42.4956154" lon="-7.3271829"><ele>488.00000000000006</ele><time>2026-04-25T13:03:03.056Z</time></trkpt><trkpt lat="42.4957149" lon="-7.3271868"><ele>492.0</ele><time>2026-04-25T13:03:04.062Z</time></trkpt><trkpt lat="42.4957909" lon="-7.3271718"><ele>496.0</ele><time>2026-04-25T13:03:05.057Z</time></trkpt><trkpt lat="42.4958642" lon="-7.3270746"><ele>500.0</ele><time>2026-04-25T13:03:07.061Z</time></trkpt><trkpt lat="42.4958692" lon="-7.3269851"><ele>504.00000000000006</ele><time>2026-04-25T13:03:08.051Z</time></trkpt><trkpt lat="42.4958619" lon="-7.3268604"><ele>508.0</ele><time>2026-04-25T13:03:09.053Z</time></trkpt><trkpt lat="42.4958715" lon="-7.3267163"><ele>508.0</ele><time>2026-04-25T13:03:10.055Z</time></trkpt><trkpt lat="42.4959082" lon="-7.3265561"><ele>508.0</ele><time>2026-04-25T13:03:11.049Z</time></trkpt><trkpt lat="42.4959595" lon="-7.3263684"><ele>508.0</ele><time>2026-04-25T13:03:12.056Z</time></trkpt><trkpt lat="42.4960065" lon="-7.3261989"><ele>508.0</ele><time>2026-04-25T13:03:13.057Z</time></trkpt><trkpt lat="42.4960499" lon="-7.3260776"><ele>505.59999999999997</ele><time>2026-04-25T13:03:14.054Z</time></trkpt><trkpt lat="42.4960976" lon="-7.3260035"><ele>503.19999999999993</ele><time>2026-04-25T13:03:15.049Z</time></trkpt><trkpt lat="42.4962013" lon="-7.3259186"><ele>500.8</ele><time>2026-04-25T13:03:17.057Z</time></trkpt><trkpt lat="42.4962597" lon="-7.325861"><ele>498.4</ele><time>2026-04-25T13:03:18.059Z</time></trkpt><trkpt lat="42.4963371" lon="-7.325803"><ele>496.0</ele><time>2026-04-25T13:03:19.061Z</time></trkpt><trkpt lat="42.4964365" lon="-7.3257503"><ele>502.4</ele><time>2026-04-25T13:03:20.063Z</time></trkpt><trkpt lat="42.4965589" lon="-7.3256989"><ele>508.8</ele><time>2026-04-25T13:03:21.057Z</time></trkpt><trkpt lat="42.49666" lon="-7.3256505"><ele>515.1999999999999</ele><time>2026-04-25T13:03:22.057Z</time></trkpt><trkpt lat="42.4967402" lon="-7.3255826"><ele>521.6</ele><time>2026-04-25T13:03:23.054Z</time></trkpt><trkpt lat="42.4967809" lon="-7.3255166"><ele>528.0</ele><time>2026-04-25T13:03:24.05Z</time></trkpt><trkpt lat="42.4967398" lon="-7.3253685"><ele>528.0</ele><time>2026-04-25T13:03:26.057Z</time></trkpt><trkpt lat="42.4966688" lon="-7.325268"><ele>528.0</ele><time>2026-04-25T13:03:27.051Z</time></trkpt><trkpt lat="42.4965717" lon="-7.3251382"><ele>528.0</ele><time>2026-04-25T13:03:28.05Z</time></trkpt><trkpt lat="42.4964725" lon="-7.325015"><ele>528.0</ele><time>2026-04-25T13:03:29.051Z</time></trkpt><trkpt lat="42.4963792" lon="-7.3248993"><ele>528.0</ele><time>2026-04-25T13:03:30.05Z</time></trkpt><trkpt lat="42.496283" lon="-7.3248067"><ele>528.0</ele><time>2026-04-25T13:03:31.056Z</time></trkpt><trkpt lat="42.4961635" lon="-7.3247131"><ele>528.0</ele><time>2026-04-25T13:03:32.052Z</time></trkpt><trkpt lat="42.4960351" lon="-7.3246159"><ele>528.0</ele><time>2026-04-25T13:03:33.05Z</time></trkpt><trkpt lat="42.4959046" lon="-7.3245237"><ele>527.1999999999999</ele><time>2026-04-25T13:03:34.052Z</time></trkpt><trkpt lat="42.4958076" lon="-7.3244245"><ele>526.4</ele><time>2026-04-25T13:03:35.045Z</time></trkpt><trkpt lat="42.4957271" lon="-7.3243263"><ele>525.5999999999999</ele><time>2026-04-25T13:03:36.052Z</time></trkpt><trkpt lat="42.4956643" lon="-7.3242249"><ele>524.8</ele><time>2026-04-25T13:03:37.055Z</time></trkpt><trkpt lat="42.495615" lon="-7.3241064"><ele>524.0</ele><time>2026-04-25T13:03:38.055Z</time></trkpt><trkpt lat="42.49559" lon="-7.3239792"><ele>526.25</ele><time>2026-04-25T13:03:39.049Z</time></trkpt><trkpt lat="42.4955822" lon="-7.3238276"><ele>528.5</ele><time>2026-04-25T13:03:40.052Z</time></trkpt><trkpt lat="42.4955959" lon="-7.3236689"><ele>530.75</ele><time>2026-04-25T13:03:41.058Z</time></trkpt><trkpt lat="42.4956326" lon="-7.3235222"><ele>533.0</ele><time>2026-04-25T13:03:42.053Z</time></trkpt><trkpt lat="42.4956943" lon="-7.3233751"><ele>533.0</ele><time>2026-04-25T13:03:43.053Z</time></trkpt><trkpt lat="42.4957626" lon="-7.323246"><ele>533.0</ele><time>2026-04-25T13:03:44.052Z</time></trkpt><trkpt lat="42.4958098" lon="-7.3231374"><ele>533.0</ele><time>2026-04-25T13:03:45.051Z</time></trkpt><trkpt lat="42.4958188" lon="-7.3230361"><ele>533.0</ele><time>2026-04-25T13:03:46.049Z</time></trkpt><trkpt lat="42.4957548" lon="-7.3228935"><ele>533.0</ele><time>2026-04-25T13:03:48.055Z</time></trkpt><trkpt lat="42.4956585" lon="-7.3228368"><ele>536.3333333333333</ele><time>2026-04-25T13:03:49.051Z</time></trkpt><trkpt lat="42.4955377" lon="-7.322741"><ele>539.6666666666666</ele><time>2026-04-25T13:03:50.049Z</time></trkpt><trkpt lat="42.495424" lon="-7.3226044"><ele>543.0</ele><time>2026-04-25T13:03:51.055Z</time></trkpt><trkpt lat="42.4953096" lon="-7.3224427"><ele>535.0</ele><time>2026-04-25T13:03:52.055Z</time></trkpt><trkpt lat="42.4952161" lon="-7.3222685"><ele>527.0</ele><time>2026-04-25T13:03:53.064Z</time></trkpt><trkpt lat="42.4951402" lon="-7.3220939"><ele>519.0</ele><time>2026-04-25T13:03:54.05Z</time></trkpt><trkpt lat="42.4950733" lon="-7.3219148"><ele>519.0</ele><time>2026-04-25T13:03:55.053Z</time></trkpt><trkpt lat="42.4950196" lon="-7.3217303"><ele>519.0</ele><time>2026-04-25T13:03:56.058Z</time></trkpt><trkpt lat="42.4949882" lon="-7.3215306"><ele>519.0</ele><time>2026-04-25T13:03:57.056Z</time></trkpt><trkpt lat="42.4949753" lon="-7.3213219"><ele>518.0</ele><time>2026-04-25T13:03:58.055Z</time></trkpt><trkpt lat="42.4949751" lon="-7.3211279"><ele>517.0</ele><time>2026-04-25T13:03:59.053Z</time></trkpt><trkpt lat="42.4949917" lon="-7.320932"><ele>516.0</ele><time>2026-04-25T13:04:00.053Z</time></trkpt><trkpt lat="42.4950286" lon="-7.3207324"><ele>515.0</ele><time>2026-04-25T13:04:01.052Z</time></trkpt><trkpt lat="42.4950855" lon="-7.3205449"><ele>515.0</ele><time>2026-04-25T13:04:02.053Z</time></trkpt><trkpt lat="42.4951659" lon="-7.3203426"><ele>515.0</ele><time>2026-04-25T13:04:03.055Z</time></trkpt><trkpt lat="42.4952529" lon="-7.32014"><ele>515.0</ele><time>2026-04-25T13:04:04.064Z</time></trkpt><trkpt lat="42.495336" lon="-7.3199526"><ele>515.0</ele><time>2026-04-25T13:04:05.06Z</time></trkpt><trkpt lat="42.4954125" lon="-7.3197865"><ele>515.0</ele><time>2026-04-25T13:04:06.059Z</time></trkpt><trkpt lat="42.4954924" lon="-7.3196407"><ele>515.0</ele><time>2026-04-25T13:04:07.053Z</time></trkpt><trkpt lat="42.4955943" lon="-7.3195098"><ele>515.0</ele><time>2026-04-25T13:04:08.058Z</time></trkpt><trkpt lat="42.4957082" lon="-7.3194024"><ele>517.6</ele><time>2026-04-25T13:04:09.063Z</time></trkpt><trkpt lat="42.4958013" lon="-7.319318"><ele>520.2</ele><time>2026-04-25T13:04:10.054Z</time></trkpt><trkpt lat="42.4958841" lon="-7.3192314"><ele>522.8</ele><time>2026-04-25T13:04:11.047Z</time></trkpt><trkpt lat="42.4959337" lon="-7.3191574"><ele>525.4</ele><time>2026-04-25T13:04:12.052Z</time></trkpt><trkpt lat="42.4959807" lon="-7.3190169"><ele>528.0</ele><time>2026-04-25T13:04:13.059Z</time></trkpt><trkpt lat="42.4960249" lon="-7.3188819"><ele>528.0</ele><time>2026-04-25T13:04:14.05Z</time></trkpt><trkpt lat="42.4960801" lon="-7.3187936"><ele>528.0</ele><time>2026-04-25T13:04:15.055Z</time></trkpt><trkpt lat="42.4961624" lon="-7.318738"><ele>528.0</ele><time>2026-04-25T13:04:16.052Z</time></trkpt><trkpt lat="42.4962516" lon="-7.3186901"><ele>528.0</ele><time>2026-04-25T13:04:17.053Z</time></trkpt><trkpt lat="42.4963782" lon="-7.3186849"><ele>528.0</ele><time>2026-04-25T13:04:18.052Z</time></trkpt><trkpt lat="42.4965032" lon="-7.3186791"><ele>531.1999999999999</ele><time>2026-04-25T13:04:19.052Z</time></trkpt><trkpt lat="42.4966223" lon="-7.3187094"><ele>534.4</ele><time>2026-04-25T13:04:20.056Z</time></trkpt><trkpt lat="42.4967094" lon="-7.3187294"><ele>537.5999999999999</ele><time>2026-04-25T13:04:21.047Z</time></trkpt><trkpt lat="42.496775" lon="-7.3187329"><ele>540.8</ele><time>2026-04-25T13:04:22.046Z</time></trkpt><trkpt lat="42.4968163" lon="-7.3186104"><ele>544.0</ele><time>2026-04-25T13:04:24.067Z</time></trkpt><trkpt lat="42.496831" lon="-7.3184984"><ele>544.0</ele><time>2026-04-25T13:04:25.048Z</time></trkpt><trkpt lat="42.4968737" lon="-7.3183837"><ele>544.0</ele><time>2026-04-25T13:04:26.054Z</time></trkpt><trkpt lat="42.4969413" lon="-7.318259"><ele>544.0</ele><time>2026-04-25T13:04:27.062Z</time></trkpt><trkpt lat="42.4970054" lon="-7.3181213"><ele>544.0</ele><time>2026-04-25T13:04:28.051Z</time></trkpt><trkpt lat="42.4970684" lon="-7.3180048"><ele>544.0</ele><time>2026-04-25T13:04:29.05Z</time></trkpt><trkpt lat="42.4971089" lon="-7.3179145"><ele>545.0</ele><time>2026-04-25T13:04:30.055Z</time></trkpt><trkpt lat="42.4971058" lon="-7.3178065"><ele>546.0</ele><time>2026-04-25T13:04:31.057Z</time></trkpt><trkpt lat="42.4970312" lon="-7.3177775"><ele>547.0</ele><time>2026-04-25T13:04:33.051Z</time></trkpt><trkpt lat="42.4969672" lon="-7.3177935"><ele>548.0</ele><time>2026-04-25T13:04:34.08Z</time></trkpt><trkpt lat="42.4968684" lon="-7.3178655"><ele>549.0</ele><time>2026-04-25T13:04:35.049Z</time></trkpt><trkpt lat="42.4967759" lon="-7.3179284"><ele>550.0</ele><time>2026-04-25T13:04:36.053Z</time></trkpt><trkpt lat="42.4966585" lon="-7.3179768"><ele>550.0</ele><time>2026-04-25T13:04:37.048Z</time></trkpt><trkpt lat="42.4965623" lon="-7.3179561"><ele>550.0</ele><time>2026-04-25T13:04:38.052Z</time></trkpt><trkpt lat="42.4964691" lon="-7.3178957"><ele>550.0</ele><time>2026-04-25T13:04:39.057Z</time></trkpt><trkpt lat="42.4963756" lon="-7.317819"><ele>550.0</ele><time>2026-04-25T13:04:40.055Z</time></trkpt><trkpt lat="42.4962934" lon="-7.3177458"><ele>550.0</ele><time>2026-04-25T13:04:41.045Z</time></trkpt><trkpt lat="42.4962336" lon="-7.3176112"><ele>549.2</ele><time>2026-04-25T13:04:42.054Z</time></trkpt><trkpt lat="42.4962004" lon="-7.3174724"><ele>548.4</ele><time>2026-04-25T13:04:43.055Z</time></trkpt><trkpt lat="42.4961676" lon="-7.3173532"><ele>547.6</ele><time>2026-04-25T13:04:44.047Z</time></trkpt><trkpt lat="42.4960822" lon="-7.3172668"><ele>546.8</ele><time>2026-04-25T13:04:46.049Z</time></trkpt><trkpt lat="42.4959972" lon="-7.3173562"><ele>546.0</ele><time>2026-04-25T13:04:48.047Z</time></trkpt><trkpt lat="42.4959652" lon="-7.317482"><ele>546.0</ele><time>2026-04-25T13:04:49.062Z</time></trkpt><trkpt lat="42.4959255" lon="-7.3176221"><ele>546.0</ele><time>2026-04-25T13:04:50.042Z</time></trkpt><trkpt lat="42.495863" lon="-7.3177597"><ele>546.0</ele><time>2026-04-25T13:04:51.046Z</time></trkpt><trkpt lat="42.4958074" lon="-7.3178623"><ele>546.0</ele><time>2026-04-25T13:04:52.047Z</time></trkpt><trkpt lat="42.4957388" lon="-7.3179433"><ele>546.0</ele><time>2026-04-25T13:04:53.045Z</time></trkpt><trkpt lat="42.4955713" lon="-7.31802"><ele>543.6666666666666</ele><time>2026-04-25T13:04:54.045Z</time></trkpt><trkpt lat="42.495389" lon="-7.3181416"><ele>541.3333333333333</ele><time>2026-04-25T13:04:55.052Z</time></trkpt><trkpt lat="42.4952617" lon="-7.3182669"><ele>539.0</ele><time>2026-04-25T13:04:56.047Z</time></trkpt><trkpt lat="42.4951533" lon="-7.3183831"><ele>539.0</ele><time>2026-04-25T13:04:57.046Z</time></trkpt><trkpt lat="42.4950351" lon="-7.3184516"><ele>539.0</ele><time>2026-04-25T13:04:58.053Z</time></trkpt><trkpt lat="42.4949181" lon="-7.3184987"><ele>539.0</ele><time>2026-04-25T13:04:59.043Z</time></trkpt><trkpt lat="42.4947972" lon="-7.3185566"><ele>539.0</ele><time>2026-04-25T13:05:00.044Z</time></trkpt><trkpt lat="42.494677" lon="-7.3186589"><ele>541.0</ele><time>2026-04-25T13:05:01.05Z</time></trkpt><trkpt lat="42.4945572" lon="-7.3187434"><ele>543.0</ele><time>2026-04-25T13:05:02.057Z</time></trkpt><trkpt lat="42.4944749" lon="-7.3188441"><ele>545.0</ele><time>2026-04-25T13:05:03.045Z</time></trkpt><trkpt lat="42.4943981" lon="-7.3188864"><ele>547.0</ele><time>2026-04-25T13:05:04.041Z</time></trkpt><trkpt lat="42.4942866" lon="-7.3188637"><ele>549.0</ele><time>2026-04-25T13:05:06.047Z</time></trkpt><trkpt lat="42.4942284" lon="-7.3188192"><ele>549.0</ele><time>2026-04-25T13:05:07.049Z</time></trkpt><trkpt lat="42.4941687" lon="-7.3187577"><ele>549.0</ele><time>2026-04-25T13:05:08.05Z</time></trkpt><trkpt lat="42.4941166" lon="-7.3186935"><ele>549.0</ele><time>2026-04-25T13:05:09.054Z</time></trkpt><trkpt lat="42.4940145" lon="-7.3186554"><ele>549.0</ele><time>2026-04-25T13:05:12.049Z</time></trkpt><trkpt lat="42.4938916" lon="-7.3188221"><ele>549.0</ele><time>2026-04-25T13:05:14.054Z</time></trkpt><trkpt lat="42.4938202" lon="-7.3190359"><ele>553.6666666666666</ele><time>2026-04-25T13:05:15.053Z</time></trkpt><trkpt lat="42.4937484" lon="-7.3192383"><ele>558.3333333333333</ele><time>2026-04-25T13:05:16.047Z</time></trkpt><trkpt lat="42.4936543" lon="-7.3194652"><ele>563.0</ele><time>2026-04-25T13:05:17.04Z</time></trkpt><trkpt lat="42.4935519" lon="-7.3197142"><ele>556.6666666666666</ele><time>2026-04-25T13:05:18.052Z</time></trkpt><trkpt lat="42.4934527" lon="-7.3199711"><ele>550.3333333333334</ele><time>2026-04-25T13:05:19.045Z</time></trkpt><trkpt lat="42.4933517" lon="-7.3202241"><ele>544.0</ele><time>2026-04-25T13:05:20.052Z</time></trkpt><trkpt lat="42.4932672" lon="-7.3204744"><ele>538.0</ele><time>2026-04-25T13:05:21.048Z</time></trkpt><trkpt lat="42.4932055" lon="-7.3207049"><ele>532.0</ele><time>2026-04-25T13:05:22.052Z</time></trkpt><trkpt lat="42.4931415" lon="-7.320901"><ele>526.0</ele><time>2026-04-25T13:05:23.053Z</time></trkpt><trkpt lat="42.4930859" lon="-7.3210446"><ele>526.0</ele><time>2026-04-25T13:05:24.061Z</time></trkpt><trkpt lat="42.4930516" lon="-7.321131"><ele>526.0</ele><time>2026-04-25T13:05:25.051Z</time></trkpt><trkpt lat="42.4930297" lon="-7.3212178"><ele>526.0</ele><time>2026-04-25T13:05:26.05Z</time></trkpt><trkpt lat="42.4929745" lon="-7.321329"><ele>526.0</ele><time>2026-04-25T13:05:27.058Z</time></trkpt><trkpt lat="42.4929084" lon="-7.3213956"><ele>526.0</ele><time>2026-04-25T13:05:28.051Z</time></trkpt><trkpt lat="42.4928294" lon="-7.3214437"><ele>526.0</ele><time>2026-04-25T13:05:29.056Z</time></trkpt><trkpt lat="42.4927301" lon="-7.3214548"><ele>526.5</ele><time>2026-04-25T13:05:30.05Z</time></trkpt><trkpt lat="42.4925786" lon="-7.3214305"><ele>527.0</ele><time>2026-04-25T13:05:31.052Z</time></trkpt><trkpt lat="42.4924446" lon="-7.3214545"><ele>527.5</ele><time>2026-04-25T13:05:32.053Z</time></trkpt><trkpt lat="42.4923315" lon="-7.3214801"><ele>528.0</ele><time>2026-04-25T13:05:33.056Z</time></trkpt><trkpt lat="42.4922237" lon="-7.321514"><ele>528.0</ele><time>2026-04-25T13:05:34.051Z</time></trkpt><trkpt lat="42.4921055" lon="-7.3214832"><ele>528.0</ele><time>2026-04-25T13:05:35.049Z</time></trkpt><trkpt lat="42.4919748" lon="-7.3214073"><ele>528.0</ele><time>2026-04-25T13:05:36.081Z</time></trkpt><trkpt lat="42.4918557" lon="-7.3212824"><ele>528.0</ele><time>2026-04-25T13:05:37.05Z</time></trkpt><trkpt lat="42.4917392" lon="-7.3211161"><ele>535.6666666666666</ele><time>2026-04-25T13:05:38.054Z</time></trkpt><trkpt lat="42.4916106" lon="-7.3209501"><ele>543.3333333333333</ele><time>2026-04-25T13:05:39.056Z</time></trkpt><trkpt lat="42.4914888" lon="-7.3207954"><ele>551.0</ele><time>2026-04-25T13:05:40.058Z</time></trkpt><trkpt lat="42.4913627" lon="-7.3206999"><ele>551.0</ele><time>2026-04-25T13:05:41.056Z</time></trkpt><trkpt lat="42.4912175" lon="-7.320642"><ele>551.0</ele><time>2026-04-25T13:05:42.045Z</time></trkpt><trkpt lat="42.4910717" lon="-7.3206211"><ele>551.0</ele><time>2026-04-25T13:05:43.046Z</time></trkpt><trkpt lat="42.4909251" lon="-7.3206135"><ele>551.0</ele><time>2026-04-25T13:05:44.057Z</time></trkpt><trkpt lat="42.4907698" lon="-7.3206151"><ele>551.0</ele><time>2026-04-25T13:05:45.059Z</time></trkpt><trkpt lat="42.4905872" lon="-7.3206464"><ele>551.0</ele><time>2026-04-25T13:05:46.044Z</time></trkpt><trkpt lat="42.4904222" lon="-7.3206737"><ele>551.0</ele><time>2026-04-25T13:05:47.059Z</time></trkpt><trkpt lat="42.4902828" lon="-7.320678"><ele>555.25</ele><time>2026-04-25T13:05:48.049Z</time></trkpt><trkpt lat="42.4901614" lon="-7.3207136"><ele>559.5</ele><time>2026-04-25T13:05:49.047Z</time></trkpt><trkpt lat="42.4900524" lon="-7.3207649"><ele>563.75</ele><time>2026-04-25T13:05:50.056Z</time></trkpt><trkpt lat="42.4899374" lon="-7.3208658"><ele>568.0</ele><time>2026-04-25T13:05:51.055Z</time></trkpt><trkpt lat="42.4898228" lon="-7.3210008"><ele>568.0</ele><time>2026-04-25T13:05:52.053Z</time></trkpt><trkpt lat="42.489718" lon="-7.3211773"><ele>568.0</ele><time>2026-04-25T13:05:53.045Z</time></trkpt><trkpt lat="42.4895964" lon="-7.3213709"><ele>568.0</ele><time>2026-04-25T13:05:54.049Z</time></trkpt><trkpt lat="42.4894975" lon="-7.3215769"><ele>571.6666666666667</ele><time>2026-04-25T13:05:55.054Z</time></trkpt><trkpt lat="42.4894632" lon="-7.3218137"><ele>575.3333333333334</ele><time>2026-04-25T13:05:56.049Z</time></trkpt><trkpt lat="42.4894226" lon="-7.3220393"><ele>579.0</ele><time>2026-04-25T13:05:57.049Z</time></trkpt><trkpt lat="42.4894386" lon="-7.3222922"><ele>579.0</ele><time>2026-04-25T13:05:58.054Z</time></trkpt><trkpt lat="42.4894294" lon="-7.3224569"><ele>579.0</ele><time>2026-04-25T13:05:59.053Z</time></trkpt><trkpt lat="42.4894256" lon="-7.3225899"><ele>579.0</ele><time>2026-04-25T13:06:00.053Z</time></trkpt><trkpt lat="42.4893881" lon="-7.3227006"><ele>579.0</ele><time>2026-04-25T13:06:01.052Z</time></trkpt><trkpt lat="42.4893424" lon="-7.3228105"><ele>579.0</ele><time>2026-04-25T13:06:02.05Z</time></trkpt><trkpt lat="42.4892645" lon="-7.3228809"><ele>579.0</ele><time>2026-04-25T13:06:03.057Z</time></trkpt><trkpt lat="42.4891855" lon="-7.3229352"><ele>579.0</ele><time>2026-04-25T13:06:04.049Z</time></trkpt><trkpt lat="42.4891045" lon="-7.32295"><ele>579.0</ele><time>2026-04-25T13:06:05.069Z</time></trkpt><trkpt lat="42.4890362" lon="-7.3229231"><ele>579.0</ele><time>2026-04-25T13:06:06.061Z</time></trkpt><trkpt lat="42.4889653" lon="-7.3228988"><ele>579.0</ele><time>2026-04-25T13:06:07.053Z</time></trkpt><trkpt lat="42.4888975" lon="-7.3228415"><ele>579.0</ele><time>2026-04-25T13:06:08.062Z</time></trkpt><trkpt lat="42.488825" lon="-7.3227544"><ele>578.25</ele><time>2026-04-25T13:06:09.064Z</time></trkpt><trkpt lat="42.4887427" lon="-7.3226422"><ele>577.5</ele><time>2026-04-25T13:06:10.065Z</time></trkpt><trkpt lat="42.4886462" lon="-7.3225017"><ele>576.75</ele><time>2026-04-25T13:06:11.062Z</time></trkpt><trkpt lat="42.4885285" lon="-7.3223529"><ele>576.0</ele><time>2026-04-25T13:06:12.056Z</time></trkpt><trkpt lat="42.4884157" lon="-7.3222048"><ele>580.6666666666666</ele><time>2026-04-25T13:06:13.06Z</time></trkpt><trkpt lat="42.4882645" lon="-7.3221128"><ele>585.3333333333333</ele><time>2026-04-25T13:06:14.053Z</time></trkpt><trkpt lat="42.4880899" lon="-7.3220457"><ele>590.0</ele><time>2026-04-25T13:06:15.052Z</time></trkpt><trkpt lat="42.4879187" lon="-7.3220109"><ele>590.0</ele><time>2026-04-25T13:06:16.058Z</time></trkpt><trkpt lat="42.4877476" lon="-7.3219816"><ele>590.0</ele><time>2026-04-25T13:06:17.06Z</time></trkpt><trkpt lat="42.4876028" lon="-7.3219302"><ele>590.0</ele><time>2026-04-25T13:06:18.055Z</time></trkpt><trkpt lat="42.4874624" lon="-7.3218887"><ele>590.0</ele><time>2026-04-25T13:06:19.078Z</time></trkpt><trkpt lat="42.4873488" lon="-7.3218459"><ele>590.0</ele><time>2026-04-25T13:06:20.061Z</time></trkpt><trkpt lat="42.4872631" lon="-7.3218049"><ele>590.0</ele><time>2026-04-25T13:06:21.059Z</time></trkpt><trkpt lat="42.4871963" lon="-7.321788"><ele>590.0</ele><time>2026-04-25T13:10:06.059Z</time></trkpt><trkpt lat="42.4871698" lon="-7.3217045"><ele>590.0</ele><time>2026-04-25T13:10:08.064Z</time></trkpt><trkpt lat="42.4871596" lon="-7.3216072"><ele>590.0</ele><time>2026-04-25T13:10:10.055Z</time></trkpt><trkpt lat="42.487197" lon="-7.321493"><ele>590.0</ele><time>2026-04-25T13:10:13.055Z</time></trkpt><trkpt lat="42.4872431" lon="-7.3214283"><ele>590.0</ele><time>2026-04-25T13:10:15.063Z</time></trkpt><trkpt lat="42.487304" lon="-7.3213765"><ele>590.0</ele><time>2026-04-25T13:10:17.059Z</time></trkpt><trkpt lat="42.4873876" lon="-7.3213477"><ele>590.0</ele><time>2026-04-25T13:10:19.066Z</time></trkpt><trkpt lat="42.4874784" lon="-7.3213607"><ele>590.0</ele><time>2026-04-25T13:10:22.057Z</time></trkpt><trkpt lat="42.4875704" lon="-7.3213802"><ele>590.0</ele><time>2026-04-25T13:10:25.061Z</time></trkpt><trkpt lat="42.4876518" lon="-7.3213922"><ele>590.0</ele><time>2026-04-25T13:10:27.06Z</time></trkpt><trkpt lat="42.4877382" lon="-7.321401"><ele>590.0</ele><time>2026-04-25T13:10:29.05Z</time></trkpt><trkpt lat="42.4878315" lon="-7.3214125"><ele>590.0</ele><time>2026-04-25T13:10:31.068Z</time></trkpt><trkpt lat="42.4879231" lon="-7.3214108"><ele>590.0</ele><time>2026-04-25T13:10:33.055Z</time></trkpt><trkpt lat="42.4880126" lon="-7.3213942"><ele>590.0</ele><time>2026-04-25T13:10:36.066Z</time></trkpt><trkpt lat="42.4881081" lon="-7.3213737"><ele>590.0</ele><time>2026-04-25T13:10:40.053Z</time></trkpt><trkpt lat="42.4880496" lon="-7.3214287"><ele>590.0</ele><time>2026-04-25T13:10:46.061Z</time></trkpt><trkpt lat="42.487957" lon="-7.3214377"><ele>590.0</ele><time>2026-04-25T13:10:47.06Z</time></trkpt><trkpt lat="42.487862" lon="-7.3214424"><ele>590.0</ele><time>2026-04-25T13:10:48.051Z</time></trkpt><trkpt lat="42.4877714" lon="-7.3214395"><ele>590.0</ele><time>2026-04-25T13:10:49.057Z</time></trkpt><trkpt lat="42.4876855" lon="-7.321427"><ele>590.0</ele><time>2026-04-25T13:10:50.051Z</time></trkpt><trkpt lat="42.4876053" lon="-7.3214062"><ele>591.2</ele><time>2026-04-25T13:10:51.052Z</time></trkpt><trkpt lat="42.4875373" lon="-7.3213882"><ele>592.4</ele><time>2026-04-25T13:10:52.051Z</time></trkpt><trkpt lat="42.4874766" lon="-7.321285"><ele>593.6</ele><time>2026-04-25T13:10:54.054Z</time></trkpt><trkpt lat="42.487462" lon="-7.3211559"><ele>594.8</ele><time>2026-04-25T13:10:56.054Z</time></trkpt><trkpt lat="42.4874536" lon="-7.3210132"><ele>596.0</ele><time>2026-04-25T13:10:58.063Z</time></trkpt><trkpt lat="42.4874384" lon="-7.3208614"><ele>596.0</ele><time>2026-04-25T13:11:00.054Z</time></trkpt><trkpt lat="42.4874362" lon="-7.3207724"><ele>596.0</ele><time>2026-04-25T13:11:01.062Z</time></trkpt><trkpt lat="42.4874309" lon="-7.3206731"><ele>596.0</ele><time>2026-04-25T13:11:02.062Z</time></trkpt><trkpt lat="42.4874497" lon="-7.3205041"><ele>596.0</ele><time>2026-04-25T13:11:04.057Z</time></trkpt><trkpt lat="42.4874754" lon="-7.3204256"><ele>596.0</ele><time>2026-04-25T13:11:05.055Z</time></trkpt><trkpt lat="42.4875157" lon="-7.3203551"><ele>596.0</ele><time>2026-04-25T13:11:06.059Z</time></trkpt><trkpt lat="42.4876283" lon="-7.3202642"><ele>597.0</ele><time>2026-04-25T13:11:08.057Z</time></trkpt><trkpt lat="42.4876959" lon="-7.3202413"><ele>598.0</ele><time>2026-04-25T13:11:09.061Z</time></trkpt><trkpt lat="42.4877855" lon="-7.3202324"><ele>599.0</ele><time>2026-04-25T13:11:10.057Z</time></trkpt><trkpt lat="42.4878766" lon="-7.320206"><ele>600.0</ele><time>2026-04-25T13:11:11.056Z</time></trkpt><trkpt lat="42.4879569" lon="-7.320163"><ele>601.0</ele><time>2026-04-25T13:11:12.067Z</time></trkpt><trkpt lat="42.4880318" lon="-7.3200995"><ele>602.0</ele><time>2026-04-25T13:11:13.05Z</time></trkpt><trkpt lat="42.4881067" lon="-7.3200367"><ele>602.0</ele><time>2026-04-25T13:11:14.07Z</time></trkpt><trkpt lat="42.4881606" lon="-7.3199245"><ele>602.0</ele><time>2026-04-25T13:11:15.059Z</time></trkpt><trkpt lat="42.4881907" lon="-7.3197873"><ele>602.0</ele><time>2026-04-25T13:11:16.051Z</time></trkpt><trkpt lat="42.4882192" lon="-7.3196465"><ele>602.0</ele><time>2026-04-25T13:11:17.058Z</time></trkpt><trkpt lat="42.4882352" lon="-7.3194798"><ele>602.0</ele><time>2026-04-25T13:11:18.054Z</time></trkpt><trkpt lat="42.4882426" lon="-7.3192516"><ele>599.6666666666666</ele><time>2026-04-25T13:11:19.053Z</time></trkpt><trkpt lat="42.4882438" lon="-7.3190279"><ele>597.3333333333334</ele><time>2026-04-25T13:11:20.048Z</time></trkpt><trkpt lat="42.4882436" lon="-7.3188073"><ele>595.0</ele><time>2026-04-25T13:11:21.055Z</time></trkpt><trkpt lat="42.4882558" lon="-7.3186057"><ele>593.75</ele><time>2026-04-25T13:11:22.049Z</time></trkpt><trkpt lat="42.4882666" lon="-7.3184147"><ele>592.5</ele><time>2026-04-25T13:11:23.053Z</time></trkpt><trkpt lat="42.4882866" lon="-7.3182543"><ele>591.25</ele><time>2026-04-25T13:11:24.051Z</time></trkpt><trkpt lat="42.4883208" lon="-7.3181213"><ele>590.0</ele><time>2026-04-25T13:11:25.049Z</time></trkpt><trkpt lat="42.4883551" lon="-7.3179952"><ele>591.0</ele><time>2026-04-25T13:11:26.057Z</time></trkpt><trkpt lat="42.488411" lon="-7.3178858"><ele>592.0</ele><time>2026-04-25T13:11:27.054Z</time></trkpt><trkpt lat="42.4884998" lon="-7.3177811"><ele>593.0</ele><time>2026-04-25T13:11:28.052Z</time></trkpt><trkpt lat="42.488628" lon="-7.3176629"><ele>594.0</ele><time>2026-04-25T13:11:29.052Z</time></trkpt><trkpt lat="42.4887797" lon="-7.3175735"><ele>594.0</ele><time>2026-04-25T13:11:30.059Z</time></trkpt><trkpt lat="42.4889232" lon="-7.3174778"><ele>594.0</ele><time>2026-04-25T13:11:31.053Z</time></trkpt><trkpt lat="42.489052" lon="-7.3173926"><ele>594.0</ele><time>2026-04-25T13:11:32.049Z</time></trkpt><trkpt lat="42.4891889" lon="-7.3173006"><ele>588.25</ele><time>2026-04-25T13:11:33.05Z</time></trkpt><trkpt lat="42.4893054" lon="-7.3171898"><ele>582.5</ele><time>2026-04-25T13:11:34.056Z</time></trkpt><trkpt lat="42.4893912" lon="-7.3170611"><ele>576.75</ele><time>2026-04-25T13:11:35.052Z</time></trkpt><trkpt lat="42.4894687" lon="-7.3169473"><ele>571.0</ele><time>2026-04-25T13:11:36.045Z</time></trkpt><trkpt lat="42.4895188" lon="-7.316862"><ele>571.0</ele><time>2026-04-25T13:11:37.051Z</time></trkpt><trkpt lat="42.4895549" lon="-7.3167769"><ele>571.0</ele><time>2026-04-25T13:11:38.054Z</time></trkpt><trkpt lat="42.4895649" lon="-7.316684"><ele>571.0</ele><time>2026-04-25T13:11:39.048Z</time></trkpt><trkpt lat="42.4895218" lon="-7.3165717"><ele>571.0</ele><time>2026-04-25T13:11:40.049Z</time></trkpt><trkpt lat="42.4894701" lon="-7.3164517"><ele>571.0</ele><time>2026-04-25T13:11:41.063Z</time></trkpt><trkpt lat="42.4893584" lon="-7.3163439"><ele>575.6666666666667</ele><time>2026-04-25T13:11:42.047Z</time></trkpt><trkpt lat="42.4892069" lon="-7.3162022"><ele>580.3333333333334</ele><time>2026-04-25T13:11:43.054Z</time></trkpt><trkpt lat="42.4890567" lon="-7.3160437"><ele>585.0</ele><time>2026-04-25T13:11:44.05Z</time></trkpt><trkpt lat="42.4889243" lon="-7.3158922"><ele>585.0</ele><time>2026-04-25T13:11:45.049Z</time></trkpt><trkpt lat="42.4888126" lon="-7.3157757"><ele>585.0</ele><time>2026-04-25T13:11:46.054Z</time></trkpt><trkpt lat="42.4887049" lon="-7.3156632"><ele>585.0</ele><time>2026-04-25T13:11:47.044Z</time></trkpt><trkpt lat="42.4885919" lon="-7.3156017"><ele>585.0</ele><time>2026-04-25T13:11:48.048Z</time></trkpt><trkpt lat="42.4884862" lon="-7.3155697"><ele>584.75</ele><time>2026-04-25T13:11:49.054Z</time></trkpt><trkpt lat="42.4883462" lon="-7.315546"><ele>584.5</ele><time>2026-04-25T13:11:50.053Z</time></trkpt><trkpt lat="42.4882244" lon="-7.3155143"><ele>584.25</ele><time>2026-04-25T13:11:51.051Z</time></trkpt><trkpt lat="42.4881005" lon="-7.3154427"><ele>584.0</ele><time>2026-04-25T13:11:52.05Z</time></trkpt><trkpt lat="42.4879777" lon="-7.3153319"><ele>577.5</ele><time>2026-04-25T13:11:53.056Z</time></trkpt><trkpt lat="42.4878484" lon="-7.3152299"><ele>571.0</ele><time>2026-04-25T13:11:54.061Z</time></trkpt><trkpt lat="42.4877223" lon="-7.3151184"><ele>564.5</ele><time>2026-04-25T13:11:55.061Z</time></trkpt><trkpt lat="42.487621" lon="-7.3150161"><ele>558.0</ele><time>2026-04-25T13:11:56.06Z</time></trkpt><trkpt lat="42.4875296" lon="-7.3149396"><ele>558.0</ele><time>2026-04-25T13:11:57.05Z</time></trkpt><trkpt lat="42.4874526" lon="-7.3148819"><ele>558.0</ele><time>2026-04-25T13:11:58.046Z</time></trkpt><trkpt lat="42.4873754" lon="-7.3148505"><ele>558.0</ele><time>2026-04-25T13:11:59.042Z</time></trkpt><trkpt lat="42.4873015" lon="-7.3148469"><ele>558.0</ele><time>2026-04-25T13:12:00.052Z</time></trkpt><trkpt lat="42.4872292" lon="-7.3148558"><ele>558.0</ele><time>2026-04-25T13:12:01.049Z</time></trkpt><trkpt lat="42.4871351" lon="-7.3148659"><ele>558.0</ele><time>2026-04-25T13:12:02.046Z</time></trkpt><trkpt lat="42.4870432" lon="-7.3148865"><ele>558.0</ele><time>2026-04-25T13:12:03.056Z</time></trkpt><trkpt lat="42.486971" lon="-7.3149007"><ele>558.0</ele><time>2026-04-25T13:12:04.049Z</time></trkpt><trkpt lat="42.4869066" lon="-7.3149278"><ele>558.0</ele><time>2026-04-25T13:12:05.047Z</time></trkpt><trkpt lat="42.4869751" lon="-7.3149393"><ele>558.0</ele><time>2026-04-25T13:12:12.055Z</time></trkpt><trkpt lat="42.4870705" lon="-7.3149315"><ele>558.0</ele><time>2026-04-25T13:12:13.048Z</time></trkpt><trkpt lat="42.4871862" lon="-7.3149166"><ele>558.0</ele><time>2026-04-25T13:12:14.046Z</time></trkpt><trkpt lat="42.4873003" lon="-7.3149149"><ele>558.0</ele><time>2026-04-25T13:12:15.046Z</time></trkpt><trkpt lat="42.48741" lon="-7.3149197"><ele>558.0</ele><time>2026-04-25T13:12:16.044Z</time></trkpt><trkpt lat="42.4875124" lon="-7.3149566"><ele>558.0</ele><time>2026-04-25T13:12:17.048Z</time></trkpt><trkpt lat="42.4876362" lon="-7.3150495"><ele>558.0</ele><time>2026-04-25T13:12:18.049Z</time></trkpt><trkpt lat="42.4877525" lon="-7.3151506"><ele>558.0</ele><time>2026-04-25T13:12:19.045Z</time></trkpt><trkpt lat="42.4878865" lon="-7.3152439"><ele>558.0</ele><time>2026-04-25T13:12:20.051Z</time></trkpt><trkpt lat="42.488014" lon="-7.3153588"><ele>558.0</ele><time>2026-04-25T13:12:21.046Z</time></trkpt><trkpt lat="42.4881507" lon="-7.3154511"><ele>557.75</ele><time>2026-04-25T13:12:22.047Z</time></trkpt><trkpt lat="42.4882584" lon="-7.3155364"><ele>557.5</ele><time>2026-04-25T13:12:23.044Z</time></trkpt><trkpt lat="42.4883641" lon="-7.315585"><ele>557.25</ele><time>2026-04-25T13:12:24.048Z</time></trkpt><trkpt lat="42.4884705" lon="-7.3156049"><ele>557.0</ele><time>2026-04-25T13:12:25.05Z</time></trkpt><trkpt lat="42.4885933" lon="-7.3156231"><ele>557.0</ele><time>2026-04-25T13:12:26.044Z</time></trkpt><trkpt lat="42.4886924" lon="-7.3156623"><ele>557.0</ele><time>2026-04-25T13:12:27.048Z</time></trkpt><trkpt lat="42.4887846" lon="-7.3157145"><ele>557.0</ele><time>2026-04-25T13:12:28.047Z</time></trkpt><trkpt lat="42.4889007" lon="-7.3158027"><ele>557.0</ele><time>2026-04-25T13:12:29.048Z</time></trkpt><trkpt lat="42.4890158" lon="-7.315941"><ele>564.0</ele><time>2026-04-25T13:12:30.053Z</time></trkpt><trkpt lat="42.4891422" lon="-7.316057"><ele>571.0</ele><time>2026-04-25T13:12:31.047Z</time></trkpt><trkpt lat="42.4892458" lon="-7.3162008"><ele>578.0</ele><time>2026-04-25T13:12:32.049Z</time></trkpt><trkpt lat="42.4893442" lon="-7.3163146"><ele>585.0</ele><time>2026-04-25T13:12:33.063Z</time></trkpt><trkpt lat="42.4894322" lon="-7.3163977"><ele>582.6666666666666</ele><time>2026-04-25T13:12:34.045Z</time></trkpt><trkpt lat="42.489503" lon="-7.3164827"><ele>580.3333333333334</ele><time>2026-04-25T13:12:35.048Z</time></trkpt><trkpt lat="42.489542" lon="-7.3165653"><ele>578.0</ele><time>2026-04-25T13:12:36.048Z</time></trkpt><trkpt lat="42.4895768" lon="-7.3166486"><ele>575.6666666666667</ele><time>2026-04-25T13:12:37.052Z</time></trkpt><trkpt lat="42.4895667" lon="-7.3167478"><ele>573.3333333333334</ele><time>2026-04-25T13:12:38.06Z</time></trkpt><trkpt lat="42.4895394" lon="-7.3168551"><ele>571.0</ele><time>2026-04-25T13:12:39.048Z</time></trkpt><trkpt lat="42.4894726" lon="-7.3169647"><ele>571.0</ele><time>2026-04-25T13:12:40.049Z</time></trkpt><trkpt lat="42.4893502" lon="-7.3171183"><ele>571.0</ele><time>2026-04-25T13:12:41.048Z</time></trkpt><trkpt lat="42.4892112" lon="-7.3172824"><ele>571.0</ele><time>2026-04-25T13:12:42.046Z</time></trkpt><trkpt lat="42.4890698" lon="-7.317434"><ele>568.3333333333334</ele><time>2026-04-25T13:12:43.049Z</time></trkpt><trkpt lat="42.4889037" lon="-7.3175464"><ele>565.6666666666666</ele><time>2026-04-25T13:12:44.053Z</time></trkpt><trkpt lat="42.4887623" lon="-7.3176143"><ele>563.0</ele><time>2026-04-25T13:12:45.05Z</time></trkpt><trkpt lat="42.4886287" lon="-7.3177024"><ele>563.0</ele><time>2026-04-25T13:12:46.05Z</time></trkpt><trkpt lat="42.4885268" lon="-7.3177838"><ele>563.0</ele><time>2026-04-25T13:12:47.049Z</time></trkpt><trkpt lat="42.4884301" lon="-7.3178838"><ele>563.0</ele><time>2026-04-25T13:12:48.041Z</time></trkpt><trkpt lat="42.488363" lon="-7.3180142"><ele>563.0</ele><time>2026-04-25T13:12:49.061Z</time></trkpt><trkpt lat="42.4883073" lon="-7.3181736"><ele>569.75</ele><time>2026-04-25T13:12:50.047Z</time></trkpt><trkpt lat="42.488255" lon="-7.3183283"><ele>576.5</ele><time>2026-04-25T13:12:51.048Z</time></trkpt><trkpt lat="42.4882312" lon="-7.3185288"><ele>583.25</ele><time>2026-04-25T13:12:52.052Z</time></trkpt><trkpt lat="42.4882296" lon="-7.3187557"><ele>590.0</ele><time>2026-04-25T13:12:53.052Z</time></trkpt><trkpt lat="42.4882285" lon="-7.3190094"><ele>591.6666666666666</ele><time>2026-04-25T13:12:54.051Z</time></trkpt><trkpt lat="42.4882423" lon="-7.3192764"><ele>593.3333333333334</ele><time>2026-04-25T13:12:55.051Z</time></trkpt><trkpt lat="42.4882385" lon="-7.3195212"><ele>595.0</ele><time>2026-04-25T13:12:56.053Z</time></trkpt><trkpt lat="42.4882198" lon="-7.3197267"><ele>593.8</ele><time>2026-04-25T13:12:57.044Z</time></trkpt><trkpt lat="42.4881887" lon="-7.3198702"><ele>592.6</ele><time>2026-04-25T13:12:58.049Z</time></trkpt><trkpt lat="42.4881617" lon="-7.3200021"><ele>591.4</ele><time>2026-04-25T13:12:59.048Z</time></trkpt><trkpt lat="42.4881069" lon="-7.320091"><ele>590.2</ele><time>2026-04-25T13:13:00.045Z</time></trkpt><trkpt lat="42.4880199" lon="-7.3201815"><ele>589.0</ele><time>2026-04-25T13:13:01.054Z</time></trkpt><trkpt lat="42.4879039" lon="-7.3202654"><ele>589.0</ele><time>2026-04-25T13:13:02.051Z</time></trkpt><trkpt lat="42.4877707" lon="-7.3202942"><ele>589.0</ele><time>2026-04-25T13:13:03.046Z</time></trkpt><trkpt lat="42.4876426" lon="-7.3203062"><ele>589.0</ele><time>2026-04-25T13:13:04.046Z</time></trkpt><trkpt lat="42.4875604" lon="-7.3203178"><ele>589.0</ele><time>2026-04-25T13:13:05.051Z</time></trkpt><trkpt lat="42.4875084" lon="-7.3203829"><ele>589.0</ele><time>2026-04-25T13:13:06.046Z</time></trkpt><trkpt lat="42.4874647" lon="-7.3204644"><ele>590.1666666666667</ele><time>2026-04-25T13:13:07.054Z</time></trkpt><trkpt lat="42.4874413" lon="-7.3205876"><ele>591.3333333333334</ele><time>2026-04-25T13:13:08.055Z</time></trkpt><trkpt lat="42.4874433" lon="-7.3206847"><ele>592.5</ele><time>2026-04-25T13:13:09.05Z</time></trkpt><trkpt lat="42.4874505" lon="-7.3207716"><ele>593.6666666666666</ele><time>2026-04-25T13:13:10.049Z</time></trkpt><trkpt lat="42.4874604" lon="-7.3209279"><ele>594.8333333333333</ele><time>2026-04-25T13:13:12.048Z</time></trkpt><trkpt lat="42.4874846" lon="-7.3210339"><ele>596.0</ele><time>2026-04-25T13:13:14.047Z</time></trkpt><trkpt lat="42.4875447" lon="-7.3209918"><ele>596.0</ele><time>2026-04-25T13:13:17.053Z</time></trkpt><trkpt lat="42.4875393" lon="-7.3208351"><ele>596.0</ele><time>2026-04-25T13:13:19.054Z</time></trkpt><trkpt lat="42.4875275" lon="-7.3207299"><ele>596.0</ele><time>2026-04-25T13:13:20.047Z</time></trkpt><trkpt lat="42.487522" lon="-7.3206407"><ele>596.0</ele><time>2026-04-25T13:13:21.052Z</time></trkpt><trkpt lat="42.487519" lon="-7.3205464"><ele>596.0</ele><time>2026-04-25T13:13:22.057Z</time></trkpt><trkpt lat="42.487596" lon="-7.3204078"><ele>594.6</ele><time>2026-04-25T13:13:24.059Z</time></trkpt><trkpt lat="42.4877313" lon="-7.3204406"><ele>593.2</ele><time>2026-04-25T13:13:26.046Z</time></trkpt><trkpt lat="42.4878209" lon="-7.3204842"><ele>591.8</ele><time>2026-04-25T13:13:27.048Z</time></trkpt><trkpt lat="42.4879124" lon="-7.3205501"><ele>590.4</ele><time>2026-04-25T13:13:28.054Z</time></trkpt><trkpt lat="42.4879993" lon="-7.3206086"><ele>589.0</ele><time>2026-04-25T13:13:29.046Z</time></trkpt><trkpt lat="42.488078" lon="-7.3206406"><ele>591.6</ele><time>2026-04-25T13:13:30.045Z</time></trkpt><trkpt lat="42.4881594" lon="-7.3206441"><ele>594.2</ele><time>2026-04-25T13:13:31.05Z</time></trkpt><trkpt lat="42.4882399" lon="-7.3206144"><ele>596.8000000000001</ele><time>2026-04-25T13:13:32.051Z</time></trkpt><trkpt lat="42.4883153" lon="-7.3205558"><ele>599.4</ele><time>2026-04-25T13:13:33.053Z</time></trkpt><trkpt lat="42.488394" lon="-7.3204682"><ele>602.0</ele><time>2026-04-25T13:13:34.059Z</time></trkpt><trkpt lat="42.4884771" lon="-7.3203505"><ele>602.0</ele><time>2026-04-25T13:13:35.048Z</time></trkpt><trkpt lat="42.4885541" lon="-7.3202118"><ele>602.0</ele><time>2026-04-25T13:13:36.051Z</time></trkpt><trkpt lat="42.4886191" lon="-7.3200786"><ele>602.0</ele><time>2026-04-25T13:13:37.052Z</time></trkpt><trkpt lat="42.4886602" lon="-7.3199216"><ele>602.0</ele><time>2026-04-25T13:13:38.062Z</time></trkpt><trkpt lat="42.4886959" lon="-7.3197534"><ele>600.25</ele><time>2026-04-25T13:13:39.05Z</time></trkpt><trkpt lat="42.4887216" lon="-7.3195691"><ele>598.5</ele><time>2026-04-25T13:13:40.045Z</time></trkpt><trkpt lat="42.4887376" lon="-7.319396"><ele>596.75</ele><time>2026-04-25T13:13:41.056Z</time></trkpt><trkpt lat="42.4887523" lon="-7.3192214"><ele>595.0</ele><time>2026-04-25T13:13:42.051Z</time></trkpt><trkpt lat="42.488766" lon="-7.3190644"><ele>600.5</ele><time>2026-04-25T13:13:43.046Z</time></trkpt><trkpt lat="42.4887796" lon="-7.3189119"><ele>606.0</ele><time>2026-04-25T13:13:44.053Z</time></trkpt><trkpt lat="42.488808" lon="-7.3187551"><ele>611.5</ele><time>2026-04-25T13:13:45.053Z</time></trkpt><trkpt lat="42.4888553" lon="-7.3186061"><ele>617.0</ele><time>2026-04-25T13:13:46.056Z</time></trkpt><trkpt lat="42.4889154" lon="-7.3184792"><ele>617.0</ele><time>2026-04-25T13:13:47.052Z</time></trkpt><trkpt lat="42.4889904" lon="-7.3183685"><ele>617.0</ele><time>2026-04-25T13:13:48.048Z</time></trkpt><trkpt lat="42.4890793" lon="-7.3182778"><ele>617.0</ele><time>2026-04-25T13:13:49.058Z</time></trkpt><trkpt lat="42.4891848" lon="-7.3182081"><ele>617.0</ele><time>2026-04-25T13:13:50.058Z</time></trkpt><trkpt lat="42.489315" lon="-7.3181476"><ele>617.0</ele><time>2026-04-25T13:13:51.056Z</time></trkpt><trkpt lat="42.4894606" lon="-7.3180859"><ele>617.0</ele><time>2026-04-25T13:13:52.048Z</time></trkpt><trkpt lat="42.4896009" lon="-7.3180298"><ele>617.0</ele><time>2026-04-25T13:13:53.055Z</time></trkpt><trkpt lat="42.4897266" lon="-7.3179475"><ele>617.0</ele><time>2026-04-25T13:13:54.047Z</time></trkpt><trkpt lat="42.4898402" lon="-7.3178504"><ele>618.25</ele><time>2026-04-25T13:13:55.052Z</time></trkpt><trkpt lat="42.4899537" lon="-7.3177472"><ele>619.5</ele><time>2026-04-25T13:13:56.045Z</time></trkpt><trkpt lat="42.4900578" lon="-7.3176495"><ele>620.75</ele><time>2026-04-25T13:13:57.055Z</time></trkpt><trkpt lat="42.4901433" lon="-7.3175626"><ele>622.0</ele><time>2026-04-25T13:13:58.051Z</time></trkpt><trkpt lat="42.4902195" lon="-7.3174793"><ele>622.0</ele><time>2026-04-25T13:13:59.051Z</time></trkpt><trkpt lat="42.4902848" lon="-7.3173368"><ele>622.0</ele><time>2026-04-25T13:14:00.055Z</time></trkpt><trkpt lat="42.4903627" lon="-7.3171819"><ele>622.0</ele><time>2026-04-25T13:14:01.05Z</time></trkpt><trkpt lat="42.4904319" lon="-7.3170153"><ele>622.0</ele><time>2026-04-25T13:14:02.056Z</time></trkpt><trkpt lat="42.4905146" lon="-7.3168403"><ele>627.0</ele><time>2026-04-25T13:14:03.05Z</time></trkpt><trkpt lat="42.4905871" lon="-7.3166802"><ele>632.0</ele><time>2026-04-25T13:14:04.05Z</time></trkpt><trkpt lat="42.4906499" lon="-7.3165309"><ele>637.0</ele><time>2026-04-25T13:14:05.063Z</time></trkpt><trkpt lat="42.4906999" lon="-7.3163975"><ele>642.0</ele><time>2026-04-25T13:14:06.052Z</time></trkpt><trkpt lat="42.4907302" lon="-7.3162741"><ele>642.0</ele><time>2026-04-25T13:14:07.053Z</time></trkpt><trkpt lat="42.4907406" lon="-7.3161479"><ele>642.0</ele><time>2026-04-25T13:14:08.057Z</time></trkpt><trkpt lat="42.4907206" lon="-7.3160194"><ele>642.0</ele><time>2026-04-25T13:14:09.077Z</time></trkpt><trkpt lat="42.4906691" lon="-7.3158928"><ele>642.0</ele><time>2026-04-25T13:14:10.057Z</time></trkpt><trkpt lat="42.4905951" lon="-7.3157561"><ele>642.0</ele><time>2026-04-25T13:14:11.057Z</time></trkpt><trkpt lat="42.4905092" lon="-7.315612"><ele>639.5</ele><time>2026-04-25T13:14:12.057Z</time></trkpt><trkpt lat="42.490422" lon="-7.3154633"><ele>637.0</ele><time>2026-04-25T13:14:13.045Z</time></trkpt><trkpt lat="42.4903416" lon="-7.3153218"><ele>634.5</ele><time>2026-04-25T13:14:14.064Z</time></trkpt><trkpt lat="42.4902576" lon="-7.3151683"><ele>632.0</ele><time>2026-04-25T13:14:15.056Z</time></trkpt><trkpt lat="42.4901663" lon="-7.3150049"><ele>632.0</ele><time>2026-04-25T13:14:16.055Z</time></trkpt><trkpt lat="42.4900663" lon="-7.314835"><ele>632.0</ele><time>2026-04-25T13:14:17.054Z</time></trkpt><trkpt lat="42.4899579" lon="-7.3146551"><ele>632.0</ele><time>2026-04-25T13:14:18.048Z</time></trkpt><trkpt lat="42.4898421" lon="-7.3144661"><ele>631.3333333333333</ele><time>2026-04-25T13:14:19.045Z</time></trkpt><trkpt lat="42.4897294" lon="-7.3142788"><ele>630.6666666666666</ele><time>2026-04-25T13:14:20.054Z</time></trkpt><trkpt lat="42.4896084" lon="-7.3141031"><ele>630.0</ele><time>2026-04-25T13:14:21.056Z</time></trkpt><trkpt lat="42.4894713" lon="-7.3139409"><ele>635.0</ele><time>2026-04-25T13:14:22.05Z</time></trkpt><trkpt lat="42.4893238" lon="-7.3137857"><ele>640.0</ele><time>2026-04-25T13:14:23.05Z</time></trkpt><trkpt lat="42.4891811" lon="-7.3136311"><ele>645.0</ele><time>2026-04-25T13:14:24.054Z</time></trkpt><trkpt lat="42.4890519" lon="-7.3134776"><ele>645.0</ele><time>2026-04-25T13:14:25.057Z</time></trkpt><trkpt lat="42.4889236" lon="-7.3133246"><ele>645.0</ele><time>2026-04-25T13:14:26.046Z</time></trkpt><trkpt lat="42.4888037" lon="-7.3131882"><ele>645.0</ele><time>2026-04-25T13:14:27.047Z</time></trkpt><trkpt lat="42.4887072" lon="-7.3130739"><ele>646.4</ele><time>2026-04-25T13:14:28.056Z</time></trkpt><trkpt lat="42.4886388" lon="-7.3129761"><ele>647.8</ele><time>2026-04-25T13:14:29.057Z</time></trkpt><trkpt lat="42.4885985" lon="-7.3128852"><ele>649.2</ele><time>2026-04-25T13:14:30.046Z</time></trkpt><trkpt lat="42.4885992" lon="-7.3127328"><ele>650.6</ele><time>2026-04-25T13:14:32.049Z</time></trkpt><trkpt lat="42.4886982" lon="-7.312654"><ele>652.0</ele><time>2026-04-25T13:14:34.052Z</time></trkpt><trkpt lat="42.4887787" lon="-7.3126635"><ele>652.0</ele><time>2026-04-25T13:14:36.051Z</time></trkpt><trkpt lat="42.4888676" lon="-7.3127437"><ele>652.0</ele><time>2026-04-25T13:14:40.047Z</time></trkpt><trkpt lat="42.4889255" lon="-7.3128312"><ele>652.0</ele><time>2026-04-25T13:14:41.051Z</time></trkpt><trkpt lat="42.4889899" lon="-7.3129321"><ele>652.0</ele><time>2026-04-25T13:14:42.053Z</time></trkpt><trkpt lat="42.4890524" lon="-7.3130324"><ele>652.0</ele><time>2026-04-25T13:14:43.062Z</time></trkpt><trkpt lat="42.4891305" lon="-7.3131307"><ele>650.6</ele><time>2026-04-25T13:14:44.053Z</time></trkpt><trkpt lat="42.4892138" lon="-7.3132227"><ele>649.2</ele><time>2026-04-25T13:14:45.043Z</time></trkpt><trkpt lat="42.48929" lon="-7.3133013"><ele>647.8</ele><time>2026-04-25T13:14:46.053Z</time></trkpt><trkpt lat="42.4893558" lon="-7.3133713"><ele>646.4</ele><time>2026-04-25T13:14:47.053Z</time></trkpt><trkpt lat="42.4894179" lon="-7.3134288"><ele>645.0</ele><time>2026-04-25T13:14:48.046Z</time></trkpt><trkpt lat="42.4894915" lon="-7.3134987"><ele>645.0</ele><time>2026-04-25T13:14:49.051Z</time></trkpt><trkpt lat="42.4895691" lon="-7.313563"><ele>645.0</ele><time>2026-04-25T13:14:50.051Z</time></trkpt><trkpt lat="42.4896276" lon="-7.3136112"><ele>645.0</ele><time>2026-04-25T13:14:51.052Z</time></trkpt><trkpt lat="42.4896676" lon="-7.3137005"><ele>645.0</ele><time>2026-04-25T13:14:54.059Z</time></trkpt><trkpt lat="42.4896168" lon="-7.3136139"><ele>645.0</ele><time>2026-04-25T13:15:08.052Z</time></trkpt><trkpt lat="42.4895375" lon="-7.313544"><ele>645.0</ele><time>2026-04-25T13:15:09.059Z</time></trkpt><trkpt lat="42.4894306" lon="-7.313444"><ele>645.0</ele><time>2026-04-25T13:15:10.051Z</time></trkpt><trkpt lat="42.4893179" lon="-7.3133321"><ele>645.0</ele><time>2026-04-25T13:15:11.057Z</time></trkpt><trkpt lat="42.4892142" lon="-7.3132271"><ele>645.0</ele><time>2026-04-25T13:15:12.043Z</time></trkpt><trkpt lat="42.4891207" lon="-7.3131268"><ele>645.0</ele><time>2026-04-25T13:15:13.051Z</time></trkpt><trkpt lat="42.4890412" lon="-7.313024"><ele>646.1666666666666</ele><time>2026-04-25T13:15:14.052Z</time></trkpt><trkpt lat="42.4889746" lon="-7.3129221"><ele>647.3333333333334</ele><time>2026-04-25T13:15:15.058Z</time></trkpt><trkpt lat="42.4889209" lon="-7.3128387"><ele>648.5</ele><time>2026-04-25T13:15:16.052Z</time></trkpt><trkpt lat="42.4888812" lon="-7.3127706"><ele>649.6666666666667</ele><time>2026-04-25T13:15:17.055Z</time></trkpt><trkpt lat="42.4888621" lon="-7.3126276"><ele>650.8333333333334</ele><time>2026-04-25T13:15:19.05Z</time></trkpt><trkpt lat="42.4888722" lon="-7.312531"><ele>652.0</ele><time>2026-04-25T13:15:20.073Z</time></trkpt><trkpt lat="42.4888927" lon="-7.3124164"><ele>652.0</ele><time>2026-04-25T13:15:21.051Z</time></trkpt><trkpt lat="42.4889185" lon="-7.3122928"><ele>652.0</ele><time>2026-04-25T13:15:22.055Z</time></trkpt><trkpt lat="42.488953" lon="-7.3121492"><ele>652.0</ele><time>2026-04-25T13:15:23.055Z</time></trkpt><trkpt lat="42.4889893" lon="-7.3120175"><ele>652.0</ele><time>2026-04-25T13:15:24.05Z</time></trkpt><trkpt lat="42.4890261" lon="-7.3118967"><ele>652.0</ele><time>2026-04-25T13:15:25.06Z</time></trkpt><trkpt lat="42.4890705" lon="-7.3118019"><ele>651.6666666666667</ele><time>2026-04-25T13:15:26.062Z</time></trkpt><trkpt lat="42.4891145" lon="-7.311721"><ele>651.3333333333334</ele><time>2026-04-25T13:15:27.055Z</time></trkpt><trkpt lat="42.4891622" lon="-7.3116538"><ele>651.0</ele><time>2026-04-25T13:15:28.053Z</time></trkpt><trkpt lat="42.48922" lon="-7.3115975"><ele>650.6666666666666</ele><time>2026-04-25T13:15:29.061Z</time></trkpt><trkpt lat="42.4893175" lon="-7.3115188"><ele>650.3333333333333</ele><time>2026-04-25T13:15:31.055Z</time></trkpt><trkpt lat="42.4894085" lon="-7.3114268"><ele>650.0</ele><time>2026-04-25T13:15:33.059Z</time></trkpt><trkpt lat="42.4894282" lon="-7.311336"><ele>650.6666666666666</ele><time>2026-04-25T13:15:35.054Z</time></trkpt><trkpt lat="42.4893872" lon="-7.3111974"><ele>651.3333333333333</ele><time>2026-04-25T13:15:37.058Z</time></trkpt><trkpt lat="42.4893428" lon="-7.3111218"><ele>652.0</ele><time>2026-04-25T13:15:38.054Z</time></trkpt><trkpt lat="42.4892977" lon="-7.3110416"><ele>652.6666666666666</ele><time>2026-04-25T13:15:39.05Z</time></trkpt><trkpt lat="42.4892448" lon="-7.3109513"><ele>653.3333333333334</ele><time>2026-04-25T13:15:40.056Z</time></trkpt><trkpt lat="42.4892013" lon="-7.3108788"><ele>654.0</ele><time>2026-04-25T13:15:41.072Z</time></trkpt><trkpt lat="42.4891084" lon="-7.3108114"><ele>654.0</ele><time>2026-04-25T13:15:43.05Z</time></trkpt><trkpt lat="42.4890286" lon="-7.310757"><ele>654.0</ele><time>2026-04-25T13:15:44.053Z</time></trkpt><trkpt lat="42.4889599" lon="-7.3107173"><ele>654.0</ele><time>2026-04-25T13:15:45.048Z</time></trkpt><trkpt lat="42.4888435" lon="-7.3106272"><ele>654.0</ele><time>2026-04-25T13:15:47.051Z</time></trkpt><trkpt lat="42.4887763" lon="-7.3105683"><ele>654.0</ele><time>2026-04-25T13:15:48.049Z</time></trkpt><trkpt lat="42.4886814" lon="-7.3104821"><ele>652.6</ele><time>2026-04-25T13:15:49.052Z</time></trkpt><trkpt lat="42.4885819" lon="-7.3103965"><ele>651.2</ele><time>2026-04-25T13:15:50.045Z</time></trkpt><trkpt lat="42.4884989" lon="-7.3102918"><ele>649.8000000000001</ele><time>2026-04-25T13:15:51.057Z</time></trkpt><trkpt lat="42.4884254" lon="-7.3101837"><ele>648.4000000000001</ele><time>2026-04-25T13:15:52.047Z</time></trkpt><trkpt lat="42.4883579" lon="-7.3100719"><ele>647.0</ele><time>2026-04-25T13:15:53.044Z</time></trkpt><trkpt lat="42.4883083" lon="-7.3099483"><ele>647.0</ele><time>2026-04-25T13:15:54.055Z</time></trkpt><trkpt lat="42.4882585" lon="-7.3098245"><ele>647.0</ele><time>2026-04-25T13:15:55.048Z</time></trkpt><trkpt lat="42.4882104" lon="-7.3097015"><ele>647.0</ele><time>2026-04-25T13:15:56.046Z</time></trkpt><trkpt lat="42.4881669" lon="-7.3095843"><ele>647.0</ele><time>2026-04-25T13:15:57.047Z</time></trkpt><trkpt lat="42.4881304" lon="-7.3094605"><ele>647.0</ele><time>2026-04-25T13:15:58.05Z</time></trkpt><trkpt lat="42.488081" lon="-7.3093217"><ele>647.3333333333333</ele><time>2026-04-25T13:15:59.047Z</time></trkpt><trkpt lat="42.4880519" lon="-7.3092133"><ele>647.6666666666666</ele><time>2026-04-25T13:16:00.05Z</time></trkpt><trkpt lat="42.4880323" lon="-7.3091274"><ele>648.0</ele><time>2026-04-25T13:16:01.055Z</time></trkpt><trkpt lat="42.4880249" lon="-7.3089681"><ele>648.3333333333334</ele><time>2026-04-25T13:16:03.05Z</time></trkpt><trkpt lat="42.4879821" lon="-7.3088773"><ele>648.6666666666667</ele><time>2026-04-25T13:16:06.051Z</time></trkpt><trkpt lat="42.4878938" lon="-7.308874"><ele>649.0</ele><time>2026-04-25T13:16:08.057Z</time></trkpt><trkpt lat="42.487835" lon="-7.3089069"><ele>643.8000000000001</ele><time>2026-04-25T13:16:09.057Z</time></trkpt><trkpt lat="42.4877679" lon="-7.308952"><ele>638.6</ele><time>2026-04-25T13:16:10.054Z</time></trkpt><trkpt lat="42.4877167" lon="-7.3090032"><ele>633.4</ele><time>2026-04-25T13:16:11.05Z</time></trkpt><trkpt lat="42.4876308" lon="-7.3091069"><ele>628.2</ele><time>2026-04-25T13:16:12.048Z</time></trkpt><trkpt lat="42.4875898" lon="-7.3092311"><ele>623.0</ele><time>2026-04-25T13:16:13.052Z</time></trkpt><trkpt lat="42.4875538" lon="-7.3093583"><ele>623.0</ele><time>2026-04-25T13:16:14.072Z</time></trkpt><trkpt lat="42.4875328" lon="-7.3094818"><ele>623.0</ele><time>2026-04-25T13:16:15.05Z</time></trkpt><trkpt lat="42.4875232" lon="-7.3096011"><ele>623.0</ele><time>2026-04-25T13:16:16.051Z</time></trkpt><trkpt lat="42.4875186" lon="-7.3097281"><ele>623.0</ele><time>2026-04-25T13:16:17.051Z</time></trkpt><trkpt lat="42.4875236" lon="-7.3098347"><ele>623.0</ele><time>2026-04-25T13:16:18.051Z</time></trkpt><trkpt lat="42.4875323" lon="-7.3099238"><ele>623.0</ele><time>2026-04-25T13:16:19.061Z</time></trkpt><trkpt lat="42.4875543" lon="-7.310055"><ele>621.8571428571429</ele><time>2026-04-25T13:16:21.054Z</time></trkpt><trkpt lat="42.4875387" lon="-7.3101599"><ele>620.7142857142858</ele><time>2026-04-25T13:16:24.053Z</time></trkpt><trkpt lat="42.4874693" lon="-7.3101248"><ele>619.5714285714286</ele><time>2026-04-25T13:16:26.051Z</time></trkpt><trkpt lat="42.4874132" lon="-7.3100851"><ele>618.4285714285714</ele><time>2026-04-25T13:16:27.049Z</time></trkpt><trkpt lat="42.4873487" lon="-7.3100398"><ele>617.2857142857143</ele><time>2026-04-25T13:16:28.047Z</time></trkpt><trkpt lat="42.487278" lon="-7.3099959"><ele>616.1428571428571</ele><time>2026-04-25T13:16:29.05Z</time></trkpt><trkpt lat="42.4872088" lon="-7.3099569"><ele>615.0</ele><time>2026-04-25T13:16:30.052Z</time></trkpt><trkpt lat="42.4871391" lon="-7.3099249"><ele>610.8</ele><time>2026-04-25T13:16:31.047Z</time></trkpt><trkpt lat="42.4870669" lon="-7.3098838"><ele>606.6</ele><time>2026-04-25T13:16:32.054Z</time></trkpt><trkpt lat="42.4869892" lon="-7.3098317"><ele>602.4</ele><time>2026-04-25T13:16:33.053Z</time></trkpt><trkpt lat="42.4869036" lon="-7.3097616"><ele>598.2</ele><time>2026-04-25T13:16:34.058Z</time></trkpt><trkpt lat="42.4868184" lon="-7.3096924"><ele>594.0</ele><time>2026-04-25T13:16:35.055Z</time></trkpt><trkpt lat="42.4867318" lon="-7.3096193"><ele>594.0</ele><time>2026-04-25T13:16:36.048Z</time></trkpt><trkpt lat="42.4866445" lon="-7.3095394"><ele>594.0</ele><time>2026-04-25T13:16:37.047Z</time></trkpt><trkpt lat="42.4865595" lon="-7.3094524"><ele>594.0</ele><time>2026-04-25T13:16:38.052Z</time></trkpt><trkpt lat="42.4864787" lon="-7.3093612"><ele>594.0</ele><time>2026-04-25T13:16:39.058Z</time></trkpt><trkpt lat="42.4864" lon="-7.3092701"><ele>594.0</ele><time>2026-04-25T13:16:40.053Z</time></trkpt><trkpt lat="42.486333" lon="-7.3091731"><ele>594.0</ele><time>2026-04-25T13:16:41.048Z</time></trkpt><trkpt lat="42.4862754" lon="-7.3090787"><ele>594.0</ele><time>2026-04-25T13:16:42.05Z</time></trkpt><trkpt lat="42.4862155" lon="-7.3089801"><ele>594.0</ele><time>2026-04-25T13:16:43.054Z</time></trkpt><trkpt lat="42.4861729" lon="-7.3088689"><ele>594.0</ele><time>2026-04-25T13:16:44.054Z</time></trkpt><trkpt lat="42.4861408" lon="-7.3087523"><ele>594.0</ele><time>2026-04-25T13:16:45.051Z</time></trkpt><trkpt lat="42.4861203" lon="-7.3086478"><ele>594.0</ele><time>2026-04-25T13:16:46.048Z</time></trkpt><trkpt lat="42.4861135" lon="-7.3085491"><ele>584.25</ele><time>2026-04-25T13:16:47.053Z</time></trkpt><trkpt lat="42.4861333" lon="-7.3083917"><ele>574.5</ele><time>2026-04-25T13:16:49.052Z</time></trkpt><trkpt lat="42.4861761" lon="-7.3082299"><ele>564.75</ele><time>2026-04-25T13:16:51.054Z</time></trkpt><trkpt lat="42.4862331" lon="-7.3081392"><ele>555.0</ele><time>2026-04-25T13:16:52.061Z</time></trkpt><trkpt lat="42.486328" lon="-7.3080241"><ele>552.6666666666666</ele><time>2026-04-25T13:16:53.049Z</time></trkpt><trkpt lat="42.4864475" lon="-7.3078937"><ele>550.3333333333333</ele><time>2026-04-25T13:16:54.053Z</time></trkpt><trkpt lat="42.486588" lon="-7.3077358"><ele>548.0</ele><time>2026-04-25T13:16:55.058Z</time></trkpt><trkpt lat="42.4867242" lon="-7.3075764"><ele>548.0</ele><time>2026-04-25T13:16:56.049Z</time></trkpt><trkpt lat="42.4868477" lon="-7.3074331"><ele>548.0</ele><time>2026-04-25T13:16:57.054Z</time></trkpt><trkpt lat="42.4869694" lon="-7.3073111"><ele>548.0</ele><time>2026-04-25T13:16:58.048Z</time></trkpt><trkpt lat="42.4870979" lon="-7.3072076"><ele>544.25</ele><time>2026-04-25T13:16:59.054Z</time></trkpt><trkpt lat="42.4872244" lon="-7.3071135"><ele>540.5</ele><time>2026-04-25T13:17:00.057Z</time></trkpt><trkpt lat="42.4873446" lon="-7.3070425"><ele>536.75</ele><time>2026-04-25T13:17:01.061Z</time></trkpt><trkpt lat="42.4874554" lon="-7.3069945"><ele>533.0</ele><time>2026-04-25T13:17:02.052Z</time></trkpt><trkpt lat="42.4875552" lon="-7.3069604"><ele>533.0</ele><time>2026-04-25T13:17:03.058Z</time></trkpt><trkpt lat="42.4876576" lon="-7.306938"><ele>533.0</ele><time>2026-04-25T13:17:04.052Z</time></trkpt><trkpt lat="42.4877643" lon="-7.306934"><ele>533.0</ele><time>2026-04-25T13:17:05.055Z</time></trkpt><trkpt lat="42.487872" lon="-7.3069498"><ele>533.0</ele><time>2026-04-25T13:17:06.063Z</time></trkpt><trkpt lat="42.4879782" lon="-7.3069716"><ele>533.0</ele><time>2026-04-25T13:17:07.055Z</time></trkpt><trkpt lat="42.4880812" lon="-7.3069973"><ele>535.75</ele><time>2026-04-25T13:17:08.048Z</time></trkpt><trkpt lat="42.488192" lon="-7.3069901"><ele>538.5</ele><time>2026-04-25T13:17:09.05Z</time></trkpt><trkpt lat="42.4883007" lon="-7.3069514"><ele>541.25</ele><time>2026-04-25T13:17:10.053Z</time></trkpt><trkpt lat="42.4883947" lon="-7.3068734"><ele>544.0</ele><time>2026-04-25T13:17:11.059Z</time></trkpt><trkpt lat="42.4884846" lon="-7.3067583"><ele>544.0</ele><time>2026-04-25T13:17:12.053Z</time></trkpt><trkpt lat="42.4885879" lon="-7.3066242"><ele>544.0</ele><time>2026-04-25T13:17:13.062Z</time></trkpt><trkpt lat="42.4886882" lon="-7.3064487"><ele>544.0</ele><time>2026-04-25T13:17:14.05Z</time></trkpt><trkpt lat="42.4887744" lon="-7.3063087"><ele>544.0</ele><time>2026-04-25T13:17:15.06Z</time></trkpt><trkpt lat="42.4888387" lon="-7.3061885"><ele>547.0</ele><time>2026-04-25T13:17:16.057Z</time></trkpt><trkpt lat="42.4888842" lon="-7.3060703"><ele>550.0</ele><time>2026-04-25T13:17:17.047Z</time></trkpt><trkpt lat="42.4888982" lon="-7.305949"><ele>553.0</ele><time>2026-04-25T13:17:18.059Z</time></trkpt><trkpt lat="42.4889046" lon="-7.3058289"><ele>556.0</ele><time>2026-04-25T13:17:19.055Z</time></trkpt><trkpt lat="42.4888911" lon="-7.305654"><ele>559.0</ele><time>2026-04-25T13:17:20.052Z</time></trkpt><trkpt lat="42.488882" lon="-7.3054507"><ele>559.0</ele><time>2026-04-25T13:17:21.058Z</time></trkpt><trkpt lat="42.4888943" lon="-7.3052846"><ele>559.0</ele><time>2026-04-25T13:17:22.057Z</time></trkpt><trkpt lat="42.4889185" lon="-7.3051436"><ele>559.0</ele><time>2026-04-25T13:17:23.055Z</time></trkpt><trkpt lat="42.4889591" lon="-7.3050301"><ele>559.0</ele><time>2026-04-25T13:17:24.056Z</time></trkpt><trkpt lat="42.4890135" lon="-7.3049059"><ele>559.0</ele><time>2026-04-25T13:17:25.051Z</time></trkpt><trkpt lat="42.4890861" lon="-7.3047775"><ele>554.0</ele><time>2026-04-25T13:17:26.05Z</time></trkpt><trkpt lat="42.4891671" lon="-7.304648"><ele>549.0</ele><time>2026-04-25T13:17:27.05Z</time></trkpt><trkpt lat="42.4892606" lon="-7.3045268"><ele>544.0</ele><time>2026-04-25T13:17:28.053Z</time></trkpt><trkpt lat="42.4893418" lon="-7.3044121"><ele>539.0</ele><time>2026-04-25T13:17:29.053Z</time></trkpt><trkpt lat="42.4894292" lon="-7.3043236"><ele>539.0</ele><time>2026-04-25T13:17:30.054Z</time></trkpt><trkpt lat="42.4895171" lon="-7.3042626"><ele>539.0</ele><time>2026-04-25T13:17:31.062Z</time></trkpt><trkpt lat="42.4896262" lon="-7.3042305"><ele>539.0</ele><time>2026-04-25T13:17:32.054Z</time></trkpt><trkpt lat="42.4897376" lon="-7.304178"><ele>539.0</ele><time>2026-04-25T13:17:33.049Z</time></trkpt><trkpt lat="42.4898784" lon="-7.3040844"><ele>539.5</ele><time>2026-04-25T13:17:34.055Z</time></trkpt><trkpt lat="42.4899898" lon="-7.3039901"><ele>540.0</ele><time>2026-04-25T13:17:35.05Z</time></trkpt><trkpt lat="42.49009" lon="-7.3039206"><ele>540.5</ele><time>2026-04-25T13:17:36.056Z</time></trkpt><trkpt lat="42.4902136" lon="-7.3038669"><ele>541.0</ele><time>2026-04-25T13:17:37.051Z</time></trkpt><trkpt lat="42.4903497" lon="-7.3038362"><ele>545.75</ele><time>2026-04-25T13:17:38.054Z</time></trkpt><trkpt lat="42.4904676" lon="-7.3038117"><ele>550.5</ele><time>2026-04-25T13:17:39.061Z</time></trkpt><trkpt lat="42.4905814" lon="-7.3038066"><ele>555.25</ele><time>2026-04-25T13:17:40.065Z</time></trkpt><trkpt lat="42.4906976" lon="-7.3038177"><ele>560.0</ele><time>2026-04-25T13:17:41.046Z</time></trkpt><trkpt lat="42.4908134" lon="-7.3038376"><ele>560.0</ele><time>2026-04-25T13:17:42.052Z</time></trkpt><trkpt lat="42.4909466" lon="-7.3038631"><ele>560.0</ele><time>2026-04-25T13:17:43.049Z</time></trkpt><trkpt lat="42.4910788" lon="-7.3038827"><ele>560.0</ele><time>2026-04-25T13:17:44.049Z</time></trkpt><trkpt lat="42.4911987" lon="-7.3038895"><ele>560.0</ele><time>2026-04-25T13:17:45.048Z</time></trkpt><trkpt lat="42.4913154" lon="-7.3039018"><ele>563.3333333333333</ele><time>2026-04-25T13:17:46.063Z</time></trkpt><trkpt lat="42.4914122" lon="-7.3039082"><ele>566.6666666666666</ele><time>2026-04-25T13:17:47.047Z</time></trkpt><trkpt lat="42.4914896" lon="-7.3039211"><ele>570.0</ele><time>2026-04-25T13:17:48.052Z</time></trkpt><trkpt lat="42.4915558" lon="-7.3039142"><ele>573.3333333333334</ele><time>2026-04-25T13:17:49.043Z</time></trkpt><trkpt lat="42.4916267" lon="-7.3039291"><ele>576.6666666666667</ele><time>2026-04-25T13:17:50.045Z</time></trkpt><trkpt lat="42.4917071" lon="-7.3039345"><ele>580.0</ele><time>2026-04-25T13:17:51.05Z</time></trkpt><trkpt lat="42.4917846" lon="-7.3039551"><ele>580.0</ele><time>2026-04-25T13:17:52.046Z</time></trkpt><trkpt lat="42.4918556" lon="-7.3039458"><ele>580.0</ele><time>2026-04-25T13:17:53.048Z</time></trkpt><trkpt lat="42.4919119" lon="-7.3038875"><ele>580.0</ele><time>2026-04-25T13:17:54.053Z</time></trkpt><trkpt lat="42.4919249" lon="-7.3037407"><ele>580.0</ele><time>2026-04-25T13:17:56.051Z</time></trkpt><trkpt lat="42.4918806" lon="-7.3036514"><ele>580.0</ele><time>2026-04-25T13:17:57.056Z</time></trkpt><trkpt lat="42.4918125" lon="-7.3035453"><ele>580.0</ele><time>2026-04-25T13:17:58.055Z</time></trkpt><trkpt lat="42.4917234" lon="-7.30348"><ele>580.0</ele><time>2026-04-25T13:17:59.047Z</time></trkpt><trkpt lat="42.4916198" lon="-7.3034387"><ele>580.0</ele><time>2026-04-25T13:18:00.06Z</time></trkpt><trkpt lat="42.4915077" lon="-7.3033638"><ele>580.0</ele><time>2026-04-25T13:18:01.051Z</time></trkpt><trkpt lat="42.4914071" lon="-7.3032417"><ele>580.0</ele><time>2026-04-25T13:18:02.057Z</time></trkpt><trkpt lat="42.4913105" lon="-7.3031332"><ele>580.6</ele><time>2026-04-25T13:18:03.045Z</time></trkpt><trkpt lat="42.4912166" lon="-7.3030301"><ele>581.2</ele><time>2026-04-25T13:18:04.052Z</time></trkpt><trkpt lat="42.4911482" lon="-7.3029447"><ele>581.8</ele><time>2026-04-25T13:18:05.055Z</time></trkpt><trkpt lat="42.491056" lon="-7.3028477"><ele>582.4</ele><time>2026-04-25T13:18:06.05Z</time></trkpt><trkpt lat="42.4909571" lon="-7.3027615"><ele>583.0</ele><time>2026-04-25T13:18:07.056Z</time></trkpt><trkpt lat="42.490846" lon="-7.3026692"><ele>583.0</ele><time>2026-04-25T13:18:08.045Z</time></trkpt><trkpt lat="42.4907173" lon="-7.3025601"><ele>583.0</ele><time>2026-04-25T13:18:09.049Z</time></trkpt><trkpt lat="42.4905607" lon="-7.3024526"><ele>583.0</ele><time>2026-04-25T13:18:10.053Z</time></trkpt><trkpt lat="42.4903878" lon="-7.3023763"><ele>577.0</ele><time>2026-04-25T13:18:11.046Z</time></trkpt><trkpt lat="42.4902065" lon="-7.302301"><ele>571.0</ele><time>2026-04-25T13:18:12.05Z</time></trkpt><trkpt lat="42.4900373" lon="-7.3022359"><ele>565.0</ele><time>2026-04-25T13:18:13.047Z</time></trkpt><trkpt lat="42.4898756" lon="-7.3021721"><ele>573.0</ele><time>2026-04-25T13:18:14.05Z</time></trkpt><trkpt lat="42.4897264" lon="-7.3020948"><ele>581.0</ele><time>2026-04-25T13:18:15.049Z</time></trkpt><trkpt lat="42.489573" lon="-7.3020192"><ele>589.0</ele><time>2026-04-25T13:18:16.056Z</time></trkpt><trkpt lat="42.4894149" lon="-7.3019341"><ele>589.0</ele><time>2026-04-25T13:18:17.071Z</time></trkpt><trkpt lat="42.4892485" lon="-7.3018943"><ele>589.0</ele><time>2026-04-25T13:18:18.048Z</time></trkpt><trkpt lat="42.4890963" lon="-7.3018671"><ele>589.0</ele><time>2026-04-25T13:18:19.048Z</time></trkpt><trkpt lat="42.4889614" lon="-7.3018312"><ele>589.0</ele><time>2026-04-25T13:18:20.06Z</time></trkpt><trkpt lat="42.4888384" lon="-7.3018031"><ele>589.0</ele><time>2026-04-25T13:18:21.052Z</time></trkpt><trkpt lat="42.488718" lon="-7.3017665"><ele>589.0</ele><time>2026-04-25T13:18:22.047Z</time></trkpt><trkpt lat="42.4885989" lon="-7.3017133"><ele>589.0</ele><time>2026-04-25T13:18:23.061Z</time></trkpt><trkpt lat="42.488471" lon="-7.3016443"><ele>586.5</ele><time>2026-04-25T13:18:24.054Z</time></trkpt><trkpt lat="42.4883527" lon="-7.3015794"><ele>584.0</ele><time>2026-04-25T13:18:25.05Z</time></trkpt><trkpt lat="42.4882487" lon="-7.3015162"><ele>581.5</ele><time>2026-04-25T13:18:26.052Z</time></trkpt><trkpt lat="42.4881545" lon="-7.3014543"><ele>579.0</ele><time>2026-04-25T13:18:27.059Z</time></trkpt><trkpt lat="42.4880615" lon="-7.301378"><ele>579.6</ele><time>2026-04-25T13:18:28.055Z</time></trkpt><trkpt lat="42.487966" lon="-7.3012833"><ele>580.2</ele><time>2026-04-25T13:18:29.055Z</time></trkpt><trkpt lat="42.4878811" lon="-7.3011836"><ele>580.8000000000001</ele><time>2026-04-25T13:18:30.056Z</time></trkpt><trkpt lat="42.4878056" lon="-7.3010949"><ele>581.4</ele><time>2026-04-25T13:18:31.058Z</time></trkpt><trkpt lat="42.4877486" lon="-7.3010092"><ele>582.0</ele><time>2026-04-25T13:18:32.056Z</time></trkpt><trkpt lat="42.4877059" lon="-7.300925"><ele>582.0</ele><time>2026-04-25T13:18:33.063Z</time></trkpt><trkpt lat="42.4876603" lon="-7.3008099"><ele>582.0</ele><time>2026-04-25T13:18:35.06Z</time></trkpt><trkpt lat="42.4877557" lon="-7.300737"><ele>582.0</ele><time>2026-04-25T13:18:38.061Z</time></trkpt><trkpt lat="42.4878293" lon="-7.3007153"><ele>582.0</ele><time>2026-04-25T13:18:39.054Z</time></trkpt><trkpt lat="42.4879099" lon="-7.3006979"><ele>582.0</ele><time>2026-04-25T13:18:40.052Z</time></trkpt><trkpt lat="42.4879957" lon="-7.3006882"><ele>582.0</ele><time>2026-04-25T13:18:41.059Z</time></trkpt><trkpt lat="42.4880864" lon="-7.3006825"><ele>585.6</ele><time>2026-04-25T13:18:42.055Z</time></trkpt><trkpt lat="42.488178" lon="-7.3006803"><ele>589.2</ele><time>2026-04-25T13:18:43.055Z</time></trkpt><trkpt lat="42.4882781" lon="-7.300691"><ele>592.8</ele><time>2026-04-25T13:18:44.051Z</time></trkpt><trkpt lat="42.4883808" lon="-7.3007007"><ele>596.4</ele><time>2026-04-25T13:18:45.053Z</time></trkpt><trkpt lat="42.4885045" lon="-7.3006998"><ele>600.0</ele><time>2026-04-25T13:18:46.059Z</time></trkpt><trkpt lat="42.4886284" lon="-7.3006999"><ele>600.0</ele><time>2026-04-25T13:18:47.055Z</time></trkpt><trkpt lat="42.4887463" lon="-7.3006989"><ele>600.0</ele><time>2026-04-25T13:18:48.063Z</time></trkpt><trkpt lat="42.4888524" lon="-7.300681"><ele>600.0</ele><time>2026-04-25T13:18:49.051Z</time></trkpt><trkpt lat="42.488961" lon="-7.3006819"><ele>600.0</ele><time>2026-04-25T13:18:50.055Z</time></trkpt><trkpt lat="42.4890892" lon="-7.3006686"><ele>603.75</ele><time>2026-04-25T13:18:51.054Z</time></trkpt><trkpt lat="42.4892155" lon="-7.3006612"><ele>607.5</ele><time>2026-04-25T13:18:52.072Z</time></trkpt><trkpt lat="42.4893386" lon="-7.3006494"><ele>611.25</ele><time>2026-04-25T13:18:53.063Z</time></trkpt><trkpt lat="42.4894609" lon="-7.3006414"><ele>615.0</ele><time>2026-04-25T13:18:54.053Z</time></trkpt><trkpt lat="42.4895786" lon="-7.3006445"><ele>619.0</ele><time>2026-04-25T13:18:55.05Z</time></trkpt><trkpt lat="42.4897013" lon="-7.3006481"><ele>623.0</ele><time>2026-04-25T13:18:56.052Z</time></trkpt><trkpt lat="42.489817" lon="-7.3006392"><ele>627.0</ele><time>2026-04-25T13:18:57.058Z</time></trkpt><trkpt lat="42.4899352" lon="-7.300643"><ele>631.0</ele><time>2026-04-25T13:18:58.048Z</time></trkpt><trkpt lat="42.4900551" lon="-7.3006425"><ele>631.0</ele><time>2026-04-25T13:18:59.047Z</time></trkpt><trkpt lat="42.490185" lon="-7.3006457"><ele>631.0</ele><time>2026-04-25T13:19:00.051Z</time></trkpt><trkpt lat="42.4902983" lon="-7.3006478"><ele>631.0</ele><time>2026-04-25T13:19:01.047Z</time></trkpt><trkpt lat="42.4903792" lon="-7.3006532"><ele>631.0</ele><time>2026-04-25T13:19:02.047Z</time></trkpt><trkpt lat="42.490466" lon="-7.3006626"><ele>631.0</ele><time>2026-04-25T13:19:03.066Z</time></trkpt><trkpt lat="42.490554" lon="-7.3006532"><ele>634.5</ele><time>2026-04-25T13:19:04.049Z</time></trkpt><trkpt lat="42.4906688" lon="-7.300634"><ele>638.0</ele><time>2026-04-25T13:19:05.059Z</time></trkpt><trkpt lat="42.4907867" lon="-7.3006019"><ele>641.5</ele><time>2026-04-25T13:19:06.047Z</time></trkpt><trkpt lat="42.4909129" lon="-7.3005869"><ele>645.0</ele><time>2026-04-25T13:19:07.049Z</time></trkpt><trkpt lat="42.4910455" lon="-7.3005617"><ele>648.25</ele><time>2026-04-25T13:19:08.056Z</time></trkpt><trkpt lat="42.4911816" lon="-7.3005638"><ele>651.5</ele><time>2026-04-25T13:19:09.052Z</time></trkpt><trkpt lat="42.4913079" lon="-7.3005665"><ele>654.75</ele><time>2026-04-25T13:19:10.047Z</time></trkpt><trkpt lat="42.491418" lon="-7.3005734"><ele>658.0</ele><time>2026-04-25T13:19:11.046Z</time></trkpt><trkpt lat="42.4915203" lon="-7.3005646"><ele>662.25</ele><time>2026-04-25T13:19:12.048Z</time></trkpt><trkpt lat="42.4916349" lon="-7.3005555"><ele>666.5</ele><time>2026-04-25T13:19:13.052Z</time></trkpt><trkpt lat="42.4917722" lon="-7.3005418"><ele>670.75</ele><time>2026-04-25T13:19:14.049Z</time></trkpt><trkpt lat="42.4919108" lon="-7.3005296"><ele>675.0</ele><time>2026-04-25T13:19:15.048Z</time></trkpt><trkpt lat="42.4920307" lon="-7.3005532"><ele>676.75</ele><time>2026-04-25T13:19:16.051Z</time></trkpt><trkpt lat="42.4921457" lon="-7.3005722"><ele>678.5</ele><time>2026-04-25T13:19:17.056Z</time></trkpt><trkpt lat="42.4922444" lon="-7.3006059"><ele>680.25</ele><time>2026-04-25T13:19:18.052Z</time></trkpt><trkpt lat="42.492358" lon="-7.3006184"><ele>682.0</ele><time>2026-04-25T13:19:19.05Z</time></trkpt><trkpt lat="42.4924871" lon="-7.3006465"><ele>682.0</ele><time>2026-04-25T13:19:21.052Z</time></trkpt><trkpt lat="42.4925759" lon="-7.3006491"><ele>682.0</ele><time>2026-04-25T13:19:22.047Z</time></trkpt><trkpt lat="42.4926515" lon="-7.3006603"><ele>682.0</ele><time>2026-04-25T13:19:23.061Z</time></trkpt><trkpt lat="42.4927386" lon="-7.300692"><ele>682.0</ele><time>2026-04-25T13:19:24.053Z</time></trkpt><trkpt lat="42.4928321" lon="-7.300693"><ele>682.0</ele><time>2026-04-25T13:19:25.051Z</time></trkpt><trkpt lat="42.4929284" lon="-7.3006879"><ele>682.0</ele><time>2026-04-25T13:19:26.053Z</time></trkpt><trkpt lat="42.493028" lon="-7.3007041"><ele>686.6</ele><time>2026-04-25T13:19:27.049Z</time></trkpt><trkpt lat="42.4931312" lon="-7.300713"><ele>691.2</ele><time>2026-04-25T13:19:28.055Z</time></trkpt><trkpt lat="42.4932275" lon="-7.3007172"><ele>695.8</ele><time>2026-04-25T13:19:29.051Z</time></trkpt><trkpt lat="42.4933418" lon="-7.3007201"><ele>700.4</ele><time>2026-04-25T13:19:30.056Z</time></trkpt><trkpt lat="42.4934591" lon="-7.3007165"><ele>705.0</ele><time>2026-04-25T13:19:31.05Z</time></trkpt><trkpt lat="42.4935732" lon="-7.3007072"><ele>705.0</ele><time>2026-04-25T13:19:32.046Z</time></trkpt><trkpt lat="42.4936441" lon="-7.300695"><ele>705.0</ele><time>2026-04-25T13:19:33.052Z</time></trkpt><trkpt lat="42.4937456" lon="-7.3007118"><ele>705.0</ele><time>2026-04-25T13:19:36.054Z</time></trkpt><trkpt lat="42.4938008" lon="-7.3007673"><ele>705.0</ele><time>2026-04-25T13:19:37.058Z</time></trkpt><trkpt lat="42.4938601" lon="-7.3008337"><ele>705.0</ele><time>2026-04-25T13:19:38.067Z</time></trkpt><trkpt lat="42.4939499" lon="-7.3009361"><ele>705.0</ele><time>2026-04-25T13:19:40.06Z</time></trkpt><trkpt lat="42.4939908" lon="-7.3010075"><ele>706.6666666666666</ele><time>2026-04-25T13:19:41.055Z</time></trkpt><trkpt lat="42.4940321" lon="-7.3010934"><ele>708.3333333333334</ele><time>2026-04-25T13:19:42.05Z</time></trkpt><trkpt lat="42.4940659" lon="-7.3011976"><ele>710.0</ele><time>2026-04-25T13:19:43.051Z</time></trkpt><trkpt lat="42.4941225" lon="-7.3013104"><ele>711.6666666666667</ele><time>2026-04-25T13:19:44.053Z</time></trkpt><trkpt lat="42.4941689" lon="-7.3014228"><ele>713.3333333333334</ele><time>2026-04-25T13:19:45.055Z</time></trkpt><trkpt lat="42.4942193" lon="-7.3015299"><ele>715.0</ele><time>2026-04-25T13:19:46.06Z</time></trkpt><trkpt lat="42.4942595" lon="-7.3016082"><ele>715.0</ele><time>2026-04-25T13:19:47.057Z</time></trkpt><trkpt lat="42.4943597" lon="-7.3017047"><ele>715.0</ele><time>2026-04-25T13:19:49.054Z</time></trkpt><trkpt lat="42.4944335" lon="-7.3017241"><ele>715.0</ele><time>2026-04-25T13:19:50.058Z</time></trkpt><trkpt lat="42.4944989" lon="-7.301681"><ele>715.0</ele><time>2026-04-25T13:19:51.06Z</time></trkpt><trkpt lat="42.4945939" lon="-7.3015666"><ele>715.0</ele><time>2026-04-25T13:19:53.063Z</time></trkpt><trkpt lat="42.4946467" lon="-7.3014691"><ele>718.0</ele><time>2026-04-25T13:19:54.052Z</time></trkpt><trkpt lat="42.4947012" lon="-7.3013744"><ele>721.0</ele><time>2026-04-25T13:19:55.054Z</time></trkpt><trkpt lat="42.4947703" lon="-7.3012901"><ele>724.0</ele><time>2026-04-25T13:19:56.055Z</time></trkpt><trkpt lat="42.4948528" lon="-7.3012303"><ele>727.0</ele><time>2026-04-25T13:19:57.051Z</time></trkpt><trkpt lat="42.4949492" lon="-7.3011812"><ele>730.0</ele><time>2026-04-25T13:19:58.049Z</time></trkpt><trkpt lat="42.4950454" lon="-7.3011206"><ele>730.0</ele><time>2026-04-25T13:19:59.05Z</time></trkpt><trkpt lat="42.4951197" lon="-7.3010726"><ele>730.0</ele><time>2026-04-25T13:20:00.051Z</time></trkpt><trkpt lat="42.4951887" lon="-7.3010288"><ele>730.0</ele><time>2026-04-25T13:20:01.054Z</time></trkpt><trkpt lat="42.4952734" lon="-7.3010064"><ele>730.0</ele><time>2026-04-25T13:20:02.059Z</time></trkpt><trkpt lat="42.4953765" lon="-7.3009898"><ele>730.0</ele><time>2026-04-25T13:20:03.057Z</time></trkpt><trkpt lat="42.4954777" lon="-7.3009748"><ele>731.3333333333334</ele><time>2026-04-25T13:20:04.055Z</time></trkpt><trkpt lat="42.495572" lon="-7.3009499"><ele>732.6666666666667</ele><time>2026-04-25T13:20:05.049Z</time></trkpt><trkpt lat="42.4956513" lon="-7.3009285"><ele>734.0</ele><time>2026-04-25T13:20:06.058Z</time></trkpt><trkpt lat="42.4957272" lon="-7.3009104"><ele>735.3333333333334</ele><time>2026-04-25T13:20:07.059Z</time></trkpt><trkpt lat="42.4958087" lon="-7.3008833"><ele>736.6666666666666</ele><time>2026-04-25T13:20:08.052Z</time></trkpt><trkpt lat="42.49589" lon="-7.3008642"><ele>738.0</ele><time>2026-04-25T13:20:09.059Z</time></trkpt><trkpt lat="42.4959719" lon="-7.3008188"><ele>738.0</ele><time>2026-04-25T13:20:10.062Z</time></trkpt><trkpt lat="42.4960663" lon="-7.3007595"><ele>738.0</ele><time>2026-04-25T13:20:11.055Z</time></trkpt><trkpt lat="42.4961297" lon="-7.3007067"><ele>738.0</ele><time>2026-04-25T13:20:12.052Z</time></trkpt><trkpt lat="42.4961872" lon="-7.3006558"><ele>738.0</ele><time>2026-04-25T13:20:13.058Z</time></trkpt><trkpt lat="42.4962861" lon="-7.3005754"><ele>738.0</ele><time>2026-04-25T13:20:15.049Z</time></trkpt><trkpt lat="42.4963415" lon="-7.3005107"><ele>738.0</ele><time>2026-04-25T13:20:16.054Z</time></trkpt><trkpt lat="42.496408" lon="-7.300425"><ele>741.0</ele><time>2026-04-25T13:20:17.064Z</time></trkpt><trkpt lat="42.4964957" lon="-7.3003616"><ele>744.0</ele><time>2026-04-25T13:20:18.049Z</time></trkpt><trkpt lat="42.4965983" lon="-7.3003213"><ele>747.0</ele><time>2026-04-25T13:20:19.063Z</time></trkpt><trkpt lat="42.4967122" lon="-7.3002917"><ele>750.0</ele><time>2026-04-25T13:20:20.054Z</time></trkpt><trkpt lat="42.4968246" lon="-7.3002642"><ele>753.0</ele><time>2026-04-25T13:20:21.05Z</time></trkpt><trkpt lat="42.4969254" lon="-7.3002488"><ele>753.0</ele><time>2026-04-25T13:20:22.055Z</time></trkpt><trkpt lat="42.497021" lon="-7.3002305"><ele>753.0</ele><time>2026-04-25T13:20:23.058Z</time></trkpt><trkpt lat="42.4971067" lon="-7.3001973"><ele>753.0</ele><time>2026-04-25T13:20:24.049Z</time></trkpt><trkpt lat="42.4971837" lon="-7.300144"><ele>753.0</ele><time>2026-04-25T13:20:25.056Z</time></trkpt><trkpt lat="42.4972579" lon="-7.3000888"><ele>753.0</ele><time>2026-04-25T13:20:26.057Z</time></trkpt><trkpt lat="42.497307" lon="-7.3000149"><ele>753.0</ele><time>2026-04-25T13:20:27.062Z</time></trkpt><trkpt lat="42.4973892" lon="-7.2999025"><ele>753.0</ele><time>2026-04-25T13:20:29.064Z</time></trkpt><trkpt lat="42.4974852" lon="-7.2998207"><ele>753.0</ele><time>2026-04-25T13:20:31.067Z</time></trkpt><trkpt lat="42.4975567" lon="-7.2998048"><ele>753.0</ele><time>2026-04-25T13:20:32.062Z</time></trkpt><trkpt lat="42.4976429" lon="-7.2997884"><ele>753.0</ele><time>2026-04-25T13:20:33.059Z</time></trkpt><trkpt lat="42.4977298" lon="-7.2997698"><ele>753.0</ele><time>2026-04-25T13:20:34.057Z</time></trkpt><trkpt lat="42.4978136" lon="-7.2997458"><ele>753.0</ele><time>2026-04-25T13:20:35.053Z</time></trkpt><trkpt lat="42.4978963" lon="-7.2997202"><ele>753.4</ele><time>2026-04-25T13:20:36.053Z</time></trkpt><trkpt lat="42.4979721" lon="-7.2996548"><ele>753.8</ele><time>2026-04-25T13:20:37.056Z</time></trkpt><trkpt lat="42.4980434" lon="-7.299573"><ele>754.2</ele><time>2026-04-25T13:20:38.053Z</time></trkpt><trkpt lat="42.4981139" lon="-7.2994764"><ele>754.6</ele><time>2026-04-25T13:20:39.053Z</time></trkpt><trkpt lat="42.4981862" lon="-7.2993645"><ele>755.0</ele><time>2026-04-25T13:20:40.058Z</time></trkpt><trkpt lat="42.4982428" lon="-7.2992443"><ele>755.0</ele><time>2026-04-25T13:20:41.057Z</time></trkpt><trkpt lat="42.4982837" lon="-7.2991291"><ele>755.0</ele><time>2026-04-25T13:20:42.056Z</time></trkpt><trkpt lat="42.4983173" lon="-7.2990243"><ele>755.0</ele><time>2026-04-25T13:20:43.049Z</time></trkpt><trkpt lat="42.4983463" lon="-7.2989252"><ele>755.0</ele><time>2026-04-25T13:20:44.057Z</time></trkpt><trkpt lat="42.4983707" lon="-7.2988356"><ele>755.0</ele><time>2026-04-25T13:20:45.054Z</time></trkpt><trkpt lat="42.4984073" lon="-7.2987086"><ele>755.0</ele><time>2026-04-25T13:20:47.048Z</time></trkpt><trkpt lat="42.4984642" lon="-7.2986701"><ele>755.3333333333333</ele><time>2026-04-25T13:20:49.053Z</time></trkpt><trkpt lat="42.4985443" lon="-7.2987163"><ele>755.6666666666666</ele><time>2026-04-25T13:20:51.052Z</time></trkpt><trkpt lat="42.4986455" lon="-7.2988112"><ele>756.0</ele><time>2026-04-25T13:20:53.047Z</time></trkpt><trkpt lat="42.4987102" lon="-7.2988675"><ele>756.3333333333334</ele><time>2026-04-25T13:20:54.054Z</time></trkpt><trkpt lat="42.4987721" lon="-7.2989217"><ele>756.6666666666667</ele><time>2026-04-25T13:20:55.052Z</time></trkpt><trkpt lat="42.4988415" lon="-7.2989808"><ele>757.0</ele><time>2026-04-25T13:20:56.05Z</time></trkpt><trkpt lat="42.4989125" lon="-7.2990419"><ele>757.0</ele><time>2026-04-25T13:20:57.052Z</time></trkpt><trkpt lat="42.4989815" lon="-7.2991395"><ele>757.0</ele><time>2026-04-25T13:20:58.049Z</time></trkpt><trkpt lat="42.4990642" lon="-7.2992487"><ele>757.0</ele><time>2026-04-25T13:20:59.051Z</time></trkpt><trkpt lat="42.4991552" lon="-7.2993536"><ele>757.0</ele><time>2026-04-25T13:21:00.051Z</time></trkpt><trkpt lat="42.4992529" lon="-7.2994508"><ele>757.0</ele><time>2026-04-25T13:21:01.06Z</time></trkpt><trkpt lat="42.4993616" lon="-7.2995579"><ele>757.0</ele><time>2026-04-25T13:21:02.049Z</time></trkpt><trkpt lat="42.4994692" lon="-7.299653"><ele>757.0</ele><time>2026-04-25T13:21:03.051Z</time></trkpt><trkpt lat="42.4995737" lon="-7.2997399"><ele>757.0</ele><time>2026-04-25T13:21:04.062Z</time></trkpt><trkpt lat="42.4996872" lon="-7.2998284"><ele>758.75</ele><time>2026-04-25T13:21:05.05Z</time></trkpt><trkpt lat="42.4998048" lon="-7.2999136"><ele>760.5</ele><time>2026-04-25T13:21:06.049Z</time></trkpt><trkpt lat="42.4999173" lon="-7.2999887"><ele>762.25</ele><time>2026-04-25T13:21:07.051Z</time></trkpt><trkpt lat="42.5000175" lon="-7.3000563"><ele>764.0</ele><time>2026-04-25T13:21:08.057Z</time></trkpt><trkpt lat="42.500114" lon="-7.3001208"><ele>764.0</ele><time>2026-04-25T13:21:09.05Z</time></trkpt><trkpt lat="42.5002117" lon="-7.300174"><ele>764.0</ele><time>2026-04-25T13:21:10.081Z</time></trkpt><trkpt lat="42.5003152" lon="-7.300206"><ele>764.0</ele><time>2026-04-25T13:21:11.05Z</time></trkpt><trkpt lat="42.5004236" lon="-7.3002252"><ele>764.0</ele><time>2026-04-25T13:21:12.054Z</time></trkpt><trkpt lat="42.5005388" lon="-7.3002496"><ele>764.0</ele><time>2026-04-25T13:21:13.052Z</time></trkpt><trkpt lat="42.5006577" lon="-7.3002935"><ele>765.5</ele><time>2026-04-25T13:21:14.056Z</time></trkpt><trkpt lat="42.5007797" lon="-7.300361"><ele>767.0</ele><time>2026-04-25T13:21:15.053Z</time></trkpt><trkpt lat="42.5009068" lon="-7.3004422"><ele>768.5</ele><time>2026-04-25T13:21:16.046Z</time></trkpt><trkpt lat="42.5010345" lon="-7.3005289"><ele>770.0</ele><time>2026-04-25T13:21:17.054Z</time></trkpt><trkpt lat="42.5011468" lon="-7.3006092"><ele>771.75</ele><time>2026-04-25T13:21:18.049Z</time></trkpt><trkpt lat="42.5012512" lon="-7.3006849"><ele>773.5</ele><time>2026-04-25T13:21:19.055Z</time></trkpt><trkpt lat="42.5013568" lon="-7.3007517"><ele>775.25</ele><time>2026-04-25T13:21:20.058Z</time></trkpt><trkpt lat="42.5014652" lon="-7.3008057"><ele>777.0</ele><time>2026-04-25T13:21:21.052Z</time></trkpt><trkpt lat="42.5015638" lon="-7.3008464"><ele>777.0</ele><time>2026-04-25T13:21:22.054Z</time></trkpt><trkpt lat="42.5016625" lon="-7.3008864"><ele>777.0</ele><time>2026-04-25T13:21:23.063Z</time></trkpt><trkpt lat="42.5017573" lon="-7.3009278"><ele>777.0</ele><time>2026-04-25T13:21:24.059Z</time></trkpt><trkpt lat="42.5018516" lon="-7.3009717"><ele>777.0</ele><time>2026-04-25T13:21:25.055Z</time></trkpt><trkpt lat="42.5019429" lon="-7.3010135"><ele>777.0</ele><time>2026-04-25T13:21:26.064Z</time></trkpt><trkpt lat="42.5020387" lon="-7.3010578"><ele>778.1666666666666</ele><time>2026-04-25T13:21:27.056Z</time></trkpt><trkpt lat="42.5021263" lon="-7.3010982"><ele>779.3333333333333</ele><time>2026-04-25T13:21:28.063Z</time></trkpt><trkpt lat="42.5021963" lon="-7.3011386"><ele>780.5</ele><time>2026-04-25T13:21:29.054Z</time></trkpt><trkpt lat="42.5022513" lon="-7.3011813"><ele>781.6666666666666</ele><time>2026-04-25T13:21:30.054Z</time></trkpt><trkpt lat="42.5023045" lon="-7.3012305"><ele>782.8333333333333</ele><time>2026-04-25T13:21:31.055Z</time></trkpt><trkpt lat="42.5023682" lon="-7.3012919"><ele>784.0</ele><time>2026-04-25T13:21:32.053Z</time></trkpt><trkpt lat="42.5024439" lon="-7.3013648"><ele>783.8000000000001</ele><time>2026-04-25T13:21:33.056Z</time></trkpt><trkpt lat="42.5025345" lon="-7.3014511"><ele>783.6</ele><time>2026-04-25T13:21:34.049Z</time></trkpt><trkpt lat="42.5026236" lon="-7.301533"><ele>783.4</ele><time>2026-04-25T13:21:35.051Z</time></trkpt><trkpt lat="42.5027082" lon="-7.301601"><ele>783.2</ele><time>2026-04-25T13:21:36.053Z</time></trkpt><trkpt lat="42.5027817" lon="-7.3016505"><ele>783.0</ele><time>2026-04-25T13:21:37.05Z</time></trkpt><trkpt lat="42.5028447" lon="-7.3016697"><ele>783.0</ele><time>2026-04-25T13:21:38.052Z</time></trkpt><trkpt lat="42.5029124" lon="-7.3016612"><ele>783.0</ele><time>2026-04-25T13:21:39.056Z</time></trkpt><trkpt lat="42.5029855" lon="-7.301614"><ele>783.0</ele><time>2026-04-25T13:21:40.062Z</time></trkpt><trkpt lat="42.5030656" lon="-7.3015369"><ele>783.0</ele><time>2026-04-25T13:21:41.057Z</time></trkpt><trkpt lat="42.5031642" lon="-7.3014583"><ele>783.0</ele><time>2026-04-25T13:21:42.048Z</time></trkpt><trkpt lat="42.5032643" lon="-7.3013793"><ele>783.75</ele><time>2026-04-25T13:21:43.044Z</time></trkpt><trkpt lat="42.5033683" lon="-7.3013327"><ele>784.5</ele><time>2026-04-25T13:21:44.057Z</time></trkpt><trkpt lat="42.503473" lon="-7.3012896"><ele>785.25</ele><time>2026-04-25T13:21:45.051Z</time></trkpt><trkpt lat="42.5035817" lon="-7.3012373"><ele>786.0</ele><time>2026-04-25T13:21:46.053Z</time></trkpt><trkpt lat="42.5036947" lon="-7.301171"><ele>787.0</ele><time>2026-04-25T13:21:47.057Z</time></trkpt><trkpt lat="42.5038096" lon="-7.3010915"><ele>788.0</ele><time>2026-04-25T13:21:48.055Z</time></trkpt><trkpt lat="42.5039295" lon="-7.3010061"><ele>789.0</ele><time>2026-04-25T13:21:49.055Z</time></trkpt><trkpt lat="42.5040552" lon="-7.3009172"><ele>790.0</ele><time>2026-04-25T13:21:50.055Z</time></trkpt><trkpt lat="42.5041853" lon="-7.3008223"><ele>790.0</ele><time>2026-04-25T13:21:51.053Z</time></trkpt><trkpt lat="42.5043217" lon="-7.3007196"><ele>790.0</ele><time>2026-04-25T13:21:52.06Z</time></trkpt><trkpt lat="42.5044722" lon="-7.3005971"><ele>790.0</ele><time>2026-04-25T13:21:53.056Z</time></trkpt><trkpt lat="42.5046265" lon="-7.300461"><ele>793.0</ele><time>2026-04-25T13:21:54.052Z</time></trkpt><trkpt lat="42.5047657" lon="-7.3003338"><ele>796.0</ele><time>2026-04-25T13:21:55.055Z</time></trkpt><trkpt lat="42.5048893" lon="-7.3002198"><ele>799.0</ele><time>2026-04-25T13:21:56.054Z</time></trkpt><trkpt lat="42.5049978" lon="-7.3001147"><ele>799.0</ele><time>2026-04-25T13:21:57.052Z</time></trkpt><trkpt lat="42.5050836" lon="-7.3000215"><ele>799.0</ele><time>2026-04-25T13:21:58.061Z</time></trkpt><trkpt lat="42.505146" lon="-7.2999482"><ele>799.0</ele><time>2026-04-25T13:21:59.054Z</time></trkpt><trkpt lat="42.5052294" lon="-7.2998579"><ele>799.0</ele><time>2026-04-25T13:22:01.054Z</time></trkpt><trkpt lat="42.5053094" lon="-7.2997659"><ele>799.0</ele><time>2026-04-25T13:23:51.073Z</time></trkpt><trkpt lat="42.5054015" lon="-7.29964"><ele>801.0</ele><time>2026-04-25T13:23:53.085Z</time></trkpt><trkpt lat="42.5054482" lon="-7.2995418"><ele>803.0</ele><time>2026-04-25T13:23:54.051Z</time></trkpt><trkpt lat="42.5054833" lon="-7.2994235"><ele>805.0</ele><time>2026-04-25T13:23:55.053Z</time></trkpt><trkpt lat="42.5055017" lon="-7.2993"><ele>807.0</ele><time>2026-04-25T13:23:56.057Z</time></trkpt><trkpt lat="42.5055176" lon="-7.2991257"><ele>809.0</ele><time>2026-04-25T13:23:57.057Z</time></trkpt><trkpt lat="42.5055288" lon="-7.2989161"><ele>810.6666666666667</ele><time>2026-04-25T13:23:58.053Z</time></trkpt><trkpt lat="42.5055442" lon="-7.2986672"><ele>812.3333333333333</ele><time>2026-04-25T13:23:59.058Z</time></trkpt><trkpt lat="42.5055628" lon="-7.2984106"><ele>814.0</ele><time>2026-04-25T13:24:00.053Z</time></trkpt><trkpt lat="42.5055812" lon="-7.2981853"><ele>815.75</ele><time>2026-04-25T13:24:01.049Z</time></trkpt><trkpt lat="42.5056045" lon="-7.2980069"><ele>817.5</ele><time>2026-04-25T13:24:02.046Z</time></trkpt><trkpt lat="42.5056468" lon="-7.2978675"><ele>819.25</ele><time>2026-04-25T13:24:03.06Z</time></trkpt><trkpt lat="42.5057175" lon="-7.2977335"><ele>821.0</ele><time>2026-04-25T13:24:04.061Z</time></trkpt><trkpt lat="42.505802" lon="-7.2975823"><ele>821.0</ele><time>2026-04-25T13:24:05.059Z</time></trkpt><trkpt lat="42.5058948" lon="-7.2974127"><ele>821.0</ele><time>2026-04-25T13:24:06.059Z</time></trkpt><trkpt lat="42.5059845" lon="-7.297259"><ele>821.0</ele><time>2026-04-25T13:24:07.051Z</time></trkpt><trkpt lat="42.506073" lon="-7.2971326"><ele>821.0</ele><time>2026-04-25T13:24:08.059Z</time></trkpt><trkpt lat="42.5061767" lon="-7.2970247"><ele>824.0</ele><time>2026-04-25T13:24:09.051Z</time></trkpt><trkpt lat="42.5062918" lon="-7.2969473"><ele>827.0</ele><time>2026-04-25T13:24:10.051Z</time></trkpt><trkpt lat="42.5064228" lon="-7.2968716"><ele>830.0</ele><time>2026-04-25T13:24:11.053Z</time></trkpt><trkpt lat="42.5065516" lon="-7.2967743"><ele>833.0</ele><time>2026-04-25T13:24:12.053Z</time></trkpt><trkpt lat="42.5066661" lon="-7.2966464"><ele>833.0</ele><time>2026-04-25T13:24:13.056Z</time></trkpt><trkpt lat="42.5067722" lon="-7.2964766"><ele>833.0</ele><time>2026-04-25T13:24:14.052Z</time></trkpt><trkpt lat="42.5068676" lon="-7.296267"><ele>833.0</ele><time>2026-04-25T13:24:15.048Z</time></trkpt><trkpt lat="42.5069547" lon="-7.2960255"><ele>833.6666666666667</ele><time>2026-04-25T13:24:16.058Z</time></trkpt><trkpt lat="42.5070449" lon="-7.2957625"><ele>834.3333333333333</ele><time>2026-04-25T13:24:17.057Z</time></trkpt><trkpt lat="42.5071447" lon="-7.2954953"><ele>835.0</ele><time>2026-04-25T13:24:18.06Z</time></trkpt><trkpt lat="42.5072635" lon="-7.2952257"><ele>835.0</ele><time>2026-04-25T13:24:19.048Z</time></trkpt><trkpt lat="42.5073897" lon="-7.2949779"><ele>835.0</ele><time>2026-04-25T13:24:20.051Z</time></trkpt><trkpt lat="42.5075203" lon="-7.2947581"><ele>835.0</ele><time>2026-04-25T13:24:21.06Z</time></trkpt><trkpt lat="42.5076529" lon="-7.2945719"><ele>833.6666666666666</ele><time>2026-04-25T13:24:22.053Z</time></trkpt><trkpt lat="42.5078112" lon="-7.2943797"><ele>832.3333333333333</ele><time>2026-04-25T13:24:23.057Z</time></trkpt><trkpt lat="42.5079885" lon="-7.2941807"><ele>831.0</ele><time>2026-04-25T13:24:24.053Z</time></trkpt><trkpt lat="42.5081617" lon="-7.2939982"><ele>836.5</ele><time>2026-04-25T13:24:25.053Z</time></trkpt><trkpt lat="42.5083545" lon="-7.2938249"><ele>842.0</ele><time>2026-04-25T13:24:26.053Z</time></trkpt><trkpt lat="42.5085726" lon="-7.2936617"><ele>839.0</ele><time>2026-04-25T13:24:27.054Z</time></trkpt><trkpt lat="42.5087977" lon="-7.2935088"><ele>836.0</ele><time>2026-04-25T13:24:28.062Z</time></trkpt><trkpt lat="42.5090047" lon="-7.2933644"><ele>836.0</ele><time>2026-04-25T13:24:29.059Z</time></trkpt><trkpt lat="42.5091832" lon="-7.2932327"><ele>836.0</ele><time>2026-04-25T13:24:30.06Z</time></trkpt><trkpt lat="42.5093366" lon="-7.2931144"><ele>836.0</ele><time>2026-04-25T13:24:31.055Z</time></trkpt><trkpt lat="42.5094733" lon="-7.293"><ele>837.0</ele><time>2026-04-25T13:24:32.053Z</time></trkpt><trkpt lat="42.5096153" lon="-7.2928651"><ele>838.0</ele><time>2026-04-25T13:24:33.053Z</time></trkpt><trkpt lat="42.5097696" lon="-7.2927314"><ele>839.0</ele><time>2026-04-25T13:24:34.044Z</time></trkpt><trkpt lat="42.5099582" lon="-7.2925612"><ele>839.0</ele><time>2026-04-25T13:24:35.061Z</time></trkpt><trkpt lat="42.5101431" lon="-7.292407"><ele>839.0</ele><time>2026-04-25T13:24:36.053Z</time></trkpt><trkpt lat="42.5103223" lon="-7.2922546"><ele>839.0</ele><time>2026-04-25T13:24:37.05Z</time></trkpt><trkpt lat="42.5104929" lon="-7.2920899"><ele>838.0</ele><time>2026-04-25T13:24:38.05Z</time></trkpt><trkpt lat="42.5106714" lon="-7.2919006"><ele>837.0</ele><time>2026-04-25T13:24:39.057Z</time></trkpt><trkpt lat="42.510833" lon="-7.2916901"><ele>837.0</ele><time>2026-04-25T13:24:40.053Z</time></trkpt><trkpt lat="42.5109757" lon="-7.2914891"><ele>837.0</ele><time>2026-04-25T13:24:41.043Z</time></trkpt><trkpt lat="42.5111207" lon="-7.2912999"><ele>837.0</ele><time>2026-04-25T13:24:42.052Z</time></trkpt><trkpt lat="42.5112595" lon="-7.2911364"><ele>835.6666666666667</ele><time>2026-04-25T13:24:43.056Z</time></trkpt><trkpt lat="42.5113835" lon="-7.2909928"><ele>834.3333333333334</ele><time>2026-04-25T13:24:44.052Z</time></trkpt><trkpt lat="42.5114823" lon="-7.2908471"><ele>833.0</ele><time>2026-04-25T13:24:45.047Z</time></trkpt><trkpt lat="42.5115493" lon="-7.2906647"><ele>833.6666666666667</ele><time>2026-04-25T13:24:46.053Z</time></trkpt><trkpt lat="42.5115941" lon="-7.2904357"><ele>834.3333333333333</ele><time>2026-04-25T13:24:47.066Z</time></trkpt><trkpt lat="42.5116271" lon="-7.2901846"><ele>835.0</ele><time>2026-04-25T13:24:48.059Z</time></trkpt><trkpt lat="42.5116438" lon="-7.2899468"><ele>835.6</ele><time>2026-04-25T13:24:49.064Z</time></trkpt><trkpt lat="42.5116545" lon="-7.2897484"><ele>836.2</ele><time>2026-04-25T13:24:50.055Z</time></trkpt><trkpt lat="42.5116636" lon="-7.2895979"><ele>836.8</ele><time>2026-04-25T13:24:51.064Z</time></trkpt><trkpt lat="42.5116805" lon="-7.2894895"><ele>837.4</ele><time>2026-04-25T13:24:52.052Z</time></trkpt><trkpt lat="42.5117388" lon="-7.2893974"><ele>838.0</ele><time>2026-04-25T13:24:54.05Z</time></trkpt><trkpt lat="42.5118015" lon="-7.2894387"><ele>838.0</ele><time>2026-04-25T13:24:56.064Z</time></trkpt><trkpt lat="42.5118567" lon="-7.289489"><ele>838.0</ele><time>2026-04-25T13:24:57.053Z</time></trkpt><trkpt lat="42.5119407" lon="-7.2895632"><ele>838.0</ele><time>2026-04-25T13:24:58.062Z</time></trkpt><trkpt lat="42.5120495" lon="-7.2896543"><ele>838.0</ele><time>2026-04-25T13:24:59.06Z</time></trkpt><trkpt lat="42.5121867" lon="-7.2897642"><ele>837.6666666666666</ele><time>2026-04-25T13:25:00.069Z</time></trkpt><trkpt lat="42.5123466" lon="-7.2898903"><ele>837.3333333333333</ele><time>2026-04-25T13:25:01.05Z</time></trkpt><trkpt lat="42.5125215" lon="-7.2900255"><ele>837.0</ele><time>2026-04-25T13:25:02.065Z</time></trkpt><trkpt lat="42.5126883" lon="-7.2901352"><ele>837.0</ele><time>2026-04-25T13:25:03.051Z</time></trkpt><trkpt lat="42.5128357" lon="-7.2902119"><ele>837.0</ele><time>2026-04-25T13:25:04.065Z</time></trkpt><trkpt lat="42.5129781" lon="-7.2902795"><ele>837.0</ele><time>2026-04-25T13:25:05.062Z</time></trkpt><trkpt lat="42.5131124" lon="-7.2903351"><ele>837.0</ele><time>2026-04-25T13:25:06.058Z</time></trkpt><trkpt lat="42.5132392" lon="-7.290377"><ele>837.25</ele><time>2026-04-25T13:25:07.06Z</time></trkpt><trkpt lat="42.5133746" lon="-7.2904262"><ele>837.5</ele><time>2026-04-25T13:25:08.053Z</time></trkpt><trkpt lat="42.5135038" lon="-7.2904879"><ele>837.75</ele><time>2026-04-25T13:25:09.065Z</time></trkpt><trkpt lat="42.5136124" lon="-7.2905747"><ele>838.0</ele><time>2026-04-25T13:25:10.067Z</time></trkpt><trkpt lat="42.5137236" lon="-7.2906774"><ele>837.6666666666666</ele><time>2026-04-25T13:25:11.056Z</time></trkpt><trkpt lat="42.5138472" lon="-7.2908056"><ele>837.3333333333333</ele><time>2026-04-25T13:25:12.057Z</time></trkpt><trkpt lat="42.5139846" lon="-7.2909502"><ele>837.0</ele><time>2026-04-25T13:25:13.055Z</time></trkpt><trkpt lat="42.51413" lon="-7.2911103"><ele>837.0</ele><time>2026-04-25T13:25:14.055Z</time></trkpt><trkpt lat="42.5142617" lon="-7.2912666"><ele>837.0</ele><time>2026-04-25T13:25:15.065Z</time></trkpt><trkpt lat="42.5143796" lon="-7.2914071"><ele>837.0</ele><time>2026-04-25T13:25:16.05Z</time></trkpt><trkpt lat="42.5144746" lon="-7.2915223"><ele>837.1666666666666</ele><time>2026-04-25T13:25:17.055Z</time></trkpt><trkpt lat="42.5145591" lon="-7.291617"><ele>837.3333333333333</ele><time>2026-04-25T13:25:18.056Z</time></trkpt><trkpt lat="42.5146305" lon="-7.2916953"><ele>837.5</ele><time>2026-04-25T13:25:19.063Z</time></trkpt><trkpt lat="42.5146853" lon="-7.2917561"><ele>837.6666666666666</ele><time>2026-04-25T13:25:20.06Z</time></trkpt><trkpt lat="42.5147779" lon="-7.2918124"><ele>837.8333333333333</ele><time>2026-04-25T13:25:22.06Z</time></trkpt><trkpt lat="42.5148329" lon="-7.2917671"><ele>838.0</ele><time>2026-04-25T13:25:24.063Z</time></trkpt><trkpt lat="42.5148562" lon="-7.2916592"><ele>838.0</ele><time>2026-04-25T13:25:26.056Z</time></trkpt><trkpt lat="42.5148532" lon="-7.2915291"><ele>838.0</ele><time>2026-04-25T13:25:28.057Z</time></trkpt><trkpt lat="42.514885" lon="-7.2913107"><ele>838.0</ele><time>2026-04-25T13:25:30.06Z</time></trkpt><trkpt lat="42.5149079" lon="-7.2911519"><ele>838.0</ele><time>2026-04-25T13:25:31.054Z</time></trkpt><trkpt lat="42.5149402" lon="-7.2909664"><ele>839.3333333333333</ele><time>2026-04-25T13:25:32.059Z</time></trkpt><trkpt lat="42.5149761" lon="-7.2907493"><ele>840.6666666666667</ele><time>2026-04-25T13:25:33.057Z</time></trkpt><trkpt lat="42.5150274" lon="-7.2905098"><ele>842.0</ele><time>2026-04-25T13:25:34.051Z</time></trkpt><trkpt lat="42.5150714" lon="-7.2902514"><ele>843.0</ele><time>2026-04-25T13:25:35.063Z</time></trkpt><trkpt lat="42.5151136" lon="-7.2899867"><ele>844.0</ele><time>2026-04-25T13:25:36.059Z</time></trkpt><trkpt lat="42.515159" lon="-7.2897157"><ele>845.0</ele><time>2026-04-25T13:25:37.059Z</time></trkpt><trkpt lat="42.5152072" lon="-7.2894332"><ele>847.5</ele><time>2026-04-25T13:25:38.061Z</time></trkpt><trkpt lat="42.5152559" lon="-7.2891261"><ele>850.0</ele><time>2026-04-25T13:25:39.05Z</time></trkpt><trkpt lat="42.5153086" lon="-7.2888061"><ele>850.6666666666666</ele><time>2026-04-25T13:25:40.049Z</time></trkpt><trkpt lat="42.515358" lon="-7.2885052"><ele>851.3333333333333</ele><time>2026-04-25T13:25:41.056Z</time></trkpt><trkpt lat="42.5154026" lon="-7.2882391"><ele>852.0</ele><time>2026-04-25T13:25:42.057Z</time></trkpt><trkpt lat="42.5154475" lon="-7.2880005"><ele>854.3333333333333</ele><time>2026-04-25T13:25:43.055Z</time></trkpt><trkpt lat="42.515501" lon="-7.2877819"><ele>856.6666666666666</ele><time>2026-04-25T13:25:44.051Z</time></trkpt><trkpt lat="42.5155765" lon="-7.287551"><ele>859.0</ele><time>2026-04-25T13:25:45.055Z</time></trkpt><trkpt lat="42.5156562" lon="-7.2873141"><ele>859.0</ele><time>2026-04-25T13:25:46.051Z</time></trkpt><trkpt lat="42.5157223" lon="-7.2870744"><ele>859.0</ele><time>2026-04-25T13:25:47.062Z</time></trkpt><trkpt lat="42.5157785" lon="-7.2868278"><ele>859.0</ele><time>2026-04-25T13:25:48.056Z</time></trkpt><trkpt lat="42.515823" lon="-7.2865807"><ele>859.0</ele><time>2026-04-25T13:25:49.054Z</time></trkpt><trkpt lat="42.5158616" lon="-7.2863492"><ele>859.0</ele><time>2026-04-25T13:25:50.067Z</time></trkpt><trkpt lat="42.5159042" lon="-7.2861157"><ele>859.0</ele><time>2026-04-25T13:25:51.054Z</time></trkpt><trkpt lat="42.5159548" lon="-7.2858704"><ele>859.0</ele><time>2026-04-25T13:25:52.054Z</time></trkpt><trkpt lat="42.5160106" lon="-7.2856425"><ele>859.0</ele><time>2026-04-25T13:25:53.057Z</time></trkpt><trkpt lat="42.5160712" lon="-7.2854412"><ele>859.0</ele><time>2026-04-25T13:25:54.058Z</time></trkpt><trkpt lat="42.5161439" lon="-7.2852333"><ele>858.6666666666666</ele><time>2026-04-25T13:25:55.055Z</time></trkpt><trkpt lat="42.5162339" lon="-7.2849993"><ele>858.3333333333333</ele><time>2026-04-25T13:25:56.074Z</time></trkpt><trkpt lat="42.516333" lon="-7.2847545"><ele>858.0</ele><time>2026-04-25T13:25:57.057Z</time></trkpt><trkpt lat="42.5164314" lon="-7.2845199"><ele>858.0</ele><time>2026-04-25T13:25:58.057Z</time></trkpt><trkpt lat="42.5165236" lon="-7.2843041"><ele>858.0</ele><time>2026-04-25T13:25:59.05Z</time></trkpt><trkpt lat="42.5166173" lon="-7.284096"><ele>858.0</ele><time>2026-04-25T13:26:00.051Z</time></trkpt><trkpt lat="42.5167211" lon="-7.2838909"><ele>857.6666666666667</ele><time>2026-04-25T13:26:01.061Z</time></trkpt><trkpt lat="42.5168404" lon="-7.2836862"><ele>857.3333333333334</ele><time>2026-04-25T13:26:02.056Z</time></trkpt><trkpt lat="42.5169785" lon="-7.2834801"><ele>857.0</ele><time>2026-04-25T13:26:03.059Z</time></trkpt><trkpt lat="42.5171198" lon="-7.283286"><ele>856.6666666666667</ele><time>2026-04-25T13:26:04.056Z</time></trkpt><trkpt lat="42.5172464" lon="-7.2831172"><ele>856.3333333333333</ele><time>2026-04-25T13:26:05.055Z</time></trkpt><trkpt lat="42.5173568" lon="-7.282966"><ele>856.0</ele><time>2026-04-25T13:26:06.053Z</time></trkpt><trkpt lat="42.5174593" lon="-7.282825"><ele>856.5</ele><time>2026-04-25T13:26:07.061Z</time></trkpt><trkpt lat="42.5175505" lon="-7.2827065"><ele>857.0</ele><time>2026-04-25T13:26:08.057Z</time></trkpt><trkpt lat="42.5176264" lon="-7.2825852"><ele>857.5</ele><time>2026-04-25T13:26:09.053Z</time></trkpt><trkpt lat="42.5176951" lon="-7.2824611"><ele>858.0</ele><time>2026-04-25T13:26:10.052Z</time></trkpt><trkpt lat="42.5177717" lon="-7.2823089"><ele>857.5</ele><time>2026-04-25T13:26:11.059Z</time></trkpt><trkpt lat="42.5178376" lon="-7.2821126"><ele>857.0</ele><time>2026-04-25T13:26:12.06Z</time></trkpt><trkpt lat="42.5178963" lon="-7.2819419"><ele>856.5</ele><time>2026-04-25T13:26:13.053Z</time></trkpt><trkpt lat="42.5179547" lon="-7.2817856"><ele>856.0</ele><time>2026-04-25T13:26:14.052Z</time></trkpt><trkpt lat="42.5180232" lon="-7.2816445"><ele>855.25</ele><time>2026-04-25T13:26:15.064Z</time></trkpt><trkpt lat="42.5181037" lon="-7.2815044"><ele>854.5</ele><time>2026-04-25T13:26:16.052Z</time></trkpt><trkpt lat="42.5181837" lon="-7.2813687"><ele>853.75</ele><time>2026-04-25T13:26:17.061Z</time></trkpt><trkpt lat="42.518288" lon="-7.2812266"><ele>853.0</ele><time>2026-04-25T13:26:18.063Z</time></trkpt><trkpt lat="42.5183975" lon="-7.2811017"><ele>853.0</ele><time>2026-04-25T13:26:19.062Z</time></trkpt><trkpt lat="42.518506" lon="-7.2809892"><ele>853.0</ele><time>2026-04-25T13:26:20.054Z</time></trkpt><trkpt lat="42.5186369" lon="-7.2808872"><ele>853.0</ele><time>2026-04-25T13:26:21.061Z</time></trkpt><trkpt lat="42.5187725" lon="-7.2807829"><ele>853.0</ele><time>2026-04-25T13:26:22.053Z</time></trkpt><trkpt lat="42.5189214" lon="-7.2806786"><ele>855.6666666666666</ele><time>2026-04-25T13:26:23.056Z</time></trkpt><trkpt lat="42.5190692" lon="-7.2805818"><ele>858.3333333333333</ele><time>2026-04-25T13:26:24.061Z</time></trkpt><trkpt lat="42.519216" lon="-7.2805005"><ele>861.0</ele><time>2026-04-25T13:26:25.064Z</time></trkpt><trkpt lat="42.5193816" lon="-7.2804152"><ele>861.0</ele><time>2026-04-25T13:26:26.056Z</time></trkpt><trkpt lat="42.5195254" lon="-7.2803337"><ele>861.0</ele><time>2026-04-25T13:26:27.057Z</time></trkpt><trkpt lat="42.5196646" lon="-7.2802358"><ele>861.0</ele><time>2026-04-25T13:26:28.057Z</time></trkpt><trkpt lat="42.5197996" lon="-7.280147"><ele>860.75</ele><time>2026-04-25T13:26:29.056Z</time></trkpt><trkpt lat="42.5199312" lon="-7.2800381"><ele>860.5</ele><time>2026-04-25T13:26:30.059Z</time></trkpt><trkpt lat="42.5200463" lon="-7.2799382"><ele>860.25</ele><time>2026-04-25T13:26:31.061Z</time></trkpt><trkpt lat="42.5201558" lon="-7.279808"><ele>860.0</ele><time>2026-04-25T13:26:32.053Z</time></trkpt><trkpt lat="42.5202659" lon="-7.279637"><ele>859.6666666666667</ele><time>2026-04-25T13:26:33.054Z</time></trkpt><trkpt lat="42.5203766" lon="-7.2794667"><ele>859.3333333333333</ele><time>2026-04-25T13:26:34.059Z</time></trkpt><trkpt lat="42.5204887" lon="-7.2793031"><ele>859.0</ele><time>2026-04-25T13:26:35.052Z</time></trkpt><trkpt lat="42.5206077" lon="-7.2791373"><ele>859.0</ele><time>2026-04-25T13:26:36.064Z</time></trkpt><trkpt lat="42.5207423" lon="-7.2789742"><ele>859.0</ele><time>2026-04-25T13:26:37.063Z</time></trkpt><trkpt lat="42.5208873" lon="-7.2788247"><ele>859.0</ele><time>2026-04-25T13:26:38.07Z</time></trkpt><trkpt lat="42.5210461" lon="-7.2786799"><ele>859.0</ele><time>2026-04-25T13:26:39.059Z</time></trkpt><trkpt lat="42.5212065" lon="-7.2785391"><ele>859.0</ele><time>2026-04-25T13:26:40.054Z</time></trkpt><trkpt lat="42.5213654" lon="-7.2784116"><ele>859.0</ele><time>2026-04-25T13:26:41.058Z</time></trkpt><trkpt lat="42.521517" lon="-7.2782825"><ele>859.0</ele><time>2026-04-25T13:26:42.059Z</time></trkpt><trkpt lat="42.5216322" lon="-7.278161"><ele>859.0</ele><time>2026-04-25T13:26:43.058Z</time></trkpt><trkpt lat="42.5217071" lon="-7.2780477"><ele>859.0</ele><time>2026-04-25T13:26:44.054Z</time></trkpt><trkpt lat="42.5218008" lon="-7.2778899"><ele>859.0</ele><time>2026-04-25T13:26:45.061Z</time></trkpt><trkpt lat="42.5218781" lon="-7.2777206"><ele>860.0</ele><time>2026-04-25T13:26:46.065Z</time></trkpt><trkpt lat="42.5219352" lon="-7.2775626"><ele>861.0</ele><time>2026-04-25T13:26:47.043Z</time></trkpt><trkpt lat="42.5219978" lon="-7.2774321"><ele>862.0</ele><time>2026-04-25T13:26:48.059Z</time></trkpt><trkpt lat="42.5220824" lon="-7.2772893"><ele>863.0</ele><time>2026-04-25T13:26:49.053Z</time></trkpt><trkpt lat="42.522201" lon="-7.2771324"><ele>865.3333333333334</ele><time>2026-04-25T13:26:50.056Z</time></trkpt><trkpt lat="42.5223317" lon="-7.276993"><ele>867.6666666666667</ele><time>2026-04-25T13:26:51.062Z</time></trkpt><trkpt lat="42.5224502" lon="-7.2768159"><ele>870.0</ele><time>2026-04-25T13:26:52.06Z</time></trkpt><trkpt lat="42.5225682" lon="-7.2766479"><ele>870.0</ele><time>2026-04-25T13:26:53.057Z</time></trkpt><trkpt lat="42.522681" lon="-7.2764847"><ele>870.0</ele><time>2026-04-25T13:26:54.056Z</time></trkpt><trkpt lat="42.522792" lon="-7.2763103"><ele>870.0</ele><time>2026-04-25T13:26:55.058Z</time></trkpt><trkpt lat="42.5229006" lon="-7.2761173"><ele>870.6666666666667</ele><time>2026-04-25T13:26:56.052Z</time></trkpt><trkpt lat="42.5229953" lon="-7.2759074"><ele>871.3333333333334</ele><time>2026-04-25T13:26:57.057Z</time></trkpt><trkpt lat="42.5230792" lon="-7.275701"><ele>872.0</ele><time>2026-04-25T13:26:58.047Z</time></trkpt><trkpt lat="42.5231525" lon="-7.2755295"><ele>871.2</ele><time>2026-04-25T13:26:59.05Z</time></trkpt><trkpt lat="42.5231993" lon="-7.2753781"><ele>870.4000000000001</ele><time>2026-04-25T13:27:00.047Z</time></trkpt><trkpt lat="42.5232344" lon="-7.2752496"><ele>869.5999999999999</ele><time>2026-04-25T13:27:01.061Z</time></trkpt><trkpt lat="42.5232547" lon="-7.2751263"><ele>868.8</ele><time>2026-04-25T13:27:02.06Z</time></trkpt><trkpt lat="42.5232573" lon="-7.2749874"><ele>868.0</ele><time>2026-04-25T13:27:03.053Z</time></trkpt><trkpt lat="42.5232495" lon="-7.2748351"><ele>868.25</ele><time>2026-04-25T13:27:04.052Z</time></trkpt><trkpt lat="42.523228" lon="-7.2746589"><ele>868.5</ele><time>2026-04-25T13:27:05.053Z</time></trkpt><trkpt lat="42.5232084" lon="-7.2744711"><ele>868.75</ele><time>2026-04-25T13:27:06.054Z</time></trkpt><trkpt lat="42.523195" lon="-7.2742929"><ele>869.0</ele><time>2026-04-25T13:27:07.05Z</time></trkpt><trkpt lat="42.5232197" lon="-7.2740959"><ele>870.3333333333334</ele><time>2026-04-25T13:27:08.051Z</time></trkpt><trkpt lat="42.5232507" lon="-7.2738721"><ele>871.6666666666667</ele><time>2026-04-25T13:27:09.045Z</time></trkpt><trkpt lat="42.5232828" lon="-7.2736337"><ele>873.0</ele><time>2026-04-25T13:27:10.068Z</time></trkpt><trkpt lat="42.5233252" lon="-7.2734228"><ele>873.0</ele><time>2026-04-25T13:27:11.051Z</time></trkpt><trkpt lat="42.5233761" lon="-7.2732125"><ele>873.0</ele><time>2026-04-25T13:27:12.053Z</time></trkpt><trkpt lat="42.5234447" lon="-7.2729797"><ele>873.0</ele><time>2026-04-25T13:27:13.051Z</time></trkpt><trkpt lat="42.523526" lon="-7.2727364"><ele>873.3333333333333</ele><time>2026-04-25T13:27:14.05Z</time></trkpt><trkpt lat="42.5236079" lon="-7.2724894"><ele>873.6666666666666</ele><time>2026-04-25T13:27:15.054Z</time></trkpt><trkpt lat="42.5236915" lon="-7.27223"><ele>874.0</ele><time>2026-04-25T13:27:16.055Z</time></trkpt><trkpt lat="42.5237735" lon="-7.2719913"><ele>877.3333333333333</ele><time>2026-04-25T13:27:17.051Z</time></trkpt><trkpt lat="42.5238461" lon="-7.2717773"><ele>880.6666666666667</ele><time>2026-04-25T13:27:18.051Z</time></trkpt><trkpt lat="42.523912" lon="-7.2715711"><ele>884.0</ele><time>2026-04-25T13:27:19.054Z</time></trkpt><trkpt lat="42.5239646" lon="-7.2713603"><ele>884.0</ele><time>2026-04-25T13:27:20.053Z</time></trkpt><trkpt lat="42.5239982" lon="-7.2711386"><ele>884.0</ele><time>2026-04-25T13:27:21.055Z</time></trkpt><trkpt lat="42.5240185" lon="-7.2708927"><ele>884.0</ele><time>2026-04-25T13:27:22.06Z</time></trkpt><trkpt lat="42.5240251" lon="-7.2706293"><ele>883.0</ele><time>2026-04-25T13:27:23.06Z</time></trkpt><trkpt lat="42.5240311" lon="-7.2703851"><ele>882.0</ele><time>2026-04-25T13:27:24.058Z</time></trkpt><trkpt lat="42.5240354" lon="-7.2701483"><ele>881.0</ele><time>2026-04-25T13:27:25.05Z</time></trkpt><trkpt lat="42.5240372" lon="-7.2699229"><ele>880.5</ele><time>2026-04-25T13:27:26.053Z</time></trkpt><trkpt lat="42.5240333" lon="-7.2697097"><ele>880.0</ele><time>2026-04-25T13:27:27.06Z</time></trkpt><trkpt lat="42.5240234" lon="-7.2695113"><ele>879.5</ele><time>2026-04-25T13:27:28.054Z</time></trkpt><trkpt lat="42.5240159" lon="-7.2693261"><ele>879.0</ele><time>2026-04-25T13:27:29.062Z</time></trkpt><trkpt lat="42.5240103" lon="-7.2691534"><ele>879.0</ele><time>2026-04-25T13:27:30.055Z</time></trkpt><trkpt lat="42.5240104" lon="-7.2689988"><ele>879.0</ele><time>2026-04-25T13:27:31.056Z</time></trkpt><trkpt lat="42.5240101" lon="-7.2688679"><ele>879.0</ele><time>2026-04-25T13:27:32.063Z</time></trkpt><trkpt lat="42.5240076" lon="-7.2687494"><ele>879.0</ele><time>2026-04-25T13:27:33.055Z</time></trkpt><trkpt lat="42.5240127" lon="-7.2686427"><ele>879.0</ele><time>2026-04-25T13:27:34.06Z</time></trkpt><trkpt lat="42.524002" lon="-7.2685531"><ele>879.0</ele><time>2026-04-25T13:27:35.059Z</time></trkpt><trkpt lat="42.5240011" lon="-7.2684441"><ele>878.3333333333334</ele><time>2026-04-25T13:27:37.053Z</time></trkpt><trkpt lat="42.5240247" lon="-7.2683586"><ele>877.6666666666667</ele><time>2026-04-25T13:28:51.059Z</time></trkpt><trkpt lat="42.5240325" lon="-7.2682693"><ele>877.0</ele><time>2026-04-25T13:28:52.057Z</time></trkpt><trkpt lat="42.5240352" lon="-7.268152"><ele>876.3333333333334</ele><time>2026-04-25T13:28:53.057Z</time></trkpt><trkpt lat="42.5240266" lon="-7.2680215"><ele>875.6666666666667</ele><time>2026-04-25T13:28:54.054Z</time></trkpt><trkpt lat="42.5240126" lon="-7.267886"><ele>875.0</ele><time>2026-04-25T13:28:55.05Z</time></trkpt><trkpt lat="42.5240047" lon="-7.2677582"><ele>874.6</ele><time>2026-04-25T13:28:56.058Z</time></trkpt><trkpt lat="42.5240081" lon="-7.2676399"><ele>874.2</ele><time>2026-04-25T13:28:57.06Z</time></trkpt><trkpt lat="42.5240209" lon="-7.2675203"><ele>873.8</ele><time>2026-04-25T13:28:58.063Z</time></trkpt><trkpt lat="42.5240488" lon="-7.2673813"><ele>873.4</ele><time>2026-04-25T13:28:59.059Z</time></trkpt><trkpt lat="42.5240887" lon="-7.2672381"><ele>873.0</ele><time>2026-04-25T13:29:00.061Z</time></trkpt><trkpt lat="42.5241369" lon="-7.2670984"><ele>871.5</ele><time>2026-04-25T13:29:01.069Z</time></trkpt><trkpt lat="42.5241934" lon="-7.26696"><ele>870.0</ele><time>2026-04-25T13:29:02.06Z</time></trkpt><trkpt lat="42.5242586" lon="-7.2668159"><ele>868.5</ele><time>2026-04-25T13:29:03.061Z</time></trkpt><trkpt lat="42.5243286" lon="-7.266663"><ele>867.0</ele><time>2026-04-25T13:29:04.057Z</time></trkpt><trkpt lat="42.5243969" lon="-7.266515"><ele>865.25</ele><time>2026-04-25T13:29:05.058Z</time></trkpt><trkpt lat="42.5244661" lon="-7.2663801"><ele>863.5</ele><time>2026-04-25T13:29:06.064Z</time></trkpt><trkpt lat="42.5245383" lon="-7.2662541"><ele>861.75</ele><time>2026-04-25T13:29:07.058Z</time></trkpt><trkpt lat="42.5246163" lon="-7.2661266"><ele>860.0</ele><time>2026-04-25T13:29:08.057Z</time></trkpt><trkpt lat="42.5247027" lon="-7.2659907"><ele>860.0</ele><time>2026-04-25T13:29:09.059Z</time></trkpt><trkpt lat="42.5247967" lon="-7.2658607"><ele>860.0</ele><time>2026-04-25T13:29:10.059Z</time></trkpt><trkpt lat="42.5248973" lon="-7.2657492"><ele>860.0</ele><time>2026-04-25T13:29:11.06Z</time></trkpt><trkpt lat="42.5250038" lon="-7.2656564"><ele>860.0</ele><time>2026-04-25T13:29:12.058Z</time></trkpt><trkpt lat="42.5251207" lon="-7.2655633"><ele>858.75</ele><time>2026-04-25T13:29:13.05Z</time></trkpt><trkpt lat="42.5252397" lon="-7.2654745"><ele>857.5</ele><time>2026-04-25T13:29:14.065Z</time></trkpt><trkpt lat="42.5253454" lon="-7.2653807"><ele>856.25</ele><time>2026-04-25T13:29:15.058Z</time></trkpt><trkpt lat="42.5254336" lon="-7.2652646"><ele>855.0</ele><time>2026-04-25T13:29:16.065Z</time></trkpt><trkpt lat="42.52551" lon="-7.2651296"><ele>855.0</ele><time>2026-04-25T13:29:17.051Z</time></trkpt><trkpt lat="42.5255735" lon="-7.2649999"><ele>855.0</ele><time>2026-04-25T13:29:18.059Z</time></trkpt><trkpt lat="42.5256364" lon="-7.2648833"><ele>855.0</ele><time>2026-04-25T13:29:19.062Z</time></trkpt><trkpt lat="42.5256777" lon="-7.2648022"><ele>855.0</ele><time>2026-04-25T13:29:20.063Z</time></trkpt><trkpt lat="42.5256919" lon="-7.2647155"><ele>855.0</ele><time>2026-04-25T13:29:22.063Z</time></trkpt><trkpt lat="42.5256715" lon="-7.2646182"><ele>855.0</ele><time>2026-04-25T13:29:24.071Z</time></trkpt><trkpt lat="42.5256631" lon="-7.2645144"><ele>855.0</ele><time>2026-04-25T13:29:26.061Z</time></trkpt><trkpt lat="42.5256586" lon="-7.2644096"><ele>855.0</ele><time>2026-04-25T13:29:27.062Z</time></trkpt><trkpt lat="42.5256426" lon="-7.2642793"><ele>855.0</ele><time>2026-04-25T13:29:28.06Z</time></trkpt><trkpt lat="42.5256125" lon="-7.264137"><ele>855.0</ele><time>2026-04-25T13:29:29.057Z</time></trkpt><trkpt lat="42.5255746" lon="-7.2639731"><ele>855.0</ele><time>2026-04-25T13:29:30.057Z</time></trkpt><trkpt lat="42.5255348" lon="-7.26379"><ele>854.75</ele><time>2026-04-25T13:29:31.054Z</time></trkpt><trkpt lat="42.525497" lon="-7.2636136"><ele>854.5</ele><time>2026-04-25T13:29:32.054Z</time></trkpt><trkpt lat="42.5254465" lon="-7.2634541"><ele>854.25</ele><time>2026-04-25T13:29:33.052Z</time></trkpt><trkpt lat="42.5253906" lon="-7.2633285"><ele>854.0</ele><time>2026-04-25T13:29:34.053Z</time></trkpt><trkpt lat="42.5253179" lon="-7.2632158"><ele>851.0</ele><time>2026-04-25T13:29:35.047Z</time></trkpt><trkpt lat="42.525246" lon="-7.2631061"><ele>848.0000000000001</ele><time>2026-04-25T13:29:36.05Z</time></trkpt><trkpt lat="42.525167" lon="-7.2630275"><ele>845.0</ele><time>2026-04-25T13:29:37.057Z</time></trkpt><trkpt lat="42.5251051" lon="-7.2629734"><ele>842.0</ele><time>2026-04-25T13:29:38.049Z</time></trkpt><trkpt lat="42.525043" lon="-7.2628834"><ele>839.0</ele><time>2026-04-25T13:29:40.055Z</time></trkpt><trkpt lat="42.5250397" lon="-7.2627482"><ele>839.0</ele><time>2026-04-25T13:29:42.066Z</time></trkpt><trkpt lat="42.5250689" lon="-7.2626446"><ele>839.0</ele><time>2026-04-25T13:29:43.063Z</time></trkpt><trkpt lat="42.5251138" lon="-7.2625128"><ele>839.0</ele><time>2026-04-25T13:29:44.071Z</time></trkpt><trkpt lat="42.5251655" lon="-7.2623829"><ele>839.0</ele><time>2026-04-25T13:29:45.067Z</time></trkpt><trkpt lat="42.5252304" lon="-7.2622538"><ele>839.0</ele><time>2026-04-25T13:29:46.057Z</time></trkpt><trkpt lat="42.5252923" lon="-7.2621424"><ele>838.8000000000001</ele><time>2026-04-25T13:29:47.057Z</time></trkpt><trkpt lat="42.5253473" lon="-7.2620445"><ele>838.6</ele><time>2026-04-25T13:29:48.057Z</time></trkpt><trkpt lat="42.525357" lon="-7.2618931"><ele>838.4</ele><time>2026-04-25T13:29:50.082Z</time></trkpt><trkpt lat="42.5252662" lon="-7.2617787"><ele>838.2</ele><time>2026-04-25T13:29:52.063Z</time></trkpt><trkpt lat="42.5251769" lon="-7.2617598"><ele>838.0</ele><time>2026-04-25T13:29:53.056Z</time></trkpt><trkpt lat="42.525056" lon="-7.2617595"><ele>838.0</ele><time>2026-04-25T13:29:54.054Z</time></trkpt><trkpt lat="42.5249002" lon="-7.2617569"><ele>838.0</ele><time>2026-04-25T13:29:55.05Z</time></trkpt><trkpt lat="42.5247419" lon="-7.2617264"><ele>838.0</ele><time>2026-04-25T13:29:56.055Z</time></trkpt><trkpt lat="42.5245643" lon="-7.2616713"><ele>833.6666666666666</ele><time>2026-04-25T13:29:57.056Z</time></trkpt><trkpt lat="42.5243655" lon="-7.2616099"><ele>829.3333333333333</ele><time>2026-04-25T13:29:58.049Z</time></trkpt><trkpt lat="42.5241822" lon="-7.2615614"><ele>825.0</ele><time>2026-04-25T13:29:59.046Z</time></trkpt><trkpt lat="42.5240018" lon="-7.2615276"><ele>825.0</ele><time>2026-04-25T13:30:00.052Z</time></trkpt><trkpt lat="42.5238359" lon="-7.2615183"><ele>825.0</ele><time>2026-04-25T13:30:01.05Z</time></trkpt><trkpt lat="42.5236764" lon="-7.2615281"><ele>825.0</ele><time>2026-04-25T13:30:02.056Z</time></trkpt><trkpt lat="42.5235207" lon="-7.2615407"><ele>822.0</ele><time>2026-04-25T13:30:03.055Z</time></trkpt><trkpt lat="42.5233776" lon="-7.2615402"><ele>819.0</ele><time>2026-04-25T13:30:04.062Z</time></trkpt><trkpt lat="42.5232457" lon="-7.26152"><ele>816.0</ele><time>2026-04-25T13:30:05.052Z</time></trkpt><trkpt lat="42.5231286" lon="-7.2614999"><ele>813.0</ele><time>2026-04-25T13:30:06.058Z</time></trkpt><trkpt lat="42.5230333" lon="-7.2614936"><ele>813.0</ele><time>2026-04-25T13:30:07.058Z</time></trkpt><trkpt lat="42.522963" lon="-7.261499"><ele>813.0</ele><time>2026-04-25T13:30:08.057Z</time></trkpt><trkpt lat="42.5228797" lon="-7.2615298"><ele>813.0</ele><time>2026-04-25T13:30:10.056Z</time></trkpt><trkpt lat="42.5227557" lon="-7.261604"><ele>813.0</ele><time>2026-04-25T13:31:40.065Z</time></trkpt><trkpt lat="42.5226286" lon="-7.2616716"><ele>813.0</ele><time>2026-04-25T13:31:42.06Z</time></trkpt><trkpt lat="42.5225426" lon="-7.2617134"><ele>811.2</ele><time>2026-04-25T13:31:43.052Z</time></trkpt><trkpt lat="42.5224549" lon="-7.2617428"><ele>809.4</ele><time>2026-04-25T13:31:44.052Z</time></trkpt><trkpt lat="42.5223473" lon="-7.2617577"><ele>807.6</ele><time>2026-04-25T13:31:45.059Z</time></trkpt><trkpt lat="42.5222353" lon="-7.2617727"><ele>805.8000000000001</ele><time>2026-04-25T13:31:46.051Z</time></trkpt><trkpt lat="42.5221253" lon="-7.2617834"><ele>804.0</ele><time>2026-04-25T13:31:47.053Z</time></trkpt><trkpt lat="42.5220037" lon="-7.2617805"><ele>802.25</ele><time>2026-04-25T13:31:48.053Z</time></trkpt><trkpt lat="42.5218717" lon="-7.2617608"><ele>800.5</ele><time>2026-04-25T13:31:49.051Z</time></trkpt><trkpt lat="42.5217348" lon="-7.2617299"><ele>798.75</ele><time>2026-04-25T13:31:50.055Z</time></trkpt><trkpt lat="42.5216066" lon="-7.2616885"><ele>797.0</ele><time>2026-04-25T13:31:51.054Z</time></trkpt><trkpt lat="42.5214991" lon="-7.2616402"><ele>797.0</ele><time>2026-04-25T13:31:52.056Z</time></trkpt><trkpt lat="42.5214122" lon="-7.2615854"><ele>797.0</ele><time>2026-04-25T13:31:53.056Z</time></trkpt><trkpt lat="42.5213424" lon="-7.2615187"><ele>797.0</ele><time>2026-04-25T13:31:54.054Z</time></trkpt><trkpt lat="42.5212837" lon="-7.2614282"><ele>797.0</ele><time>2026-04-25T13:31:55.054Z</time></trkpt><trkpt lat="42.5212419" lon="-7.261321"><ele>797.0</ele><time>2026-04-25T13:31:56.06Z</time></trkpt><trkpt lat="42.521212" lon="-7.2611838"><ele>797.6</ele><time>2026-04-25T13:31:57.054Z</time></trkpt><trkpt lat="42.5212043" lon="-7.2610369"><ele>798.2</ele><time>2026-04-25T13:31:58.054Z</time></trkpt><trkpt lat="42.5212133" lon="-7.2608698"><ele>798.8</ele><time>2026-04-25T13:31:59.051Z</time></trkpt><trkpt lat="42.5212327" lon="-7.2607232"><ele>799.4</ele><time>2026-04-25T13:32:00.056Z</time></trkpt><trkpt lat="42.5212621" lon="-7.2606063"><ele>800.0</ele><time>2026-04-25T13:32:01.055Z</time></trkpt><trkpt lat="42.5212927" lon="-7.2604907"><ele>798.8333333333334</ele><time>2026-04-25T13:32:02.049Z</time></trkpt><trkpt lat="42.521349" lon="-7.2604377"><ele>797.6666666666667</ele><time>2026-04-25T13:32:03.057Z</time></trkpt><trkpt lat="42.5214419" lon="-7.2603819"><ele>796.5</ele><time>2026-04-25T13:32:04.048Z</time></trkpt><trkpt lat="42.5215336" lon="-7.260326"><ele>795.3333333333333</ele><time>2026-04-25T13:32:05.052Z</time></trkpt><trkpt lat="42.5216106" lon="-7.2602576"><ele>794.1666666666666</ele><time>2026-04-25T13:32:06.061Z</time></trkpt><trkpt lat="42.5216685" lon="-7.2601808"><ele>793.0</ele><time>2026-04-25T13:32:07.056Z</time></trkpt><trkpt lat="42.5217012" lon="-7.2601014"><ele>793.0</ele><time>2026-04-25T13:32:08.049Z</time></trkpt><trkpt lat="42.5216808" lon="-7.2599679"><ele>793.0</ele><time>2026-04-25T13:32:10.049Z</time></trkpt><trkpt lat="42.5216027" lon="-7.2599307"><ele>793.0</ele><time>2026-04-25T13:32:11.058Z</time></trkpt><trkpt lat="42.521507" lon="-7.2598889"><ele>793.0</ele><time>2026-04-25T13:32:12.046Z</time></trkpt><trkpt lat="42.5213792" lon="-7.2598625"><ele>793.0</ele><time>2026-04-25T13:32:13.053Z</time></trkpt><trkpt lat="42.5212456" lon="-7.2598326"><ele>790.25</ele><time>2026-04-25T13:32:14.062Z</time></trkpt><trkpt lat="42.5211237" lon="-7.2597647"><ele>787.5</ele><time>2026-04-25T13:32:15.054Z</time></trkpt><trkpt lat="42.5210196" lon="-7.259696"><ele>784.75</ele><time>2026-04-25T13:32:16.057Z</time></trkpt><trkpt lat="42.5209206" lon="-7.2596058"><ele>782.0</ele><time>2026-04-25T13:32:17.063Z</time></trkpt><trkpt lat="42.5208202" lon="-7.2594871"><ele>782.0</ele><time>2026-04-25T13:32:18.051Z</time></trkpt><trkpt lat="42.5207343" lon="-7.2593546"><ele>782.0</ele><time>2026-04-25T13:32:19.049Z</time></trkpt><trkpt lat="42.5206652" lon="-7.2592176"><ele>782.0</ele><time>2026-04-25T13:32:20.051Z</time></trkpt><trkpt lat="42.5206067" lon="-7.2590685"><ele>782.0</ele><time>2026-04-25T13:32:21.053Z</time></trkpt><trkpt lat="42.5205633" lon="-7.25891"><ele>784.3333333333334</ele><time>2026-04-25T13:32:22.055Z</time></trkpt><trkpt lat="42.520523" lon="-7.258721"><ele>786.6666666666667</ele><time>2026-04-25T13:32:23.049Z</time></trkpt><trkpt lat="42.5204803" lon="-7.2585233"><ele>789.0</ele><time>2026-04-25T13:32:24.05Z</time></trkpt><trkpt lat="42.5204335" lon="-7.2583202"><ele>783.25</ele><time>2026-04-25T13:32:25.051Z</time></trkpt><trkpt lat="42.5203884" lon="-7.2581305"><ele>777.5</ele><time>2026-04-25T13:32:26.048Z</time></trkpt><trkpt lat="42.5203534" lon="-7.2579598"><ele>771.75</ele><time>2026-04-25T13:32:27.055Z</time></trkpt><trkpt lat="42.5203309" lon="-7.2578032"><ele>766.0</ele><time>2026-04-25T13:32:28.05Z</time></trkpt><trkpt lat="42.5203196" lon="-7.257665"><ele>766.0</ele><time>2026-04-25T13:32:29.046Z</time></trkpt><trkpt lat="42.5203203" lon="-7.2575388"><ele>766.0</ele><time>2026-04-25T13:32:30.053Z</time></trkpt><trkpt lat="42.5203367" lon="-7.2574107"><ele>766.0</ele><time>2026-04-25T13:32:31.053Z</time></trkpt><trkpt lat="42.5203694" lon="-7.2572628"><ele>766.0</ele><time>2026-04-25T13:32:32.049Z</time></trkpt><trkpt lat="42.5204025" lon="-7.2571182"><ele>766.0</ele><time>2026-04-25T13:32:33.045Z</time></trkpt><trkpt lat="42.5204421" lon="-7.2569963"><ele>767.0</ele><time>2026-04-25T13:32:34.051Z</time></trkpt><trkpt lat="42.5204775" lon="-7.2568791"><ele>768.0</ele><time>2026-04-25T13:32:35.048Z</time></trkpt><trkpt lat="42.5204863" lon="-7.2567579"><ele>769.0</ele><time>2026-04-25T13:32:36.05Z</time></trkpt><trkpt lat="42.5204773" lon="-7.2566471"><ele>770.0</ele><time>2026-04-25T13:32:37.053Z</time></trkpt><trkpt lat="42.520467" lon="-7.2565515"><ele>770.9999999999999</ele><time>2026-04-25T13:32:38.053Z</time></trkpt><trkpt lat="42.5204295" lon="-7.2564655"><ele>772.0</ele><time>2026-04-25T13:32:39.052Z</time></trkpt><trkpt lat="42.5203751" lon="-7.256418"><ele>772.0</ele><time>2026-04-25T13:32:40.051Z</time></trkpt><trkpt lat="42.5202754" lon="-7.2563862"><ele>772.0</ele><time>2026-04-25T13:32:42.047Z</time></trkpt><trkpt lat="42.5202185" lon="-7.2564666"><ele>772.0</ele><time>2026-04-25T13:32:43.056Z</time></trkpt><trkpt lat="42.5201465" lon="-7.2565688"><ele>772.0</ele><time>2026-04-25T13:32:44.058Z</time></trkpt><trkpt lat="42.5200736" lon="-7.2567008"><ele>772.0</ele><time>2026-04-25T13:32:45.046Z</time></trkpt><trkpt lat="42.5199786" lon="-7.2568429"><ele>771.5</ele><time>2026-04-25T13:32:46.055Z</time></trkpt><trkpt lat="42.5198879" lon="-7.2569727"><ele>771.0</ele><time>2026-04-25T13:32:47.05Z</time></trkpt><trkpt lat="42.5198197" lon="-7.2571355"><ele>770.5</ele><time>2026-04-25T13:32:48.054Z</time></trkpt><trkpt lat="42.5197694" lon="-7.2573359"><ele>770.0</ele><time>2026-04-25T13:32:49.046Z</time></trkpt><trkpt lat="42.5197029" lon="-7.2575485"><ele>768.6666666666667</ele><time>2026-04-25T13:32:50.056Z</time></trkpt><trkpt lat="42.5196252" lon="-7.2577577"><ele>767.3333333333334</ele><time>2026-04-25T13:32:51.051Z</time></trkpt><trkpt lat="42.5195524" lon="-7.2579479"><ele>766.0</ele><time>2026-04-25T13:32:52.053Z</time></trkpt><trkpt lat="42.5194932" lon="-7.2581021"><ele>769.0</ele><time>2026-04-25T13:32:53.044Z</time></trkpt><trkpt lat="42.519421" lon="-7.2582447"><ele>772.0</ele><time>2026-04-25T13:32:54.053Z</time></trkpt><trkpt lat="42.5193463" lon="-7.2583759"><ele>775.0</ele><time>2026-04-25T13:32:55.051Z</time></trkpt><trkpt lat="42.5192743" lon="-7.2585088"><ele>778.0</ele><time>2026-04-25T13:32:56.054Z</time></trkpt><trkpt lat="42.5192052" lon="-7.258637"><ele>778.0</ele><time>2026-04-25T13:32:57.053Z</time></trkpt><trkpt lat="42.5191668" lon="-7.258764"><ele>778.0</ele><time>2026-04-25T13:32:58.045Z</time></trkpt><trkpt lat="42.5191802" lon="-7.2588696"><ele>778.0</ele><time>2026-04-25T13:32:59.053Z</time></trkpt><trkpt lat="42.519211" lon="-7.2589981"><ele>778.0</ele><time>2026-04-25T13:33:00.073Z</time></trkpt><trkpt lat="42.5192451" lon="-7.2591614"><ele>778.0</ele><time>2026-04-25T13:33:01.046Z</time></trkpt><trkpt lat="42.5192569" lon="-7.2593314"><ele>777.25</ele><time>2026-04-25T13:33:02.056Z</time></trkpt><trkpt lat="42.5192392" lon="-7.2594905"><ele>776.5</ele><time>2026-04-25T13:33:03.043Z</time></trkpt><trkpt lat="42.5192148" lon="-7.2596386"><ele>775.75</ele><time>2026-04-25T13:33:04.048Z</time></trkpt><trkpt lat="42.5191543" lon="-7.2597858"><ele>775.0</ele><time>2026-04-25T13:33:05.044Z</time></trkpt><trkpt lat="42.5190632" lon="-7.2599555"><ele>774.3333333333333</ele><time>2026-04-25T13:33:06.049Z</time></trkpt><trkpt lat="42.518963" lon="-7.2601338"><ele>773.6666666666667</ele><time>2026-04-25T13:33:07.053Z</time></trkpt><trkpt lat="42.5188571" lon="-7.260322"><ele>773.0</ele><time>2026-04-25T13:33:08.056Z</time></trkpt><trkpt lat="42.5187616" lon="-7.2605545"><ele>782.3333333333334</ele><time>2026-04-25T13:33:09.051Z</time></trkpt><trkpt lat="42.518683" lon="-7.2607705"><ele>791.6666666666667</ele><time>2026-04-25T13:33:10.054Z</time></trkpt><trkpt lat="42.518624" lon="-7.2610294"><ele>801.0</ele><time>2026-04-25T13:33:11.049Z</time></trkpt><trkpt lat="42.518553" lon="-7.261275"><ele>798.75</ele><time>2026-04-25T13:33:12.056Z</time></trkpt><trkpt lat="42.5184866" lon="-7.2614965"><ele>796.5</ele><time>2026-04-25T13:33:13.046Z</time></trkpt><trkpt lat="42.518431" lon="-7.2616706"><ele>794.25</ele><time>2026-04-25T13:33:14.052Z</time></trkpt><trkpt lat="42.5183722" lon="-7.2618255"><ele>792.0</ele><time>2026-04-25T13:33:15.048Z</time></trkpt><trkpt lat="42.5183076" lon="-7.2619568"><ele>792.0</ele><time>2026-04-25T13:33:16.045Z</time></trkpt><trkpt lat="42.5182153" lon="-7.2620673"><ele>792.0</ele><time>2026-04-25T13:33:17.05Z</time></trkpt><trkpt lat="42.5180966" lon="-7.2621783"><ele>792.0</ele><time>2026-04-25T13:33:18.055Z</time></trkpt><trkpt lat="42.5179662" lon="-7.262292"><ele>792.0</ele><time>2026-04-25T13:33:19.054Z</time></trkpt><trkpt lat="42.5178253" lon="-7.2624245"><ele>794.2</ele><time>2026-04-25T13:33:20.048Z</time></trkpt><trkpt lat="42.5177037" lon="-7.2625485"><ele>796.4000000000001</ele><time>2026-04-25T13:33:21.05Z</time></trkpt><trkpt lat="42.5176053" lon="-7.2626347"><ele>798.5999999999999</ele><time>2026-04-25T13:33:22.045Z</time></trkpt><trkpt lat="42.517523" lon="-7.2626766"><ele>800.8</ele><time>2026-04-25T13:33:23.054Z</time></trkpt><trkpt lat="42.5174369" lon="-7.2626787"><ele>803.0</ele><time>2026-04-25T13:33:24.055Z</time></trkpt><trkpt lat="42.5173207" lon="-7.2626572"><ele>803.0</ele><time>2026-04-25T13:33:25.047Z</time></trkpt><trkpt lat="42.5172077" lon="-7.2626517"><ele>803.0</ele><time>2026-04-25T13:33:26.048Z</time></trkpt><trkpt lat="42.5171149" lon="-7.2626372"><ele>803.0</ele><time>2026-04-25T13:33:27.063Z</time></trkpt><trkpt lat="42.5170367" lon="-7.2627172"><ele>803.0</ele><time>2026-04-25T13:33:28.047Z</time></trkpt><trkpt lat="42.5169419" lon="-7.2628316"><ele>803.0</ele><time>2026-04-25T13:33:29.048Z</time></trkpt><trkpt lat="42.5168297" lon="-7.2629987"><ele>803.3333333333334</ele><time>2026-04-25T13:33:30.046Z</time></trkpt><trkpt lat="42.5167109" lon="-7.2631637"><ele>803.6666666666667</ele><time>2026-04-25T13:33:31.055Z</time></trkpt><trkpt lat="42.5165826" lon="-7.263308"><ele>804.0</ele><time>2026-04-25T13:33:32.044Z</time></trkpt><trkpt lat="42.5164429" lon="-7.2634307"><ele>804.0</ele><time>2026-04-25T13:33:33.05Z</time></trkpt><trkpt lat="42.5162893" lon="-7.2635427"><ele>804.0</ele><time>2026-04-25T13:33:34.064Z</time></trkpt><trkpt lat="42.5161154" lon="-7.2636526"><ele>804.0</ele><time>2026-04-25T13:33:35.054Z</time></trkpt><trkpt lat="42.5159553" lon="-7.2637554"><ele>801.75</ele><time>2026-04-25T13:33:36.047Z</time></trkpt><trkpt lat="42.5158249" lon="-7.2638599"><ele>799.5</ele><time>2026-04-25T13:33:37.05Z</time></trkpt><trkpt lat="42.5157032" lon="-7.2639477"><ele>797.25</ele><time>2026-04-25T13:33:38.059Z</time></trkpt><trkpt lat="42.5155976" lon="-7.2640051"><ele>795.0</ele><time>2026-04-25T13:33:39.047Z</time></trkpt><trkpt lat="42.5154932" lon="-7.2640392"><ele>797.2</ele><time>2026-04-25T13:33:40.056Z</time></trkpt><trkpt lat="42.515403" lon="-7.2640672"><ele>799.4</ele><time>2026-04-25T13:33:41.049Z</time></trkpt><trkpt lat="42.5153183" lon="-7.2640958"><ele>801.5999999999999</ele><time>2026-04-25T13:33:42.051Z</time></trkpt><trkpt lat="42.5152312" lon="-7.2641288"><ele>803.8</ele><time>2026-04-25T13:33:43.049Z</time></trkpt><trkpt lat="42.5151349" lon="-7.2641405"><ele>806.0</ele><time>2026-04-25T13:33:44.056Z</time></trkpt><trkpt lat="42.5150411" lon="-7.2641396"><ele>806.0</ele><time>2026-04-25T13:33:45.05Z</time></trkpt><trkpt lat="42.5149532" lon="-7.264136"><ele>806.0</ele><time>2026-04-25T13:33:46.051Z</time></trkpt><trkpt lat="42.5148555" lon="-7.2641185"><ele>806.0</ele><time>2026-04-25T13:33:47.048Z</time></trkpt><trkpt lat="42.5147524" lon="-7.2640963"><ele>806.0</ele><time>2026-04-25T13:33:48.05Z</time></trkpt><trkpt lat="42.5146634" lon="-7.2640667"><ele>806.0</ele><time>2026-04-25T13:33:49.055Z</time></trkpt><trkpt lat="42.5145817" lon="-7.2640397"><ele>804.8333333333334</ele><time>2026-04-25T13:33:50.054Z</time></trkpt><trkpt lat="42.5145102" lon="-7.2640189"><ele>803.6666666666667</ele><time>2026-04-25T13:33:51.071Z</time></trkpt><trkpt lat="42.5144404" lon="-7.2640024"><ele>802.5</ele><time>2026-04-25T13:36:39.052Z</time></trkpt><trkpt lat="42.514364" lon="-7.26398"><ele>801.3333333333333</ele><time>2026-04-25T13:36:41.06Z</time></trkpt><trkpt lat="42.5142676" lon="-7.2639723"><ele>800.1666666666666</ele><time>2026-04-25T13:36:43.056Z</time></trkpt><trkpt lat="42.514143" lon="-7.2639768"><ele>799.0</ele><time>2026-04-25T13:36:45.06Z</time></trkpt><trkpt lat="42.5140606" lon="-7.2639807"><ele>798.9999999999999</ele><time>2026-04-25T13:36:46.057Z</time></trkpt><trkpt lat="42.5139734" lon="-7.2639847"><ele>799.0</ele><time>2026-04-25T13:36:47.062Z</time></trkpt><trkpt lat="42.5138914" lon="-7.2639896"><ele>799.0</ele><time>2026-04-25T13:36:48.054Z</time></trkpt><trkpt lat="42.513813" lon="-7.263994"><ele>799.0</ele><time>2026-04-25T13:36:49.054Z</time></trkpt><trkpt lat="42.5137381" lon="-7.2639971"><ele>798.9999999999999</ele><time>2026-04-25T13:36:50.057Z</time></trkpt><trkpt lat="42.5136676" lon="-7.2640012"><ele>799.0</ele><time>2026-04-25T13:36:51.054Z</time></trkpt><trkpt lat="42.5136" lon="-7.2640056"><ele>797.8000000000001</ele><time>2026-04-25T13:36:52.062Z</time></trkpt><trkpt lat="42.5135244" lon="-7.2640077"><ele>796.6</ele><time>2026-04-25T13:36:53.061Z</time></trkpt><trkpt lat="42.5134384" lon="-7.2640094"><ele>795.4</ele><time>2026-04-25T13:36:54.054Z</time></trkpt><trkpt lat="42.5133436" lon="-7.2640068"><ele>794.2</ele><time>2026-04-25T13:36:55.055Z</time></trkpt><trkpt lat="42.5132372" lon="-7.2639929"><ele>793.0</ele><time>2026-04-25T13:36:56.049Z</time></trkpt><trkpt lat="42.5131112" lon="-7.2639676"><ele>797.3333333333333</ele><time>2026-04-25T13:36:57.047Z</time></trkpt><trkpt lat="42.5129679" lon="-7.2639336"><ele>801.6666666666667</ele><time>2026-04-25T13:36:58.047Z</time></trkpt><trkpt lat="42.5128043" lon="-7.2638952"><ele>806.0</ele><time>2026-04-25T13:36:59.062Z</time></trkpt><trkpt lat="42.5126484" lon="-7.2638603"><ele>806.0</ele><time>2026-04-25T13:37:00.046Z</time></trkpt><trkpt lat="42.5125025" lon="-7.263826"><ele>806.0</ele><time>2026-04-25T13:37:01.056Z</time></trkpt><trkpt lat="42.5123664" lon="-7.2637914"><ele>806.0</ele><time>2026-04-25T13:37:02.054Z</time></trkpt><trkpt lat="42.5122441" lon="-7.2637522"><ele>806.0</ele><time>2026-04-25T13:37:03.062Z</time></trkpt><trkpt lat="42.5121354" lon="-7.2637088"><ele>802.8</ele><time>2026-04-25T13:37:04.059Z</time></trkpt><trkpt lat="42.5120482" lon="-7.2636519"><ele>799.5999999999999</ele><time>2026-04-25T13:37:05.046Z</time></trkpt><trkpt lat="42.5119883" lon="-7.2635701"><ele>796.4</ele><time>2026-04-25T13:37:06.047Z</time></trkpt><trkpt lat="42.5119454" lon="-7.2634477"><ele>793.2</ele><time>2026-04-25T13:37:07.051Z</time></trkpt><trkpt lat="42.5119129" lon="-7.2632814"><ele>790.0</ele><time>2026-04-25T13:37:08.049Z</time></trkpt><trkpt lat="42.5118862" lon="-7.2631322"><ele>792.4999999999999</ele><time>2026-04-25T13:37:09.048Z</time></trkpt><trkpt lat="42.5118587" lon="-7.2630171"><ele>795.0</ele><time>2026-04-25T13:37:10.06Z</time></trkpt><trkpt lat="42.5118147" lon="-7.2629284"><ele>797.5</ele><time>2026-04-25T13:37:11.05Z</time></trkpt><trkpt lat="42.5117499" lon="-7.2628714"><ele>800.0</ele><time>2026-04-25T13:37:12.048Z</time></trkpt><trkpt lat="42.5116702" lon="-7.2628678"><ele>802.4999999999999</ele><time>2026-04-25T13:37:13.052Z</time></trkpt><trkpt lat="42.5115781" lon="-7.262865"><ele>805.0</ele><time>2026-04-25T13:37:14.058Z</time></trkpt><trkpt lat="42.5114548" lon="-7.262929"><ele>805.0</ele><time>2026-04-25T13:37:15.059Z</time></trkpt><trkpt lat="42.5112984" lon="-7.2630268"><ele>805.0</ele><time>2026-04-25T13:37:16.045Z</time></trkpt><trkpt lat="42.5111136" lon="-7.2631271"><ele>805.0</ele><time>2026-04-25T13:37:17.06Z</time></trkpt><trkpt lat="42.5109355" lon="-7.2632298"><ele>798.0</ele><time>2026-04-25T13:37:18.063Z</time></trkpt><trkpt lat="42.5107647" lon="-7.2633365"><ele>791.0</ele><time>2026-04-25T13:37:19.06Z</time></trkpt><trkpt lat="42.5106069" lon="-7.2634432"><ele>784.0</ele><time>2026-04-25T13:37:20.049Z</time></trkpt><trkpt lat="42.5104656" lon="-7.2635596"><ele>786.0</ele><time>2026-04-25T13:37:21.057Z</time></trkpt><trkpt lat="42.5103346" lon="-7.2636741"><ele>788.0</ele><time>2026-04-25T13:37:22.06Z</time></trkpt><trkpt lat="42.5102081" lon="-7.2637766"><ele>790.0</ele><time>2026-04-25T13:37:23.077Z</time></trkpt><trkpt lat="42.5100997" lon="-7.2638592"><ele>792.0</ele><time>2026-04-25T13:37:24.055Z</time></trkpt><trkpt lat="42.5099927" lon="-7.263919"><ele>792.0</ele><time>2026-04-25T13:37:25.065Z</time></trkpt><trkpt lat="42.5098969" lon="-7.2639483"><ele>792.0</ele><time>2026-04-25T13:37:26.053Z</time></trkpt><trkpt lat="42.5098107" lon="-7.2639507"><ele>792.0</ele><time>2026-04-25T13:37:27.053Z</time></trkpt><trkpt lat="42.509732" lon="-7.263935"><ele>792.0</ele><time>2026-04-25T13:37:28.067Z</time></trkpt><trkpt lat="42.5096515" lon="-7.2639068"><ele>792.0</ele><time>2026-04-25T13:37:29.054Z</time></trkpt><trkpt lat="42.5095531" lon="-7.2638658"><ele>790.0</ele><time>2026-04-25T13:37:30.065Z</time></trkpt><trkpt lat="42.5094382" lon="-7.2638103"><ele>788.0</ele><time>2026-04-25T13:37:31.054Z</time></trkpt><trkpt lat="42.5093104" lon="-7.2637371"><ele>786.0</ele><time>2026-04-25T13:37:32.054Z</time></trkpt><trkpt lat="42.5091742" lon="-7.2636585"><ele>784.0</ele><time>2026-04-25T13:37:33.058Z</time></trkpt><trkpt lat="42.5090411" lon="-7.2635871"><ele>784.0</ele><time>2026-04-25T13:37:34.058Z</time></trkpt><trkpt lat="42.5089179" lon="-7.2635388"><ele>784.0</ele><time>2026-04-25T13:37:35.057Z</time></trkpt><trkpt lat="42.5088053" lon="-7.2635273"><ele>784.0</ele><time>2026-04-25T13:37:36.066Z</time></trkpt><trkpt lat="42.5087007" lon="-7.2635568"><ele>784.0</ele><time>2026-04-25T13:37:37.054Z</time></trkpt><trkpt lat="42.5085845" lon="-7.2636078"><ele>782.5</ele><time>2026-04-25T13:37:38.06Z</time></trkpt><trkpt lat="42.5084659" lon="-7.2636421"><ele>781.0</ele><time>2026-04-25T13:37:39.047Z</time></trkpt><trkpt lat="42.5083402" lon="-7.2636716"><ele>779.5</ele><time>2026-04-25T13:37:40.056Z</time></trkpt><trkpt lat="42.5081843" lon="-7.2636534"><ele>778.0</ele><time>2026-04-25T13:37:41.053Z</time></trkpt><trkpt lat="42.5080264" lon="-7.2635988"><ele>774.6666666666666</ele><time>2026-04-25T13:37:42.05Z</time></trkpt><trkpt lat="42.5078827" lon="-7.2635331"><ele>771.3333333333333</ele><time>2026-04-25T13:37:43.059Z</time></trkpt><trkpt lat="42.5077365" lon="-7.2634391"><ele>768.0</ele><time>2026-04-25T13:37:44.06Z</time></trkpt><trkpt lat="42.5076004" lon="-7.2633348"><ele>768.0</ele><time>2026-04-25T13:37:45.054Z</time></trkpt><trkpt lat="42.5074783" lon="-7.2632206"><ele>768.0</ele><time>2026-04-25T13:37:46.053Z</time></trkpt><trkpt lat="42.5073603" lon="-7.263096"><ele>768.0</ele><time>2026-04-25T13:37:47.06Z</time></trkpt><trkpt lat="42.5072451" lon="-7.2629571"><ele>767.5</ele><time>2026-04-25T13:37:48.049Z</time></trkpt><trkpt lat="42.5071432" lon="-7.2628261"><ele>767.0</ele><time>2026-04-25T13:37:49.062Z</time></trkpt><trkpt lat="42.5070391" lon="-7.2627265"><ele>766.5</ele><time>2026-04-25T13:37:50.056Z</time></trkpt><trkpt lat="42.5069082" lon="-7.2626549"><ele>766.0</ele><time>2026-04-25T13:37:51.055Z</time></trkpt><trkpt lat="42.5067547" lon="-7.262598"><ele>766.0</ele><time>2026-04-25T13:37:52.062Z</time></trkpt><trkpt lat="42.5065981" lon="-7.2625599"><ele>766.0</ele><time>2026-04-25T13:37:53.064Z</time></trkpt><trkpt lat="42.5064347" lon="-7.2625464"><ele>766.0</ele><time>2026-04-25T13:37:54.054Z</time></trkpt><trkpt lat="42.5062779" lon="-7.2625578"><ele>763.6666666666667</ele><time>2026-04-25T13:37:55.057Z</time></trkpt><trkpt lat="42.5061239" lon="-7.2625981"><ele>761.3333333333334</ele><time>2026-04-25T13:37:56.057Z</time></trkpt><trkpt lat="42.5059641" lon="-7.2626725"><ele>759.0</ele><time>2026-04-25T13:37:57.051Z</time></trkpt><trkpt lat="42.5057932" lon="-7.2627781"><ele>759.0</ele><time>2026-04-25T13:37:58.068Z</time></trkpt><trkpt lat="42.5056097" lon="-7.2629011"><ele>759.0</ele><time>2026-04-25T13:37:59.066Z</time></trkpt><trkpt lat="42.5054114" lon="-7.26304"><ele>759.0</ele><time>2026-04-25T13:38:00.055Z</time></trkpt><trkpt lat="42.5052142" lon="-7.263181"><ele>755.3333333333334</ele><time>2026-04-25T13:38:01.057Z</time></trkpt><trkpt lat="42.505028" lon="-7.2633181"><ele>751.6666666666667</ele><time>2026-04-25T13:38:02.057Z</time></trkpt><trkpt lat="42.5048496" lon="-7.2634548"><ele>748.0</ele><time>2026-04-25T13:38:03.064Z</time></trkpt><trkpt lat="42.5046789" lon="-7.2635899"><ele>746.0</ele><time>2026-04-25T13:38:04.06Z</time></trkpt><trkpt lat="42.5045266" lon="-7.2637358"><ele>744.0</ele><time>2026-04-25T13:38:05.057Z</time></trkpt><trkpt lat="42.5043779" lon="-7.2638744"><ele>742.0</ele><time>2026-04-25T13:38:06.051Z</time></trkpt><trkpt lat="42.5042367" lon="-7.2640086"><ele>740.6666666666667</ele><time>2026-04-25T13:38:07.055Z</time></trkpt><trkpt lat="42.5040992" lon="-7.2641478"><ele>739.3333333333334</ele><time>2026-04-25T13:38:08.058Z</time></trkpt><trkpt lat="42.5039546" lon="-7.2642647"><ele>738.0</ele><time>2026-04-25T13:38:09.051Z</time></trkpt><trkpt lat="42.5038121" lon="-7.2643558"><ele>735.0</ele><time>2026-04-25T13:38:10.061Z</time></trkpt><trkpt lat="42.5036516" lon="-7.2644214"><ele>732.0</ele><time>2026-04-25T13:38:11.053Z</time></trkpt><trkpt lat="42.5034792" lon="-7.2644725"><ele>729.0</ele><time>2026-04-25T13:38:12.051Z</time></trkpt><trkpt lat="42.5033348" lon="-7.2645215"><ele>729.0</ele><time>2026-04-25T13:38:13.054Z</time></trkpt><trkpt lat="42.503212" lon="-7.2645818"><ele>729.0</ele><time>2026-04-25T13:38:14.056Z</time></trkpt><trkpt lat="42.5031138" lon="-7.264678"><ele>729.0</ele><time>2026-04-25T13:38:15.064Z</time></trkpt><trkpt lat="42.5030236" lon="-7.2647953"><ele>729.0</ele><time>2026-04-25T13:38:16.074Z</time></trkpt><trkpt lat="42.502927" lon="-7.2649211"><ele>730.5</ele><time>2026-04-25T13:38:17.056Z</time></trkpt><trkpt lat="42.5028278" lon="-7.2650367"><ele>732.0</ele><time>2026-04-25T13:38:18.053Z</time></trkpt><trkpt lat="42.5027017" lon="-7.2651118"><ele>733.5</ele><time>2026-04-25T13:38:19.066Z</time></trkpt><trkpt lat="42.5025622" lon="-7.2651744"><ele>735.0</ele><time>2026-04-25T13:38:20.057Z</time></trkpt><trkpt lat="42.5024022" lon="-7.265236"><ele>735.0</ele><time>2026-04-25T13:38:21.054Z</time></trkpt><trkpt lat="42.5022427" lon="-7.2652995"><ele>735.0</ele><time>2026-04-25T13:38:22.05Z</time></trkpt><trkpt lat="42.5020783" lon="-7.2653399"><ele>735.0</ele><time>2026-04-25T13:38:23.063Z</time></trkpt><trkpt lat="42.5018953" lon="-7.2653633"><ele>736.6666666666666</ele><time>2026-04-25T13:38:24.058Z</time></trkpt><trkpt lat="42.5017163" lon="-7.2653812"><ele>738.3333333333333</ele><time>2026-04-25T13:38:25.061Z</time></trkpt><trkpt lat="42.5015498" lon="-7.2653992"><ele>740.0</ele><time>2026-04-25T13:38:26.061Z</time></trkpt><trkpt lat="42.5013763" lon="-7.2654255"><ele>738.3333333333333</ele><time>2026-04-25T13:38:27.058Z</time></trkpt><trkpt lat="42.5012012" lon="-7.2654633"><ele>736.6666666666666</ele><time>2026-04-25T13:38:28.057Z</time></trkpt><trkpt lat="42.5010321" lon="-7.2655055"><ele>735.0</ele><time>2026-04-25T13:38:29.058Z</time></trkpt><trkpt lat="42.5008559" lon="-7.2655543"><ele>735.0</ele><time>2026-04-25T13:38:30.059Z</time></trkpt><trkpt lat="42.500669" lon="-7.2655925"><ele>735.0</ele><time>2026-04-25T13:38:31.053Z</time></trkpt><trkpt lat="42.5004885" lon="-7.2656159"><ele>735.0</ele><time>2026-04-25T13:38:32.056Z</time></trkpt><trkpt lat="42.5003051" lon="-7.2656487"><ele>736.3333333333334</ele><time>2026-04-25T13:38:33.056Z</time></trkpt><trkpt lat="42.5001277" lon="-7.2656805"><ele>737.6666666666667</ele><time>2026-04-25T13:38:34.053Z</time></trkpt><trkpt lat="42.49995" lon="-7.2657131"><ele>739.0</ele><time>2026-04-25T13:38:35.061Z</time></trkpt><trkpt lat="42.4997686" lon="-7.2657274"><ele>739.0</ele><time>2026-04-25T13:38:36.054Z</time></trkpt><trkpt lat="42.4995944" lon="-7.265772"><ele>739.0</ele><time>2026-04-25T13:38:37.056Z</time></trkpt><trkpt lat="42.4994332" lon="-7.2658212"><ele>739.0</ele><time>2026-04-25T13:38:38.061Z</time></trkpt><trkpt lat="42.499282" lon="-7.2658673"><ele>736.6666666666667</ele><time>2026-04-25T13:38:39.053Z</time></trkpt><trkpt lat="42.4991339" lon="-7.2659179"><ele>734.3333333333334</ele><time>2026-04-25T13:38:40.056Z</time></trkpt><trkpt lat="42.4989887" lon="-7.2659718"><ele>732.0</ele><time>2026-04-25T13:38:41.056Z</time></trkpt><trkpt lat="42.49884" lon="-7.2660345"><ele>729.3333333333334</ele><time>2026-04-25T13:38:42.054Z</time></trkpt><trkpt lat="42.4986979" lon="-7.2661043"><ele>726.6666666666667</ele><time>2026-04-25T13:38:43.06Z</time></trkpt><trkpt lat="42.4985495" lon="-7.2662039"><ele>724.0</ele><time>2026-04-25T13:38:44.069Z</time></trkpt><trkpt lat="42.4983919" lon="-7.2663226"><ele>724.0</ele><time>2026-04-25T13:38:45.058Z</time></trkpt><trkpt lat="42.498239" lon="-7.2664223"><ele>724.0</ele><time>2026-04-25T13:38:46.053Z</time></trkpt><trkpt lat="42.4980683" lon="-7.26651"><ele>724.0</ele><time>2026-04-25T13:38:47.058Z</time></trkpt><trkpt lat="42.4978793" lon="-7.2665781"><ele>723.6666666666667</ele><time>2026-04-25T13:38:48.056Z</time></trkpt><trkpt lat="42.49769" lon="-7.2666255"><ele>723.3333333333334</ele><time>2026-04-25T13:38:49.059Z</time></trkpt><trkpt lat="42.4975094" lon="-7.2666566"><ele>723.0</ele><time>2026-04-25T13:38:50.062Z</time></trkpt><trkpt lat="42.4973442" lon="-7.2666835"><ele>723.0</ele><time>2026-04-25T13:38:51.054Z</time></trkpt><trkpt lat="42.4971877" lon="-7.2667169"><ele>723.0</ele><time>2026-04-25T13:38:52.051Z</time></trkpt><trkpt lat="42.4970415" lon="-7.2667609"><ele>723.0</ele><time>2026-04-25T13:38:53.054Z</time></trkpt><trkpt lat="42.4969014" lon="-7.2668128"><ele>720.0</ele><time>2026-04-25T13:38:54.053Z</time></trkpt><trkpt lat="42.4967631" lon="-7.2668932"><ele>717.0</ele><time>2026-04-25T13:38:55.058Z</time></trkpt><trkpt lat="42.4966224" lon="-7.2669614"><ele>714.0</ele><time>2026-04-25T13:38:56.054Z</time></trkpt><trkpt lat="42.4964604" lon="-7.2670086"><ele>714.0</ele><time>2026-04-25T13:38:57.053Z</time></trkpt><trkpt lat="42.4962855" lon="-7.2670418"><ele>714.0</ele><time>2026-04-25T13:38:58.051Z</time></trkpt><trkpt lat="42.4961119" lon="-7.2670631"><ele>714.0</ele><time>2026-04-25T13:38:59.059Z</time></trkpt><trkpt lat="42.4959532" lon="-7.2670775"><ele>711.5</ele><time>2026-04-25T13:39:00.049Z</time></trkpt><trkpt lat="42.495803" lon="-7.2670873"><ele>709.0</ele><time>2026-04-25T13:39:01.061Z</time></trkpt><trkpt lat="42.4956504" lon="-7.2671018"><ele>706.5</ele><time>2026-04-25T13:39:02.054Z</time></trkpt><trkpt lat="42.4955084" lon="-7.2671165"><ele>704.0</ele><time>2026-04-25T13:39:03.049Z</time></trkpt><trkpt lat="42.4953823" lon="-7.2671581"><ele>705.25</ele><time>2026-04-25T13:39:04.052Z</time></trkpt><trkpt lat="42.4952646" lon="-7.2672272"><ele>706.5</ele><time>2026-04-25T13:39:05.056Z</time></trkpt><trkpt lat="42.4951457" lon="-7.2673135"><ele>707.75</ele><time>2026-04-25T13:39:06.05Z</time></trkpt><trkpt lat="42.4950304" lon="-7.2674361"><ele>709.0</ele><time>2026-04-25T13:39:07.05Z</time></trkpt><trkpt lat="42.4949326" lon="-7.2675792"><ele>709.0</ele><time>2026-04-25T13:39:08.053Z</time></trkpt><trkpt lat="42.4948414" lon="-7.2677449"><ele>709.0</ele><time>2026-04-25T13:39:09.056Z</time></trkpt><trkpt lat="42.494754" lon="-7.2679065"><ele>709.0</ele><time>2026-04-25T13:39:10.057Z</time></trkpt><trkpt lat="42.494669" lon="-7.2680412"><ele>709.0</ele><time>2026-04-25T13:39:11.055Z</time></trkpt><trkpt lat="42.4945854" lon="-7.2681426"><ele>707.75</ele><time>2026-04-25T13:39:12.055Z</time></trkpt><trkpt lat="42.4944996" lon="-7.2682155"><ele>706.5</ele><time>2026-04-25T13:39:13.046Z</time></trkpt><trkpt lat="42.4943722" lon="-7.2682322"><ele>705.25</ele><time>2026-04-25T13:39:14.051Z</time></trkpt><trkpt lat="42.4942327" lon="-7.2682389"><ele>704.0</ele><time>2026-04-25T13:39:15.056Z</time></trkpt><trkpt lat="42.4940922" lon="-7.2682574"><ele>704.0</ele><time>2026-04-25T13:39:16.055Z</time></trkpt><trkpt lat="42.4939716" lon="-7.2683034"><ele>704.0</ele><time>2026-04-25T13:39:17.055Z</time></trkpt><trkpt lat="42.4938567" lon="-7.2683986"><ele>704.0</ele><time>2026-04-25T13:39:18.057Z</time></trkpt><trkpt lat="42.4937408" lon="-7.2684601"><ele>704.0</ele><time>2026-04-25T13:39:19.06Z</time></trkpt><trkpt lat="42.4936191" lon="-7.2685162"><ele>703.0</ele><time>2026-04-25T13:39:20.06Z</time></trkpt><trkpt lat="42.4935121" lon="-7.2685257"><ele>702.0</ele><time>2026-04-25T13:39:21.056Z</time></trkpt><trkpt lat="42.493426" lon="-7.2684818"><ele>701.0</ele><time>2026-04-25T13:39:22.062Z</time></trkpt><trkpt lat="42.493335" lon="-7.2683821"><ele>700.0</ele><time>2026-04-25T13:39:23.059Z</time></trkpt><trkpt lat="42.4932297" lon="-7.2682264"><ele>699.3333333333334</ele><time>2026-04-25T13:39:24.058Z</time></trkpt><trkpt lat="42.4931125" lon="-7.2680367"><ele>698.6666666666666</ele><time>2026-04-25T13:39:25.066Z</time></trkpt><trkpt lat="42.4929873" lon="-7.2678511"><ele>698.0</ele><time>2026-04-25T13:39:26.047Z</time></trkpt><trkpt lat="42.4928396" lon="-7.2676674"><ele>698.0</ele><time>2026-04-25T13:39:27.057Z</time></trkpt><trkpt lat="42.4926619" lon="-7.2674702"><ele>698.0</ele><time>2026-04-25T13:39:28.054Z</time></trkpt><trkpt lat="42.4924849" lon="-7.2672759"><ele>696.3333333333333</ele><time>2026-04-25T13:39:29.057Z</time></trkpt><trkpt lat="42.4923276" lon="-7.2670915"><ele>694.6666666666666</ele><time>2026-04-25T13:39:30.064Z</time></trkpt><trkpt lat="42.4921759" lon="-7.2669084"><ele>693.0</ele><time>2026-04-25T13:39:31.071Z</time></trkpt><trkpt lat="42.4920386" lon="-7.2667538"><ele>693.0</ele><time>2026-04-25T13:39:32.056Z</time></trkpt><trkpt lat="42.4919276" lon="-7.2666379"><ele>693.0</ele><time>2026-04-25T13:39:33.059Z</time></trkpt><trkpt lat="42.4918408" lon="-7.2665592"><ele>693.0</ele><time>2026-04-25T13:39:34.053Z</time></trkpt><trkpt lat="42.4917769" lon="-7.2665203"><ele>693.0</ele><time>2026-04-25T13:39:35.056Z</time></trkpt><trkpt lat="42.4916892" lon="-7.2665437"><ele>693.0</ele><time>2026-04-25T13:39:37.053Z</time></trkpt><trkpt lat="42.4916347" lon="-7.2666165"><ele>693.0</ele><time>2026-04-25T13:39:38.065Z</time></trkpt><trkpt lat="42.4915784" lon="-7.2667259"><ele>693.0</ele><time>2026-04-25T13:39:39.061Z</time></trkpt><trkpt lat="42.4915189" lon="-7.2668855"><ele>693.0</ele><time>2026-04-25T13:39:40.064Z</time></trkpt><trkpt lat="42.4914703" lon="-7.2670766"><ele>693.0</ele><time>2026-04-25T13:39:41.059Z</time></trkpt><trkpt lat="42.4914321" lon="-7.2672809"><ele>693.6666666666666</ele><time>2026-04-25T13:39:42.059Z</time></trkpt><trkpt lat="42.4913961" lon="-7.2674922"><ele>694.3333333333333</ele><time>2026-04-25T13:39:43.048Z</time></trkpt><trkpt lat="42.4913478" lon="-7.2676926"><ele>695.0</ele><time>2026-04-25T13:39:44.056Z</time></trkpt><trkpt lat="42.4912901" lon="-7.2678762"><ele>691.6</ele><time>2026-04-25T13:39:45.051Z</time></trkpt><trkpt lat="42.49124" lon="-7.2680402"><ele>688.2</ele><time>2026-04-25T13:39:46.054Z</time></trkpt><trkpt lat="42.4912004" lon="-7.2681908"><ele>684.8</ele><time>2026-04-25T13:39:47.051Z</time></trkpt><trkpt lat="42.4911741" lon="-7.2683116"><ele>681.4</ele><time>2026-04-25T13:39:48.051Z</time></trkpt><trkpt lat="42.4911943" lon="-7.2684452"><ele>678.0</ele><time>2026-04-25T13:39:49.063Z</time></trkpt><trkpt lat="42.4912243" lon="-7.2685852"><ele>681.75</ele><time>2026-04-25T13:39:50.052Z</time></trkpt><trkpt lat="42.4912831" lon="-7.268784"><ele>685.5</ele><time>2026-04-25T13:39:51.054Z</time></trkpt><trkpt lat="42.4913229" lon="-7.2689762"><ele>689.25</ele><time>2026-04-25T13:39:52.061Z</time></trkpt><trkpt lat="42.4913399" lon="-7.2691236"><ele>693.0</ele><time>2026-04-25T13:39:53.053Z</time></trkpt><trkpt lat="42.4913298" lon="-7.2692743"><ele>693.0</ele><time>2026-04-25T13:39:54.061Z</time></trkpt><trkpt lat="42.4912921" lon="-7.2694093"><ele>693.0</ele><time>2026-04-25T13:39:55.055Z</time></trkpt><trkpt lat="42.4912126" lon="-7.2695356"><ele>693.0</ele><time>2026-04-25T13:39:56.049Z</time></trkpt><trkpt lat="42.4911153" lon="-7.2696371"><ele>693.0</ele><time>2026-04-25T13:39:57.055Z</time></trkpt><trkpt lat="42.4910053" lon="-7.2697408"><ele>688.25</ele><time>2026-04-25T13:39:58.068Z</time></trkpt><trkpt lat="42.4909185" lon="-7.2698733"><ele>683.5</ele><time>2026-04-25T13:39:59.06Z</time></trkpt><trkpt lat="42.4908212" lon="-7.2700294"><ele>678.75</ele><time>2026-04-25T13:40:00.05Z</time></trkpt><trkpt lat="42.4907387" lon="-7.270188"><ele>674.0</ele><time>2026-04-25T13:40:01.058Z</time></trkpt><trkpt lat="42.490666" lon="-7.2703644"><ele>674.0</ele><time>2026-04-25T13:40:02.057Z</time></trkpt><trkpt lat="42.4905924" lon="-7.2705648"><ele>674.0</ele><time>2026-04-25T13:40:03.053Z</time></trkpt><trkpt lat="42.4905281" lon="-7.2707596"><ele>674.0</ele><time>2026-04-25T13:40:04.059Z</time></trkpt><trkpt lat="42.4904628" lon="-7.2709626"><ele>671.25</ele><time>2026-04-25T13:40:05.062Z</time></trkpt><trkpt lat="42.4903749" lon="-7.2711428"><ele>668.5</ele><time>2026-04-25T13:40:06.056Z</time></trkpt><trkpt lat="42.4902964" lon="-7.2713039"><ele>665.75</ele><time>2026-04-25T13:40:07.055Z</time></trkpt><trkpt lat="42.4902287" lon="-7.2714507"><ele>663.0</ele><time>2026-04-25T13:40:08.064Z</time></trkpt><trkpt lat="42.4901618" lon="-7.271573"><ele>663.0</ele><time>2026-04-25T13:40:09.057Z</time></trkpt><trkpt lat="42.490095" lon="-7.2716677"><ele>663.0</ele><time>2026-04-25T13:40:10.054Z</time></trkpt><trkpt lat="42.4900395" lon="-7.2717657"><ele>663.0</ele><time>2026-04-25T13:40:11.064Z</time></trkpt><trkpt lat="42.4899919" lon="-7.271837"><ele>663.0</ele><time>2026-04-25T13:40:12.054Z</time></trkpt><trkpt lat="42.4899233" lon="-7.2718964"><ele>663.0</ele><time>2026-04-25T13:40:14.063Z</time></trkpt><trkpt lat="42.489814" lon="-7.2718519"><ele>663.0</ele><time>2026-04-25T13:40:16.062Z</time></trkpt><trkpt lat="42.489735" lon="-7.2718239"><ele>663.0</ele><time>2026-04-25T13:40:17.061Z</time></trkpt><trkpt lat="42.4896435" lon="-7.2718148"><ele>663.0</ele><time>2026-04-25T13:40:18.05Z</time></trkpt><trkpt lat="42.4895491" lon="-7.2718146"><ele>663.0</ele><time>2026-04-25T13:40:19.06Z</time></trkpt><trkpt lat="42.4894536" lon="-7.2718185"><ele>663.0</ele><time>2026-04-25T13:40:20.064Z</time></trkpt><trkpt lat="42.489362" lon="-7.2718307"><ele>660.8</ele><time>2026-04-25T13:40:21.06Z</time></trkpt><trkpt lat="42.4892712" lon="-7.2718429"><ele>658.5999999999999</ele><time>2026-04-25T13:40:22.05Z</time></trkpt><trkpt lat="42.4891744" lon="-7.271862"><ele>656.4000000000001</ele><time>2026-04-25T13:40:23.058Z</time></trkpt><trkpt lat="42.4890741" lon="-7.271886"><ele>654.2</ele><time>2026-04-25T13:40:24.049Z</time></trkpt><trkpt lat="42.4889827" lon="-7.2719168"><ele>652.0</ele><time>2026-04-25T13:40:25.046Z</time></trkpt><trkpt lat="42.4888826" lon="-7.2719639"><ele>652.0</ele><time>2026-04-25T13:40:26.055Z</time></trkpt><trkpt lat="42.4887892" lon="-7.2720167"><ele>652.0</ele><time>2026-04-25T13:40:27.055Z</time></trkpt><trkpt lat="42.488683" lon="-7.2720702"><ele>652.0</ele><time>2026-04-25T13:40:28.049Z</time></trkpt><trkpt lat="42.4885648" lon="-7.27213"><ele>652.0</ele><time>2026-04-25T13:40:29.053Z</time></trkpt><trkpt lat="42.4884947" lon="-7.2721746"><ele>652.0</ele><time>2026-04-25T13:40:30.061Z</time></trkpt><trkpt lat="42.4884002" lon="-7.2722576"><ele>649.8333333333334</ele><time>2026-04-25T13:40:31.052Z</time></trkpt><trkpt lat="42.4882907" lon="-7.27233"><ele>647.6666666666667</ele><time>2026-04-25T13:40:32.068Z</time></trkpt><trkpt lat="42.4881966" lon="-7.2723393"><ele>645.5</ele><time>2026-04-25T13:40:33.065Z</time></trkpt><trkpt lat="42.4881267" lon="-7.2723059"><ele>643.3333333333334</ele><time>2026-04-25T13:40:34.057Z</time></trkpt><trkpt lat="42.4880723" lon="-7.2722559"><ele>641.1666666666666</ele><time>2026-04-25T13:40:35.059Z</time></trkpt><trkpt lat="42.4880226" lon="-7.272172"><ele>639.0</ele><time>2026-04-25T13:40:36.07Z</time></trkpt><trkpt lat="42.4879808" lon="-7.2720714"><ele>639.0</ele><time>2026-04-25T13:40:37.049Z</time></trkpt><trkpt lat="42.4879572" lon="-7.2719534"><ele>639.0</ele><time>2026-04-25T13:40:38.064Z</time></trkpt><trkpt lat="42.487966" lon="-7.2718207"><ele>639.0</ele><time>2026-04-25T13:40:39.058Z</time></trkpt><trkpt lat="42.4879782" lon="-7.271735"><ele>639.0</ele><time>2026-04-25T13:40:40.057Z</time></trkpt><trkpt lat="42.4879596" lon="-7.2716219"><ele>639.0</ele><time>2026-04-25T13:40:41.061Z</time></trkpt><trkpt lat="42.4879572" lon="-7.271521"><ele>639.0</ele><time>2026-04-25T13:40:42.06Z</time></trkpt><trkpt lat="42.4879192" lon="-7.2713665"><ele>633.2</ele><time>2026-04-25T13:40:44.057Z</time></trkpt><trkpt lat="42.4878509" lon="-7.2712574"><ele>627.4</ele><time>2026-04-25T13:40:46.053Z</time></trkpt><trkpt lat="42.4877776" lon="-7.2712407"><ele>621.6</ele><time>2026-04-25T13:40:47.059Z</time></trkpt><trkpt lat="42.4876791" lon="-7.2712653"><ele>615.8</ele><time>2026-04-25T13:40:48.06Z</time></trkpt><trkpt lat="42.4875896" lon="-7.2712554"><ele>610.0</ele><time>2026-04-25T13:40:49.067Z</time></trkpt><trkpt lat="42.4875097" lon="-7.2712152"><ele>610.0</ele><time>2026-04-25T13:40:50.052Z</time></trkpt><trkpt lat="42.4874173" lon="-7.2711805"><ele>610.0</ele><time>2026-04-25T13:40:51.07Z</time></trkpt><trkpt lat="42.4873525" lon="-7.2711396"><ele>610.0</ele><time>2026-04-25T13:40:52.058Z</time></trkpt><trkpt lat="42.4872793" lon="-7.2710912"><ele>610.0</ele><time>2026-04-25T13:40:53.061Z</time></trkpt><trkpt lat="42.4872146" lon="-7.2710401"><ele>610.0</ele><time>2026-04-25T13:40:54.058Z</time></trkpt><trkpt lat="42.4871517" lon="-7.2709903"><ele>610.0</ele><time>2026-04-25T13:40:55.059Z</time></trkpt><trkpt lat="42.4870896" lon="-7.2709527"><ele>607.0</ele><time>2026-04-25T13:40:56.06Z</time></trkpt><trkpt lat="42.4869634" lon="-7.2708795"><ele>604.0</ele><time>2026-04-25T13:40:58.053Z</time></trkpt><trkpt lat="42.4868849" lon="-7.2708719"><ele>601.0</ele><time>2026-04-25T13:40:59.063Z</time></trkpt><trkpt lat="42.4868194" lon="-7.2708698"><ele>598.0</ele><time>2026-04-25T13:41:00.058Z</time></trkpt><trkpt lat="42.4867465" lon="-7.2708795"><ele>595.0</ele><time>2026-04-25T13:41:01.05Z</time></trkpt><trkpt lat="42.486677" lon="-7.2708906"><ele>592.0</ele><time>2026-04-25T13:41:02.049Z</time></trkpt><trkpt lat="42.4865952" lon="-7.270906"><ele>592.0</ele><time>2026-04-25T13:41:03.058Z</time></trkpt><trkpt lat="42.4865224" lon="-7.2708914"><ele>592.0</ele><time>2026-04-25T13:41:04.06Z</time></trkpt><trkpt lat="42.4864573" lon="-7.2709114"><ele>592.0</ele><time>2026-04-25T13:41:05.064Z</time></trkpt><trkpt lat="42.4863864" lon="-7.2709354"><ele>592.0</ele><time>2026-04-25T13:41:06.063Z</time></trkpt><trkpt lat="42.4863171" lon="-7.2709442"><ele>592.0</ele><time>2026-04-25T13:41:07.06Z</time></trkpt><trkpt lat="42.4862456" lon="-7.2709757"><ele>592.0</ele><time>2026-04-25T13:41:09.062Z</time></trkpt><trkpt lat="42.486187" lon="-7.2710652"><ele>592.0</ele><time>2026-04-25T13:41:11.062Z</time></trkpt><trkpt lat="42.4861509" lon="-7.2711427"><ele>587.2</ele><time>2026-04-25T13:41:12.061Z</time></trkpt><trkpt lat="42.4861273" lon="-7.2712471"><ele>582.4000000000001</ele><time>2026-04-25T13:41:13.055Z</time></trkpt><trkpt lat="42.486101" lon="-7.2713848"><ele>577.5999999999999</ele><time>2026-04-25T13:41:14.065Z</time></trkpt><trkpt lat="42.4860775" lon="-7.2715535"><ele>572.8</ele><time>2026-04-25T13:41:15.051Z</time></trkpt><trkpt lat="42.4860548" lon="-7.2717369"><ele>568.0</ele><time>2026-04-25T13:41:16.065Z</time></trkpt><trkpt lat="42.4860351" lon="-7.2719066"><ele>568.0</ele><time>2026-04-25T13:41:17.054Z</time></trkpt><trkpt lat="42.4860154" lon="-7.2720659"><ele>568.0</ele><time>2026-04-25T13:41:18.06Z</time></trkpt><trkpt lat="42.4859957" lon="-7.2722183"><ele>568.0</ele><time>2026-04-25T13:41:19.054Z</time></trkpt><trkpt lat="42.4859738" lon="-7.2723615"><ele>568.0</ele><time>2026-04-25T13:41:20.06Z</time></trkpt><trkpt lat="42.4859536" lon="-7.2724972"><ele>568.0</ele><time>2026-04-25T13:41:21.062Z</time></trkpt><trkpt lat="42.4859235" lon="-7.2726334"><ele>569.0</ele><time>2026-04-25T13:41:22.051Z</time></trkpt><trkpt lat="42.4858776" lon="-7.2727456"><ele>570.0</ele><time>2026-04-25T13:41:23.055Z</time></trkpt><trkpt lat="42.4858206" lon="-7.2728461"><ele>571.0</ele><time>2026-04-25T13:41:24.06Z</time></trkpt><trkpt lat="42.4857483" lon="-7.2729422"><ele>572.0</ele><time>2026-04-25T13:41:25.062Z</time></trkpt><trkpt lat="42.4856648" lon="-7.2730355"><ele>573.0</ele><time>2026-04-25T13:41:26.059Z</time></trkpt><trkpt lat="42.485581" lon="-7.2731259"><ele>575.4</ele><time>2026-04-25T13:41:27.055Z</time></trkpt><trkpt lat="42.485501" lon="-7.2732176"><ele>577.8</ele><time>2026-04-25T13:41:28.061Z</time></trkpt><trkpt lat="42.4854282" lon="-7.2733122"><ele>580.2</ele><time>2026-04-25T13:41:29.053Z</time></trkpt><trkpt lat="42.4853608" lon="-7.2734169"><ele>582.6</ele><time>2026-04-25T13:41:30.052Z</time></trkpt><trkpt lat="42.4852935" lon="-7.2735235"><ele>585.0</ele><time>2026-04-25T13:41:31.054Z</time></trkpt><trkpt lat="42.4852303" lon="-7.2736385"><ele>581.0</ele><time>2026-04-25T13:41:32.056Z</time></trkpt><trkpt lat="42.485166" lon="-7.2737574"><ele>577.0</ele><time>2026-04-25T13:41:33.053Z</time></trkpt><trkpt lat="42.4850998" lon="-7.2738811"><ele>573.0</ele><time>2026-04-25T13:41:34.063Z</time></trkpt><trkpt lat="42.485034" lon="-7.2740044"><ele>569.0</ele><time>2026-04-25T13:41:35.062Z</time></trkpt><trkpt lat="42.4849729" lon="-7.2741156"><ele>565.0</ele><time>2026-04-25T13:41:36.064Z</time></trkpt><trkpt lat="42.4849138" lon="-7.2742197"><ele>565.0</ele><time>2026-04-25T13:41:37.063Z</time></trkpt><trkpt lat="42.4848625" lon="-7.2743325"><ele>565.0</ele><time>2026-04-25T13:41:38.059Z</time></trkpt><trkpt lat="42.4848228" lon="-7.2744423"><ele>565.0</ele><time>2026-04-25T13:41:39.062Z</time></trkpt><trkpt lat="42.4847892" lon="-7.274554"><ele>565.0</ele><time>2026-04-25T13:41:40.063Z</time></trkpt><trkpt lat="42.4847638" lon="-7.2746677"><ele>565.0</ele><time>2026-04-25T13:41:41.065Z</time></trkpt><trkpt lat="42.4847412" lon="-7.2747786"><ele>565.0</ele><time>2026-04-25T13:41:42.062Z</time></trkpt><trkpt lat="42.484726" lon="-7.2748887"><ele>565.1666666666667</ele><time>2026-04-25T13:41:43.057Z</time></trkpt><trkpt lat="42.4847165" lon="-7.2749949"><ele>565.3333333333334</ele><time>2026-04-25T13:41:44.052Z</time></trkpt><trkpt lat="42.4847097" lon="-7.2751006"><ele>565.5</ele><time>2026-04-25T13:41:45.057Z</time></trkpt><trkpt lat="42.4847006" lon="-7.2752082"><ele>565.6666666666666</ele><time>2026-04-25T13:41:46.055Z</time></trkpt><trkpt lat="42.4846863" lon="-7.275311"><ele>565.8333333333333</ele><time>2026-04-25T13:41:47.056Z</time></trkpt><trkpt lat="42.4846731" lon="-7.2754158"><ele>566.0</ele><time>2026-04-25T13:41:48.054Z</time></trkpt><trkpt lat="42.4846612" lon="-7.2755198"><ele>566.0</ele><time>2026-04-25T13:41:49.053Z</time></trkpt><trkpt lat="42.484654" lon="-7.2756246"><ele>566.0</ele><time>2026-04-25T13:41:50.06Z</time></trkpt><trkpt lat="42.484641" lon="-7.2757348"><ele>566.0</ele><time>2026-04-25T13:41:51.055Z</time></trkpt><trkpt lat="42.4846266" lon="-7.2758421"><ele>566.0</ele><time>2026-04-25T13:41:52.058Z</time></trkpt><trkpt lat="42.4846065" lon="-7.2759487"><ele>566.0</ele><time>2026-04-25T13:41:53.06Z</time></trkpt><trkpt lat="42.4845827" lon="-7.2760503"><ele>566.0</ele><time>2026-04-25T13:41:54.055Z</time></trkpt><trkpt lat="42.4845506" lon="-7.2761676"><ele>560.5</ele><time>2026-04-25T13:41:55.058Z</time></trkpt><trkpt lat="42.4845125" lon="-7.2762589"><ele>555.0</ele><time>2026-04-25T13:41:56.06Z</time></trkpt><trkpt lat="42.4844787" lon="-7.2763452"><ele>549.5</ele><time>2026-04-25T13:41:57.072Z</time></trkpt><trkpt lat="42.4844455" lon="-7.2764191"><ele>544.0</ele><time>2026-04-25T13:41:58.059Z</time></trkpt><trkpt lat="42.4843923" lon="-7.2765194"><ele>538.5</ele><time>2026-04-25T13:42:00.063Z</time></trkpt><trkpt lat="42.4843584" lon="-7.2764368"><ele>533.0</ele><time>2026-04-25T13:42:14.061Z</time></trkpt><trkpt lat="42.4843622" lon="-7.276286"><ele>532.4285714285714</ele><time>2026-04-25T13:42:16.058Z</time></trkpt><trkpt lat="42.4843638" lon="-7.276195"><ele>531.8571428571428</ele><time>2026-04-25T13:42:17.071Z</time></trkpt><trkpt lat="42.4843637" lon="-7.2761057"><ele>531.2857142857142</ele><time>2026-04-25T13:42:18.069Z</time></trkpt><trkpt lat="42.4843625" lon="-7.2760201"><ele>530.7142857142857</ele><time>2026-04-25T13:42:19.07Z</time></trkpt><trkpt lat="42.4843567" lon="-7.2759169"><ele>530.1428571428571</ele><time>2026-04-25T13:42:20.051Z</time></trkpt><trkpt lat="42.4843447" lon="-7.2758087"><ele>529.5714285714286</ele><time>2026-04-25T13:42:21.057Z</time></trkpt><trkpt lat="42.4843289" lon="-7.2757033"><ele>529.0</ele><time>2026-04-25T13:42:22.058Z</time></trkpt><trkpt lat="42.4843158" lon="-7.2756091"><ele>528.2857142857143</ele><time>2026-04-25T13:42:23.05Z</time></trkpt><trkpt lat="42.4843005" lon="-7.2755217"><ele>527.5714285714286</ele><time>2026-04-25T13:42:24.067Z</time></trkpt><trkpt lat="42.4842831" lon="-7.2754394"><ele>526.8571428571429</ele><time>2026-04-25T13:42:25.052Z</time></trkpt><trkpt lat="42.4842627" lon="-7.2753368"><ele>526.1428571428571</ele><time>2026-04-25T13:42:26.048Z</time></trkpt><trkpt lat="42.484242" lon="-7.2752317"><ele>525.4285714285714</ele><time>2026-04-25T13:42:27.05Z</time></trkpt><trkpt lat="42.4842234" lon="-7.275134"><ele>524.7142857142858</ele><time>2026-04-25T13:42:28.052Z</time></trkpt><trkpt lat="42.4842038" lon="-7.2750298"><ele>524.0</ele><time>2026-04-25T13:42:29.06Z</time></trkpt><trkpt lat="42.4841898" lon="-7.2749325"><ele>524.8</ele><time>2026-04-25T13:42:30.053Z</time></trkpt><trkpt lat="42.4841631" lon="-7.2747652"><ele>525.5999999999999</ele><time>2026-04-25T13:42:32.052Z</time></trkpt><trkpt lat="42.4841416" lon="-7.2746417"><ele>526.4</ele><time>2026-04-25T13:42:33.05Z</time></trkpt><trkpt lat="42.4841125" lon="-7.2745063"><ele>527.1999999999999</ele><time>2026-04-25T13:42:34.054Z</time></trkpt><trkpt lat="42.4840868" lon="-7.2743802"><ele>528.0</ele><time>2026-04-25T13:42:35.05Z</time></trkpt><trkpt lat="42.4840602" lon="-7.2742557"><ele>528.0</ele><time>2026-04-25T13:42:36.05Z</time></trkpt><trkpt lat="42.4840254" lon="-7.2741383"><ele>528.0</ele><time>2026-04-25T13:42:37.056Z</time></trkpt><trkpt lat="42.4839951" lon="-7.2740345"><ele>528.0</ele><time>2026-04-25T13:42:38.054Z</time></trkpt><trkpt lat="42.4839703" lon="-7.2739269"><ele>528.0</ele><time>2026-04-25T13:42:39.054Z</time></trkpt><trkpt lat="42.483965" lon="-7.2738197"><ele>528.0</ele><time>2026-04-25T13:42:40.054Z</time></trkpt><trkpt lat="42.4839681" lon="-7.2737123"><ele>528.0</ele><time>2026-04-25T13:42:41.05Z</time></trkpt><trkpt lat="42.4839688" lon="-7.2736233"><ele>527.1666666666666</ele><time>2026-04-25T13:42:42.057Z</time></trkpt><trkpt lat="42.4839716" lon="-7.2735358"><ele>526.3333333333334</ele><time>2026-04-25T13:42:43.054Z</time></trkpt><trkpt lat="42.4839715" lon="-7.273395"><ele>525.5</ele><time>2026-04-25T13:42:45.056Z</time></trkpt><trkpt lat="42.4839828" lon="-7.27329"><ele>524.6666666666667</ele><time>2026-04-25T13:42:47.068Z</time></trkpt><trkpt lat="42.4840076" lon="-7.2731769"><ele>523.8333333333334</ele><time>2026-04-25T13:43:18.069Z</time></trkpt><trkpt lat="42.4839848" lon="-7.273284"><ele>523.0</ele><time>2026-04-25T13:43:34.093Z</time></trkpt><trkpt lat="42.4840461" lon="-7.273354"><ele>523.0</ele><time>2026-04-25T13:43:47.058Z</time></trkpt><trkpt lat="42.4841508" lon="-7.273392"><ele>523.0</ele><time>2026-04-25T13:43:49.058Z</time></trkpt><trkpt lat="42.4842206" lon="-7.2734151"><ele>523.0</ele><time>2026-04-25T13:43:50.067Z</time></trkpt><trkpt lat="42.484296" lon="-7.273422"><ele>523.0</ele><time>2026-04-25T13:43:51.055Z</time></trkpt><trkpt lat="42.4843836" lon="-7.2734142"><ele>523.0</ele><time>2026-04-25T13:43:52.051Z</time></trkpt><trkpt lat="42.4844642" lon="-7.2734109"><ele>523.0</ele><time>2026-04-25T13:43:53.053Z</time></trkpt><trkpt lat="42.4845336" lon="-7.2734042"><ele>529.1999999999999</ele><time>2026-04-25T13:43:54.053Z</time></trkpt><trkpt lat="42.4846259" lon="-7.2733783"><ele>535.4</ele><time>2026-04-25T13:43:56.048Z</time></trkpt><trkpt lat="42.4846942" lon="-7.2733001"><ele>541.5999999999999</ele><time>2026-04-25T13:43:58.049Z</time></trkpt><trkpt lat="42.4847518" lon="-7.2732369"><ele>547.8</ele><time>2026-04-25T13:44:00.063Z</time></trkpt><trkpt lat="42.4848644" lon="-7.2732"><ele>554.0</ele><time>2026-04-25T13:44:02.053Z</time></trkpt><trkpt lat="42.4849772" lon="-7.2732083"><ele>554.0</ele><time>2026-04-25T13:44:04.047Z</time></trkpt><trkpt lat="42.4850411" lon="-7.2732142"><ele>554.0</ele><time>2026-04-25T13:44:05.052Z</time></trkpt><trkpt lat="42.4851049" lon="-7.2732223"><ele>554.0</ele><time>2026-04-25T13:44:06.058Z</time></trkpt><trkpt lat="42.4851702" lon="-7.2732287"><ele>554.0</ele><time>2026-04-25T13:44:07.058Z</time></trkpt><trkpt lat="42.4852371" lon="-7.2732278"><ele>554.0</ele><time>2026-04-25T13:44:08.058Z</time></trkpt><trkpt lat="42.4853224" lon="-7.273208"><ele>554.0</ele><time>2026-04-25T13:44:10.055Z</time></trkpt><trkpt lat="42.485376" lon="-7.2731479"><ele>554.0</ele><time>2026-04-25T13:44:11.061Z</time></trkpt><trkpt lat="42.4854308" lon="-7.2730823"><ele>557.1666666666666</ele><time>2026-04-25T13:44:12.064Z</time></trkpt><trkpt lat="42.4854742" lon="-7.2730187"><ele>560.3333333333333</ele><time>2026-04-25T13:44:13.074Z</time></trkpt><trkpt lat="42.4855631" lon="-7.2728776"><ele>563.5</ele><time>2026-04-25T13:44:15.058Z</time></trkpt><trkpt lat="42.4856047" lon="-7.2727906"><ele>566.6666666666666</ele><time>2026-04-25T13:44:16.06Z</time></trkpt><trkpt lat="42.4856292" lon="-7.2727062"><ele>569.8333333333334</ele><time>2026-04-25T13:44:17.057Z</time></trkpt><trkpt lat="42.4856437" lon="-7.2726193"><ele>573.0</ele><time>2026-04-25T13:44:18.049Z</time></trkpt><trkpt lat="42.4856496" lon="-7.272452"><ele>573.0</ele><time>2026-04-25T13:44:20.055Z</time></trkpt><trkpt lat="42.4856347" lon="-7.2723556"><ele>573.0</ele><time>2026-04-25T13:44:21.057Z</time></trkpt><trkpt lat="42.4856179" lon="-7.2722664"><ele>573.0</ele><time>2026-04-25T13:44:22.054Z</time></trkpt><trkpt lat="42.4855878" lon="-7.2720977"><ele>573.0</ele><time>2026-04-25T13:44:24.054Z</time></trkpt><trkpt lat="42.4855782" lon="-7.2719946"><ele>573.0</ele><time>2026-04-25T13:44:25.052Z</time></trkpt><trkpt lat="42.4855675" lon="-7.2718832"><ele>573.0</ele><time>2026-04-25T13:44:26.06Z</time></trkpt><trkpt lat="42.4855522" lon="-7.2717695"><ele>572.0</ele><time>2026-04-25T13:44:27.055Z</time></trkpt><trkpt lat="42.4855371" lon="-7.2716577"><ele>571.0</ele><time>2026-04-25T13:44:28.064Z</time></trkpt><trkpt lat="42.4855242" lon="-7.2715301"><ele>570.0</ele><time>2026-04-25T13:44:29.056Z</time></trkpt><trkpt lat="42.4855117" lon="-7.2713857"><ele>569.0</ele><time>2026-04-25T13:44:30.05Z</time></trkpt><trkpt lat="42.4854977" lon="-7.2712403"><ele>568.0</ele><time>2026-04-25T13:44:31.059Z</time></trkpt><trkpt lat="42.485485" lon="-7.2711082"><ele>567.1999999999999</ele><time>2026-04-25T13:44:32.057Z</time></trkpt><trkpt lat="42.4854748" lon="-7.2709871"><ele>566.4</ele><time>2026-04-25T13:44:33.055Z</time></trkpt><trkpt lat="42.4854706" lon="-7.2708589"><ele>565.5999999999999</ele><time>2026-04-25T13:44:34.055Z</time></trkpt><trkpt lat="42.4854663" lon="-7.2707159"><ele>564.8</ele><time>2026-04-25T13:44:35.062Z</time></trkpt><trkpt lat="42.4854691" lon="-7.2705816"><ele>564.0</ele><time>2026-04-25T13:44:36.052Z</time></trkpt><trkpt lat="42.4854812" lon="-7.2704431"><ele>562.0</ele><time>2026-04-25T13:44:37.058Z</time></trkpt><trkpt lat="42.4854999" lon="-7.2702924"><ele>560.0</ele><time>2026-04-25T13:44:38.052Z</time></trkpt><trkpt lat="42.4855189" lon="-7.2701422"><ele>558.0</ele><time>2026-04-25T13:44:39.056Z</time></trkpt><trkpt lat="42.4855476" lon="-7.2700279"><ele>556.0</ele><time>2026-04-25T13:44:40.056Z</time></trkpt><trkpt lat="42.4855724" lon="-7.269938"><ele>554.0</ele><time>2026-04-25T13:44:41.055Z</time></trkpt><trkpt lat="42.4856021" lon="-7.2698075"><ele>549.0</ele><time>2026-04-25T13:44:43.061Z</time></trkpt><trkpt lat="42.4855875" lon="-7.2697112"><ele>544.0</ele><time>2026-04-25T13:44:45.057Z</time></trkpt><trkpt lat="42.4854818" lon="-7.2696877"><ele>539.0</ele><time>2026-04-25T13:44:47.053Z</time></trkpt><trkpt lat="42.4853973" lon="-7.2697482"><ele>534.0</ele><time>2026-04-25T13:44:48.057Z</time></trkpt><trkpt lat="42.4853084" lon="-7.2698489"><ele>529.0</ele><time>2026-04-25T13:44:49.056Z</time></trkpt><trkpt lat="42.4852286" lon="-7.2699508"><ele>529.0</ele><time>2026-04-25T13:44:50.054Z</time></trkpt><trkpt lat="42.4851561" lon="-7.2700443"><ele>529.0</ele><time>2026-04-25T13:44:51.061Z</time></trkpt><trkpt lat="42.4850874" lon="-7.2701325"><ele>529.0</ele><time>2026-04-25T13:44:52.069Z</time></trkpt><trkpt lat="42.4850262" lon="-7.2702285"><ele>529.0</ele><time>2026-04-25T13:44:53.052Z</time></trkpt><trkpt lat="42.4849795" lon="-7.2703282"><ele>529.0</ele><time>2026-04-25T13:44:54.053Z</time></trkpt><trkpt lat="42.4849242" lon="-7.2704244"><ele>529.0</ele><time>2026-04-25T13:44:55.051Z</time></trkpt><trkpt lat="42.4848813" lon="-7.2705531"><ele>529.0</ele><time>2026-04-25T13:44:56.054Z</time></trkpt><trkpt lat="42.4848392" lon="-7.2706937"><ele>529.0</ele><time>2026-04-25T13:44:57.06Z</time></trkpt><trkpt lat="42.4848057" lon="-7.2708287"><ele>529.0</ele><time>2026-04-25T13:44:58.06Z</time></trkpt><trkpt lat="42.4847798" lon="-7.2709579"><ele>529.0</ele><time>2026-04-25T13:44:59.055Z</time></trkpt><trkpt lat="42.4847551" lon="-7.2710838"><ele>529.6</ele><time>2026-04-25T13:45:00.053Z</time></trkpt><trkpt lat="42.4847415" lon="-7.2712085"><ele>530.2</ele><time>2026-04-25T13:45:01.054Z</time></trkpt><trkpt lat="42.4847259" lon="-7.2713445"><ele>530.8000000000001</ele><time>2026-04-25T13:45:02.057Z</time></trkpt><trkpt lat="42.4847199" lon="-7.2714844"><ele>531.4</ele><time>2026-04-25T13:45:03.053Z</time></trkpt><trkpt lat="42.4847191" lon="-7.2716174"><ele>532.0</ele><time>2026-04-25T13:45:04.054Z</time></trkpt><trkpt lat="42.4847244" lon="-7.2717374"><ele>532.0</ele><time>2026-04-25T13:45:05.053Z</time></trkpt><trkpt lat="42.4847348" lon="-7.271847"><ele>532.0</ele><time>2026-04-25T13:45:06.054Z</time></trkpt><trkpt lat="42.4847488" lon="-7.2719629"><ele>532.0</ele><time>2026-04-25T13:45:07.048Z</time></trkpt><trkpt lat="42.4847668" lon="-7.2720682"><ele>532.0</ele><time>2026-04-25T13:45:08.053Z</time></trkpt><trkpt lat="42.4847851" lon="-7.2721613"><ele>532.0</ele><time>2026-04-25T13:45:09.057Z</time></trkpt><trkpt lat="42.4848008" lon="-7.272245"><ele>532.0</ele><time>2026-04-25T13:45:10.065Z</time></trkpt><trkpt lat="42.4847897" lon="-7.2723609"><ele>532.0</ele><time>2026-04-25T13:45:12.052Z</time></trkpt><trkpt lat="42.4847199" lon="-7.2723565"><ele>532.0</ele><time>2026-04-25T13:45:14.054Z</time></trkpt><trkpt lat="42.4846277" lon="-7.2722276"><ele>532.0</ele><time>2026-04-25T13:45:16.051Z</time></trkpt><trkpt lat="42.4845852" lon="-7.2721389"><ele>532.0</ele><time>2026-04-25T13:45:17.057Z</time></trkpt><trkpt lat="42.4845332" lon="-7.272024"><ele>532.0</ele><time>2026-04-25T13:45:18.06Z</time></trkpt><trkpt lat="42.4844925" lon="-7.2719069"><ele>524.6</ele><time>2026-04-25T13:45:19.06Z</time></trkpt><trkpt lat="42.484451" lon="-7.2717787"><ele>517.2</ele><time>2026-04-25T13:45:20.053Z</time></trkpt><trkpt lat="42.4844105" lon="-7.2716412"><ele>509.8</ele><time>2026-04-25T13:45:21.051Z</time></trkpt><trkpt lat="42.4843755" lon="-7.2715119"><ele>502.4</ele><time>2026-04-25T13:45:22.059Z</time></trkpt><trkpt lat="42.4843419" lon="-7.2713938"><ele>495.0</ele><time>2026-04-25T13:45:23.055Z</time></trkpt><trkpt lat="42.4843153" lon="-7.2712879"><ele>495.0</ele><time>2026-04-25T13:45:24.049Z</time></trkpt><trkpt lat="42.4842903" lon="-7.2711773"><ele>495.0</ele><time>2026-04-25T13:45:25.054Z</time></trkpt><trkpt lat="42.4842642" lon="-7.2710505"><ele>495.0</ele><time>2026-04-25T13:45:26.054Z</time></trkpt><trkpt lat="42.4842449" lon="-7.2709328"><ele>495.0</ele><time>2026-04-25T13:45:27.058Z</time></trkpt><trkpt lat="42.4842302" lon="-7.2708184"><ele>495.0</ele><time>2026-04-25T13:45:28.058Z</time></trkpt><trkpt lat="42.4842166" lon="-7.2706901"><ele>494.8</ele><time>2026-04-25T13:45:29.059Z</time></trkpt><trkpt lat="42.484203" lon="-7.2705616"><ele>494.6</ele><time>2026-04-25T13:45:30.051Z</time></trkpt><trkpt lat="42.4841912" lon="-7.2704285"><ele>494.4</ele><time>2026-04-25T13:45:31.056Z</time></trkpt><trkpt lat="42.4841783" lon="-7.2703024"><ele>494.2</ele><time>2026-04-25T13:45:32.062Z</time></trkpt><trkpt lat="42.4841656" lon="-7.270188"><ele>494.0</ele><time>2026-04-25T13:45:33.057Z</time></trkpt><trkpt lat="42.4841542" lon="-7.270078"><ele>493.99999999999994</ele><time>2026-04-25T13:45:34.049Z</time></trkpt><trkpt lat="42.4841467" lon="-7.2699791"><ele>494.0</ele><time>2026-04-25T13:45:35.058Z</time></trkpt><trkpt lat="42.48414" lon="-7.2698805"><ele>494.0</ele><time>2026-04-25T13:45:36.058Z</time></trkpt><trkpt lat="42.4841442" lon="-7.2697723"><ele>494.0</ele><time>2026-04-25T13:45:37.057Z</time></trkpt><trkpt lat="42.4841545" lon="-7.2696661"><ele>493.99999999999994</ele><time>2026-04-25T13:45:38.054Z</time></trkpt><trkpt lat="42.4841751" lon="-7.2695438"><ele>494.0</ele><time>2026-04-25T13:45:39.066Z</time></trkpt><trkpt lat="42.4842026" lon="-7.2694326"><ele>492.66666666666663</ele><time>2026-04-25T13:45:40.057Z</time></trkpt><trkpt lat="42.4842285" lon="-7.269332"><ele>491.3333333333333</ele><time>2026-04-25T13:45:41.053Z</time></trkpt><trkpt lat="42.4842527" lon="-7.2692296"><ele>490.0</ele><time>2026-04-25T13:45:42.05Z</time></trkpt><trkpt lat="42.4842755" lon="-7.2691305"><ele>488.66666666666663</ele><time>2026-04-25T13:45:43.053Z</time></trkpt><trkpt lat="42.4842929" lon="-7.2690477"><ele>487.3333333333333</ele><time>2026-04-25T13:45:44.051Z</time></trkpt><trkpt lat="42.4843238" lon="-7.2689112"><ele>486.0</ele><time>2026-04-25T13:45:46.059Z</time></trkpt><trkpt lat="42.4843145" lon="-7.2687988"><ele>486.0</ele><time>2026-04-25T13:45:48.054Z</time></trkpt><trkpt lat="42.4842693" lon="-7.2687386"><ele>486.0</ele><time>2026-04-25T13:45:50.063Z</time></trkpt><trkpt lat="42.4841912" lon="-7.2687699"><ele>486.0</ele><time>2026-04-25T13:45:52.067Z</time></trkpt><trkpt lat="42.4840884" lon="-7.2688833"><ele>486.0</ele><time>2026-04-25T13:45:54.071Z</time></trkpt><trkpt lat="42.4840326" lon="-7.2689508"><ele>486.0</ele><time>2026-04-25T13:45:55.056Z</time></trkpt><trkpt lat="42.4839767" lon="-7.2690246"><ele>486.0</ele><time>2026-04-25T13:45:56.067Z</time></trkpt><trkpt lat="42.4839221" lon="-7.2690991"><ele>486.0</ele><time>2026-04-25T13:45:57.06Z</time></trkpt><trkpt lat="42.4838673" lon="-7.2691752"><ele>486.0</ele><time>2026-04-25T13:45:58.061Z</time></trkpt><trkpt lat="42.4838115" lon="-7.2692553"><ele>486.0</ele><time>2026-04-25T13:45:59.059Z</time></trkpt><trkpt lat="42.4837543" lon="-7.269334"><ele>486.0</ele><time>2026-04-25T13:46:00.065Z</time></trkpt><trkpt lat="42.4837028" lon="-7.2694172"><ele>486.0</ele><time>2026-04-25T13:46:01.07Z</time></trkpt><trkpt lat="42.483655" lon="-7.2695078"><ele>486.0</ele><time>2026-04-25T13:46:02.058Z</time></trkpt><trkpt lat="42.483624" lon="-7.2696144"><ele>479.8333333333333</ele><time>2026-04-25T13:46:03.058Z</time></trkpt><trkpt lat="42.483591" lon="-7.2697213"><ele>473.66666666666663</ele><time>2026-04-25T13:46:04.064Z</time></trkpt><trkpt lat="42.4835577" lon="-7.2698309"><ele>467.5</ele><time>2026-04-25T13:46:05.063Z</time></trkpt><trkpt lat="42.4835219" lon="-7.2699428"><ele>461.3333333333333</ele><time>2026-04-25T13:46:06.057Z</time></trkpt><trkpt lat="42.4834874" lon="-7.2700494"><ele>455.16666666666663</ele><time>2026-04-25T13:46:07.067Z</time></trkpt><trkpt lat="42.483449" lon="-7.270151"><ele>449.0</ele><time>2026-04-25T13:46:08.068Z</time></trkpt><trkpt lat="42.4834104" lon="-7.2702573"><ele>449.0</ele><time>2026-04-25T13:46:09.077Z</time></trkpt><trkpt lat="42.4833711" lon="-7.2703597"><ele>448.99999999999994</ele><time>2026-04-25T13:46:10.06Z</time></trkpt><trkpt lat="42.4833337" lon="-7.2704517"><ele>449.0</ele><time>2026-04-25T13:46:11.062Z</time></trkpt><trkpt lat="42.4832985" lon="-7.2705409"><ele>449.0</ele><time>2026-04-25T13:46:12.06Z</time></trkpt><trkpt lat="42.4832662" lon="-7.2706202"><ele>448.99999999999994</ele><time>2026-04-25T13:46:13.058Z</time></trkpt><trkpt lat="42.4832338" lon="-7.2706978"><ele>449.0</ele><time>2026-04-25T13:46:14.056Z</time></trkpt><trkpt lat="42.4832021" lon="-7.2707732"><ele>449.0</ele><time>2026-04-25T13:46:15.059Z</time></trkpt><trkpt lat="42.4831442" lon="-7.2708515"><ele>449.0</ele><time>2026-04-25T13:46:17.056Z</time></trkpt><trkpt lat="42.483084" lon="-7.2707978"><ele>449.0</ele><time>2026-04-25T13:46:19.073Z</time></trkpt><trkpt lat="42.4830386" lon="-7.2706738"><ele>449.0</ele><time>2026-04-25T13:46:21.071Z</time></trkpt><trkpt lat="42.4830246" lon="-7.2705198"><ele>449.0</ele><time>2026-04-25T13:46:23.056Z</time></trkpt><trkpt lat="42.4830158" lon="-7.2703835"><ele>449.0</ele><time>2026-04-25T13:46:25.058Z</time></trkpt><trkpt lat="42.4830072" lon="-7.2702596"><ele>448.99999999999994</ele><time>2026-04-25T13:46:27.054Z</time></trkpt><trkpt lat="42.483003" lon="-7.270135"><ele>449.0</ele><time>2026-04-25T13:46:29.059Z</time></trkpt><trkpt lat="42.4829878" lon="-7.270003"><ele>449.0</ele><time>2026-04-25T13:46:31.059Z</time></trkpt><trkpt lat="42.482968" lon="-7.2698925"><ele>449.0</ele><time>2026-04-25T13:46:33.055Z</time></trkpt><trkpt lat="42.4829534" lon="-7.2697986"><ele>448.99999999999994</ele><time>2026-04-25T13:46:35.063Z</time></trkpt><trkpt lat="42.4829221" lon="-7.2696763"><ele>449.0</ele><time>2026-04-25T13:46:37.065Z</time></trkpt><trkpt lat="42.4828877" lon="-7.2695532"><ele>441.8333333333333</ele><time>2026-04-25T13:46:39.051Z</time></trkpt><trkpt lat="42.4828453" lon="-7.2694185"><ele>434.66666666666663</ele><time>2026-04-25T13:46:41.052Z</time></trkpt><trkpt lat="42.4827865" lon="-7.2692699"><ele>427.5</ele><time>2026-04-25T13:46:43.053Z</time></trkpt><trkpt lat="42.482752" lon="-7.2691944"><ele>420.33333333333337</ele><time>2026-04-25T13:46:44.059Z</time></trkpt><trkpt lat="42.4827157" lon="-7.2691152"><ele>413.1666666666667</ele><time>2026-04-25T13:46:45.059Z</time></trkpt><trkpt lat="42.4826788" lon="-7.2690326"><ele>406.0</ele><time>2026-04-25T13:46:46.057Z</time></trkpt><trkpt lat="42.4826429" lon="-7.2689474"><ele>405.33333333333337</ele><time>2026-04-25T13:46:47.056Z</time></trkpt><trkpt lat="42.4826086" lon="-7.2688679"><ele>404.6666666666667</ele><time>2026-04-25T13:46:48.05Z</time></trkpt><trkpt lat="42.4825759" lon="-7.2687852"><ele>404.0</ele><time>2026-04-25T13:46:49.056Z</time></trkpt><trkpt lat="42.4825504" lon="-7.2687062"><ele>403.33333333333337</ele><time>2026-04-25T13:46:50.056Z</time></trkpt><trkpt lat="42.4825257" lon="-7.268627"><ele>402.6666666666667</ele><time>2026-04-25T13:46:51.055Z</time></trkpt><trkpt lat="42.4824883" lon="-7.2685006"><ele>402.0</ele><time>2026-04-25T13:46:53.059Z</time></trkpt><trkpt lat="42.4824624" lon="-7.2683885"><ele>402.0</ele><time>2026-04-25T13:46:55.062Z</time></trkpt><trkpt lat="42.4824405" lon="-7.2682844"><ele>402.0</ele><time>2026-04-25T13:46:57.073Z</time></trkpt><trkpt lat="42.4824117" lon="-7.2681963"><ele>402.0</ele><time>2026-04-25T13:46:59.073Z</time></trkpt><trkpt lat="42.4823486" lon="-7.2681688"><ele>402.0</ele><time>2026-04-25T13:47:04.052Z</time></trkpt><trkpt lat="42.4823581" lon="-7.2682561"><ele>402.0</ele><time>2026-04-25T13:47:08.06Z</time></trkpt><trkpt lat="42.4823818" lon="-7.2684529"><ele>402.0</ele><time>2026-04-25T13:47:10.051Z</time></trkpt><trkpt lat="42.4823956" lon="-7.2686122"><ele>402.0</ele><time>2026-04-25T13:47:11.063Z</time></trkpt><trkpt lat="42.4824129" lon="-7.2687909"><ele>402.0</ele><time>2026-04-25T13:47:12.067Z</time></trkpt><trkpt lat="42.4824407" lon="-7.2689716"><ele>402.0</ele><time>2026-04-25T13:47:13.056Z</time></trkpt><trkpt lat="42.4824791" lon="-7.2691617"><ele>402.0</ele><time>2026-04-25T13:47:14.061Z</time></trkpt><trkpt lat="42.482528" lon="-7.2693574"><ele>402.8</ele><time>2026-04-25T13:47:15.072Z</time></trkpt><trkpt lat="42.4825694" lon="-7.2695355"><ele>403.6</ele><time>2026-04-25T13:47:16.064Z</time></trkpt><trkpt lat="42.482591" lon="-7.2696817"><ele>404.40000000000003</ele><time>2026-04-25T13:47:17.057Z</time></trkpt><trkpt lat="42.4825933" lon="-7.2697939"><ele>405.20000000000005</ele><time>2026-04-25T13:47:18.062Z</time></trkpt><trkpt lat="42.4825605" lon="-7.2699403"><ele>406.0</ele><time>2026-04-25T13:47:20.06Z</time></trkpt><trkpt lat="42.482452" lon="-7.269958"><ele>404.75</ele><time>2026-04-25T13:47:22.059Z</time></trkpt><trkpt lat="42.4823708" lon="-7.2699399"><ele>403.5</ele><time>2026-04-25T13:47:23.051Z</time></trkpt><trkpt lat="42.4822549" lon="-7.2698933"><ele>402.25</ele><time>2026-04-25T13:47:24.072Z</time></trkpt><trkpt lat="42.4821307" lon="-7.2698454"><ele>401.0</ele><time>2026-04-25T13:47:25.055Z</time></trkpt><trkpt lat="42.4820091" lon="-7.2698055"><ele>400.99999999999994</ele><time>2026-04-25T13:47:26.052Z</time></trkpt><trkpt lat="42.4819063" lon="-7.2697846"><ele>401.0</ele><time>2026-04-25T13:47:27.061Z</time></trkpt><trkpt lat="42.4818285" lon="-7.2697847"><ele>401.0</ele><time>2026-04-25T13:47:28.061Z</time></trkpt><trkpt lat="42.4817443" lon="-7.2698684"><ele>401.0</ele><time>2026-04-25T13:47:30.058Z</time></trkpt><trkpt lat="42.4817277" lon="-7.2699552"><ele>400.99999999999994</ele><time>2026-04-25T13:47:31.057Z</time></trkpt><trkpt lat="42.4817094" lon="-7.2700681"><ele>401.0</ele><time>2026-04-25T13:47:32.054Z</time></trkpt><trkpt lat="42.4817088" lon="-7.270224"><ele>401.0</ele><time>2026-04-25T13:47:33.061Z</time></trkpt><trkpt lat="42.4817097" lon="-7.2703857"><ele>401.0</ele><time>2026-04-25T13:47:34.062Z</time></trkpt><trkpt lat="42.4817081" lon="-7.2705621"><ele>401.0</ele><time>2026-04-25T13:47:35.053Z</time></trkpt><trkpt lat="42.4817044" lon="-7.2707327"><ele>401.0</ele><time>2026-04-25T13:47:36.05Z</time></trkpt><trkpt lat="42.4817011" lon="-7.2708965"><ele>402.25</ele><time>2026-04-25T13:47:37.053Z</time></trkpt><trkpt lat="42.481703" lon="-7.2710628"><ele>403.5</ele><time>2026-04-25T13:47:38.059Z</time></trkpt><trkpt lat="42.4816948" lon="-7.27125"><ele>404.75</ele><time>2026-04-25T13:47:39.069Z</time></trkpt><trkpt lat="42.4816738" lon="-7.2714219"><ele>406.0</ele><time>2026-04-25T13:47:40.06Z</time></trkpt><trkpt lat="42.4816529" lon="-7.271576"><ele>409.5</ele><time>2026-04-25T13:47:41.064Z</time></trkpt><trkpt lat="42.4816309" lon="-7.2717161"><ele>413.0</ele><time>2026-04-25T13:47:42.049Z</time></trkpt><trkpt lat="42.4816056" lon="-7.2718633"><ele>416.5</ele><time>2026-04-25T13:47:43.061Z</time></trkpt><trkpt lat="42.4815803" lon="-7.2720272"><ele>420.0</ele><time>2026-04-25T13:47:44.065Z</time></trkpt><trkpt lat="42.4815525" lon="-7.272195"><ele>420.75</ele><time>2026-04-25T13:47:45.058Z</time></trkpt><trkpt lat="42.4815444" lon="-7.2723537"><ele>421.5</ele><time>2026-04-25T13:47:46.062Z</time></trkpt><trkpt lat="42.4815546" lon="-7.2725108"><ele>422.25</ele><time>2026-04-25T13:47:47.089Z</time></trkpt><trkpt lat="42.4815827" lon="-7.2726655"><ele>423.0</ele><time>2026-04-25T13:47:48.054Z</time></trkpt><trkpt lat="42.4816249" lon="-7.2727986"><ele>423.0</ele><time>2026-04-25T13:47:49.059Z</time></trkpt><trkpt lat="42.4816798" lon="-7.2729158"><ele>423.0</ele><time>2026-04-25T13:47:50.059Z</time></trkpt><trkpt lat="42.4817434" lon="-7.2730185"><ele>423.0</ele><time>2026-04-25T13:47:51.057Z</time></trkpt><trkpt lat="42.4817897" lon="-7.2731115"><ele>423.0</ele><time>2026-04-25T13:47:52.062Z</time></trkpt><trkpt lat="42.4818096" lon="-7.2732044"><ele>423.0</ele><time>2026-04-25T13:47:53.052Z</time></trkpt><trkpt lat="42.4818007" lon="-7.2732954"><ele>423.0</ele><time>2026-04-25T13:47:54.068Z</time></trkpt><trkpt lat="42.4817661" lon="-7.2733726"><ele>423.3333333333333</ele><time>2026-04-25T13:47:55.061Z</time></trkpt><trkpt lat="42.4816905" lon="-7.2734721"><ele>423.66666666666663</ele><time>2026-04-25T13:47:57.064Z</time></trkpt><trkpt lat="42.4816447" lon="-7.2735356"><ele>424.0</ele><time>2026-04-25T13:47:59.058Z</time></trkpt><trkpt lat="42.4815887" lon="-7.2736207"><ele>424.3333333333333</ele><time>2026-04-25T13:48:01.06Z</time></trkpt><trkpt lat="42.4815422" lon="-7.2736953"><ele>424.66666666666663</ele><time>2026-04-25T13:48:02.058Z</time></trkpt><trkpt lat="42.4814955" lon="-7.2737792"><ele>425.0</ele><time>2026-04-25T13:48:03.056Z</time></trkpt><trkpt lat="42.4814486" lon="-7.2738707"><ele>425.6</ele><time>2026-04-25T13:48:04.067Z</time></trkpt><trkpt lat="42.4814023" lon="-7.2739712"><ele>426.2</ele><time>2026-04-25T13:48:05.061Z</time></trkpt><trkpt lat="42.481358" lon="-7.2740795"><ele>426.79999999999995</ele><time>2026-04-25T13:48:06.057Z</time></trkpt><trkpt lat="42.4813173" lon="-7.274199"><ele>427.4</ele><time>2026-04-25T13:48:07.056Z</time></trkpt><trkpt lat="42.4812863" lon="-7.2743314"><ele>428.0</ele><time>2026-04-25T13:48:08.057Z</time></trkpt><trkpt lat="42.4812722" lon="-7.2744724"><ele>428.0</ele><time>2026-04-25T13:48:09.061Z</time></trkpt><trkpt lat="42.4812737" lon="-7.2746154"><ele>427.99999999999994</ele><time>2026-04-25T13:48:10.057Z</time></trkpt><trkpt lat="42.4812865" lon="-7.2747451"><ele>427.99999999999994</ele><time>2026-04-25T13:48:11.061Z</time></trkpt><trkpt lat="42.4812996" lon="-7.2748579"><ele>428.0</ele><time>2026-04-25T13:48:12.057Z</time></trkpt><trkpt lat="42.4813093" lon="-7.2749472"><ele>428.0</ele><time>2026-04-25T13:48:13.063Z</time></trkpt><trkpt lat="42.4812805" lon="-7.2750939"><ele>420.2</ele><time>2026-04-25T13:48:15.061Z</time></trkpt><trkpt lat="42.4812291" lon="-7.2751512"><ele>412.4</ele><time>2026-04-25T13:48:16.05Z</time></trkpt><trkpt lat="42.4811385" lon="-7.2752054"><ele>404.59999999999997</ele><time>2026-04-25T13:48:17.059Z</time></trkpt><trkpt lat="42.4810331" lon="-7.2752755"><ele>396.79999999999995</ele><time>2026-04-25T13:48:18.059Z</time></trkpt><trkpt lat="42.4809273" lon="-7.2753353"><ele>389.0</ele><time>2026-04-25T13:48:19.053Z</time></trkpt><trkpt lat="42.4808303" lon="-7.2753896"><ele>388.99999999999994</ele><time>2026-04-25T13:48:20.062Z</time></trkpt><trkpt lat="42.480743" lon="-7.2754323"><ele>389.0</ele><time>2026-04-25T13:48:21.058Z</time></trkpt><trkpt lat="42.4806619" lon="-7.2754751"><ele>389.0</ele><time>2026-04-25T13:48:22.054Z</time></trkpt><trkpt lat="42.4805851" lon="-7.2755225"><ele>389.0</ele><time>2026-04-25T13:48:23.052Z</time></trkpt><trkpt lat="42.4805137" lon="-7.2755713"><ele>388.99999999999994</ele><time>2026-04-25T13:48:24.066Z</time></trkpt><trkpt lat="42.4804415" lon="-7.275625"><ele>389.0</ele><time>2026-04-25T13:48:25.058Z</time></trkpt><trkpt lat="42.4803716" lon="-7.2756704"><ele>386.66666666666663</ele><time>2026-04-25T13:48:26.053Z</time></trkpt><trkpt lat="42.4803004" lon="-7.2757248"><ele>384.3333333333333</ele><time>2026-04-25T13:48:27.06Z</time></trkpt><trkpt lat="42.480229" lon="-7.275793"><ele>382.0</ele><time>2026-04-25T13:48:28.068Z</time></trkpt><trkpt lat="42.4801675" lon="-7.2758679"><ele>379.66666666666663</ele><time>2026-04-25T13:48:29.057Z</time></trkpt><trkpt lat="42.4801207" lon="-7.2759365"><ele>377.3333333333333</ele><time>2026-04-25T13:48:30.051Z</time></trkpt><trkpt lat="42.480049" lon="-7.2760531"><ele>375.0</ele><time>2026-04-25T13:48:32.054Z</time></trkpt><trkpt lat="42.4799894" lon="-7.2760873"><ele>375.0</ele><time>2026-04-25T13:48:34.056Z</time></trkpt><trkpt lat="42.4799384" lon="-7.275993"><ele>375.0</ele><time>2026-04-25T13:48:36.053Z</time></trkpt><trkpt lat="42.4799193" lon="-7.2759068"><ele>375.0</ele><time>2026-04-25T13:48:37.058Z</time></trkpt><trkpt lat="42.4799063" lon="-7.275804"><ele>375.0</ele><time>2026-04-25T13:48:38.061Z</time></trkpt><trkpt lat="42.4798998" lon="-7.2757004"><ele>375.0</ele><time>2026-04-25T13:48:39.053Z</time></trkpt><trkpt lat="42.4798968" lon="-7.2755972"><ele>375.0</ele><time>2026-04-25T13:48:40.06Z</time></trkpt><trkpt lat="42.479893" lon="-7.2754957"><ele>373.3333333333333</ele><time>2026-04-25T13:48:41.05Z</time></trkpt><trkpt lat="42.4799" lon="-7.2753893"><ele>371.6666666666667</ele><time>2026-04-25T13:48:42.062Z</time></trkpt><trkpt lat="42.4799069" lon="-7.2752767"><ele>370.0</ele><time>2026-04-25T13:48:43.058Z</time></trkpt><trkpt lat="42.4799185" lon="-7.2751671"><ele>368.33333333333337</ele><time>2026-04-25T13:48:44.052Z</time></trkpt><trkpt lat="42.4799324" lon="-7.2750622"><ele>366.6666666666667</ele><time>2026-04-25T13:48:45.058Z</time></trkpt><trkpt lat="42.4799475" lon="-7.2749634"><ele>365.0</ele><time>2026-04-25T13:48:46.054Z</time></trkpt><trkpt lat="42.4799642" lon="-7.2748142"><ele>365.0</ele><time>2026-04-25T13:48:48.05Z</time></trkpt><trkpt lat="42.479881" lon="-7.2747479"><ele>365.0</ele><time>2026-04-25T13:48:51.056Z</time></trkpt><trkpt lat="42.4797615" lon="-7.2747703"><ele>365.0</ele><time>2026-04-25T13:48:53.055Z</time></trkpt><trkpt lat="42.4796957" lon="-7.2747992"><ele>365.0</ele><time>2026-04-25T13:48:54.046Z</time></trkpt><trkpt lat="42.479628" lon="-7.2748312"><ele>365.0</ele><time>2026-04-25T13:48:55.066Z</time></trkpt><trkpt lat="42.4795694" lon="-7.274884"><ele>365.0</ele><time>2026-04-25T13:48:56.062Z</time></trkpt><trkpt lat="42.479513" lon="-7.2749356"><ele>360.8</ele><time>2026-04-25T13:48:57.055Z</time></trkpt><trkpt lat="42.4794221" lon="-7.275025"><ele>356.6</ele><time>2026-04-25T13:48:59.059Z</time></trkpt><trkpt lat="42.4793337" lon="-7.2750472"><ele>352.4</ele><time>2026-04-25T13:49:01.057Z</time></trkpt><trkpt lat="42.479233" lon="-7.2749836"><ele>348.2</ele><time>2026-04-25T13:49:03.072Z</time></trkpt><trkpt lat="42.4791789" lon="-7.274924"><ele>344.0</ele><time>2026-04-25T13:49:04.056Z</time></trkpt><trkpt lat="42.4791363" lon="-7.2748452"><ele>341.33333333333337</ele><time>2026-04-25T13:49:05.064Z</time></trkpt><trkpt lat="42.4791127" lon="-7.2747541"><ele>338.6666666666667</ele><time>2026-04-25T13:49:06.062Z</time></trkpt><trkpt lat="42.4791059" lon="-7.2746575"><ele>336.0</ele><time>2026-04-25T13:49:07.057Z</time></trkpt><trkpt lat="42.4791156" lon="-7.2745592"><ele>333.3333333333333</ele><time>2026-04-25T13:49:08.073Z</time></trkpt><trkpt lat="42.4791423" lon="-7.2744562"><ele>330.66666666666663</ele><time>2026-04-25T13:49:09.056Z</time></trkpt><trkpt lat="42.4791706" lon="-7.2743483"><ele>328.0</ele><time>2026-04-25T13:49:10.058Z</time></trkpt><trkpt lat="42.4791997" lon="-7.2742339"><ele>328.0</ele><time>2026-04-25T13:49:11.061Z</time></trkpt><trkpt lat="42.4792287" lon="-7.2741165"><ele>328.0</ele><time>2026-04-25T13:49:12.06Z</time></trkpt><trkpt lat="42.4792582" lon="-7.2740019"><ele>328.0</ele><time>2026-04-25T13:49:13.056Z</time></trkpt><trkpt lat="42.479281" lon="-7.2739093"><ele>328.0</ele><time>2026-04-25T13:49:14.072Z</time></trkpt><trkpt lat="42.4792967" lon="-7.2738234"><ele>328.0</ele><time>2026-04-25T13:49:15.075Z</time></trkpt><trkpt lat="42.4792701" lon="-7.2736636"><ele>328.0</ele><time>2026-04-25T13:49:17.065Z</time></trkpt><trkpt lat="42.4792195" lon="-7.2736092"><ele>326.3333333333333</ele><time>2026-04-25T13:49:18.067Z</time></trkpt><trkpt lat="42.4791529" lon="-7.2735882"><ele>324.66666666666663</ele><time>2026-04-25T13:49:19.058Z</time></trkpt><trkpt lat="42.4790767" lon="-7.273595"><ele>323.0</ele><time>2026-04-25T13:49:20.065Z</time></trkpt><trkpt lat="42.4789989" lon="-7.2736047"><ele>321.3333333333333</ele><time>2026-04-25T13:49:21.069Z</time></trkpt><trkpt lat="42.4789289" lon="-7.2736542"><ele>319.6666666666667</ele><time>2026-04-25T13:49:22.057Z</time></trkpt><trkpt lat="42.4788739" lon="-7.2736989"><ele>318.0</ele><time>2026-04-25T13:49:23.071Z</time></trkpt><trkpt lat="42.4787793" lon="-7.2737713"><ele>314.6666666666667</ele><time>2026-04-25T13:49:25.054Z</time></trkpt><trkpt lat="42.478696" lon="-7.2737563"><ele>311.3333333333333</ele><time>2026-04-25T13:49:27.063Z</time></trkpt><trkpt lat="42.4786149" lon="-7.2736942"><ele>308.0</ele><time>2026-04-25T13:49:33.061Z</time></trkpt><trkpt lat="42.4785427" lon="-7.2736198"><ele>304.66666666666663</ele><time>2026-04-25T13:49:35.053Z</time></trkpt><trkpt lat="42.4784732" lon="-7.2735599"><ele>301.3333333333333</ele><time>2026-04-25T13:49:37.063Z</time></trkpt><trkpt lat="42.4783985" lon="-7.2734974"><ele>298.0</ele><time>2026-04-25T13:49:39.06Z</time></trkpt><trkpt lat="42.478291" lon="-7.2734113"><ele>298.0</ele><time>2026-04-25T13:49:41.069Z</time></trkpt><trkpt lat="42.478186" lon="-7.2733094"><ele>298.0</ele><time>2026-04-25T13:49:43.058Z</time></trkpt><trkpt lat="42.4781279" lon="-7.2732421"><ele>298.0</ele><time>2026-04-25T13:49:44.062Z</time></trkpt><trkpt lat="42.478064" lon="-7.2731653"><ele>298.0</ele><time>2026-04-25T13:49:45.064Z</time></trkpt><trkpt lat="42.4779943" lon="-7.273093"><ele>298.0</ele><time>2026-04-25T13:49:46.063Z</time></trkpt><trkpt lat="42.4779314" lon="-7.2730224"><ele>295.3333333333333</ele><time>2026-04-25T13:49:47.078Z</time></trkpt><trkpt lat="42.4778657" lon="-7.2729756"><ele>292.66666666666663</ele><time>2026-04-25T13:49:48.071Z</time></trkpt><trkpt lat="42.4778042" lon="-7.2729399"><ele>290.0</ele><time>2026-04-25T13:49:49.062Z</time></trkpt><trkpt lat="42.477691" lon="-7.2728749"><ele>287.3333333333333</ele><time>2026-04-25T13:49:51.058Z</time></trkpt><trkpt lat="42.4776326" lon="-7.2728391"><ele>284.6666666666667</ele><time>2026-04-25T13:49:52.066Z</time></trkpt><trkpt lat="42.4775297" lon="-7.2727981"><ele>282.0</ele><time>2026-04-25T13:49:54.06Z</time></trkpt><trkpt lat="42.4774266" lon="-7.2727851"><ele>282.0</ele><time>2026-04-25T13:49:56.059Z</time></trkpt><trkpt lat="42.4773229" lon="-7.2727755"><ele>282.0</ele><time>2026-04-25T13:49:58.059Z</time></trkpt><trkpt lat="42.477216" lon="-7.2727586"><ele>282.0</ele><time>2026-04-25T13:50:00.049Z</time></trkpt><trkpt lat="42.4771172" lon="-7.2727495"><ele>282.0</ele><time>2026-04-25T13:50:02.051Z</time></trkpt><trkpt lat="42.4770361" lon="-7.2727733"><ele>282.0</ele><time>2026-04-25T13:50:04.059Z</time></trkpt><trkpt lat="42.4769607" lon="-7.2727677"><ele>280.8333333333333</ele><time>2026-04-25T13:50:06.052Z</time></trkpt><trkpt lat="42.4769002" lon="-7.2727399"><ele>279.6666666666667</ele><time>2026-04-25T13:50:08.06Z</time></trkpt><trkpt lat="42.4768485" lon="-7.2726724"><ele>278.5</ele><time>2026-04-25T13:50:13.054Z</time></trkpt><trkpt lat="42.4768554" lon="-7.2725648"><ele>277.33333333333337</ele><time>2026-04-25T13:50:35.073Z</time></trkpt><trkpt lat="42.4768783" lon="-7.2724766"><ele>276.1666666666667</ele><time>2026-04-25T13:50:37.058Z</time></trkpt><trkpt lat="42.4769124" lon="-7.2723764"><ele>275.0</ele><time>2026-04-25T13:50:39.058Z</time></trkpt><trkpt lat="42.4769504" lon="-7.272256"><ele>275.0</ele><time>2026-04-25T13:50:41.052Z</time></trkpt><trkpt lat="42.4769866" lon="-7.272139"><ele>275.0</ele><time>2026-04-25T13:50:43.091Z</time></trkpt><trkpt lat="42.4770121" lon="-7.2720103"><ele>275.0</ele><time>2026-04-25T13:50:45.06Z</time></trkpt><trkpt lat="42.4770341" lon="-7.271897"><ele>275.0</ele><time>2026-04-25T13:50:47.054Z</time></trkpt><trkpt lat="42.4770609" lon="-7.2717808"><ele>275.0</ele><time>2026-04-25T13:50:49.052Z</time></trkpt><trkpt lat="42.477085" lon="-7.2716637"><ele>275.0</ele><time>2026-04-25T13:50:52.055Z</time></trkpt><trkpt lat="42.4771197" lon="-7.2715704"><ele>279.0</ele><time>2026-04-25T13:51:14.06Z</time></trkpt><trkpt lat="42.4771287" lon="-7.271658"><ele>279.0</ele><time>2026-04-25T13:51:18.055Z</time></trkpt><trkpt lat="42.47713" lon="-7.2717528"><ele>279.0</ele><time>2026-04-25T14:01:26.033Z</time></trkpt></trkseg></trk></gpx>